<?xml version="1.0" encoding="UTF-8" standalone="no" ?>
<gpx xmlns="http://www.topografix.com/GPX/1/1" xmlns:xsi="http://www.w3.org/2001/XMLSchema-instance" xsi:schemaLocation="http://www.topografix.com/GPX/1/1 http://www.topografix.com/GPX/1/1/gpx.xsd" version="1.1" creator="VisuGPX - https://www.visugpx.com">
  <metadata>
    <name>Gentelle </name>
    <desc><![CDATA[31 pax cœur et santé
En rando ]]></desc>
  </metadata>
  <trk>
    <name><![CDATA[Gentelle _1]]></name>
    <trkseg>
      <trkpt lat="49.84445" lon="2.45723">
        <ele>105.3</ele>
        <time>2023-07-19T07:00:21Z</time>
      </trkpt>
      <trkpt lat="49.84445" lon="2.45723">
        <ele>105.3</ele>
        <time>2023-07-19T07:00:22Z</time>
      </trkpt>
      <trkpt lat="49.84445" lon="2.45723">
        <ele>105.3</ele>
        <time>2023-07-19T07:00:24Z</time>
      </trkpt>
      <trkpt lat="49.84446" lon="2.45723">
        <ele>105.3</ele>
        <time>2023-07-19T07:00:25Z</time>
      </trkpt>
      <trkpt lat="49.84446" lon="2.45723">
        <ele>105.3</ele>
        <time>2023-07-19T07:00:26Z</time>
      </trkpt>
      <trkpt lat="49.84446" lon="2.45723">
        <ele>105.3</ele>
        <time>2023-07-19T07:00:27Z</time>
      </trkpt>
      <trkpt lat="49.84446" lon="2.45723">
        <ele>105.3</ele>
        <time>2023-07-19T07:00:28Z</time>
      </trkpt>
      <trkpt lat="49.84446" lon="2.45723">
        <ele>105.3</ele>
        <time>2023-07-19T07:00:29Z</time>
      </trkpt>
      <trkpt lat="49.84446" lon="2.45723">
        <ele>105.3</ele>
        <time>2023-07-19T07:00:30Z</time>
      </trkpt>
      <trkpt lat="49.84446" lon="2.45723">
        <ele>105.3</ele>
        <time>2023-07-19T07:00:31Z</time>
      </trkpt>
      <trkpt lat="49.84446" lon="2.45723">
        <ele>105.3</ele>
        <time>2023-07-19T07:00:32Z</time>
      </trkpt>
      <trkpt lat="49.84446" lon="2.45723">
        <ele>105.3</ele>
        <time>2023-07-19T07:00:33Z</time>
      </trkpt>
      <trkpt lat="49.84446" lon="2.45723">
        <ele>105.3</ele>
        <time>2023-07-19T07:00:34Z</time>
      </trkpt>
      <trkpt lat="49.84445" lon="2.45722">
        <ele>105.3</ele>
        <time>2023-07-19T07:00:35Z</time>
      </trkpt>
      <trkpt lat="49.84445" lon="2.45722">
        <ele>105.3</ele>
        <time>2023-07-19T07:00:36Z</time>
      </trkpt>
      <trkpt lat="49.84444" lon="2.45722">
        <ele>105.3</ele>
        <time>2023-07-19T07:00:37Z</time>
      </trkpt>
      <trkpt lat="49.84444" lon="2.45722">
        <ele>105.3</ele>
        <time>2023-07-19T07:00:38Z</time>
      </trkpt>
      <trkpt lat="49.84444" lon="2.45724">
        <ele>105.3</ele>
        <time>2023-07-19T07:00:39Z</time>
      </trkpt>
      <trkpt lat="49.84446" lon="2.45729">
        <ele>105.3</ele>
        <time>2023-07-19T07:00:41Z</time>
      </trkpt>
      <trkpt lat="49.84446" lon="2.4573">
        <ele>105.3</ele>
        <time>2023-07-19T07:00:42Z</time>
      </trkpt>
      <trkpt lat="49.84446" lon="2.45732">
        <ele>105.3</ele>
        <time>2023-07-19T07:00:43Z</time>
      </trkpt>
      <trkpt lat="49.84446" lon="2.45732">
        <ele>105.3</ele>
        <time>2023-07-19T07:00:44Z</time>
      </trkpt>
      <trkpt lat="49.84446" lon="2.45734">
        <ele>105.2</ele>
        <time>2023-07-19T07:00:46Z</time>
      </trkpt>
      <trkpt lat="49.84446" lon="2.45734">
        <ele>105.2</ele>
        <time>2023-07-19T07:00:47Z</time>
      </trkpt>
      <trkpt lat="49.84446" lon="2.45736">
        <ele>105.2</ele>
        <time>2023-07-19T07:00:49Z</time>
      </trkpt>
      <trkpt lat="49.84446" lon="2.45737">
        <ele>105.2</ele>
        <time>2023-07-19T07:00:50Z</time>
      </trkpt>
      <trkpt lat="49.84445" lon="2.45738">
        <ele>105.2</ele>
        <time>2023-07-19T07:00:51Z</time>
      </trkpt>
      <trkpt lat="49.84445" lon="2.4574">
        <ele>105.2</ele>
        <time>2023-07-19T07:00:52Z</time>
      </trkpt>
      <trkpt lat="49.84446" lon="2.45743">
        <ele>105.2</ele>
        <time>2023-07-19T07:00:54Z</time>
      </trkpt>
      <trkpt lat="49.84446" lon="2.45745">
        <ele>105.2</ele>
        <time>2023-07-19T07:00:55Z</time>
      </trkpt>
      <trkpt lat="49.84447" lon="2.45747">
        <ele>105.1</ele>
        <time>2023-07-19T07:00:56Z</time>
      </trkpt>
      <trkpt lat="49.84446" lon="2.45747">
        <ele>105.1</ele>
        <time>2023-07-19T07:00:57Z</time>
      </trkpt>
      <trkpt lat="49.84446" lon="2.45749">
        <ele>105.1</ele>
        <time>2023-07-19T07:00:59Z</time>
      </trkpt>
      <trkpt lat="49.84446" lon="2.4575">
        <ele>105.1</ele>
        <time>2023-07-19T07:01:00Z</time>
      </trkpt>
      <trkpt lat="49.84446" lon="2.45751">
        <ele>105.1</ele>
        <time>2023-07-19T07:01:01Z</time>
      </trkpt>
      <trkpt lat="49.84446" lon="2.45753">
        <ele>105.1</ele>
        <time>2023-07-19T07:01:02Z</time>
      </trkpt>
      <trkpt lat="49.84445" lon="2.45754">
        <ele>105</ele>
        <time>2023-07-19T07:01:03Z</time>
      </trkpt>
      <trkpt lat="49.84445" lon="2.45756">
        <ele>105</ele>
        <time>2023-07-19T07:01:04Z</time>
      </trkpt>
      <trkpt lat="49.84445" lon="2.4576">
        <ele>105</ele>
        <time>2023-07-19T07:01:05Z</time>
      </trkpt>
      <trkpt lat="49.84445" lon="2.45761">
        <ele>105</ele>
        <time>2023-07-19T07:01:06Z</time>
      </trkpt>
      <trkpt lat="49.84445" lon="2.45762">
        <ele>105</ele>
        <time>2023-07-19T07:01:07Z</time>
      </trkpt>
      <trkpt lat="49.84445" lon="2.45767">
        <ele>104.9</ele>
        <time>2023-07-19T07:01:09Z</time>
      </trkpt>
      <trkpt lat="49.84445" lon="2.45768">
        <ele>104.9</ele>
        <time>2023-07-19T07:01:10Z</time>
      </trkpt>
      <trkpt lat="49.84445" lon="2.45774">
        <ele>104.8</ele>
        <time>2023-07-19T07:01:11Z</time>
      </trkpt>
      <trkpt lat="49.84445" lon="2.45775">
        <ele>104.8</ele>
        <time>2023-07-19T07:01:12Z</time>
      </trkpt>
      <trkpt lat="49.84445" lon="2.4578">
        <ele>104.7</ele>
        <time>2023-07-19T07:01:13Z</time>
      </trkpt>
      <trkpt lat="49.84445" lon="2.45782">
        <ele>104.7</ele>
        <time>2023-07-19T07:01:14Z</time>
      </trkpt>
      <trkpt lat="49.84446" lon="2.45786">
        <ele>104.7</ele>
        <time>2023-07-19T07:01:15Z</time>
      </trkpt>
      <trkpt lat="49.84446" lon="2.45787">
        <ele>104.7</ele>
        <time>2023-07-19T07:01:16Z</time>
      </trkpt>
      <trkpt lat="49.84447" lon="2.45791">
        <ele>104.6</ele>
        <time>2023-07-19T07:01:17Z</time>
      </trkpt>
      <trkpt lat="49.84447" lon="2.45793">
        <ele>104.6</ele>
        <time>2023-07-19T07:01:19Z</time>
      </trkpt>
      <trkpt lat="49.84448" lon="2.45794">
        <ele>104.6</ele>
        <time>2023-07-19T07:01:20Z</time>
      </trkpt>
      <trkpt lat="49.84448" lon="2.45796">
        <ele>104.5</ele>
        <time>2023-07-19T07:01:21Z</time>
      </trkpt>
      <trkpt lat="49.84448" lon="2.45798">
        <ele>104.5</ele>
        <time>2023-07-19T07:01:22Z</time>
      </trkpt>
      <trkpt lat="49.84449" lon="2.458">
        <ele>104.5</ele>
        <time>2023-07-19T07:01:23Z</time>
      </trkpt>
      <trkpt lat="49.84449" lon="2.45802">
        <ele>104.5</ele>
        <time>2023-07-19T07:01:24Z</time>
      </trkpt>
      <trkpt lat="49.8445" lon="2.45805">
        <ele>104.4</ele>
        <time>2023-07-19T07:01:26Z</time>
      </trkpt>
      <trkpt lat="49.8445" lon="2.45806">
        <ele>104.4</ele>
        <time>2023-07-19T07:01:27Z</time>
      </trkpt>
      <trkpt lat="49.8445" lon="2.45807">
        <ele>104.4</ele>
        <time>2023-07-19T07:01:28Z</time>
      </trkpt>
      <trkpt lat="49.8445" lon="2.45811">
        <ele>104.4</ele>
        <time>2023-07-19T07:01:29Z</time>
      </trkpt>
      <trkpt lat="49.8445" lon="2.45813">
        <ele>104.3</ele>
        <time>2023-07-19T07:01:30Z</time>
      </trkpt>
      <trkpt lat="49.8445" lon="2.45815">
        <ele>104.3</ele>
        <time>2023-07-19T07:01:32Z</time>
      </trkpt>
      <trkpt lat="49.8445" lon="2.45817">
        <ele>104.3</ele>
        <time>2023-07-19T07:01:33Z</time>
      </trkpt>
      <trkpt lat="49.8445" lon="2.45819">
        <ele>104.3</ele>
        <time>2023-07-19T07:01:34Z</time>
      </trkpt>
      <trkpt lat="49.8445" lon="2.45821">
        <ele>104.3</ele>
        <time>2023-07-19T07:01:35Z</time>
      </trkpt>
      <trkpt lat="49.8445" lon="2.45824">
        <ele>104.2</ele>
        <time>2023-07-19T07:01:37Z</time>
      </trkpt>
      <trkpt lat="49.8445" lon="2.45826">
        <ele>104.2</ele>
        <time>2023-07-19T07:01:38Z</time>
      </trkpt>
      <trkpt lat="49.8445" lon="2.45828">
        <ele>104.2</ele>
        <time>2023-07-19T07:01:39Z</time>
      </trkpt>
      <trkpt lat="49.8445" lon="2.4583">
        <ele>104.2</ele>
        <time>2023-07-19T07:01:40Z</time>
      </trkpt>
      <trkpt lat="49.8445" lon="2.45832">
        <ele>104.2</ele>
        <time>2023-07-19T07:01:41Z</time>
      </trkpt>
      <trkpt lat="49.84449" lon="2.45835">
        <ele>104.1</ele>
        <time>2023-07-19T07:01:43Z</time>
      </trkpt>
      <trkpt lat="49.84449" lon="2.45838">
        <ele>104.1</ele>
        <time>2023-07-19T07:01:44Z</time>
      </trkpt>
      <trkpt lat="49.84449" lon="2.4584">
        <ele>104.1</ele>
        <time>2023-07-19T07:01:45Z</time>
      </trkpt>
      <trkpt lat="49.84449" lon="2.45842">
        <ele>104.1</ele>
        <time>2023-07-19T07:01:46Z</time>
      </trkpt>
      <trkpt lat="49.84449" lon="2.45844">
        <ele>104.1</ele>
        <time>2023-07-19T07:01:47Z</time>
      </trkpt>
      <trkpt lat="49.84449" lon="2.45845">
        <ele>104.1</ele>
        <time>2023-07-19T07:01:48Z</time>
      </trkpt>
      <trkpt lat="49.84449" lon="2.45848">
        <ele>104.1</ele>
        <time>2023-07-19T07:01:49Z</time>
      </trkpt>
      <trkpt lat="49.84449" lon="2.4585">
        <ele>104</ele>
        <time>2023-07-19T07:01:51Z</time>
      </trkpt>
      <trkpt lat="49.84449" lon="2.45851">
        <ele>104</ele>
        <time>2023-07-19T07:01:52Z</time>
      </trkpt>
      <trkpt lat="49.84449" lon="2.45853">
        <ele>104</ele>
        <time>2023-07-19T07:01:53Z</time>
      </trkpt>
      <trkpt lat="49.84449" lon="2.45854">
        <ele>104</ele>
        <time>2023-07-19T07:01:55Z</time>
      </trkpt>
      <trkpt lat="49.84449" lon="2.45856">
        <ele>104</ele>
        <time>2023-07-19T07:01:56Z</time>
      </trkpt>
      <trkpt lat="49.84448" lon="2.45858">
        <ele>104</ele>
        <time>2023-07-19T07:01:57Z</time>
      </trkpt>
      <trkpt lat="49.84448" lon="2.4586">
        <ele>104</ele>
        <time>2023-07-19T07:01:58Z</time>
      </trkpt>
      <trkpt lat="49.84448" lon="2.45861">
        <ele>104</ele>
        <time>2023-07-19T07:01:59Z</time>
      </trkpt>
      <trkpt lat="49.84448" lon="2.45862">
        <ele>104</ele>
        <time>2023-07-19T07:02:00Z</time>
      </trkpt>
      <trkpt lat="49.84448" lon="2.45865">
        <ele>104</ele>
        <time>2023-07-19T07:02:02Z</time>
      </trkpt>
      <trkpt lat="49.84448" lon="2.45867">
        <ele>104</ele>
        <time>2023-07-19T07:02:03Z</time>
      </trkpt>
      <trkpt lat="49.84448" lon="2.45868">
        <ele>103.9</ele>
        <time>2023-07-19T07:02:05Z</time>
      </trkpt>
      <trkpt lat="49.84448" lon="2.4587">
        <ele>103.9</ele>
        <time>2023-07-19T07:02:06Z</time>
      </trkpt>
      <trkpt lat="49.84449" lon="2.45873">
        <ele>103.9</ele>
        <time>2023-07-19T07:02:07Z</time>
      </trkpt>
      <trkpt lat="49.84449" lon="2.45875">
        <ele>103.9</ele>
        <time>2023-07-19T07:02:08Z</time>
      </trkpt>
      <trkpt lat="49.84449" lon="2.45876">
        <ele>103.9</ele>
        <time>2023-07-19T07:02:09Z</time>
      </trkpt>
      <trkpt lat="49.84449" lon="2.45878">
        <ele>103.9</ele>
        <time>2023-07-19T07:02:10Z</time>
      </trkpt>
      <trkpt lat="49.84449" lon="2.45879">
        <ele>103.9</ele>
        <time>2023-07-19T07:02:11Z</time>
      </trkpt>
      <trkpt lat="49.84449" lon="2.45881">
        <ele>103.9</ele>
        <time>2023-07-19T07:02:12Z</time>
      </trkpt>
      <trkpt lat="49.84449" lon="2.45883">
        <ele>103.9</ele>
        <time>2023-07-19T07:02:13Z</time>
      </trkpt>
      <trkpt lat="49.84449" lon="2.45884">
        <ele>103.9</ele>
        <time>2023-07-19T07:02:14Z</time>
      </trkpt>
      <trkpt lat="49.84448" lon="2.45886">
        <ele>103.9</ele>
        <time>2023-07-19T07:02:17Z</time>
      </trkpt>
      <trkpt lat="49.84448" lon="2.45888">
        <ele>103.9</ele>
        <time>2023-07-19T07:02:18Z</time>
      </trkpt>
      <trkpt lat="49.84448" lon="2.4589">
        <ele>103.9</ele>
        <time>2023-07-19T07:02:19Z</time>
      </trkpt>
      <trkpt lat="49.84448" lon="2.45892">
        <ele>103.8</ele>
        <time>2023-07-19T07:02:20Z</time>
      </trkpt>
      <trkpt lat="49.84448" lon="2.45894">
        <ele>103.8</ele>
        <time>2023-07-19T07:02:21Z</time>
      </trkpt>
      <trkpt lat="49.84448" lon="2.45896">
        <ele>103.8</ele>
        <time>2023-07-19T07:02:22Z</time>
      </trkpt>
      <trkpt lat="49.84447" lon="2.45898">
        <ele>103.8</ele>
        <time>2023-07-19T07:02:23Z</time>
      </trkpt>
      <trkpt lat="49.84447" lon="2.45901">
        <ele>103.8</ele>
        <time>2023-07-19T07:02:25Z</time>
      </trkpt>
      <trkpt lat="49.84447" lon="2.45902">
        <ele>103.8</ele>
        <time>2023-07-19T07:02:26Z</time>
      </trkpt>
      <trkpt lat="49.84447" lon="2.45904">
        <ele>103.8</ele>
        <time>2023-07-19T07:02:28Z</time>
      </trkpt>
      <trkpt lat="49.84447" lon="2.45906">
        <ele>103.8</ele>
        <time>2023-07-19T07:02:29Z</time>
      </trkpt>
      <trkpt lat="49.84447" lon="2.45908">
        <ele>103.8</ele>
        <time>2023-07-19T07:02:30Z</time>
      </trkpt>
      <trkpt lat="49.84447" lon="2.45912">
        <ele>103.7</ele>
        <time>2023-07-19T07:02:32Z</time>
      </trkpt>
      <trkpt lat="49.84448" lon="2.45914">
        <ele>103.7</ele>
        <time>2023-07-19T07:02:33Z</time>
      </trkpt>
      <trkpt lat="49.84448" lon="2.45917">
        <ele>103.7</ele>
        <time>2023-07-19T07:02:35Z</time>
      </trkpt>
      <trkpt lat="49.84448" lon="2.45919">
        <ele>103.7</ele>
        <time>2023-07-19T07:02:36Z</time>
      </trkpt>
      <trkpt lat="49.84448" lon="2.45921">
        <ele>103.7</ele>
        <time>2023-07-19T07:02:38Z</time>
      </trkpt>
      <trkpt lat="49.84449" lon="2.45925">
        <ele>103.7</ele>
        <time>2023-07-19T07:02:40Z</time>
      </trkpt>
      <trkpt lat="49.8445" lon="2.45928">
        <ele>103.7</ele>
        <time>2023-07-19T07:02:42Z</time>
      </trkpt>
      <trkpt lat="49.8445" lon="2.4593">
        <ele>103.7</ele>
        <time>2023-07-19T07:02:43Z</time>
      </trkpt>
      <trkpt lat="49.84451" lon="2.45933">
        <ele>103.8</ele>
        <time>2023-07-19T07:02:44Z</time>
      </trkpt>
      <trkpt lat="49.84451" lon="2.45934">
        <ele>103.8</ele>
        <time>2023-07-19T07:02:45Z</time>
      </trkpt>
      <trkpt lat="49.84452" lon="2.45935">
        <ele>103.8</ele>
        <time>2023-07-19T07:02:46Z</time>
      </trkpt>
      <trkpt lat="49.84453" lon="2.45938">
        <ele>103.8</ele>
        <time>2023-07-19T07:02:47Z</time>
      </trkpt>
      <trkpt lat="49.84453" lon="2.45939">
        <ele>103.8</ele>
        <time>2023-07-19T07:02:48Z</time>
      </trkpt>
      <trkpt lat="49.84454" lon="2.45944">
        <ele>103.8</ele>
        <time>2023-07-19T07:02:50Z</time>
      </trkpt>
      <trkpt lat="49.84454" lon="2.45945">
        <ele>103.8</ele>
        <time>2023-07-19T07:02:51Z</time>
      </trkpt>
      <trkpt lat="49.84456" lon="2.45949">
        <ele>103.8</ele>
        <time>2023-07-19T07:02:53Z</time>
      </trkpt>
      <trkpt lat="49.84456" lon="2.4595">
        <ele>103.8</ele>
        <time>2023-07-19T07:02:54Z</time>
      </trkpt>
      <trkpt lat="49.84457" lon="2.45952">
        <ele>103.8</ele>
        <time>2023-07-19T07:02:55Z</time>
      </trkpt>
      <trkpt lat="49.84457" lon="2.45954">
        <ele>103.8</ele>
        <time>2023-07-19T07:02:56Z</time>
      </trkpt>
      <trkpt lat="49.84458" lon="2.45955">
        <ele>103.8</ele>
        <time>2023-07-19T07:02:58Z</time>
      </trkpt>
      <trkpt lat="49.84459" lon="2.45958">
        <ele>103.8</ele>
        <time>2023-07-19T07:02:59Z</time>
      </trkpt>
      <trkpt lat="49.84459" lon="2.4596">
        <ele>103.9</ele>
        <time>2023-07-19T07:03:00Z</time>
      </trkpt>
      <trkpt lat="49.8446" lon="2.45963">
        <ele>103.9</ele>
        <time>2023-07-19T07:03:01Z</time>
      </trkpt>
      <trkpt lat="49.84461" lon="2.45964">
        <ele>103.9</ele>
        <time>2023-07-19T07:03:02Z</time>
      </trkpt>
      <trkpt lat="49.84461" lon="2.45965">
        <ele>103.9</ele>
        <time>2023-07-19T07:03:03Z</time>
      </trkpt>
      <trkpt lat="49.84463" lon="2.45969">
        <ele>103.9</ele>
        <time>2023-07-19T07:03:06Z</time>
      </trkpt>
      <trkpt lat="49.84463" lon="2.4597">
        <ele>103.9</ele>
        <time>2023-07-19T07:03:07Z</time>
      </trkpt>
      <trkpt lat="49.84464" lon="2.45972">
        <ele>104</ele>
        <time>2023-07-19T07:03:08Z</time>
      </trkpt>
      <trkpt lat="49.84465" lon="2.45974">
        <ele>104</ele>
        <time>2023-07-19T07:03:09Z</time>
      </trkpt>
      <trkpt lat="49.84466" lon="2.45976">
        <ele>104</ele>
        <time>2023-07-19T07:03:10Z</time>
      </trkpt>
      <trkpt lat="49.84467" lon="2.45979">
        <ele>104</ele>
        <time>2023-07-19T07:03:12Z</time>
      </trkpt>
      <trkpt lat="49.84468" lon="2.4598">
        <ele>104</ele>
        <time>2023-07-19T07:03:13Z</time>
      </trkpt>
      <trkpt lat="49.84468" lon="2.45983">
        <ele>104</ele>
        <time>2023-07-19T07:03:14Z</time>
      </trkpt>
      <trkpt lat="49.84469" lon="2.45984">
        <ele>104.1</ele>
        <time>2023-07-19T07:03:15Z</time>
      </trkpt>
      <trkpt lat="49.8447" lon="2.45987">
        <ele>104.1</ele>
        <time>2023-07-19T07:03:16Z</time>
      </trkpt>
      <trkpt lat="49.84471" lon="2.45989">
        <ele>104.1</ele>
        <time>2023-07-19T07:03:17Z</time>
      </trkpt>
      <trkpt lat="49.84472" lon="2.4599">
        <ele>104.1</ele>
        <time>2023-07-19T07:03:18Z</time>
      </trkpt>
      <trkpt lat="49.84472" lon="2.45992">
        <ele>104.1</ele>
        <time>2023-07-19T07:03:19Z</time>
      </trkpt>
      <trkpt lat="49.84474" lon="2.45996">
        <ele>104.1</ele>
        <time>2023-07-19T07:03:21Z</time>
      </trkpt>
      <trkpt lat="49.84474" lon="2.45998">
        <ele>104.2</ele>
        <time>2023-07-19T07:03:22Z</time>
      </trkpt>
      <trkpt lat="49.84475" lon="2.46">
        <ele>104.2</ele>
        <time>2023-07-19T07:03:24Z</time>
      </trkpt>
      <trkpt lat="49.84475" lon="2.46001">
        <ele>104.2</ele>
        <time>2023-07-19T07:03:25Z</time>
      </trkpt>
      <trkpt lat="49.84476" lon="2.46004">
        <ele>104.2</ele>
        <time>2023-07-19T07:03:26Z</time>
      </trkpt>
      <trkpt lat="49.84476" lon="2.46005">
        <ele>104.2</ele>
        <time>2023-07-19T07:03:27Z</time>
      </trkpt>
      <trkpt lat="49.84477" lon="2.46006">
        <ele>104.2</ele>
        <time>2023-07-19T07:03:28Z</time>
      </trkpt>
      <trkpt lat="49.84477" lon="2.46008">
        <ele>104.2</ele>
        <time>2023-07-19T07:03:29Z</time>
      </trkpt>
      <trkpt lat="49.84478" lon="2.4601">
        <ele>104.2</ele>
        <time>2023-07-19T07:03:30Z</time>
      </trkpt>
      <trkpt lat="49.84479" lon="2.46012">
        <ele>104.2</ele>
        <time>2023-07-19T07:03:32Z</time>
      </trkpt>
      <trkpt lat="49.84479" lon="2.46014">
        <ele>104.2</ele>
        <time>2023-07-19T07:03:33Z</time>
      </trkpt>
      <trkpt lat="49.8448" lon="2.46016">
        <ele>104.2</ele>
        <time>2023-07-19T07:03:34Z</time>
      </trkpt>
      <trkpt lat="49.8448" lon="2.46018">
        <ele>104.2</ele>
        <time>2023-07-19T07:03:35Z</time>
      </trkpt>
      <trkpt lat="49.84481" lon="2.4602">
        <ele>104.2</ele>
        <time>2023-07-19T07:03:36Z</time>
      </trkpt>
      <trkpt lat="49.84481" lon="2.46022">
        <ele>104.2</ele>
        <time>2023-07-19T07:03:37Z</time>
      </trkpt>
      <trkpt lat="49.84482" lon="2.46026">
        <ele>104.2</ele>
        <time>2023-07-19T07:03:38Z</time>
      </trkpt>
      <trkpt lat="49.84483" lon="2.46027">
        <ele>104.2</ele>
        <time>2023-07-19T07:03:39Z</time>
      </trkpt>
      <trkpt lat="49.84483" lon="2.46028">
        <ele>104.2</ele>
        <time>2023-07-19T07:03:40Z</time>
      </trkpt>
      <trkpt lat="49.84483" lon="2.4603">
        <ele>104.2</ele>
        <time>2023-07-19T07:03:41Z</time>
      </trkpt>
      <trkpt lat="49.84484" lon="2.46031">
        <ele>104.2</ele>
        <time>2023-07-19T07:03:42Z</time>
      </trkpt>
      <trkpt lat="49.84484" lon="2.46033">
        <ele>104.2</ele>
        <time>2023-07-19T07:03:43Z</time>
      </trkpt>
      <trkpt lat="49.84485" lon="2.46036">
        <ele>104.2</ele>
        <time>2023-07-19T07:03:45Z</time>
      </trkpt>
      <trkpt lat="49.84485" lon="2.46037">
        <ele>104.2</ele>
        <time>2023-07-19T07:03:46Z</time>
      </trkpt>
      <trkpt lat="49.84486" lon="2.46039">
        <ele>104.2</ele>
        <time>2023-07-19T07:03:47Z</time>
      </trkpt>
      <trkpt lat="49.84486" lon="2.46041">
        <ele>104.2</ele>
        <time>2023-07-19T07:03:48Z</time>
      </trkpt>
      <trkpt lat="49.84487" lon="2.46043">
        <ele>104.2</ele>
        <time>2023-07-19T07:03:49Z</time>
      </trkpt>
      <trkpt lat="49.84487" lon="2.46045">
        <ele>104.2</ele>
        <time>2023-07-19T07:03:50Z</time>
      </trkpt>
      <trkpt lat="49.84488" lon="2.46047">
        <ele>104.2</ele>
        <time>2023-07-19T07:03:51Z</time>
      </trkpt>
      <trkpt lat="49.84489" lon="2.4605">
        <ele>104.3</ele>
        <time>2023-07-19T07:03:52Z</time>
      </trkpt>
      <trkpt lat="49.8449" lon="2.46051">
        <ele>104.3</ele>
        <time>2023-07-19T07:03:54Z</time>
      </trkpt>
      <trkpt lat="49.8449" lon="2.46053">
        <ele>104.3</ele>
        <time>2023-07-19T07:03:55Z</time>
      </trkpt>
      <trkpt lat="49.84491" lon="2.46055">
        <ele>104.3</ele>
        <time>2023-07-19T07:03:56Z</time>
      </trkpt>
      <trkpt lat="49.84491" lon="2.46057">
        <ele>104.3</ele>
        <time>2023-07-19T07:03:57Z</time>
      </trkpt>
      <trkpt lat="49.84493" lon="2.4606">
        <ele>104.3</ele>
        <time>2023-07-19T07:03:58Z</time>
      </trkpt>
      <trkpt lat="49.84493" lon="2.46061">
        <ele>104.3</ele>
        <time>2023-07-19T07:04:00Z</time>
      </trkpt>
      <trkpt lat="49.84493" lon="2.46062">
        <ele>104.3</ele>
        <time>2023-07-19T07:04:01Z</time>
      </trkpt>
      <trkpt lat="49.84494" lon="2.46064">
        <ele>104.3</ele>
        <time>2023-07-19T07:04:02Z</time>
      </trkpt>
      <trkpt lat="49.84495" lon="2.46065">
        <ele>104.3</ele>
        <time>2023-07-19T07:04:03Z</time>
      </trkpt>
      <trkpt lat="49.84496" lon="2.46069">
        <ele>104.3</ele>
        <time>2023-07-19T07:04:05Z</time>
      </trkpt>
      <trkpt lat="49.84497" lon="2.4607">
        <ele>104.3</ele>
        <time>2023-07-19T07:04:06Z</time>
      </trkpt>
      <trkpt lat="49.84498" lon="2.46073">
        <ele>104.3</ele>
        <time>2023-07-19T07:04:08Z</time>
      </trkpt>
      <trkpt lat="49.845" lon="2.46076">
        <ele>104.4</ele>
        <time>2023-07-19T07:04:09Z</time>
      </trkpt>
      <trkpt lat="49.84501" lon="2.46077">
        <ele>104.4</ele>
        <time>2023-07-19T07:04:10Z</time>
      </trkpt>
      <trkpt lat="49.84502" lon="2.46078">
        <ele>104.4</ele>
        <time>2023-07-19T07:04:12Z</time>
      </trkpt>
      <trkpt lat="49.84503" lon="2.4608">
        <ele>104.4</ele>
        <time>2023-07-19T07:04:13Z</time>
      </trkpt>
      <trkpt lat="49.84504" lon="2.46082">
        <ele>104.4</ele>
        <time>2023-07-19T07:04:14Z</time>
      </trkpt>
      <trkpt lat="49.84506" lon="2.46083">
        <ele>104.4</ele>
        <time>2023-07-19T07:04:15Z</time>
      </trkpt>
      <trkpt lat="49.84507" lon="2.46084">
        <ele>104.4</ele>
        <time>2023-07-19T07:04:16Z</time>
      </trkpt>
      <trkpt lat="49.84509" lon="2.46086">
        <ele>104.5</ele>
        <time>2023-07-19T07:04:18Z</time>
      </trkpt>
      <trkpt lat="49.8451" lon="2.46087">
        <ele>104.5</ele>
        <time>2023-07-19T07:04:20Z</time>
      </trkpt>
      <trkpt lat="49.84511" lon="2.46088">
        <ele>104.5</ele>
        <time>2023-07-19T07:04:21Z</time>
      </trkpt>
      <trkpt lat="49.84512" lon="2.46089">
        <ele>104.5</ele>
        <time>2023-07-19T07:04:22Z</time>
      </trkpt>
      <trkpt lat="49.84513" lon="2.4609">
        <ele>104.5</ele>
        <time>2023-07-19T07:04:23Z</time>
      </trkpt>
      <trkpt lat="49.84515" lon="2.46091">
        <ele>104.5</ele>
        <time>2023-07-19T07:04:24Z</time>
      </trkpt>
      <trkpt lat="49.84516" lon="2.46092">
        <ele>104.6</ele>
        <time>2023-07-19T07:04:25Z</time>
      </trkpt>
      <trkpt lat="49.84518" lon="2.46093">
        <ele>104.6</ele>
        <time>2023-07-19T07:04:27Z</time>
      </trkpt>
      <trkpt lat="49.84519" lon="2.46094">
        <ele>104.6</ele>
        <time>2023-07-19T07:04:28Z</time>
      </trkpt>
      <trkpt lat="49.84521" lon="2.46095">
        <ele>104.6</ele>
        <time>2023-07-19T07:04:29Z</time>
      </trkpt>
      <trkpt lat="49.84522" lon="2.46095">
        <ele>104.7</ele>
        <time>2023-07-19T07:04:30Z</time>
      </trkpt>
      <trkpt lat="49.84523" lon="2.46096">
        <ele>104.7</ele>
        <time>2023-07-19T07:04:31Z</time>
      </trkpt>
      <trkpt lat="49.84525" lon="2.46096">
        <ele>104.7</ele>
        <time>2023-07-19T07:04:32Z</time>
      </trkpt>
      <trkpt lat="49.84526" lon="2.46097">
        <ele>104.8</ele>
        <time>2023-07-19T07:04:33Z</time>
      </trkpt>
      <trkpt lat="49.84527" lon="2.46097">
        <ele>104.8</ele>
        <time>2023-07-19T07:04:35Z</time>
      </trkpt>
      <trkpt lat="49.84528" lon="2.46097">
        <ele>104.8</ele>
        <time>2023-07-19T07:04:36Z</time>
      </trkpt>
      <trkpt lat="49.8453" lon="2.46097">
        <ele>104.8</ele>
        <time>2023-07-19T07:04:37Z</time>
      </trkpt>
      <trkpt lat="49.84531" lon="2.46096">
        <ele>104.9</ele>
        <time>2023-07-19T07:04:39Z</time>
      </trkpt>
      <trkpt lat="49.84533" lon="2.46096">
        <ele>104.9</ele>
        <time>2023-07-19T07:04:40Z</time>
      </trkpt>
      <trkpt lat="49.84534" lon="2.46096">
        <ele>104.9</ele>
        <time>2023-07-19T07:04:41Z</time>
      </trkpt>
      <trkpt lat="49.84535" lon="2.46096">
        <ele>105</ele>
        <time>2023-07-19T07:04:42Z</time>
      </trkpt>
      <trkpt lat="49.84536" lon="2.46096">
        <ele>105</ele>
        <time>2023-07-19T07:04:43Z</time>
      </trkpt>
      <trkpt lat="49.84537" lon="2.46096">
        <ele>105</ele>
        <time>2023-07-19T07:04:45Z</time>
      </trkpt>
      <trkpt lat="49.84539" lon="2.46096">
        <ele>105</ele>
        <time>2023-07-19T07:04:46Z</time>
      </trkpt>
      <trkpt lat="49.8454" lon="2.46096">
        <ele>105.1</ele>
        <time>2023-07-19T07:04:47Z</time>
      </trkpt>
      <trkpt lat="49.84541" lon="2.46096">
        <ele>105.1</ele>
        <time>2023-07-19T07:04:48Z</time>
      </trkpt>
      <trkpt lat="49.84541" lon="2.46096">
        <ele>105.1</ele>
        <time>2023-07-19T07:04:49Z</time>
      </trkpt>
      <trkpt lat="49.84542" lon="2.46096">
        <ele>105.1</ele>
        <time>2023-07-19T07:04:50Z</time>
      </trkpt>
      <trkpt lat="49.84542" lon="2.46096">
        <ele>105.1</ele>
        <time>2023-07-19T07:04:51Z</time>
      </trkpt>
      <trkpt lat="49.84543" lon="2.46096">
        <ele>105.2</ele>
        <time>2023-07-19T07:04:53Z</time>
      </trkpt>
      <trkpt lat="49.84544" lon="2.46096">
        <ele>105.2</ele>
        <time>2023-07-19T07:04:54Z</time>
      </trkpt>
      <trkpt lat="49.84544" lon="2.46096">
        <ele>105.2</ele>
        <time>2023-07-19T07:04:56Z</time>
      </trkpt>
      <trkpt lat="49.84545" lon="2.46097">
        <ele>105.2</ele>
        <time>2023-07-19T07:04:57Z</time>
      </trkpt>
      <trkpt lat="49.84545" lon="2.46097">
        <ele>105.2</ele>
        <time>2023-07-19T07:04:58Z</time>
      </trkpt>
      <trkpt lat="49.84546" lon="2.46098">
        <ele>105.2</ele>
        <time>2023-07-19T07:05:00Z</time>
      </trkpt>
      <trkpt lat="49.84547" lon="2.46098">
        <ele>105.3</ele>
        <time>2023-07-19T07:05:01Z</time>
      </trkpt>
      <trkpt lat="49.84547" lon="2.461">
        <ele>105.3</ele>
        <time>2023-07-19T07:05:02Z</time>
      </trkpt>
      <trkpt lat="49.84548" lon="2.46101">
        <ele>105.3</ele>
        <time>2023-07-19T07:05:03Z</time>
      </trkpt>
      <trkpt lat="49.84548" lon="2.46102">
        <ele>105.3</ele>
        <time>2023-07-19T07:05:05Z</time>
      </trkpt>
      <trkpt lat="49.84549" lon="2.46104">
        <ele>105.4</ele>
        <time>2023-07-19T07:05:06Z</time>
      </trkpt>
      <trkpt lat="49.84549" lon="2.46106">
        <ele>105.4</ele>
        <time>2023-07-19T07:05:07Z</time>
      </trkpt>
      <trkpt lat="49.84548" lon="2.46108">
        <ele>105.4</ele>
        <time>2023-07-19T07:05:09Z</time>
      </trkpt>
      <trkpt lat="49.84548" lon="2.4611">
        <ele>105.4</ele>
        <time>2023-07-19T07:05:10Z</time>
      </trkpt>
      <trkpt lat="49.84548" lon="2.46112">
        <ele>105.4</ele>
        <time>2023-07-19T07:05:11Z</time>
      </trkpt>
      <trkpt lat="49.84548" lon="2.46114">
        <ele>105.4</ele>
        <time>2023-07-19T07:05:13Z</time>
      </trkpt>
      <trkpt lat="49.84547" lon="2.46116">
        <ele>105.3</ele>
        <time>2023-07-19T07:05:14Z</time>
      </trkpt>
      <trkpt lat="49.84547" lon="2.46118">
        <ele>105.3</ele>
        <time>2023-07-19T07:05:15Z</time>
      </trkpt>
      <trkpt lat="49.84546" lon="2.46121">
        <ele>105.3</ele>
        <time>2023-07-19T07:05:16Z</time>
      </trkpt>
      <trkpt lat="49.84545" lon="2.46123">
        <ele>105.3</ele>
        <time>2023-07-19T07:05:17Z</time>
      </trkpt>
      <trkpt lat="49.84544" lon="2.46124">
        <ele>105.2</ele>
        <time>2023-07-19T07:05:18Z</time>
      </trkpt>
      <trkpt lat="49.84544" lon="2.46126">
        <ele>105.2</ele>
        <time>2023-07-19T07:05:20Z</time>
      </trkpt>
      <trkpt lat="49.84543" lon="2.46128">
        <ele>105.2</ele>
        <time>2023-07-19T07:05:21Z</time>
      </trkpt>
      <trkpt lat="49.84542" lon="2.46129">
        <ele>105.2</ele>
        <time>2023-07-19T07:05:22Z</time>
      </trkpt>
      <trkpt lat="49.8454" lon="2.46131">
        <ele>105.1</ele>
        <time>2023-07-19T07:05:23Z</time>
      </trkpt>
      <trkpt lat="49.84539" lon="2.46132">
        <ele>105.1</ele>
        <time>2023-07-19T07:05:24Z</time>
      </trkpt>
      <trkpt lat="49.84538" lon="2.46133">
        <ele>105.1</ele>
        <time>2023-07-19T07:05:25Z</time>
      </trkpt>
      <trkpt lat="49.84537" lon="2.46132">
        <ele>105</ele>
        <time>2023-07-19T07:05:27Z</time>
      </trkpt>
      <trkpt lat="49.84536" lon="2.46132">
        <ele>105</ele>
        <time>2023-07-19T07:05:28Z</time>
      </trkpt>
      <trkpt lat="49.84535" lon="2.46133">
        <ele>105</ele>
        <time>2023-07-19T07:05:29Z</time>
      </trkpt>
      <trkpt lat="49.84534" lon="2.46134">
        <ele>105</ele>
        <time>2023-07-19T07:05:30Z</time>
      </trkpt>
      <trkpt lat="49.84533" lon="2.46134">
        <ele>105</ele>
        <time>2023-07-19T07:05:31Z</time>
      </trkpt>
      <trkpt lat="49.84532" lon="2.46135">
        <ele>104.9</ele>
        <time>2023-07-19T07:05:32Z</time>
      </trkpt>
      <trkpt lat="49.84531" lon="2.46136">
        <ele>104.9</ele>
        <time>2023-07-19T07:05:34Z</time>
      </trkpt>
      <trkpt lat="49.84529" lon="2.46138">
        <ele>104.9</ele>
        <time>2023-07-19T07:05:35Z</time>
      </trkpt>
      <trkpt lat="49.84528" lon="2.46138">
        <ele>104.8</ele>
        <time>2023-07-19T07:05:36Z</time>
      </trkpt>
      <trkpt lat="49.84528" lon="2.46139">
        <ele>104.8</ele>
        <time>2023-07-19T07:05:38Z</time>
      </trkpt>
      <trkpt lat="49.84527" lon="2.46139">
        <ele>104.8</ele>
        <time>2023-07-19T07:05:39Z</time>
      </trkpt>
      <trkpt lat="49.84526" lon="2.4614">
        <ele>104.8</ele>
        <time>2023-07-19T07:05:40Z</time>
      </trkpt>
      <trkpt lat="49.84524" lon="2.46141">
        <ele>104.8</ele>
        <time>2023-07-19T07:05:41Z</time>
      </trkpt>
      <trkpt lat="49.84524" lon="2.46141">
        <ele>104.7</ele>
        <time>2023-07-19T07:05:42Z</time>
      </trkpt>
      <trkpt lat="49.84522" lon="2.46142">
        <ele>104.7</ele>
        <time>2023-07-19T07:05:43Z</time>
      </trkpt>
      <trkpt lat="49.84521" lon="2.46141">
        <ele>104.7</ele>
        <time>2023-07-19T07:05:44Z</time>
      </trkpt>
      <trkpt lat="49.84519" lon="2.46141">
        <ele>104.7</ele>
        <time>2023-07-19T07:05:46Z</time>
      </trkpt>
      <trkpt lat="49.84518" lon="2.46141">
        <ele>104.6</ele>
        <time>2023-07-19T07:05:47Z</time>
      </trkpt>
      <trkpt lat="49.84517" lon="2.46141">
        <ele>104.6</ele>
        <time>2023-07-19T07:05:48Z</time>
      </trkpt>
      <trkpt lat="49.84515" lon="2.46142">
        <ele>104.6</ele>
        <time>2023-07-19T07:05:49Z</time>
      </trkpt>
      <trkpt lat="49.84513" lon="2.46143">
        <ele>104.5</ele>
        <time>2023-07-19T07:05:51Z</time>
      </trkpt>
      <trkpt lat="49.84511" lon="2.46144">
        <ele>104.5</ele>
        <time>2023-07-19T07:05:52Z</time>
      </trkpt>
      <trkpt lat="49.8451" lon="2.46145">
        <ele>104.5</ele>
        <time>2023-07-19T07:05:53Z</time>
      </trkpt>
      <trkpt lat="49.84508" lon="2.46145">
        <ele>104.5</ele>
        <time>2023-07-19T07:05:54Z</time>
      </trkpt>
      <trkpt lat="49.84507" lon="2.46146">
        <ele>104.4</ele>
        <time>2023-07-19T07:05:55Z</time>
      </trkpt>
      <trkpt lat="49.84504" lon="2.46148">
        <ele>104.4</ele>
        <time>2023-07-19T07:05:57Z</time>
      </trkpt>
      <trkpt lat="49.84503" lon="2.46148">
        <ele>104.3</ele>
        <time>2023-07-19T07:05:58Z</time>
      </trkpt>
      <trkpt lat="49.84501" lon="2.46148">
        <ele>104.3</ele>
        <time>2023-07-19T07:06:00Z</time>
      </trkpt>
      <trkpt lat="49.845" lon="2.46149">
        <ele>104.3</ele>
        <time>2023-07-19T07:06:01Z</time>
      </trkpt>
      <trkpt lat="49.845" lon="2.46149">
        <ele>104.3</ele>
        <time>2023-07-19T07:06:02Z</time>
      </trkpt>
      <trkpt lat="49.84498" lon="2.46149">
        <ele>104.2</ele>
        <time>2023-07-19T07:06:03Z</time>
      </trkpt>
      <trkpt lat="49.84496" lon="2.46149">
        <ele>104.2</ele>
        <time>2023-07-19T07:06:04Z</time>
      </trkpt>
      <trkpt lat="49.84495" lon="2.46149">
        <ele>104.2</ele>
        <time>2023-07-19T07:06:05Z</time>
      </trkpt>
      <trkpt lat="49.84494" lon="2.46149">
        <ele>104.2</ele>
        <time>2023-07-19T07:06:06Z</time>
      </trkpt>
      <trkpt lat="49.84492" lon="2.46149">
        <ele>104.1</ele>
        <time>2023-07-19T07:06:07Z</time>
      </trkpt>
      <trkpt lat="49.84491" lon="2.46149">
        <ele>104.1</ele>
        <time>2023-07-19T07:06:08Z</time>
      </trkpt>
      <trkpt lat="49.84491" lon="2.46148">
        <ele>104.1</ele>
        <time>2023-07-19T07:06:10Z</time>
      </trkpt>
      <trkpt lat="49.8449" lon="2.46148">
        <ele>104.1</ele>
        <time>2023-07-19T07:06:11Z</time>
      </trkpt>
      <trkpt lat="49.84489" lon="2.46148">
        <ele>104.1</ele>
        <time>2023-07-19T07:06:12Z</time>
      </trkpt>
      <trkpt lat="49.84487" lon="2.46148">
        <ele>104.1</ele>
        <time>2023-07-19T07:06:14Z</time>
      </trkpt>
      <trkpt lat="49.84485" lon="2.46148">
        <ele>104</ele>
        <time>2023-07-19T07:06:16Z</time>
      </trkpt>
      <trkpt lat="49.84484" lon="2.46149">
        <ele>104</ele>
        <time>2023-07-19T07:06:17Z</time>
      </trkpt>
      <trkpt lat="49.84482" lon="2.46149">
        <ele>104</ele>
        <time>2023-07-19T07:06:18Z</time>
      </trkpt>
      <trkpt lat="49.84481" lon="2.46149">
        <ele>104</ele>
        <time>2023-07-19T07:06:19Z</time>
      </trkpt>
      <trkpt lat="49.84479" lon="2.46149">
        <ele>104</ele>
        <time>2023-07-19T07:06:20Z</time>
      </trkpt>
      <trkpt lat="49.84477" lon="2.46149">
        <ele>103.9</ele>
        <time>2023-07-19T07:06:21Z</time>
      </trkpt>
      <trkpt lat="49.84475" lon="2.46149">
        <ele>103.9</ele>
        <time>2023-07-19T07:06:23Z</time>
      </trkpt>
      <trkpt lat="49.84474" lon="2.46149">
        <ele>103.9</ele>
        <time>2023-07-19T07:06:25Z</time>
      </trkpt>
      <trkpt lat="49.84473" lon="2.46149">
        <ele>103.9</ele>
        <time>2023-07-19T07:06:26Z</time>
      </trkpt>
      <trkpt lat="49.84471" lon="2.46149">
        <ele>103.9</ele>
        <time>2023-07-19T07:06:27Z</time>
      </trkpt>
      <trkpt lat="49.8447" lon="2.46149">
        <ele>103.8</ele>
        <time>2023-07-19T07:06:28Z</time>
      </trkpt>
      <trkpt lat="49.84468" lon="2.46149">
        <ele>103.8</ele>
        <time>2023-07-19T07:06:29Z</time>
      </trkpt>
      <trkpt lat="49.84467" lon="2.46149">
        <ele>103.8</ele>
        <time>2023-07-19T07:06:31Z</time>
      </trkpt>
      <trkpt lat="49.84466" lon="2.46148">
        <ele>103.8</ele>
        <time>2023-07-19T07:06:32Z</time>
      </trkpt>
      <trkpt lat="49.84464" lon="2.46148">
        <ele>103.8</ele>
        <time>2023-07-19T07:06:33Z</time>
      </trkpt>
      <trkpt lat="49.84462" lon="2.46148">
        <ele>103.7</ele>
        <time>2023-07-19T07:06:35Z</time>
      </trkpt>
      <trkpt lat="49.84461" lon="2.46148">
        <ele>103.7</ele>
        <time>2023-07-19T07:06:36Z</time>
      </trkpt>
      <trkpt lat="49.8446" lon="2.46148">
        <ele>103.7</ele>
        <time>2023-07-19T07:06:37Z</time>
      </trkpt>
      <trkpt lat="49.84459" lon="2.46148">
        <ele>103.7</ele>
        <time>2023-07-19T07:06:38Z</time>
      </trkpt>
      <trkpt lat="49.84457" lon="2.46148">
        <ele>103.7</ele>
        <time>2023-07-19T07:06:39Z</time>
      </trkpt>
      <trkpt lat="49.84456" lon="2.46148">
        <ele>103.7</ele>
        <time>2023-07-19T07:06:40Z</time>
      </trkpt>
      <trkpt lat="49.84455" lon="2.46148">
        <ele>103.6</ele>
        <time>2023-07-19T07:06:42Z</time>
      </trkpt>
      <trkpt lat="49.84453" lon="2.46148">
        <ele>103.6</ele>
        <time>2023-07-19T07:06:43Z</time>
      </trkpt>
      <trkpt lat="49.84451" lon="2.46148">
        <ele>103.6</ele>
        <time>2023-07-19T07:06:44Z</time>
      </trkpt>
      <trkpt lat="49.84449" lon="2.46147">
        <ele>103.6</ele>
        <time>2023-07-19T07:06:45Z</time>
      </trkpt>
      <trkpt lat="49.84449" lon="2.46147">
        <ele>103.6</ele>
        <time>2023-07-19T07:06:46Z</time>
      </trkpt>
      <trkpt lat="49.84447" lon="2.46146">
        <ele>103.5</ele>
        <time>2023-07-19T07:06:47Z</time>
      </trkpt>
      <trkpt lat="49.84446" lon="2.46145">
        <ele>103.5</ele>
        <time>2023-07-19T07:06:48Z</time>
      </trkpt>
      <trkpt lat="49.84445" lon="2.46144">
        <ele>103.5</ele>
        <time>2023-07-19T07:06:50Z</time>
      </trkpt>
      <trkpt lat="49.84444" lon="2.46143">
        <ele>103.4</ele>
        <time>2023-07-19T07:06:51Z</time>
      </trkpt>
      <trkpt lat="49.84443" lon="2.46141">
        <ele>103.4</ele>
        <time>2023-07-19T07:06:53Z</time>
      </trkpt>
      <trkpt lat="49.84443" lon="2.4614">
        <ele>103.4</ele>
        <time>2023-07-19T07:06:54Z</time>
      </trkpt>
      <trkpt lat="49.84442" lon="2.46138">
        <ele>103.3</ele>
        <time>2023-07-19T07:06:55Z</time>
      </trkpt>
      <trkpt lat="49.84441" lon="2.46136">
        <ele>103.3</ele>
        <time>2023-07-19T07:06:56Z</time>
      </trkpt>
      <trkpt lat="49.84441" lon="2.46133">
        <ele>103.3</ele>
        <time>2023-07-19T07:06:58Z</time>
      </trkpt>
      <trkpt lat="49.84441" lon="2.46131">
        <ele>103.2</ele>
        <time>2023-07-19T07:06:59Z</time>
      </trkpt>
      <trkpt lat="49.84441" lon="2.46128">
        <ele>103.2</ele>
        <time>2023-07-19T07:07:00Z</time>
      </trkpt>
      <trkpt lat="49.84441" lon="2.46127">
        <ele>103.2</ele>
        <time>2023-07-19T07:07:01Z</time>
      </trkpt>
      <trkpt lat="49.84441" lon="2.46126">
        <ele>103.1</ele>
        <time>2023-07-19T07:07:02Z</time>
      </trkpt>
      <trkpt lat="49.84442" lon="2.46124">
        <ele>103.1</ele>
        <time>2023-07-19T07:07:03Z</time>
      </trkpt>
      <trkpt lat="49.84442" lon="2.46122">
        <ele>103.1</ele>
        <time>2023-07-19T07:07:04Z</time>
      </trkpt>
      <trkpt lat="49.84442" lon="2.46119">
        <ele>103</ele>
        <time>2023-07-19T07:07:06Z</time>
      </trkpt>
      <trkpt lat="49.84443" lon="2.46117">
        <ele>103</ele>
        <time>2023-07-19T07:07:07Z</time>
      </trkpt>
      <trkpt lat="49.84443" lon="2.46115">
        <ele>103</ele>
        <time>2023-07-19T07:07:08Z</time>
      </trkpt>
      <trkpt lat="49.84443" lon="2.46113">
        <ele>103</ele>
        <time>2023-07-19T07:07:10Z</time>
      </trkpt>
      <trkpt lat="49.84443" lon="2.46111">
        <ele>102.9</ele>
        <time>2023-07-19T07:07:11Z</time>
      </trkpt>
      <trkpt lat="49.84443" lon="2.4611">
        <ele>102.9</ele>
        <time>2023-07-19T07:07:12Z</time>
      </trkpt>
      <trkpt lat="49.84442" lon="2.46106">
        <ele>102.9</ele>
        <time>2023-07-19T07:07:13Z</time>
      </trkpt>
      <trkpt lat="49.84442" lon="2.46105">
        <ele>102.9</ele>
        <time>2023-07-19T07:07:14Z</time>
      </trkpt>
      <trkpt lat="49.84442" lon="2.46103">
        <ele>102.9</ele>
        <time>2023-07-19T07:07:15Z</time>
      </trkpt>
      <trkpt lat="49.84442" lon="2.461">
        <ele>102.8</ele>
        <time>2023-07-19T07:07:17Z</time>
      </trkpt>
      <trkpt lat="49.84442" lon="2.46099">
        <ele>102.8</ele>
        <time>2023-07-19T07:07:18Z</time>
      </trkpt>
      <trkpt lat="49.84442" lon="2.46097">
        <ele>102.8</ele>
        <time>2023-07-19T07:07:19Z</time>
      </trkpt>
      <trkpt lat="49.84441" lon="2.46096">
        <ele>102.8</ele>
        <time>2023-07-19T07:07:20Z</time>
      </trkpt>
      <trkpt lat="49.84441" lon="2.46094">
        <ele>102.8</ele>
        <time>2023-07-19T07:07:21Z</time>
      </trkpt>
      <trkpt lat="49.84441" lon="2.46093">
        <ele>102.8</ele>
        <time>2023-07-19T07:07:23Z</time>
      </trkpt>
      <trkpt lat="49.8444" lon="2.46091">
        <ele>102.8</ele>
        <time>2023-07-19T07:07:24Z</time>
      </trkpt>
      <trkpt lat="49.8444" lon="2.46089">
        <ele>102.8</ele>
        <time>2023-07-19T07:07:25Z</time>
      </trkpt>
      <trkpt lat="49.8444" lon="2.46088">
        <ele>102.8</ele>
        <time>2023-07-19T07:07:26Z</time>
      </trkpt>
      <trkpt lat="49.84439" lon="2.46084">
        <ele>102.8</ele>
        <time>2023-07-19T07:07:27Z</time>
      </trkpt>
      <trkpt lat="49.84438" lon="2.46082">
        <ele>102.8</ele>
        <time>2023-07-19T07:07:29Z</time>
      </trkpt>
      <trkpt lat="49.84438" lon="2.46081">
        <ele>102.8</ele>
        <time>2023-07-19T07:07:30Z</time>
      </trkpt>
      <trkpt lat="49.84437" lon="2.46079">
        <ele>102.8</ele>
        <time>2023-07-19T07:07:31Z</time>
      </trkpt>
      <trkpt lat="49.84437" lon="2.46078">
        <ele>102.8</ele>
        <time>2023-07-19T07:07:32Z</time>
      </trkpt>
      <trkpt lat="49.84437" lon="2.46077">
        <ele>102.8</ele>
        <time>2023-07-19T07:07:33Z</time>
      </trkpt>
      <trkpt lat="49.84437" lon="2.46075">
        <ele>102.7</ele>
        <time>2023-07-19T07:07:34Z</time>
      </trkpt>
      <trkpt lat="49.84437" lon="2.46073">
        <ele>102.7</ele>
        <time>2023-07-19T07:07:35Z</time>
      </trkpt>
      <trkpt lat="49.84436" lon="2.46071">
        <ele>102.7</ele>
        <time>2023-07-19T07:07:36Z</time>
      </trkpt>
      <trkpt lat="49.84436" lon="2.4607">
        <ele>102.7</ele>
        <time>2023-07-19T07:07:38Z</time>
      </trkpt>
      <trkpt lat="49.84436" lon="2.46068">
        <ele>102.7</ele>
        <time>2023-07-19T07:07:39Z</time>
      </trkpt>
      <trkpt lat="49.84435" lon="2.46066">
        <ele>102.7</ele>
        <time>2023-07-19T07:07:40Z</time>
      </trkpt>
      <trkpt lat="49.84435" lon="2.46064">
        <ele>102.7</ele>
        <time>2023-07-19T07:07:41Z</time>
      </trkpt>
      <trkpt lat="49.84435" lon="2.46062">
        <ele>102.7</ele>
        <time>2023-07-19T07:07:43Z</time>
      </trkpt>
      <trkpt lat="49.84435" lon="2.4606">
        <ele>102.7</ele>
        <time>2023-07-19T07:07:44Z</time>
      </trkpt>
      <trkpt lat="49.84435" lon="2.46058">
        <ele>102.7</ele>
        <time>2023-07-19T07:07:45Z</time>
      </trkpt>
      <trkpt lat="49.84434" lon="2.46054">
        <ele>102.7</ele>
        <time>2023-07-19T07:07:46Z</time>
      </trkpt>
      <trkpt lat="49.84434" lon="2.46053">
        <ele>102.7</ele>
        <time>2023-07-19T07:07:47Z</time>
      </trkpt>
      <trkpt lat="49.84434" lon="2.46052">
        <ele>102.7</ele>
        <time>2023-07-19T07:07:48Z</time>
      </trkpt>
      <trkpt lat="49.84433" lon="2.46049">
        <ele>102.7</ele>
        <time>2023-07-19T07:07:49Z</time>
      </trkpt>
      <trkpt lat="49.84433" lon="2.46047">
        <ele>102.7</ele>
        <time>2023-07-19T07:07:51Z</time>
      </trkpt>
      <trkpt lat="49.84433" lon="2.46046">
        <ele>102.7</ele>
        <time>2023-07-19T07:07:52Z</time>
      </trkpt>
      <trkpt lat="49.84433" lon="2.46044">
        <ele>102.7</ele>
        <time>2023-07-19T07:07:53Z</time>
      </trkpt>
      <trkpt lat="49.84432" lon="2.46042">
        <ele>102.7</ele>
        <time>2023-07-19T07:07:54Z</time>
      </trkpt>
      <trkpt lat="49.84432" lon="2.4604">
        <ele>102.7</ele>
        <time>2023-07-19T07:07:55Z</time>
      </trkpt>
      <trkpt lat="49.84432" lon="2.46038">
        <ele>102.8</ele>
        <time>2023-07-19T07:07:56Z</time>
      </trkpt>
      <trkpt lat="49.84432" lon="2.46037">
        <ele>102.8</ele>
        <time>2023-07-19T07:07:57Z</time>
      </trkpt>
      <trkpt lat="49.84432" lon="2.46033">
        <ele>102.8</ele>
        <time>2023-07-19T07:07:59Z</time>
      </trkpt>
      <trkpt lat="49.84432" lon="2.46032">
        <ele>102.8</ele>
        <time>2023-07-19T07:08:00Z</time>
      </trkpt>
      <trkpt lat="49.84431" lon="2.46031">
        <ele>102.8</ele>
        <time>2023-07-19T07:08:01Z</time>
      </trkpt>
      <trkpt lat="49.84431" lon="2.46029">
        <ele>102.8</ele>
        <time>2023-07-19T07:08:02Z</time>
      </trkpt>
      <trkpt lat="49.84431" lon="2.46027">
        <ele>102.9</ele>
        <time>2023-07-19T07:08:03Z</time>
      </trkpt>
      <trkpt lat="49.84431" lon="2.46025">
        <ele>102.9</ele>
        <time>2023-07-19T07:08:04Z</time>
      </trkpt>
      <trkpt lat="49.84431" lon="2.46023">
        <ele>102.9</ele>
        <time>2023-07-19T07:08:05Z</time>
      </trkpt>
      <trkpt lat="49.84431" lon="2.46022">
        <ele>103</ele>
        <time>2023-07-19T07:08:06Z</time>
      </trkpt>
      <trkpt lat="49.8443" lon="2.4602">
        <ele>103</ele>
        <time>2023-07-19T07:08:08Z</time>
      </trkpt>
      <trkpt lat="49.8443" lon="2.46018">
        <ele>103</ele>
        <time>2023-07-19T07:08:09Z</time>
      </trkpt>
      <trkpt lat="49.8443" lon="2.46016">
        <ele>103</ele>
        <time>2023-07-19T07:08:10Z</time>
      </trkpt>
      <trkpt lat="49.8443" lon="2.46015">
        <ele>103.1</ele>
        <time>2023-07-19T07:08:11Z</time>
      </trkpt>
      <trkpt lat="49.84429" lon="2.46013">
        <ele>103.1</ele>
        <time>2023-07-19T07:08:12Z</time>
      </trkpt>
      <trkpt lat="49.84429" lon="2.46012">
        <ele>103.1</ele>
        <time>2023-07-19T07:08:13Z</time>
      </trkpt>
      <trkpt lat="49.84428" lon="2.4601">
        <ele>103.1</ele>
        <time>2023-07-19T07:08:14Z</time>
      </trkpt>
      <trkpt lat="49.84427" lon="2.46008">
        <ele>103.2</ele>
        <time>2023-07-19T07:08:16Z</time>
      </trkpt>
      <trkpt lat="49.84426" lon="2.46007">
        <ele>103.2</ele>
        <time>2023-07-19T07:08:17Z</time>
      </trkpt>
      <trkpt lat="49.84426" lon="2.46006">
        <ele>103.2</ele>
        <time>2023-07-19T07:08:18Z</time>
      </trkpt>
      <trkpt lat="49.84424" lon="2.46005">
        <ele>103.2</ele>
        <time>2023-07-19T07:08:19Z</time>
      </trkpt>
      <trkpt lat="49.84423" lon="2.46005">
        <ele>103.2</ele>
        <time>2023-07-19T07:08:20Z</time>
      </trkpt>
      <trkpt lat="49.84422" lon="2.46005">
        <ele>103.2</ele>
        <time>2023-07-19T07:08:23Z</time>
      </trkpt>
      <trkpt lat="49.84421" lon="2.46005">
        <ele>103.2</ele>
        <time>2023-07-19T07:08:24Z</time>
      </trkpt>
      <trkpt lat="49.8442" lon="2.46005">
        <ele>103.2</ele>
        <time>2023-07-19T07:08:26Z</time>
      </trkpt>
      <trkpt lat="49.84419" lon="2.46005">
        <ele>103.2</ele>
        <time>2023-07-19T07:08:27Z</time>
      </trkpt>
      <trkpt lat="49.84418" lon="2.46005">
        <ele>103.2</ele>
        <time>2023-07-19T07:08:29Z</time>
      </trkpt>
      <trkpt lat="49.84417" lon="2.46005">
        <ele>103.2</ele>
        <time>2023-07-19T07:08:30Z</time>
      </trkpt>
      <trkpt lat="49.84414" lon="2.46006">
        <ele>103.2</ele>
        <time>2023-07-19T07:08:31Z</time>
      </trkpt>
      <trkpt lat="49.84414" lon="2.46006">
        <ele>103.2</ele>
        <time>2023-07-19T07:08:32Z</time>
      </trkpt>
      <trkpt lat="49.84413" lon="2.46006">
        <ele>103.2</ele>
        <time>2023-07-19T07:08:33Z</time>
      </trkpt>
      <trkpt lat="49.84412" lon="2.46007">
        <ele>103.2</ele>
        <time>2023-07-19T07:08:35Z</time>
      </trkpt>
      <trkpt lat="49.84411" lon="2.46007">
        <ele>103.2</ele>
        <time>2023-07-19T07:08:36Z</time>
      </trkpt>
      <trkpt lat="49.84409" lon="2.46008">
        <ele>103.2</ele>
        <time>2023-07-19T07:08:37Z</time>
      </trkpt>
      <trkpt lat="49.84408" lon="2.46008">
        <ele>103.1</ele>
        <time>2023-07-19T07:08:38Z</time>
      </trkpt>
      <trkpt lat="49.84407" lon="2.46008">
        <ele>103.1</ele>
        <time>2023-07-19T07:08:39Z</time>
      </trkpt>
      <trkpt lat="49.84406" lon="2.46008">
        <ele>103.1</ele>
        <time>2023-07-19T07:08:40Z</time>
      </trkpt>
      <trkpt lat="49.84405" lon="2.46008">
        <ele>103.1</ele>
        <time>2023-07-19T07:08:42Z</time>
      </trkpt>
      <trkpt lat="49.84403" lon="2.46007">
        <ele>103</ele>
        <time>2023-07-19T07:08:43Z</time>
      </trkpt>
      <trkpt lat="49.84402" lon="2.46007">
        <ele>103</ele>
        <time>2023-07-19T07:08:44Z</time>
      </trkpt>
      <trkpt lat="49.844" lon="2.46007">
        <ele>103</ele>
        <time>2023-07-19T07:08:45Z</time>
      </trkpt>
      <trkpt lat="49.84399" lon="2.46006">
        <ele>103</ele>
        <time>2023-07-19T07:08:46Z</time>
      </trkpt>
      <trkpt lat="49.84398" lon="2.46005">
        <ele>102.9</ele>
        <time>2023-07-19T07:08:47Z</time>
      </trkpt>
      <trkpt lat="49.84396" lon="2.46005">
        <ele>102.9</ele>
        <time>2023-07-19T07:08:49Z</time>
      </trkpt>
      <trkpt lat="49.84395" lon="2.46004">
        <ele>102.9</ele>
        <time>2023-07-19T07:08:50Z</time>
      </trkpt>
      <trkpt lat="49.84393" lon="2.46003">
        <ele>102.8</ele>
        <time>2023-07-19T07:08:51Z</time>
      </trkpt>
      <trkpt lat="49.84392" lon="2.46002">
        <ele>102.8</ele>
        <time>2023-07-19T07:08:52Z</time>
      </trkpt>
      <trkpt lat="49.8439" lon="2.46002">
        <ele>102.8</ele>
        <time>2023-07-19T07:08:53Z</time>
      </trkpt>
      <trkpt lat="49.84389" lon="2.46002">
        <ele>102.7</ele>
        <time>2023-07-19T07:08:54Z</time>
      </trkpt>
      <trkpt lat="49.84388" lon="2.46002">
        <ele>102.7</ele>
        <time>2023-07-19T07:08:55Z</time>
      </trkpt>
      <trkpt lat="49.84386" lon="2.46001">
        <ele>102.7</ele>
        <time>2023-07-19T07:08:56Z</time>
      </trkpt>
      <trkpt lat="49.84385" lon="2.46002">
        <ele>102.7</ele>
        <time>2023-07-19T07:08:58Z</time>
      </trkpt>
      <trkpt lat="49.84384" lon="2.46002">
        <ele>102.7</ele>
        <time>2023-07-19T07:08:59Z</time>
      </trkpt>
      <trkpt lat="49.84383" lon="2.46002">
        <ele>102.6</ele>
        <time>2023-07-19T07:09:00Z</time>
      </trkpt>
      <trkpt lat="49.84381" lon="2.46002">
        <ele>102.6</ele>
        <time>2023-07-19T07:09:01Z</time>
      </trkpt>
      <trkpt lat="49.8438" lon="2.46003">
        <ele>102.6</ele>
        <time>2023-07-19T07:09:02Z</time>
      </trkpt>
      <trkpt lat="49.84378" lon="2.46004">
        <ele>102.6</ele>
        <time>2023-07-19T07:09:03Z</time>
      </trkpt>
      <trkpt lat="49.84377" lon="2.46005">
        <ele>102.6</ele>
        <time>2023-07-19T07:09:04Z</time>
      </trkpt>
      <trkpt lat="49.84376" lon="2.46006">
        <ele>102.5</ele>
        <time>2023-07-19T07:09:05Z</time>
      </trkpt>
      <trkpt lat="49.84373" lon="2.46007">
        <ele>102.5</ele>
        <time>2023-07-19T07:09:07Z</time>
      </trkpt>
      <trkpt lat="49.84372" lon="2.46008">
        <ele>102.5</ele>
        <time>2023-07-19T07:09:08Z</time>
      </trkpt>
      <trkpt lat="49.84371" lon="2.46008">
        <ele>102.5</ele>
        <time>2023-07-19T07:09:10Z</time>
      </trkpt>
      <trkpt lat="49.84369" lon="2.46009">
        <ele>102.4</ele>
        <time>2023-07-19T07:09:11Z</time>
      </trkpt>
      <trkpt lat="49.84368" lon="2.46009">
        <ele>102.4</ele>
        <time>2023-07-19T07:09:12Z</time>
      </trkpt>
      <trkpt lat="49.84366" lon="2.4601">
        <ele>102.4</ele>
        <time>2023-07-19T07:09:14Z</time>
      </trkpt>
      <trkpt lat="49.84365" lon="2.46011">
        <ele>102.4</ele>
        <time>2023-07-19T07:09:15Z</time>
      </trkpt>
      <trkpt lat="49.84363" lon="2.46012">
        <ele>102.3</ele>
        <time>2023-07-19T07:09:16Z</time>
      </trkpt>
      <trkpt lat="49.84362" lon="2.46014">
        <ele>102.3</ele>
        <time>2023-07-19T07:09:17Z</time>
      </trkpt>
      <trkpt lat="49.84361" lon="2.46015">
        <ele>102.3</ele>
        <time>2023-07-19T07:09:18Z</time>
      </trkpt>
      <trkpt lat="49.8436" lon="2.46016">
        <ele>102.3</ele>
        <time>2023-07-19T07:09:20Z</time>
      </trkpt>
      <trkpt lat="49.84358" lon="2.46018">
        <ele>102.2</ele>
        <time>2023-07-19T07:09:21Z</time>
      </trkpt>
      <trkpt lat="49.84357" lon="2.46019">
        <ele>102.2</ele>
        <time>2023-07-19T07:09:22Z</time>
      </trkpt>
      <trkpt lat="49.84356" lon="2.4602">
        <ele>102.2</ele>
        <time>2023-07-19T07:09:23Z</time>
      </trkpt>
      <trkpt lat="49.84356" lon="2.46021">
        <ele>102.2</ele>
        <time>2023-07-19T07:09:24Z</time>
      </trkpt>
      <trkpt lat="49.84354" lon="2.46022">
        <ele>102.2</ele>
        <time>2023-07-19T07:09:25Z</time>
      </trkpt>
      <trkpt lat="49.84353" lon="2.46023">
        <ele>102.1</ele>
        <time>2023-07-19T07:09:27Z</time>
      </trkpt>
      <trkpt lat="49.84353" lon="2.46024">
        <ele>102.1</ele>
        <time>2023-07-19T07:09:28Z</time>
      </trkpt>
      <trkpt lat="49.84351" lon="2.46024">
        <ele>102.1</ele>
        <time>2023-07-19T07:09:29Z</time>
      </trkpt>
      <trkpt lat="49.8435" lon="2.46025">
        <ele>102.1</ele>
        <time>2023-07-19T07:09:30Z</time>
      </trkpt>
      <trkpt lat="49.84348" lon="2.46026">
        <ele>102.1</ele>
        <time>2023-07-19T07:09:31Z</time>
      </trkpt>
      <trkpt lat="49.84347" lon="2.46026">
        <ele>102</ele>
        <time>2023-07-19T07:09:32Z</time>
      </trkpt>
      <trkpt lat="49.84346" lon="2.46026">
        <ele>102</ele>
        <time>2023-07-19T07:09:33Z</time>
      </trkpt>
      <trkpt lat="49.84345" lon="2.46027">
        <ele>102</ele>
        <time>2023-07-19T07:09:34Z</time>
      </trkpt>
      <trkpt lat="49.84344" lon="2.46027">
        <ele>102</ele>
        <time>2023-07-19T07:09:36Z</time>
      </trkpt>
      <trkpt lat="49.84343" lon="2.46028">
        <ele>102</ele>
        <time>2023-07-19T07:09:37Z</time>
      </trkpt>
      <trkpt lat="49.84342" lon="2.46029">
        <ele>102</ele>
        <time>2023-07-19T07:09:38Z</time>
      </trkpt>
      <trkpt lat="49.8434" lon="2.46029">
        <ele>102</ele>
        <time>2023-07-19T07:09:39Z</time>
      </trkpt>
      <trkpt lat="49.84339" lon="2.4603">
        <ele>102</ele>
        <time>2023-07-19T07:09:40Z</time>
      </trkpt>
      <trkpt lat="49.84337" lon="2.46031">
        <ele>102</ele>
        <time>2023-07-19T07:09:41Z</time>
      </trkpt>
      <trkpt lat="49.84336" lon="2.46032">
        <ele>102</ele>
        <time>2023-07-19T07:09:42Z</time>
      </trkpt>
      <trkpt lat="49.84335" lon="2.46032">
        <ele>102</ele>
        <time>2023-07-19T07:09:43Z</time>
      </trkpt>
      <trkpt lat="49.84333" lon="2.46033">
        <ele>102</ele>
        <time>2023-07-19T07:09:45Z</time>
      </trkpt>
      <trkpt lat="49.84332" lon="2.46034">
        <ele>102</ele>
        <time>2023-07-19T07:09:46Z</time>
      </trkpt>
      <trkpt lat="49.8433" lon="2.46034">
        <ele>102</ele>
        <time>2023-07-19T07:09:47Z</time>
      </trkpt>
      <trkpt lat="49.84329" lon="2.46035">
        <ele>102</ele>
        <time>2023-07-19T07:09:48Z</time>
      </trkpt>
      <trkpt lat="49.84327" lon="2.46036">
        <ele>102.1</ele>
        <time>2023-07-19T07:09:49Z</time>
      </trkpt>
      <trkpt lat="49.84326" lon="2.46036">
        <ele>102.1</ele>
        <time>2023-07-19T07:09:50Z</time>
      </trkpt>
      <trkpt lat="49.84325" lon="2.46037">
        <ele>102.1</ele>
        <time>2023-07-19T07:09:51Z</time>
      </trkpt>
      <trkpt lat="49.84323" lon="2.46038">
        <ele>102.1</ele>
        <time>2023-07-19T07:09:52Z</time>
      </trkpt>
      <trkpt lat="49.84322" lon="2.46038">
        <ele>102.1</ele>
        <time>2023-07-19T07:09:53Z</time>
      </trkpt>
      <trkpt lat="49.8432" lon="2.46039">
        <ele>102.1</ele>
        <time>2023-07-19T07:09:55Z</time>
      </trkpt>
      <trkpt lat="49.84319" lon="2.4604">
        <ele>102.1</ele>
        <time>2023-07-19T07:09:56Z</time>
      </trkpt>
      <trkpt lat="49.84317" lon="2.46041">
        <ele>102.1</ele>
        <time>2023-07-19T07:09:57Z</time>
      </trkpt>
      <trkpt lat="49.84316" lon="2.46041">
        <ele>102.2</ele>
        <time>2023-07-19T07:09:58Z</time>
      </trkpt>
      <trkpt lat="49.84314" lon="2.46042">
        <ele>102.2</ele>
        <time>2023-07-19T07:09:59Z</time>
      </trkpt>
      <trkpt lat="49.84313" lon="2.46042">
        <ele>102.2</ele>
        <time>2023-07-19T07:10:00Z</time>
      </trkpt>
      <trkpt lat="49.84312" lon="2.46042">
        <ele>102.2</ele>
        <time>2023-07-19T07:10:02Z</time>
      </trkpt>
      <trkpt lat="49.84311" lon="2.46042">
        <ele>102.2</ele>
        <time>2023-07-19T07:10:03Z</time>
      </trkpt>
      <trkpt lat="49.84309" lon="2.46042">
        <ele>102.2</ele>
        <time>2023-07-19T07:10:04Z</time>
      </trkpt>
      <trkpt lat="49.84309" lon="2.46042">
        <ele>102.2</ele>
        <time>2023-07-19T07:10:05Z</time>
      </trkpt>
      <trkpt lat="49.84308" lon="2.46043">
        <ele>102.1</ele>
        <time>2023-07-19T07:10:06Z</time>
      </trkpt>
      <trkpt lat="49.84308" lon="2.46043">
        <ele>102.1</ele>
        <time>2023-07-19T07:10:08Z</time>
      </trkpt>
      <trkpt lat="49.84308" lon="2.46042">
        <ele>102.1</ele>
        <time>2023-07-19T07:10:09Z</time>
      </trkpt>
      <trkpt lat="49.84308" lon="2.46042">
        <ele>102.1</ele>
        <time>2023-07-19T07:10:11Z</time>
      </trkpt>
      <trkpt lat="49.84308" lon="2.46043">
        <ele>102.1</ele>
        <time>2023-07-19T07:10:12Z</time>
      </trkpt>
      <trkpt lat="49.84307" lon="2.46044">
        <ele>102.1</ele>
        <time>2023-07-19T07:10:13Z</time>
      </trkpt>
      <trkpt lat="49.84307" lon="2.46045">
        <ele>102.1</ele>
        <time>2023-07-19T07:10:15Z</time>
      </trkpt>
      <trkpt lat="49.84307" lon="2.46046">
        <ele>102.1</ele>
        <time>2023-07-19T07:10:16Z</time>
      </trkpt>
      <trkpt lat="49.84308" lon="2.46047">
        <ele>102.1</ele>
        <time>2023-07-19T07:10:18Z</time>
      </trkpt>
      <trkpt lat="49.84308" lon="2.46049">
        <ele>102.1</ele>
        <time>2023-07-19T07:10:19Z</time>
      </trkpt>
      <trkpt lat="49.84309" lon="2.4605">
        <ele>102</ele>
        <time>2023-07-19T07:10:21Z</time>
      </trkpt>
      <trkpt lat="49.8431" lon="2.46051">
        <ele>102</ele>
        <time>2023-07-19T07:10:22Z</time>
      </trkpt>
      <trkpt lat="49.84311" lon="2.46054">
        <ele>102</ele>
        <time>2023-07-19T07:10:23Z</time>
      </trkpt>
      <trkpt lat="49.84312" lon="2.46055">
        <ele>102</ele>
        <time>2023-07-19T07:10:25Z</time>
      </trkpt>
      <trkpt lat="49.84312" lon="2.46056">
        <ele>102</ele>
        <time>2023-07-19T07:10:26Z</time>
      </trkpt>
      <trkpt lat="49.84312" lon="2.46058">
        <ele>101.9</ele>
        <time>2023-07-19T07:10:28Z</time>
      </trkpt>
      <trkpt lat="49.84312" lon="2.46059">
        <ele>101.9</ele>
        <time>2023-07-19T07:10:29Z</time>
      </trkpt>
      <trkpt lat="49.84312" lon="2.4606">
        <ele>101.9</ele>
        <time>2023-07-19T07:10:30Z</time>
      </trkpt>
      <trkpt lat="49.84312" lon="2.46062">
        <ele>101.9</ele>
        <time>2023-07-19T07:10:31Z</time>
      </trkpt>
      <trkpt lat="49.84312" lon="2.46063">
        <ele>101.9</ele>
        <time>2023-07-19T07:10:32Z</time>
      </trkpt>
      <trkpt lat="49.84312" lon="2.46065">
        <ele>101.9</ele>
        <time>2023-07-19T07:10:33Z</time>
      </trkpt>
      <trkpt lat="49.84312" lon="2.46067">
        <ele>101.9</ele>
        <time>2023-07-19T07:10:35Z</time>
      </trkpt>
      <trkpt lat="49.84311" lon="2.46069">
        <ele>101.8</ele>
        <time>2023-07-19T07:10:36Z</time>
      </trkpt>
      <trkpt lat="49.84311" lon="2.4607">
        <ele>101.8</ele>
        <time>2023-07-19T07:10:37Z</time>
      </trkpt>
      <trkpt lat="49.8431" lon="2.46072">
        <ele>101.8</ele>
        <time>2023-07-19T07:10:39Z</time>
      </trkpt>
      <trkpt lat="49.8431" lon="2.46075">
        <ele>101.8</ele>
        <time>2023-07-19T07:10:40Z</time>
      </trkpt>
      <trkpt lat="49.8431" lon="2.46077">
        <ele>101.8</ele>
        <time>2023-07-19T07:10:41Z</time>
      </trkpt>
      <trkpt lat="49.84309" lon="2.46078">
        <ele>101.7</ele>
        <time>2023-07-19T07:10:42Z</time>
      </trkpt>
      <trkpt lat="49.84309" lon="2.4608">
        <ele>101.7</ele>
        <time>2023-07-19T07:10:43Z</time>
      </trkpt>
      <trkpt lat="49.84309" lon="2.46082">
        <ele>101.7</ele>
        <time>2023-07-19T07:10:44Z</time>
      </trkpt>
      <trkpt lat="49.84308" lon="2.46084">
        <ele>101.7</ele>
        <time>2023-07-19T07:10:46Z</time>
      </trkpt>
      <trkpt lat="49.84308" lon="2.46086">
        <ele>101.6</ele>
        <time>2023-07-19T07:10:47Z</time>
      </trkpt>
      <trkpt lat="49.84308" lon="2.46088">
        <ele>101.6</ele>
        <time>2023-07-19T07:10:48Z</time>
      </trkpt>
      <trkpt lat="49.84307" lon="2.4609">
        <ele>101.6</ele>
        <time>2023-07-19T07:10:49Z</time>
      </trkpt>
      <trkpt lat="49.84307" lon="2.46092">
        <ele>101.6</ele>
        <time>2023-07-19T07:10:50Z</time>
      </trkpt>
      <trkpt lat="49.84307" lon="2.46094">
        <ele>101.5</ele>
        <time>2023-07-19T07:10:51Z</time>
      </trkpt>
      <trkpt lat="49.84307" lon="2.46096">
        <ele>101.5</ele>
        <time>2023-07-19T07:10:52Z</time>
      </trkpt>
      <trkpt lat="49.84306" lon="2.46098">
        <ele>101.5</ele>
        <time>2023-07-19T07:10:54Z</time>
      </trkpt>
      <trkpt lat="49.84306" lon="2.461">
        <ele>101.5</ele>
        <time>2023-07-19T07:10:55Z</time>
      </trkpt>
      <trkpt lat="49.84306" lon="2.46103">
        <ele>101.4</ele>
        <time>2023-07-19T07:10:56Z</time>
      </trkpt>
      <trkpt lat="49.84306" lon="2.46105">
        <ele>101.4</ele>
        <time>2023-07-19T07:10:57Z</time>
      </trkpt>
      <trkpt lat="49.84306" lon="2.46107">
        <ele>101.4</ele>
        <time>2023-07-19T07:10:58Z</time>
      </trkpt>
      <trkpt lat="49.84306" lon="2.46109">
        <ele>101.3</ele>
        <time>2023-07-19T07:10:59Z</time>
      </trkpt>
      <trkpt lat="49.84306" lon="2.46111">
        <ele>101.3</ele>
        <time>2023-07-19T07:11:00Z</time>
      </trkpt>
      <trkpt lat="49.84307" lon="2.46113">
        <ele>101.3</ele>
        <time>2023-07-19T07:11:02Z</time>
      </trkpt>
      <trkpt lat="49.84307" lon="2.46116">
        <ele>101.2</ele>
        <time>2023-07-19T07:11:03Z</time>
      </trkpt>
      <trkpt lat="49.84307" lon="2.46121">
        <ele>101.2</ele>
        <time>2023-07-19T07:11:04Z</time>
      </trkpt>
      <trkpt lat="49.84307" lon="2.46122">
        <ele>101.2</ele>
        <time>2023-07-19T07:11:05Z</time>
      </trkpt>
      <trkpt lat="49.84308" lon="2.46128">
        <ele>101.1</ele>
        <time>2023-07-19T07:11:06Z</time>
      </trkpt>
      <trkpt lat="49.84308" lon="2.4613">
        <ele>101.1</ele>
        <time>2023-07-19T07:11:07Z</time>
      </trkpt>
      <trkpt lat="49.84308" lon="2.46134">
        <ele>101</ele>
        <time>2023-07-19T07:11:09Z</time>
      </trkpt>
      <trkpt lat="49.84308" lon="2.46136">
        <ele>101</ele>
        <time>2023-07-19T07:11:10Z</time>
      </trkpt>
      <trkpt lat="49.84308" lon="2.46139">
        <ele>101</ele>
        <time>2023-07-19T07:11:11Z</time>
      </trkpt>
      <trkpt lat="49.84309" lon="2.46141">
        <ele>100.9</ele>
        <time>2023-07-19T07:11:12Z</time>
      </trkpt>
      <trkpt lat="49.84309" lon="2.46146">
        <ele>100.9</ele>
        <time>2023-07-19T07:11:13Z</time>
      </trkpt>
      <trkpt lat="49.84309" lon="2.46147">
        <ele>100.9</ele>
        <time>2023-07-19T07:11:14Z</time>
      </trkpt>
      <trkpt lat="49.84309" lon="2.46152">
        <ele>100.8</ele>
        <time>2023-07-19T07:11:16Z</time>
      </trkpt>
      <trkpt lat="49.84309" lon="2.46154">
        <ele>100.8</ele>
        <time>2023-07-19T07:11:17Z</time>
      </trkpt>
      <trkpt lat="49.84309" lon="2.46159">
        <ele>100.8</ele>
        <time>2023-07-19T07:11:19Z</time>
      </trkpt>
      <trkpt lat="49.84309" lon="2.4616">
        <ele>100.7</ele>
        <time>2023-07-19T07:11:20Z</time>
      </trkpt>
      <trkpt lat="49.84309" lon="2.46164">
        <ele>100.7</ele>
        <time>2023-07-19T07:11:21Z</time>
      </trkpt>
      <trkpt lat="49.84309" lon="2.46165">
        <ele>100.7</ele>
        <time>2023-07-19T07:11:22Z</time>
      </trkpt>
      <trkpt lat="49.84309" lon="2.46166">
        <ele>100.7</ele>
        <time>2023-07-19T07:11:23Z</time>
      </trkpt>
      <trkpt lat="49.84309" lon="2.46168">
        <ele>100.7</ele>
        <time>2023-07-19T07:11:24Z</time>
      </trkpt>
      <trkpt lat="49.84309" lon="2.4617">
        <ele>100.6</ele>
        <time>2023-07-19T07:11:25Z</time>
      </trkpt>
      <trkpt lat="49.84309" lon="2.46171">
        <ele>100.6</ele>
        <time>2023-07-19T07:11:27Z</time>
      </trkpt>
      <trkpt lat="49.84309" lon="2.46173">
        <ele>100.6</ele>
        <time>2023-07-19T07:11:28Z</time>
      </trkpt>
      <trkpt lat="49.84309" lon="2.46174">
        <ele>100.6</ele>
        <time>2023-07-19T07:11:29Z</time>
      </trkpt>
      <trkpt lat="49.84309" lon="2.46176">
        <ele>100.6</ele>
        <time>2023-07-19T07:11:30Z</time>
      </trkpt>
      <trkpt lat="49.84309" lon="2.46179">
        <ele>100.5</ele>
        <time>2023-07-19T07:11:31Z</time>
      </trkpt>
      <trkpt lat="49.84309" lon="2.46181">
        <ele>100.5</ele>
        <time>2023-07-19T07:11:32Z</time>
      </trkpt>
      <trkpt lat="49.84309" lon="2.46182">
        <ele>100.5</ele>
        <time>2023-07-19T07:11:33Z</time>
      </trkpt>
      <trkpt lat="49.84309" lon="2.46184">
        <ele>100.5</ele>
        <time>2023-07-19T07:11:34Z</time>
      </trkpt>
      <trkpt lat="49.84309" lon="2.46186">
        <ele>100.5</ele>
        <time>2023-07-19T07:11:35Z</time>
      </trkpt>
      <trkpt lat="49.84309" lon="2.46189">
        <ele>100.5</ele>
        <time>2023-07-19T07:11:37Z</time>
      </trkpt>
      <trkpt lat="49.84309" lon="2.46191">
        <ele>100.4</ele>
        <time>2023-07-19T07:11:38Z</time>
      </trkpt>
      <trkpt lat="49.84308" lon="2.46192">
        <ele>100.4</ele>
        <time>2023-07-19T07:11:39Z</time>
      </trkpt>
      <trkpt lat="49.84308" lon="2.46195">
        <ele>100.4</ele>
        <time>2023-07-19T07:11:40Z</time>
      </trkpt>
      <trkpt lat="49.84308" lon="2.46198">
        <ele>100.4</ele>
        <time>2023-07-19T07:11:41Z</time>
      </trkpt>
      <trkpt lat="49.84308" lon="2.462">
        <ele>100.4</ele>
        <time>2023-07-19T07:11:42Z</time>
      </trkpt>
      <trkpt lat="49.84308" lon="2.46203">
        <ele>100.3</ele>
        <time>2023-07-19T07:11:43Z</time>
      </trkpt>
      <trkpt lat="49.84308" lon="2.46205">
        <ele>100.3</ele>
        <time>2023-07-19T07:11:44Z</time>
      </trkpt>
      <trkpt lat="49.84308" lon="2.46207">
        <ele>100.3</ele>
        <time>2023-07-19T07:11:45Z</time>
      </trkpt>
      <trkpt lat="49.84307" lon="2.46207">
        <ele>100.3</ele>
        <time>2023-07-19T07:11:47Z</time>
      </trkpt>
      <trkpt lat="49.84307" lon="2.46209">
        <ele>100.3</ele>
        <time>2023-07-19T07:11:48Z</time>
      </trkpt>
      <trkpt lat="49.84307" lon="2.4621">
        <ele>100.2</ele>
        <time>2023-07-19T07:11:49Z</time>
      </trkpt>
      <trkpt lat="49.84307" lon="2.46212">
        <ele>100.2</ele>
        <time>2023-07-19T07:11:50Z</time>
      </trkpt>
      <trkpt lat="49.84307" lon="2.46213">
        <ele>100.2</ele>
        <time>2023-07-19T07:11:52Z</time>
      </trkpt>
      <trkpt lat="49.84307" lon="2.46215">
        <ele>100.2</ele>
        <time>2023-07-19T07:11:53Z</time>
      </trkpt>
      <trkpt lat="49.84307" lon="2.46216">
        <ele>100.1</ele>
        <time>2023-07-19T07:11:54Z</time>
      </trkpt>
      <trkpt lat="49.84307" lon="2.4622">
        <ele>100.1</ele>
        <time>2023-07-19T07:11:55Z</time>
      </trkpt>
      <trkpt lat="49.84307" lon="2.46221">
        <ele>100.1</ele>
        <time>2023-07-19T07:11:56Z</time>
      </trkpt>
      <trkpt lat="49.84307" lon="2.46223">
        <ele>100</ele>
        <time>2023-07-19T07:11:57Z</time>
      </trkpt>
      <trkpt lat="49.84307" lon="2.46226">
        <ele>100</ele>
        <time>2023-07-19T07:11:58Z</time>
      </trkpt>
      <trkpt lat="49.84307" lon="2.46228">
        <ele>99.9</ele>
        <time>2023-07-19T07:12:00Z</time>
      </trkpt>
      <trkpt lat="49.84306" lon="2.46229">
        <ele>99.9</ele>
        <time>2023-07-19T07:12:01Z</time>
      </trkpt>
      <trkpt lat="49.84306" lon="2.46233">
        <ele>99.8</ele>
        <time>2023-07-19T07:12:02Z</time>
      </trkpt>
      <trkpt lat="49.84306" lon="2.46235">
        <ele>99.8</ele>
        <time>2023-07-19T07:12:03Z</time>
      </trkpt>
      <trkpt lat="49.84306" lon="2.46238">
        <ele>99.7</ele>
        <time>2023-07-19T07:12:05Z</time>
      </trkpt>
      <trkpt lat="49.84306" lon="2.4624">
        <ele>99.7</ele>
        <time>2023-07-19T07:12:06Z</time>
      </trkpt>
      <trkpt lat="49.84305" lon="2.46245">
        <ele>99.6</ele>
        <time>2023-07-19T07:12:07Z</time>
      </trkpt>
      <trkpt lat="49.84305" lon="2.46246">
        <ele>99.6</ele>
        <time>2023-07-19T07:12:08Z</time>
      </trkpt>
      <trkpt lat="49.84305" lon="2.46248">
        <ele>99.6</ele>
        <time>2023-07-19T07:12:09Z</time>
      </trkpt>
      <trkpt lat="49.84305" lon="2.46251">
        <ele>99.6</ele>
        <time>2023-07-19T07:12:10Z</time>
      </trkpt>
      <trkpt lat="49.84305" lon="2.46253">
        <ele>99.5</ele>
        <time>2023-07-19T07:12:11Z</time>
      </trkpt>
      <trkpt lat="49.84304" lon="2.46255">
        <ele>99.5</ele>
        <time>2023-07-19T07:12:13Z</time>
      </trkpt>
      <trkpt lat="49.84304" lon="2.46256">
        <ele>99.5</ele>
        <time>2023-07-19T07:12:14Z</time>
      </trkpt>
      <trkpt lat="49.84304" lon="2.46258">
        <ele>99.5</ele>
        <time>2023-07-19T07:12:16Z</time>
      </trkpt>
      <trkpt lat="49.84304" lon="2.4626">
        <ele>99.5</ele>
        <time>2023-07-19T07:12:17Z</time>
      </trkpt>
      <trkpt lat="49.84304" lon="2.46263">
        <ele>99.4</ele>
        <time>2023-07-19T07:12:18Z</time>
      </trkpt>
      <trkpt lat="49.84304" lon="2.46265">
        <ele>99.4</ele>
        <time>2023-07-19T07:12:19Z</time>
      </trkpt>
      <trkpt lat="49.84304" lon="2.46268">
        <ele>99.4</ele>
        <time>2023-07-19T07:12:20Z</time>
      </trkpt>
      <trkpt lat="49.84304" lon="2.46269">
        <ele>99.4</ele>
        <time>2023-07-19T07:12:21Z</time>
      </trkpt>
      <trkpt lat="49.84304" lon="2.4627">
        <ele>99.3</ele>
        <time>2023-07-19T07:12:22Z</time>
      </trkpt>
      <trkpt lat="49.84304" lon="2.46272">
        <ele>99.3</ele>
        <time>2023-07-19T07:12:24Z</time>
      </trkpt>
      <trkpt lat="49.84304" lon="2.46273">
        <ele>99.3</ele>
        <time>2023-07-19T07:12:25Z</time>
      </trkpt>
      <trkpt lat="49.84304" lon="2.46274">
        <ele>99.3</ele>
        <time>2023-07-19T07:12:26Z</time>
      </trkpt>
      <trkpt lat="49.84304" lon="2.46275">
        <ele>99.3</ele>
        <time>2023-07-19T07:12:28Z</time>
      </trkpt>
      <trkpt lat="49.84304" lon="2.46276">
        <ele>99.3</ele>
        <time>2023-07-19T07:12:29Z</time>
      </trkpt>
      <trkpt lat="49.84304" lon="2.46278">
        <ele>99.3</ele>
        <time>2023-07-19T07:12:30Z</time>
      </trkpt>
      <trkpt lat="49.84304" lon="2.4628">
        <ele>99.3</ele>
        <time>2023-07-19T07:12:31Z</time>
      </trkpt>
      <trkpt lat="49.84304" lon="2.46281">
        <ele>99.3</ele>
        <time>2023-07-19T07:12:32Z</time>
      </trkpt>
      <trkpt lat="49.84304" lon="2.46282">
        <ele>99.2</ele>
        <time>2023-07-19T07:12:33Z</time>
      </trkpt>
      <trkpt lat="49.84304" lon="2.46283">
        <ele>99.2</ele>
        <time>2023-07-19T07:12:35Z</time>
      </trkpt>
      <trkpt lat="49.84304" lon="2.46285">
        <ele>99.2</ele>
        <time>2023-07-19T07:12:36Z</time>
      </trkpt>
      <trkpt lat="49.84304" lon="2.46286">
        <ele>99.2</ele>
        <time>2023-07-19T07:12:37Z</time>
      </trkpt>
      <trkpt lat="49.84304" lon="2.46288">
        <ele>99.2</ele>
        <time>2023-07-19T07:12:38Z</time>
      </trkpt>
      <trkpt lat="49.84305" lon="2.46289">
        <ele>99.2</ele>
        <time>2023-07-19T07:12:39Z</time>
      </trkpt>
      <trkpt lat="49.84305" lon="2.46293">
        <ele>99.2</ele>
        <time>2023-07-19T07:12:41Z</time>
      </trkpt>
      <trkpt lat="49.84305" lon="2.46296">
        <ele>99.2</ele>
        <time>2023-07-19T07:12:43Z</time>
      </trkpt>
      <trkpt lat="49.84305" lon="2.46298">
        <ele>99.2</ele>
        <time>2023-07-19T07:12:44Z</time>
      </trkpt>
      <trkpt lat="49.84304" lon="2.46301">
        <ele>99.2</ele>
        <time>2023-07-19T07:12:45Z</time>
      </trkpt>
      <trkpt lat="49.84304" lon="2.46303">
        <ele>99.2</ele>
        <time>2023-07-19T07:12:47Z</time>
      </trkpt>
      <trkpt lat="49.84304" lon="2.46305">
        <ele>99.2</ele>
        <time>2023-07-19T07:12:48Z</time>
      </trkpt>
      <trkpt lat="49.84304" lon="2.46307">
        <ele>99.2</ele>
        <time>2023-07-19T07:12:49Z</time>
      </trkpt>
      <trkpt lat="49.84304" lon="2.46308">
        <ele>99.2</ele>
        <time>2023-07-19T07:12:50Z</time>
      </trkpt>
      <trkpt lat="49.84304" lon="2.4631">
        <ele>99.2</ele>
        <time>2023-07-19T07:12:51Z</time>
      </trkpt>
      <trkpt lat="49.84304" lon="2.46312">
        <ele>99.2</ele>
        <time>2023-07-19T07:12:52Z</time>
      </trkpt>
      <trkpt lat="49.84304" lon="2.46314">
        <ele>99.2</ele>
        <time>2023-07-19T07:12:53Z</time>
      </trkpt>
      <trkpt lat="49.84304" lon="2.46315">
        <ele>99.2</ele>
        <time>2023-07-19T07:12:54Z</time>
      </trkpt>
      <trkpt lat="49.84304" lon="2.46317">
        <ele>99.2</ele>
        <time>2023-07-19T07:12:56Z</time>
      </trkpt>
      <trkpt lat="49.84304" lon="2.46319">
        <ele>99.2</ele>
        <time>2023-07-19T07:12:57Z</time>
      </trkpt>
      <trkpt lat="49.84304" lon="2.46321">
        <ele>99.2</ele>
        <time>2023-07-19T07:12:58Z</time>
      </trkpt>
      <trkpt lat="49.84304" lon="2.46324">
        <ele>99.2</ele>
        <time>2023-07-19T07:12:59Z</time>
      </trkpt>
      <trkpt lat="49.84303" lon="2.46325">
        <ele>99.2</ele>
        <time>2023-07-19T07:13:00Z</time>
      </trkpt>
      <trkpt lat="49.84303" lon="2.46326">
        <ele>99.2</ele>
        <time>2023-07-19T07:13:01Z</time>
      </trkpt>
      <trkpt lat="49.84303" lon="2.46328">
        <ele>99.2</ele>
        <time>2023-07-19T07:13:02Z</time>
      </trkpt>
      <trkpt lat="49.84302" lon="2.4633">
        <ele>99.2</ele>
        <time>2023-07-19T07:13:03Z</time>
      </trkpt>
      <trkpt lat="49.84302" lon="2.46332">
        <ele>99.2</ele>
        <time>2023-07-19T07:13:05Z</time>
      </trkpt>
      <trkpt lat="49.84302" lon="2.46335">
        <ele>99.2</ele>
        <time>2023-07-19T07:13:06Z</time>
      </trkpt>
      <trkpt lat="49.84301" lon="2.46337">
        <ele>99.2</ele>
        <time>2023-07-19T07:13:08Z</time>
      </trkpt>
      <trkpt lat="49.84301" lon="2.46339">
        <ele>99.2</ele>
        <time>2023-07-19T07:13:09Z</time>
      </trkpt>
      <trkpt lat="49.84301" lon="2.4634">
        <ele>99.2</ele>
        <time>2023-07-19T07:13:10Z</time>
      </trkpt>
      <trkpt lat="49.84301" lon="2.46342">
        <ele>99.2</ele>
        <time>2023-07-19T07:13:11Z</time>
      </trkpt>
      <trkpt lat="49.84301" lon="2.46344">
        <ele>99.2</ele>
        <time>2023-07-19T07:13:12Z</time>
      </trkpt>
      <trkpt lat="49.84301" lon="2.46346">
        <ele>99.2</ele>
        <time>2023-07-19T07:13:13Z</time>
      </trkpt>
      <trkpt lat="49.843" lon="2.46348">
        <ele>99.2</ele>
        <time>2023-07-19T07:13:15Z</time>
      </trkpt>
      <trkpt lat="49.843" lon="2.46351">
        <ele>99.2</ele>
        <time>2023-07-19T07:13:16Z</time>
      </trkpt>
      <trkpt lat="49.843" lon="2.46353">
        <ele>99.2</ele>
        <time>2023-07-19T07:13:17Z</time>
      </trkpt>
      <trkpt lat="49.843" lon="2.46354">
        <ele>99.2</ele>
        <time>2023-07-19T07:13:18Z</time>
      </trkpt>
      <trkpt lat="49.843" lon="2.46357">
        <ele>99.2</ele>
        <time>2023-07-19T07:13:19Z</time>
      </trkpt>
      <trkpt lat="49.843" lon="2.46359">
        <ele>99.2</ele>
        <time>2023-07-19T07:13:20Z</time>
      </trkpt>
      <trkpt lat="49.843" lon="2.4636">
        <ele>99.2</ele>
        <time>2023-07-19T07:13:21Z</time>
      </trkpt>
      <trkpt lat="49.84301" lon="2.46363">
        <ele>99.2</ele>
        <time>2023-07-19T07:13:23Z</time>
      </trkpt>
      <trkpt lat="49.84301" lon="2.46365">
        <ele>99.2</ele>
        <time>2023-07-19T07:13:24Z</time>
      </trkpt>
      <trkpt lat="49.84301" lon="2.46369">
        <ele>99.2</ele>
        <time>2023-07-19T07:13:25Z</time>
      </trkpt>
      <trkpt lat="49.84301" lon="2.4637">
        <ele>99.2</ele>
        <time>2023-07-19T07:13:27Z</time>
      </trkpt>
      <trkpt lat="49.84301" lon="2.46371">
        <ele>99.2</ele>
        <time>2023-07-19T07:13:28Z</time>
      </trkpt>
      <trkpt lat="49.84301" lon="2.46375">
        <ele>99.2</ele>
        <time>2023-07-19T07:13:29Z</time>
      </trkpt>
      <trkpt lat="49.84301" lon="2.46376">
        <ele>99.2</ele>
        <time>2023-07-19T07:13:30Z</time>
      </trkpt>
      <trkpt lat="49.84301" lon="2.46378">
        <ele>99.2</ele>
        <time>2023-07-19T07:13:31Z</time>
      </trkpt>
      <trkpt lat="49.84301" lon="2.46382">
        <ele>99.2</ele>
        <time>2023-07-19T07:13:32Z</time>
      </trkpt>
      <trkpt lat="49.84301" lon="2.46383">
        <ele>99.2</ele>
        <time>2023-07-19T07:13:34Z</time>
      </trkpt>
      <trkpt lat="49.84301" lon="2.46385">
        <ele>99.2</ele>
        <time>2023-07-19T07:13:35Z</time>
      </trkpt>
      <trkpt lat="49.84301" lon="2.46388">
        <ele>99.2</ele>
        <time>2023-07-19T07:13:36Z</time>
      </trkpt>
      <trkpt lat="49.84301" lon="2.4639">
        <ele>99.1</ele>
        <time>2023-07-19T07:13:38Z</time>
      </trkpt>
      <trkpt lat="49.84301" lon="2.46392">
        <ele>99.1</ele>
        <time>2023-07-19T07:13:39Z</time>
      </trkpt>
      <trkpt lat="49.843" lon="2.46394">
        <ele>99.1</ele>
        <time>2023-07-19T07:13:40Z</time>
      </trkpt>
      <trkpt lat="49.843" lon="2.46397">
        <ele>99.1</ele>
        <time>2023-07-19T07:13:41Z</time>
      </trkpt>
      <trkpt lat="49.843" lon="2.46399">
        <ele>99.1</ele>
        <time>2023-07-19T07:13:42Z</time>
      </trkpt>
      <trkpt lat="49.843" lon="2.464">
        <ele>99</ele>
        <time>2023-07-19T07:13:43Z</time>
      </trkpt>
      <trkpt lat="49.843" lon="2.46402">
        <ele>99</ele>
        <time>2023-07-19T07:13:44Z</time>
      </trkpt>
      <trkpt lat="49.843" lon="2.46407">
        <ele>99</ele>
        <time>2023-07-19T07:13:47Z</time>
      </trkpt>
      <trkpt lat="49.84299" lon="2.46409">
        <ele>98.9</ele>
        <time>2023-07-19T07:13:48Z</time>
      </trkpt>
      <trkpt lat="49.84299" lon="2.46412">
        <ele>98.9</ele>
        <time>2023-07-19T07:13:50Z</time>
      </trkpt>
      <trkpt lat="49.84299" lon="2.46415">
        <ele>98.9</ele>
        <time>2023-07-19T07:13:51Z</time>
      </trkpt>
      <trkpt lat="49.84299" lon="2.46417">
        <ele>98.8</ele>
        <time>2023-07-19T07:13:52Z</time>
      </trkpt>
      <trkpt lat="49.84299" lon="2.46419">
        <ele>98.8</ele>
        <time>2023-07-19T07:13:53Z</time>
      </trkpt>
      <trkpt lat="49.84299" lon="2.46421">
        <ele>98.8</ele>
        <time>2023-07-19T07:13:54Z</time>
      </trkpt>
      <trkpt lat="49.84299" lon="2.46424">
        <ele>98.7</ele>
        <time>2023-07-19T07:13:56Z</time>
      </trkpt>
      <trkpt lat="49.84299" lon="2.46426">
        <ele>98.7</ele>
        <time>2023-07-19T07:13:57Z</time>
      </trkpt>
      <trkpt lat="49.84299" lon="2.46428">
        <ele>98.7</ele>
        <time>2023-07-19T07:13:58Z</time>
      </trkpt>
      <trkpt lat="49.84299" lon="2.46431">
        <ele>98.6</ele>
        <time>2023-07-19T07:14:00Z</time>
      </trkpt>
      <trkpt lat="49.843" lon="2.46433">
        <ele>98.6</ele>
        <time>2023-07-19T07:14:01Z</time>
      </trkpt>
      <trkpt lat="49.843" lon="2.46435">
        <ele>98.6</ele>
        <time>2023-07-19T07:14:02Z</time>
      </trkpt>
      <trkpt lat="49.843" lon="2.46437">
        <ele>98.5</ele>
        <time>2023-07-19T07:14:03Z</time>
      </trkpt>
      <trkpt lat="49.843" lon="2.46441">
        <ele>98.5</ele>
        <time>2023-07-19T07:14:04Z</time>
      </trkpt>
      <trkpt lat="49.843" lon="2.46443">
        <ele>98.5</ele>
        <time>2023-07-19T07:14:05Z</time>
      </trkpt>
      <trkpt lat="49.843" lon="2.46445">
        <ele>98.4</ele>
        <time>2023-07-19T07:14:08Z</time>
      </trkpt>
      <trkpt lat="49.843" lon="2.46446">
        <ele>98.4</ele>
        <time>2023-07-19T07:14:09Z</time>
      </trkpt>
      <trkpt lat="49.84301" lon="2.46448">
        <ele>98.4</ele>
        <time>2023-07-19T07:14:10Z</time>
      </trkpt>
      <trkpt lat="49.84301" lon="2.4645">
        <ele>98.4</ele>
        <time>2023-07-19T07:14:11Z</time>
      </trkpt>
      <trkpt lat="49.84301" lon="2.46454">
        <ele>98.3</ele>
        <time>2023-07-19T07:14:12Z</time>
      </trkpt>
      <trkpt lat="49.84301" lon="2.46455">
        <ele>98.3</ele>
        <time>2023-07-19T07:14:13Z</time>
      </trkpt>
      <trkpt lat="49.843" lon="2.46457">
        <ele>98.3</ele>
        <time>2023-07-19T07:14:14Z</time>
      </trkpt>
      <trkpt lat="49.843" lon="2.46459">
        <ele>98.2</ele>
        <time>2023-07-19T07:14:15Z</time>
      </trkpt>
      <trkpt lat="49.843" lon="2.46461">
        <ele>98.2</ele>
        <time>2023-07-19T07:14:16Z</time>
      </trkpt>
      <trkpt lat="49.843" lon="2.46464">
        <ele>98.2</ele>
        <time>2023-07-19T07:14:18Z</time>
      </trkpt>
      <trkpt lat="49.843" lon="2.46466">
        <ele>98.1</ele>
        <time>2023-07-19T07:14:19Z</time>
      </trkpt>
      <trkpt lat="49.843" lon="2.46469">
        <ele>98.1</ele>
        <time>2023-07-19T07:14:20Z</time>
      </trkpt>
      <trkpt lat="49.843" lon="2.46471">
        <ele>98.1</ele>
        <time>2023-07-19T07:14:22Z</time>
      </trkpt>
      <trkpt lat="49.843" lon="2.46473">
        <ele>98</ele>
        <time>2023-07-19T07:14:23Z</time>
      </trkpt>
      <trkpt lat="49.84299" lon="2.46477">
        <ele>98</ele>
        <time>2023-07-19T07:14:24Z</time>
      </trkpt>
      <trkpt lat="49.84299" lon="2.46479">
        <ele>97.9</ele>
        <time>2023-07-19T07:14:25Z</time>
      </trkpt>
      <trkpt lat="49.84299" lon="2.46481">
        <ele>97.9</ele>
        <time>2023-07-19T07:14:27Z</time>
      </trkpt>
      <trkpt lat="49.84299" lon="2.46484">
        <ele>97.9</ele>
        <time>2023-07-19T07:14:28Z</time>
      </trkpt>
      <trkpt lat="49.84298" lon="2.46487">
        <ele>97.8</ele>
        <time>2023-07-19T07:14:29Z</time>
      </trkpt>
      <trkpt lat="49.84298" lon="2.4649">
        <ele>97.8</ele>
        <time>2023-07-19T07:14:30Z</time>
      </trkpt>
      <trkpt lat="49.84298" lon="2.46494">
        <ele>97.7</ele>
        <time>2023-07-19T07:14:31Z</time>
      </trkpt>
      <trkpt lat="49.84298" lon="2.46496">
        <ele>97.7</ele>
        <time>2023-07-19T07:14:32Z</time>
      </trkpt>
      <trkpt lat="49.84298" lon="2.46501">
        <ele>97.7</ele>
        <time>2023-07-19T07:14:33Z</time>
      </trkpt>
      <trkpt lat="49.84298" lon="2.46502">
        <ele>97.6</ele>
        <time>2023-07-19T07:14:34Z</time>
      </trkpt>
      <trkpt lat="49.84298" lon="2.46509">
        <ele>97.5</ele>
        <time>2023-07-19T07:14:36Z</time>
      </trkpt>
      <trkpt lat="49.84298" lon="2.46511">
        <ele>97.5</ele>
        <time>2023-07-19T07:14:37Z</time>
      </trkpt>
      <trkpt lat="49.84297" lon="2.46513">
        <ele>97.5</ele>
        <time>2023-07-19T07:14:38Z</time>
      </trkpt>
      <trkpt lat="49.84297" lon="2.46516">
        <ele>97.4</ele>
        <time>2023-07-19T07:14:40Z</time>
      </trkpt>
      <trkpt lat="49.84297" lon="2.46518">
        <ele>97.4</ele>
        <time>2023-07-19T07:14:41Z</time>
      </trkpt>
      <trkpt lat="49.84296" lon="2.46521">
        <ele>97.4</ele>
        <time>2023-07-19T07:14:42Z</time>
      </trkpt>
      <trkpt lat="49.84296" lon="2.46523">
        <ele>97.3</ele>
        <time>2023-07-19T07:14:43Z</time>
      </trkpt>
      <trkpt lat="49.84296" lon="2.46525">
        <ele>97.3</ele>
        <time>2023-07-19T07:14:44Z</time>
      </trkpt>
      <trkpt lat="49.84295" lon="2.46529">
        <ele>97.2</ele>
        <time>2023-07-19T07:14:46Z</time>
      </trkpt>
      <trkpt lat="49.84295" lon="2.46532">
        <ele>97.2</ele>
        <time>2023-07-19T07:14:47Z</time>
      </trkpt>
      <trkpt lat="49.84295" lon="2.46533">
        <ele>97.2</ele>
        <time>2023-07-19T07:14:49Z</time>
      </trkpt>
      <trkpt lat="49.84295" lon="2.46534">
        <ele>97.1</ele>
        <time>2023-07-19T07:14:50Z</time>
      </trkpt>
      <trkpt lat="49.84294" lon="2.46536">
        <ele>97.1</ele>
        <time>2023-07-19T07:14:51Z</time>
      </trkpt>
      <trkpt lat="49.84294" lon="2.46539">
        <ele>97</ele>
        <time>2023-07-19T07:14:52Z</time>
      </trkpt>
      <trkpt lat="49.84294" lon="2.46541">
        <ele>97</ele>
        <time>2023-07-19T07:14:53Z</time>
      </trkpt>
      <trkpt lat="49.84294" lon="2.46543">
        <ele>97</ele>
        <time>2023-07-19T07:14:54Z</time>
      </trkpt>
      <trkpt lat="49.84294" lon="2.46545">
        <ele>96.9</ele>
        <time>2023-07-19T07:14:55Z</time>
      </trkpt>
      <trkpt lat="49.84294" lon="2.46547">
        <ele>96.9</ele>
        <time>2023-07-19T07:14:56Z</time>
      </trkpt>
      <trkpt lat="49.84293" lon="2.46549">
        <ele>96.8</ele>
        <time>2023-07-19T07:14:57Z</time>
      </trkpt>
      <trkpt lat="49.84293" lon="2.46551">
        <ele>96.8</ele>
        <time>2023-07-19T07:14:58Z</time>
      </trkpt>
      <trkpt lat="49.84294" lon="2.46553">
        <ele>96.8</ele>
        <time>2023-07-19T07:15:01Z</time>
      </trkpt>
      <trkpt lat="49.84294" lon="2.46554">
        <ele>96.8</ele>
        <time>2023-07-19T07:15:02Z</time>
      </trkpt>
      <trkpt lat="49.84294" lon="2.46555">
        <ele>96.8</ele>
        <time>2023-07-19T07:15:03Z</time>
      </trkpt>
      <trkpt lat="49.84294" lon="2.46556">
        <ele>96.8</ele>
        <time>2023-07-19T07:15:04Z</time>
      </trkpt>
      <trkpt lat="49.84293" lon="2.46557">
        <ele>96.7</ele>
        <time>2023-07-19T07:15:05Z</time>
      </trkpt>
      <trkpt lat="49.84294" lon="2.46561">
        <ele>96.7</ele>
        <time>2023-07-19T07:15:06Z</time>
      </trkpt>
      <trkpt lat="49.84294" lon="2.46562">
        <ele>96.7</ele>
        <time>2023-07-19T07:15:07Z</time>
      </trkpt>
      <trkpt lat="49.84294" lon="2.46563">
        <ele>96.7</ele>
        <time>2023-07-19T07:15:08Z</time>
      </trkpt>
      <trkpt lat="49.84294" lon="2.46565">
        <ele>96.7</ele>
        <time>2023-07-19T07:15:10Z</time>
      </trkpt>
      <trkpt lat="49.84294" lon="2.46567">
        <ele>96.7</ele>
        <time>2023-07-19T07:15:11Z</time>
      </trkpt>
      <trkpt lat="49.84294" lon="2.4657">
        <ele>96.7</ele>
        <time>2023-07-19T07:15:13Z</time>
      </trkpt>
      <trkpt lat="49.84294" lon="2.46573">
        <ele>96.7</ele>
        <time>2023-07-19T07:15:14Z</time>
      </trkpt>
      <trkpt lat="49.84294" lon="2.46574">
        <ele>96.7</ele>
        <time>2023-07-19T07:15:15Z</time>
      </trkpt>
      <trkpt lat="49.84294" lon="2.46575">
        <ele>96.7</ele>
        <time>2023-07-19T07:15:16Z</time>
      </trkpt>
      <trkpt lat="49.84294" lon="2.46577">
        <ele>96.7</ele>
        <time>2023-07-19T07:15:17Z</time>
      </trkpt>
      <trkpt lat="49.84294" lon="2.46579">
        <ele>96.7</ele>
        <time>2023-07-19T07:15:18Z</time>
      </trkpt>
      <trkpt lat="49.84294" lon="2.46581">
        <ele>96.7</ele>
        <time>2023-07-19T07:15:19Z</time>
      </trkpt>
      <trkpt lat="49.84294" lon="2.46584">
        <ele>96.7</ele>
        <time>2023-07-19T07:15:21Z</time>
      </trkpt>
      <trkpt lat="49.84294" lon="2.46587">
        <ele>96.7</ele>
        <time>2023-07-19T07:15:23Z</time>
      </trkpt>
      <trkpt lat="49.84294" lon="2.46588">
        <ele>96.7</ele>
        <time>2023-07-19T07:15:24Z</time>
      </trkpt>
      <trkpt lat="49.84294" lon="2.4659">
        <ele>96.7</ele>
        <time>2023-07-19T07:15:25Z</time>
      </trkpt>
      <trkpt lat="49.84294" lon="2.46591">
        <ele>96.7</ele>
        <time>2023-07-19T07:15:26Z</time>
      </trkpt>
      <trkpt lat="49.84294" lon="2.46593">
        <ele>96.7</ele>
        <time>2023-07-19T07:15:27Z</time>
      </trkpt>
      <trkpt lat="49.84294" lon="2.46595">
        <ele>96.7</ele>
        <time>2023-07-19T07:15:28Z</time>
      </trkpt>
      <trkpt lat="49.84294" lon="2.46597">
        <ele>96.7</ele>
        <time>2023-07-19T07:15:29Z</time>
      </trkpt>
      <trkpt lat="49.84294" lon="2.466">
        <ele>96.8</ele>
        <time>2023-07-19T07:15:30Z</time>
      </trkpt>
      <trkpt lat="49.84294" lon="2.46601">
        <ele>96.8</ele>
        <time>2023-07-19T07:15:32Z</time>
      </trkpt>
      <trkpt lat="49.84294" lon="2.46603">
        <ele>96.8</ele>
        <time>2023-07-19T07:15:33Z</time>
      </trkpt>
      <trkpt lat="49.84294" lon="2.46605">
        <ele>96.8</ele>
        <time>2023-07-19T07:15:34Z</time>
      </trkpt>
      <trkpt lat="49.84293" lon="2.46606">
        <ele>96.8</ele>
        <time>2023-07-19T07:15:35Z</time>
      </trkpt>
      <trkpt lat="49.84293" lon="2.46607">
        <ele>96.8</ele>
        <time>2023-07-19T07:15:36Z</time>
      </trkpt>
      <trkpt lat="49.84293" lon="2.46609">
        <ele>96.9</ele>
        <time>2023-07-19T07:15:37Z</time>
      </trkpt>
      <trkpt lat="49.84293" lon="2.46611">
        <ele>96.9</ele>
        <time>2023-07-19T07:15:38Z</time>
      </trkpt>
      <trkpt lat="49.84293" lon="2.46613">
        <ele>96.9</ele>
        <time>2023-07-19T07:15:40Z</time>
      </trkpt>
      <trkpt lat="49.84292" lon="2.46615">
        <ele>96.9</ele>
        <time>2023-07-19T07:15:41Z</time>
      </trkpt>
      <trkpt lat="49.84292" lon="2.46617">
        <ele>97</ele>
        <time>2023-07-19T07:15:42Z</time>
      </trkpt>
      <trkpt lat="49.84292" lon="2.46619">
        <ele>97</ele>
        <time>2023-07-19T07:15:43Z</time>
      </trkpt>
      <trkpt lat="49.84292" lon="2.4662">
        <ele>96.9</ele>
        <time>2023-07-19T07:15:45Z</time>
      </trkpt>
      <trkpt lat="49.84291" lon="2.46621">
        <ele>96.9</ele>
        <time>2023-07-19T07:15:46Z</time>
      </trkpt>
      <trkpt lat="49.84291" lon="2.46622">
        <ele>96.9</ele>
        <time>2023-07-19T07:15:47Z</time>
      </trkpt>
      <trkpt lat="49.84291" lon="2.46624">
        <ele>96.9</ele>
        <time>2023-07-19T07:15:48Z</time>
      </trkpt>
      <trkpt lat="49.84291" lon="2.46626">
        <ele>96.9</ele>
        <time>2023-07-19T07:15:49Z</time>
      </trkpt>
      <trkpt lat="49.84292" lon="2.46626">
        <ele>96.9</ele>
        <time>2023-07-19T07:15:51Z</time>
      </trkpt>
      <trkpt lat="49.84293" lon="2.46627">
        <ele>96.9</ele>
        <time>2023-07-19T07:15:52Z</time>
      </trkpt>
      <trkpt lat="49.84293" lon="2.46627">
        <ele>96.9</ele>
        <time>2023-07-19T07:15:53Z</time>
      </trkpt>
      <trkpt lat="49.84293" lon="2.46628">
        <ele>96.9</ele>
        <time>2023-07-19T07:15:55Z</time>
      </trkpt>
      <trkpt lat="49.84293" lon="2.46628">
        <ele>96.8</ele>
        <time>2023-07-19T07:15:57Z</time>
      </trkpt>
      <trkpt lat="49.84293" lon="2.46628">
        <ele>96.8</ele>
        <time>2023-07-19T07:16:00Z</time>
      </trkpt>
      <trkpt lat="49.84293" lon="2.46627">
        <ele>96.8</ele>
        <time>2023-07-19T07:16:03Z</time>
      </trkpt>
      <trkpt lat="49.84293" lon="2.46627">
        <ele>96.8</ele>
        <time>2023-07-19T07:16:05Z</time>
      </trkpt>
      <trkpt lat="49.84293" lon="2.46627">
        <ele>96.8</ele>
        <time>2023-07-19T07:16:07Z</time>
      </trkpt>
      <trkpt lat="49.84293" lon="2.46626">
        <ele>96.8</ele>
        <time>2023-07-19T07:16:09Z</time>
      </trkpt>
      <trkpt lat="49.84293" lon="2.46626">
        <ele>96.8</ele>
        <time>2023-07-19T07:16:10Z</time>
      </trkpt>
      <trkpt lat="49.84293" lon="2.46626">
        <ele>96.8</ele>
        <time>2023-07-19T07:16:11Z</time>
      </trkpt>
      <trkpt lat="49.84293" lon="2.46626">
        <ele>96.8</ele>
        <time>2023-07-19T07:16:12Z</time>
      </trkpt>
      <trkpt lat="49.84293" lon="2.46626">
        <ele>96.8</ele>
        <time>2023-07-19T07:16:13Z</time>
      </trkpt>
      <trkpt lat="49.84293" lon="2.46626">
        <ele>96.8</ele>
        <time>2023-07-19T07:16:14Z</time>
      </trkpt>
      <trkpt lat="49.84293" lon="2.46626">
        <ele>96.8</ele>
        <time>2023-07-19T07:16:16Z</time>
      </trkpt>
      <trkpt lat="49.84293" lon="2.46626">
        <ele>96.8</ele>
        <time>2023-07-19T07:16:17Z</time>
      </trkpt>
      <trkpt lat="49.84293" lon="2.46626">
        <ele>96.8</ele>
        <time>2023-07-19T07:16:18Z</time>
      </trkpt>
      <trkpt lat="49.84293" lon="2.46626">
        <ele>96.8</ele>
        <time>2023-07-19T07:16:19Z</time>
      </trkpt>
      <trkpt lat="49.84293" lon="2.46626">
        <ele>96.8</ele>
        <time>2023-07-19T07:16:20Z</time>
      </trkpt>
      <trkpt lat="49.84293" lon="2.46626">
        <ele>96.8</ele>
        <time>2023-07-19T07:16:21Z</time>
      </trkpt>
      <trkpt lat="49.84293" lon="2.46626">
        <ele>96.8</ele>
        <time>2023-07-19T07:16:22Z</time>
      </trkpt>
      <trkpt lat="49.84293" lon="2.46626">
        <ele>96.8</ele>
        <time>2023-07-19T07:16:24Z</time>
      </trkpt>
      <trkpt lat="49.84293" lon="2.46626">
        <ele>96.8</ele>
        <time>2023-07-19T07:16:26Z</time>
      </trkpt>
      <trkpt lat="49.84293" lon="2.46626">
        <ele>96.8</ele>
        <time>2023-07-19T07:16:27Z</time>
      </trkpt>
      <trkpt lat="49.84293" lon="2.46626">
        <ele>96.8</ele>
        <time>2023-07-19T07:16:29Z</time>
      </trkpt>
      <trkpt lat="49.84293" lon="2.46626">
        <ele>96.8</ele>
        <time>2023-07-19T07:16:30Z</time>
      </trkpt>
      <trkpt lat="49.84293" lon="2.46626">
        <ele>96.8</ele>
        <time>2023-07-19T07:16:31Z</time>
      </trkpt>
      <trkpt lat="49.84293" lon="2.46626">
        <ele>96.8</ele>
        <time>2023-07-19T07:16:32Z</time>
      </trkpt>
      <trkpt lat="49.84293" lon="2.46626">
        <ele>96.8</ele>
        <time>2023-07-19T07:16:33Z</time>
      </trkpt>
      <trkpt lat="49.84293" lon="2.46626">
        <ele>96.8</ele>
        <time>2023-07-19T07:16:34Z</time>
      </trkpt>
      <trkpt lat="49.84293" lon="2.46626">
        <ele>96.8</ele>
        <time>2023-07-19T07:16:35Z</time>
      </trkpt>
      <trkpt lat="49.84293" lon="2.46626">
        <ele>96.8</ele>
        <time>2023-07-19T07:16:36Z</time>
      </trkpt>
      <trkpt lat="49.84293" lon="2.46626">
        <ele>96.8</ele>
        <time>2023-07-19T07:16:37Z</time>
      </trkpt>
      <trkpt lat="49.84293" lon="2.46626">
        <ele>96.8</ele>
        <time>2023-07-19T07:16:39Z</time>
      </trkpt>
      <trkpt lat="49.84293" lon="2.46626">
        <ele>96.8</ele>
        <time>2023-07-19T07:16:40Z</time>
      </trkpt>
      <trkpt lat="49.84293" lon="2.46626">
        <ele>96.8</ele>
        <time>2023-07-19T07:16:41Z</time>
      </trkpt>
      <trkpt lat="49.84293" lon="2.46626">
        <ele>96.8</ele>
        <time>2023-07-19T07:16:42Z</time>
      </trkpt>
      <trkpt lat="49.84293" lon="2.46626">
        <ele>96.8</ele>
        <time>2023-07-19T07:16:44Z</time>
      </trkpt>
      <trkpt lat="49.84293" lon="2.46626">
        <ele>96.8</ele>
        <time>2023-07-19T07:16:46Z</time>
      </trkpt>
      <trkpt lat="49.84293" lon="2.46626">
        <ele>96.8</ele>
        <time>2023-07-19T07:16:47Z</time>
      </trkpt>
      <trkpt lat="49.84293" lon="2.46626">
        <ele>96.8</ele>
        <time>2023-07-19T07:16:48Z</time>
      </trkpt>
      <trkpt lat="49.84293" lon="2.46626">
        <ele>96.8</ele>
        <time>2023-07-19T07:16:49Z</time>
      </trkpt>
      <trkpt lat="49.84293" lon="2.46626">
        <ele>96.8</ele>
        <time>2023-07-19T07:16:50Z</time>
      </trkpt>
      <trkpt lat="49.84292" lon="2.46623">
        <ele>96.8</ele>
        <time>2023-07-19T07:16:51Z</time>
      </trkpt>
      <trkpt lat="49.84291" lon="2.46621">
        <ele>96.8</ele>
        <time>2023-07-19T07:16:52Z</time>
      </trkpt>
      <trkpt lat="49.84291" lon="2.46621">
        <ele>96.8</ele>
        <time>2023-07-19T07:16:53Z</time>
      </trkpt>
      <trkpt lat="49.84289" lon="2.46622">
        <ele>96.7</ele>
        <time>2023-07-19T07:16:55Z</time>
      </trkpt>
      <trkpt lat="49.84288" lon="2.46623">
        <ele>96.7</ele>
        <time>2023-07-19T07:16:57Z</time>
      </trkpt>
      <trkpt lat="49.84288" lon="2.46624">
        <ele>96.7</ele>
        <time>2023-07-19T07:16:59Z</time>
      </trkpt>
      <trkpt lat="49.84287" lon="2.46625">
        <ele>96.7</ele>
        <time>2023-07-19T07:17:00Z</time>
      </trkpt>
      <trkpt lat="49.84286" lon="2.46625">
        <ele>96.7</ele>
        <time>2023-07-19T07:17:02Z</time>
      </trkpt>
      <trkpt lat="49.84284" lon="2.46626">
        <ele>96.6</ele>
        <time>2023-07-19T07:17:03Z</time>
      </trkpt>
      <trkpt lat="49.84283" lon="2.46626">
        <ele>96.6</ele>
        <time>2023-07-19T07:17:04Z</time>
      </trkpt>
      <trkpt lat="49.8428" lon="2.46626">
        <ele>96.6</ele>
        <time>2023-07-19T07:17:05Z</time>
      </trkpt>
      <trkpt lat="49.8428" lon="2.46625">
        <ele>96.5</ele>
        <time>2023-07-19T07:17:06Z</time>
      </trkpt>
      <trkpt lat="49.84279" lon="2.46625">
        <ele>96.5</ele>
        <time>2023-07-19T07:17:07Z</time>
      </trkpt>
      <trkpt lat="49.84278" lon="2.46625">
        <ele>96.5</ele>
        <time>2023-07-19T07:17:08Z</time>
      </trkpt>
      <trkpt lat="49.84277" lon="2.46625">
        <ele>96.5</ele>
        <time>2023-07-19T07:17:09Z</time>
      </trkpt>
      <trkpt lat="49.84276" lon="2.46625">
        <ele>96.5</ele>
        <time>2023-07-19T07:17:11Z</time>
      </trkpt>
      <trkpt lat="49.84275" lon="2.46625">
        <ele>96.5</ele>
        <time>2023-07-19T07:17:12Z</time>
      </trkpt>
      <trkpt lat="49.84274" lon="2.46626">
        <ele>96.4</ele>
        <time>2023-07-19T07:17:13Z</time>
      </trkpt>
      <trkpt lat="49.84273" lon="2.46626">
        <ele>96.4</ele>
        <time>2023-07-19T07:17:14Z</time>
      </trkpt>
      <trkpt lat="49.84272" lon="2.46627">
        <ele>96.4</ele>
        <time>2023-07-19T07:17:15Z</time>
      </trkpt>
      <trkpt lat="49.84271" lon="2.46627">
        <ele>96.4</ele>
        <time>2023-07-19T07:17:16Z</time>
      </trkpt>
      <trkpt lat="49.8427" lon="2.46628">
        <ele>96.3</ele>
        <time>2023-07-19T07:17:18Z</time>
      </trkpt>
      <trkpt lat="49.84268" lon="2.46629">
        <ele>96.3</ele>
        <time>2023-07-19T07:17:19Z</time>
      </trkpt>
      <trkpt lat="49.84267" lon="2.46629">
        <ele>96.3</ele>
        <time>2023-07-19T07:17:20Z</time>
      </trkpt>
      <trkpt lat="49.84266" lon="2.4663">
        <ele>96.2</ele>
        <time>2023-07-19T07:17:22Z</time>
      </trkpt>
      <trkpt lat="49.84265" lon="2.4663">
        <ele>96.2</ele>
        <time>2023-07-19T07:17:23Z</time>
      </trkpt>
      <trkpt lat="49.84264" lon="2.46631">
        <ele>96.2</ele>
        <time>2023-07-19T07:17:24Z</time>
      </trkpt>
      <trkpt lat="49.84262" lon="2.46632">
        <ele>96.1</ele>
        <time>2023-07-19T07:17:25Z</time>
      </trkpt>
      <trkpt lat="49.84261" lon="2.46632">
        <ele>96.1</ele>
        <time>2023-07-19T07:17:26Z</time>
      </trkpt>
      <trkpt lat="49.8426" lon="2.46633">
        <ele>96.1</ele>
        <time>2023-07-19T07:17:27Z</time>
      </trkpt>
      <trkpt lat="49.84257" lon="2.46634">
        <ele>96</ele>
        <time>2023-07-19T07:17:28Z</time>
      </trkpt>
      <trkpt lat="49.84256" lon="2.46635">
        <ele>96</ele>
        <time>2023-07-19T07:17:29Z</time>
      </trkpt>
      <trkpt lat="49.84254" lon="2.46636">
        <ele>95.9</ele>
        <time>2023-07-19T07:17:30Z</time>
      </trkpt>
      <trkpt lat="49.84252" lon="2.46636">
        <ele>95.8</ele>
        <time>2023-07-19T07:17:32Z</time>
      </trkpt>
      <trkpt lat="49.8425" lon="2.46637">
        <ele>95.7</ele>
        <time>2023-07-19T07:17:33Z</time>
      </trkpt>
      <trkpt lat="49.84248" lon="2.46638">
        <ele>95.6</ele>
        <time>2023-07-19T07:17:35Z</time>
      </trkpt>
      <trkpt lat="49.84247" lon="2.46639">
        <ele>95.6</ele>
        <time>2023-07-19T07:17:36Z</time>
      </trkpt>
      <trkpt lat="49.84245" lon="2.4664">
        <ele>95.5</ele>
        <time>2023-07-19T07:17:37Z</time>
      </trkpt>
      <trkpt lat="49.84244" lon="2.46641">
        <ele>95.4</ele>
        <time>2023-07-19T07:17:38Z</time>
      </trkpt>
      <trkpt lat="49.84242" lon="2.46642">
        <ele>95.3</ele>
        <time>2023-07-19T07:17:39Z</time>
      </trkpt>
      <trkpt lat="49.84241" lon="2.46643">
        <ele>95.2</ele>
        <time>2023-07-19T07:17:40Z</time>
      </trkpt>
      <trkpt lat="49.8424" lon="2.46644">
        <ele>95.1</ele>
        <time>2023-07-19T07:17:41Z</time>
      </trkpt>
      <trkpt lat="49.84238" lon="2.46645">
        <ele>95.1</ele>
        <time>2023-07-19T07:17:43Z</time>
      </trkpt>
      <trkpt lat="49.84235" lon="2.46647">
        <ele>94.9</ele>
        <time>2023-07-19T07:17:45Z</time>
      </trkpt>
      <trkpt lat="49.84232" lon="2.46649">
        <ele>94.7</ele>
        <time>2023-07-19T07:17:46Z</time>
      </trkpt>
      <trkpt lat="49.84231" lon="2.46649">
        <ele>94.7</ele>
        <time>2023-07-19T07:17:47Z</time>
      </trkpt>
      <trkpt lat="49.84229" lon="2.46651">
        <ele>94.5</ele>
        <time>2023-07-19T07:17:48Z</time>
      </trkpt>
      <trkpt lat="49.84228" lon="2.46652">
        <ele>94.5</ele>
        <time>2023-07-19T07:17:49Z</time>
      </trkpt>
      <trkpt lat="49.84226" lon="2.46653">
        <ele>94.4</ele>
        <time>2023-07-19T07:17:50Z</time>
      </trkpt>
      <trkpt lat="49.84224" lon="2.46654">
        <ele>94.3</ele>
        <time>2023-07-19T07:17:51Z</time>
      </trkpt>
      <trkpt lat="49.84222" lon="2.46656">
        <ele>94.1</ele>
        <time>2023-07-19T07:17:52Z</time>
      </trkpt>
      <trkpt lat="49.8422" lon="2.46657">
        <ele>94.1</ele>
        <time>2023-07-19T07:17:54Z</time>
      </trkpt>
      <trkpt lat="49.84219" lon="2.46658">
        <ele>94</ele>
        <time>2023-07-19T07:17:55Z</time>
      </trkpt>
      <trkpt lat="49.84218" lon="2.46659">
        <ele>93.9</ele>
        <time>2023-07-19T07:17:56Z</time>
      </trkpt>
      <trkpt lat="49.84216" lon="2.4666">
        <ele>93.8</ele>
        <time>2023-07-19T07:17:58Z</time>
      </trkpt>
      <trkpt lat="49.84214" lon="2.46661">
        <ele>93.7</ele>
        <time>2023-07-19T07:17:59Z</time>
      </trkpt>
      <trkpt lat="49.84213" lon="2.46661">
        <ele>93.7</ele>
        <time>2023-07-19T07:18:00Z</time>
      </trkpt>
      <trkpt lat="49.84211" lon="2.46662">
        <ele>93.6</ele>
        <time>2023-07-19T07:18:02Z</time>
      </trkpt>
      <trkpt lat="49.8421" lon="2.46663">
        <ele>93.5</ele>
        <time>2023-07-19T07:18:03Z</time>
      </trkpt>
      <trkpt lat="49.84209" lon="2.46663">
        <ele>93.5</ele>
        <time>2023-07-19T07:18:04Z</time>
      </trkpt>
      <trkpt lat="49.84207" lon="2.46663">
        <ele>93.4</ele>
        <time>2023-07-19T07:18:05Z</time>
      </trkpt>
      <trkpt lat="49.84206" lon="2.46664">
        <ele>93.3</ele>
        <time>2023-07-19T07:18:06Z</time>
      </trkpt>
      <trkpt lat="49.84205" lon="2.46664">
        <ele>93.3</ele>
        <time>2023-07-19T07:18:07Z</time>
      </trkpt>
      <trkpt lat="49.84204" lon="2.46665">
        <ele>93.2</ele>
        <time>2023-07-19T07:18:09Z</time>
      </trkpt>
      <trkpt lat="49.84202" lon="2.46665">
        <ele>93.2</ele>
        <time>2023-07-19T07:18:10Z</time>
      </trkpt>
      <trkpt lat="49.84201" lon="2.46666">
        <ele>93.1</ele>
        <time>2023-07-19T07:18:11Z</time>
      </trkpt>
      <trkpt lat="49.84199" lon="2.46667">
        <ele>93</ele>
        <time>2023-07-19T07:18:12Z</time>
      </trkpt>
      <trkpt lat="49.84196" lon="2.46669">
        <ele>92.9</ele>
        <time>2023-07-19T07:18:14Z</time>
      </trkpt>
      <trkpt lat="49.84195" lon="2.46669">
        <ele>92.8</ele>
        <time>2023-07-19T07:18:16Z</time>
      </trkpt>
      <trkpt lat="49.84193" lon="2.4667">
        <ele>92.6</ele>
        <time>2023-07-19T07:18:18Z</time>
      </trkpt>
      <trkpt lat="49.84191" lon="2.46671">
        <ele>92.6</ele>
        <time>2023-07-19T07:18:19Z</time>
      </trkpt>
      <trkpt lat="49.84191" lon="2.46672">
        <ele>92.5</ele>
        <time>2023-07-19T07:18:20Z</time>
      </trkpt>
      <trkpt lat="49.84189" lon="2.46672">
        <ele>92.5</ele>
        <time>2023-07-19T07:18:21Z</time>
      </trkpt>
      <trkpt lat="49.84189" lon="2.46673">
        <ele>92.4</ele>
        <time>2023-07-19T07:18:22Z</time>
      </trkpt>
      <trkpt lat="49.84187" lon="2.46673">
        <ele>92.3</ele>
        <time>2023-07-19T07:18:23Z</time>
      </trkpt>
      <trkpt lat="49.84186" lon="2.46674">
        <ele>92.3</ele>
        <time>2023-07-19T07:18:24Z</time>
      </trkpt>
      <trkpt lat="49.84186" lon="2.46674">
        <ele>92.3</ele>
        <time>2023-07-19T07:18:25Z</time>
      </trkpt>
      <trkpt lat="49.84185" lon="2.46675">
        <ele>92.2</ele>
        <time>2023-07-19T07:18:27Z</time>
      </trkpt>
      <trkpt lat="49.84184" lon="2.46675">
        <ele>92.2</ele>
        <time>2023-07-19T07:18:28Z</time>
      </trkpt>
      <trkpt lat="49.84183" lon="2.46676">
        <ele>92.1</ele>
        <time>2023-07-19T07:18:29Z</time>
      </trkpt>
      <trkpt lat="49.84181" lon="2.46676">
        <ele>92.1</ele>
        <time>2023-07-19T07:18:30Z</time>
      </trkpt>
      <trkpt lat="49.8418" lon="2.46676">
        <ele>92</ele>
        <time>2023-07-19T07:18:31Z</time>
      </trkpt>
      <trkpt lat="49.84178" lon="2.46677">
        <ele>91.9</ele>
        <time>2023-07-19T07:18:32Z</time>
      </trkpt>
      <trkpt lat="49.84176" lon="2.46677">
        <ele>91.9</ele>
        <time>2023-07-19T07:18:33Z</time>
      </trkpt>
      <trkpt lat="49.84175" lon="2.46678">
        <ele>91.8</ele>
        <time>2023-07-19T07:18:35Z</time>
      </trkpt>
      <trkpt lat="49.84175" lon="2.46678">
        <ele>91.8</ele>
        <time>2023-07-19T07:18:36Z</time>
      </trkpt>
      <trkpt lat="49.84173" lon="2.46678">
        <ele>91.7</ele>
        <time>2023-07-19T07:18:37Z</time>
      </trkpt>
      <trkpt lat="49.84172" lon="2.46678">
        <ele>91.7</ele>
        <time>2023-07-19T07:18:38Z</time>
      </trkpt>
      <trkpt lat="49.84172" lon="2.46678">
        <ele>91.7</ele>
        <time>2023-07-19T07:18:39Z</time>
      </trkpt>
      <trkpt lat="49.84171" lon="2.46678">
        <ele>91.6</ele>
        <time>2023-07-19T07:18:40Z</time>
      </trkpt>
      <trkpt lat="49.8417" lon="2.46679">
        <ele>91.6</ele>
        <time>2023-07-19T07:18:41Z</time>
      </trkpt>
      <trkpt lat="49.84169" lon="2.46679">
        <ele>91.5</ele>
        <time>2023-07-19T07:18:42Z</time>
      </trkpt>
      <trkpt lat="49.84168" lon="2.46679">
        <ele>91.5</ele>
        <time>2023-07-19T07:18:43Z</time>
      </trkpt>
      <trkpt lat="49.84167" lon="2.46679">
        <ele>91.4</ele>
        <time>2023-07-19T07:18:45Z</time>
      </trkpt>
      <trkpt lat="49.84166" lon="2.46679">
        <ele>91.4</ele>
        <time>2023-07-19T07:18:46Z</time>
      </trkpt>
      <trkpt lat="49.84165" lon="2.4668">
        <ele>91.3</ele>
        <time>2023-07-19T07:18:47Z</time>
      </trkpt>
      <trkpt lat="49.84164" lon="2.4668">
        <ele>91.3</ele>
        <time>2023-07-19T07:18:48Z</time>
      </trkpt>
      <trkpt lat="49.84163" lon="2.4668">
        <ele>91.3</ele>
        <time>2023-07-19T07:18:49Z</time>
      </trkpt>
      <trkpt lat="49.84162" lon="2.46681">
        <ele>91.2</ele>
        <time>2023-07-19T07:18:50Z</time>
      </trkpt>
      <trkpt lat="49.84161" lon="2.46681">
        <ele>91.2</ele>
        <time>2023-07-19T07:18:51Z</time>
      </trkpt>
      <trkpt lat="49.8416" lon="2.46682">
        <ele>91.1</ele>
        <time>2023-07-19T07:18:52Z</time>
      </trkpt>
      <trkpt lat="49.84159" lon="2.46683">
        <ele>91</ele>
        <time>2023-07-19T07:18:53Z</time>
      </trkpt>
      <trkpt lat="49.84158" lon="2.46684">
        <ele>91</ele>
        <time>2023-07-19T07:18:55Z</time>
      </trkpt>
      <trkpt lat="49.84157" lon="2.46685">
        <ele>90.9</ele>
        <time>2023-07-19T07:18:56Z</time>
      </trkpt>
      <trkpt lat="49.84156" lon="2.46685">
        <ele>90.9</ele>
        <time>2023-07-19T07:18:57Z</time>
      </trkpt>
      <trkpt lat="49.84154" lon="2.46687">
        <ele>90.8</ele>
        <time>2023-07-19T07:18:59Z</time>
      </trkpt>
      <trkpt lat="49.84153" lon="2.46688">
        <ele>90.7</ele>
        <time>2023-07-19T07:19:00Z</time>
      </trkpt>
      <trkpt lat="49.84152" lon="2.46689">
        <ele>90.7</ele>
        <time>2023-07-19T07:19:02Z</time>
      </trkpt>
      <trkpt lat="49.8415" lon="2.4669">
        <ele>90.6</ele>
        <time>2023-07-19T07:19:03Z</time>
      </trkpt>
      <trkpt lat="49.84148" lon="2.46691">
        <ele>90.5</ele>
        <time>2023-07-19T07:19:05Z</time>
      </trkpt>
      <trkpt lat="49.84147" lon="2.46692">
        <ele>90.4</ele>
        <time>2023-07-19T07:19:06Z</time>
      </trkpt>
      <trkpt lat="49.84146" lon="2.46693">
        <ele>90.4</ele>
        <time>2023-07-19T07:19:07Z</time>
      </trkpt>
      <trkpt lat="49.84145" lon="2.46693">
        <ele>90.3</ele>
        <time>2023-07-19T07:19:08Z</time>
      </trkpt>
      <trkpt lat="49.84144" lon="2.46694">
        <ele>90.3</ele>
        <time>2023-07-19T07:19:09Z</time>
      </trkpt>
      <trkpt lat="49.84143" lon="2.46695">
        <ele>90.2</ele>
        <time>2023-07-19T07:19:10Z</time>
      </trkpt>
      <trkpt lat="49.84142" lon="2.46695">
        <ele>90.2</ele>
        <time>2023-07-19T07:19:11Z</time>
      </trkpt>
      <trkpt lat="49.84141" lon="2.46695">
        <ele>90.2</ele>
        <time>2023-07-19T07:19:13Z</time>
      </trkpt>
      <trkpt lat="49.8414" lon="2.46696">
        <ele>90.2</ele>
        <time>2023-07-19T07:19:14Z</time>
      </trkpt>
      <trkpt lat="49.84138" lon="2.46696">
        <ele>90.1</ele>
        <time>2023-07-19T07:19:15Z</time>
      </trkpt>
      <trkpt lat="49.84137" lon="2.46697">
        <ele>90.1</ele>
        <time>2023-07-19T07:19:16Z</time>
      </trkpt>
      <trkpt lat="49.84136" lon="2.46698">
        <ele>90.1</ele>
        <time>2023-07-19T07:19:17Z</time>
      </trkpt>
      <trkpt lat="49.84135" lon="2.46699">
        <ele>90.1</ele>
        <time>2023-07-19T07:19:18Z</time>
      </trkpt>
      <trkpt lat="49.84133" lon="2.46699">
        <ele>90</ele>
        <time>2023-07-19T07:19:20Z</time>
      </trkpt>
      <trkpt lat="49.84131" lon="2.467">
        <ele>90</ele>
        <time>2023-07-19T07:19:21Z</time>
      </trkpt>
      <trkpt lat="49.8413" lon="2.46701">
        <ele>90</ele>
        <time>2023-07-19T07:19:22Z</time>
      </trkpt>
      <trkpt lat="49.84129" lon="2.46701">
        <ele>90</ele>
        <time>2023-07-19T07:19:23Z</time>
      </trkpt>
      <trkpt lat="49.84128" lon="2.46701">
        <ele>89.9</ele>
        <time>2023-07-19T07:19:24Z</time>
      </trkpt>
      <trkpt lat="49.84127" lon="2.46702">
        <ele>89.9</ele>
        <time>2023-07-19T07:19:25Z</time>
      </trkpt>
      <trkpt lat="49.84126" lon="2.46702">
        <ele>89.9</ele>
        <time>2023-07-19T07:19:27Z</time>
      </trkpt>
      <trkpt lat="49.84124" lon="2.46703">
        <ele>89.8</ele>
        <time>2023-07-19T07:19:29Z</time>
      </trkpt>
      <trkpt lat="49.84124" lon="2.46703">
        <ele>89.8</ele>
        <time>2023-07-19T07:19:30Z</time>
      </trkpt>
      <trkpt lat="49.84123" lon="2.46703">
        <ele>89.8</ele>
        <time>2023-07-19T07:19:31Z</time>
      </trkpt>
      <trkpt lat="49.84122" lon="2.46703">
        <ele>89.8</ele>
        <time>2023-07-19T07:19:32Z</time>
      </trkpt>
      <trkpt lat="49.84121" lon="2.46704">
        <ele>89.7</ele>
        <time>2023-07-19T07:19:33Z</time>
      </trkpt>
      <trkpt lat="49.8412" lon="2.46705">
        <ele>89.7</ele>
        <time>2023-07-19T07:19:34Z</time>
      </trkpt>
      <trkpt lat="49.84118" lon="2.46706">
        <ele>89.7</ele>
        <time>2023-07-19T07:19:35Z</time>
      </trkpt>
      <trkpt lat="49.84117" lon="2.46707">
        <ele>89.6</ele>
        <time>2023-07-19T07:19:36Z</time>
      </trkpt>
      <trkpt lat="49.84116" lon="2.46708">
        <ele>89.6</ele>
        <time>2023-07-19T07:19:38Z</time>
      </trkpt>
      <trkpt lat="49.84114" lon="2.46709">
        <ele>89.5</ele>
        <time>2023-07-19T07:19:39Z</time>
      </trkpt>
      <trkpt lat="49.84113" lon="2.46709">
        <ele>89.5</ele>
        <time>2023-07-19T07:19:40Z</time>
      </trkpt>
      <trkpt lat="49.84112" lon="2.4671">
        <ele>89.5</ele>
        <time>2023-07-19T07:19:41Z</time>
      </trkpt>
      <trkpt lat="49.84109" lon="2.46712">
        <ele>89.4</ele>
        <time>2023-07-19T07:19:42Z</time>
      </trkpt>
      <trkpt lat="49.84108" lon="2.46713">
        <ele>89.4</ele>
        <time>2023-07-19T07:19:44Z</time>
      </trkpt>
      <trkpt lat="49.84107" lon="2.46714">
        <ele>89.4</ele>
        <time>2023-07-19T07:19:45Z</time>
      </trkpt>
      <trkpt lat="49.84106" lon="2.46715">
        <ele>89.4</ele>
        <time>2023-07-19T07:19:46Z</time>
      </trkpt>
      <trkpt lat="49.84105" lon="2.46716">
        <ele>89.3</ele>
        <time>2023-07-19T07:19:47Z</time>
      </trkpt>
      <trkpt lat="49.84104" lon="2.46718">
        <ele>89.3</ele>
        <time>2023-07-19T07:19:49Z</time>
      </trkpt>
      <trkpt lat="49.84103" lon="2.46719">
        <ele>89.3</ele>
        <time>2023-07-19T07:19:50Z</time>
      </trkpt>
      <trkpt lat="49.84102" lon="2.4672">
        <ele>89.3</ele>
        <time>2023-07-19T07:19:51Z</time>
      </trkpt>
      <trkpt lat="49.84101" lon="2.46722">
        <ele>89.3</ele>
        <time>2023-07-19T07:19:52Z</time>
      </trkpt>
      <trkpt lat="49.841" lon="2.46723">
        <ele>89.3</ele>
        <time>2023-07-19T07:19:53Z</time>
      </trkpt>
      <trkpt lat="49.84099" lon="2.46724">
        <ele>89.2</ele>
        <time>2023-07-19T07:19:54Z</time>
      </trkpt>
      <trkpt lat="49.84098" lon="2.46725">
        <ele>89.2</ele>
        <time>2023-07-19T07:19:56Z</time>
      </trkpt>
      <trkpt lat="49.84096" lon="2.46728">
        <ele>89.2</ele>
        <time>2023-07-19T07:19:58Z</time>
      </trkpt>
      <trkpt lat="49.84095" lon="2.4673">
        <ele>89.2</ele>
        <time>2023-07-19T07:19:59Z</time>
      </trkpt>
      <trkpt lat="49.84094" lon="2.46731">
        <ele>89.2</ele>
        <time>2023-07-19T07:20:01Z</time>
      </trkpt>
      <trkpt lat="49.84094" lon="2.46731">
        <ele>89.1</ele>
        <time>2023-07-19T07:20:02Z</time>
      </trkpt>
      <trkpt lat="49.84092" lon="2.46734">
        <ele>89.1</ele>
        <time>2023-07-19T07:20:03Z</time>
      </trkpt>
      <trkpt lat="49.84091" lon="2.46735">
        <ele>89.1</ele>
        <time>2023-07-19T07:20:04Z</time>
      </trkpt>
      <trkpt lat="49.84091" lon="2.46736">
        <ele>89.1</ele>
        <time>2023-07-19T07:20:05Z</time>
      </trkpt>
      <trkpt lat="49.84089" lon="2.46738">
        <ele>89.1</ele>
        <time>2023-07-19T07:20:06Z</time>
      </trkpt>
      <trkpt lat="49.84089" lon="2.46739">
        <ele>89</ele>
        <time>2023-07-19T07:20:07Z</time>
      </trkpt>
      <trkpt lat="49.84088" lon="2.4674">
        <ele>89</ele>
        <time>2023-07-19T07:20:09Z</time>
      </trkpt>
      <trkpt lat="49.84087" lon="2.46741">
        <ele>89</ele>
        <time>2023-07-19T07:20:10Z</time>
      </trkpt>
      <trkpt lat="49.84087" lon="2.46742">
        <ele>89</ele>
        <time>2023-07-19T07:20:11Z</time>
      </trkpt>
      <trkpt lat="49.84086" lon="2.46744">
        <ele>89</ele>
        <time>2023-07-19T07:20:12Z</time>
      </trkpt>
      <trkpt lat="49.84085" lon="2.46745">
        <ele>89</ele>
        <time>2023-07-19T07:20:13Z</time>
      </trkpt>
      <trkpt lat="49.84084" lon="2.46746">
        <ele>88.9</ele>
        <time>2023-07-19T07:20:14Z</time>
      </trkpt>
      <trkpt lat="49.84083" lon="2.46748">
        <ele>88.9</ele>
        <time>2023-07-19T07:20:15Z</time>
      </trkpt>
      <trkpt lat="49.84082" lon="2.46749">
        <ele>88.9</ele>
        <time>2023-07-19T07:20:17Z</time>
      </trkpt>
      <trkpt lat="49.84079" lon="2.46752">
        <ele>88.8</ele>
        <time>2023-07-19T07:20:19Z</time>
      </trkpt>
      <trkpt lat="49.84078" lon="2.46754">
        <ele>88.8</ele>
        <time>2023-07-19T07:20:21Z</time>
      </trkpt>
      <trkpt lat="49.84076" lon="2.46755">
        <ele>88.7</ele>
        <time>2023-07-19T07:20:22Z</time>
      </trkpt>
      <trkpt lat="49.84075" lon="2.46757">
        <ele>88.7</ele>
        <time>2023-07-19T07:20:23Z</time>
      </trkpt>
      <trkpt lat="49.84074" lon="2.46758">
        <ele>88.7</ele>
        <time>2023-07-19T07:20:24Z</time>
      </trkpt>
      <trkpt lat="49.84073" lon="2.4676">
        <ele>88.6</ele>
        <time>2023-07-19T07:20:25Z</time>
      </trkpt>
      <trkpt lat="49.84072" lon="2.46761">
        <ele>88.6</ele>
        <time>2023-07-19T07:20:26Z</time>
      </trkpt>
      <trkpt lat="49.84071" lon="2.46762">
        <ele>88.6</ele>
        <time>2023-07-19T07:20:27Z</time>
      </trkpt>
      <trkpt lat="49.8407" lon="2.46763">
        <ele>88.5</ele>
        <time>2023-07-19T07:20:29Z</time>
      </trkpt>
      <trkpt lat="49.84069" lon="2.46764">
        <ele>88.5</ele>
        <time>2023-07-19T07:20:30Z</time>
      </trkpt>
      <trkpt lat="49.84068" lon="2.46766">
        <ele>88.4</ele>
        <time>2023-07-19T07:20:32Z</time>
      </trkpt>
      <trkpt lat="49.84066" lon="2.46767">
        <ele>88.4</ele>
        <time>2023-07-19T07:20:33Z</time>
      </trkpt>
      <trkpt lat="49.84066" lon="2.46768">
        <ele>88.4</ele>
        <time>2023-07-19T07:20:34Z</time>
      </trkpt>
      <trkpt lat="49.84065" lon="2.46769">
        <ele>88.4</ele>
        <time>2023-07-19T07:20:35Z</time>
      </trkpt>
      <trkpt lat="49.84063" lon="2.4677">
        <ele>88.3</ele>
        <time>2023-07-19T07:20:36Z</time>
      </trkpt>
      <trkpt lat="49.84062" lon="2.46771">
        <ele>88.3</ele>
        <time>2023-07-19T07:20:38Z</time>
      </trkpt>
      <trkpt lat="49.84062" lon="2.46771">
        <ele>88.3</ele>
        <time>2023-07-19T07:20:39Z</time>
      </trkpt>
      <trkpt lat="49.8406" lon="2.46773">
        <ele>88.3</ele>
        <time>2023-07-19T07:20:40Z</time>
      </trkpt>
      <trkpt lat="49.84059" lon="2.46774">
        <ele>88.3</ele>
        <time>2023-07-19T07:20:42Z</time>
      </trkpt>
      <trkpt lat="49.84058" lon="2.46774">
        <ele>88.2</ele>
        <time>2023-07-19T07:20:43Z</time>
      </trkpt>
      <trkpt lat="49.84057" lon="2.46776">
        <ele>88.2</ele>
        <time>2023-07-19T07:20:44Z</time>
      </trkpt>
      <trkpt lat="49.84055" lon="2.46777">
        <ele>88.2</ele>
        <time>2023-07-19T07:20:45Z</time>
      </trkpt>
      <trkpt lat="49.84053" lon="2.46778">
        <ele>88.2</ele>
        <time>2023-07-19T07:20:46Z</time>
      </trkpt>
      <trkpt lat="49.84053" lon="2.46779">
        <ele>88.2</ele>
        <time>2023-07-19T07:20:48Z</time>
      </trkpt>
      <trkpt lat="49.84052" lon="2.46779">
        <ele>88.2</ele>
        <time>2023-07-19T07:20:49Z</time>
      </trkpt>
      <trkpt lat="49.84051" lon="2.4678">
        <ele>88.2</ele>
        <time>2023-07-19T07:20:50Z</time>
      </trkpt>
      <trkpt lat="49.8405" lon="2.46782">
        <ele>88.2</ele>
        <time>2023-07-19T07:20:51Z</time>
      </trkpt>
      <trkpt lat="49.84048" lon="2.46784">
        <ele>88.2</ele>
        <time>2023-07-19T07:20:52Z</time>
      </trkpt>
      <trkpt lat="49.84047" lon="2.46784">
        <ele>88.2</ele>
        <time>2023-07-19T07:20:53Z</time>
      </trkpt>
      <trkpt lat="49.84047" lon="2.46785">
        <ele>88.1</ele>
        <time>2023-07-19T07:20:54Z</time>
      </trkpt>
      <trkpt lat="49.84046" lon="2.46786">
        <ele>88.1</ele>
        <time>2023-07-19T07:20:55Z</time>
      </trkpt>
      <trkpt lat="49.84044" lon="2.46788">
        <ele>88.1</ele>
        <time>2023-07-19T07:20:58Z</time>
      </trkpt>
      <trkpt lat="49.84043" lon="2.4679">
        <ele>88.1</ele>
        <time>2023-07-19T07:20:59Z</time>
      </trkpt>
      <trkpt lat="49.84041" lon="2.46791">
        <ele>88.1</ele>
        <time>2023-07-19T07:21:00Z</time>
      </trkpt>
      <trkpt lat="49.84041" lon="2.46792">
        <ele>88.1</ele>
        <time>2023-07-19T07:21:01Z</time>
      </trkpt>
      <trkpt lat="49.8404" lon="2.46792">
        <ele>88.1</ele>
        <time>2023-07-19T07:21:02Z</time>
      </trkpt>
      <trkpt lat="49.84039" lon="2.46793">
        <ele>88</ele>
        <time>2023-07-19T07:21:03Z</time>
      </trkpt>
      <trkpt lat="49.84037" lon="2.46795">
        <ele>88</ele>
        <time>2023-07-19T07:21:04Z</time>
      </trkpt>
      <trkpt lat="49.84036" lon="2.46796">
        <ele>88</ele>
        <time>2023-07-19T07:21:06Z</time>
      </trkpt>
      <trkpt lat="49.84036" lon="2.46796">
        <ele>88</ele>
        <time>2023-07-19T07:21:07Z</time>
      </trkpt>
      <trkpt lat="49.84035" lon="2.46798">
        <ele>88</ele>
        <time>2023-07-19T07:21:08Z</time>
      </trkpt>
      <trkpt lat="49.84033" lon="2.46799">
        <ele>87.9</ele>
        <time>2023-07-19T07:21:09Z</time>
      </trkpt>
      <trkpt lat="49.84032" lon="2.46801">
        <ele>87.9</ele>
        <time>2023-07-19T07:21:10Z</time>
      </trkpt>
      <trkpt lat="49.84031" lon="2.46802">
        <ele>87.9</ele>
        <time>2023-07-19T07:21:11Z</time>
      </trkpt>
      <trkpt lat="49.8403" lon="2.46803">
        <ele>87.8</ele>
        <time>2023-07-19T07:21:12Z</time>
      </trkpt>
      <trkpt lat="49.84029" lon="2.46804">
        <ele>87.8</ele>
        <time>2023-07-19T07:21:13Z</time>
      </trkpt>
      <trkpt lat="49.84028" lon="2.46805">
        <ele>87.8</ele>
        <time>2023-07-19T07:21:15Z</time>
      </trkpt>
      <trkpt lat="49.84027" lon="2.46806">
        <ele>87.8</ele>
        <time>2023-07-19T07:21:17Z</time>
      </trkpt>
      <trkpt lat="49.84025" lon="2.46807">
        <ele>87.7</ele>
        <time>2023-07-19T07:21:18Z</time>
      </trkpt>
      <trkpt lat="49.84025" lon="2.46808">
        <ele>87.7</ele>
        <time>2023-07-19T07:21:19Z</time>
      </trkpt>
      <trkpt lat="49.84024" lon="2.46808">
        <ele>87.7</ele>
        <time>2023-07-19T07:21:20Z</time>
      </trkpt>
      <trkpt lat="49.84023" lon="2.46809">
        <ele>87.7</ele>
        <time>2023-07-19T07:21:21Z</time>
      </trkpt>
      <trkpt lat="49.84022" lon="2.46809">
        <ele>87.7</ele>
        <time>2023-07-19T07:21:22Z</time>
      </trkpt>
      <trkpt lat="49.84022" lon="2.4681">
        <ele>87.7</ele>
        <time>2023-07-19T07:21:24Z</time>
      </trkpt>
      <trkpt lat="49.84021" lon="2.46811">
        <ele>87.7</ele>
        <time>2023-07-19T07:21:25Z</time>
      </trkpt>
      <trkpt lat="49.8402" lon="2.46813">
        <ele>87.7</ele>
        <time>2023-07-19T07:21:26Z</time>
      </trkpt>
      <trkpt lat="49.84018" lon="2.46814">
        <ele>87.7</ele>
        <time>2023-07-19T07:21:27Z</time>
      </trkpt>
      <trkpt lat="49.84017" lon="2.46815">
        <ele>87.7</ele>
        <time>2023-07-19T07:21:28Z</time>
      </trkpt>
      <trkpt lat="49.84016" lon="2.46817">
        <ele>87.6</ele>
        <time>2023-07-19T07:21:29Z</time>
      </trkpt>
      <trkpt lat="49.84015" lon="2.46818">
        <ele>87.6</ele>
        <time>2023-07-19T07:21:30Z</time>
      </trkpt>
      <trkpt lat="49.84014" lon="2.46819">
        <ele>87.6</ele>
        <time>2023-07-19T07:21:32Z</time>
      </trkpt>
      <trkpt lat="49.84012" lon="2.4682">
        <ele>87.6</ele>
        <time>2023-07-19T07:21:34Z</time>
      </trkpt>
      <trkpt lat="49.8401" lon="2.46822">
        <ele>87.6</ele>
        <time>2023-07-19T07:21:35Z</time>
      </trkpt>
      <trkpt lat="49.8401" lon="2.46822">
        <ele>87.6</ele>
        <time>2023-07-19T07:21:36Z</time>
      </trkpt>
      <trkpt lat="49.84009" lon="2.46823">
        <ele>87.6</ele>
        <time>2023-07-19T07:21:37Z</time>
      </trkpt>
      <trkpt lat="49.84007" lon="2.46823">
        <ele>87.6</ele>
        <time>2023-07-19T07:21:38Z</time>
      </trkpt>
      <trkpt lat="49.84006" lon="2.46824">
        <ele>87.6</ele>
        <time>2023-07-19T07:21:39Z</time>
      </trkpt>
      <trkpt lat="49.84006" lon="2.46824">
        <ele>87.6</ele>
        <time>2023-07-19T07:21:40Z</time>
      </trkpt>
      <trkpt lat="49.84005" lon="2.46824">
        <ele>87.6</ele>
        <time>2023-07-19T07:21:41Z</time>
      </trkpt>
      <trkpt lat="49.84004" lon="2.46825">
        <ele>87.6</ele>
        <time>2023-07-19T07:21:42Z</time>
      </trkpt>
      <trkpt lat="49.84002" lon="2.46826">
        <ele>87.6</ele>
        <time>2023-07-19T07:21:44Z</time>
      </trkpt>
      <trkpt lat="49.84001" lon="2.46827">
        <ele>87.5</ele>
        <time>2023-07-19T07:21:45Z</time>
      </trkpt>
      <trkpt lat="49.84" lon="2.46828">
        <ele>87.5</ele>
        <time>2023-07-19T07:21:46Z</time>
      </trkpt>
      <trkpt lat="49.83999" lon="2.46829">
        <ele>87.5</ele>
        <time>2023-07-19T07:21:47Z</time>
      </trkpt>
      <trkpt lat="49.83998" lon="2.46829">
        <ele>87.5</ele>
        <time>2023-07-19T07:21:48Z</time>
      </trkpt>
      <trkpt lat="49.83997" lon="2.4683">
        <ele>87.5</ele>
        <time>2023-07-19T07:21:49Z</time>
      </trkpt>
      <trkpt lat="49.83995" lon="2.46831">
        <ele>87.5</ele>
        <time>2023-07-19T07:21:51Z</time>
      </trkpt>
      <trkpt lat="49.83994" lon="2.46831">
        <ele>87.5</ele>
        <time>2023-07-19T07:21:52Z</time>
      </trkpt>
      <trkpt lat="49.83993" lon="2.46832">
        <ele>87.5</ele>
        <time>2023-07-19T07:21:53Z</time>
      </trkpt>
      <trkpt lat="49.8399" lon="2.46833">
        <ele>87.5</ele>
        <time>2023-07-19T07:21:54Z</time>
      </trkpt>
      <trkpt lat="49.8399" lon="2.46834">
        <ele>87.5</ele>
        <time>2023-07-19T07:21:55Z</time>
      </trkpt>
      <trkpt lat="49.83989" lon="2.46834">
        <ele>87.5</ele>
        <time>2023-07-19T07:21:57Z</time>
      </trkpt>
      <trkpt lat="49.83988" lon="2.46834">
        <ele>87.4</ele>
        <time>2023-07-19T07:21:58Z</time>
      </trkpt>
      <trkpt lat="49.83985" lon="2.46835">
        <ele>87.4</ele>
        <time>2023-07-19T07:22:00Z</time>
      </trkpt>
      <trkpt lat="49.83984" lon="2.46836">
        <ele>87.4</ele>
        <time>2023-07-19T07:22:01Z</time>
      </trkpt>
      <trkpt lat="49.83983" lon="2.46836">
        <ele>87.4</ele>
        <time>2023-07-19T07:22:02Z</time>
      </trkpt>
      <trkpt lat="49.83982" lon="2.46837">
        <ele>87.4</ele>
        <time>2023-07-19T07:22:03Z</time>
      </trkpt>
      <trkpt lat="49.83981" lon="2.46837">
        <ele>87.4</ele>
        <time>2023-07-19T07:22:04Z</time>
      </trkpt>
      <trkpt lat="49.8398" lon="2.46838">
        <ele>87.4</ele>
        <time>2023-07-19T07:22:06Z</time>
      </trkpt>
      <trkpt lat="49.83978" lon="2.46838">
        <ele>87.4</ele>
        <time>2023-07-19T07:22:07Z</time>
      </trkpt>
      <trkpt lat="49.83976" lon="2.4684">
        <ele>87.3</ele>
        <time>2023-07-19T07:22:09Z</time>
      </trkpt>
      <trkpt lat="49.83975" lon="2.46841">
        <ele>87.3</ele>
        <time>2023-07-19T07:22:10Z</time>
      </trkpt>
      <trkpt lat="49.83974" lon="2.46842">
        <ele>87.3</ele>
        <time>2023-07-19T07:22:11Z</time>
      </trkpt>
      <trkpt lat="49.83971" lon="2.46844">
        <ele>87.3</ele>
        <time>2023-07-19T07:22:13Z</time>
      </trkpt>
      <trkpt lat="49.8397" lon="2.46844">
        <ele>87.3</ele>
        <time>2023-07-19T07:22:14Z</time>
      </trkpt>
      <trkpt lat="49.83969" lon="2.46845">
        <ele>87.3</ele>
        <time>2023-07-19T07:22:15Z</time>
      </trkpt>
      <trkpt lat="49.83968" lon="2.46846">
        <ele>87.3</ele>
        <time>2023-07-19T07:22:17Z</time>
      </trkpt>
      <trkpt lat="49.83966" lon="2.46848">
        <ele>87.2</ele>
        <time>2023-07-19T07:22:19Z</time>
      </trkpt>
      <trkpt lat="49.83965" lon="2.46849">
        <ele>87.2</ele>
        <time>2023-07-19T07:22:20Z</time>
      </trkpt>
      <trkpt lat="49.83964" lon="2.4685">
        <ele>87.2</ele>
        <time>2023-07-19T07:22:21Z</time>
      </trkpt>
      <trkpt lat="49.83962" lon="2.46851">
        <ele>87.2</ele>
        <time>2023-07-19T07:22:22Z</time>
      </trkpt>
      <trkpt lat="49.83961" lon="2.46852">
        <ele>87.2</ele>
        <time>2023-07-19T07:22:23Z</time>
      </trkpt>
      <trkpt lat="49.83959" lon="2.46853">
        <ele>87.2</ele>
        <time>2023-07-19T07:22:25Z</time>
      </trkpt>
      <trkpt lat="49.83958" lon="2.46854">
        <ele>87.2</ele>
        <time>2023-07-19T07:22:26Z</time>
      </trkpt>
      <trkpt lat="49.83956" lon="2.46855">
        <ele>87.2</ele>
        <time>2023-07-19T07:22:27Z</time>
      </trkpt>
      <trkpt lat="49.83955" lon="2.46856">
        <ele>87.2</ele>
        <time>2023-07-19T07:22:28Z</time>
      </trkpt>
      <trkpt lat="49.83952" lon="2.46857">
        <ele>87.1</ele>
        <time>2023-07-19T07:22:30Z</time>
      </trkpt>
      <trkpt lat="49.8395" lon="2.46858">
        <ele>87.1</ele>
        <time>2023-07-19T07:22:31Z</time>
      </trkpt>
      <trkpt lat="49.83948" lon="2.4686">
        <ele>87.1</ele>
        <time>2023-07-19T07:22:33Z</time>
      </trkpt>
      <trkpt lat="49.83946" lon="2.4686">
        <ele>87.1</ele>
        <time>2023-07-19T07:22:35Z</time>
      </trkpt>
      <trkpt lat="49.83945" lon="2.4686">
        <ele>87.1</ele>
        <time>2023-07-19T07:22:36Z</time>
      </trkpt>
      <trkpt lat="49.83944" lon="2.4686">
        <ele>87.1</ele>
        <time>2023-07-19T07:22:37Z</time>
      </trkpt>
      <trkpt lat="49.83941" lon="2.46861">
        <ele>87.1</ele>
        <time>2023-07-19T07:22:39Z</time>
      </trkpt>
      <trkpt lat="49.83941" lon="2.46861">
        <ele>87</ele>
        <time>2023-07-19T07:22:40Z</time>
      </trkpt>
      <trkpt lat="49.83939" lon="2.46862">
        <ele>87</ele>
        <time>2023-07-19T07:22:41Z</time>
      </trkpt>
      <trkpt lat="49.83938" lon="2.46862">
        <ele>87</ele>
        <time>2023-07-19T07:22:42Z</time>
      </trkpt>
      <trkpt lat="49.83936" lon="2.46863">
        <ele>87</ele>
        <time>2023-07-19T07:22:44Z</time>
      </trkpt>
      <trkpt lat="49.83934" lon="2.46864">
        <ele>87</ele>
        <time>2023-07-19T07:22:45Z</time>
      </trkpt>
      <trkpt lat="49.83931" lon="2.46865">
        <ele>87</ele>
        <time>2023-07-19T07:22:47Z</time>
      </trkpt>
      <trkpt lat="49.8393" lon="2.46865">
        <ele>87</ele>
        <time>2023-07-19T07:22:49Z</time>
      </trkpt>
      <trkpt lat="49.83929" lon="2.46865">
        <ele>87</ele>
        <time>2023-07-19T07:22:50Z</time>
      </trkpt>
      <trkpt lat="49.83928" lon="2.46865">
        <ele>86.9</ele>
        <time>2023-07-19T07:22:51Z</time>
      </trkpt>
      <trkpt lat="49.83926" lon="2.46865">
        <ele>86.9</ele>
        <time>2023-07-19T07:22:52Z</time>
      </trkpt>
      <trkpt lat="49.83925" lon="2.46865">
        <ele>86.9</ele>
        <time>2023-07-19T07:22:53Z</time>
      </trkpt>
      <trkpt lat="49.83923" lon="2.46865">
        <ele>86.9</ele>
        <time>2023-07-19T07:22:54Z</time>
      </trkpt>
      <trkpt lat="49.83922" lon="2.46865">
        <ele>86.9</ele>
        <time>2023-07-19T07:22:55Z</time>
      </trkpt>
      <trkpt lat="49.8392" lon="2.46865">
        <ele>86.9</ele>
        <time>2023-07-19T07:22:56Z</time>
      </trkpt>
      <trkpt lat="49.83919" lon="2.46865">
        <ele>86.9</ele>
        <time>2023-07-19T07:22:58Z</time>
      </trkpt>
      <trkpt lat="49.83917" lon="2.46865">
        <ele>86.8</ele>
        <time>2023-07-19T07:22:59Z</time>
      </trkpt>
      <trkpt lat="49.83916" lon="2.46865">
        <ele>86.8</ele>
        <time>2023-07-19T07:23:00Z</time>
      </trkpt>
      <trkpt lat="49.83914" lon="2.46865">
        <ele>86.8</ele>
        <time>2023-07-19T07:23:01Z</time>
      </trkpt>
      <trkpt lat="49.83913" lon="2.46864">
        <ele>86.8</ele>
        <time>2023-07-19T07:23:03Z</time>
      </trkpt>
      <trkpt lat="49.83911" lon="2.46864">
        <ele>86.7</ele>
        <time>2023-07-19T07:23:04Z</time>
      </trkpt>
      <trkpt lat="49.8391" lon="2.46864">
        <ele>86.7</ele>
        <time>2023-07-19T07:23:05Z</time>
      </trkpt>
      <trkpt lat="49.83908" lon="2.46864">
        <ele>86.7</ele>
        <time>2023-07-19T07:23:06Z</time>
      </trkpt>
      <trkpt lat="49.83907" lon="2.46863">
        <ele>86.7</ele>
        <time>2023-07-19T07:23:07Z</time>
      </trkpt>
      <trkpt lat="49.83906" lon="2.46863">
        <ele>86.7</ele>
        <time>2023-07-19T07:23:08Z</time>
      </trkpt>
      <trkpt lat="49.83905" lon="2.46863">
        <ele>86.7</ele>
        <time>2023-07-19T07:23:09Z</time>
      </trkpt>
      <trkpt lat="49.83903" lon="2.46863">
        <ele>86.7</ele>
        <time>2023-07-19T07:23:11Z</time>
      </trkpt>
      <trkpt lat="49.83901" lon="2.46863">
        <ele>86.7</ele>
        <time>2023-07-19T07:23:12Z</time>
      </trkpt>
      <trkpt lat="49.83899" lon="2.46863">
        <ele>86.7</ele>
        <time>2023-07-19T07:23:13Z</time>
      </trkpt>
      <trkpt lat="49.83898" lon="2.46863">
        <ele>86.7</ele>
        <time>2023-07-19T07:23:15Z</time>
      </trkpt>
      <trkpt lat="49.83897" lon="2.46863">
        <ele>86.7</ele>
        <time>2023-07-19T07:23:16Z</time>
      </trkpt>
      <trkpt lat="49.83895" lon="2.46863">
        <ele>86.8</ele>
        <time>2023-07-19T07:23:17Z</time>
      </trkpt>
      <trkpt lat="49.83894" lon="2.46863">
        <ele>86.8</ele>
        <time>2023-07-19T07:23:18Z</time>
      </trkpt>
      <trkpt lat="49.83892" lon="2.46863">
        <ele>86.9</ele>
        <time>2023-07-19T07:23:19Z</time>
      </trkpt>
      <trkpt lat="49.8389" lon="2.46863">
        <ele>86.9</ele>
        <time>2023-07-19T07:23:20Z</time>
      </trkpt>
      <trkpt lat="49.83889" lon="2.46863">
        <ele>86.9</ele>
        <time>2023-07-19T07:23:22Z</time>
      </trkpt>
      <trkpt lat="49.83888" lon="2.46863">
        <ele>87</ele>
        <time>2023-07-19T07:23:23Z</time>
      </trkpt>
      <trkpt lat="49.83887" lon="2.46863">
        <ele>87</ele>
        <time>2023-07-19T07:23:24Z</time>
      </trkpt>
      <trkpt lat="49.83886" lon="2.46863">
        <ele>87</ele>
        <time>2023-07-19T07:23:25Z</time>
      </trkpt>
      <trkpt lat="49.83885" lon="2.46863">
        <ele>87.1</ele>
        <time>2023-07-19T07:23:26Z</time>
      </trkpt>
      <trkpt lat="49.83884" lon="2.46863">
        <ele>87.1</ele>
        <time>2023-07-19T07:23:27Z</time>
      </trkpt>
      <trkpt lat="49.83883" lon="2.46863">
        <ele>87.2</ele>
        <time>2023-07-19T07:23:28Z</time>
      </trkpt>
      <trkpt lat="49.83881" lon="2.46863">
        <ele>87.2</ele>
        <time>2023-07-19T07:23:30Z</time>
      </trkpt>
      <trkpt lat="49.8388" lon="2.46862">
        <ele>87.3</ele>
        <time>2023-07-19T07:23:31Z</time>
      </trkpt>
      <trkpt lat="49.83879" lon="2.46862">
        <ele>87.3</ele>
        <time>2023-07-19T07:23:32Z</time>
      </trkpt>
      <trkpt lat="49.83878" lon="2.46862">
        <ele>87.4</ele>
        <time>2023-07-19T07:23:33Z</time>
      </trkpt>
      <trkpt lat="49.83877" lon="2.46861">
        <ele>87.4</ele>
        <time>2023-07-19T07:23:34Z</time>
      </trkpt>
      <trkpt lat="49.83876" lon="2.46861">
        <ele>87.4</ele>
        <time>2023-07-19T07:23:35Z</time>
      </trkpt>
      <trkpt lat="49.83876" lon="2.4686">
        <ele>87.4</ele>
        <time>2023-07-19T07:23:36Z</time>
      </trkpt>
      <trkpt lat="49.83875" lon="2.46859">
        <ele>87.5</ele>
        <time>2023-07-19T07:23:37Z</time>
      </trkpt>
      <trkpt lat="49.83876" lon="2.46858">
        <ele>87.5</ele>
        <time>2023-07-19T07:23:39Z</time>
      </trkpt>
      <trkpt lat="49.83877" lon="2.46857">
        <ele>87.5</ele>
        <time>2023-07-19T07:23:41Z</time>
      </trkpt>
      <trkpt lat="49.83877" lon="2.46856">
        <ele>87.5</ele>
        <time>2023-07-19T07:23:42Z</time>
      </trkpt>
      <trkpt lat="49.83877" lon="2.46856">
        <ele>87.6</ele>
        <time>2023-07-19T07:23:43Z</time>
      </trkpt>
      <trkpt lat="49.83877" lon="2.46856">
        <ele>87.6</ele>
        <time>2023-07-19T07:23:44Z</time>
      </trkpt>
      <trkpt lat="49.83877" lon="2.46857">
        <ele>87.6</ele>
        <time>2023-07-19T07:23:45Z</time>
      </trkpt>
      <trkpt lat="49.83876" lon="2.46857">
        <ele>87.6</ele>
        <time>2023-07-19T07:23:47Z</time>
      </trkpt>
      <trkpt lat="49.83875" lon="2.46857">
        <ele>87.6</ele>
        <time>2023-07-19T07:23:48Z</time>
      </trkpt>
      <trkpt lat="49.83873" lon="2.46857">
        <ele>87.7</ele>
        <time>2023-07-19T07:23:50Z</time>
      </trkpt>
      <trkpt lat="49.83872" lon="2.46857">
        <ele>87.7</ele>
        <time>2023-07-19T07:23:51Z</time>
      </trkpt>
      <trkpt lat="49.83871" lon="2.46858">
        <ele>87.7</ele>
        <time>2023-07-19T07:23:52Z</time>
      </trkpt>
      <trkpt lat="49.83869" lon="2.46858">
        <ele>87.8</ele>
        <time>2023-07-19T07:23:54Z</time>
      </trkpt>
      <trkpt lat="49.83868" lon="2.46858">
        <ele>87.8</ele>
        <time>2023-07-19T07:23:55Z</time>
      </trkpt>
      <trkpt lat="49.83867" lon="2.46859">
        <ele>87.8</ele>
        <time>2023-07-19T07:23:56Z</time>
      </trkpt>
      <trkpt lat="49.83867" lon="2.46859">
        <ele>87.8</ele>
        <time>2023-07-19T07:23:57Z</time>
      </trkpt>
      <trkpt lat="49.83865" lon="2.4686">
        <ele>87.9</ele>
        <time>2023-07-19T07:23:58Z</time>
      </trkpt>
      <trkpt lat="49.83864" lon="2.4686">
        <ele>87.9</ele>
        <time>2023-07-19T07:23:59Z</time>
      </trkpt>
      <trkpt lat="49.83863" lon="2.4686">
        <ele>87.9</ele>
        <time>2023-07-19T07:24:00Z</time>
      </trkpt>
      <trkpt lat="49.83862" lon="2.46859">
        <ele>87.9</ele>
        <time>2023-07-19T07:24:02Z</time>
      </trkpt>
      <trkpt lat="49.83861" lon="2.46858">
        <ele>87.9</ele>
        <time>2023-07-19T07:24:04Z</time>
      </trkpt>
      <trkpt lat="49.8386" lon="2.46859">
        <ele>87.9</ele>
        <time>2023-07-19T07:24:05Z</time>
      </trkpt>
      <trkpt lat="49.83859" lon="2.46859">
        <ele>87.9</ele>
        <time>2023-07-19T07:24:06Z</time>
      </trkpt>
      <trkpt lat="49.83858" lon="2.4686">
        <ele>87.9</ele>
        <time>2023-07-19T07:24:07Z</time>
      </trkpt>
      <trkpt lat="49.83857" lon="2.46861">
        <ele>88</ele>
        <time>2023-07-19T07:24:08Z</time>
      </trkpt>
      <trkpt lat="49.83856" lon="2.46862">
        <ele>88</ele>
        <time>2023-07-19T07:24:09Z</time>
      </trkpt>
      <trkpt lat="49.83855" lon="2.46863">
        <ele>88</ele>
        <time>2023-07-19T07:24:10Z</time>
      </trkpt>
      <trkpt lat="49.83855" lon="2.46866">
        <ele>88</ele>
        <time>2023-07-19T07:24:13Z</time>
      </trkpt>
      <trkpt lat="49.83856" lon="2.46868">
        <ele>88</ele>
        <time>2023-07-19T07:24:15Z</time>
      </trkpt>
      <trkpt lat="49.83856" lon="2.46869">
        <ele>88</ele>
        <time>2023-07-19T07:24:16Z</time>
      </trkpt>
      <trkpt lat="49.83856" lon="2.46872">
        <ele>88</ele>
        <time>2023-07-19T07:24:17Z</time>
      </trkpt>
      <trkpt lat="49.83856" lon="2.46873">
        <ele>88</ele>
        <time>2023-07-19T07:24:18Z</time>
      </trkpt>
      <trkpt lat="49.83856" lon="2.46875">
        <ele>88</ele>
        <time>2023-07-19T07:24:20Z</time>
      </trkpt>
      <trkpt lat="49.83855" lon="2.46876">
        <ele>88</ele>
        <time>2023-07-19T07:24:21Z</time>
      </trkpt>
      <trkpt lat="49.83854" lon="2.46877">
        <ele>88</ele>
        <time>2023-07-19T07:24:22Z</time>
      </trkpt>
      <trkpt lat="49.83853" lon="2.46879">
        <ele>88</ele>
        <time>2023-07-19T07:24:23Z</time>
      </trkpt>
      <trkpt lat="49.83853" lon="2.4688">
        <ele>88</ele>
        <time>2023-07-19T07:24:24Z</time>
      </trkpt>
      <trkpt lat="49.83852" lon="2.46881">
        <ele>88.1</ele>
        <time>2023-07-19T07:24:25Z</time>
      </trkpt>
      <trkpt lat="49.83851" lon="2.46882">
        <ele>88.1</ele>
        <time>2023-07-19T07:24:27Z</time>
      </trkpt>
      <trkpt lat="49.8385" lon="2.46884">
        <ele>88.1</ele>
        <time>2023-07-19T07:24:28Z</time>
      </trkpt>
      <trkpt lat="49.83848" lon="2.46886">
        <ele>88.1</ele>
        <time>2023-07-19T07:24:29Z</time>
      </trkpt>
      <trkpt lat="49.83847" lon="2.46887">
        <ele>88.1</ele>
        <time>2023-07-19T07:24:30Z</time>
      </trkpt>
      <trkpt lat="49.83846" lon="2.46889">
        <ele>88.1</ele>
        <time>2023-07-19T07:24:31Z</time>
      </trkpt>
      <trkpt lat="49.83845" lon="2.46891">
        <ele>88.1</ele>
        <time>2023-07-19T07:24:32Z</time>
      </trkpt>
      <trkpt lat="49.83844" lon="2.46892">
        <ele>88.1</ele>
        <time>2023-07-19T07:24:34Z</time>
      </trkpt>
      <trkpt lat="49.83843" lon="2.46893">
        <ele>88.1</ele>
        <time>2023-07-19T07:24:35Z</time>
      </trkpt>
      <trkpt lat="49.83842" lon="2.46894">
        <ele>88.2</ele>
        <time>2023-07-19T07:24:36Z</time>
      </trkpt>
      <trkpt lat="49.83841" lon="2.46896">
        <ele>88.2</ele>
        <time>2023-07-19T07:24:37Z</time>
      </trkpt>
      <trkpt lat="49.8384" lon="2.46897">
        <ele>88.2</ele>
        <time>2023-07-19T07:24:38Z</time>
      </trkpt>
      <trkpt lat="49.83838" lon="2.46899">
        <ele>88.2</ele>
        <time>2023-07-19T07:24:39Z</time>
      </trkpt>
      <trkpt lat="49.83837" lon="2.469">
        <ele>88.2</ele>
        <time>2023-07-19T07:24:40Z</time>
      </trkpt>
      <trkpt lat="49.83836" lon="2.469">
        <ele>88.2</ele>
        <time>2023-07-19T07:24:41Z</time>
      </trkpt>
      <trkpt lat="49.83835" lon="2.46901">
        <ele>88.2</ele>
        <time>2023-07-19T07:24:43Z</time>
      </trkpt>
      <trkpt lat="49.83834" lon="2.46902">
        <ele>88.2</ele>
        <time>2023-07-19T07:24:44Z</time>
      </trkpt>
      <trkpt lat="49.83833" lon="2.46903">
        <ele>88.2</ele>
        <time>2023-07-19T07:24:45Z</time>
      </trkpt>
      <trkpt lat="49.83831" lon="2.46904">
        <ele>88.3</ele>
        <time>2023-07-19T07:24:46Z</time>
      </trkpt>
      <trkpt lat="49.8383" lon="2.46905">
        <ele>88.3</ele>
        <time>2023-07-19T07:24:47Z</time>
      </trkpt>
      <trkpt lat="49.83829" lon="2.46906">
        <ele>88.3</ele>
        <time>2023-07-19T07:24:48Z</time>
      </trkpt>
      <trkpt lat="49.83828" lon="2.46906">
        <ele>88.3</ele>
        <time>2023-07-19T07:24:49Z</time>
      </trkpt>
      <trkpt lat="49.83827" lon="2.46907">
        <ele>88.3</ele>
        <time>2023-07-19T07:24:51Z</time>
      </trkpt>
      <trkpt lat="49.83826" lon="2.46908">
        <ele>88.3</ele>
        <time>2023-07-19T07:24:52Z</time>
      </trkpt>
      <trkpt lat="49.83824" lon="2.4691">
        <ele>88.4</ele>
        <time>2023-07-19T07:24:53Z</time>
      </trkpt>
      <trkpt lat="49.83823" lon="2.46911">
        <ele>88.4</ele>
        <time>2023-07-19T07:24:54Z</time>
      </trkpt>
      <trkpt lat="49.83821" lon="2.46912">
        <ele>88.4</ele>
        <time>2023-07-19T07:24:55Z</time>
      </trkpt>
      <trkpt lat="49.8382" lon="2.46913">
        <ele>88.5</ele>
        <time>2023-07-19T07:24:56Z</time>
      </trkpt>
      <trkpt lat="49.83818" lon="2.46914">
        <ele>88.5</ele>
        <time>2023-07-19T07:24:58Z</time>
      </trkpt>
      <trkpt lat="49.83817" lon="2.46916">
        <ele>88.5</ele>
        <time>2023-07-19T07:24:59Z</time>
      </trkpt>
      <trkpt lat="49.83816" lon="2.46917">
        <ele>88.6</ele>
        <time>2023-07-19T07:25:00Z</time>
      </trkpt>
      <trkpt lat="49.83815" lon="2.46918">
        <ele>88.6</ele>
        <time>2023-07-19T07:25:01Z</time>
      </trkpt>
      <trkpt lat="49.83814" lon="2.4692">
        <ele>88.7</ele>
        <time>2023-07-19T07:25:02Z</time>
      </trkpt>
      <trkpt lat="49.83813" lon="2.46921">
        <ele>88.7</ele>
        <time>2023-07-19T07:25:03Z</time>
      </trkpt>
      <trkpt lat="49.83812" lon="2.46922">
        <ele>88.7</ele>
        <time>2023-07-19T07:25:05Z</time>
      </trkpt>
      <trkpt lat="49.83811" lon="2.46923">
        <ele>88.8</ele>
        <time>2023-07-19T07:25:06Z</time>
      </trkpt>
      <trkpt lat="49.8381" lon="2.46926">
        <ele>88.8</ele>
        <time>2023-07-19T07:25:08Z</time>
      </trkpt>
      <trkpt lat="49.83809" lon="2.46926">
        <ele>88.8</ele>
        <time>2023-07-19T07:25:09Z</time>
      </trkpt>
      <trkpt lat="49.83808" lon="2.46927">
        <ele>88.8</ele>
        <time>2023-07-19T07:25:10Z</time>
      </trkpt>
      <trkpt lat="49.83808" lon="2.46929">
        <ele>88.9</ele>
        <time>2023-07-19T07:25:11Z</time>
      </trkpt>
      <trkpt lat="49.83807" lon="2.46931">
        <ele>88.9</ele>
        <time>2023-07-19T07:25:12Z</time>
      </trkpt>
      <trkpt lat="49.83806" lon="2.46932">
        <ele>88.9</ele>
        <time>2023-07-19T07:25:14Z</time>
      </trkpt>
      <trkpt lat="49.83806" lon="2.46935">
        <ele>89</ele>
        <time>2023-07-19T07:25:15Z</time>
      </trkpt>
      <trkpt lat="49.83805" lon="2.46936">
        <ele>89</ele>
        <time>2023-07-19T07:25:16Z</time>
      </trkpt>
      <trkpt lat="49.83805" lon="2.46937">
        <ele>89</ele>
        <time>2023-07-19T07:25:17Z</time>
      </trkpt>
      <trkpt lat="49.83805" lon="2.46939">
        <ele>89</ele>
        <time>2023-07-19T07:25:18Z</time>
      </trkpt>
      <trkpt lat="49.83804" lon="2.46941">
        <ele>89.1</ele>
        <time>2023-07-19T07:25:19Z</time>
      </trkpt>
      <trkpt lat="49.83804" lon="2.46943">
        <ele>89.1</ele>
        <time>2023-07-19T07:25:20Z</time>
      </trkpt>
      <trkpt lat="49.83804" lon="2.46944">
        <ele>89.1</ele>
        <time>2023-07-19T07:25:22Z</time>
      </trkpt>
      <trkpt lat="49.83803" lon="2.46946">
        <ele>89.1</ele>
        <time>2023-07-19T07:25:23Z</time>
      </trkpt>
      <trkpt lat="49.83803" lon="2.46947">
        <ele>89.1</ele>
        <time>2023-07-19T07:25:24Z</time>
      </trkpt>
      <trkpt lat="49.83802" lon="2.46949">
        <ele>89.1</ele>
        <time>2023-07-19T07:25:25Z</time>
      </trkpt>
      <trkpt lat="49.83801" lon="2.4695">
        <ele>89.1</ele>
        <time>2023-07-19T07:25:26Z</time>
      </trkpt>
      <trkpt lat="49.83801" lon="2.46951">
        <ele>89.1</ele>
        <time>2023-07-19T07:25:27Z</time>
      </trkpt>
      <trkpt lat="49.838" lon="2.46953">
        <ele>89.1</ele>
        <time>2023-07-19T07:25:28Z</time>
      </trkpt>
      <trkpt lat="49.83799" lon="2.46955">
        <ele>89.2</ele>
        <time>2023-07-19T07:25:30Z</time>
      </trkpt>
      <trkpt lat="49.83798" lon="2.46956">
        <ele>89.2</ele>
        <time>2023-07-19T07:25:31Z</time>
      </trkpt>
      <trkpt lat="49.83797" lon="2.46956">
        <ele>89.2</ele>
        <time>2023-07-19T07:25:32Z</time>
      </trkpt>
      <trkpt lat="49.83797" lon="2.46956">
        <ele>89.2</ele>
        <time>2023-07-19T07:25:34Z</time>
      </trkpt>
      <trkpt lat="49.83796" lon="2.46957">
        <ele>89.2</ele>
        <time>2023-07-19T07:25:35Z</time>
      </trkpt>
      <trkpt lat="49.83796" lon="2.46958">
        <ele>89.2</ele>
        <time>2023-07-19T07:25:36Z</time>
      </trkpt>
      <trkpt lat="49.83795" lon="2.46959">
        <ele>89.2</ele>
        <time>2023-07-19T07:25:37Z</time>
      </trkpt>
      <trkpt lat="49.83795" lon="2.4696">
        <ele>89.1</ele>
        <time>2023-07-19T07:25:38Z</time>
      </trkpt>
      <trkpt lat="49.83795" lon="2.46961">
        <ele>89.1</ele>
        <time>2023-07-19T07:25:39Z</time>
      </trkpt>
      <trkpt lat="49.83795" lon="2.46962">
        <ele>89.1</ele>
        <time>2023-07-19T07:25:40Z</time>
      </trkpt>
      <trkpt lat="49.83795" lon="2.46964">
        <ele>89.1</ele>
        <time>2023-07-19T07:25:42Z</time>
      </trkpt>
      <trkpt lat="49.83794" lon="2.46965">
        <ele>89.1</ele>
        <time>2023-07-19T07:25:43Z</time>
      </trkpt>
      <trkpt lat="49.83794" lon="2.46967">
        <ele>89.1</ele>
        <time>2023-07-19T07:25:44Z</time>
      </trkpt>
      <trkpt lat="49.83794" lon="2.46968">
        <ele>89.1</ele>
        <time>2023-07-19T07:25:45Z</time>
      </trkpt>
      <trkpt lat="49.83794" lon="2.46968">
        <ele>89.1</ele>
        <time>2023-07-19T07:25:46Z</time>
      </trkpt>
      <trkpt lat="49.83794" lon="2.4697">
        <ele>89.1</ele>
        <time>2023-07-19T07:25:48Z</time>
      </trkpt>
      <trkpt lat="49.83794" lon="2.46971">
        <ele>89.1</ele>
        <time>2023-07-19T07:25:49Z</time>
      </trkpt>
      <trkpt lat="49.83793" lon="2.46972">
        <ele>89.1</ele>
        <time>2023-07-19T07:25:50Z</time>
      </trkpt>
      <trkpt lat="49.83793" lon="2.46973">
        <ele>89.1</ele>
        <time>2023-07-19T07:25:51Z</time>
      </trkpt>
      <trkpt lat="49.83793" lon="2.46974">
        <ele>89.1</ele>
        <time>2023-07-19T07:25:52Z</time>
      </trkpt>
      <trkpt lat="49.83792" lon="2.46976">
        <ele>89.1</ele>
        <time>2023-07-19T07:25:53Z</time>
      </trkpt>
      <trkpt lat="49.83792" lon="2.46978">
        <ele>89</ele>
        <time>2023-07-19T07:25:55Z</time>
      </trkpt>
      <trkpt lat="49.83792" lon="2.4698">
        <ele>89</ele>
        <time>2023-07-19T07:25:56Z</time>
      </trkpt>
      <trkpt lat="49.83791" lon="2.46982">
        <ele>89</ele>
        <time>2023-07-19T07:25:57Z</time>
      </trkpt>
      <trkpt lat="49.83791" lon="2.46984">
        <ele>89</ele>
        <time>2023-07-19T07:25:58Z</time>
      </trkpt>
      <trkpt lat="49.8379" lon="2.46986">
        <ele>89</ele>
        <time>2023-07-19T07:25:59Z</time>
      </trkpt>
      <trkpt lat="49.8379" lon="2.46989">
        <ele>89</ele>
        <time>2023-07-19T07:26:01Z</time>
      </trkpt>
      <trkpt lat="49.83789" lon="2.46991">
        <ele>89</ele>
        <time>2023-07-19T07:26:02Z</time>
      </trkpt>
      <trkpt lat="49.83789" lon="2.46993">
        <ele>89</ele>
        <time>2023-07-19T07:26:03Z</time>
      </trkpt>
      <trkpt lat="49.83788" lon="2.46995">
        <ele>88.9</ele>
        <time>2023-07-19T07:26:04Z</time>
      </trkpt>
      <trkpt lat="49.83788" lon="2.46997">
        <ele>88.9</ele>
        <time>2023-07-19T07:26:05Z</time>
      </trkpt>
      <trkpt lat="49.83787" lon="2.47001">
        <ele>88.9</ele>
        <time>2023-07-19T07:26:06Z</time>
      </trkpt>
      <trkpt lat="49.83786" lon="2.47002">
        <ele>88.9</ele>
        <time>2023-07-19T07:26:08Z</time>
      </trkpt>
      <trkpt lat="49.83786" lon="2.47004">
        <ele>88.9</ele>
        <time>2023-07-19T07:26:09Z</time>
      </trkpt>
      <trkpt lat="49.83786" lon="2.47005">
        <ele>88.9</ele>
        <time>2023-07-19T07:26:10Z</time>
      </trkpt>
      <trkpt lat="49.83785" lon="2.47007">
        <ele>88.9</ele>
        <time>2023-07-19T07:26:11Z</time>
      </trkpt>
      <trkpt lat="49.83785" lon="2.47009">
        <ele>88.8</ele>
        <time>2023-07-19T07:26:12Z</time>
      </trkpt>
      <trkpt lat="49.83784" lon="2.47011">
        <ele>88.8</ele>
        <time>2023-07-19T07:26:13Z</time>
      </trkpt>
      <trkpt lat="49.83783" lon="2.47014">
        <ele>88.8</ele>
        <time>2023-07-19T07:26:14Z</time>
      </trkpt>
      <trkpt lat="49.83783" lon="2.47015">
        <ele>88.8</ele>
        <time>2023-07-19T07:26:16Z</time>
      </trkpt>
      <trkpt lat="49.83782" lon="2.47016">
        <ele>88.8</ele>
        <time>2023-07-19T07:26:17Z</time>
      </trkpt>
      <trkpt lat="49.83782" lon="2.47018">
        <ele>88.8</ele>
        <time>2023-07-19T07:26:18Z</time>
      </trkpt>
      <trkpt lat="49.83782" lon="2.4702">
        <ele>88.8</ele>
        <time>2023-07-19T07:26:19Z</time>
      </trkpt>
      <trkpt lat="49.83782" lon="2.47022">
        <ele>88.8</ele>
        <time>2023-07-19T07:26:20Z</time>
      </trkpt>
      <trkpt lat="49.83781" lon="2.47023">
        <ele>88.8</ele>
        <time>2023-07-19T07:26:21Z</time>
      </trkpt>
      <trkpt lat="49.83781" lon="2.47025">
        <ele>88.7</ele>
        <time>2023-07-19T07:26:22Z</time>
      </trkpt>
      <trkpt lat="49.8378" lon="2.47027">
        <ele>88.7</ele>
        <time>2023-07-19T07:26:24Z</time>
      </trkpt>
      <trkpt lat="49.8378" lon="2.4703">
        <ele>88.7</ele>
        <time>2023-07-19T07:26:25Z</time>
      </trkpt>
      <trkpt lat="49.83779" lon="2.47031">
        <ele>88.7</ele>
        <time>2023-07-19T07:26:26Z</time>
      </trkpt>
      <trkpt lat="49.83779" lon="2.47032">
        <ele>88.7</ele>
        <time>2023-07-19T07:26:27Z</time>
      </trkpt>
      <trkpt lat="49.83778" lon="2.47035">
        <ele>88.7</ele>
        <time>2023-07-19T07:26:28Z</time>
      </trkpt>
      <trkpt lat="49.83778" lon="2.47036">
        <ele>88.7</ele>
        <time>2023-07-19T07:26:29Z</time>
      </trkpt>
      <trkpt lat="49.83777" lon="2.47038">
        <ele>88.7</ele>
        <time>2023-07-19T07:26:30Z</time>
      </trkpt>
      <trkpt lat="49.83777" lon="2.4704">
        <ele>88.7</ele>
        <time>2023-07-19T07:26:31Z</time>
      </trkpt>
      <trkpt lat="49.83776" lon="2.47041">
        <ele>88.7</ele>
        <time>2023-07-19T07:26:33Z</time>
      </trkpt>
      <trkpt lat="49.83775" lon="2.47043">
        <ele>88.7</ele>
        <time>2023-07-19T07:26:34Z</time>
      </trkpt>
      <trkpt lat="49.83775" lon="2.47045">
        <ele>88.7</ele>
        <time>2023-07-19T07:26:35Z</time>
      </trkpt>
      <trkpt lat="49.83774" lon="2.47049">
        <ele>88.8</ele>
        <time>2023-07-19T07:26:36Z</time>
      </trkpt>
      <trkpt lat="49.83774" lon="2.4705">
        <ele>88.8</ele>
        <time>2023-07-19T07:26:37Z</time>
      </trkpt>
      <trkpt lat="49.83773" lon="2.47051">
        <ele>88.8</ele>
        <time>2023-07-19T07:26:38Z</time>
      </trkpt>
      <trkpt lat="49.83773" lon="2.47053">
        <ele>88.8</ele>
        <time>2023-07-19T07:26:39Z</time>
      </trkpt>
      <trkpt lat="49.83773" lon="2.47055">
        <ele>88.8</ele>
        <time>2023-07-19T07:26:40Z</time>
      </trkpt>
      <trkpt lat="49.83772" lon="2.47057">
        <ele>88.8</ele>
        <time>2023-07-19T07:26:42Z</time>
      </trkpt>
      <trkpt lat="49.83771" lon="2.47059">
        <ele>88.8</ele>
        <time>2023-07-19T07:26:43Z</time>
      </trkpt>
      <trkpt lat="49.83771" lon="2.4706">
        <ele>88.8</ele>
        <time>2023-07-19T07:26:44Z</time>
      </trkpt>
      <trkpt lat="49.8377" lon="2.47062">
        <ele>88.9</ele>
        <time>2023-07-19T07:26:45Z</time>
      </trkpt>
      <trkpt lat="49.83769" lon="2.47065">
        <ele>88.9</ele>
        <time>2023-07-19T07:26:47Z</time>
      </trkpt>
      <trkpt lat="49.83769" lon="2.47066">
        <ele>88.9</ele>
        <time>2023-07-19T07:26:48Z</time>
      </trkpt>
      <trkpt lat="49.83768" lon="2.47067">
        <ele>88.9</ele>
        <time>2023-07-19T07:26:49Z</time>
      </trkpt>
      <trkpt lat="49.83767" lon="2.4707">
        <ele>88.9</ele>
        <time>2023-07-19T07:26:50Z</time>
      </trkpt>
      <trkpt lat="49.83767" lon="2.47071">
        <ele>89</ele>
        <time>2023-07-19T07:26:51Z</time>
      </trkpt>
      <trkpt lat="49.83766" lon="2.47072">
        <ele>89</ele>
        <time>2023-07-19T07:26:52Z</time>
      </trkpt>
      <trkpt lat="49.83766" lon="2.47074">
        <ele>89</ele>
        <time>2023-07-19T07:26:53Z</time>
      </trkpt>
      <trkpt lat="49.83765" lon="2.47076">
        <ele>89</ele>
        <time>2023-07-19T07:26:54Z</time>
      </trkpt>
      <trkpt lat="49.83765" lon="2.47077">
        <ele>89</ele>
        <time>2023-07-19T07:26:55Z</time>
      </trkpt>
      <trkpt lat="49.83764" lon="2.4708">
        <ele>89</ele>
        <time>2023-07-19T07:26:57Z</time>
      </trkpt>
      <trkpt lat="49.83764" lon="2.47081">
        <ele>89.1</ele>
        <time>2023-07-19T07:26:58Z</time>
      </trkpt>
      <trkpt lat="49.83763" lon="2.47082">
        <ele>89.1</ele>
        <time>2023-07-19T07:26:59Z</time>
      </trkpt>
      <trkpt lat="49.83763" lon="2.47086">
        <ele>89.1</ele>
        <time>2023-07-19T07:27:00Z</time>
      </trkpt>
      <trkpt lat="49.83763" lon="2.47087">
        <ele>89.1</ele>
        <time>2023-07-19T07:27:01Z</time>
      </trkpt>
      <trkpt lat="49.83763" lon="2.47088">
        <ele>89.1</ele>
        <time>2023-07-19T07:27:02Z</time>
      </trkpt>
      <trkpt lat="49.83762" lon="2.47091">
        <ele>89.1</ele>
        <time>2023-07-19T07:27:03Z</time>
      </trkpt>
      <trkpt lat="49.83762" lon="2.47093">
        <ele>89.1</ele>
        <time>2023-07-19T07:27:04Z</time>
      </trkpt>
      <trkpt lat="49.83762" lon="2.47095">
        <ele>89.2</ele>
        <time>2023-07-19T07:27:06Z</time>
      </trkpt>
      <trkpt lat="49.83762" lon="2.47096">
        <ele>89.2</ele>
        <time>2023-07-19T07:27:07Z</time>
      </trkpt>
      <trkpt lat="49.83762" lon="2.47098">
        <ele>89.2</ele>
        <time>2023-07-19T07:27:08Z</time>
      </trkpt>
      <trkpt lat="49.83762" lon="2.47099">
        <ele>89.2</ele>
        <time>2023-07-19T07:27:09Z</time>
      </trkpt>
      <trkpt lat="49.83762" lon="2.47101">
        <ele>89.2</ele>
        <time>2023-07-19T07:27:10Z</time>
      </trkpt>
      <trkpt lat="49.83761" lon="2.47103">
        <ele>89.2</ele>
        <time>2023-07-19T07:27:11Z</time>
      </trkpt>
      <trkpt lat="49.83761" lon="2.47105">
        <ele>89.2</ele>
        <time>2023-07-19T07:27:12Z</time>
      </trkpt>
      <trkpt lat="49.83761" lon="2.47107">
        <ele>89.2</ele>
        <time>2023-07-19T07:27:14Z</time>
      </trkpt>
      <trkpt lat="49.83761" lon="2.47109">
        <ele>89.3</ele>
        <time>2023-07-19T07:27:15Z</time>
      </trkpt>
      <trkpt lat="49.8376" lon="2.47112">
        <ele>89.3</ele>
        <time>2023-07-19T07:27:16Z</time>
      </trkpt>
      <trkpt lat="49.8376" lon="2.47113">
        <ele>89.3</ele>
        <time>2023-07-19T07:27:17Z</time>
      </trkpt>
      <trkpt lat="49.8376" lon="2.47115">
        <ele>89.3</ele>
        <time>2023-07-19T07:27:18Z</time>
      </trkpt>
      <trkpt lat="49.8376" lon="2.47117">
        <ele>89.3</ele>
        <time>2023-07-19T07:27:19Z</time>
      </trkpt>
      <trkpt lat="49.83759" lon="2.47119">
        <ele>89.3</ele>
        <time>2023-07-19T07:27:21Z</time>
      </trkpt>
      <trkpt lat="49.83759" lon="2.4712">
        <ele>89.3</ele>
        <time>2023-07-19T07:27:22Z</time>
      </trkpt>
      <trkpt lat="49.83759" lon="2.47124">
        <ele>89.4</ele>
        <time>2023-07-19T07:27:23Z</time>
      </trkpt>
      <trkpt lat="49.83759" lon="2.47125">
        <ele>89.4</ele>
        <time>2023-07-19T07:27:24Z</time>
      </trkpt>
      <trkpt lat="49.83759" lon="2.47126">
        <ele>89.4</ele>
        <time>2023-07-19T07:27:25Z</time>
      </trkpt>
      <trkpt lat="49.83758" lon="2.47129">
        <ele>89.4</ele>
        <time>2023-07-19T07:27:26Z</time>
      </trkpt>
      <trkpt lat="49.83758" lon="2.47131">
        <ele>89.4</ele>
        <time>2023-07-19T07:27:28Z</time>
      </trkpt>
      <trkpt lat="49.83757" lon="2.47132">
        <ele>89.4</ele>
        <time>2023-07-19T07:27:29Z</time>
      </trkpt>
      <trkpt lat="49.83757" lon="2.47135">
        <ele>89.5</ele>
        <time>2023-07-19T07:27:30Z</time>
      </trkpt>
      <trkpt lat="49.83757" lon="2.47136">
        <ele>89.5</ele>
        <time>2023-07-19T07:27:31Z</time>
      </trkpt>
      <trkpt lat="49.83756" lon="2.47138">
        <ele>89.5</ele>
        <time>2023-07-19T07:27:32Z</time>
      </trkpt>
      <trkpt lat="49.83756" lon="2.47141">
        <ele>89.5</ele>
        <time>2023-07-19T07:27:33Z</time>
      </trkpt>
      <trkpt lat="49.83756" lon="2.47142">
        <ele>89.5</ele>
        <time>2023-07-19T07:27:34Z</time>
      </trkpt>
      <trkpt lat="49.83755" lon="2.47143">
        <ele>89.5</ele>
        <time>2023-07-19T07:27:35Z</time>
      </trkpt>
      <trkpt lat="49.83755" lon="2.47145">
        <ele>89.5</ele>
        <time>2023-07-19T07:27:36Z</time>
      </trkpt>
      <trkpt lat="49.83755" lon="2.47147">
        <ele>89.5</ele>
        <time>2023-07-19T07:27:37Z</time>
      </trkpt>
      <trkpt lat="49.83754" lon="2.47148">
        <ele>89.5</ele>
        <time>2023-07-19T07:27:39Z</time>
      </trkpt>
      <trkpt lat="49.83753" lon="2.47152">
        <ele>89.6</ele>
        <time>2023-07-19T07:27:40Z</time>
      </trkpt>
      <trkpt lat="49.83753" lon="2.47153">
        <ele>89.6</ele>
        <time>2023-07-19T07:27:41Z</time>
      </trkpt>
      <trkpt lat="49.83753" lon="2.47155">
        <ele>89.6</ele>
        <time>2023-07-19T07:27:42Z</time>
      </trkpt>
      <trkpt lat="49.83752" lon="2.47156">
        <ele>89.6</ele>
        <time>2023-07-19T07:27:43Z</time>
      </trkpt>
      <trkpt lat="49.83752" lon="2.47157">
        <ele>89.6</ele>
        <time>2023-07-19T07:27:44Z</time>
      </trkpt>
      <trkpt lat="49.83751" lon="2.47159">
        <ele>89.6</ele>
        <time>2023-07-19T07:27:45Z</time>
      </trkpt>
      <trkpt lat="49.83751" lon="2.47161">
        <ele>89.6</ele>
        <time>2023-07-19T07:27:46Z</time>
      </trkpt>
      <trkpt lat="49.8375" lon="2.47163">
        <ele>89.6</ele>
        <time>2023-07-19T07:27:48Z</time>
      </trkpt>
      <trkpt lat="49.8375" lon="2.47166">
        <ele>89.6</ele>
        <time>2023-07-19T07:27:49Z</time>
      </trkpt>
      <trkpt lat="49.8375" lon="2.47168">
        <ele>89.6</ele>
        <time>2023-07-19T07:27:51Z</time>
      </trkpt>
      <trkpt lat="49.83749" lon="2.4717">
        <ele>89.7</ele>
        <time>2023-07-19T07:27:52Z</time>
      </trkpt>
      <trkpt lat="49.83749" lon="2.47172">
        <ele>89.7</ele>
        <time>2023-07-19T07:27:53Z</time>
      </trkpt>
      <trkpt lat="49.83748" lon="2.47175">
        <ele>89.7</ele>
        <time>2023-07-19T07:27:54Z</time>
      </trkpt>
      <trkpt lat="49.83748" lon="2.47176">
        <ele>89.7</ele>
        <time>2023-07-19T07:27:55Z</time>
      </trkpt>
      <trkpt lat="49.83747" lon="2.47178">
        <ele>89.7</ele>
        <time>2023-07-19T07:27:56Z</time>
      </trkpt>
      <trkpt lat="49.83747" lon="2.47181">
        <ele>89.7</ele>
        <time>2023-07-19T07:27:57Z</time>
      </trkpt>
      <trkpt lat="49.83747" lon="2.47182">
        <ele>89.7</ele>
        <time>2023-07-19T07:27:59Z</time>
      </trkpt>
      <trkpt lat="49.83747" lon="2.47184">
        <ele>89.7</ele>
        <time>2023-07-19T07:28:00Z</time>
      </trkpt>
      <trkpt lat="49.83747" lon="2.47187">
        <ele>89.7</ele>
        <time>2023-07-19T07:28:01Z</time>
      </trkpt>
      <trkpt lat="49.83746" lon="2.47188">
        <ele>89.7</ele>
        <time>2023-07-19T07:28:02Z</time>
      </trkpt>
      <trkpt lat="49.83746" lon="2.47189">
        <ele>89.8</ele>
        <time>2023-07-19T07:28:03Z</time>
      </trkpt>
      <trkpt lat="49.83746" lon="2.47191">
        <ele>89.8</ele>
        <time>2023-07-19T07:28:04Z</time>
      </trkpt>
      <trkpt lat="49.83746" lon="2.47193">
        <ele>89.8</ele>
        <time>2023-07-19T07:28:05Z</time>
      </trkpt>
      <trkpt lat="49.83746" lon="2.47195">
        <ele>89.8</ele>
        <time>2023-07-19T07:28:06Z</time>
      </trkpt>
      <trkpt lat="49.83745" lon="2.47198">
        <ele>89.8</ele>
        <time>2023-07-19T07:28:08Z</time>
      </trkpt>
      <trkpt lat="49.83745" lon="2.47199">
        <ele>89.8</ele>
        <time>2023-07-19T07:28:09Z</time>
      </trkpt>
      <trkpt lat="49.83745" lon="2.47201">
        <ele>89.8</ele>
        <time>2023-07-19T07:28:10Z</time>
      </trkpt>
      <trkpt lat="49.83744" lon="2.47203">
        <ele>89.8</ele>
        <time>2023-07-19T07:28:11Z</time>
      </trkpt>
      <trkpt lat="49.83744" lon="2.47205">
        <ele>89.8</ele>
        <time>2023-07-19T07:28:12Z</time>
      </trkpt>
      <trkpt lat="49.83744" lon="2.47207">
        <ele>89.8</ele>
        <time>2023-07-19T07:28:13Z</time>
      </trkpt>
      <trkpt lat="49.83744" lon="2.47209">
        <ele>89.8</ele>
        <time>2023-07-19T07:28:14Z</time>
      </trkpt>
      <trkpt lat="49.83743" lon="2.47211">
        <ele>89.8</ele>
        <time>2023-07-19T07:28:15Z</time>
      </trkpt>
      <trkpt lat="49.83743" lon="2.47213">
        <ele>89.8</ele>
        <time>2023-07-19T07:28:16Z</time>
      </trkpt>
      <trkpt lat="49.83743" lon="2.47216">
        <ele>89.8</ele>
        <time>2023-07-19T07:28:18Z</time>
      </trkpt>
      <trkpt lat="49.83743" lon="2.47218">
        <ele>89.8</ele>
        <time>2023-07-19T07:28:19Z</time>
      </trkpt>
      <trkpt lat="49.83743" lon="2.4722">
        <ele>89.8</ele>
        <time>2023-07-19T07:28:20Z</time>
      </trkpt>
      <trkpt lat="49.83743" lon="2.47222">
        <ele>89.8</ele>
        <time>2023-07-19T07:28:21Z</time>
      </trkpt>
      <trkpt lat="49.83743" lon="2.47225">
        <ele>89.8</ele>
        <time>2023-07-19T07:28:22Z</time>
      </trkpt>
      <trkpt lat="49.83743" lon="2.47226">
        <ele>89.8</ele>
        <time>2023-07-19T07:28:24Z</time>
      </trkpt>
      <trkpt lat="49.83743" lon="2.47228">
        <ele>89.8</ele>
        <time>2023-07-19T07:28:25Z</time>
      </trkpt>
      <trkpt lat="49.83743" lon="2.4723">
        <ele>89.7</ele>
        <time>2023-07-19T07:28:26Z</time>
      </trkpt>
      <trkpt lat="49.83742" lon="2.47233">
        <ele>89.7</ele>
        <time>2023-07-19T07:28:27Z</time>
      </trkpt>
      <trkpt lat="49.83742" lon="2.47236">
        <ele>89.7</ele>
        <time>2023-07-19T07:28:28Z</time>
      </trkpt>
      <trkpt lat="49.83742" lon="2.47237">
        <ele>89.7</ele>
        <time>2023-07-19T07:28:29Z</time>
      </trkpt>
      <trkpt lat="49.83742" lon="2.47238">
        <ele>89.7</ele>
        <time>2023-07-19T07:28:30Z</time>
      </trkpt>
      <trkpt lat="49.83742" lon="2.47241">
        <ele>89.7</ele>
        <time>2023-07-19T07:28:32Z</time>
      </trkpt>
      <trkpt lat="49.83742" lon="2.47243">
        <ele>89.6</ele>
        <time>2023-07-19T07:28:33Z</time>
      </trkpt>
      <trkpt lat="49.83742" lon="2.47245">
        <ele>89.6</ele>
        <time>2023-07-19T07:28:34Z</time>
      </trkpt>
      <trkpt lat="49.83741" lon="2.47247">
        <ele>89.6</ele>
        <time>2023-07-19T07:28:35Z</time>
      </trkpt>
      <trkpt lat="49.83741" lon="2.47248">
        <ele>89.6</ele>
        <time>2023-07-19T07:28:36Z</time>
      </trkpt>
      <trkpt lat="49.83741" lon="2.4725">
        <ele>89.6</ele>
        <time>2023-07-19T07:28:37Z</time>
      </trkpt>
      <trkpt lat="49.83741" lon="2.47252">
        <ele>89.6</ele>
        <time>2023-07-19T07:28:38Z</time>
      </trkpt>
      <trkpt lat="49.8374" lon="2.47255">
        <ele>89.5</ele>
        <time>2023-07-19T07:28:39Z</time>
      </trkpt>
      <trkpt lat="49.8374" lon="2.47257">
        <ele>89.5</ele>
        <time>2023-07-19T07:28:41Z</time>
      </trkpt>
      <trkpt lat="49.8374" lon="2.47258">
        <ele>89.5</ele>
        <time>2023-07-19T07:28:42Z</time>
      </trkpt>
      <trkpt lat="49.83739" lon="2.47262">
        <ele>89.4</ele>
        <time>2023-07-19T07:28:43Z</time>
      </trkpt>
      <trkpt lat="49.83739" lon="2.47263">
        <ele>89.4</ele>
        <time>2023-07-19T07:28:44Z</time>
      </trkpt>
      <trkpt lat="49.83739" lon="2.47265">
        <ele>89.4</ele>
        <time>2023-07-19T07:28:45Z</time>
      </trkpt>
      <trkpt lat="49.83738" lon="2.47267">
        <ele>89.4</ele>
        <time>2023-07-19T07:28:47Z</time>
      </trkpt>
      <trkpt lat="49.83738" lon="2.47269">
        <ele>89.4</ele>
        <time>2023-07-19T07:28:48Z</time>
      </trkpt>
      <trkpt lat="49.83737" lon="2.47272">
        <ele>89.4</ele>
        <time>2023-07-19T07:28:49Z</time>
      </trkpt>
      <trkpt lat="49.83737" lon="2.47273">
        <ele>89.3</ele>
        <time>2023-07-19T07:28:50Z</time>
      </trkpt>
      <trkpt lat="49.83737" lon="2.47275">
        <ele>89.3</ele>
        <time>2023-07-19T07:28:51Z</time>
      </trkpt>
      <trkpt lat="49.83736" lon="2.47277">
        <ele>89.3</ele>
        <time>2023-07-19T07:28:52Z</time>
      </trkpt>
      <trkpt lat="49.83736" lon="2.47279">
        <ele>89.3</ele>
        <time>2023-07-19T07:28:53Z</time>
      </trkpt>
      <trkpt lat="49.83736" lon="2.47281">
        <ele>89.3</ele>
        <time>2023-07-19T07:28:54Z</time>
      </trkpt>
      <trkpt lat="49.83735" lon="2.47282">
        <ele>89.3</ele>
        <time>2023-07-19T07:28:55Z</time>
      </trkpt>
      <trkpt lat="49.83735" lon="2.47284">
        <ele>89.3</ele>
        <time>2023-07-19T07:28:56Z</time>
      </trkpt>
      <trkpt lat="49.83734" lon="2.47288">
        <ele>89.2</ele>
        <time>2023-07-19T07:28:58Z</time>
      </trkpt>
      <trkpt lat="49.83734" lon="2.47289">
        <ele>89.2</ele>
        <time>2023-07-19T07:28:59Z</time>
      </trkpt>
      <trkpt lat="49.83734" lon="2.4729">
        <ele>89.2</ele>
        <time>2023-07-19T07:29:00Z</time>
      </trkpt>
      <trkpt lat="49.83733" lon="2.47295">
        <ele>89.1</ele>
        <time>2023-07-19T07:29:01Z</time>
      </trkpt>
      <trkpt lat="49.83733" lon="2.47296">
        <ele>89.1</ele>
        <time>2023-07-19T07:29:02Z</time>
      </trkpt>
      <trkpt lat="49.83732" lon="2.473">
        <ele>89</ele>
        <time>2023-07-19T07:29:03Z</time>
      </trkpt>
      <trkpt lat="49.83731" lon="2.47302">
        <ele>88.9</ele>
        <time>2023-07-19T07:29:05Z</time>
      </trkpt>
      <trkpt lat="49.83731" lon="2.47305">
        <ele>88.9</ele>
        <time>2023-07-19T07:29:06Z</time>
      </trkpt>
      <trkpt lat="49.83731" lon="2.47307">
        <ele>88.8</ele>
        <time>2023-07-19T07:29:07Z</time>
      </trkpt>
      <trkpt lat="49.8373" lon="2.47308">
        <ele>88.8</ele>
        <time>2023-07-19T07:29:08Z</time>
      </trkpt>
      <trkpt lat="49.8373" lon="2.4731">
        <ele>88.8</ele>
        <time>2023-07-19T07:29:09Z</time>
      </trkpt>
      <trkpt lat="49.8373" lon="2.47312">
        <ele>88.7</ele>
        <time>2023-07-19T07:29:10Z</time>
      </trkpt>
      <trkpt lat="49.8373" lon="2.47314">
        <ele>88.7</ele>
        <time>2023-07-19T07:29:11Z</time>
      </trkpt>
      <trkpt lat="49.83729" lon="2.47317">
        <ele>88.6</ele>
        <time>2023-07-19T07:29:12Z</time>
      </trkpt>
      <trkpt lat="49.83729" lon="2.47321">
        <ele>88.6</ele>
        <time>2023-07-19T07:29:14Z</time>
      </trkpt>
      <trkpt lat="49.83729" lon="2.47323">
        <ele>88.5</ele>
        <time>2023-07-19T07:29:15Z</time>
      </trkpt>
      <trkpt lat="49.83728" lon="2.47326">
        <ele>88.5</ele>
        <time>2023-07-19T07:29:16Z</time>
      </trkpt>
      <trkpt lat="49.83728" lon="2.47329">
        <ele>88.4</ele>
        <time>2023-07-19T07:29:18Z</time>
      </trkpt>
      <trkpt lat="49.83728" lon="2.47332">
        <ele>88.4</ele>
        <time>2023-07-19T07:29:19Z</time>
      </trkpt>
      <trkpt lat="49.83728" lon="2.47334">
        <ele>88.3</ele>
        <time>2023-07-19T07:29:20Z</time>
      </trkpt>
      <trkpt lat="49.83727" lon="2.47339">
        <ele>88.3</ele>
        <time>2023-07-19T07:29:21Z</time>
      </trkpt>
      <trkpt lat="49.83727" lon="2.47341">
        <ele>88.2</ele>
        <time>2023-07-19T07:29:22Z</time>
      </trkpt>
      <trkpt lat="49.83727" lon="2.47343">
        <ele>88.2</ele>
        <time>2023-07-19T07:29:24Z</time>
      </trkpt>
      <trkpt lat="49.83727" lon="2.47345">
        <ele>88.2</ele>
        <time>2023-07-19T07:29:25Z</time>
      </trkpt>
      <trkpt lat="49.83727" lon="2.47348">
        <ele>88.1</ele>
        <time>2023-07-19T07:29:26Z</time>
      </trkpt>
      <trkpt lat="49.83727" lon="2.47349">
        <ele>88.1</ele>
        <time>2023-07-19T07:29:28Z</time>
      </trkpt>
      <trkpt lat="49.83726" lon="2.4735">
        <ele>88.1</ele>
        <time>2023-07-19T07:29:29Z</time>
      </trkpt>
      <trkpt lat="49.83726" lon="2.47354">
        <ele>88</ele>
        <time>2023-07-19T07:29:30Z</time>
      </trkpt>
      <trkpt lat="49.83726" lon="2.47355">
        <ele>88</ele>
        <time>2023-07-19T07:29:32Z</time>
      </trkpt>
      <trkpt lat="49.83725" lon="2.47357">
        <ele>87.9</ele>
        <time>2023-07-19T07:29:33Z</time>
      </trkpt>
      <trkpt lat="49.83725" lon="2.47358">
        <ele>87.9</ele>
        <time>2023-07-19T07:29:34Z</time>
      </trkpt>
      <trkpt lat="49.83725" lon="2.4736">
        <ele>87.9</ele>
        <time>2023-07-19T07:29:35Z</time>
      </trkpt>
      <trkpt lat="49.83724" lon="2.47363">
        <ele>87.8</ele>
        <time>2023-07-19T07:29:36Z</time>
      </trkpt>
      <trkpt lat="49.83724" lon="2.47365">
        <ele>87.7</ele>
        <time>2023-07-19T07:29:38Z</time>
      </trkpt>
      <trkpt lat="49.83723" lon="2.47366">
        <ele>87.7</ele>
        <time>2023-07-19T07:29:39Z</time>
      </trkpt>
      <trkpt lat="49.83723" lon="2.47368">
        <ele>87.7</ele>
        <time>2023-07-19T07:29:40Z</time>
      </trkpt>
      <trkpt lat="49.83723" lon="2.4737">
        <ele>87.6</ele>
        <time>2023-07-19T07:29:41Z</time>
      </trkpt>
      <trkpt lat="49.83722" lon="2.47371">
        <ele>87.6</ele>
        <time>2023-07-19T07:29:42Z</time>
      </trkpt>
      <trkpt lat="49.83722" lon="2.47374">
        <ele>87.5</ele>
        <time>2023-07-19T07:29:43Z</time>
      </trkpt>
      <trkpt lat="49.83721" lon="2.47376">
        <ele>87.5</ele>
        <time>2023-07-19T07:29:44Z</time>
      </trkpt>
      <trkpt lat="49.83721" lon="2.47379">
        <ele>87.4</ele>
        <time>2023-07-19T07:29:45Z</time>
      </trkpt>
      <trkpt lat="49.8372" lon="2.47381">
        <ele>87.4</ele>
        <time>2023-07-19T07:29:46Z</time>
      </trkpt>
      <trkpt lat="49.83719" lon="2.47385">
        <ele>87.3</ele>
        <time>2023-07-19T07:29:48Z</time>
      </trkpt>
      <trkpt lat="49.83719" lon="2.47388">
        <ele>87.2</ele>
        <time>2023-07-19T07:29:49Z</time>
      </trkpt>
      <trkpt lat="49.83718" lon="2.4739">
        <ele>87.2</ele>
        <time>2023-07-19T07:29:51Z</time>
      </trkpt>
      <trkpt lat="49.83718" lon="2.47392">
        <ele>87.1</ele>
        <time>2023-07-19T07:29:52Z</time>
      </trkpt>
      <trkpt lat="49.83717" lon="2.47395">
        <ele>87.1</ele>
        <time>2023-07-19T07:29:53Z</time>
      </trkpt>
      <trkpt lat="49.83717" lon="2.47396">
        <ele>87.1</ele>
        <time>2023-07-19T07:29:54Z</time>
      </trkpt>
      <trkpt lat="49.83716" lon="2.47399">
        <ele>87</ele>
        <time>2023-07-19T07:29:55Z</time>
      </trkpt>
      <trkpt lat="49.83716" lon="2.474">
        <ele>87</ele>
        <time>2023-07-19T07:29:56Z</time>
      </trkpt>
      <trkpt lat="49.83716" lon="2.47402">
        <ele>87</ele>
        <time>2023-07-19T07:29:57Z</time>
      </trkpt>
      <trkpt lat="49.83715" lon="2.47403">
        <ele>87</ele>
        <time>2023-07-19T07:29:58Z</time>
      </trkpt>
      <trkpt lat="49.83715" lon="2.47406">
        <ele>86.9</ele>
        <time>2023-07-19T07:30:00Z</time>
      </trkpt>
      <trkpt lat="49.83714" lon="2.47408">
        <ele>86.9</ele>
        <time>2023-07-19T07:30:01Z</time>
      </trkpt>
      <trkpt lat="49.83713" lon="2.47411">
        <ele>86.8</ele>
        <time>2023-07-19T07:30:03Z</time>
      </trkpt>
      <trkpt lat="49.83713" lon="2.47412">
        <ele>86.8</ele>
        <time>2023-07-19T07:30:04Z</time>
      </trkpt>
      <trkpt lat="49.83713" lon="2.47414">
        <ele>86.8</ele>
        <time>2023-07-19T07:30:05Z</time>
      </trkpt>
      <trkpt lat="49.83712" lon="2.47417">
        <ele>86.7</ele>
        <time>2023-07-19T07:30:06Z</time>
      </trkpt>
      <trkpt lat="49.83712" lon="2.47418">
        <ele>86.7</ele>
        <time>2023-07-19T07:30:07Z</time>
      </trkpt>
      <trkpt lat="49.83712" lon="2.4742">
        <ele>86.7</ele>
        <time>2023-07-19T07:30:08Z</time>
      </trkpt>
      <trkpt lat="49.83711" lon="2.47422">
        <ele>86.6</ele>
        <time>2023-07-19T07:30:10Z</time>
      </trkpt>
      <trkpt lat="49.83711" lon="2.47424">
        <ele>86.6</ele>
        <time>2023-07-19T07:30:11Z</time>
      </trkpt>
      <trkpt lat="49.83711" lon="2.47425">
        <ele>86.6</ele>
        <time>2023-07-19T07:30:12Z</time>
      </trkpt>
      <trkpt lat="49.83711" lon="2.47427">
        <ele>86.5</ele>
        <time>2023-07-19T07:30:13Z</time>
      </trkpt>
      <trkpt lat="49.83711" lon="2.47428">
        <ele>86.5</ele>
        <time>2023-07-19T07:30:14Z</time>
      </trkpt>
      <trkpt lat="49.83711" lon="2.47429">
        <ele>86.5</ele>
        <time>2023-07-19T07:30:16Z</time>
      </trkpt>
      <trkpt lat="49.83711" lon="2.4743">
        <ele>86.5</ele>
        <time>2023-07-19T07:30:17Z</time>
      </trkpt>
      <trkpt lat="49.8371" lon="2.47431">
        <ele>86.5</ele>
        <time>2023-07-19T07:30:18Z</time>
      </trkpt>
      <trkpt lat="49.8371" lon="2.47433">
        <ele>86.4</ele>
        <time>2023-07-19T07:30:19Z</time>
      </trkpt>
      <trkpt lat="49.8371" lon="2.47434">
        <ele>86.4</ele>
        <time>2023-07-19T07:30:20Z</time>
      </trkpt>
      <trkpt lat="49.8371" lon="2.47438">
        <ele>86.3</ele>
        <time>2023-07-19T07:30:22Z</time>
      </trkpt>
      <trkpt lat="49.8371" lon="2.47439">
        <ele>86.3</ele>
        <time>2023-07-19T07:30:23Z</time>
      </trkpt>
      <trkpt lat="49.8371" lon="2.47441">
        <ele>86.2</ele>
        <time>2023-07-19T07:30:24Z</time>
      </trkpt>
      <trkpt lat="49.8371" lon="2.47442">
        <ele>86.2</ele>
        <time>2023-07-19T07:30:25Z</time>
      </trkpt>
      <trkpt lat="49.83709" lon="2.47445">
        <ele>86.1</ele>
        <time>2023-07-19T07:30:27Z</time>
      </trkpt>
      <trkpt lat="49.83709" lon="2.47448">
        <ele>86.1</ele>
        <time>2023-07-19T07:30:28Z</time>
      </trkpt>
      <trkpt lat="49.83708" lon="2.4745">
        <ele>86</ele>
        <time>2023-07-19T07:30:29Z</time>
      </trkpt>
      <trkpt lat="49.83708" lon="2.47452">
        <ele>86</ele>
        <time>2023-07-19T07:30:30Z</time>
      </trkpt>
      <trkpt lat="49.83708" lon="2.47455">
        <ele>85.9</ele>
        <time>2023-07-19T07:30:31Z</time>
      </trkpt>
      <trkpt lat="49.83708" lon="2.47458">
        <ele>85.8</ele>
        <time>2023-07-19T07:30:32Z</time>
      </trkpt>
      <trkpt lat="49.83707" lon="2.47461">
        <ele>85.8</ele>
        <time>2023-07-19T07:30:34Z</time>
      </trkpt>
      <trkpt lat="49.83706" lon="2.47465">
        <ele>85.7</ele>
        <time>2023-07-19T07:30:35Z</time>
      </trkpt>
      <trkpt lat="49.83705" lon="2.47469">
        <ele>85.6</ele>
        <time>2023-07-19T07:30:37Z</time>
      </trkpt>
      <trkpt lat="49.83705" lon="2.47471">
        <ele>85.5</ele>
        <time>2023-07-19T07:30:38Z</time>
      </trkpt>
      <trkpt lat="49.83705" lon="2.47474">
        <ele>85.5</ele>
        <time>2023-07-19T07:30:39Z</time>
      </trkpt>
      <trkpt lat="49.83704" lon="2.47476">
        <ele>85.4</ele>
        <time>2023-07-19T07:30:40Z</time>
      </trkpt>
      <trkpt lat="49.83704" lon="2.47478">
        <ele>85.4</ele>
        <time>2023-07-19T07:30:41Z</time>
      </trkpt>
      <trkpt lat="49.83703" lon="2.4748">
        <ele>85.3</ele>
        <time>2023-07-19T07:30:42Z</time>
      </trkpt>
      <trkpt lat="49.83703" lon="2.47483">
        <ele>85.2</ele>
        <time>2023-07-19T07:30:44Z</time>
      </trkpt>
      <trkpt lat="49.83702" lon="2.47485">
        <ele>85.2</ele>
        <time>2023-07-19T07:30:45Z</time>
      </trkpt>
      <trkpt lat="49.83702" lon="2.47487">
        <ele>85.1</ele>
        <time>2023-07-19T07:30:47Z</time>
      </trkpt>
      <trkpt lat="49.83702" lon="2.4749">
        <ele>85.1</ele>
        <time>2023-07-19T07:30:48Z</time>
      </trkpt>
      <trkpt lat="49.83701" lon="2.47492">
        <ele>85</ele>
        <time>2023-07-19T07:30:49Z</time>
      </trkpt>
      <trkpt lat="49.83701" lon="2.47494">
        <ele>84.9</ele>
        <time>2023-07-19T07:30:50Z</time>
      </trkpt>
      <trkpt lat="49.83701" lon="2.47497">
        <ele>84.9</ele>
        <time>2023-07-19T07:30:51Z</time>
      </trkpt>
      <trkpt lat="49.837" lon="2.47499">
        <ele>84.8</ele>
        <time>2023-07-19T07:30:52Z</time>
      </trkpt>
      <trkpt lat="49.837" lon="2.47505">
        <ele>84.7</ele>
        <time>2023-07-19T07:30:54Z</time>
      </trkpt>
      <trkpt lat="49.837" lon="2.47507">
        <ele>84.6</ele>
        <time>2023-07-19T07:30:56Z</time>
      </trkpt>
      <trkpt lat="49.83699" lon="2.47508">
        <ele>84.6</ele>
        <time>2023-07-19T07:30:57Z</time>
      </trkpt>
      <trkpt lat="49.83699" lon="2.4751">
        <ele>84.6</ele>
        <time>2023-07-19T07:30:58Z</time>
      </trkpt>
      <trkpt lat="49.83699" lon="2.47514">
        <ele>84.4</ele>
        <time>2023-07-19T07:30:59Z</time>
      </trkpt>
      <trkpt lat="49.83698" lon="2.47515">
        <ele>84.4</ele>
        <time>2023-07-19T07:31:00Z</time>
      </trkpt>
      <trkpt lat="49.83698" lon="2.47517">
        <ele>84.3</ele>
        <time>2023-07-19T07:31:01Z</time>
      </trkpt>
      <trkpt lat="49.83698" lon="2.47519">
        <ele>84.3</ele>
        <time>2023-07-19T07:31:02Z</time>
      </trkpt>
      <trkpt lat="49.83697" lon="2.47521">
        <ele>84.2</ele>
        <time>2023-07-19T07:31:04Z</time>
      </trkpt>
      <trkpt lat="49.83697" lon="2.47525">
        <ele>84.1</ele>
        <time>2023-07-19T07:31:05Z</time>
      </trkpt>
      <trkpt lat="49.83697" lon="2.47527">
        <ele>84.1</ele>
        <time>2023-07-19T07:31:07Z</time>
      </trkpt>
      <trkpt lat="49.83697" lon="2.47529">
        <ele>84</ele>
        <time>2023-07-19T07:31:08Z</time>
      </trkpt>
      <trkpt lat="49.83696" lon="2.47531">
        <ele>84</ele>
        <time>2023-07-19T07:31:09Z</time>
      </trkpt>
      <trkpt lat="49.83696" lon="2.47533">
        <ele>83.9</ele>
        <time>2023-07-19T07:31:10Z</time>
      </trkpt>
      <trkpt lat="49.83696" lon="2.47535">
        <ele>83.8</ele>
        <time>2023-07-19T07:31:11Z</time>
      </trkpt>
      <trkpt lat="49.83695" lon="2.47536">
        <ele>83.8</ele>
        <time>2023-07-19T07:31:12Z</time>
      </trkpt>
      <trkpt lat="49.83695" lon="2.47538">
        <ele>83.7</ele>
        <time>2023-07-19T07:31:13Z</time>
      </trkpt>
      <trkpt lat="49.83695" lon="2.47539">
        <ele>83.7</ele>
        <time>2023-07-19T07:31:14Z</time>
      </trkpt>
      <trkpt lat="49.83695" lon="2.47543">
        <ele>83.6</ele>
        <time>2023-07-19T07:31:16Z</time>
      </trkpt>
      <trkpt lat="49.83694" lon="2.47544">
        <ele>83.6</ele>
        <time>2023-07-19T07:31:17Z</time>
      </trkpt>
      <trkpt lat="49.83694" lon="2.47547">
        <ele>83.5</ele>
        <time>2023-07-19T07:31:19Z</time>
      </trkpt>
      <trkpt lat="49.83693" lon="2.47548">
        <ele>83.4</ele>
        <time>2023-07-19T07:31:20Z</time>
      </trkpt>
      <trkpt lat="49.83693" lon="2.4755">
        <ele>83.4</ele>
        <time>2023-07-19T07:31:21Z</time>
      </trkpt>
      <trkpt lat="49.83693" lon="2.47552">
        <ele>83.3</ele>
        <time>2023-07-19T07:31:22Z</time>
      </trkpt>
      <trkpt lat="49.83692" lon="2.47553">
        <ele>83.2</ele>
        <time>2023-07-19T07:31:23Z</time>
      </trkpt>
      <trkpt lat="49.83692" lon="2.47555">
        <ele>83.2</ele>
        <time>2023-07-19T07:31:24Z</time>
      </trkpt>
      <trkpt lat="49.83691" lon="2.47557">
        <ele>83.1</ele>
        <time>2023-07-19T07:31:25Z</time>
      </trkpt>
      <trkpt lat="49.83691" lon="2.47559">
        <ele>83.1</ele>
        <time>2023-07-19T07:31:26Z</time>
      </trkpt>
      <trkpt lat="49.83691" lon="2.47561">
        <ele>83</ele>
        <time>2023-07-19T07:31:28Z</time>
      </trkpt>
      <trkpt lat="49.8369" lon="2.47563">
        <ele>82.9</ele>
        <time>2023-07-19T07:31:29Z</time>
      </trkpt>
      <trkpt lat="49.8369" lon="2.47565">
        <ele>82.9</ele>
        <time>2023-07-19T07:31:30Z</time>
      </trkpt>
      <trkpt lat="49.83689" lon="2.47568">
        <ele>82.7</ele>
        <time>2023-07-19T07:31:31Z</time>
      </trkpt>
      <trkpt lat="49.83689" lon="2.47571">
        <ele>82.6</ele>
        <time>2023-07-19T07:31:33Z</time>
      </trkpt>
      <trkpt lat="49.83689" lon="2.47572">
        <ele>82.6</ele>
        <time>2023-07-19T07:31:34Z</time>
      </trkpt>
      <trkpt lat="49.83689" lon="2.47574">
        <ele>82.6</ele>
        <time>2023-07-19T07:31:35Z</time>
      </trkpt>
      <trkpt lat="49.83688" lon="2.47577">
        <ele>82.5</ele>
        <time>2023-07-19T07:31:36Z</time>
      </trkpt>
      <trkpt lat="49.83688" lon="2.47579">
        <ele>82.4</ele>
        <time>2023-07-19T07:31:37Z</time>
      </trkpt>
      <trkpt lat="49.83688" lon="2.47582">
        <ele>82.3</ele>
        <time>2023-07-19T07:31:38Z</time>
      </trkpt>
      <trkpt lat="49.83688" lon="2.47584">
        <ele>82.2</ele>
        <time>2023-07-19T07:31:39Z</time>
      </trkpt>
      <trkpt lat="49.83688" lon="2.47585">
        <ele>82.1</ele>
        <time>2023-07-19T07:31:40Z</time>
      </trkpt>
      <trkpt lat="49.83687" lon="2.47587">
        <ele>82.1</ele>
        <time>2023-07-19T07:31:42Z</time>
      </trkpt>
      <trkpt lat="49.83687" lon="2.47588">
        <ele>82</ele>
        <time>2023-07-19T07:31:43Z</time>
      </trkpt>
      <trkpt lat="49.83686" lon="2.47593">
        <ele>81.9</ele>
        <time>2023-07-19T07:31:45Z</time>
      </trkpt>
      <trkpt lat="49.83686" lon="2.47594">
        <ele>81.8</ele>
        <time>2023-07-19T07:31:46Z</time>
      </trkpt>
      <trkpt lat="49.83686" lon="2.47596">
        <ele>81.7</ele>
        <time>2023-07-19T07:31:47Z</time>
      </trkpt>
      <trkpt lat="49.83686" lon="2.47598">
        <ele>81.7</ele>
        <time>2023-07-19T07:31:48Z</time>
      </trkpt>
      <trkpt lat="49.83685" lon="2.47602">
        <ele>81.5</ele>
        <time>2023-07-19T07:31:50Z</time>
      </trkpt>
      <trkpt lat="49.83685" lon="2.47603">
        <ele>81.5</ele>
        <time>2023-07-19T07:31:51Z</time>
      </trkpt>
      <trkpt lat="49.83684" lon="2.47605">
        <ele>81.4</ele>
        <time>2023-07-19T07:31:53Z</time>
      </trkpt>
      <trkpt lat="49.83684" lon="2.47607">
        <ele>81.4</ele>
        <time>2023-07-19T07:31:54Z</time>
      </trkpt>
      <trkpt lat="49.83683" lon="2.47609">
        <ele>81.3</ele>
        <time>2023-07-19T07:31:55Z</time>
      </trkpt>
      <trkpt lat="49.83683" lon="2.47611">
        <ele>81.2</ele>
        <time>2023-07-19T07:31:56Z</time>
      </trkpt>
      <trkpt lat="49.83683" lon="2.47613">
        <ele>81.1</ele>
        <time>2023-07-19T07:31:57Z</time>
      </trkpt>
      <trkpt lat="49.83682" lon="2.47615">
        <ele>81</ele>
        <time>2023-07-19T07:31:58Z</time>
      </trkpt>
      <trkpt lat="49.83682" lon="2.47616">
        <ele>81</ele>
        <time>2023-07-19T07:31:59Z</time>
      </trkpt>
      <trkpt lat="49.83682" lon="2.47617">
        <ele>81</ele>
        <time>2023-07-19T07:32:00Z</time>
      </trkpt>
      <trkpt lat="49.83681" lon="2.47618">
        <ele>80.9</ele>
        <time>2023-07-19T07:32:01Z</time>
      </trkpt>
      <trkpt lat="49.83681" lon="2.47619">
        <ele>80.9</ele>
        <time>2023-07-19T07:32:03Z</time>
      </trkpt>
      <trkpt lat="49.8368" lon="2.47619">
        <ele>80.9</ele>
        <time>2023-07-19T07:32:04Z</time>
      </trkpt>
      <trkpt lat="49.8368" lon="2.4762">
        <ele>80.8</ele>
        <time>2023-07-19T07:32:05Z</time>
      </trkpt>
      <trkpt lat="49.8368" lon="2.47622">
        <ele>80.8</ele>
        <time>2023-07-19T07:32:06Z</time>
      </trkpt>
      <trkpt lat="49.8368" lon="2.47624">
        <ele>80.7</ele>
        <time>2023-07-19T07:32:07Z</time>
      </trkpt>
      <trkpt lat="49.8368" lon="2.47626">
        <ele>80.7</ele>
        <time>2023-07-19T07:32:09Z</time>
      </trkpt>
      <trkpt lat="49.8368" lon="2.47626">
        <ele>80.6</ele>
        <time>2023-07-19T07:32:10Z</time>
      </trkpt>
      <trkpt lat="49.8368" lon="2.47628">
        <ele>80.6</ele>
        <time>2023-07-19T07:32:11Z</time>
      </trkpt>
      <trkpt lat="49.8368" lon="2.4763">
        <ele>80.5</ele>
        <time>2023-07-19T07:32:12Z</time>
      </trkpt>
      <trkpt lat="49.83679" lon="2.47631">
        <ele>80.5</ele>
        <time>2023-07-19T07:32:13Z</time>
      </trkpt>
      <trkpt lat="49.83679" lon="2.47634">
        <ele>80.4</ele>
        <time>2023-07-19T07:32:14Z</time>
      </trkpt>
      <trkpt lat="49.83679" lon="2.47635">
        <ele>80.4</ele>
        <time>2023-07-19T07:32:15Z</time>
      </trkpt>
      <trkpt lat="49.83679" lon="2.47637">
        <ele>80.3</ele>
        <time>2023-07-19T07:32:16Z</time>
      </trkpt>
      <trkpt lat="49.83679" lon="2.4764">
        <ele>80.2</ele>
        <time>2023-07-19T07:32:18Z</time>
      </trkpt>
      <trkpt lat="49.83678" lon="2.47645">
        <ele>80.1</ele>
        <time>2023-07-19T07:32:19Z</time>
      </trkpt>
      <trkpt lat="49.83678" lon="2.47646">
        <ele>80.1</ele>
        <time>2023-07-19T07:32:20Z</time>
      </trkpt>
      <trkpt lat="49.83678" lon="2.47649">
        <ele>80</ele>
        <time>2023-07-19T07:32:21Z</time>
      </trkpt>
      <trkpt lat="49.83678" lon="2.47652">
        <ele>80</ele>
        <time>2023-07-19T07:32:22Z</time>
      </trkpt>
      <trkpt lat="49.83677" lon="2.47653">
        <ele>79.9</ele>
        <time>2023-07-19T07:32:23Z</time>
      </trkpt>
      <trkpt lat="49.83677" lon="2.47655">
        <ele>79.9</ele>
        <time>2023-07-19T07:32:24Z</time>
      </trkpt>
      <trkpt lat="49.83677" lon="2.47657">
        <ele>79.9</ele>
        <time>2023-07-19T07:32:26Z</time>
      </trkpt>
      <trkpt lat="49.83676" lon="2.47659">
        <ele>79.8</ele>
        <time>2023-07-19T07:32:27Z</time>
      </trkpt>
      <trkpt lat="49.83676" lon="2.47662">
        <ele>79.8</ele>
        <time>2023-07-19T07:32:28Z</time>
      </trkpt>
      <trkpt lat="49.83676" lon="2.47665">
        <ele>79.7</ele>
        <time>2023-07-19T07:32:29Z</time>
      </trkpt>
      <trkpt lat="49.83676" lon="2.47666">
        <ele>79.7</ele>
        <time>2023-07-19T07:32:31Z</time>
      </trkpt>
      <trkpt lat="49.83675" lon="2.47668">
        <ele>79.7</ele>
        <time>2023-07-19T07:32:32Z</time>
      </trkpt>
      <trkpt lat="49.83675" lon="2.47669">
        <ele>79.7</ele>
        <time>2023-07-19T07:32:33Z</time>
      </trkpt>
      <trkpt lat="49.83674" lon="2.47671">
        <ele>79.6</ele>
        <time>2023-07-19T07:32:34Z</time>
      </trkpt>
      <trkpt lat="49.83674" lon="2.47671">
        <ele>79.6</ele>
        <time>2023-07-19T07:32:36Z</time>
      </trkpt>
      <trkpt lat="49.83673" lon="2.47672">
        <ele>79.6</ele>
        <time>2023-07-19T07:32:37Z</time>
      </trkpt>
      <trkpt lat="49.83673" lon="2.47675">
        <ele>79.6</ele>
        <time>2023-07-19T07:32:38Z</time>
      </trkpt>
      <trkpt lat="49.83673" lon="2.47676">
        <ele>79.6</ele>
        <time>2023-07-19T07:32:39Z</time>
      </trkpt>
      <trkpt lat="49.83672" lon="2.47678">
        <ele>79.6</ele>
        <time>2023-07-19T07:32:40Z</time>
      </trkpt>
      <trkpt lat="49.83672" lon="2.4768">
        <ele>79.5</ele>
        <time>2023-07-19T07:32:42Z</time>
      </trkpt>
      <trkpt lat="49.83671" lon="2.47681">
        <ele>79.5</ele>
        <time>2023-07-19T07:32:43Z</time>
      </trkpt>
      <trkpt lat="49.83671" lon="2.47682">
        <ele>79.5</ele>
        <time>2023-07-19T07:32:44Z</time>
      </trkpt>
      <trkpt lat="49.8367" lon="2.47684">
        <ele>79.5</ele>
        <time>2023-07-19T07:32:45Z</time>
      </trkpt>
      <trkpt lat="49.8367" lon="2.47685">
        <ele>79.5</ele>
        <time>2023-07-19T07:32:46Z</time>
      </trkpt>
      <trkpt lat="49.8367" lon="2.47687">
        <ele>79.5</ele>
        <time>2023-07-19T07:32:48Z</time>
      </trkpt>
      <trkpt lat="49.83669" lon="2.47689">
        <ele>79.5</ele>
        <time>2023-07-19T07:32:49Z</time>
      </trkpt>
      <trkpt lat="49.83669" lon="2.47691">
        <ele>79.4</ele>
        <time>2023-07-19T07:32:50Z</time>
      </trkpt>
      <trkpt lat="49.83669" lon="2.47692">
        <ele>79.4</ele>
        <time>2023-07-19T07:32:51Z</time>
      </trkpt>
      <trkpt lat="49.83668" lon="2.47694">
        <ele>79.4</ele>
        <time>2023-07-19T07:32:52Z</time>
      </trkpt>
      <trkpt lat="49.83668" lon="2.47696">
        <ele>79.4</ele>
        <time>2023-07-19T07:32:53Z</time>
      </trkpt>
      <trkpt lat="49.83668" lon="2.47698">
        <ele>79.4</ele>
        <time>2023-07-19T07:32:55Z</time>
      </trkpt>
      <trkpt lat="49.83668" lon="2.477">
        <ele>79.4</ele>
        <time>2023-07-19T07:32:56Z</time>
      </trkpt>
      <trkpt lat="49.83667" lon="2.47702">
        <ele>79.4</ele>
        <time>2023-07-19T07:32:57Z</time>
      </trkpt>
      <trkpt lat="49.83667" lon="2.47703">
        <ele>79.4</ele>
        <time>2023-07-19T07:32:58Z</time>
      </trkpt>
      <trkpt lat="49.83667" lon="2.47704">
        <ele>79.4</ele>
        <time>2023-07-19T07:32:59Z</time>
      </trkpt>
      <trkpt lat="49.83667" lon="2.47706">
        <ele>79.4</ele>
        <time>2023-07-19T07:33:01Z</time>
      </trkpt>
      <trkpt lat="49.83667" lon="2.47708">
        <ele>79.5</ele>
        <time>2023-07-19T07:33:02Z</time>
      </trkpt>
      <trkpt lat="49.83666" lon="2.47711">
        <ele>79.5</ele>
        <time>2023-07-19T07:33:03Z</time>
      </trkpt>
      <trkpt lat="49.83666" lon="2.47713">
        <ele>79.5</ele>
        <time>2023-07-19T07:33:04Z</time>
      </trkpt>
      <trkpt lat="49.83666" lon="2.47714">
        <ele>79.5</ele>
        <time>2023-07-19T07:33:05Z</time>
      </trkpt>
      <trkpt lat="49.83666" lon="2.47716">
        <ele>79.5</ele>
        <time>2023-07-19T07:33:06Z</time>
      </trkpt>
      <trkpt lat="49.83665" lon="2.47718">
        <ele>79.5</ele>
        <time>2023-07-19T07:33:07Z</time>
      </trkpt>
      <trkpt lat="49.83665" lon="2.4772">
        <ele>79.6</ele>
        <time>2023-07-19T07:33:09Z</time>
      </trkpt>
      <trkpt lat="49.83665" lon="2.47723">
        <ele>79.6</ele>
        <time>2023-07-19T07:33:10Z</time>
      </trkpt>
      <trkpt lat="49.83664" lon="2.47725">
        <ele>79.6</ele>
        <time>2023-07-19T07:33:11Z</time>
      </trkpt>
      <trkpt lat="49.83664" lon="2.47726">
        <ele>79.7</ele>
        <time>2023-07-19T07:33:12Z</time>
      </trkpt>
      <trkpt lat="49.83664" lon="2.47728">
        <ele>79.7</ele>
        <time>2023-07-19T07:33:13Z</time>
      </trkpt>
      <trkpt lat="49.83663" lon="2.47729">
        <ele>79.7</ele>
        <time>2023-07-19T07:33:14Z</time>
      </trkpt>
      <trkpt lat="49.83663" lon="2.47731">
        <ele>79.8</ele>
        <time>2023-07-19T07:33:16Z</time>
      </trkpt>
      <trkpt lat="49.83663" lon="2.47734">
        <ele>79.8</ele>
        <time>2023-07-19T07:33:17Z</time>
      </trkpt>
      <trkpt lat="49.83662" lon="2.47736">
        <ele>79.8</ele>
        <time>2023-07-19T07:33:18Z</time>
      </trkpt>
      <trkpt lat="49.83662" lon="2.47737">
        <ele>79.9</ele>
        <time>2023-07-19T07:33:19Z</time>
      </trkpt>
      <trkpt lat="49.83662" lon="2.4774">
        <ele>79.9</ele>
        <time>2023-07-19T07:33:20Z</time>
      </trkpt>
      <trkpt lat="49.83661" lon="2.47742">
        <ele>80</ele>
        <time>2023-07-19T07:33:21Z</time>
      </trkpt>
      <trkpt lat="49.83661" lon="2.47743">
        <ele>80</ele>
        <time>2023-07-19T07:33:23Z</time>
      </trkpt>
      <trkpt lat="49.83661" lon="2.47745">
        <ele>80.1</ele>
        <time>2023-07-19T07:33:24Z</time>
      </trkpt>
      <trkpt lat="49.8366" lon="2.47746">
        <ele>80.1</ele>
        <time>2023-07-19T07:33:25Z</time>
      </trkpt>
      <trkpt lat="49.8366" lon="2.47748">
        <ele>80.2</ele>
        <time>2023-07-19T07:33:26Z</time>
      </trkpt>
      <trkpt lat="49.8366" lon="2.47749">
        <ele>80.2</ele>
        <time>2023-07-19T07:33:27Z</time>
      </trkpt>
      <trkpt lat="49.83659" lon="2.47752">
        <ele>80.3</ele>
        <time>2023-07-19T07:33:29Z</time>
      </trkpt>
      <trkpt lat="49.83659" lon="2.47754">
        <ele>80.4</ele>
        <time>2023-07-19T07:33:30Z</time>
      </trkpt>
      <trkpt lat="49.83658" lon="2.47757">
        <ele>80.5</ele>
        <time>2023-07-19T07:33:31Z</time>
      </trkpt>
      <trkpt lat="49.83658" lon="2.47759">
        <ele>80.6</ele>
        <time>2023-07-19T07:33:32Z</time>
      </trkpt>
      <trkpt lat="49.83657" lon="2.47762">
        <ele>80.7</ele>
        <time>2023-07-19T07:33:34Z</time>
      </trkpt>
      <trkpt lat="49.83657" lon="2.47765">
        <ele>80.8</ele>
        <time>2023-07-19T07:33:35Z</time>
      </trkpt>
      <trkpt lat="49.83656" lon="2.47767">
        <ele>80.9</ele>
        <time>2023-07-19T07:33:36Z</time>
      </trkpt>
      <trkpt lat="49.83656" lon="2.47771">
        <ele>81</ele>
        <time>2023-07-19T07:33:37Z</time>
      </trkpt>
      <trkpt lat="49.83656" lon="2.47772">
        <ele>81</ele>
        <time>2023-07-19T07:33:38Z</time>
      </trkpt>
      <trkpt lat="49.83656" lon="2.47773">
        <ele>81.1</ele>
        <time>2023-07-19T07:33:39Z</time>
      </trkpt>
      <trkpt lat="49.83655" lon="2.47776">
        <ele>81.2</ele>
        <time>2023-07-19T07:33:41Z</time>
      </trkpt>
      <trkpt lat="49.83655" lon="2.47777">
        <ele>81.2</ele>
        <time>2023-07-19T07:33:42Z</time>
      </trkpt>
      <trkpt lat="49.83655" lon="2.47779">
        <ele>81.3</ele>
        <time>2023-07-19T07:33:43Z</time>
      </trkpt>
      <trkpt lat="49.83655" lon="2.47781">
        <ele>81.4</ele>
        <time>2023-07-19T07:33:44Z</time>
      </trkpt>
      <trkpt lat="49.83655" lon="2.47783">
        <ele>81.4</ele>
        <time>2023-07-19T07:33:46Z</time>
      </trkpt>
      <trkpt lat="49.83654" lon="2.47785">
        <ele>81.5</ele>
        <time>2023-07-19T07:33:47Z</time>
      </trkpt>
      <trkpt lat="49.83654" lon="2.47786">
        <ele>81.5</ele>
        <time>2023-07-19T07:33:48Z</time>
      </trkpt>
      <trkpt lat="49.83654" lon="2.47788">
        <ele>81.6</ele>
        <time>2023-07-19T07:33:49Z</time>
      </trkpt>
      <trkpt lat="49.83654" lon="2.4779">
        <ele>81.6</ele>
        <time>2023-07-19T07:33:50Z</time>
      </trkpt>
      <trkpt lat="49.83654" lon="2.47791">
        <ele>81.7</ele>
        <time>2023-07-19T07:33:51Z</time>
      </trkpt>
      <trkpt lat="49.83654" lon="2.47792">
        <ele>81.7</ele>
        <time>2023-07-19T07:33:53Z</time>
      </trkpt>
      <trkpt lat="49.83653" lon="2.47794">
        <ele>81.8</ele>
        <time>2023-07-19T07:33:54Z</time>
      </trkpt>
      <trkpt lat="49.83653" lon="2.47796">
        <ele>81.8</ele>
        <time>2023-07-19T07:33:55Z</time>
      </trkpt>
      <trkpt lat="49.83653" lon="2.47797">
        <ele>81.9</ele>
        <time>2023-07-19T07:33:56Z</time>
      </trkpt>
      <trkpt lat="49.83653" lon="2.478">
        <ele>81.9</ele>
        <time>2023-07-19T07:33:57Z</time>
      </trkpt>
      <trkpt lat="49.83653" lon="2.47802">
        <ele>82</ele>
        <time>2023-07-19T07:33:58Z</time>
      </trkpt>
      <trkpt lat="49.83653" lon="2.47803">
        <ele>82</ele>
        <time>2023-07-19T07:34:00Z</time>
      </trkpt>
      <trkpt lat="49.83653" lon="2.47805">
        <ele>82</ele>
        <time>2023-07-19T07:34:01Z</time>
      </trkpt>
      <trkpt lat="49.83653" lon="2.47806">
        <ele>82.1</ele>
        <time>2023-07-19T07:34:02Z</time>
      </trkpt>
      <trkpt lat="49.83653" lon="2.47808">
        <ele>82.1</ele>
        <time>2023-07-19T07:34:03Z</time>
      </trkpt>
      <trkpt lat="49.83653" lon="2.47811">
        <ele>82.2</ele>
        <time>2023-07-19T07:34:04Z</time>
      </trkpt>
      <trkpt lat="49.83652" lon="2.47813">
        <ele>82.2</ele>
        <time>2023-07-19T07:34:05Z</time>
      </trkpt>
      <trkpt lat="49.83652" lon="2.47814">
        <ele>82.3</ele>
        <time>2023-07-19T07:34:07Z</time>
      </trkpt>
      <trkpt lat="49.83652" lon="2.47816">
        <ele>82.3</ele>
        <time>2023-07-19T07:34:08Z</time>
      </trkpt>
      <trkpt lat="49.83652" lon="2.47817">
        <ele>82.4</ele>
        <time>2023-07-19T07:34:09Z</time>
      </trkpt>
      <trkpt lat="49.83652" lon="2.47819">
        <ele>82.4</ele>
        <time>2023-07-19T07:34:10Z</time>
      </trkpt>
      <trkpt lat="49.83652" lon="2.47821">
        <ele>82.4</ele>
        <time>2023-07-19T07:34:11Z</time>
      </trkpt>
      <trkpt lat="49.83651" lon="2.47823">
        <ele>82.5</ele>
        <time>2023-07-19T07:34:12Z</time>
      </trkpt>
      <trkpt lat="49.83651" lon="2.47825">
        <ele>82.5</ele>
        <time>2023-07-19T07:34:14Z</time>
      </trkpt>
      <trkpt lat="49.8365" lon="2.47828">
        <ele>82.6</ele>
        <time>2023-07-19T07:34:15Z</time>
      </trkpt>
      <trkpt lat="49.8365" lon="2.47829">
        <ele>82.6</ele>
        <time>2023-07-19T07:34:16Z</time>
      </trkpt>
      <trkpt lat="49.8365" lon="2.4783">
        <ele>82.7</ele>
        <time>2023-07-19T07:34:17Z</time>
      </trkpt>
      <trkpt lat="49.83649" lon="2.47832">
        <ele>82.7</ele>
        <time>2023-07-19T07:34:18Z</time>
      </trkpt>
      <trkpt lat="49.83649" lon="2.47834">
        <ele>82.8</ele>
        <time>2023-07-19T07:34:19Z</time>
      </trkpt>
      <trkpt lat="49.83648" lon="2.47836">
        <ele>82.8</ele>
        <time>2023-07-19T07:34:21Z</time>
      </trkpt>
      <trkpt lat="49.83647" lon="2.4784">
        <ele>82.9</ele>
        <time>2023-07-19T07:34:22Z</time>
      </trkpt>
      <trkpt lat="49.83647" lon="2.47841">
        <ele>83</ele>
        <time>2023-07-19T07:34:24Z</time>
      </trkpt>
      <trkpt lat="49.83646" lon="2.47843">
        <ele>83</ele>
        <time>2023-07-19T07:34:25Z</time>
      </trkpt>
      <trkpt lat="49.83646" lon="2.47845">
        <ele>83</ele>
        <time>2023-07-19T07:34:27Z</time>
      </trkpt>
      <trkpt lat="49.83646" lon="2.47846">
        <ele>83.1</ele>
        <time>2023-07-19T07:34:28Z</time>
      </trkpt>
      <trkpt lat="49.83645" lon="2.47848">
        <ele>83.1</ele>
        <time>2023-07-19T07:34:29Z</time>
      </trkpt>
      <trkpt lat="49.83645" lon="2.4785">
        <ele>83.2</ele>
        <time>2023-07-19T07:34:30Z</time>
      </trkpt>
      <trkpt lat="49.83644" lon="2.47853">
        <ele>83.2</ele>
        <time>2023-07-19T07:34:31Z</time>
      </trkpt>
      <trkpt lat="49.83644" lon="2.47854">
        <ele>83.3</ele>
        <time>2023-07-19T07:34:32Z</time>
      </trkpt>
      <trkpt lat="49.83644" lon="2.47856">
        <ele>83.3</ele>
        <time>2023-07-19T07:34:33Z</time>
      </trkpt>
      <trkpt lat="49.83643" lon="2.47859">
        <ele>83.3</ele>
        <time>2023-07-19T07:34:35Z</time>
      </trkpt>
      <trkpt lat="49.83643" lon="2.4786">
        <ele>83.4</ele>
        <time>2023-07-19T07:34:36Z</time>
      </trkpt>
      <trkpt lat="49.83642" lon="2.47861">
        <ele>83.4</ele>
        <time>2023-07-19T07:34:37Z</time>
      </trkpt>
      <trkpt lat="49.83642" lon="2.47863">
        <ele>83.4</ele>
        <time>2023-07-19T07:34:38Z</time>
      </trkpt>
      <trkpt lat="49.83641" lon="2.47865">
        <ele>83.5</ele>
        <time>2023-07-19T07:34:39Z</time>
      </trkpt>
      <trkpt lat="49.83641" lon="2.47869">
        <ele>83.5</ele>
        <time>2023-07-19T07:34:40Z</time>
      </trkpt>
      <trkpt lat="49.8364" lon="2.47871">
        <ele>83.6</ele>
        <time>2023-07-19T07:34:42Z</time>
      </trkpt>
      <trkpt lat="49.8364" lon="2.47872">
        <ele>83.6</ele>
        <time>2023-07-19T07:34:43Z</time>
      </trkpt>
      <trkpt lat="49.8364" lon="2.47874">
        <ele>83.6</ele>
        <time>2023-07-19T07:34:44Z</time>
      </trkpt>
      <trkpt lat="49.83639" lon="2.47875">
        <ele>83.6</ele>
        <time>2023-07-19T07:34:45Z</time>
      </trkpt>
      <trkpt lat="49.83639" lon="2.47879">
        <ele>83.7</ele>
        <time>2023-07-19T07:34:47Z</time>
      </trkpt>
      <trkpt lat="49.83639" lon="2.4788">
        <ele>83.7</ele>
        <time>2023-07-19T07:34:48Z</time>
      </trkpt>
      <trkpt lat="49.83639" lon="2.47881">
        <ele>83.7</ele>
        <time>2023-07-19T07:34:49Z</time>
      </trkpt>
      <trkpt lat="49.83638" lon="2.47883">
        <ele>83.8</ele>
        <time>2023-07-19T07:34:50Z</time>
      </trkpt>
      <trkpt lat="49.83638" lon="2.47885">
        <ele>83.8</ele>
        <time>2023-07-19T07:34:51Z</time>
      </trkpt>
      <trkpt lat="49.83638" lon="2.47887">
        <ele>83.8</ele>
        <time>2023-07-19T07:34:52Z</time>
      </trkpt>
      <trkpt lat="49.83638" lon="2.47888">
        <ele>83.8</ele>
        <time>2023-07-19T07:34:54Z</time>
      </trkpt>
      <trkpt lat="49.83637" lon="2.4789">
        <ele>83.8</ele>
        <time>2023-07-19T07:34:55Z</time>
      </trkpt>
      <trkpt lat="49.83637" lon="2.47892">
        <ele>83.9</ele>
        <time>2023-07-19T07:34:56Z</time>
      </trkpt>
      <trkpt lat="49.83637" lon="2.47895">
        <ele>83.9</ele>
        <time>2023-07-19T07:34:58Z</time>
      </trkpt>
      <trkpt lat="49.83636" lon="2.47897">
        <ele>83.9</ele>
        <time>2023-07-19T07:35:00Z</time>
      </trkpt>
      <trkpt lat="49.83635" lon="2.47902">
        <ele>83.9</ele>
        <time>2023-07-19T07:35:02Z</time>
      </trkpt>
      <trkpt lat="49.83635" lon="2.47904">
        <ele>84</ele>
        <time>2023-07-19T07:35:04Z</time>
      </trkpt>
      <trkpt lat="49.83634" lon="2.47906">
        <ele>84</ele>
        <time>2023-07-19T07:35:05Z</time>
      </trkpt>
      <trkpt lat="49.83634" lon="2.4791">
        <ele>84</ele>
        <time>2023-07-19T07:35:06Z</time>
      </trkpt>
      <trkpt lat="49.83633" lon="2.47911">
        <ele>84</ele>
        <time>2023-07-19T07:35:07Z</time>
      </trkpt>
      <trkpt lat="49.83633" lon="2.47912">
        <ele>84</ele>
        <time>2023-07-19T07:35:08Z</time>
      </trkpt>
      <trkpt lat="49.83633" lon="2.47914">
        <ele>84</ele>
        <time>2023-07-19T07:35:09Z</time>
      </trkpt>
      <trkpt lat="49.83632" lon="2.47916">
        <ele>84.1</ele>
        <time>2023-07-19T07:35:10Z</time>
      </trkpt>
      <trkpt lat="49.83632" lon="2.47918">
        <ele>84.1</ele>
        <time>2023-07-19T07:35:12Z</time>
      </trkpt>
      <trkpt lat="49.83631" lon="2.4792">
        <ele>84.1</ele>
        <time>2023-07-19T07:35:13Z</time>
      </trkpt>
      <trkpt lat="49.83631" lon="2.47922">
        <ele>84.1</ele>
        <time>2023-07-19T07:35:14Z</time>
      </trkpt>
      <trkpt lat="49.8363" lon="2.47924">
        <ele>84.1</ele>
        <time>2023-07-19T07:35:15Z</time>
      </trkpt>
      <trkpt lat="49.8363" lon="2.47926">
        <ele>84.1</ele>
        <time>2023-07-19T07:35:16Z</time>
      </trkpt>
      <trkpt lat="49.83629" lon="2.47929">
        <ele>84.1</ele>
        <time>2023-07-19T07:35:18Z</time>
      </trkpt>
      <trkpt lat="49.83629" lon="2.47932">
        <ele>84.1</ele>
        <time>2023-07-19T07:35:19Z</time>
      </trkpt>
      <trkpt lat="49.83628" lon="2.47933">
        <ele>84.1</ele>
        <time>2023-07-19T07:35:21Z</time>
      </trkpt>
      <trkpt lat="49.83628" lon="2.47934">
        <ele>84.1</ele>
        <time>2023-07-19T07:35:22Z</time>
      </trkpt>
      <trkpt lat="49.83627" lon="2.47938">
        <ele>84.1</ele>
        <time>2023-07-19T07:35:23Z</time>
      </trkpt>
      <trkpt lat="49.83627" lon="2.4794">
        <ele>84</ele>
        <time>2023-07-19T07:35:24Z</time>
      </trkpt>
      <trkpt lat="49.83626" lon="2.47941">
        <ele>84</ele>
        <time>2023-07-19T07:35:25Z</time>
      </trkpt>
      <trkpt lat="49.83626" lon="2.47944">
        <ele>84</ele>
        <time>2023-07-19T07:35:26Z</time>
      </trkpt>
      <trkpt lat="49.83625" lon="2.47947">
        <ele>84</ele>
        <time>2023-07-19T07:35:27Z</time>
      </trkpt>
      <trkpt lat="49.83624" lon="2.4795">
        <ele>84</ele>
        <time>2023-07-19T07:35:29Z</time>
      </trkpt>
      <trkpt lat="49.83623" lon="2.47953">
        <ele>83.9</ele>
        <time>2023-07-19T07:35:30Z</time>
      </trkpt>
      <trkpt lat="49.83622" lon="2.47956">
        <ele>83.9</ele>
        <time>2023-07-19T07:35:32Z</time>
      </trkpt>
      <trkpt lat="49.83621" lon="2.4796">
        <ele>83.8</ele>
        <time>2023-07-19T07:35:33Z</time>
      </trkpt>
      <trkpt lat="49.83621" lon="2.47961">
        <ele>83.8</ele>
        <time>2023-07-19T07:35:34Z</time>
      </trkpt>
      <trkpt lat="49.8362" lon="2.47966">
        <ele>83.7</ele>
        <time>2023-07-19T07:35:35Z</time>
      </trkpt>
      <trkpt lat="49.83619" lon="2.47967">
        <ele>83.6</ele>
        <time>2023-07-19T07:35:36Z</time>
      </trkpt>
      <trkpt lat="49.83619" lon="2.4797">
        <ele>83.6</ele>
        <time>2023-07-19T07:35:37Z</time>
      </trkpt>
      <trkpt lat="49.83618" lon="2.47972">
        <ele>83.5</ele>
        <time>2023-07-19T07:35:38Z</time>
      </trkpt>
      <trkpt lat="49.83618" lon="2.47976">
        <ele>83.4</ele>
        <time>2023-07-19T07:35:39Z</time>
      </trkpt>
      <trkpt lat="49.83618" lon="2.47978">
        <ele>83.4</ele>
        <time>2023-07-19T07:35:41Z</time>
      </trkpt>
      <trkpt lat="49.83617" lon="2.4798">
        <ele>83.3</ele>
        <time>2023-07-19T07:35:42Z</time>
      </trkpt>
      <trkpt lat="49.83617" lon="2.47982">
        <ele>83.2</ele>
        <time>2023-07-19T07:35:43Z</time>
      </trkpt>
      <trkpt lat="49.83617" lon="2.47985">
        <ele>83.2</ele>
        <time>2023-07-19T07:35:45Z</time>
      </trkpt>
      <trkpt lat="49.83617" lon="2.47988">
        <ele>83.1</ele>
        <time>2023-07-19T07:35:46Z</time>
      </trkpt>
      <trkpt lat="49.83617" lon="2.4799">
        <ele>83</ele>
        <time>2023-07-19T07:35:47Z</time>
      </trkpt>
      <trkpt lat="49.83617" lon="2.47992">
        <ele>83</ele>
        <time>2023-07-19T07:35:48Z</time>
      </trkpt>
      <trkpt lat="49.83616" lon="2.47994">
        <ele>82.9</ele>
        <time>2023-07-19T07:35:49Z</time>
      </trkpt>
      <trkpt lat="49.83617" lon="2.47997">
        <ele>82.8</ele>
        <time>2023-07-19T07:35:51Z</time>
      </trkpt>
      <trkpt lat="49.83616" lon="2.48">
        <ele>82.7</ele>
        <time>2023-07-19T07:35:52Z</time>
      </trkpt>
      <trkpt lat="49.83616" lon="2.48002">
        <ele>82.7</ele>
        <time>2023-07-19T07:35:53Z</time>
      </trkpt>
      <trkpt lat="49.83616" lon="2.48004">
        <ele>82.6</ele>
        <time>2023-07-19T07:35:55Z</time>
      </trkpt>
      <trkpt lat="49.83616" lon="2.48007">
        <ele>82.5</ele>
        <time>2023-07-19T07:35:56Z</time>
      </trkpt>
      <trkpt lat="49.83616" lon="2.48011">
        <ele>82.4</ele>
        <time>2023-07-19T07:35:57Z</time>
      </trkpt>
      <trkpt lat="49.83616" lon="2.48013">
        <ele>82.3</ele>
        <time>2023-07-19T07:35:58Z</time>
      </trkpt>
      <trkpt lat="49.83616" lon="2.48015">
        <ele>82.3</ele>
        <time>2023-07-19T07:35:59Z</time>
      </trkpt>
      <trkpt lat="49.83616" lon="2.48018">
        <ele>82.2</ele>
        <time>2023-07-19T07:36:01Z</time>
      </trkpt>
      <trkpt lat="49.83615" lon="2.4802">
        <ele>82.2</ele>
        <time>2023-07-19T07:36:02Z</time>
      </trkpt>
      <trkpt lat="49.83615" lon="2.48022">
        <ele>82.2</ele>
        <time>2023-07-19T07:36:04Z</time>
      </trkpt>
      <trkpt lat="49.83615" lon="2.48024">
        <ele>82.1</ele>
        <time>2023-07-19T07:36:05Z</time>
      </trkpt>
      <trkpt lat="49.83615" lon="2.48025">
        <ele>82.1</ele>
        <time>2023-07-19T07:36:06Z</time>
      </trkpt>
      <trkpt lat="49.83615" lon="2.48027">
        <ele>82.1</ele>
        <time>2023-07-19T07:36:07Z</time>
      </trkpt>
      <trkpt lat="49.83615" lon="2.48028">
        <ele>82.1</ele>
        <time>2023-07-19T07:36:08Z</time>
      </trkpt>
      <trkpt lat="49.83615" lon="2.48031">
        <ele>82.1</ele>
        <time>2023-07-19T07:36:09Z</time>
      </trkpt>
      <trkpt lat="49.83614" lon="2.48033">
        <ele>82</ele>
        <time>2023-07-19T07:36:10Z</time>
      </trkpt>
      <trkpt lat="49.83614" lon="2.48035">
        <ele>82</ele>
        <time>2023-07-19T07:36:11Z</time>
      </trkpt>
      <trkpt lat="49.83614" lon="2.48035">
        <ele>82</ele>
        <time>2023-07-19T07:36:12Z</time>
      </trkpt>
      <trkpt lat="49.83614" lon="2.48038">
        <ele>82</ele>
        <time>2023-07-19T07:36:13Z</time>
      </trkpt>
      <trkpt lat="49.83614" lon="2.48039">
        <ele>82</ele>
        <time>2023-07-19T07:36:15Z</time>
      </trkpt>
      <trkpt lat="49.83613" lon="2.48043">
        <ele>81.9</ele>
        <time>2023-07-19T07:36:16Z</time>
      </trkpt>
      <trkpt lat="49.83613" lon="2.48046">
        <ele>81.9</ele>
        <time>2023-07-19T07:36:17Z</time>
      </trkpt>
      <trkpt lat="49.83613" lon="2.48048">
        <ele>81.9</ele>
        <time>2023-07-19T07:36:19Z</time>
      </trkpt>
      <trkpt lat="49.83613" lon="2.4805">
        <ele>81.8</ele>
        <time>2023-07-19T07:36:20Z</time>
      </trkpt>
      <trkpt lat="49.83612" lon="2.48051">
        <ele>81.8</ele>
        <time>2023-07-19T07:36:21Z</time>
      </trkpt>
      <trkpt lat="49.83612" lon="2.48053">
        <ele>81.8</ele>
        <time>2023-07-19T07:36:22Z</time>
      </trkpt>
      <trkpt lat="49.83611" lon="2.48056">
        <ele>81.7</ele>
        <time>2023-07-19T07:36:23Z</time>
      </trkpt>
      <trkpt lat="49.83611" lon="2.48057">
        <ele>81.7</ele>
        <time>2023-07-19T07:36:24Z</time>
      </trkpt>
      <trkpt lat="49.83611" lon="2.48058">
        <ele>81.7</ele>
        <time>2023-07-19T07:36:25Z</time>
      </trkpt>
      <trkpt lat="49.83611" lon="2.48059">
        <ele>81.7</ele>
        <time>2023-07-19T07:36:26Z</time>
      </trkpt>
      <trkpt lat="49.8361" lon="2.48061">
        <ele>81.7</ele>
        <time>2023-07-19T07:36:28Z</time>
      </trkpt>
      <trkpt lat="49.8361" lon="2.48063">
        <ele>81.6</ele>
        <time>2023-07-19T07:36:29Z</time>
      </trkpt>
      <trkpt lat="49.8361" lon="2.48065">
        <ele>81.6</ele>
        <time>2023-07-19T07:36:30Z</time>
      </trkpt>
      <trkpt lat="49.8361" lon="2.48067">
        <ele>81.6</ele>
        <time>2023-07-19T07:36:31Z</time>
      </trkpt>
      <trkpt lat="49.8361" lon="2.48069">
        <ele>81.5</ele>
        <time>2023-07-19T07:36:32Z</time>
      </trkpt>
      <trkpt lat="49.83609" lon="2.48071">
        <ele>81.5</ele>
        <time>2023-07-19T07:36:33Z</time>
      </trkpt>
      <trkpt lat="49.83609" lon="2.48072">
        <ele>81.5</ele>
        <time>2023-07-19T07:36:35Z</time>
      </trkpt>
      <trkpt lat="49.83609" lon="2.48076">
        <ele>81.4</ele>
        <time>2023-07-19T07:36:37Z</time>
      </trkpt>
      <trkpt lat="49.83608" lon="2.48078">
        <ele>81.4</ele>
        <time>2023-07-19T07:36:38Z</time>
      </trkpt>
      <trkpt lat="49.83608" lon="2.4808">
        <ele>81.4</ele>
        <time>2023-07-19T07:36:40Z</time>
      </trkpt>
      <trkpt lat="49.83608" lon="2.48082">
        <ele>81.3</ele>
        <time>2023-07-19T07:36:41Z</time>
      </trkpt>
      <trkpt lat="49.83608" lon="2.48083">
        <ele>81.3</ele>
        <time>2023-07-19T07:36:42Z</time>
      </trkpt>
      <trkpt lat="49.83607" lon="2.48084">
        <ele>81.3</ele>
        <time>2023-07-19T07:36:43Z</time>
      </trkpt>
      <trkpt lat="49.83607" lon="2.48086">
        <ele>81.2</ele>
        <time>2023-07-19T07:36:44Z</time>
      </trkpt>
      <trkpt lat="49.83606" lon="2.48089">
        <ele>81.2</ele>
        <time>2023-07-19T07:36:46Z</time>
      </trkpt>
      <trkpt lat="49.83606" lon="2.4809">
        <ele>81.1</ele>
        <time>2023-07-19T07:36:47Z</time>
      </trkpt>
      <trkpt lat="49.83606" lon="2.48092">
        <ele>81.1</ele>
        <time>2023-07-19T07:36:48Z</time>
      </trkpt>
      <trkpt lat="49.83606" lon="2.48094">
        <ele>81</ele>
        <time>2023-07-19T07:36:49Z</time>
      </trkpt>
      <trkpt lat="49.83605" lon="2.48096">
        <ele>81</ele>
        <time>2023-07-19T07:36:50Z</time>
      </trkpt>
      <trkpt lat="49.83605" lon="2.48097">
        <ele>81</ele>
        <time>2023-07-19T07:36:51Z</time>
      </trkpt>
      <trkpt lat="49.83604" lon="2.48101">
        <ele>80.9</ele>
        <time>2023-07-19T07:36:53Z</time>
      </trkpt>
      <trkpt lat="49.83603" lon="2.48105">
        <ele>80.8</ele>
        <time>2023-07-19T07:36:54Z</time>
      </trkpt>
      <trkpt lat="49.83602" lon="2.48107">
        <ele>80.7</ele>
        <time>2023-07-19T07:36:56Z</time>
      </trkpt>
      <trkpt lat="49.83602" lon="2.48108">
        <ele>80.7</ele>
        <time>2023-07-19T07:36:57Z</time>
      </trkpt>
      <trkpt lat="49.83601" lon="2.48109">
        <ele>80.7</ele>
        <time>2023-07-19T07:36:58Z</time>
      </trkpt>
      <trkpt lat="49.83601" lon="2.48111">
        <ele>80.7</ele>
        <time>2023-07-19T07:36:59Z</time>
      </trkpt>
      <trkpt lat="49.836" lon="2.48113">
        <ele>80.6</ele>
        <time>2023-07-19T07:37:00Z</time>
      </trkpt>
      <trkpt lat="49.83599" lon="2.48115">
        <ele>80.6</ele>
        <time>2023-07-19T07:37:01Z</time>
      </trkpt>
      <trkpt lat="49.83598" lon="2.48117">
        <ele>80.5</ele>
        <time>2023-07-19T07:37:02Z</time>
      </trkpt>
      <trkpt lat="49.83598" lon="2.4812">
        <ele>80.5</ele>
        <time>2023-07-19T07:37:03Z</time>
      </trkpt>
      <trkpt lat="49.83597" lon="2.48123">
        <ele>80.5</ele>
        <time>2023-07-19T07:37:04Z</time>
      </trkpt>
      <trkpt lat="49.83597" lon="2.48124">
        <ele>80.5</ele>
        <time>2023-07-19T07:37:06Z</time>
      </trkpt>
      <trkpt lat="49.83596" lon="2.48125">
        <ele>80.5</ele>
        <time>2023-07-19T07:37:07Z</time>
      </trkpt>
      <trkpt lat="49.83596" lon="2.48128">
        <ele>80.4</ele>
        <time>2023-07-19T07:37:08Z</time>
      </trkpt>
      <trkpt lat="49.83595" lon="2.48129">
        <ele>80.4</ele>
        <time>2023-07-19T07:37:09Z</time>
      </trkpt>
      <trkpt lat="49.83595" lon="2.4813">
        <ele>80.4</ele>
        <time>2023-07-19T07:37:10Z</time>
      </trkpt>
      <trkpt lat="49.83594" lon="2.48134">
        <ele>80.4</ele>
        <time>2023-07-19T07:37:11Z</time>
      </trkpt>
      <trkpt lat="49.83593" lon="2.48137">
        <ele>80.4</ele>
        <time>2023-07-19T07:37:13Z</time>
      </trkpt>
      <trkpt lat="49.83593" lon="2.48139">
        <ele>80.3</ele>
        <time>2023-07-19T07:37:14Z</time>
      </trkpt>
      <trkpt lat="49.83592" lon="2.48141">
        <ele>80.3</ele>
        <time>2023-07-19T07:37:15Z</time>
      </trkpt>
      <trkpt lat="49.83591" lon="2.48143">
        <ele>80.3</ele>
        <time>2023-07-19T07:37:16Z</time>
      </trkpt>
      <trkpt lat="49.83591" lon="2.48144">
        <ele>80.3</ele>
        <time>2023-07-19T07:37:18Z</time>
      </trkpt>
      <trkpt lat="49.83591" lon="2.48146">
        <ele>80.3</ele>
        <time>2023-07-19T07:37:19Z</time>
      </trkpt>
      <trkpt lat="49.83591" lon="2.48148">
        <ele>80.3</ele>
        <time>2023-07-19T07:37:20Z</time>
      </trkpt>
      <trkpt lat="49.8359" lon="2.4815">
        <ele>80.3</ele>
        <time>2023-07-19T07:37:21Z</time>
      </trkpt>
      <trkpt lat="49.83589" lon="2.48153">
        <ele>80.3</ele>
        <time>2023-07-19T07:37:22Z</time>
      </trkpt>
      <trkpt lat="49.83589" lon="2.48154">
        <ele>80.2</ele>
        <time>2023-07-19T07:37:23Z</time>
      </trkpt>
      <trkpt lat="49.83589" lon="2.48156">
        <ele>80.2</ele>
        <time>2023-07-19T07:37:24Z</time>
      </trkpt>
      <trkpt lat="49.83589" lon="2.48157">
        <ele>80.2</ele>
        <time>2023-07-19T07:37:26Z</time>
      </trkpt>
      <trkpt lat="49.83588" lon="2.48159">
        <ele>80.2</ele>
        <time>2023-07-19T07:37:27Z</time>
      </trkpt>
      <trkpt lat="49.83588" lon="2.4816">
        <ele>80.2</ele>
        <time>2023-07-19T07:37:29Z</time>
      </trkpt>
      <trkpt lat="49.83588" lon="2.48162">
        <ele>80.2</ele>
        <time>2023-07-19T07:37:30Z</time>
      </trkpt>
      <trkpt lat="49.83588" lon="2.48163">
        <ele>80.2</ele>
        <time>2023-07-19T07:37:31Z</time>
      </trkpt>
      <trkpt lat="49.83587" lon="2.48166">
        <ele>80.2</ele>
        <time>2023-07-19T07:37:33Z</time>
      </trkpt>
      <trkpt lat="49.83587" lon="2.48168">
        <ele>80.2</ele>
        <time>2023-07-19T07:37:34Z</time>
      </trkpt>
      <trkpt lat="49.83586" lon="2.48169">
        <ele>80.2</ele>
        <time>2023-07-19T07:37:35Z</time>
      </trkpt>
      <trkpt lat="49.83586" lon="2.4817">
        <ele>80.2</ele>
        <time>2023-07-19T07:37:36Z</time>
      </trkpt>
      <trkpt lat="49.83586" lon="2.48171">
        <ele>80.2</ele>
        <time>2023-07-19T07:37:37Z</time>
      </trkpt>
      <trkpt lat="49.83585" lon="2.48174">
        <ele>80.2</ele>
        <time>2023-07-19T07:37:39Z</time>
      </trkpt>
      <trkpt lat="49.83584" lon="2.48175">
        <ele>80.2</ele>
        <time>2023-07-19T07:37:40Z</time>
      </trkpt>
      <trkpt lat="49.83583" lon="2.48177">
        <ele>80.2</ele>
        <time>2023-07-19T07:37:41Z</time>
      </trkpt>
      <trkpt lat="49.83582" lon="2.48179">
        <ele>80.2</ele>
        <time>2023-07-19T07:37:43Z</time>
      </trkpt>
      <trkpt lat="49.83581" lon="2.48183">
        <ele>80.2</ele>
        <time>2023-07-19T07:37:44Z</time>
      </trkpt>
      <trkpt lat="49.83581" lon="2.48184">
        <ele>80.2</ele>
        <time>2023-07-19T07:37:45Z</time>
      </trkpt>
      <trkpt lat="49.8358" lon="2.48185">
        <ele>80.2</ele>
        <time>2023-07-19T07:37:46Z</time>
      </trkpt>
      <trkpt lat="49.8358" lon="2.48186">
        <ele>80.2</ele>
        <time>2023-07-19T07:37:47Z</time>
      </trkpt>
      <trkpt lat="49.8358" lon="2.48188">
        <ele>80.2</ele>
        <time>2023-07-19T07:37:48Z</time>
      </trkpt>
      <trkpt lat="49.83579" lon="2.4819">
        <ele>80.2</ele>
        <time>2023-07-19T07:37:50Z</time>
      </trkpt>
      <trkpt lat="49.83578" lon="2.48193">
        <ele>80.2</ele>
        <time>2023-07-19T07:37:51Z</time>
      </trkpt>
      <trkpt lat="49.83578" lon="2.48194">
        <ele>80.2</ele>
        <time>2023-07-19T07:37:52Z</time>
      </trkpt>
      <trkpt lat="49.83578" lon="2.48195">
        <ele>80.2</ele>
        <time>2023-07-19T07:37:53Z</time>
      </trkpt>
      <trkpt lat="49.83577" lon="2.48199">
        <ele>80.3</ele>
        <time>2023-07-19T07:37:54Z</time>
      </trkpt>
      <trkpt lat="49.83577" lon="2.482">
        <ele>80.3</ele>
        <time>2023-07-19T07:37:55Z</time>
      </trkpt>
      <trkpt lat="49.83577" lon="2.48201">
        <ele>80.3</ele>
        <time>2023-07-19T07:37:56Z</time>
      </trkpt>
      <trkpt lat="49.83576" lon="2.48203">
        <ele>80.3</ele>
        <time>2023-07-19T07:37:57Z</time>
      </trkpt>
      <trkpt lat="49.83576" lon="2.48204">
        <ele>80.3</ele>
        <time>2023-07-19T07:37:58Z</time>
      </trkpt>
      <trkpt lat="49.83575" lon="2.48205">
        <ele>80.3</ele>
        <time>2023-07-19T07:38:00Z</time>
      </trkpt>
      <trkpt lat="49.83575" lon="2.48206">
        <ele>80.3</ele>
        <time>2023-07-19T07:38:01Z</time>
      </trkpt>
      <trkpt lat="49.83574" lon="2.48208">
        <ele>80.3</ele>
        <time>2023-07-19T07:38:02Z</time>
      </trkpt>
      <trkpt lat="49.83574" lon="2.4821">
        <ele>80.3</ele>
        <time>2023-07-19T07:38:03Z</time>
      </trkpt>
      <trkpt lat="49.83573" lon="2.48214">
        <ele>80.3</ele>
        <time>2023-07-19T07:38:04Z</time>
      </trkpt>
      <trkpt lat="49.83573" lon="2.48215">
        <ele>80.3</ele>
        <time>2023-07-19T07:38:05Z</time>
      </trkpt>
      <trkpt lat="49.83572" lon="2.48216">
        <ele>80.3</ele>
        <time>2023-07-19T07:38:06Z</time>
      </trkpt>
      <trkpt lat="49.83571" lon="2.48218">
        <ele>80.4</ele>
        <time>2023-07-19T07:38:07Z</time>
      </trkpt>
      <trkpt lat="49.8357" lon="2.4822">
        <ele>80.4</ele>
        <time>2023-07-19T07:38:09Z</time>
      </trkpt>
      <trkpt lat="49.83569" lon="2.48222">
        <ele>80.4</ele>
        <time>2023-07-19T07:38:10Z</time>
      </trkpt>
      <trkpt lat="49.83569" lon="2.48224">
        <ele>80.4</ele>
        <time>2023-07-19T07:38:11Z</time>
      </trkpt>
      <trkpt lat="49.83568" lon="2.48227">
        <ele>80.5</ele>
        <time>2023-07-19T07:38:12Z</time>
      </trkpt>
      <trkpt lat="49.83567" lon="2.48228">
        <ele>80.5</ele>
        <time>2023-07-19T07:38:13Z</time>
      </trkpt>
      <trkpt lat="49.83567" lon="2.48229">
        <ele>80.5</ele>
        <time>2023-07-19T07:38:14Z</time>
      </trkpt>
      <trkpt lat="49.83567" lon="2.48231">
        <ele>80.5</ele>
        <time>2023-07-19T07:38:15Z</time>
      </trkpt>
      <trkpt lat="49.83566" lon="2.48233">
        <ele>80.6</ele>
        <time>2023-07-19T07:38:17Z</time>
      </trkpt>
      <trkpt lat="49.83565" lon="2.48234">
        <ele>80.6</ele>
        <time>2023-07-19T07:38:18Z</time>
      </trkpt>
      <trkpt lat="49.83565" lon="2.48235">
        <ele>80.6</ele>
        <time>2023-07-19T07:38:19Z</time>
      </trkpt>
      <trkpt lat="49.83564" lon="2.48237">
        <ele>80.6</ele>
        <time>2023-07-19T07:38:21Z</time>
      </trkpt>
      <trkpt lat="49.83563" lon="2.48239">
        <ele>80.6</ele>
        <time>2023-07-19T07:38:22Z</time>
      </trkpt>
      <trkpt lat="49.83563" lon="2.48241">
        <ele>80.7</ele>
        <time>2023-07-19T07:38:23Z</time>
      </trkpt>
      <trkpt lat="49.83563" lon="2.48243">
        <ele>80.7</ele>
        <time>2023-07-19T07:38:24Z</time>
      </trkpt>
      <trkpt lat="49.83562" lon="2.48244">
        <ele>80.7</ele>
        <time>2023-07-19T07:38:25Z</time>
      </trkpt>
      <trkpt lat="49.83562" lon="2.48246">
        <ele>80.7</ele>
        <time>2023-07-19T07:38:26Z</time>
      </trkpt>
      <trkpt lat="49.8356" lon="2.48249">
        <ele>80.8</ele>
        <time>2023-07-19T07:38:27Z</time>
      </trkpt>
      <trkpt lat="49.8356" lon="2.4825">
        <ele>80.8</ele>
        <time>2023-07-19T07:38:29Z</time>
      </trkpt>
      <trkpt lat="49.83559" lon="2.48251">
        <ele>80.8</ele>
        <time>2023-07-19T07:38:30Z</time>
      </trkpt>
      <trkpt lat="49.83558" lon="2.48253">
        <ele>80.9</ele>
        <time>2023-07-19T07:38:31Z</time>
      </trkpt>
      <trkpt lat="49.83557" lon="2.48254">
        <ele>80.9</ele>
        <time>2023-07-19T07:38:32Z</time>
      </trkpt>
      <trkpt lat="49.83557" lon="2.48256">
        <ele>80.9</ele>
        <time>2023-07-19T07:38:33Z</time>
      </trkpt>
      <trkpt lat="49.83556" lon="2.48257">
        <ele>80.9</ele>
        <time>2023-07-19T07:38:34Z</time>
      </trkpt>
      <trkpt lat="49.83556" lon="2.48258">
        <ele>81</ele>
        <time>2023-07-19T07:38:35Z</time>
      </trkpt>
      <trkpt lat="49.83555" lon="2.48259">
        <ele>81</ele>
        <time>2023-07-19T07:38:37Z</time>
      </trkpt>
      <trkpt lat="49.83555" lon="2.48261">
        <ele>81</ele>
        <time>2023-07-19T07:38:38Z</time>
      </trkpt>
      <trkpt lat="49.83554" lon="2.48262">
        <ele>81.1</ele>
        <time>2023-07-19T07:38:39Z</time>
      </trkpt>
      <trkpt lat="49.83553" lon="2.48264">
        <ele>81.1</ele>
        <time>2023-07-19T07:38:40Z</time>
      </trkpt>
      <trkpt lat="49.83553" lon="2.48266">
        <ele>81.2</ele>
        <time>2023-07-19T07:38:41Z</time>
      </trkpt>
      <trkpt lat="49.83552" lon="2.48267">
        <ele>81.2</ele>
        <time>2023-07-19T07:38:42Z</time>
      </trkpt>
      <trkpt lat="49.83552" lon="2.48269">
        <ele>81.2</ele>
        <time>2023-07-19T07:38:44Z</time>
      </trkpt>
      <trkpt lat="49.83552" lon="2.48271">
        <ele>81.3</ele>
        <time>2023-07-19T07:38:45Z</time>
      </trkpt>
      <trkpt lat="49.83551" lon="2.48272">
        <ele>81.3</ele>
        <time>2023-07-19T07:38:46Z</time>
      </trkpt>
      <trkpt lat="49.83551" lon="2.48274">
        <ele>81.3</ele>
        <time>2023-07-19T07:38:47Z</time>
      </trkpt>
      <trkpt lat="49.8355" lon="2.48276">
        <ele>81.4</ele>
        <time>2023-07-19T07:38:48Z</time>
      </trkpt>
      <trkpt lat="49.8355" lon="2.48277">
        <ele>81.4</ele>
        <time>2023-07-19T07:38:49Z</time>
      </trkpt>
      <trkpt lat="49.83549" lon="2.48279">
        <ele>81.5</ele>
        <time>2023-07-19T07:38:50Z</time>
      </trkpt>
      <trkpt lat="49.83549" lon="2.48282">
        <ele>81.5</ele>
        <time>2023-07-19T07:38:52Z</time>
      </trkpt>
      <trkpt lat="49.83549" lon="2.48283">
        <ele>81.6</ele>
        <time>2023-07-19T07:38:53Z</time>
      </trkpt>
      <trkpt lat="49.83548" lon="2.48285">
        <ele>81.6</ele>
        <time>2023-07-19T07:38:54Z</time>
      </trkpt>
      <trkpt lat="49.83548" lon="2.48287">
        <ele>81.6</ele>
        <time>2023-07-19T07:38:55Z</time>
      </trkpt>
      <trkpt lat="49.83547" lon="2.48289">
        <ele>81.6</ele>
        <time>2023-07-19T07:38:56Z</time>
      </trkpt>
      <trkpt lat="49.83547" lon="2.48292">
        <ele>81.7</ele>
        <time>2023-07-19T07:38:57Z</time>
      </trkpt>
      <trkpt lat="49.83547" lon="2.48293">
        <ele>81.7</ele>
        <time>2023-07-19T07:38:58Z</time>
      </trkpt>
      <trkpt lat="49.83546" lon="2.48294">
        <ele>81.7</ele>
        <time>2023-07-19T07:38:59Z</time>
      </trkpt>
      <trkpt lat="49.83546" lon="2.48296">
        <ele>81.8</ele>
        <time>2023-07-19T07:39:01Z</time>
      </trkpt>
      <trkpt lat="49.83546" lon="2.48298">
        <ele>81.8</ele>
        <time>2023-07-19T07:39:02Z</time>
      </trkpt>
      <trkpt lat="49.83546" lon="2.483">
        <ele>81.8</ele>
        <time>2023-07-19T07:39:03Z</time>
      </trkpt>
      <trkpt lat="49.83545" lon="2.48301">
        <ele>81.9</ele>
        <time>2023-07-19T07:39:04Z</time>
      </trkpt>
      <trkpt lat="49.83545" lon="2.48303">
        <ele>81.9</ele>
        <time>2023-07-19T07:39:05Z</time>
      </trkpt>
      <trkpt lat="49.83545" lon="2.48305">
        <ele>81.9</ele>
        <time>2023-07-19T07:39:06Z</time>
      </trkpt>
      <trkpt lat="49.83544" lon="2.48308">
        <ele>82</ele>
        <time>2023-07-19T07:39:07Z</time>
      </trkpt>
      <trkpt lat="49.83544" lon="2.48309">
        <ele>82</ele>
        <time>2023-07-19T07:39:09Z</time>
      </trkpt>
      <trkpt lat="49.83543" lon="2.4831">
        <ele>82</ele>
        <time>2023-07-19T07:39:10Z</time>
      </trkpt>
      <trkpt lat="49.83543" lon="2.48312">
        <ele>82.1</ele>
        <time>2023-07-19T07:39:11Z</time>
      </trkpt>
      <trkpt lat="49.83543" lon="2.48314">
        <ele>82.1</ele>
        <time>2023-07-19T07:39:12Z</time>
      </trkpt>
      <trkpt lat="49.83542" lon="2.48317">
        <ele>82.2</ele>
        <time>2023-07-19T07:39:13Z</time>
      </trkpt>
      <trkpt lat="49.83542" lon="2.48318">
        <ele>82.2</ele>
        <time>2023-07-19T07:39:14Z</time>
      </trkpt>
      <trkpt lat="49.83541" lon="2.4832">
        <ele>82.2</ele>
        <time>2023-07-19T07:39:15Z</time>
      </trkpt>
      <trkpt lat="49.8354" lon="2.48323">
        <ele>82.3</ele>
        <time>2023-07-19T07:39:17Z</time>
      </trkpt>
      <trkpt lat="49.8354" lon="2.48324">
        <ele>82.3</ele>
        <time>2023-07-19T07:39:18Z</time>
      </trkpt>
      <trkpt lat="49.8354" lon="2.48325">
        <ele>82.3</ele>
        <time>2023-07-19T07:39:19Z</time>
      </trkpt>
      <trkpt lat="49.83539" lon="2.48327">
        <ele>82.4</ele>
        <time>2023-07-19T07:39:20Z</time>
      </trkpt>
      <trkpt lat="49.83539" lon="2.4833">
        <ele>82.4</ele>
        <time>2023-07-19T07:39:21Z</time>
      </trkpt>
      <trkpt lat="49.83538" lon="2.48333">
        <ele>82.5</ele>
        <time>2023-07-19T07:39:22Z</time>
      </trkpt>
      <trkpt lat="49.83538" lon="2.48334">
        <ele>82.5</ele>
        <time>2023-07-19T07:39:23Z</time>
      </trkpt>
      <trkpt lat="49.83538" lon="2.48335">
        <ele>82.5</ele>
        <time>2023-07-19T07:39:24Z</time>
      </trkpt>
      <trkpt lat="49.83537" lon="2.48339">
        <ele>82.6</ele>
        <time>2023-07-19T07:39:26Z</time>
      </trkpt>
      <trkpt lat="49.83537" lon="2.4834">
        <ele>82.6</ele>
        <time>2023-07-19T07:39:27Z</time>
      </trkpt>
      <trkpt lat="49.83537" lon="2.48341">
        <ele>82.7</ele>
        <time>2023-07-19T07:39:28Z</time>
      </trkpt>
      <trkpt lat="49.83537" lon="2.48344">
        <ele>82.7</ele>
        <time>2023-07-19T07:39:29Z</time>
      </trkpt>
      <trkpt lat="49.83537" lon="2.48346">
        <ele>82.7</ele>
        <time>2023-07-19T07:39:30Z</time>
      </trkpt>
      <trkpt lat="49.83536" lon="2.48349">
        <ele>82.8</ele>
        <time>2023-07-19T07:39:31Z</time>
      </trkpt>
      <trkpt lat="49.83536" lon="2.4835">
        <ele>82.8</ele>
        <time>2023-07-19T07:39:32Z</time>
      </trkpt>
      <trkpt lat="49.83536" lon="2.48351">
        <ele>82.9</ele>
        <time>2023-07-19T07:39:33Z</time>
      </trkpt>
      <trkpt lat="49.83536" lon="2.48355">
        <ele>82.9</ele>
        <time>2023-07-19T07:39:35Z</time>
      </trkpt>
      <trkpt lat="49.83536" lon="2.48356">
        <ele>83</ele>
        <time>2023-07-19T07:39:36Z</time>
      </trkpt>
      <trkpt lat="49.83536" lon="2.48357">
        <ele>83</ele>
        <time>2023-07-19T07:39:37Z</time>
      </trkpt>
      <trkpt lat="49.83536" lon="2.48359">
        <ele>83</ele>
        <time>2023-07-19T07:39:38Z</time>
      </trkpt>
      <trkpt lat="49.83536" lon="2.48362">
        <ele>83.1</ele>
        <time>2023-07-19T07:39:39Z</time>
      </trkpt>
      <trkpt lat="49.83535" lon="2.48365">
        <ele>83.1</ele>
        <time>2023-07-19T07:39:40Z</time>
      </trkpt>
      <trkpt lat="49.83535" lon="2.48367">
        <ele>83.2</ele>
        <time>2023-07-19T07:39:41Z</time>
      </trkpt>
      <trkpt lat="49.83535" lon="2.48369">
        <ele>83.2</ele>
        <time>2023-07-19T07:39:43Z</time>
      </trkpt>
      <trkpt lat="49.83535" lon="2.48372">
        <ele>83.2</ele>
        <time>2023-07-19T07:39:44Z</time>
      </trkpt>
      <trkpt lat="49.83534" lon="2.48375">
        <ele>83.3</ele>
        <time>2023-07-19T07:39:45Z</time>
      </trkpt>
      <trkpt lat="49.83534" lon="2.48376">
        <ele>83.3</ele>
        <time>2023-07-19T07:39:46Z</time>
      </trkpt>
      <trkpt lat="49.83534" lon="2.48378">
        <ele>83.3</ele>
        <time>2023-07-19T07:39:47Z</time>
      </trkpt>
      <trkpt lat="49.83534" lon="2.48379">
        <ele>83.3</ele>
        <time>2023-07-19T07:39:48Z</time>
      </trkpt>
      <trkpt lat="49.83534" lon="2.48381">
        <ele>83.4</ele>
        <time>2023-07-19T07:39:49Z</time>
      </trkpt>
      <trkpt lat="49.83534" lon="2.48382">
        <ele>83.4</ele>
        <time>2023-07-19T07:39:50Z</time>
      </trkpt>
      <trkpt lat="49.83534" lon="2.48386">
        <ele>83.4</ele>
        <time>2023-07-19T07:39:52Z</time>
      </trkpt>
      <trkpt lat="49.83534" lon="2.48387">
        <ele>83.4</ele>
        <time>2023-07-19T07:39:53Z</time>
      </trkpt>
      <trkpt lat="49.83534" lon="2.48389">
        <ele>83.5</ele>
        <time>2023-07-19T07:39:54Z</time>
      </trkpt>
      <trkpt lat="49.83534" lon="2.48392">
        <ele>83.5</ele>
        <time>2023-07-19T07:39:55Z</time>
      </trkpt>
      <trkpt lat="49.83534" lon="2.48393">
        <ele>83.5</ele>
        <time>2023-07-19T07:39:56Z</time>
      </trkpt>
      <trkpt lat="49.83534" lon="2.48394">
        <ele>83.5</ele>
        <time>2023-07-19T07:39:57Z</time>
      </trkpt>
      <trkpt lat="49.83533" lon="2.48398">
        <ele>83.5</ele>
        <time>2023-07-19T07:39:58Z</time>
      </trkpt>
      <trkpt lat="49.83533" lon="2.48399">
        <ele>83.5</ele>
        <time>2023-07-19T07:39:59Z</time>
      </trkpt>
      <trkpt lat="49.83533" lon="2.48401">
        <ele>83.5</ele>
        <time>2023-07-19T07:40:01Z</time>
      </trkpt>
      <trkpt lat="49.83533" lon="2.48403">
        <ele>83.5</ele>
        <time>2023-07-19T07:40:02Z</time>
      </trkpt>
      <trkpt lat="49.83533" lon="2.48404">
        <ele>83.5</ele>
        <time>2023-07-19T07:40:03Z</time>
      </trkpt>
      <trkpt lat="49.83533" lon="2.48406">
        <ele>83.5</ele>
        <time>2023-07-19T07:40:04Z</time>
      </trkpt>
      <trkpt lat="49.83533" lon="2.48409">
        <ele>83.5</ele>
        <time>2023-07-19T07:40:05Z</time>
      </trkpt>
      <trkpt lat="49.83533" lon="2.4841">
        <ele>83.5</ele>
        <time>2023-07-19T07:40:06Z</time>
      </trkpt>
      <trkpt lat="49.83533" lon="2.48412">
        <ele>83.5</ele>
        <time>2023-07-19T07:40:07Z</time>
      </trkpt>
      <trkpt lat="49.83533" lon="2.48416">
        <ele>83.5</ele>
        <time>2023-07-19T07:40:08Z</time>
      </trkpt>
      <trkpt lat="49.83532" lon="2.48418">
        <ele>83.5</ele>
        <time>2023-07-19T07:40:10Z</time>
      </trkpt>
      <trkpt lat="49.83532" lon="2.4842">
        <ele>83.5</ele>
        <time>2023-07-19T07:40:11Z</time>
      </trkpt>
      <trkpt lat="49.83532" lon="2.48422">
        <ele>83.5</ele>
        <time>2023-07-19T07:40:12Z</time>
      </trkpt>
      <trkpt lat="49.83531" lon="2.48427">
        <ele>83.5</ele>
        <time>2023-07-19T07:40:13Z</time>
      </trkpt>
      <trkpt lat="49.83531" lon="2.48429">
        <ele>83.5</ele>
        <time>2023-07-19T07:40:14Z</time>
      </trkpt>
      <trkpt lat="49.8353" lon="2.48432">
        <ele>83.5</ele>
        <time>2023-07-19T07:40:16Z</time>
      </trkpt>
      <trkpt lat="49.8353" lon="2.48434">
        <ele>83.5</ele>
        <time>2023-07-19T07:40:17Z</time>
      </trkpt>
      <trkpt lat="49.8353" lon="2.48437">
        <ele>83.5</ele>
        <time>2023-07-19T07:40:18Z</time>
      </trkpt>
      <trkpt lat="49.83529" lon="2.48438">
        <ele>83.5</ele>
        <time>2023-07-19T07:40:19Z</time>
      </trkpt>
      <trkpt lat="49.83528" lon="2.48442">
        <ele>83.5</ele>
        <time>2023-07-19T07:40:20Z</time>
      </trkpt>
      <trkpt lat="49.83528" lon="2.48444">
        <ele>83.5</ele>
        <time>2023-07-19T07:40:21Z</time>
      </trkpt>
      <trkpt lat="49.83528" lon="2.48445">
        <ele>83.5</ele>
        <time>2023-07-19T07:40:22Z</time>
      </trkpt>
      <trkpt lat="49.83527" lon="2.48447">
        <ele>83.4</ele>
        <time>2023-07-19T07:40:23Z</time>
      </trkpt>
      <trkpt lat="49.83527" lon="2.4845">
        <ele>83.4</ele>
        <time>2023-07-19T07:40:25Z</time>
      </trkpt>
      <trkpt lat="49.83526" lon="2.48452">
        <ele>83.4</ele>
        <time>2023-07-19T07:40:26Z</time>
      </trkpt>
      <trkpt lat="49.83526" lon="2.48455">
        <ele>83.4</ele>
        <time>2023-07-19T07:40:27Z</time>
      </trkpt>
      <trkpt lat="49.83525" lon="2.48456">
        <ele>83.4</ele>
        <time>2023-07-19T07:40:28Z</time>
      </trkpt>
      <trkpt lat="49.83525" lon="2.48458">
        <ele>83.3</ele>
        <time>2023-07-19T07:40:29Z</time>
      </trkpt>
      <trkpt lat="49.83525" lon="2.4846">
        <ele>83.3</ele>
        <time>2023-07-19T07:40:30Z</time>
      </trkpt>
      <trkpt lat="49.83524" lon="2.48462">
        <ele>83.3</ele>
        <time>2023-07-19T07:40:32Z</time>
      </trkpt>
      <trkpt lat="49.83524" lon="2.48463">
        <ele>83.3</ele>
        <time>2023-07-19T07:40:33Z</time>
      </trkpt>
      <trkpt lat="49.83524" lon="2.48464">
        <ele>83.3</ele>
        <time>2023-07-19T07:40:34Z</time>
      </trkpt>
      <trkpt lat="49.83524" lon="2.48465">
        <ele>83.3</ele>
        <time>2023-07-19T07:40:35Z</time>
      </trkpt>
      <trkpt lat="49.83523" lon="2.48467">
        <ele>83.3</ele>
        <time>2023-07-19T07:40:36Z</time>
      </trkpt>
      <trkpt lat="49.83523" lon="2.48468">
        <ele>83.3</ele>
        <time>2023-07-19T07:40:37Z</time>
      </trkpt>
      <trkpt lat="49.83523" lon="2.48469">
        <ele>83.2</ele>
        <time>2023-07-19T07:40:38Z</time>
      </trkpt>
      <trkpt lat="49.83522" lon="2.4847">
        <ele>83.2</ele>
        <time>2023-07-19T07:40:39Z</time>
      </trkpt>
      <trkpt lat="49.83522" lon="2.48472">
        <ele>83.2</ele>
        <time>2023-07-19T07:40:40Z</time>
      </trkpt>
      <trkpt lat="49.83522" lon="2.48474">
        <ele>83.2</ele>
        <time>2023-07-19T07:40:42Z</time>
      </trkpt>
      <trkpt lat="49.83522" lon="2.48476">
        <ele>83.2</ele>
        <time>2023-07-19T07:40:43Z</time>
      </trkpt>
      <trkpt lat="49.83521" lon="2.48479">
        <ele>83.2</ele>
        <time>2023-07-19T07:40:44Z</time>
      </trkpt>
      <trkpt lat="49.83521" lon="2.48482">
        <ele>83.1</ele>
        <time>2023-07-19T07:40:46Z</time>
      </trkpt>
      <trkpt lat="49.8352" lon="2.48485">
        <ele>83.1</ele>
        <time>2023-07-19T07:40:47Z</time>
      </trkpt>
      <trkpt lat="49.8352" lon="2.48487">
        <ele>83.1</ele>
        <time>2023-07-19T07:40:48Z</time>
      </trkpt>
      <trkpt lat="49.83519" lon="2.48489">
        <ele>83.1</ele>
        <time>2023-07-19T07:40:49Z</time>
      </trkpt>
      <trkpt lat="49.83519" lon="2.48491">
        <ele>83</ele>
        <time>2023-07-19T07:40:50Z</time>
      </trkpt>
      <trkpt lat="49.83519" lon="2.48492">
        <ele>83</ele>
        <time>2023-07-19T07:40:52Z</time>
      </trkpt>
      <trkpt lat="49.83519" lon="2.48494">
        <ele>83</ele>
        <time>2023-07-19T07:40:53Z</time>
      </trkpt>
      <trkpt lat="49.83518" lon="2.48497">
        <ele>83</ele>
        <time>2023-07-19T07:40:54Z</time>
      </trkpt>
      <trkpt lat="49.83518" lon="2.485">
        <ele>83</ele>
        <time>2023-07-19T07:40:56Z</time>
      </trkpt>
      <trkpt lat="49.83518" lon="2.48501">
        <ele>82.9</ele>
        <time>2023-07-19T07:40:57Z</time>
      </trkpt>
      <trkpt lat="49.83517" lon="2.48503">
        <ele>82.9</ele>
        <time>2023-07-19T07:40:58Z</time>
      </trkpt>
      <trkpt lat="49.83517" lon="2.48505">
        <ele>82.9</ele>
        <time>2023-07-19T07:40:59Z</time>
      </trkpt>
      <trkpt lat="49.83517" lon="2.48507">
        <ele>82.9</ele>
        <time>2023-07-19T07:41:00Z</time>
      </trkpt>
      <trkpt lat="49.83516" lon="2.4851">
        <ele>82.8</ele>
        <time>2023-07-19T07:41:01Z</time>
      </trkpt>
      <trkpt lat="49.83516" lon="2.48512">
        <ele>82.8</ele>
        <time>2023-07-19T07:41:02Z</time>
      </trkpt>
      <trkpt lat="49.83515" lon="2.48514">
        <ele>82.8</ele>
        <time>2023-07-19T07:41:04Z</time>
      </trkpt>
      <trkpt lat="49.83515" lon="2.48515">
        <ele>82.8</ele>
        <time>2023-07-19T07:41:05Z</time>
      </trkpt>
      <trkpt lat="49.83515" lon="2.48517">
        <ele>82.8</ele>
        <time>2023-07-19T07:41:06Z</time>
      </trkpt>
      <trkpt lat="49.83514" lon="2.48518">
        <ele>82.7</ele>
        <time>2023-07-19T07:41:07Z</time>
      </trkpt>
      <trkpt lat="49.83514" lon="2.4852">
        <ele>82.7</ele>
        <time>2023-07-19T07:41:08Z</time>
      </trkpt>
      <trkpt lat="49.83513" lon="2.48521">
        <ele>82.7</ele>
        <time>2023-07-19T07:41:09Z</time>
      </trkpt>
      <trkpt lat="49.83512" lon="2.48524">
        <ele>82.7</ele>
        <time>2023-07-19T07:41:10Z</time>
      </trkpt>
      <trkpt lat="49.83512" lon="2.48525">
        <ele>82.7</ele>
        <time>2023-07-19T07:41:11Z</time>
      </trkpt>
      <trkpt lat="49.83511" lon="2.48526">
        <ele>82.6</ele>
        <time>2023-07-19T07:41:12Z</time>
      </trkpt>
      <trkpt lat="49.83511" lon="2.48531">
        <ele>82.6</ele>
        <time>2023-07-19T07:41:14Z</time>
      </trkpt>
      <trkpt lat="49.8351" lon="2.48533">
        <ele>82.6</ele>
        <time>2023-07-19T07:41:15Z</time>
      </trkpt>
      <trkpt lat="49.83509" lon="2.48535">
        <ele>82.5</ele>
        <time>2023-07-19T07:41:17Z</time>
      </trkpt>
      <trkpt lat="49.83509" lon="2.48537">
        <ele>82.5</ele>
        <time>2023-07-19T07:41:18Z</time>
      </trkpt>
      <trkpt lat="49.83508" lon="2.4854">
        <ele>82.5</ele>
        <time>2023-07-19T07:41:19Z</time>
      </trkpt>
      <trkpt lat="49.83507" lon="2.48544">
        <ele>82.4</ele>
        <time>2023-07-19T07:41:20Z</time>
      </trkpt>
      <trkpt lat="49.83507" lon="2.48545">
        <ele>82.4</ele>
        <time>2023-07-19T07:41:21Z</time>
      </trkpt>
      <trkpt lat="49.83507" lon="2.48546">
        <ele>82.4</ele>
        <time>2023-07-19T07:41:22Z</time>
      </trkpt>
      <trkpt lat="49.83506" lon="2.48551">
        <ele>82.3</ele>
        <time>2023-07-19T07:41:24Z</time>
      </trkpt>
      <trkpt lat="49.83506" lon="2.48553">
        <ele>82.3</ele>
        <time>2023-07-19T07:41:25Z</time>
      </trkpt>
      <trkpt lat="49.83505" lon="2.48557">
        <ele>82.3</ele>
        <time>2023-07-19T07:41:27Z</time>
      </trkpt>
      <trkpt lat="49.83505" lon="2.48559">
        <ele>82.2</ele>
        <time>2023-07-19T07:41:28Z</time>
      </trkpt>
      <trkpt lat="49.83504" lon="2.48562">
        <ele>82.2</ele>
        <time>2023-07-19T07:41:29Z</time>
      </trkpt>
      <trkpt lat="49.83504" lon="2.48564">
        <ele>82.2</ele>
        <time>2023-07-19T07:41:30Z</time>
      </trkpt>
      <trkpt lat="49.83503" lon="2.48566">
        <ele>82.2</ele>
        <time>2023-07-19T07:41:31Z</time>
      </trkpt>
      <trkpt lat="49.83503" lon="2.4857">
        <ele>82.1</ele>
        <time>2023-07-19T07:41:33Z</time>
      </trkpt>
      <trkpt lat="49.83502" lon="2.48573">
        <ele>82.1</ele>
        <time>2023-07-19T07:41:34Z</time>
      </trkpt>
      <trkpt lat="49.83502" lon="2.48575">
        <ele>82.1</ele>
        <time>2023-07-19T07:41:35Z</time>
      </trkpt>
      <trkpt lat="49.83501" lon="2.4858">
        <ele>82</ele>
        <time>2023-07-19T07:41:37Z</time>
      </trkpt>
      <trkpt lat="49.835" lon="2.48582">
        <ele>82</ele>
        <time>2023-07-19T07:41:39Z</time>
      </trkpt>
      <trkpt lat="49.835" lon="2.48583">
        <ele>82</ele>
        <time>2023-07-19T07:41:40Z</time>
      </trkpt>
      <trkpt lat="49.835" lon="2.48585">
        <ele>82</ele>
        <time>2023-07-19T07:41:41Z</time>
      </trkpt>
      <trkpt lat="49.835" lon="2.48586">
        <ele>82</ele>
        <time>2023-07-19T07:41:42Z</time>
      </trkpt>
      <trkpt lat="49.83499" lon="2.48588">
        <ele>82</ele>
        <time>2023-07-19T07:41:43Z</time>
      </trkpt>
      <trkpt lat="49.83499" lon="2.48589">
        <ele>81.9</ele>
        <time>2023-07-19T07:41:44Z</time>
      </trkpt>
      <trkpt lat="49.83499" lon="2.48591">
        <ele>81.9</ele>
        <time>2023-07-19T07:41:45Z</time>
      </trkpt>
      <trkpt lat="49.83499" lon="2.48592">
        <ele>81.9</ele>
        <time>2023-07-19T07:41:47Z</time>
      </trkpt>
      <trkpt lat="49.83499" lon="2.48592">
        <ele>81.9</ele>
        <time>2023-07-19T07:41:48Z</time>
      </trkpt>
      <trkpt lat="49.83499" lon="2.48594">
        <ele>81.9</ele>
        <time>2023-07-19T07:41:49Z</time>
      </trkpt>
      <trkpt lat="49.83499" lon="2.48595">
        <ele>81.9</ele>
        <time>2023-07-19T07:41:50Z</time>
      </trkpt>
      <trkpt lat="49.83498" lon="2.48597">
        <ele>81.9</ele>
        <time>2023-07-19T07:41:51Z</time>
      </trkpt>
      <trkpt lat="49.83498" lon="2.48599">
        <ele>81.8</ele>
        <time>2023-07-19T07:41:52Z</time>
      </trkpt>
      <trkpt lat="49.83498" lon="2.486">
        <ele>81.8</ele>
        <time>2023-07-19T07:41:53Z</time>
      </trkpt>
      <trkpt lat="49.83498" lon="2.48602">
        <ele>81.8</ele>
        <time>2023-07-19T07:41:55Z</time>
      </trkpt>
      <trkpt lat="49.83498" lon="2.48603">
        <ele>81.8</ele>
        <time>2023-07-19T07:41:56Z</time>
      </trkpt>
      <trkpt lat="49.83497" lon="2.48604">
        <ele>81.8</ele>
        <time>2023-07-19T07:41:57Z</time>
      </trkpt>
      <trkpt lat="49.83497" lon="2.48606">
        <ele>81.8</ele>
        <time>2023-07-19T07:41:58Z</time>
      </trkpt>
      <trkpt lat="49.83497" lon="2.48607">
        <ele>81.8</ele>
        <time>2023-07-19T07:41:59Z</time>
      </trkpt>
      <trkpt lat="49.83497" lon="2.48607">
        <ele>81.8</ele>
        <time>2023-07-19T07:42:00Z</time>
      </trkpt>
      <trkpt lat="49.83497" lon="2.48606">
        <ele>81.8</ele>
        <time>2023-07-19T07:42:03Z</time>
      </trkpt>
      <trkpt lat="49.83497" lon="2.48606">
        <ele>81.8</ele>
        <time>2023-07-19T07:42:05Z</time>
      </trkpt>
      <trkpt lat="49.83498" lon="2.48605">
        <ele>81.8</ele>
        <time>2023-07-19T07:42:06Z</time>
      </trkpt>
      <trkpt lat="49.83498" lon="2.48605">
        <ele>81.8</ele>
        <time>2023-07-19T07:42:09Z</time>
      </trkpt>
      <trkpt lat="49.83498" lon="2.48604">
        <ele>81.7</ele>
        <time>2023-07-19T07:42:10Z</time>
      </trkpt>
      <trkpt lat="49.83498" lon="2.48604">
        <ele>81.7</ele>
        <time>2023-07-19T07:42:12Z</time>
      </trkpt>
      <trkpt lat="49.83498" lon="2.48603">
        <ele>81.7</ele>
        <time>2023-07-19T07:42:14Z</time>
      </trkpt>
      <trkpt lat="49.83498" lon="2.48603">
        <ele>81.7</ele>
        <time>2023-07-19T07:42:16Z</time>
      </trkpt>
      <trkpt lat="49.83498" lon="2.48602">
        <ele>81.7</ele>
        <time>2023-07-19T07:42:18Z</time>
      </trkpt>
      <trkpt lat="49.83498" lon="2.48602">
        <ele>81.7</ele>
        <time>2023-07-19T07:42:20Z</time>
      </trkpt>
      <trkpt lat="49.83498" lon="2.48601">
        <ele>81.7</ele>
        <time>2023-07-19T07:42:22Z</time>
      </trkpt>
      <trkpt lat="49.83498" lon="2.48601">
        <ele>81.7</ele>
        <time>2023-07-19T07:42:23Z</time>
      </trkpt>
      <trkpt lat="49.83498" lon="2.486">
        <ele>81.7</ele>
        <time>2023-07-19T07:42:24Z</time>
      </trkpt>
      <trkpt lat="49.83498" lon="2.486">
        <ele>81.7</ele>
        <time>2023-07-19T07:42:25Z</time>
      </trkpt>
      <trkpt lat="49.83498" lon="2.48599">
        <ele>81.7</ele>
        <time>2023-07-19T07:42:26Z</time>
      </trkpt>
      <trkpt lat="49.83499" lon="2.48597">
        <ele>81.7</ele>
        <time>2023-07-19T07:42:27Z</time>
      </trkpt>
      <trkpt lat="49.83499" lon="2.48596">
        <ele>81.7</ele>
        <time>2023-07-19T07:42:28Z</time>
      </trkpt>
      <trkpt lat="49.83499" lon="2.48596">
        <ele>81.7</ele>
        <time>2023-07-19T07:42:29Z</time>
      </trkpt>
      <trkpt lat="49.83499" lon="2.48595">
        <ele>81.7</ele>
        <time>2023-07-19T07:42:30Z</time>
      </trkpt>
      <trkpt lat="49.83499" lon="2.48595">
        <ele>81.7</ele>
        <time>2023-07-19T07:42:33Z</time>
      </trkpt>
      <trkpt lat="49.83499" lon="2.48595">
        <ele>81.7</ele>
        <time>2023-07-19T07:42:34Z</time>
      </trkpt>
      <trkpt lat="49.83499" lon="2.48594">
        <ele>81.7</ele>
        <time>2023-07-19T07:42:35Z</time>
      </trkpt>
      <trkpt lat="49.83499" lon="2.48594">
        <ele>81.7</ele>
        <time>2023-07-19T07:42:37Z</time>
      </trkpt>
      <trkpt lat="49.83499" lon="2.48594">
        <ele>81.7</ele>
        <time>2023-07-19T07:42:39Z</time>
      </trkpt>
      <trkpt lat="49.83499" lon="2.48594">
        <ele>81.7</ele>
        <time>2023-07-19T07:42:40Z</time>
      </trkpt>
      <trkpt lat="49.83499" lon="2.48594">
        <ele>81.7</ele>
        <time>2023-07-19T07:42:41Z</time>
      </trkpt>
      <trkpt lat="49.83499" lon="2.48594">
        <ele>81.7</ele>
        <time>2023-07-19T07:42:42Z</time>
      </trkpt>
      <trkpt lat="49.83499" lon="2.48594">
        <ele>81.7</ele>
        <time>2023-07-19T07:42:43Z</time>
      </trkpt>
      <trkpt lat="49.83499" lon="2.48594">
        <ele>81.7</ele>
        <time>2023-07-19T07:42:44Z</time>
      </trkpt>
      <trkpt lat="49.83499" lon="2.48594">
        <ele>81.7</ele>
        <time>2023-07-19T07:42:46Z</time>
      </trkpt>
      <trkpt lat="49.83499" lon="2.48594">
        <ele>81.7</ele>
        <time>2023-07-19T07:42:47Z</time>
      </trkpt>
      <trkpt lat="49.83499" lon="2.48594">
        <ele>81.7</ele>
        <time>2023-07-19T07:42:48Z</time>
      </trkpt>
      <trkpt lat="49.83499" lon="2.48594">
        <ele>81.7</ele>
        <time>2023-07-19T07:42:49Z</time>
      </trkpt>
      <trkpt lat="49.83499" lon="2.48594">
        <ele>81.7</ele>
        <time>2023-07-19T07:42:50Z</time>
      </trkpt>
      <trkpt lat="49.83499" lon="2.48594">
        <ele>81.7</ele>
        <time>2023-07-19T07:42:52Z</time>
      </trkpt>
      <trkpt lat="49.83499" lon="2.48594">
        <ele>81.7</ele>
        <time>2023-07-19T07:42:53Z</time>
      </trkpt>
      <trkpt lat="49.83499" lon="2.48594">
        <ele>81.7</ele>
        <time>2023-07-19T07:42:54Z</time>
      </trkpt>
      <trkpt lat="49.83499" lon="2.48594">
        <ele>81.7</ele>
        <time>2023-07-19T07:42:56Z</time>
      </trkpt>
      <trkpt lat="49.83499" lon="2.48594">
        <ele>81.7</ele>
        <time>2023-07-19T07:42:58Z</time>
      </trkpt>
      <trkpt lat="49.83499" lon="2.48594">
        <ele>81.7</ele>
        <time>2023-07-19T07:42:59Z</time>
      </trkpt>
      <trkpt lat="49.83499" lon="2.48594">
        <ele>81.7</ele>
        <time>2023-07-19T07:43:01Z</time>
      </trkpt>
      <trkpt lat="49.83499" lon="2.48594">
        <ele>81.7</ele>
        <time>2023-07-19T07:43:03Z</time>
      </trkpt>
      <trkpt lat="49.83499" lon="2.48594">
        <ele>81.7</ele>
        <time>2023-07-19T07:43:04Z</time>
      </trkpt>
      <trkpt lat="49.83499" lon="2.48594">
        <ele>81.7</ele>
        <time>2023-07-19T07:43:06Z</time>
      </trkpt>
      <trkpt lat="49.83499" lon="2.48594">
        <ele>81.7</ele>
        <time>2023-07-19T07:43:07Z</time>
      </trkpt>
      <trkpt lat="49.83499" lon="2.48594">
        <ele>81.7</ele>
        <time>2023-07-19T07:43:08Z</time>
      </trkpt>
      <trkpt lat="49.83499" lon="2.48594">
        <ele>81.7</ele>
        <time>2023-07-19T07:43:09Z</time>
      </trkpt>
      <trkpt lat="49.83499" lon="2.48594">
        <ele>81.7</ele>
        <time>2023-07-19T07:43:11Z</time>
      </trkpt>
      <trkpt lat="49.83499" lon="2.48594">
        <ele>81.7</ele>
        <time>2023-07-19T07:43:12Z</time>
      </trkpt>
      <trkpt lat="49.83499" lon="2.48594">
        <ele>81.7</ele>
        <time>2023-07-19T07:43:13Z</time>
      </trkpt>
      <trkpt lat="49.83499" lon="2.48594">
        <ele>81.7</ele>
        <time>2023-07-19T07:43:15Z</time>
      </trkpt>
      <trkpt lat="49.83499" lon="2.48594">
        <ele>81.7</ele>
        <time>2023-07-19T07:43:17Z</time>
      </trkpt>
      <trkpt lat="49.83499" lon="2.48594">
        <ele>81.7</ele>
        <time>2023-07-19T07:43:18Z</time>
      </trkpt>
      <trkpt lat="49.83499" lon="2.48594">
        <ele>81.7</ele>
        <time>2023-07-19T07:43:19Z</time>
      </trkpt>
      <trkpt lat="49.83499" lon="2.48594">
        <ele>81.7</ele>
        <time>2023-07-19T07:43:20Z</time>
      </trkpt>
      <trkpt lat="49.83499" lon="2.48594">
        <ele>81.7</ele>
        <time>2023-07-19T07:43:21Z</time>
      </trkpt>
      <trkpt lat="49.83499" lon="2.48594">
        <ele>81.7</ele>
        <time>2023-07-19T07:43:23Z</time>
      </trkpt>
      <trkpt lat="49.83499" lon="2.48594">
        <ele>81.7</ele>
        <time>2023-07-19T07:43:25Z</time>
      </trkpt>
      <trkpt lat="49.83499" lon="2.48594">
        <ele>81.7</ele>
        <time>2023-07-19T07:43:26Z</time>
      </trkpt>
      <trkpt lat="49.83499" lon="2.48594">
        <ele>81.7</ele>
        <time>2023-07-19T07:43:27Z</time>
      </trkpt>
      <trkpt lat="49.83499" lon="2.48594">
        <ele>81.7</ele>
        <time>2023-07-19T07:43:28Z</time>
      </trkpt>
      <trkpt lat="49.83499" lon="2.48594">
        <ele>81.7</ele>
        <time>2023-07-19T07:43:29Z</time>
      </trkpt>
      <trkpt lat="49.83499" lon="2.48594">
        <ele>81.7</ele>
        <time>2023-07-19T07:43:30Z</time>
      </trkpt>
      <trkpt lat="49.83499" lon="2.48594">
        <ele>81.7</ele>
        <time>2023-07-19T07:43:31Z</time>
      </trkpt>
      <trkpt lat="49.83499" lon="2.48594">
        <ele>81.7</ele>
        <time>2023-07-19T07:43:33Z</time>
      </trkpt>
      <trkpt lat="49.83499" lon="2.48594">
        <ele>81.7</ele>
        <time>2023-07-19T07:43:35Z</time>
      </trkpt>
      <trkpt lat="49.83499" lon="2.48594">
        <ele>81.7</ele>
        <time>2023-07-19T07:43:36Z</time>
      </trkpt>
      <trkpt lat="49.835" lon="2.48596">
        <ele>81.6</ele>
        <time>2023-07-19T07:43:37Z</time>
      </trkpt>
      <trkpt lat="49.835" lon="2.48598">
        <ele>81.6</ele>
        <time>2023-07-19T07:43:38Z</time>
      </trkpt>
      <trkpt lat="49.83499" lon="2.48599">
        <ele>81.6</ele>
        <time>2023-07-19T07:43:39Z</time>
      </trkpt>
      <trkpt lat="49.83499" lon="2.48601">
        <ele>81.6</ele>
        <time>2023-07-19T07:43:41Z</time>
      </trkpt>
      <trkpt lat="49.835" lon="2.486">
        <ele>81.6</ele>
        <time>2023-07-19T07:43:42Z</time>
      </trkpt>
      <trkpt lat="49.83499" lon="2.48602">
        <ele>81.6</ele>
        <time>2023-07-19T07:43:43Z</time>
      </trkpt>
      <trkpt lat="49.83499" lon="2.48604">
        <ele>81.5</ele>
        <time>2023-07-19T07:43:44Z</time>
      </trkpt>
      <trkpt lat="49.83498" lon="2.48607">
        <ele>81.5</ele>
        <time>2023-07-19T07:43:45Z</time>
      </trkpt>
      <trkpt lat="49.83498" lon="2.48609">
        <ele>81.5</ele>
        <time>2023-07-19T07:43:46Z</time>
      </trkpt>
      <trkpt lat="49.83497" lon="2.48612">
        <ele>81.5</ele>
        <time>2023-07-19T07:43:47Z</time>
      </trkpt>
      <trkpt lat="49.83497" lon="2.48613">
        <ele>81.5</ele>
        <time>2023-07-19T07:43:49Z</time>
      </trkpt>
      <trkpt lat="49.83497" lon="2.48614">
        <ele>81.5</ele>
        <time>2023-07-19T07:43:51Z</time>
      </trkpt>
      <trkpt lat="49.83497" lon="2.48615">
        <ele>81.6</ele>
        <time>2023-07-19T07:43:51Z</time>
      </trkpt>
      <trkpt lat="49.83496" lon="2.48614">
        <ele>81.6</ele>
        <time>2023-07-19T07:43:53Z</time>
      </trkpt>
      <trkpt lat="49.83496" lon="2.48613">
        <ele>81.6</ele>
        <time>2023-07-19T07:43:54Z</time>
      </trkpt>
      <trkpt lat="49.83496" lon="2.48614">
        <ele>81.6</ele>
        <time>2023-07-19T07:43:56Z</time>
      </trkpt>
      <trkpt lat="49.83496" lon="2.48616">
        <ele>81.6</ele>
        <time>2023-07-19T07:43:58Z</time>
      </trkpt>
      <trkpt lat="49.83495" lon="2.48617">
        <ele>81.6</ele>
        <time>2023-07-19T07:43:59Z</time>
      </trkpt>
      <trkpt lat="49.83495" lon="2.48619">
        <ele>81.6</ele>
        <time>2023-07-19T07:44:00Z</time>
      </trkpt>
      <trkpt lat="49.83495" lon="2.48621">
        <ele>81.7</ele>
        <time>2023-07-19T07:44:01Z</time>
      </trkpt>
      <trkpt lat="49.83494" lon="2.48623">
        <ele>81.7</ele>
        <time>2023-07-19T07:44:03Z</time>
      </trkpt>
      <trkpt lat="49.83494" lon="2.48625">
        <ele>81.7</ele>
        <time>2023-07-19T07:44:04Z</time>
      </trkpt>
      <trkpt lat="49.83494" lon="2.48626">
        <ele>81.7</ele>
        <time>2023-07-19T07:44:05Z</time>
      </trkpt>
      <trkpt lat="49.83493" lon="2.48627">
        <ele>81.8</ele>
        <time>2023-07-19T07:44:06Z</time>
      </trkpt>
      <trkpt lat="49.83493" lon="2.48628">
        <ele>81.8</ele>
        <time>2023-07-19T07:44:07Z</time>
      </trkpt>
      <trkpt lat="49.83493" lon="2.48631">
        <ele>81.8</ele>
        <time>2023-07-19T07:44:08Z</time>
      </trkpt>
      <trkpt lat="49.83492" lon="2.48632">
        <ele>81.8</ele>
        <time>2023-07-19T07:44:09Z</time>
      </trkpt>
      <trkpt lat="49.83492" lon="2.48633">
        <ele>81.8</ele>
        <time>2023-07-19T07:44:10Z</time>
      </trkpt>
      <trkpt lat="49.83492" lon="2.48634">
        <ele>81.9</ele>
        <time>2023-07-19T07:44:12Z</time>
      </trkpt>
      <trkpt lat="49.83491" lon="2.48635">
        <ele>81.9</ele>
        <time>2023-07-19T07:44:13Z</time>
      </trkpt>
      <trkpt lat="49.83491" lon="2.48636">
        <ele>81.9</ele>
        <time>2023-07-19T07:44:14Z</time>
      </trkpt>
      <trkpt lat="49.83491" lon="2.48637">
        <ele>81.9</ele>
        <time>2023-07-19T07:44:15Z</time>
      </trkpt>
      <trkpt lat="49.8349" lon="2.48638">
        <ele>81.9</ele>
        <time>2023-07-19T07:44:16Z</time>
      </trkpt>
      <trkpt lat="49.8349" lon="2.4864">
        <ele>82</ele>
        <time>2023-07-19T07:44:17Z</time>
      </trkpt>
      <trkpt lat="49.8349" lon="2.48642">
        <ele>82</ele>
        <time>2023-07-19T07:44:19Z</time>
      </trkpt>
      <trkpt lat="49.83489" lon="2.48643">
        <ele>82.1</ele>
        <time>2023-07-19T07:44:20Z</time>
      </trkpt>
      <trkpt lat="49.83488" lon="2.48644">
        <ele>82.1</ele>
        <time>2023-07-19T07:44:21Z</time>
      </trkpt>
      <trkpt lat="49.83488" lon="2.48646">
        <ele>82.1</ele>
        <time>2023-07-19T07:44:22Z</time>
      </trkpt>
      <trkpt lat="49.83487" lon="2.48647">
        <ele>82.2</ele>
        <time>2023-07-19T07:44:23Z</time>
      </trkpt>
      <trkpt lat="49.83487" lon="2.48648">
        <ele>82.2</ele>
        <time>2023-07-19T07:44:24Z</time>
      </trkpt>
      <trkpt lat="49.83486" lon="2.48649">
        <ele>82.2</ele>
        <time>2023-07-19T07:44:26Z</time>
      </trkpt>
      <trkpt lat="49.83486" lon="2.48651">
        <ele>82.3</ele>
        <time>2023-07-19T07:44:27Z</time>
      </trkpt>
      <trkpt lat="49.83485" lon="2.48654">
        <ele>82.4</ele>
        <time>2023-07-19T07:44:28Z</time>
      </trkpt>
      <trkpt lat="49.83484" lon="2.48655">
        <ele>82.4</ele>
        <time>2023-07-19T07:44:30Z</time>
      </trkpt>
      <trkpt lat="49.83484" lon="2.48656">
        <ele>82.4</ele>
        <time>2023-07-19T07:44:31Z</time>
      </trkpt>
      <trkpt lat="49.83484" lon="2.48658">
        <ele>82.5</ele>
        <time>2023-07-19T07:44:32Z</time>
      </trkpt>
      <trkpt lat="49.83483" lon="2.48659">
        <ele>82.5</ele>
        <time>2023-07-19T07:44:33Z</time>
      </trkpt>
      <trkpt lat="49.83482" lon="2.48662">
        <ele>82.6</ele>
        <time>2023-07-19T07:44:35Z</time>
      </trkpt>
      <trkpt lat="49.83482" lon="2.48663">
        <ele>82.7</ele>
        <time>2023-07-19T07:44:37Z</time>
      </trkpt>
      <trkpt lat="49.83481" lon="2.48665">
        <ele>82.8</ele>
        <time>2023-07-19T07:44:38Z</time>
      </trkpt>
      <trkpt lat="49.83481" lon="2.48667">
        <ele>82.8</ele>
        <time>2023-07-19T07:44:39Z</time>
      </trkpt>
      <trkpt lat="49.83481" lon="2.48668">
        <ele>82.9</ele>
        <time>2023-07-19T07:44:40Z</time>
      </trkpt>
      <trkpt lat="49.8348" lon="2.4867">
        <ele>82.9</ele>
        <time>2023-07-19T07:44:41Z</time>
      </trkpt>
      <trkpt lat="49.8348" lon="2.48671">
        <ele>83</ele>
        <time>2023-07-19T07:44:43Z</time>
      </trkpt>
      <trkpt lat="49.8348" lon="2.48673">
        <ele>83</ele>
        <time>2023-07-19T07:44:44Z</time>
      </trkpt>
      <trkpt lat="49.83479" lon="2.48675">
        <ele>83.1</ele>
        <time>2023-07-19T07:44:45Z</time>
      </trkpt>
      <trkpt lat="49.83478" lon="2.48678">
        <ele>83.2</ele>
        <time>2023-07-19T07:44:46Z</time>
      </trkpt>
      <trkpt lat="49.83478" lon="2.48679">
        <ele>83.2</ele>
        <time>2023-07-19T07:44:47Z</time>
      </trkpt>
      <trkpt lat="49.83478" lon="2.4868">
        <ele>83.3</ele>
        <time>2023-07-19T07:44:48Z</time>
      </trkpt>
      <trkpt lat="49.83477" lon="2.48681">
        <ele>83.3</ele>
        <time>2023-07-19T07:44:49Z</time>
      </trkpt>
      <trkpt lat="49.83476" lon="2.48682">
        <ele>83.4</ele>
        <time>2023-07-19T07:44:51Z</time>
      </trkpt>
      <trkpt lat="49.83476" lon="2.48684">
        <ele>83.4</ele>
        <time>2023-07-19T07:44:52Z</time>
      </trkpt>
      <trkpt lat="49.83474" lon="2.48688">
        <ele>83.6</ele>
        <time>2023-07-19T07:44:53Z</time>
      </trkpt>
      <trkpt lat="49.83474" lon="2.4869">
        <ele>83.7</ele>
        <time>2023-07-19T07:44:54Z</time>
      </trkpt>
      <trkpt lat="49.83473" lon="2.48692">
        <ele>83.8</ele>
        <time>2023-07-19T07:44:55Z</time>
      </trkpt>
      <trkpt lat="49.83472" lon="2.48694">
        <ele>83.9</ele>
        <time>2023-07-19T07:44:56Z</time>
      </trkpt>
      <trkpt lat="49.8347" lon="2.48699">
        <ele>84</ele>
        <time>2023-07-19T07:44:58Z</time>
      </trkpt>
      <trkpt lat="49.8347" lon="2.48701">
        <ele>84.1</ele>
        <time>2023-07-19T07:44:59Z</time>
      </trkpt>
      <trkpt lat="49.83468" lon="2.48705">
        <ele>84.2</ele>
        <time>2023-07-19T07:45:01Z</time>
      </trkpt>
      <trkpt lat="49.83468" lon="2.48707">
        <ele>84.3</ele>
        <time>2023-07-19T07:45:02Z</time>
      </trkpt>
      <trkpt lat="49.83467" lon="2.48711">
        <ele>84.4</ele>
        <time>2023-07-19T07:45:03Z</time>
      </trkpt>
      <trkpt lat="49.83467" lon="2.48712">
        <ele>84.5</ele>
        <time>2023-07-19T07:45:05Z</time>
      </trkpt>
      <trkpt lat="49.83467" lon="2.48714">
        <ele>84.6</ele>
        <time>2023-07-19T07:45:06Z</time>
      </trkpt>
      <trkpt lat="49.83466" lon="2.48715">
        <ele>84.6</ele>
        <time>2023-07-19T07:45:07Z</time>
      </trkpt>
      <trkpt lat="49.83466" lon="2.48717">
        <ele>84.7</ele>
        <time>2023-07-19T07:45:08Z</time>
      </trkpt>
      <trkpt lat="49.83466" lon="2.4872">
        <ele>84.8</ele>
        <time>2023-07-19T07:45:09Z</time>
      </trkpt>
      <trkpt lat="49.83465" lon="2.48721">
        <ele>84.9</ele>
        <time>2023-07-19T07:45:10Z</time>
      </trkpt>
      <trkpt lat="49.83465" lon="2.48723">
        <ele>84.9</ele>
        <time>2023-07-19T07:45:11Z</time>
      </trkpt>
      <trkpt lat="49.83464" lon="2.48726">
        <ele>85.1</ele>
        <time>2023-07-19T07:45:13Z</time>
      </trkpt>
      <trkpt lat="49.83464" lon="2.48727">
        <ele>85.1</ele>
        <time>2023-07-19T07:45:14Z</time>
      </trkpt>
      <trkpt lat="49.83464" lon="2.48728">
        <ele>85.2</ele>
        <time>2023-07-19T07:45:15Z</time>
      </trkpt>
      <trkpt lat="49.83463" lon="2.4873">
        <ele>85.2</ele>
        <time>2023-07-19T07:45:16Z</time>
      </trkpt>
      <trkpt lat="49.83462" lon="2.48731">
        <ele>85.3</ele>
        <time>2023-07-19T07:45:17Z</time>
      </trkpt>
      <trkpt lat="49.83462" lon="2.48733">
        <ele>85.4</ele>
        <time>2023-07-19T07:45:18Z</time>
      </trkpt>
      <trkpt lat="49.83461" lon="2.48736">
        <ele>85.5</ele>
        <time>2023-07-19T07:45:20Z</time>
      </trkpt>
      <trkpt lat="49.83461" lon="2.48737">
        <ele>85.6</ele>
        <time>2023-07-19T07:45:21Z</time>
      </trkpt>
      <trkpt lat="49.83461" lon="2.48739">
        <ele>85.7</ele>
        <time>2023-07-19T07:45:22Z</time>
      </trkpt>
      <trkpt lat="49.8346" lon="2.4874">
        <ele>85.8</ele>
        <time>2023-07-19T07:45:23Z</time>
      </trkpt>
      <trkpt lat="49.8346" lon="2.48742">
        <ele>85.8</ele>
        <time>2023-07-19T07:45:24Z</time>
      </trkpt>
      <trkpt lat="49.8346" lon="2.48744">
        <ele>85.9</ele>
        <time>2023-07-19T07:45:26Z</time>
      </trkpt>
      <trkpt lat="49.83459" lon="2.48746">
        <ele>86</ele>
        <time>2023-07-19T07:45:27Z</time>
      </trkpt>
      <trkpt lat="49.83458" lon="2.48747">
        <ele>86.1</ele>
        <time>2023-07-19T07:45:28Z</time>
      </trkpt>
      <trkpt lat="49.83458" lon="2.48749">
        <ele>86.2</ele>
        <time>2023-07-19T07:45:29Z</time>
      </trkpt>
      <trkpt lat="49.83457" lon="2.48751">
        <ele>86.4</ele>
        <time>2023-07-19T07:45:30Z</time>
      </trkpt>
      <trkpt lat="49.83456" lon="2.48753">
        <ele>86.4</ele>
        <time>2023-07-19T07:45:31Z</time>
      </trkpt>
      <trkpt lat="49.83456" lon="2.48754">
        <ele>86.5</ele>
        <time>2023-07-19T07:45:33Z</time>
      </trkpt>
      <trkpt lat="49.83455" lon="2.48755">
        <ele>86.6</ele>
        <time>2023-07-19T07:45:34Z</time>
      </trkpt>
      <trkpt lat="49.83454" lon="2.48757">
        <ele>86.7</ele>
        <time>2023-07-19T07:45:35Z</time>
      </trkpt>
      <trkpt lat="49.83454" lon="2.48758">
        <ele>86.8</ele>
        <time>2023-07-19T07:45:36Z</time>
      </trkpt>
      <trkpt lat="49.83453" lon="2.48759">
        <ele>86.8</ele>
        <time>2023-07-19T07:45:37Z</time>
      </trkpt>
      <trkpt lat="49.83452" lon="2.4876">
        <ele>86.9</ele>
        <time>2023-07-19T07:45:39Z</time>
      </trkpt>
      <trkpt lat="49.83452" lon="2.48762">
        <ele>87</ele>
        <time>2023-07-19T07:45:40Z</time>
      </trkpt>
      <trkpt lat="49.83451" lon="2.48763">
        <ele>87.1</ele>
        <time>2023-07-19T07:45:41Z</time>
      </trkpt>
      <trkpt lat="49.8345" lon="2.48765">
        <ele>87.1</ele>
        <time>2023-07-19T07:45:42Z</time>
      </trkpt>
      <trkpt lat="49.83449" lon="2.48767">
        <ele>87.3</ele>
        <time>2023-07-19T07:45:44Z</time>
      </trkpt>
      <trkpt lat="49.83449" lon="2.48768">
        <ele>87.3</ele>
        <time>2023-07-19T07:45:45Z</time>
      </trkpt>
      <trkpt lat="49.83448" lon="2.4877">
        <ele>87.4</ele>
        <time>2023-07-19T07:45:47Z</time>
      </trkpt>
      <trkpt lat="49.83447" lon="2.48771">
        <ele>87.5</ele>
        <time>2023-07-19T07:45:48Z</time>
      </trkpt>
      <trkpt lat="49.83446" lon="2.48772">
        <ele>87.5</ele>
        <time>2023-07-19T07:45:49Z</time>
      </trkpt>
      <trkpt lat="49.83446" lon="2.48773">
        <ele>87.6</ele>
        <time>2023-07-19T07:45:50Z</time>
      </trkpt>
      <trkpt lat="49.83445" lon="2.48775">
        <ele>87.7</ele>
        <time>2023-07-19T07:45:51Z</time>
      </trkpt>
      <trkpt lat="49.83444" lon="2.48776">
        <ele>87.8</ele>
        <time>2023-07-19T07:45:52Z</time>
      </trkpt>
      <trkpt lat="49.83444" lon="2.48777">
        <ele>87.8</ele>
        <time>2023-07-19T07:45:54Z</time>
      </trkpt>
      <trkpt lat="49.83443" lon="2.48779">
        <ele>87.9</ele>
        <time>2023-07-19T07:45:55Z</time>
      </trkpt>
      <trkpt lat="49.83442" lon="2.48781">
        <ele>88</ele>
        <time>2023-07-19T07:45:56Z</time>
      </trkpt>
      <trkpt lat="49.83442" lon="2.48782">
        <ele>88</ele>
        <time>2023-07-19T07:45:57Z</time>
      </trkpt>
      <trkpt lat="49.83441" lon="2.48784">
        <ele>88.2</ele>
        <time>2023-07-19T07:45:58Z</time>
      </trkpt>
      <trkpt lat="49.8344" lon="2.48785">
        <ele>88.3</ele>
        <time>2023-07-19T07:45:59Z</time>
      </trkpt>
      <trkpt lat="49.83439" lon="2.48786">
        <ele>88.3</ele>
        <time>2023-07-19T07:46:01Z</time>
      </trkpt>
      <trkpt lat="49.83439" lon="2.48788">
        <ele>88.4</ele>
        <time>2023-07-19T07:46:02Z</time>
      </trkpt>
      <trkpt lat="49.83438" lon="2.48789">
        <ele>88.5</ele>
        <time>2023-07-19T07:46:03Z</time>
      </trkpt>
      <trkpt lat="49.83437" lon="2.4879">
        <ele>88.5</ele>
        <time>2023-07-19T07:46:04Z</time>
      </trkpt>
      <trkpt lat="49.83437" lon="2.48791">
        <ele>88.6</ele>
        <time>2023-07-19T07:46:05Z</time>
      </trkpt>
      <trkpt lat="49.83436" lon="2.48792">
        <ele>88.7</ele>
        <time>2023-07-19T07:46:06Z</time>
      </trkpt>
      <trkpt lat="49.83435" lon="2.48794">
        <ele>88.8</ele>
        <time>2023-07-19T07:46:08Z</time>
      </trkpt>
      <trkpt lat="49.83434" lon="2.48795">
        <ele>88.9</ele>
        <time>2023-07-19T07:46:09Z</time>
      </trkpt>
      <trkpt lat="49.83434" lon="2.48797">
        <ele>88.9</ele>
        <time>2023-07-19T07:46:10Z</time>
      </trkpt>
      <trkpt lat="49.83433" lon="2.48798">
        <ele>89</ele>
        <time>2023-07-19T07:46:11Z</time>
      </trkpt>
      <trkpt lat="49.83432" lon="2.488">
        <ele>89.1</ele>
        <time>2023-07-19T07:46:12Z</time>
      </trkpt>
      <trkpt lat="49.83431" lon="2.48801">
        <ele>89.2</ele>
        <time>2023-07-19T07:46:14Z</time>
      </trkpt>
      <trkpt lat="49.83431" lon="2.48803">
        <ele>89.3</ele>
        <time>2023-07-19T07:46:15Z</time>
      </trkpt>
      <trkpt lat="49.8343" lon="2.48804">
        <ele>89.3</ele>
        <time>2023-07-19T07:46:16Z</time>
      </trkpt>
      <trkpt lat="49.8343" lon="2.48805">
        <ele>89.4</ele>
        <time>2023-07-19T07:46:17Z</time>
      </trkpt>
      <trkpt lat="49.83429" lon="2.48807">
        <ele>89.5</ele>
        <time>2023-07-19T07:46:18Z</time>
      </trkpt>
      <trkpt lat="49.83429" lon="2.48808">
        <ele>89.6</ele>
        <time>2023-07-19T07:46:19Z</time>
      </trkpt>
      <trkpt lat="49.83428" lon="2.4881">
        <ele>89.6</ele>
        <time>2023-07-19T07:46:20Z</time>
      </trkpt>
      <trkpt lat="49.83427" lon="2.48811">
        <ele>89.7</ele>
        <time>2023-07-19T07:46:21Z</time>
      </trkpt>
      <trkpt lat="49.83426" lon="2.48813">
        <ele>89.9</ele>
        <time>2023-07-19T07:46:23Z</time>
      </trkpt>
      <trkpt lat="49.83425" lon="2.48814">
        <ele>89.9</ele>
        <time>2023-07-19T07:46:24Z</time>
      </trkpt>
      <trkpt lat="49.83425" lon="2.48815">
        <ele>90</ele>
        <time>2023-07-19T07:46:25Z</time>
      </trkpt>
      <trkpt lat="49.83424" lon="2.48817">
        <ele>90.1</ele>
        <time>2023-07-19T07:46:27Z</time>
      </trkpt>
      <trkpt lat="49.83423" lon="2.48818">
        <ele>90.2</ele>
        <time>2023-07-19T07:46:28Z</time>
      </trkpt>
      <trkpt lat="49.83423" lon="2.4882">
        <ele>90.2</ele>
        <time>2023-07-19T07:46:30Z</time>
      </trkpt>
      <trkpt lat="49.83422" lon="2.48821">
        <ele>90.3</ele>
        <time>2023-07-19T07:46:31Z</time>
      </trkpt>
      <trkpt lat="49.83422" lon="2.48822">
        <ele>90.4</ele>
        <time>2023-07-19T07:46:32Z</time>
      </trkpt>
      <trkpt lat="49.83421" lon="2.48825">
        <ele>90.5</ele>
        <time>2023-07-19T07:46:33Z</time>
      </trkpt>
      <trkpt lat="49.8342" lon="2.48827">
        <ele>90.6</ele>
        <time>2023-07-19T07:46:35Z</time>
      </trkpt>
      <trkpt lat="49.8342" lon="2.48828">
        <ele>90.7</ele>
        <time>2023-07-19T07:46:37Z</time>
      </trkpt>
      <trkpt lat="49.83419" lon="2.4883">
        <ele>90.8</ele>
        <time>2023-07-19T07:46:38Z</time>
      </trkpt>
      <trkpt lat="49.83419" lon="2.48831">
        <ele>90.9</ele>
        <time>2023-07-19T07:46:39Z</time>
      </trkpt>
      <trkpt lat="49.83418" lon="2.48833">
        <ele>90.9</ele>
        <time>2023-07-19T07:46:40Z</time>
      </trkpt>
      <trkpt lat="49.83418" lon="2.48834">
        <ele>91</ele>
        <time>2023-07-19T07:46:41Z</time>
      </trkpt>
      <trkpt lat="49.83417" lon="2.48835">
        <ele>91.1</ele>
        <time>2023-07-19T07:46:42Z</time>
      </trkpt>
      <trkpt lat="49.83416" lon="2.48837">
        <ele>91.1</ele>
        <time>2023-07-19T07:46:43Z</time>
      </trkpt>
      <trkpt lat="49.83416" lon="2.48838">
        <ele>91.2</ele>
        <time>2023-07-19T07:46:45Z</time>
      </trkpt>
      <trkpt lat="49.83415" lon="2.48839">
        <ele>91.3</ele>
        <time>2023-07-19T07:46:46Z</time>
      </trkpt>
      <trkpt lat="49.83414" lon="2.48842">
        <ele>91.4</ele>
        <time>2023-07-19T07:46:47Z</time>
      </trkpt>
      <trkpt lat="49.83413" lon="2.48844">
        <ele>91.5</ele>
        <time>2023-07-19T07:46:48Z</time>
      </trkpt>
      <trkpt lat="49.83412" lon="2.48845">
        <ele>91.6</ele>
        <time>2023-07-19T07:46:50Z</time>
      </trkpt>
      <trkpt lat="49.83412" lon="2.48846">
        <ele>91.7</ele>
        <time>2023-07-19T07:46:52Z</time>
      </trkpt>
      <trkpt lat="49.83411" lon="2.48848">
        <ele>91.7</ele>
        <time>2023-07-19T07:46:53Z</time>
      </trkpt>
      <trkpt lat="49.8341" lon="2.48849">
        <ele>91.8</ele>
        <time>2023-07-19T07:46:54Z</time>
      </trkpt>
      <trkpt lat="49.8341" lon="2.48851">
        <ele>91.9</ele>
        <time>2023-07-19T07:46:55Z</time>
      </trkpt>
      <trkpt lat="49.83409" lon="2.48852">
        <ele>91.9</ele>
        <time>2023-07-19T07:46:56Z</time>
      </trkpt>
      <trkpt lat="49.83409" lon="2.48853">
        <ele>92</ele>
        <time>2023-07-19T07:46:57Z</time>
      </trkpt>
      <trkpt lat="49.83408" lon="2.48855">
        <ele>92.1</ele>
        <time>2023-07-19T07:46:59Z</time>
      </trkpt>
      <trkpt lat="49.83407" lon="2.48856">
        <ele>92.1</ele>
        <time>2023-07-19T07:47:00Z</time>
      </trkpt>
      <trkpt lat="49.83407" lon="2.48858">
        <ele>92.2</ele>
        <time>2023-07-19T07:47:01Z</time>
      </trkpt>
      <trkpt lat="49.83406" lon="2.48859">
        <ele>92.3</ele>
        <time>2023-07-19T07:47:02Z</time>
      </trkpt>
      <trkpt lat="49.83405" lon="2.4886">
        <ele>92.3</ele>
        <time>2023-07-19T07:47:03Z</time>
      </trkpt>
      <trkpt lat="49.83404" lon="2.48862">
        <ele>92.4</ele>
        <time>2023-07-19T07:47:04Z</time>
      </trkpt>
      <trkpt lat="49.83403" lon="2.48863">
        <ele>92.5</ele>
        <time>2023-07-19T07:47:06Z</time>
      </trkpt>
      <trkpt lat="49.83403" lon="2.48864">
        <ele>92.5</ele>
        <time>2023-07-19T07:47:07Z</time>
      </trkpt>
      <trkpt lat="49.83402" lon="2.48866">
        <ele>92.6</ele>
        <time>2023-07-19T07:47:08Z</time>
      </trkpt>
      <trkpt lat="49.83401" lon="2.48867">
        <ele>92.6</ele>
        <time>2023-07-19T07:47:09Z</time>
      </trkpt>
      <trkpt lat="49.83401" lon="2.48868">
        <ele>92.7</ele>
        <time>2023-07-19T07:47:10Z</time>
      </trkpt>
      <trkpt lat="49.834" lon="2.48869">
        <ele>92.7</ele>
        <time>2023-07-19T07:47:11Z</time>
      </trkpt>
      <trkpt lat="49.834" lon="2.4887">
        <ele>92.8</ele>
        <time>2023-07-19T07:47:13Z</time>
      </trkpt>
      <trkpt lat="49.83399" lon="2.48872">
        <ele>92.9</ele>
        <time>2023-07-19T07:47:14Z</time>
      </trkpt>
      <trkpt lat="49.83398" lon="2.48874">
        <ele>93</ele>
        <time>2023-07-19T07:47:15Z</time>
      </trkpt>
      <trkpt lat="49.83397" lon="2.48876">
        <ele>93</ele>
        <time>2023-07-19T07:47:17Z</time>
      </trkpt>
      <trkpt lat="49.83397" lon="2.48877">
        <ele>93.1</ele>
        <time>2023-07-19T07:47:18Z</time>
      </trkpt>
      <trkpt lat="49.83396" lon="2.48879">
        <ele>93.2</ele>
        <time>2023-07-19T07:47:19Z</time>
      </trkpt>
      <trkpt lat="49.83396" lon="2.4888">
        <ele>93.2</ele>
        <time>2023-07-19T07:47:20Z</time>
      </trkpt>
      <trkpt lat="49.83395" lon="2.48883">
        <ele>93.3</ele>
        <time>2023-07-19T07:47:21Z</time>
      </trkpt>
      <trkpt lat="49.83394" lon="2.48884">
        <ele>93.4</ele>
        <time>2023-07-19T07:47:23Z</time>
      </trkpt>
      <trkpt lat="49.83394" lon="2.48885">
        <ele>93.4</ele>
        <time>2023-07-19T07:47:24Z</time>
      </trkpt>
      <trkpt lat="49.83393" lon="2.48887">
        <ele>93.5</ele>
        <time>2023-07-19T07:47:25Z</time>
      </trkpt>
      <trkpt lat="49.83392" lon="2.48888">
        <ele>93.5</ele>
        <time>2023-07-19T07:47:26Z</time>
      </trkpt>
      <trkpt lat="49.83392" lon="2.48889">
        <ele>93.6</ele>
        <time>2023-07-19T07:47:27Z</time>
      </trkpt>
      <trkpt lat="49.83391" lon="2.48891">
        <ele>93.6</ele>
        <time>2023-07-19T07:47:29Z</time>
      </trkpt>
      <trkpt lat="49.8339" lon="2.48892">
        <ele>93.7</ele>
        <time>2023-07-19T07:47:30Z</time>
      </trkpt>
      <trkpt lat="49.8339" lon="2.48894">
        <ele>93.8</ele>
        <time>2023-07-19T07:47:31Z</time>
      </trkpt>
      <trkpt lat="49.83389" lon="2.48896">
        <ele>93.9</ele>
        <time>2023-07-19T07:47:32Z</time>
      </trkpt>
      <trkpt lat="49.83389" lon="2.48898">
        <ele>93.9</ele>
        <time>2023-07-19T07:47:33Z</time>
      </trkpt>
      <trkpt lat="49.83388" lon="2.48899">
        <ele>93.9</ele>
        <time>2023-07-19T07:47:34Z</time>
      </trkpt>
      <trkpt lat="49.83388" lon="2.489">
        <ele>94</ele>
        <time>2023-07-19T07:47:35Z</time>
      </trkpt>
      <trkpt lat="49.83387" lon="2.48902">
        <ele>94.1</ele>
        <time>2023-07-19T07:47:37Z</time>
      </trkpt>
      <trkpt lat="49.83386" lon="2.48903">
        <ele>94.1</ele>
        <time>2023-07-19T07:47:38Z</time>
      </trkpt>
      <trkpt lat="49.83386" lon="2.48905">
        <ele>94.2</ele>
        <time>2023-07-19T07:47:39Z</time>
      </trkpt>
      <trkpt lat="49.83385" lon="2.48906">
        <ele>94.2</ele>
        <time>2023-07-19T07:47:40Z</time>
      </trkpt>
      <trkpt lat="49.83385" lon="2.48908">
        <ele>94.3</ele>
        <time>2023-07-19T07:47:41Z</time>
      </trkpt>
      <trkpt lat="49.83384" lon="2.48909">
        <ele>94.3</ele>
        <time>2023-07-19T07:47:42Z</time>
      </trkpt>
      <trkpt lat="49.83384" lon="2.4891">
        <ele>94.4</ele>
        <time>2023-07-19T07:47:44Z</time>
      </trkpt>
      <trkpt lat="49.83383" lon="2.48912">
        <ele>94.4</ele>
        <time>2023-07-19T07:47:45Z</time>
      </trkpt>
      <trkpt lat="49.83382" lon="2.48915">
        <ele>94.5</ele>
        <time>2023-07-19T07:47:46Z</time>
      </trkpt>
      <trkpt lat="49.83382" lon="2.48917">
        <ele>94.6</ele>
        <time>2023-07-19T07:47:47Z</time>
      </trkpt>
      <trkpt lat="49.83382" lon="2.48918">
        <ele>94.6</ele>
        <time>2023-07-19T07:47:48Z</time>
      </trkpt>
      <trkpt lat="49.83381" lon="2.48919">
        <ele>94.6</ele>
        <time>2023-07-19T07:47:50Z</time>
      </trkpt>
      <trkpt lat="49.83381" lon="2.48921">
        <ele>94.7</ele>
        <time>2023-07-19T07:47:51Z</time>
      </trkpt>
      <trkpt lat="49.8338" lon="2.48923">
        <ele>94.7</ele>
        <time>2023-07-19T07:47:52Z</time>
      </trkpt>
      <trkpt lat="49.8338" lon="2.48926">
        <ele>94.8</ele>
        <time>2023-07-19T07:47:53Z</time>
      </trkpt>
      <trkpt lat="49.83379" lon="2.48927">
        <ele>94.9</ele>
        <time>2023-07-19T07:47:54Z</time>
      </trkpt>
      <trkpt lat="49.83379" lon="2.48928">
        <ele>94.9</ele>
        <time>2023-07-19T07:47:55Z</time>
      </trkpt>
      <trkpt lat="49.83378" lon="2.48931">
        <ele>95</ele>
        <time>2023-07-19T07:47:56Z</time>
      </trkpt>
      <trkpt lat="49.83378" lon="2.48932">
        <ele>95</ele>
        <time>2023-07-19T07:47:58Z</time>
      </trkpt>
      <trkpt lat="49.83377" lon="2.48934">
        <ele>95</ele>
        <time>2023-07-19T07:47:59Z</time>
      </trkpt>
      <trkpt lat="49.83377" lon="2.48936">
        <ele>95.1</ele>
        <time>2023-07-19T07:48:00Z</time>
      </trkpt>
      <trkpt lat="49.83376" lon="2.48938">
        <ele>95.1</ele>
        <time>2023-07-19T07:48:01Z</time>
      </trkpt>
      <trkpt lat="49.83376" lon="2.48939">
        <ele>95.2</ele>
        <time>2023-07-19T07:48:02Z</time>
      </trkpt>
      <trkpt lat="49.83375" lon="2.48941">
        <ele>95.2</ele>
        <time>2023-07-19T07:48:03Z</time>
      </trkpt>
      <trkpt lat="49.83375" lon="2.48943">
        <ele>95.2</ele>
        <time>2023-07-19T07:48:05Z</time>
      </trkpt>
      <trkpt lat="49.83375" lon="2.48945">
        <ele>95.3</ele>
        <time>2023-07-19T07:48:06Z</time>
      </trkpt>
      <trkpt lat="49.83374" lon="2.48947">
        <ele>95.3</ele>
        <time>2023-07-19T07:48:07Z</time>
      </trkpt>
      <trkpt lat="49.83373" lon="2.4895">
        <ele>95.4</ele>
        <time>2023-07-19T07:48:08Z</time>
      </trkpt>
      <trkpt lat="49.83373" lon="2.48951">
        <ele>95.4</ele>
        <time>2023-07-19T07:48:09Z</time>
      </trkpt>
      <trkpt lat="49.83372" lon="2.48952">
        <ele>95.4</ele>
        <time>2023-07-19T07:48:10Z</time>
      </trkpt>
      <trkpt lat="49.83371" lon="2.48955">
        <ele>95.5</ele>
        <time>2023-07-19T07:48:12Z</time>
      </trkpt>
      <trkpt lat="49.83371" lon="2.48956">
        <ele>95.5</ele>
        <time>2023-07-19T07:48:13Z</time>
      </trkpt>
      <trkpt lat="49.8337" lon="2.48958">
        <ele>95.5</ele>
        <time>2023-07-19T07:48:14Z</time>
      </trkpt>
      <trkpt lat="49.83369" lon="2.48961">
        <ele>95.6</ele>
        <time>2023-07-19T07:48:15Z</time>
      </trkpt>
      <trkpt lat="49.83369" lon="2.48962">
        <ele>95.6</ele>
        <time>2023-07-19T07:48:17Z</time>
      </trkpt>
      <trkpt lat="49.83368" lon="2.48963">
        <ele>95.6</ele>
        <time>2023-07-19T07:48:18Z</time>
      </trkpt>
      <trkpt lat="49.83368" lon="2.48966">
        <ele>95.6</ele>
        <time>2023-07-19T07:48:19Z</time>
      </trkpt>
      <trkpt lat="49.83367" lon="2.48967">
        <ele>95.7</ele>
        <time>2023-07-19T07:48:20Z</time>
      </trkpt>
      <trkpt lat="49.83367" lon="2.48969">
        <ele>95.7</ele>
        <time>2023-07-19T07:48:21Z</time>
      </trkpt>
      <trkpt lat="49.83366" lon="2.48971">
        <ele>95.7</ele>
        <time>2023-07-19T07:48:22Z</time>
      </trkpt>
      <trkpt lat="49.83366" lon="2.48973">
        <ele>95.7</ele>
        <time>2023-07-19T07:48:23Z</time>
      </trkpt>
      <trkpt lat="49.83366" lon="2.48974">
        <ele>95.7</ele>
        <time>2023-07-19T07:48:24Z</time>
      </trkpt>
      <trkpt lat="49.83365" lon="2.48975">
        <ele>95.7</ele>
        <time>2023-07-19T07:48:26Z</time>
      </trkpt>
      <trkpt lat="49.83364" lon="2.48978">
        <ele>95.8</ele>
        <time>2023-07-19T07:48:27Z</time>
      </trkpt>
      <trkpt lat="49.83363" lon="2.48981">
        <ele>95.8</ele>
        <time>2023-07-19T07:48:28Z</time>
      </trkpt>
      <trkpt lat="49.83363" lon="2.48982">
        <ele>95.8</ele>
        <time>2023-07-19T07:48:30Z</time>
      </trkpt>
      <trkpt lat="49.83363" lon="2.48984">
        <ele>95.8</ele>
        <time>2023-07-19T07:48:31Z</time>
      </trkpt>
      <trkpt lat="49.83362" lon="2.48986">
        <ele>95.8</ele>
        <time>2023-07-19T07:48:32Z</time>
      </trkpt>
      <trkpt lat="49.83361" lon="2.48989">
        <ele>95.9</ele>
        <time>2023-07-19T07:48:34Z</time>
      </trkpt>
      <trkpt lat="49.8336" lon="2.48992">
        <ele>95.9</ele>
        <time>2023-07-19T07:48:35Z</time>
      </trkpt>
      <trkpt lat="49.8336" lon="2.48993">
        <ele>95.9</ele>
        <time>2023-07-19T07:48:37Z</time>
      </trkpt>
      <trkpt lat="49.8336" lon="2.48994">
        <ele>95.9</ele>
        <time>2023-07-19T07:48:38Z</time>
      </trkpt>
      <trkpt lat="49.83358" lon="2.48997">
        <ele>95.9</ele>
        <time>2023-07-19T07:48:39Z</time>
      </trkpt>
      <trkpt lat="49.83358" lon="2.48998">
        <ele>95.9</ele>
        <time>2023-07-19T07:48:40Z</time>
      </trkpt>
      <trkpt lat="49.83358" lon="2.48999">
        <ele>95.9</ele>
        <time>2023-07-19T07:48:41Z</time>
      </trkpt>
      <trkpt lat="49.83357" lon="2.49001">
        <ele>95.9</ele>
        <time>2023-07-19T07:48:42Z</time>
      </trkpt>
      <trkpt lat="49.83357" lon="2.49003">
        <ele>95.9</ele>
        <time>2023-07-19T07:48:43Z</time>
      </trkpt>
      <trkpt lat="49.83356" lon="2.49005">
        <ele>96</ele>
        <time>2023-07-19T07:48:45Z</time>
      </trkpt>
      <trkpt lat="49.83355" lon="2.49007">
        <ele>96</ele>
        <time>2023-07-19T07:48:46Z</time>
      </trkpt>
      <trkpt lat="49.83355" lon="2.49009">
        <ele>96</ele>
        <time>2023-07-19T07:48:47Z</time>
      </trkpt>
      <trkpt lat="49.83354" lon="2.49012">
        <ele>96</ele>
        <time>2023-07-19T07:48:48Z</time>
      </trkpt>
      <trkpt lat="49.83353" lon="2.49013">
        <ele>96</ele>
        <time>2023-07-19T07:48:49Z</time>
      </trkpt>
      <trkpt lat="49.83353" lon="2.49014">
        <ele>96</ele>
        <time>2023-07-19T07:48:50Z</time>
      </trkpt>
      <trkpt lat="49.83352" lon="2.49017">
        <ele>96</ele>
        <time>2023-07-19T07:48:52Z</time>
      </trkpt>
      <trkpt lat="49.83352" lon="2.49019">
        <ele>96</ele>
        <time>2023-07-19T07:48:53Z</time>
      </trkpt>
      <trkpt lat="49.83351" lon="2.4902">
        <ele>96</ele>
        <time>2023-07-19T07:48:54Z</time>
      </trkpt>
      <trkpt lat="49.83351" lon="2.49022">
        <ele>96</ele>
        <time>2023-07-19T07:48:56Z</time>
      </trkpt>
      <trkpt lat="49.83351" lon="2.49023">
        <ele>96</ele>
        <time>2023-07-19T07:48:57Z</time>
      </trkpt>
      <trkpt lat="49.8335" lon="2.49024">
        <ele>96</ele>
        <time>2023-07-19T07:48:58Z</time>
      </trkpt>
      <trkpt lat="49.8335" lon="2.49026">
        <ele>96.1</ele>
        <time>2023-07-19T07:48:59Z</time>
      </trkpt>
      <trkpt lat="49.8335" lon="2.49028">
        <ele>96.1</ele>
        <time>2023-07-19T07:49:00Z</time>
      </trkpt>
      <trkpt lat="49.83349" lon="2.49031">
        <ele>96.1</ele>
        <time>2023-07-19T07:49:01Z</time>
      </trkpt>
      <trkpt lat="49.83348" lon="2.49032">
        <ele>96.1</ele>
        <time>2023-07-19T07:49:02Z</time>
      </trkpt>
      <trkpt lat="49.83348" lon="2.49033">
        <ele>96.1</ele>
        <time>2023-07-19T07:49:03Z</time>
      </trkpt>
      <trkpt lat="49.83347" lon="2.49036">
        <ele>96.1</ele>
        <time>2023-07-19T07:49:04Z</time>
      </trkpt>
      <trkpt lat="49.83347" lon="2.49038">
        <ele>96.1</ele>
        <time>2023-07-19T07:49:06Z</time>
      </trkpt>
      <trkpt lat="49.83347" lon="2.49039">
        <ele>96.1</ele>
        <time>2023-07-19T07:49:07Z</time>
      </trkpt>
      <trkpt lat="49.83346" lon="2.49042">
        <ele>96.1</ele>
        <time>2023-07-19T07:49:08Z</time>
      </trkpt>
      <trkpt lat="49.83346" lon="2.49043">
        <ele>96.1</ele>
        <time>2023-07-19T07:49:09Z</time>
      </trkpt>
      <trkpt lat="49.83346" lon="2.49044">
        <ele>96.1</ele>
        <time>2023-07-19T07:49:10Z</time>
      </trkpt>
      <trkpt lat="49.83345" lon="2.49046">
        <ele>96.1</ele>
        <time>2023-07-19T07:49:11Z</time>
      </trkpt>
      <trkpt lat="49.83344" lon="2.49048">
        <ele>96.1</ele>
        <time>2023-07-19T07:49:12Z</time>
      </trkpt>
      <trkpt lat="49.83344" lon="2.4905">
        <ele>96.1</ele>
        <time>2023-07-19T07:49:14Z</time>
      </trkpt>
      <trkpt lat="49.83343" lon="2.49053">
        <ele>96.1</ele>
        <time>2023-07-19T07:49:15Z</time>
      </trkpt>
      <trkpt lat="49.83342" lon="2.49055">
        <ele>96.1</ele>
        <time>2023-07-19T07:49:16Z</time>
      </trkpt>
      <trkpt lat="49.83341" lon="2.49058">
        <ele>96.1</ele>
        <time>2023-07-19T07:49:18Z</time>
      </trkpt>
      <trkpt lat="49.83341" lon="2.49059">
        <ele>96.2</ele>
        <time>2023-07-19T07:49:19Z</time>
      </trkpt>
      <trkpt lat="49.8334" lon="2.49061">
        <ele>96.2</ele>
        <time>2023-07-19T07:49:20Z</time>
      </trkpt>
      <trkpt lat="49.8334" lon="2.49062">
        <ele>96.2</ele>
        <time>2023-07-19T07:49:22Z</time>
      </trkpt>
      <trkpt lat="49.83339" lon="2.49063">
        <ele>96.2</ele>
        <time>2023-07-19T07:49:23Z</time>
      </trkpt>
      <trkpt lat="49.83338" lon="2.49064">
        <ele>96.2</ele>
        <time>2023-07-19T07:49:24Z</time>
      </trkpt>
      <trkpt lat="49.83338" lon="2.49066">
        <ele>96.2</ele>
        <time>2023-07-19T07:49:25Z</time>
      </trkpt>
      <trkpt lat="49.83338" lon="2.49067">
        <ele>96.2</ele>
        <time>2023-07-19T07:49:26Z</time>
      </trkpt>
      <trkpt lat="49.83337" lon="2.49068">
        <ele>96.2</ele>
        <time>2023-07-19T07:49:27Z</time>
      </trkpt>
      <trkpt lat="49.83337" lon="2.4907">
        <ele>96.2</ele>
        <time>2023-07-19T07:49:29Z</time>
      </trkpt>
      <trkpt lat="49.83337" lon="2.49072">
        <ele>96.2</ele>
        <time>2023-07-19T07:49:30Z</time>
      </trkpt>
      <trkpt lat="49.83337" lon="2.49073">
        <ele>96.2</ele>
        <time>2023-07-19T07:49:31Z</time>
      </trkpt>
      <trkpt lat="49.83337" lon="2.49074">
        <ele>96.2</ele>
        <time>2023-07-19T07:49:32Z</time>
      </trkpt>
      <trkpt lat="49.83337" lon="2.49075">
        <ele>96.2</ele>
        <time>2023-07-19T07:49:33Z</time>
      </trkpt>
      <trkpt lat="49.83336" lon="2.49076">
        <ele>96.2</ele>
        <time>2023-07-19T07:49:34Z</time>
      </trkpt>
      <trkpt lat="49.83336" lon="2.49076">
        <ele>96.2</ele>
        <time>2023-07-19T07:49:35Z</time>
      </trkpt>
      <trkpt lat="49.83335" lon="2.49078">
        <ele>96.2</ele>
        <time>2023-07-19T07:49:37Z</time>
      </trkpt>
      <trkpt lat="49.83334" lon="2.49078">
        <ele>96.2</ele>
        <time>2023-07-19T07:49:38Z</time>
      </trkpt>
      <trkpt lat="49.83334" lon="2.49078">
        <ele>96.2</ele>
        <time>2023-07-19T07:49:39Z</time>
      </trkpt>
      <trkpt lat="49.83334" lon="2.49078">
        <ele>96.2</ele>
        <time>2023-07-19T07:49:42Z</time>
      </trkpt>
      <trkpt lat="49.83334" lon="2.49078">
        <ele>96.2</ele>
        <time>2023-07-19T07:49:44Z</time>
      </trkpt>
      <trkpt lat="49.83334" lon="2.49078">
        <ele>96.2</ele>
        <time>2023-07-19T07:49:45Z</time>
      </trkpt>
      <trkpt lat="49.83334" lon="2.49078">
        <ele>96.2</ele>
        <time>2023-07-19T07:49:46Z</time>
      </trkpt>
      <trkpt lat="49.83334" lon="2.49078">
        <ele>96.2</ele>
        <time>2023-07-19T07:49:48Z</time>
      </trkpt>
      <trkpt lat="49.83334" lon="2.49078">
        <ele>96.2</ele>
        <time>2023-07-19T07:49:49Z</time>
      </trkpt>
      <trkpt lat="49.83334" lon="2.49078">
        <ele>96.2</ele>
        <time>2023-07-19T07:49:52Z</time>
      </trkpt>
      <trkpt lat="49.83334" lon="2.49077">
        <ele>96.2</ele>
        <time>2023-07-19T07:49:54Z</time>
      </trkpt>
      <trkpt lat="49.83334" lon="2.49077">
        <ele>96.2</ele>
        <time>2023-07-19T07:49:55Z</time>
      </trkpt>
      <trkpt lat="49.83334" lon="2.49077">
        <ele>96.2</ele>
        <time>2023-07-19T07:49:57Z</time>
      </trkpt>
      <trkpt lat="49.83334" lon="2.49077">
        <ele>96.2</ele>
        <time>2023-07-19T07:49:58Z</time>
      </trkpt>
      <trkpt lat="49.83334" lon="2.49077">
        <ele>96.2</ele>
        <time>2023-07-19T07:49:59Z</time>
      </trkpt>
      <trkpt lat="49.83334" lon="2.49077">
        <ele>96.2</ele>
        <time>2023-07-19T07:50:01Z</time>
      </trkpt>
      <trkpt lat="49.83334" lon="2.49077">
        <ele>96.2</ele>
        <time>2023-07-19T07:50:02Z</time>
      </trkpt>
      <trkpt lat="49.83334" lon="2.49077">
        <ele>96.2</ele>
        <time>2023-07-19T07:50:04Z</time>
      </trkpt>
      <trkpt lat="49.83334" lon="2.49077">
        <ele>96.2</ele>
        <time>2023-07-19T07:50:05Z</time>
      </trkpt>
      <trkpt lat="49.83334" lon="2.49077">
        <ele>96.2</ele>
        <time>2023-07-19T07:50:06Z</time>
      </trkpt>
      <trkpt lat="49.83334" lon="2.49077">
        <ele>96.2</ele>
        <time>2023-07-19T07:50:07Z</time>
      </trkpt>
      <trkpt lat="49.83334" lon="2.49077">
        <ele>96.2</ele>
        <time>2023-07-19T07:50:08Z</time>
      </trkpt>
      <trkpt lat="49.83334" lon="2.49077">
        <ele>96.2</ele>
        <time>2023-07-19T07:50:09Z</time>
      </trkpt>
      <trkpt lat="49.83334" lon="2.49077">
        <ele>96.2</ele>
        <time>2023-07-19T07:50:10Z</time>
      </trkpt>
      <trkpt lat="49.83334" lon="2.49077">
        <ele>96.2</ele>
        <time>2023-07-19T07:50:11Z</time>
      </trkpt>
      <trkpt lat="49.83334" lon="2.49077">
        <ele>96.2</ele>
        <time>2023-07-19T07:50:12Z</time>
      </trkpt>
      <trkpt lat="49.83334" lon="2.49076">
        <ele>96.2</ele>
        <time>2023-07-19T07:50:13Z</time>
      </trkpt>
      <trkpt lat="49.83334" lon="2.49076">
        <ele>96.2</ele>
        <time>2023-07-19T07:50:15Z</time>
      </trkpt>
      <trkpt lat="49.83334" lon="2.49076">
        <ele>96.2</ele>
        <time>2023-07-19T07:50:16Z</time>
      </trkpt>
      <trkpt lat="49.83334" lon="2.49076">
        <ele>96.2</ele>
        <time>2023-07-19T07:50:17Z</time>
      </trkpt>
      <trkpt lat="49.83334" lon="2.49076">
        <ele>96.2</ele>
        <time>2023-07-19T07:50:18Z</time>
      </trkpt>
      <trkpt lat="49.83334" lon="2.49076">
        <ele>96.2</ele>
        <time>2023-07-19T07:50:19Z</time>
      </trkpt>
      <trkpt lat="49.83334" lon="2.49076">
        <ele>96.2</ele>
        <time>2023-07-19T07:50:21Z</time>
      </trkpt>
      <trkpt lat="49.83334" lon="2.49076">
        <ele>96.2</ele>
        <time>2023-07-19T07:50:22Z</time>
      </trkpt>
      <trkpt lat="49.83334" lon="2.49076">
        <ele>96.2</ele>
        <time>2023-07-19T07:50:24Z</time>
      </trkpt>
      <trkpt lat="49.83334" lon="2.49076">
        <ele>96.2</ele>
        <time>2023-07-19T07:50:25Z</time>
      </trkpt>
      <trkpt lat="49.83334" lon="2.49076">
        <ele>96.2</ele>
        <time>2023-07-19T07:50:26Z</time>
      </trkpt>
      <trkpt lat="49.83334" lon="2.49076">
        <ele>96.2</ele>
        <time>2023-07-19T07:50:27Z</time>
      </trkpt>
      <trkpt lat="49.83334" lon="2.49076">
        <ele>96.2</ele>
        <time>2023-07-19T07:50:28Z</time>
      </trkpt>
      <trkpt lat="49.83334" lon="2.49076">
        <ele>96.2</ele>
        <time>2023-07-19T07:50:29Z</time>
      </trkpt>
      <trkpt lat="49.83334" lon="2.49076">
        <ele>96.2</ele>
        <time>2023-07-19T07:50:31Z</time>
      </trkpt>
      <trkpt lat="49.83334" lon="2.49076">
        <ele>96.2</ele>
        <time>2023-07-19T07:50:32Z</time>
      </trkpt>
      <trkpt lat="49.83334" lon="2.49076">
        <ele>96.2</ele>
        <time>2023-07-19T07:50:33Z</time>
      </trkpt>
      <trkpt lat="49.83334" lon="2.49075">
        <ele>96.2</ele>
        <time>2023-07-19T07:50:34Z</time>
      </trkpt>
      <trkpt lat="49.83334" lon="2.49075">
        <ele>96.2</ele>
        <time>2023-07-19T07:50:35Z</time>
      </trkpt>
      <trkpt lat="49.83334" lon="2.49075">
        <ele>96.2</ele>
        <time>2023-07-19T07:50:36Z</time>
      </trkpt>
      <trkpt lat="49.83334" lon="2.49075">
        <ele>96.2</ele>
        <time>2023-07-19T07:50:37Z</time>
      </trkpt>
      <trkpt lat="49.83334" lon="2.49075">
        <ele>96.2</ele>
        <time>2023-07-19T07:50:38Z</time>
      </trkpt>
      <trkpt lat="49.83334" lon="2.49075">
        <ele>96.2</ele>
        <time>2023-07-19T07:50:39Z</time>
      </trkpt>
      <trkpt lat="49.83334" lon="2.49075">
        <ele>96.2</ele>
        <time>2023-07-19T07:50:40Z</time>
      </trkpt>
      <trkpt lat="49.83334" lon="2.49075">
        <ele>96.2</ele>
        <time>2023-07-19T07:50:41Z</time>
      </trkpt>
      <trkpt lat="49.83334" lon="2.49075">
        <ele>96.2</ele>
        <time>2023-07-19T07:50:42Z</time>
      </trkpt>
      <trkpt lat="49.83334" lon="2.49075">
        <ele>96.2</ele>
        <time>2023-07-19T07:50:44Z</time>
      </trkpt>
      <trkpt lat="49.83334" lon="2.49075">
        <ele>96.2</ele>
        <time>2023-07-19T07:50:45Z</time>
      </trkpt>
      <trkpt lat="49.83334" lon="2.49075">
        <ele>96.2</ele>
        <time>2023-07-19T07:50:46Z</time>
      </trkpt>
      <trkpt lat="49.83334" lon="2.49075">
        <ele>96.2</ele>
        <time>2023-07-19T07:50:47Z</time>
      </trkpt>
      <trkpt lat="49.83334" lon="2.49075">
        <ele>96.2</ele>
        <time>2023-07-19T07:50:48Z</time>
      </trkpt>
      <trkpt lat="49.83334" lon="2.49075">
        <ele>96.2</ele>
        <time>2023-07-19T07:50:49Z</time>
      </trkpt>
      <trkpt lat="49.83334" lon="2.49075">
        <ele>96.2</ele>
        <time>2023-07-19T07:50:50Z</time>
      </trkpt>
      <trkpt lat="49.83334" lon="2.49074">
        <ele>96.2</ele>
        <time>2023-07-19T07:50:51Z</time>
      </trkpt>
      <trkpt lat="49.83334" lon="2.49074">
        <ele>96.2</ele>
        <time>2023-07-19T07:50:52Z</time>
      </trkpt>
      <trkpt lat="49.83334" lon="2.49074">
        <ele>96.2</ele>
        <time>2023-07-19T07:50:54Z</time>
      </trkpt>
      <trkpt lat="49.83335" lon="2.49074">
        <ele>96.2</ele>
        <time>2023-07-19T07:50:55Z</time>
      </trkpt>
      <trkpt lat="49.83335" lon="2.49074">
        <ele>96.2</ele>
        <time>2023-07-19T07:50:56Z</time>
      </trkpt>
      <trkpt lat="49.83335" lon="2.49074">
        <ele>96.2</ele>
        <time>2023-07-19T07:50:57Z</time>
      </trkpt>
      <trkpt lat="49.83335" lon="2.49074">
        <ele>96.2</ele>
        <time>2023-07-19T07:50:58Z</time>
      </trkpt>
      <trkpt lat="49.83335" lon="2.49074">
        <ele>96.2</ele>
        <time>2023-07-19T07:50:59Z</time>
      </trkpt>
      <trkpt lat="49.83335" lon="2.49074">
        <ele>96.2</ele>
        <time>2023-07-19T07:51:01Z</time>
      </trkpt>
      <trkpt lat="49.83335" lon="2.49074">
        <ele>96.2</ele>
        <time>2023-07-19T07:51:03Z</time>
      </trkpt>
      <trkpt lat="49.83335" lon="2.49074">
        <ele>96.2</ele>
        <time>2023-07-19T07:51:04Z</time>
      </trkpt>
      <trkpt lat="49.83335" lon="2.49074">
        <ele>96.2</ele>
        <time>2023-07-19T07:51:05Z</time>
      </trkpt>
      <trkpt lat="49.83335" lon="2.49074">
        <ele>96.2</ele>
        <time>2023-07-19T07:51:07Z</time>
      </trkpt>
      <trkpt lat="49.83335" lon="2.49074">
        <ele>96.2</ele>
        <time>2023-07-19T07:51:08Z</time>
      </trkpt>
      <trkpt lat="49.83335" lon="2.49074">
        <ele>96.2</ele>
        <time>2023-07-19T07:51:09Z</time>
      </trkpt>
      <trkpt lat="49.83335" lon="2.49074">
        <ele>96.2</ele>
        <time>2023-07-19T07:51:10Z</time>
      </trkpt>
      <trkpt lat="49.83335" lon="2.49073">
        <ele>96.2</ele>
        <time>2023-07-19T07:51:11Z</time>
      </trkpt>
      <trkpt lat="49.83335" lon="2.49073">
        <ele>96.2</ele>
        <time>2023-07-19T07:51:12Z</time>
      </trkpt>
      <trkpt lat="49.83335" lon="2.49073">
        <ele>96.2</ele>
        <time>2023-07-19T07:51:14Z</time>
      </trkpt>
      <trkpt lat="49.83335" lon="2.49073">
        <ele>96.2</ele>
        <time>2023-07-19T07:51:15Z</time>
      </trkpt>
      <trkpt lat="49.83335" lon="2.49073">
        <ele>96.2</ele>
        <time>2023-07-19T07:51:16Z</time>
      </trkpt>
      <trkpt lat="49.83335" lon="2.49073">
        <ele>96.2</ele>
        <time>2023-07-19T07:51:17Z</time>
      </trkpt>
      <trkpt lat="49.83335" lon="2.49073">
        <ele>96.2</ele>
        <time>2023-07-19T07:51:18Z</time>
      </trkpt>
      <trkpt lat="49.83335" lon="2.49073">
        <ele>96.2</ele>
        <time>2023-07-19T07:51:19Z</time>
      </trkpt>
      <trkpt lat="49.83335" lon="2.49073">
        <ele>96.2</ele>
        <time>2023-07-19T07:51:20Z</time>
      </trkpt>
      <trkpt lat="49.83335" lon="2.49073">
        <ele>96.2</ele>
        <time>2023-07-19T07:51:21Z</time>
      </trkpt>
      <trkpt lat="49.83335" lon="2.49073">
        <ele>96.2</ele>
        <time>2023-07-19T07:51:22Z</time>
      </trkpt>
      <trkpt lat="49.83335" lon="2.49073">
        <ele>96.2</ele>
        <time>2023-07-19T07:51:23Z</time>
      </trkpt>
      <trkpt lat="49.83335" lon="2.49073">
        <ele>96.2</ele>
        <time>2023-07-19T07:51:25Z</time>
      </trkpt>
      <trkpt lat="49.83335" lon="2.49073">
        <ele>96.2</ele>
        <time>2023-07-19T07:51:26Z</time>
      </trkpt>
      <trkpt lat="49.83335" lon="2.49073">
        <ele>96.2</ele>
        <time>2023-07-19T07:51:27Z</time>
      </trkpt>
      <trkpt lat="49.83335" lon="2.49073">
        <ele>96.2</ele>
        <time>2023-07-19T07:51:28Z</time>
      </trkpt>
      <trkpt lat="49.83335" lon="2.49073">
        <ele>96.2</ele>
        <time>2023-07-19T07:51:29Z</time>
      </trkpt>
      <trkpt lat="49.83335" lon="2.49072">
        <ele>96.2</ele>
        <time>2023-07-19T07:51:31Z</time>
      </trkpt>
      <trkpt lat="49.83335" lon="2.49072">
        <ele>96.2</ele>
        <time>2023-07-19T07:51:32Z</time>
      </trkpt>
      <trkpt lat="49.83336" lon="2.49071">
        <ele>96.2</ele>
        <time>2023-07-19T07:51:33Z</time>
      </trkpt>
      <trkpt lat="49.83336" lon="2.49071">
        <ele>96.2</ele>
        <time>2023-07-19T07:51:34Z</time>
      </trkpt>
      <trkpt lat="49.83336" lon="2.49071">
        <ele>96.2</ele>
        <time>2023-07-19T07:51:35Z</time>
      </trkpt>
      <trkpt lat="49.83336" lon="2.49071">
        <ele>96.2</ele>
        <time>2023-07-19T07:51:37Z</time>
      </trkpt>
      <trkpt lat="49.83336" lon="2.49071">
        <ele>96.2</ele>
        <time>2023-07-19T07:51:38Z</time>
      </trkpt>
      <trkpt lat="49.83336" lon="2.49071">
        <ele>96.2</ele>
        <time>2023-07-19T07:51:39Z</time>
      </trkpt>
      <trkpt lat="49.83336" lon="2.49071">
        <ele>96.2</ele>
        <time>2023-07-19T07:51:40Z</time>
      </trkpt>
      <trkpt lat="49.83336" lon="2.49071">
        <ele>96.2</ele>
        <time>2023-07-19T07:51:41Z</time>
      </trkpt>
      <trkpt lat="49.83336" lon="2.49071">
        <ele>96.2</ele>
        <time>2023-07-19T07:51:42Z</time>
      </trkpt>
      <trkpt lat="49.83336" lon="2.49072">
        <ele>96.2</ele>
        <time>2023-07-19T07:51:43Z</time>
      </trkpt>
      <trkpt lat="49.83336" lon="2.49072">
        <ele>96.2</ele>
        <time>2023-07-19T07:51:45Z</time>
      </trkpt>
      <trkpt lat="49.83336" lon="2.49072">
        <ele>96.2</ele>
        <time>2023-07-19T07:51:46Z</time>
      </trkpt>
      <trkpt lat="49.83336" lon="2.49072">
        <ele>96.2</ele>
        <time>2023-07-19T07:51:47Z</time>
      </trkpt>
      <trkpt lat="49.83336" lon="2.49072">
        <ele>96.2</ele>
        <time>2023-07-19T07:51:48Z</time>
      </trkpt>
      <trkpt lat="49.83335" lon="2.49072">
        <ele>96.2</ele>
        <time>2023-07-19T07:51:50Z</time>
      </trkpt>
      <trkpt lat="49.83335" lon="2.49072">
        <ele>96.2</ele>
        <time>2023-07-19T07:51:51Z</time>
      </trkpt>
      <trkpt lat="49.83335" lon="2.49072">
        <ele>96.2</ele>
        <time>2023-07-19T07:51:52Z</time>
      </trkpt>
      <trkpt lat="49.83335" lon="2.49072">
        <ele>96.2</ele>
        <time>2023-07-19T07:51:54Z</time>
      </trkpt>
      <trkpt lat="49.83335" lon="2.49072">
        <ele>96.2</ele>
        <time>2023-07-19T07:51:55Z</time>
      </trkpt>
      <trkpt lat="49.83335" lon="2.49072">
        <ele>96.2</ele>
        <time>2023-07-19T07:51:56Z</time>
      </trkpt>
      <trkpt lat="49.83335" lon="2.49072">
        <ele>96.2</ele>
        <time>2023-07-19T07:51:57Z</time>
      </trkpt>
      <trkpt lat="49.83335" lon="2.49072">
        <ele>96.2</ele>
        <time>2023-07-19T07:51:59Z</time>
      </trkpt>
      <trkpt lat="49.83335" lon="2.49072">
        <ele>96.2</ele>
        <time>2023-07-19T07:52:00Z</time>
      </trkpt>
      <trkpt lat="49.83335" lon="2.49073">
        <ele>96.2</ele>
        <time>2023-07-19T07:52:01Z</time>
      </trkpt>
      <trkpt lat="49.83335" lon="2.49073">
        <ele>96.2</ele>
        <time>2023-07-19T07:52:02Z</time>
      </trkpt>
      <trkpt lat="49.83335" lon="2.49073">
        <ele>96.2</ele>
        <time>2023-07-19T07:52:03Z</time>
      </trkpt>
      <trkpt lat="49.83335" lon="2.49073">
        <ele>96.2</ele>
        <time>2023-07-19T07:52:04Z</time>
      </trkpt>
      <trkpt lat="49.83335" lon="2.49073">
        <ele>96.2</ele>
        <time>2023-07-19T07:52:05Z</time>
      </trkpt>
      <trkpt lat="49.83335" lon="2.49073">
        <ele>96.2</ele>
        <time>2023-07-19T07:52:06Z</time>
      </trkpt>
      <trkpt lat="49.83335" lon="2.49073">
        <ele>96.2</ele>
        <time>2023-07-19T07:52:07Z</time>
      </trkpt>
      <trkpt lat="49.83335" lon="2.49073">
        <ele>96.2</ele>
        <time>2023-07-19T07:52:08Z</time>
      </trkpt>
      <trkpt lat="49.83335" lon="2.49073">
        <ele>96.2</ele>
        <time>2023-07-19T07:52:09Z</time>
      </trkpt>
      <trkpt lat="49.83335" lon="2.49073">
        <ele>96.2</ele>
        <time>2023-07-19T07:52:10Z</time>
      </trkpt>
      <trkpt lat="49.83335" lon="2.49073">
        <ele>96.2</ele>
        <time>2023-07-19T07:52:12Z</time>
      </trkpt>
      <trkpt lat="49.83335" lon="2.49073">
        <ele>96.2</ele>
        <time>2023-07-19T07:52:14Z</time>
      </trkpt>
      <trkpt lat="49.83335" lon="2.49073">
        <ele>96.2</ele>
        <time>2023-07-19T07:52:16Z</time>
      </trkpt>
      <trkpt lat="49.83335" lon="2.49074">
        <ele>96.2</ele>
        <time>2023-07-19T07:52:18Z</time>
      </trkpt>
      <trkpt lat="49.83335" lon="2.49074">
        <ele>96.2</ele>
        <time>2023-07-19T07:52:19Z</time>
      </trkpt>
      <trkpt lat="49.83335" lon="2.49074">
        <ele>96.2</ele>
        <time>2023-07-19T07:52:20Z</time>
      </trkpt>
      <trkpt lat="49.83335" lon="2.49074">
        <ele>96.2</ele>
        <time>2023-07-19T07:52:21Z</time>
      </trkpt>
      <trkpt lat="49.83335" lon="2.49074">
        <ele>96.2</ele>
        <time>2023-07-19T07:52:22Z</time>
      </trkpt>
      <trkpt lat="49.83335" lon="2.49074">
        <ele>96.2</ele>
        <time>2023-07-19T07:52:24Z</time>
      </trkpt>
      <trkpt lat="49.83335" lon="2.49074">
        <ele>96.2</ele>
        <time>2023-07-19T07:52:25Z</time>
      </trkpt>
      <trkpt lat="49.83335" lon="2.49074">
        <ele>96.2</ele>
        <time>2023-07-19T07:52:26Z</time>
      </trkpt>
      <trkpt lat="49.83335" lon="2.49074">
        <ele>96.2</ele>
        <time>2023-07-19T07:52:27Z</time>
      </trkpt>
      <trkpt lat="49.83335" lon="2.49074">
        <ele>96.2</ele>
        <time>2023-07-19T07:52:28Z</time>
      </trkpt>
      <trkpt lat="49.83335" lon="2.49074">
        <ele>96.2</ele>
        <time>2023-07-19T07:52:29Z</time>
      </trkpt>
      <trkpt lat="49.83335" lon="2.49074">
        <ele>96.2</ele>
        <time>2023-07-19T07:52:31Z</time>
      </trkpt>
      <trkpt lat="49.83335" lon="2.49074">
        <ele>96.2</ele>
        <time>2023-07-19T07:52:32Z</time>
      </trkpt>
      <trkpt lat="49.83335" lon="2.49075">
        <ele>96.2</ele>
        <time>2023-07-19T07:52:33Z</time>
      </trkpt>
      <trkpt lat="49.83335" lon="2.49075">
        <ele>96.2</ele>
        <time>2023-07-19T07:52:35Z</time>
      </trkpt>
      <trkpt lat="49.83335" lon="2.49075">
        <ele>96.2</ele>
        <time>2023-07-19T07:52:36Z</time>
      </trkpt>
      <trkpt lat="49.83335" lon="2.49075">
        <ele>96.2</ele>
        <time>2023-07-19T07:52:37Z</time>
      </trkpt>
      <trkpt lat="49.83335" lon="2.49075">
        <ele>96.2</ele>
        <time>2023-07-19T07:52:39Z</time>
      </trkpt>
      <trkpt lat="49.83335" lon="2.49075">
        <ele>96.2</ele>
        <time>2023-07-19T07:52:40Z</time>
      </trkpt>
      <trkpt lat="49.83335" lon="2.49075">
        <ele>96.2</ele>
        <time>2023-07-19T07:52:41Z</time>
      </trkpt>
      <trkpt lat="49.83335" lon="2.49075">
        <ele>96.2</ele>
        <time>2023-07-19T07:52:42Z</time>
      </trkpt>
      <trkpt lat="49.83335" lon="2.49075">
        <ele>96.2</ele>
        <time>2023-07-19T07:52:43Z</time>
      </trkpt>
      <trkpt lat="49.83335" lon="2.49075">
        <ele>96.2</ele>
        <time>2023-07-19T07:52:44Z</time>
      </trkpt>
      <trkpt lat="49.83335" lon="2.49075">
        <ele>96.2</ele>
        <time>2023-07-19T07:52:46Z</time>
      </trkpt>
      <trkpt lat="49.83335" lon="2.49075">
        <ele>96.2</ele>
        <time>2023-07-19T07:52:47Z</time>
      </trkpt>
      <trkpt lat="49.83335" lon="2.49075">
        <ele>96.2</ele>
        <time>2023-07-19T07:52:48Z</time>
      </trkpt>
      <trkpt lat="49.83335" lon="2.49075">
        <ele>96.2</ele>
        <time>2023-07-19T07:52:49Z</time>
      </trkpt>
      <trkpt lat="49.83335" lon="2.49076">
        <ele>96.2</ele>
        <time>2023-07-19T07:52:50Z</time>
      </trkpt>
      <trkpt lat="49.83335" lon="2.49076">
        <ele>96.2</ele>
        <time>2023-07-19T07:52:52Z</time>
      </trkpt>
      <trkpt lat="49.83335" lon="2.49076">
        <ele>96.2</ele>
        <time>2023-07-19T07:52:54Z</time>
      </trkpt>
      <trkpt lat="49.83335" lon="2.49076">
        <ele>96.2</ele>
        <time>2023-07-19T07:52:56Z</time>
      </trkpt>
      <trkpt lat="49.83335" lon="2.49076">
        <ele>96.2</ele>
        <time>2023-07-19T07:52:57Z</time>
      </trkpt>
      <trkpt lat="49.83335" lon="2.49076">
        <ele>96.2</ele>
        <time>2023-07-19T07:52:59Z</time>
      </trkpt>
      <trkpt lat="49.83335" lon="2.49076">
        <ele>96.2</ele>
        <time>2023-07-19T07:53:00Z</time>
      </trkpt>
      <trkpt lat="49.83335" lon="2.49076">
        <ele>96.2</ele>
        <time>2023-07-19T07:53:01Z</time>
      </trkpt>
      <trkpt lat="49.83334" lon="2.49076">
        <ele>96.2</ele>
        <time>2023-07-19T07:53:03Z</time>
      </trkpt>
      <trkpt lat="49.83334" lon="2.49076">
        <ele>96.2</ele>
        <time>2023-07-19T07:53:04Z</time>
      </trkpt>
      <trkpt lat="49.83334" lon="2.49076">
        <ele>96.2</ele>
        <time>2023-07-19T07:53:05Z</time>
      </trkpt>
      <trkpt lat="49.83334" lon="2.49076">
        <ele>96.2</ele>
        <time>2023-07-19T07:53:06Z</time>
      </trkpt>
      <trkpt lat="49.83334" lon="2.49076">
        <ele>96.2</ele>
        <time>2023-07-19T07:53:07Z</time>
      </trkpt>
      <trkpt lat="49.83334" lon="2.49077">
        <ele>96.2</ele>
        <time>2023-07-19T07:53:09Z</time>
      </trkpt>
      <trkpt lat="49.83334" lon="2.49077">
        <ele>96.2</ele>
        <time>2023-07-19T07:53:10Z</time>
      </trkpt>
      <trkpt lat="49.83334" lon="2.49077">
        <ele>96.2</ele>
        <time>2023-07-19T07:53:11Z</time>
      </trkpt>
      <trkpt lat="49.83334" lon="2.49077">
        <ele>96.2</ele>
        <time>2023-07-19T07:53:12Z</time>
      </trkpt>
      <trkpt lat="49.83334" lon="2.49077">
        <ele>96.2</ele>
        <time>2023-07-19T07:53:13Z</time>
      </trkpt>
      <trkpt lat="49.83334" lon="2.49077">
        <ele>96.2</ele>
        <time>2023-07-19T07:53:14Z</time>
      </trkpt>
      <trkpt lat="49.83334" lon="2.49077">
        <ele>96.2</ele>
        <time>2023-07-19T07:53:16Z</time>
      </trkpt>
      <trkpt lat="49.83334" lon="2.49077">
        <ele>96.2</ele>
        <time>2023-07-19T07:53:17Z</time>
      </trkpt>
      <trkpt lat="49.83334" lon="2.49077">
        <ele>96.2</ele>
        <time>2023-07-19T07:53:19Z</time>
      </trkpt>
      <trkpt lat="49.83334" lon="2.49077">
        <ele>96.2</ele>
        <time>2023-07-19T07:53:20Z</time>
      </trkpt>
      <trkpt lat="49.83334" lon="2.49077">
        <ele>96.2</ele>
        <time>2023-07-19T07:53:22Z</time>
      </trkpt>
      <trkpt lat="49.83334" lon="2.49077">
        <ele>96.2</ele>
        <time>2023-07-19T07:53:23Z</time>
      </trkpt>
      <trkpt lat="49.83334" lon="2.49077">
        <ele>96.2</ele>
        <time>2023-07-19T07:53:25Z</time>
      </trkpt>
      <trkpt lat="49.83334" lon="2.49077">
        <ele>96.2</ele>
        <time>2023-07-19T07:53:26Z</time>
      </trkpt>
      <trkpt lat="49.83334" lon="2.49078">
        <ele>96.2</ele>
        <time>2023-07-19T07:53:27Z</time>
      </trkpt>
      <trkpt lat="49.83334" lon="2.49078">
        <ele>96.2</ele>
        <time>2023-07-19T07:53:28Z</time>
      </trkpt>
      <trkpt lat="49.83334" lon="2.49078">
        <ele>96.2</ele>
        <time>2023-07-19T07:53:29Z</time>
      </trkpt>
      <trkpt lat="49.83334" lon="2.49078">
        <ele>96.2</ele>
        <time>2023-07-19T07:53:31Z</time>
      </trkpt>
      <trkpt lat="49.83334" lon="2.49078">
        <ele>96.2</ele>
        <time>2023-07-19T07:53:32Z</time>
      </trkpt>
      <trkpt lat="49.83334" lon="2.49078">
        <ele>96.2</ele>
        <time>2023-07-19T07:53:33Z</time>
      </trkpt>
      <trkpt lat="49.83334" lon="2.49079">
        <ele>96.2</ele>
        <time>2023-07-19T07:53:34Z</time>
      </trkpt>
      <trkpt lat="49.83333" lon="2.49081">
        <ele>96.2</ele>
        <time>2023-07-19T07:53:36Z</time>
      </trkpt>
      <trkpt lat="49.83333" lon="2.49083">
        <ele>96.2</ele>
        <time>2023-07-19T07:53:37Z</time>
      </trkpt>
      <trkpt lat="49.83332" lon="2.49084">
        <ele>96.2</ele>
        <time>2023-07-19T07:53:38Z</time>
      </trkpt>
      <trkpt lat="49.83332" lon="2.49086">
        <ele>96.3</ele>
        <time>2023-07-19T07:53:39Z</time>
      </trkpt>
      <trkpt lat="49.83331" lon="2.49088">
        <ele>96.3</ele>
        <time>2023-07-19T07:53:41Z</time>
      </trkpt>
      <trkpt lat="49.83331" lon="2.4909">
        <ele>96.3</ele>
        <time>2023-07-19T07:53:42Z</time>
      </trkpt>
      <trkpt lat="49.83331" lon="2.49092">
        <ele>96.3</ele>
        <time>2023-07-19T07:53:43Z</time>
      </trkpt>
      <trkpt lat="49.8333" lon="2.49093">
        <ele>96.3</ele>
        <time>2023-07-19T07:53:44Z</time>
      </trkpt>
      <trkpt lat="49.8333" lon="2.49095">
        <ele>96.3</ele>
        <time>2023-07-19T07:53:45Z</time>
      </trkpt>
      <trkpt lat="49.83329" lon="2.49096">
        <ele>96.3</ele>
        <time>2023-07-19T07:53:46Z</time>
      </trkpt>
      <trkpt lat="49.83329" lon="2.49097">
        <ele>96.3</ele>
        <time>2023-07-19T07:53:47Z</time>
      </trkpt>
      <trkpt lat="49.83329" lon="2.49098">
        <ele>96.3</ele>
        <time>2023-07-19T07:53:49Z</time>
      </trkpt>
      <trkpt lat="49.83329" lon="2.491">
        <ele>96.3</ele>
        <time>2023-07-19T07:53:50Z</time>
      </trkpt>
      <trkpt lat="49.83328" lon="2.49101">
        <ele>96.3</ele>
        <time>2023-07-19T07:53:51Z</time>
      </trkpt>
      <trkpt lat="49.83328" lon="2.49103">
        <ele>96.3</ele>
        <time>2023-07-19T07:53:52Z</time>
      </trkpt>
      <trkpt lat="49.83328" lon="2.49104">
        <ele>96.3</ele>
        <time>2023-07-19T07:53:53Z</time>
      </trkpt>
      <trkpt lat="49.83328" lon="2.49105">
        <ele>96.3</ele>
        <time>2023-07-19T07:53:54Z</time>
      </trkpt>
      <trkpt lat="49.83328" lon="2.49107">
        <ele>96.3</ele>
        <time>2023-07-19T07:53:56Z</time>
      </trkpt>
      <trkpt lat="49.83327" lon="2.49109">
        <ele>96.3</ele>
        <time>2023-07-19T07:53:57Z</time>
      </trkpt>
      <trkpt lat="49.83327" lon="2.49111">
        <ele>96.4</ele>
        <time>2023-07-19T07:53:58Z</time>
      </trkpt>
      <trkpt lat="49.83327" lon="2.49113">
        <ele>96.4</ele>
        <time>2023-07-19T07:53:59Z</time>
      </trkpt>
      <trkpt lat="49.83327" lon="2.49114">
        <ele>96.4</ele>
        <time>2023-07-19T07:54:00Z</time>
      </trkpt>
      <trkpt lat="49.83326" lon="2.49116">
        <ele>96.4</ele>
        <time>2023-07-19T07:54:02Z</time>
      </trkpt>
      <trkpt lat="49.83326" lon="2.49118">
        <ele>96.4</ele>
        <time>2023-07-19T07:54:03Z</time>
      </trkpt>
      <trkpt lat="49.83325" lon="2.49119">
        <ele>96.4</ele>
        <time>2023-07-19T07:54:04Z</time>
      </trkpt>
      <trkpt lat="49.83325" lon="2.49121">
        <ele>96.4</ele>
        <time>2023-07-19T07:54:06Z</time>
      </trkpt>
      <trkpt lat="49.83325" lon="2.49123">
        <ele>96.4</ele>
        <time>2023-07-19T07:54:07Z</time>
      </trkpt>
      <trkpt lat="49.83325" lon="2.49125">
        <ele>96.4</ele>
        <time>2023-07-19T07:54:08Z</time>
      </trkpt>
      <trkpt lat="49.83325" lon="2.49126">
        <ele>96.5</ele>
        <time>2023-07-19T07:54:09Z</time>
      </trkpt>
      <trkpt lat="49.83324" lon="2.49127">
        <ele>96.5</ele>
        <time>2023-07-19T07:54:10Z</time>
      </trkpt>
      <trkpt lat="49.83324" lon="2.49128">
        <ele>96.5</ele>
        <time>2023-07-19T07:54:12Z</time>
      </trkpt>
      <trkpt lat="49.83324" lon="2.4913">
        <ele>96.5</ele>
        <time>2023-07-19T07:54:13Z</time>
      </trkpt>
      <trkpt lat="49.83324" lon="2.49132">
        <ele>96.5</ele>
        <time>2023-07-19T07:54:14Z</time>
      </trkpt>
      <trkpt lat="49.83324" lon="2.49133">
        <ele>96.5</ele>
        <time>2023-07-19T07:54:15Z</time>
      </trkpt>
      <trkpt lat="49.83324" lon="2.49135">
        <ele>96.5</ele>
        <time>2023-07-19T07:54:16Z</time>
      </trkpt>
      <trkpt lat="49.83324" lon="2.49136">
        <ele>96.5</ele>
        <time>2023-07-19T07:54:18Z</time>
      </trkpt>
      <trkpt lat="49.83324" lon="2.49137">
        <ele>96.5</ele>
        <time>2023-07-19T07:54:19Z</time>
      </trkpt>
      <trkpt lat="49.83323" lon="2.49139">
        <ele>96.6</ele>
        <time>2023-07-19T07:54:20Z</time>
      </trkpt>
      <trkpt lat="49.83323" lon="2.49143">
        <ele>96.6</ele>
        <time>2023-07-19T07:54:21Z</time>
      </trkpt>
      <trkpt lat="49.83323" lon="2.49147">
        <ele>96.6</ele>
        <time>2023-07-19T07:54:23Z</time>
      </trkpt>
      <trkpt lat="49.83322" lon="2.49148">
        <ele>96.6</ele>
        <time>2023-07-19T07:54:24Z</time>
      </trkpt>
      <trkpt lat="49.83322" lon="2.49152">
        <ele>96.6</ele>
        <time>2023-07-19T07:54:25Z</time>
      </trkpt>
      <trkpt lat="49.83322" lon="2.49154">
        <ele>96.7</ele>
        <time>2023-07-19T07:54:26Z</time>
      </trkpt>
      <trkpt lat="49.83322" lon="2.49156">
        <ele>96.7</ele>
        <time>2023-07-19T07:54:27Z</time>
      </trkpt>
      <trkpt lat="49.83321" lon="2.49159">
        <ele>96.7</ele>
        <time>2023-07-19T07:54:28Z</time>
      </trkpt>
      <trkpt lat="49.83321" lon="2.49161">
        <ele>96.7</ele>
        <time>2023-07-19T07:54:30Z</time>
      </trkpt>
      <trkpt lat="49.83321" lon="2.49163">
        <ele>96.7</ele>
        <time>2023-07-19T07:54:31Z</time>
      </trkpt>
      <trkpt lat="49.8332" lon="2.49166">
        <ele>96.8</ele>
        <time>2023-07-19T07:54:32Z</time>
      </trkpt>
      <trkpt lat="49.8332" lon="2.49168">
        <ele>96.8</ele>
        <time>2023-07-19T07:54:33Z</time>
      </trkpt>
      <trkpt lat="49.83319" lon="2.4917">
        <ele>96.8</ele>
        <time>2023-07-19T07:54:34Z</time>
      </trkpt>
      <trkpt lat="49.83319" lon="2.49172">
        <ele>96.8</ele>
        <time>2023-07-19T07:54:35Z</time>
      </trkpt>
      <trkpt lat="49.83318" lon="2.49174">
        <ele>96.9</ele>
        <time>2023-07-19T07:54:37Z</time>
      </trkpt>
      <trkpt lat="49.83317" lon="2.49176">
        <ele>96.9</ele>
        <time>2023-07-19T07:54:38Z</time>
      </trkpt>
      <trkpt lat="49.83317" lon="2.49178">
        <ele>96.9</ele>
        <time>2023-07-19T07:54:39Z</time>
      </trkpt>
      <trkpt lat="49.83316" lon="2.4918">
        <ele>96.9</ele>
        <time>2023-07-19T07:54:40Z</time>
      </trkpt>
      <trkpt lat="49.83316" lon="2.49182">
        <ele>97</ele>
        <time>2023-07-19T07:54:41Z</time>
      </trkpt>
      <trkpt lat="49.83315" lon="2.49184">
        <ele>97</ele>
        <time>2023-07-19T07:54:42Z</time>
      </trkpt>
      <trkpt lat="49.83315" lon="2.49186">
        <ele>97</ele>
        <time>2023-07-19T07:54:44Z</time>
      </trkpt>
      <trkpt lat="49.83315" lon="2.49187">
        <ele>97</ele>
        <time>2023-07-19T07:54:45Z</time>
      </trkpt>
      <trkpt lat="49.83314" lon="2.49189">
        <ele>97</ele>
        <time>2023-07-19T07:54:46Z</time>
      </trkpt>
      <trkpt lat="49.83314" lon="2.49191">
        <ele>97</ele>
        <time>2023-07-19T07:54:47Z</time>
      </trkpt>
      <trkpt lat="49.83314" lon="2.49193">
        <ele>97.1</ele>
        <time>2023-07-19T07:54:48Z</time>
      </trkpt>
      <trkpt lat="49.83313" lon="2.49195">
        <ele>97.1</ele>
        <time>2023-07-19T07:54:49Z</time>
      </trkpt>
      <trkpt lat="49.83312" lon="2.49197">
        <ele>97.1</ele>
        <time>2023-07-19T07:54:51Z</time>
      </trkpt>
      <trkpt lat="49.83312" lon="2.492">
        <ele>97.1</ele>
        <time>2023-07-19T07:54:52Z</time>
      </trkpt>
      <trkpt lat="49.83312" lon="2.49201">
        <ele>97.1</ele>
        <time>2023-07-19T07:54:53Z</time>
      </trkpt>
      <trkpt lat="49.83312" lon="2.49203">
        <ele>97.1</ele>
        <time>2023-07-19T07:54:54Z</time>
      </trkpt>
      <trkpt lat="49.83311" lon="2.49206">
        <ele>97.2</ele>
        <time>2023-07-19T07:54:56Z</time>
      </trkpt>
      <trkpt lat="49.83311" lon="2.49207">
        <ele>97.2</ele>
        <time>2023-07-19T07:54:57Z</time>
      </trkpt>
      <trkpt lat="49.83311" lon="2.49208">
        <ele>97.2</ele>
        <time>2023-07-19T07:54:58Z</time>
      </trkpt>
      <trkpt lat="49.8331" lon="2.4921">
        <ele>97.2</ele>
        <time>2023-07-19T07:54:59Z</time>
      </trkpt>
      <trkpt lat="49.8331" lon="2.49212">
        <ele>97.2</ele>
        <time>2023-07-19T07:55:00Z</time>
      </trkpt>
      <trkpt lat="49.8331" lon="2.49214">
        <ele>97.2</ele>
        <time>2023-07-19T07:55:01Z</time>
      </trkpt>
      <trkpt lat="49.83309" lon="2.49218">
        <ele>97.3</ele>
        <time>2023-07-19T07:55:03Z</time>
      </trkpt>
      <trkpt lat="49.83309" lon="2.4922">
        <ele>97.3</ele>
        <time>2023-07-19T07:55:05Z</time>
      </trkpt>
      <trkpt lat="49.83308" lon="2.49222">
        <ele>97.3</ele>
        <time>2023-07-19T07:55:06Z</time>
      </trkpt>
      <trkpt lat="49.83308" lon="2.49225">
        <ele>97.3</ele>
        <time>2023-07-19T07:55:07Z</time>
      </trkpt>
      <trkpt lat="49.83308" lon="2.49227">
        <ele>97.3</ele>
        <time>2023-07-19T07:55:08Z</time>
      </trkpt>
      <trkpt lat="49.83307" lon="2.4923">
        <ele>97.4</ele>
        <time>2023-07-19T07:55:09Z</time>
      </trkpt>
      <trkpt lat="49.83307" lon="2.49231">
        <ele>97.4</ele>
        <time>2023-07-19T07:55:10Z</time>
      </trkpt>
      <trkpt lat="49.83307" lon="2.49232">
        <ele>97.4</ele>
        <time>2023-07-19T07:55:11Z</time>
      </trkpt>
      <trkpt lat="49.83306" lon="2.49236">
        <ele>97.4</ele>
        <time>2023-07-19T07:55:12Z</time>
      </trkpt>
      <trkpt lat="49.83306" lon="2.49237">
        <ele>97.4</ele>
        <time>2023-07-19T07:55:13Z</time>
      </trkpt>
      <trkpt lat="49.83306" lon="2.49238">
        <ele>97.4</ele>
        <time>2023-07-19T07:55:14Z</time>
      </trkpt>
      <trkpt lat="49.83305" lon="2.49241">
        <ele>97.5</ele>
        <time>2023-07-19T07:55:16Z</time>
      </trkpt>
      <trkpt lat="49.83305" lon="2.49243">
        <ele>97.5</ele>
        <time>2023-07-19T07:55:17Z</time>
      </trkpt>
      <trkpt lat="49.83304" lon="2.49245">
        <ele>97.5</ele>
        <time>2023-07-19T07:55:18Z</time>
      </trkpt>
      <trkpt lat="49.83304" lon="2.49247">
        <ele>97.5</ele>
        <time>2023-07-19T07:55:19Z</time>
      </trkpt>
      <trkpt lat="49.83304" lon="2.4925">
        <ele>97.6</ele>
        <time>2023-07-19T07:55:20Z</time>
      </trkpt>
      <trkpt lat="49.83303" lon="2.49251">
        <ele>97.6</ele>
        <time>2023-07-19T07:55:21Z</time>
      </trkpt>
      <trkpt lat="49.83303" lon="2.49253">
        <ele>97.6</ele>
        <time>2023-07-19T07:55:22Z</time>
      </trkpt>
      <trkpt lat="49.83303" lon="2.49254">
        <ele>97.6</ele>
        <time>2023-07-19T07:55:23Z</time>
      </trkpt>
      <trkpt lat="49.83302" lon="2.49256">
        <ele>97.6</ele>
        <time>2023-07-19T07:55:24Z</time>
      </trkpt>
      <trkpt lat="49.83302" lon="2.49258">
        <ele>97.6</ele>
        <time>2023-07-19T07:55:26Z</time>
      </trkpt>
      <trkpt lat="49.83301" lon="2.49261">
        <ele>97.7</ele>
        <time>2023-07-19T07:55:27Z</time>
      </trkpt>
      <trkpt lat="49.83301" lon="2.49263">
        <ele>97.7</ele>
        <time>2023-07-19T07:55:28Z</time>
      </trkpt>
      <trkpt lat="49.83301" lon="2.49265">
        <ele>97.7</ele>
        <time>2023-07-19T07:55:30Z</time>
      </trkpt>
      <trkpt lat="49.833" lon="2.49266">
        <ele>97.7</ele>
        <time>2023-07-19T07:55:31Z</time>
      </trkpt>
      <trkpt lat="49.833" lon="2.49268">
        <ele>97.8</ele>
        <time>2023-07-19T07:55:32Z</time>
      </trkpt>
      <trkpt lat="49.83299" lon="2.4927">
        <ele>97.8</ele>
        <time>2023-07-19T07:55:33Z</time>
      </trkpt>
      <trkpt lat="49.83299" lon="2.49272">
        <ele>97.8</ele>
        <time>2023-07-19T07:55:34Z</time>
      </trkpt>
      <trkpt lat="49.83298" lon="2.49276">
        <ele>97.8</ele>
        <time>2023-07-19T07:55:35Z</time>
      </trkpt>
      <trkpt lat="49.83298" lon="2.49277">
        <ele>97.8</ele>
        <time>2023-07-19T07:55:36Z</time>
      </trkpt>
      <trkpt lat="49.83298" lon="2.49278">
        <ele>97.8</ele>
        <time>2023-07-19T07:55:37Z</time>
      </trkpt>
      <trkpt lat="49.83297" lon="2.49281">
        <ele>97.8</ele>
        <time>2023-07-19T07:55:38Z</time>
      </trkpt>
      <trkpt lat="49.83297" lon="2.49282">
        <ele>97.8</ele>
        <time>2023-07-19T07:55:40Z</time>
      </trkpt>
      <trkpt lat="49.83297" lon="2.49284">
        <ele>97.8</ele>
        <time>2023-07-19T07:55:41Z</time>
      </trkpt>
      <trkpt lat="49.83297" lon="2.49286">
        <ele>97.8</ele>
        <time>2023-07-19T07:55:42Z</time>
      </trkpt>
      <trkpt lat="49.83296" lon="2.49288">
        <ele>97.8</ele>
        <time>2023-07-19T07:55:43Z</time>
      </trkpt>
      <trkpt lat="49.83295" lon="2.49291">
        <ele>97.8</ele>
        <time>2023-07-19T07:55:44Z</time>
      </trkpt>
      <trkpt lat="49.83295" lon="2.49292">
        <ele>97.8</ele>
        <time>2023-07-19T07:55:45Z</time>
      </trkpt>
      <trkpt lat="49.83295" lon="2.49293">
        <ele>97.8</ele>
        <time>2023-07-19T07:55:46Z</time>
      </trkpt>
      <trkpt lat="49.83294" lon="2.49297">
        <ele>97.8</ele>
        <time>2023-07-19T07:55:47Z</time>
      </trkpt>
      <trkpt lat="49.83294" lon="2.49298">
        <ele>97.8</ele>
        <time>2023-07-19T07:55:48Z</time>
      </trkpt>
      <trkpt lat="49.83293" lon="2.49299">
        <ele>97.8</ele>
        <time>2023-07-19T07:55:50Z</time>
      </trkpt>
      <trkpt lat="49.83293" lon="2.49301">
        <ele>97.9</ele>
        <time>2023-07-19T07:55:51Z</time>
      </trkpt>
      <trkpt lat="49.83293" lon="2.49302">
        <ele>97.9</ele>
        <time>2023-07-19T07:55:52Z</time>
      </trkpt>
      <trkpt lat="49.83292" lon="2.49303">
        <ele>97.9</ele>
        <time>2023-07-19T07:55:53Z</time>
      </trkpt>
      <trkpt lat="49.83291" lon="2.49306">
        <ele>97.9</ele>
        <time>2023-07-19T07:55:54Z</time>
      </trkpt>
      <trkpt lat="49.83291" lon="2.49307">
        <ele>97.9</ele>
        <time>2023-07-19T07:55:55Z</time>
      </trkpt>
      <trkpt lat="49.8329" lon="2.49308">
        <ele>97.9</ele>
        <time>2023-07-19T07:55:56Z</time>
      </trkpt>
      <trkpt lat="49.8329" lon="2.4931">
        <ele>97.9</ele>
        <time>2023-07-19T07:55:57Z</time>
      </trkpt>
      <trkpt lat="49.83289" lon="2.49312">
        <ele>97.9</ele>
        <time>2023-07-19T07:55:58Z</time>
      </trkpt>
      <trkpt lat="49.83288" lon="2.49313">
        <ele>98</ele>
        <time>2023-07-19T07:56:00Z</time>
      </trkpt>
      <trkpt lat="49.83288" lon="2.49314">
        <ele>98</ele>
        <time>2023-07-19T07:56:01Z</time>
      </trkpt>
      <trkpt lat="49.83287" lon="2.49316">
        <ele>98</ele>
        <time>2023-07-19T07:56:02Z</time>
      </trkpt>
      <trkpt lat="49.83287" lon="2.49318">
        <ele>98</ele>
        <time>2023-07-19T07:56:03Z</time>
      </trkpt>
      <trkpt lat="49.83287" lon="2.4932">
        <ele>98</ele>
        <time>2023-07-19T07:56:04Z</time>
      </trkpt>
      <trkpt lat="49.83287" lon="2.49321">
        <ele>98</ele>
        <time>2023-07-19T07:56:05Z</time>
      </trkpt>
      <trkpt lat="49.83287" lon="2.49323">
        <ele>98.1</ele>
        <time>2023-07-19T07:56:06Z</time>
      </trkpt>
      <trkpt lat="49.83286" lon="2.49325">
        <ele>98.1</ele>
        <time>2023-07-19T07:56:08Z</time>
      </trkpt>
      <trkpt lat="49.83286" lon="2.49327">
        <ele>98.1</ele>
        <time>2023-07-19T07:56:09Z</time>
      </trkpt>
      <trkpt lat="49.83285" lon="2.49328">
        <ele>98.1</ele>
        <time>2023-07-19T07:56:10Z</time>
      </trkpt>
      <trkpt lat="49.83285" lon="2.49331">
        <ele>98.2</ele>
        <time>2023-07-19T07:56:11Z</time>
      </trkpt>
      <trkpt lat="49.83284" lon="2.49332">
        <ele>98.2</ele>
        <time>2023-07-19T07:56:12Z</time>
      </trkpt>
      <trkpt lat="49.83284" lon="2.49334">
        <ele>98.2</ele>
        <time>2023-07-19T07:56:13Z</time>
      </trkpt>
      <trkpt lat="49.83284" lon="2.49335">
        <ele>98.2</ele>
        <time>2023-07-19T07:56:15Z</time>
      </trkpt>
      <trkpt lat="49.83283" lon="2.49337">
        <ele>98.2</ele>
        <time>2023-07-19T07:56:16Z</time>
      </trkpt>
      <trkpt lat="49.83283" lon="2.49339">
        <ele>98.3</ele>
        <time>2023-07-19T07:56:17Z</time>
      </trkpt>
      <trkpt lat="49.83282" lon="2.49342">
        <ele>98.3</ele>
        <time>2023-07-19T07:56:18Z</time>
      </trkpt>
      <trkpt lat="49.83282" lon="2.49343">
        <ele>98.3</ele>
        <time>2023-07-19T07:56:19Z</time>
      </trkpt>
      <trkpt lat="49.83281" lon="2.49344">
        <ele>98.3</ele>
        <time>2023-07-19T07:56:20Z</time>
      </trkpt>
      <trkpt lat="49.83281" lon="2.49346">
        <ele>98.4</ele>
        <time>2023-07-19T07:56:21Z</time>
      </trkpt>
      <trkpt lat="49.8328" lon="2.49348">
        <ele>98.4</ele>
        <time>2023-07-19T07:56:23Z</time>
      </trkpt>
      <trkpt lat="49.8328" lon="2.49349">
        <ele>98.4</ele>
        <time>2023-07-19T07:56:24Z</time>
      </trkpt>
      <trkpt lat="49.83279" lon="2.49352">
        <ele>98.4</ele>
        <time>2023-07-19T07:56:25Z</time>
      </trkpt>
      <trkpt lat="49.83279" lon="2.49354">
        <ele>98.4</ele>
        <time>2023-07-19T07:56:26Z</time>
      </trkpt>
      <trkpt lat="49.83278" lon="2.49355">
        <ele>98.5</ele>
        <time>2023-07-19T07:56:27Z</time>
      </trkpt>
      <trkpt lat="49.83278" lon="2.49358">
        <ele>98.5</ele>
        <time>2023-07-19T07:56:28Z</time>
      </trkpt>
      <trkpt lat="49.83277" lon="2.49359">
        <ele>98.5</ele>
        <time>2023-07-19T07:56:29Z</time>
      </trkpt>
      <trkpt lat="49.83277" lon="2.4936">
        <ele>98.5</ele>
        <time>2023-07-19T07:56:30Z</time>
      </trkpt>
      <trkpt lat="49.83277" lon="2.49362">
        <ele>98.5</ele>
        <time>2023-07-19T07:56:31Z</time>
      </trkpt>
      <trkpt lat="49.83276" lon="2.49364">
        <ele>98.5</ele>
        <time>2023-07-19T07:56:32Z</time>
      </trkpt>
      <trkpt lat="49.83276" lon="2.49365">
        <ele>98.5</ele>
        <time>2023-07-19T07:56:34Z</time>
      </trkpt>
      <trkpt lat="49.83275" lon="2.49367">
        <ele>98.6</ele>
        <time>2023-07-19T07:56:35Z</time>
      </trkpt>
      <trkpt lat="49.83275" lon="2.4937">
        <ele>98.6</ele>
        <time>2023-07-19T07:56:36Z</time>
      </trkpt>
      <trkpt lat="49.83274" lon="2.49373">
        <ele>98.6</ele>
        <time>2023-07-19T07:56:37Z</time>
      </trkpt>
      <trkpt lat="49.83274" lon="2.49374">
        <ele>98.6</ele>
        <time>2023-07-19T07:56:39Z</time>
      </trkpt>
      <trkpt lat="49.83273" lon="2.49375">
        <ele>98.6</ele>
        <time>2023-07-19T07:56:40Z</time>
      </trkpt>
      <trkpt lat="49.83273" lon="2.49377">
        <ele>98.6</ele>
        <time>2023-07-19T07:56:41Z</time>
      </trkpt>
      <trkpt lat="49.83272" lon="2.4938">
        <ele>98.7</ele>
        <time>2023-07-19T07:56:42Z</time>
      </trkpt>
      <trkpt lat="49.83271" lon="2.49383">
        <ele>98.7</ele>
        <time>2023-07-19T07:56:43Z</time>
      </trkpt>
      <trkpt lat="49.83271" lon="2.49384">
        <ele>98.7</ele>
        <time>2023-07-19T07:56:44Z</time>
      </trkpt>
      <trkpt lat="49.83271" lon="2.49386">
        <ele>98.7</ele>
        <time>2023-07-19T07:56:45Z</time>
      </trkpt>
      <trkpt lat="49.8327" lon="2.49387">
        <ele>98.7</ele>
        <time>2023-07-19T07:56:46Z</time>
      </trkpt>
      <trkpt lat="49.8327" lon="2.49389">
        <ele>98.7</ele>
        <time>2023-07-19T07:56:47Z</time>
      </trkpt>
      <trkpt lat="49.8327" lon="2.49391">
        <ele>98.8</ele>
        <time>2023-07-19T07:56:49Z</time>
      </trkpt>
      <trkpt lat="49.83269" lon="2.49393">
        <ele>98.8</ele>
        <time>2023-07-19T07:56:50Z</time>
      </trkpt>
      <trkpt lat="49.83269" lon="2.49395">
        <ele>98.8</ele>
        <time>2023-07-19T07:56:51Z</time>
      </trkpt>
      <trkpt lat="49.83268" lon="2.49397">
        <ele>98.8</ele>
        <time>2023-07-19T07:56:52Z</time>
      </trkpt>
      <trkpt lat="49.83268" lon="2.49399">
        <ele>98.8</ele>
        <time>2023-07-19T07:56:53Z</time>
      </trkpt>
      <trkpt lat="49.83267" lon="2.49402">
        <ele>98.8</ele>
        <time>2023-07-19T07:56:54Z</time>
      </trkpt>
      <trkpt lat="49.83267" lon="2.49403">
        <ele>98.9</ele>
        <time>2023-07-19T07:56:55Z</time>
      </trkpt>
      <trkpt lat="49.83266" lon="2.49404">
        <ele>98.9</ele>
        <time>2023-07-19T07:56:56Z</time>
      </trkpt>
      <trkpt lat="49.83266" lon="2.49406">
        <ele>98.9</ele>
        <time>2023-07-19T07:56:57Z</time>
      </trkpt>
      <trkpt lat="49.83266" lon="2.49408">
        <ele>98.9</ele>
        <time>2023-07-19T07:56:59Z</time>
      </trkpt>
      <trkpt lat="49.83265" lon="2.49409">
        <ele>98.9</ele>
        <time>2023-07-19T07:57:00Z</time>
      </trkpt>
      <trkpt lat="49.83265" lon="2.49413">
        <ele>98.9</ele>
        <time>2023-07-19T07:57:01Z</time>
      </trkpt>
      <trkpt lat="49.83264" lon="2.49414">
        <ele>98.9</ele>
        <time>2023-07-19T07:57:02Z</time>
      </trkpt>
      <trkpt lat="49.83264" lon="2.49415">
        <ele>99</ele>
        <time>2023-07-19T07:57:03Z</time>
      </trkpt>
      <trkpt lat="49.83264" lon="2.49416">
        <ele>99</ele>
        <time>2023-07-19T07:57:04Z</time>
      </trkpt>
      <trkpt lat="49.83263" lon="2.49418">
        <ele>99</ele>
        <time>2023-07-19T07:57:05Z</time>
      </trkpt>
      <trkpt lat="49.83263" lon="2.4942">
        <ele>99</ele>
        <time>2023-07-19T07:57:06Z</time>
      </trkpt>
      <trkpt lat="49.83262" lon="2.49422">
        <ele>99</ele>
        <time>2023-07-19T07:57:07Z</time>
      </trkpt>
      <trkpt lat="49.83262" lon="2.49423">
        <ele>99</ele>
        <time>2023-07-19T07:57:08Z</time>
      </trkpt>
      <trkpt lat="49.83261" lon="2.49425">
        <ele>99</ele>
        <time>2023-07-19T07:57:10Z</time>
      </trkpt>
      <trkpt lat="49.83261" lon="2.49427">
        <ele>99.1</ele>
        <time>2023-07-19T07:57:11Z</time>
      </trkpt>
      <trkpt lat="49.8326" lon="2.4943">
        <ele>99.1</ele>
        <time>2023-07-19T07:57:12Z</time>
      </trkpt>
      <trkpt lat="49.83259" lon="2.49433">
        <ele>99.1</ele>
        <time>2023-07-19T07:57:13Z</time>
      </trkpt>
      <trkpt lat="49.83259" lon="2.49434">
        <ele>99.1</ele>
        <time>2023-07-19T07:57:14Z</time>
      </trkpt>
      <trkpt lat="49.83258" lon="2.49435">
        <ele>99.1</ele>
        <time>2023-07-19T07:57:15Z</time>
      </trkpt>
      <trkpt lat="49.83258" lon="2.49438">
        <ele>99.1</ele>
        <time>2023-07-19T07:57:17Z</time>
      </trkpt>
      <trkpt lat="49.83257" lon="2.49439">
        <ele>99.2</ele>
        <time>2023-07-19T07:57:18Z</time>
      </trkpt>
      <trkpt lat="49.83257" lon="2.4944">
        <ele>99.2</ele>
        <time>2023-07-19T07:57:19Z</time>
      </trkpt>
      <trkpt lat="49.83256" lon="2.49442">
        <ele>99.2</ele>
        <time>2023-07-19T07:57:20Z</time>
      </trkpt>
      <trkpt lat="49.83256" lon="2.49445">
        <ele>99.2</ele>
        <time>2023-07-19T07:57:21Z</time>
      </trkpt>
      <trkpt lat="49.83255" lon="2.49448">
        <ele>99.2</ele>
        <time>2023-07-19T07:57:22Z</time>
      </trkpt>
      <trkpt lat="49.83254" lon="2.49449">
        <ele>99.2</ele>
        <time>2023-07-19T07:57:23Z</time>
      </trkpt>
      <trkpt lat="49.83254" lon="2.4945">
        <ele>99.2</ele>
        <time>2023-07-19T07:57:24Z</time>
      </trkpt>
      <trkpt lat="49.83253" lon="2.49453">
        <ele>99.3</ele>
        <time>2023-07-19T07:57:25Z</time>
      </trkpt>
      <trkpt lat="49.83253" lon="2.49454">
        <ele>99.3</ele>
        <time>2023-07-19T07:57:27Z</time>
      </trkpt>
      <trkpt lat="49.83252" lon="2.49455">
        <ele>99.3</ele>
        <time>2023-07-19T07:57:28Z</time>
      </trkpt>
      <trkpt lat="49.83251" lon="2.49458">
        <ele>99.3</ele>
        <time>2023-07-19T07:57:29Z</time>
      </trkpt>
      <trkpt lat="49.83251" lon="2.4946">
        <ele>99.3</ele>
        <time>2023-07-19T07:57:30Z</time>
      </trkpt>
      <trkpt lat="49.83251" lon="2.49461">
        <ele>99.3</ele>
        <time>2023-07-19T07:57:31Z</time>
      </trkpt>
      <trkpt lat="49.8325" lon="2.49464">
        <ele>99.4</ele>
        <time>2023-07-19T07:57:32Z</time>
      </trkpt>
      <trkpt lat="49.8325" lon="2.49465">
        <ele>99.4</ele>
        <time>2023-07-19T07:57:33Z</time>
      </trkpt>
      <trkpt lat="49.83249" lon="2.49466">
        <ele>99.4</ele>
        <time>2023-07-19T07:57:34Z</time>
      </trkpt>
      <trkpt lat="49.83249" lon="2.49469">
        <ele>99.4</ele>
        <time>2023-07-19T07:57:35Z</time>
      </trkpt>
      <trkpt lat="49.83248" lon="2.49471">
        <ele>99.4</ele>
        <time>2023-07-19T07:57:37Z</time>
      </trkpt>
      <trkpt lat="49.83247" lon="2.49474">
        <ele>99.5</ele>
        <time>2023-07-19T07:57:38Z</time>
      </trkpt>
      <trkpt lat="49.83246" lon="2.49476">
        <ele>99.5</ele>
        <time>2023-07-19T07:57:39Z</time>
      </trkpt>
      <trkpt lat="49.83246" lon="2.49478">
        <ele>99.5</ele>
        <time>2023-07-19T07:57:40Z</time>
      </trkpt>
      <trkpt lat="49.83245" lon="2.4948">
        <ele>99.5</ele>
        <time>2023-07-19T07:57:41Z</time>
      </trkpt>
      <trkpt lat="49.83245" lon="2.49482">
        <ele>99.5</ele>
        <time>2023-07-19T07:57:42Z</time>
      </trkpt>
      <trkpt lat="49.83245" lon="2.49483">
        <ele>99.5</ele>
        <time>2023-07-19T07:57:43Z</time>
      </trkpt>
      <trkpt lat="49.83244" lon="2.49485">
        <ele>99.6</ele>
        <time>2023-07-19T07:57:45Z</time>
      </trkpt>
      <trkpt lat="49.83244" lon="2.49487">
        <ele>99.6</ele>
        <time>2023-07-19T07:57:46Z</time>
      </trkpt>
      <trkpt lat="49.83243" lon="2.49489">
        <ele>99.6</ele>
        <time>2023-07-19T07:57:47Z</time>
      </trkpt>
      <trkpt lat="49.83242" lon="2.49491">
        <ele>99.6</ele>
        <time>2023-07-19T07:57:48Z</time>
      </trkpt>
      <trkpt lat="49.83242" lon="2.49493">
        <ele>99.6</ele>
        <time>2023-07-19T07:57:50Z</time>
      </trkpt>
      <trkpt lat="49.83241" lon="2.49495">
        <ele>99.7</ele>
        <time>2023-07-19T07:57:51Z</time>
      </trkpt>
      <trkpt lat="49.83241" lon="2.49497">
        <ele>99.7</ele>
        <time>2023-07-19T07:57:52Z</time>
      </trkpt>
      <trkpt lat="49.8324" lon="2.49498">
        <ele>99.7</ele>
        <time>2023-07-19T07:57:53Z</time>
      </trkpt>
      <trkpt lat="49.8324" lon="2.495">
        <ele>99.7</ele>
        <time>2023-07-19T07:57:54Z</time>
      </trkpt>
      <trkpt lat="49.83239" lon="2.49501">
        <ele>99.7</ele>
        <time>2023-07-19T07:57:56Z</time>
      </trkpt>
      <trkpt lat="49.83239" lon="2.49503">
        <ele>99.7</ele>
        <time>2023-07-19T07:57:57Z</time>
      </trkpt>
      <trkpt lat="49.83238" lon="2.49505">
        <ele>99.8</ele>
        <time>2023-07-19T07:57:58Z</time>
      </trkpt>
      <trkpt lat="49.83237" lon="2.49507">
        <ele>99.8</ele>
        <time>2023-07-19T07:58:00Z</time>
      </trkpt>
      <trkpt lat="49.83236" lon="2.49509">
        <ele>99.8</ele>
        <time>2023-07-19T07:58:01Z</time>
      </trkpt>
      <trkpt lat="49.83236" lon="2.49511">
        <ele>99.8</ele>
        <time>2023-07-19T07:58:02Z</time>
      </trkpt>
      <trkpt lat="49.83235" lon="2.49512">
        <ele>99.8</ele>
        <time>2023-07-19T07:58:03Z</time>
      </trkpt>
      <trkpt lat="49.83234" lon="2.49515">
        <ele>99.8</ele>
        <time>2023-07-19T07:58:04Z</time>
      </trkpt>
      <trkpt lat="49.83234" lon="2.49516">
        <ele>99.9</ele>
        <time>2023-07-19T07:58:05Z</time>
      </trkpt>
      <trkpt lat="49.83233" lon="2.49519">
        <ele>99.9</ele>
        <time>2023-07-19T07:58:06Z</time>
      </trkpt>
      <trkpt lat="49.83232" lon="2.49523">
        <ele>99.9</ele>
        <time>2023-07-19T07:58:08Z</time>
      </trkpt>
      <trkpt lat="49.83232" lon="2.49526">
        <ele>99.9</ele>
        <time>2023-07-19T07:58:09Z</time>
      </trkpt>
      <trkpt lat="49.83231" lon="2.49528">
        <ele>99.9</ele>
        <time>2023-07-19T07:58:11Z</time>
      </trkpt>
      <trkpt lat="49.8323" lon="2.4953">
        <ele>99.9</ele>
        <time>2023-07-19T07:58:12Z</time>
      </trkpt>
      <trkpt lat="49.8323" lon="2.49531">
        <ele>99.9</ele>
        <time>2023-07-19T07:58:13Z</time>
      </trkpt>
      <trkpt lat="49.83229" lon="2.49533">
        <ele>99.9</ele>
        <time>2023-07-19T07:58:14Z</time>
      </trkpt>
      <trkpt lat="49.83229" lon="2.49535">
        <ele>100</ele>
        <time>2023-07-19T07:58:15Z</time>
      </trkpt>
      <trkpt lat="49.83228" lon="2.49536">
        <ele>100</ele>
        <time>2023-07-19T07:58:16Z</time>
      </trkpt>
      <trkpt lat="49.83228" lon="2.49537">
        <ele>100</ele>
        <time>2023-07-19T07:58:17Z</time>
      </trkpt>
      <trkpt lat="49.83227" lon="2.4954">
        <ele>100</ele>
        <time>2023-07-19T07:58:18Z</time>
      </trkpt>
      <trkpt lat="49.83226" lon="2.49541">
        <ele>100</ele>
        <time>2023-07-19T07:58:20Z</time>
      </trkpt>
      <trkpt lat="49.83226" lon="2.49542">
        <ele>100</ele>
        <time>2023-07-19T07:58:21Z</time>
      </trkpt>
      <trkpt lat="49.83225" lon="2.49544">
        <ele>100</ele>
        <time>2023-07-19T07:58:22Z</time>
      </trkpt>
      <trkpt lat="49.83225" lon="2.49546">
        <ele>100</ele>
        <time>2023-07-19T07:58:23Z</time>
      </trkpt>
      <trkpt lat="49.83224" lon="2.49548">
        <ele>100</ele>
        <time>2023-07-19T07:58:24Z</time>
      </trkpt>
      <trkpt lat="49.83223" lon="2.4955">
        <ele>100</ele>
        <time>2023-07-19T07:58:25Z</time>
      </trkpt>
      <trkpt lat="49.83223" lon="2.49552">
        <ele>100</ele>
        <time>2023-07-19T07:58:27Z</time>
      </trkpt>
      <trkpt lat="49.83222" lon="2.49555">
        <ele>100</ele>
        <time>2023-07-19T07:58:28Z</time>
      </trkpt>
      <trkpt lat="49.83222" lon="2.49556">
        <ele>100</ele>
        <time>2023-07-19T07:58:29Z</time>
      </trkpt>
      <trkpt lat="49.83221" lon="2.49557">
        <ele>100</ele>
        <time>2023-07-19T07:58:30Z</time>
      </trkpt>
      <trkpt lat="49.83221" lon="2.49559">
        <ele>100</ele>
        <time>2023-07-19T07:58:31Z</time>
      </trkpt>
      <trkpt lat="49.8322" lon="2.49561">
        <ele>100</ele>
        <time>2023-07-19T07:58:32Z</time>
      </trkpt>
      <trkpt lat="49.83219" lon="2.49565">
        <ele>100</ele>
        <time>2023-07-19T07:58:33Z</time>
      </trkpt>
      <trkpt lat="49.83219" lon="2.49566">
        <ele>100.1</ele>
        <time>2023-07-19T07:58:35Z</time>
      </trkpt>
      <trkpt lat="49.83218" lon="2.49568">
        <ele>100.1</ele>
        <time>2023-07-19T07:58:36Z</time>
      </trkpt>
      <trkpt lat="49.83218" lon="2.4957">
        <ele>100.1</ele>
        <time>2023-07-19T07:58:38Z</time>
      </trkpt>
      <trkpt lat="49.83217" lon="2.49572">
        <ele>100.1</ele>
        <time>2023-07-19T07:58:39Z</time>
      </trkpt>
      <trkpt lat="49.83216" lon="2.49573">
        <ele>100.1</ele>
        <time>2023-07-19T07:58:41Z</time>
      </trkpt>
      <trkpt lat="49.83216" lon="2.49575">
        <ele>100.1</ele>
        <time>2023-07-19T07:58:42Z</time>
      </trkpt>
      <trkpt lat="49.83215" lon="2.49578">
        <ele>100.1</ele>
        <time>2023-07-19T07:58:43Z</time>
      </trkpt>
      <trkpt lat="49.83215" lon="2.49579">
        <ele>100.1</ele>
        <time>2023-07-19T07:58:44Z</time>
      </trkpt>
      <trkpt lat="49.83214" lon="2.49581">
        <ele>100.1</ele>
        <time>2023-07-19T07:58:45Z</time>
      </trkpt>
      <trkpt lat="49.83213" lon="2.49584">
        <ele>100.1</ele>
        <time>2023-07-19T07:58:46Z</time>
      </trkpt>
      <trkpt lat="49.83213" lon="2.49585">
        <ele>100.1</ele>
        <time>2023-07-19T07:58:48Z</time>
      </trkpt>
      <trkpt lat="49.83213" lon="2.49586">
        <ele>100.1</ele>
        <time>2023-07-19T07:58:49Z</time>
      </trkpt>
      <trkpt lat="49.83212" lon="2.49588">
        <ele>100.1</ele>
        <time>2023-07-19T07:58:50Z</time>
      </trkpt>
      <trkpt lat="49.83212" lon="2.4959">
        <ele>100.1</ele>
        <time>2023-07-19T07:58:51Z</time>
      </trkpt>
      <trkpt lat="49.83211" lon="2.49591">
        <ele>100.1</ele>
        <time>2023-07-19T07:58:52Z</time>
      </trkpt>
      <trkpt lat="49.8321" lon="2.49594">
        <ele>100.1</ele>
        <time>2023-07-19T07:58:54Z</time>
      </trkpt>
      <trkpt lat="49.8321" lon="2.49595">
        <ele>100.1</ele>
        <time>2023-07-19T07:58:55Z</time>
      </trkpt>
      <trkpt lat="49.83209" lon="2.49596">
        <ele>100.1</ele>
        <time>2023-07-19T07:58:56Z</time>
      </trkpt>
      <trkpt lat="49.83209" lon="2.49598">
        <ele>100.1</ele>
        <time>2023-07-19T07:58:57Z</time>
      </trkpt>
      <trkpt lat="49.83208" lon="2.496">
        <ele>100.1</ele>
        <time>2023-07-19T07:58:58Z</time>
      </trkpt>
      <trkpt lat="49.83207" lon="2.49602">
        <ele>100.1</ele>
        <time>2023-07-19T07:58:59Z</time>
      </trkpt>
      <trkpt lat="49.83207" lon="2.49603">
        <ele>100.1</ele>
        <time>2023-07-19T07:59:00Z</time>
      </trkpt>
      <trkpt lat="49.83206" lon="2.49605">
        <ele>100.1</ele>
        <time>2023-07-19T07:59:01Z</time>
      </trkpt>
      <trkpt lat="49.83206" lon="2.49606">
        <ele>100.1</ele>
        <time>2023-07-19T07:59:03Z</time>
      </trkpt>
      <trkpt lat="49.83205" lon="2.49608">
        <ele>100.1</ele>
        <time>2023-07-19T07:59:05Z</time>
      </trkpt>
      <trkpt lat="49.83204" lon="2.49609">
        <ele>100.1</ele>
        <time>2023-07-19T07:59:06Z</time>
      </trkpt>
      <trkpt lat="49.83204" lon="2.4961">
        <ele>100.1</ele>
        <time>2023-07-19T07:59:07Z</time>
      </trkpt>
      <trkpt lat="49.83203" lon="2.49612">
        <ele>100.1</ele>
        <time>2023-07-19T07:59:08Z</time>
      </trkpt>
      <trkpt lat="49.83203" lon="2.49613">
        <ele>100.1</ele>
        <time>2023-07-19T07:59:09Z</time>
      </trkpt>
      <trkpt lat="49.83202" lon="2.49614">
        <ele>100.1</ele>
        <time>2023-07-19T07:59:10Z</time>
      </trkpt>
      <trkpt lat="49.83202" lon="2.49616">
        <ele>100</ele>
        <time>2023-07-19T07:59:11Z</time>
      </trkpt>
      <trkpt lat="49.83201" lon="2.49618">
        <ele>100</ele>
        <time>2023-07-19T07:59:12Z</time>
      </trkpt>
      <trkpt lat="49.83201" lon="2.49619">
        <ele>100</ele>
        <time>2023-07-19T07:59:13Z</time>
      </trkpt>
      <trkpt lat="49.832" lon="2.49621">
        <ele>100</ele>
        <time>2023-07-19T07:59:15Z</time>
      </trkpt>
      <trkpt lat="49.83199" lon="2.49624">
        <ele>100</ele>
        <time>2023-07-19T07:59:16Z</time>
      </trkpt>
      <trkpt lat="49.83199" lon="2.49625">
        <ele>100</ele>
        <time>2023-07-19T07:59:17Z</time>
      </trkpt>
      <trkpt lat="49.83199" lon="2.49626">
        <ele>100</ele>
        <time>2023-07-19T07:59:18Z</time>
      </trkpt>
      <trkpt lat="49.83197" lon="2.49629">
        <ele>100</ele>
        <time>2023-07-19T07:59:19Z</time>
      </trkpt>
      <trkpt lat="49.83197" lon="2.49631">
        <ele>100</ele>
        <time>2023-07-19T07:59:20Z</time>
      </trkpt>
      <trkpt lat="49.83196" lon="2.49632">
        <ele>100</ele>
        <time>2023-07-19T07:59:21Z</time>
      </trkpt>
      <trkpt lat="49.83195" lon="2.49635">
        <ele>100.1</ele>
        <time>2023-07-19T07:59:23Z</time>
      </trkpt>
      <trkpt lat="49.83195" lon="2.49636">
        <ele>100.1</ele>
        <time>2023-07-19T07:59:24Z</time>
      </trkpt>
      <trkpt lat="49.83194" lon="2.49637">
        <ele>100.1</ele>
        <time>2023-07-19T07:59:25Z</time>
      </trkpt>
      <trkpt lat="49.83194" lon="2.49639">
        <ele>100.1</ele>
        <time>2023-07-19T07:59:27Z</time>
      </trkpt>
      <trkpt lat="49.83193" lon="2.49641">
        <ele>100.1</ele>
        <time>2023-07-19T07:59:28Z</time>
      </trkpt>
      <trkpt lat="49.83192" lon="2.49643">
        <ele>100.1</ele>
        <time>2023-07-19T07:59:29Z</time>
      </trkpt>
      <trkpt lat="49.83192" lon="2.49645">
        <ele>100.1</ele>
        <time>2023-07-19T07:59:30Z</time>
      </trkpt>
      <trkpt lat="49.83191" lon="2.49648">
        <ele>100.1</ele>
        <time>2023-07-19T07:59:31Z</time>
      </trkpt>
      <trkpt lat="49.8319" lon="2.4965">
        <ele>100.1</ele>
        <time>2023-07-19T07:59:33Z</time>
      </trkpt>
      <trkpt lat="49.8319" lon="2.49652">
        <ele>100.1</ele>
        <time>2023-07-19T07:59:34Z</time>
      </trkpt>
      <trkpt lat="49.83189" lon="2.49654">
        <ele>100.1</ele>
        <time>2023-07-19T07:59:35Z</time>
      </trkpt>
      <trkpt lat="49.83188" lon="2.49656">
        <ele>100.1</ele>
        <time>2023-07-19T07:59:36Z</time>
      </trkpt>
      <trkpt lat="49.83188" lon="2.49658">
        <ele>100.1</ele>
        <time>2023-07-19T07:59:37Z</time>
      </trkpt>
      <trkpt lat="49.83187" lon="2.4966">
        <ele>100.1</ele>
        <time>2023-07-19T07:59:38Z</time>
      </trkpt>
      <trkpt lat="49.83187" lon="2.49662">
        <ele>100.1</ele>
        <time>2023-07-19T07:59:39Z</time>
      </trkpt>
      <trkpt lat="49.83186" lon="2.49666">
        <ele>100.1</ele>
        <time>2023-07-19T07:59:41Z</time>
      </trkpt>
      <trkpt lat="49.83185" lon="2.49667">
        <ele>100.1</ele>
        <time>2023-07-19T07:59:42Z</time>
      </trkpt>
      <trkpt lat="49.83184" lon="2.49671">
        <ele>100.1</ele>
        <time>2023-07-19T07:59:43Z</time>
      </trkpt>
      <trkpt lat="49.83184" lon="2.49673">
        <ele>100.1</ele>
        <time>2023-07-19T07:59:45Z</time>
      </trkpt>
      <trkpt lat="49.83183" lon="2.49675">
        <ele>100</ele>
        <time>2023-07-19T07:59:46Z</time>
      </trkpt>
      <trkpt lat="49.83182" lon="2.49676">
        <ele>100</ele>
        <time>2023-07-19T07:59:47Z</time>
      </trkpt>
      <trkpt lat="49.83182" lon="2.49679">
        <ele>100</ele>
        <time>2023-07-19T07:59:48Z</time>
      </trkpt>
      <trkpt lat="49.83181" lon="2.49681">
        <ele>100</ele>
        <time>2023-07-19T07:59:49Z</time>
      </trkpt>
      <trkpt lat="49.8318" lon="2.49684">
        <ele>100</ele>
        <time>2023-07-19T07:59:50Z</time>
      </trkpt>
      <trkpt lat="49.83179" lon="2.49687">
        <ele>100</ele>
        <time>2023-07-19T07:59:52Z</time>
      </trkpt>
      <trkpt lat="49.83178" lon="2.49688">
        <ele>100</ele>
        <time>2023-07-19T07:59:54Z</time>
      </trkpt>
      <trkpt lat="49.83178" lon="2.4969">
        <ele>99.9</ele>
        <time>2023-07-19T07:59:55Z</time>
      </trkpt>
      <trkpt lat="49.83177" lon="2.49692">
        <ele>99.9</ele>
        <time>2023-07-19T07:59:56Z</time>
      </trkpt>
      <trkpt lat="49.83177" lon="2.49693">
        <ele>99.9</ele>
        <time>2023-07-19T07:59:57Z</time>
      </trkpt>
      <trkpt lat="49.83177" lon="2.49695">
        <ele>99.9</ele>
        <time>2023-07-19T07:59:58Z</time>
      </trkpt>
      <trkpt lat="49.83176" lon="2.49696">
        <ele>99.9</ele>
        <time>2023-07-19T07:59:59Z</time>
      </trkpt>
      <trkpt lat="49.83176" lon="2.49698">
        <ele>99.9</ele>
        <time>2023-07-19T08:00:00Z</time>
      </trkpt>
      <trkpt lat="49.83175" lon="2.497">
        <ele>99.8</ele>
        <time>2023-07-19T08:00:01Z</time>
      </trkpt>
      <trkpt lat="49.83175" lon="2.49701">
        <ele>99.8</ele>
        <time>2023-07-19T08:00:02Z</time>
      </trkpt>
      <trkpt lat="49.83175" lon="2.49703">
        <ele>99.8</ele>
        <time>2023-07-19T08:00:04Z</time>
      </trkpt>
      <trkpt lat="49.83174" lon="2.49706">
        <ele>99.8</ele>
        <time>2023-07-19T08:00:05Z</time>
      </trkpt>
      <trkpt lat="49.83174" lon="2.49708">
        <ele>99.8</ele>
        <time>2023-07-19T08:00:06Z</time>
      </trkpt>
      <trkpt lat="49.83174" lon="2.49711">
        <ele>99.7</ele>
        <time>2023-07-19T08:00:08Z</time>
      </trkpt>
      <trkpt lat="49.83173" lon="2.49713">
        <ele>99.7</ele>
        <time>2023-07-19T08:00:09Z</time>
      </trkpt>
      <trkpt lat="49.83173" lon="2.49715">
        <ele>99.7</ele>
        <time>2023-07-19T08:00:10Z</time>
      </trkpt>
      <trkpt lat="49.83172" lon="2.49717">
        <ele>99.7</ele>
        <time>2023-07-19T08:00:11Z</time>
      </trkpt>
      <trkpt lat="49.83172" lon="2.49719">
        <ele>99.6</ele>
        <time>2023-07-19T08:00:12Z</time>
      </trkpt>
      <trkpt lat="49.83171" lon="2.49722">
        <ele>99.6</ele>
        <time>2023-07-19T08:00:13Z</time>
      </trkpt>
      <trkpt lat="49.83171" lon="2.49723">
        <ele>99.6</ele>
        <time>2023-07-19T08:00:15Z</time>
      </trkpt>
      <trkpt lat="49.8317" lon="2.49725">
        <ele>99.6</ele>
        <time>2023-07-19T08:00:16Z</time>
      </trkpt>
      <trkpt lat="49.8317" lon="2.49727">
        <ele>99.5</ele>
        <time>2023-07-19T08:00:18Z</time>
      </trkpt>
      <trkpt lat="49.83171" lon="2.4973">
        <ele>99.5</ele>
        <time>2023-07-19T08:00:19Z</time>
      </trkpt>
      <trkpt lat="49.8317" lon="2.49734">
        <ele>99.5</ele>
        <time>2023-07-19T08:00:20Z</time>
      </trkpt>
      <trkpt lat="49.8317" lon="2.49735">
        <ele>99.5</ele>
        <time>2023-07-19T08:00:21Z</time>
      </trkpt>
      <trkpt lat="49.8317" lon="2.49738">
        <ele>99.4</ele>
        <time>2023-07-19T08:00:22Z</time>
      </trkpt>
      <trkpt lat="49.83169" lon="2.4974">
        <ele>99.4</ele>
        <time>2023-07-19T08:00:24Z</time>
      </trkpt>
      <trkpt lat="49.83169" lon="2.49741">
        <ele>99.4</ele>
        <time>2023-07-19T08:00:25Z</time>
      </trkpt>
      <trkpt lat="49.83168" lon="2.49744">
        <ele>99.4</ele>
        <time>2023-07-19T08:00:26Z</time>
      </trkpt>
      <trkpt lat="49.83168" lon="2.49746">
        <ele>99.3</ele>
        <time>2023-07-19T08:00:27Z</time>
      </trkpt>
      <trkpt lat="49.83167" lon="2.49747">
        <ele>99.3</ele>
        <time>2023-07-19T08:00:29Z</time>
      </trkpt>
      <trkpt lat="49.83167" lon="2.49749">
        <ele>99.3</ele>
        <time>2023-07-19T08:00:30Z</time>
      </trkpt>
      <trkpt lat="49.83166" lon="2.49751">
        <ele>99.3</ele>
        <time>2023-07-19T08:00:31Z</time>
      </trkpt>
      <trkpt lat="49.83166" lon="2.49753">
        <ele>99.3</ele>
        <time>2023-07-19T08:00:32Z</time>
      </trkpt>
      <trkpt lat="49.83166" lon="2.49754">
        <ele>99.3</ele>
        <time>2023-07-19T08:00:33Z</time>
      </trkpt>
      <trkpt lat="49.83165" lon="2.49758">
        <ele>99.2</ele>
        <time>2023-07-19T08:00:35Z</time>
      </trkpt>
      <trkpt lat="49.83164" lon="2.4976">
        <ele>99.2</ele>
        <time>2023-07-19T08:00:37Z</time>
      </trkpt>
      <trkpt lat="49.83164" lon="2.49763">
        <ele>99.2</ele>
        <time>2023-07-19T08:00:38Z</time>
      </trkpt>
      <trkpt lat="49.83163" lon="2.49768">
        <ele>99.2</ele>
        <time>2023-07-19T08:00:39Z</time>
      </trkpt>
      <trkpt lat="49.83163" lon="2.49769">
        <ele>99.2</ele>
        <time>2023-07-19T08:00:40Z</time>
      </trkpt>
      <trkpt lat="49.83162" lon="2.49771">
        <ele>99.1</ele>
        <time>2023-07-19T08:00:42Z</time>
      </trkpt>
      <trkpt lat="49.83162" lon="2.49774">
        <ele>99.1</ele>
        <time>2023-07-19T08:00:43Z</time>
      </trkpt>
      <trkpt lat="49.83162" lon="2.49775">
        <ele>99.1</ele>
        <time>2023-07-19T08:00:45Z</time>
      </trkpt>
      <trkpt lat="49.83161" lon="2.49777">
        <ele>99.1</ele>
        <time>2023-07-19T08:00:46Z</time>
      </trkpt>
      <trkpt lat="49.83161" lon="2.49779">
        <ele>99.1</ele>
        <time>2023-07-19T08:00:47Z</time>
      </trkpt>
      <trkpt lat="49.8316" lon="2.49782">
        <ele>99</ele>
        <time>2023-07-19T08:00:48Z</time>
      </trkpt>
      <trkpt lat="49.8316" lon="2.49783">
        <ele>99</ele>
        <time>2023-07-19T08:00:49Z</time>
      </trkpt>
      <trkpt lat="49.83159" lon="2.49784">
        <ele>99</ele>
        <time>2023-07-19T08:00:50Z</time>
      </trkpt>
      <trkpt lat="49.83159" lon="2.49787">
        <ele>99</ele>
        <time>2023-07-19T08:00:51Z</time>
      </trkpt>
      <trkpt lat="49.83158" lon="2.49789">
        <ele>99</ele>
        <time>2023-07-19T08:00:53Z</time>
      </trkpt>
      <trkpt lat="49.83158" lon="2.49791">
        <ele>99</ele>
        <time>2023-07-19T08:00:55Z</time>
      </trkpt>
      <trkpt lat="49.83157" lon="2.49792">
        <ele>99</ele>
        <time>2023-07-19T08:00:56Z</time>
      </trkpt>
      <trkpt lat="49.83157" lon="2.49794">
        <ele>98.9</ele>
        <time>2023-07-19T08:00:57Z</time>
      </trkpt>
      <trkpt lat="49.83156" lon="2.49798">
        <ele>98.9</ele>
        <time>2023-07-19T08:00:58Z</time>
      </trkpt>
      <trkpt lat="49.83156" lon="2.498">
        <ele>98.9</ele>
        <time>2023-07-19T08:00:59Z</time>
      </trkpt>
      <trkpt lat="49.83156" lon="2.49803">
        <ele>98.8</ele>
        <time>2023-07-19T08:01:00Z</time>
      </trkpt>
      <trkpt lat="49.83155" lon="2.49804">
        <ele>98.8</ele>
        <time>2023-07-19T08:01:01Z</time>
      </trkpt>
      <trkpt lat="49.83155" lon="2.49806">
        <ele>98.8</ele>
        <time>2023-07-19T08:01:02Z</time>
      </trkpt>
      <trkpt lat="49.83155" lon="2.49808">
        <ele>98.8</ele>
        <time>2023-07-19T08:01:04Z</time>
      </trkpt>
      <trkpt lat="49.83154" lon="2.4981">
        <ele>98.8</ele>
        <time>2023-07-19T08:01:05Z</time>
      </trkpt>
      <trkpt lat="49.83154" lon="2.49813">
        <ele>98.7</ele>
        <time>2023-07-19T08:01:06Z</time>
      </trkpt>
      <trkpt lat="49.83154" lon="2.49815">
        <ele>98.7</ele>
        <time>2023-07-19T08:01:07Z</time>
      </trkpt>
      <trkpt lat="49.83153" lon="2.49817">
        <ele>98.7</ele>
        <time>2023-07-19T08:01:08Z</time>
      </trkpt>
      <trkpt lat="49.83153" lon="2.49819">
        <ele>98.7</ele>
        <time>2023-07-19T08:01:10Z</time>
      </trkpt>
      <trkpt lat="49.83153" lon="2.49821">
        <ele>98.6</ele>
        <time>2023-07-19T08:01:11Z</time>
      </trkpt>
      <trkpt lat="49.83152" lon="2.49824">
        <ele>98.6</ele>
        <time>2023-07-19T08:01:12Z</time>
      </trkpt>
      <trkpt lat="49.83152" lon="2.49828">
        <ele>98.6</ele>
        <time>2023-07-19T08:01:13Z</time>
      </trkpt>
      <trkpt lat="49.83152" lon="2.49833">
        <ele>98.5</ele>
        <time>2023-07-19T08:01:15Z</time>
      </trkpt>
      <trkpt lat="49.83152" lon="2.49834">
        <ele>98.5</ele>
        <time>2023-07-19T08:01:16Z</time>
      </trkpt>
      <trkpt lat="49.83151" lon="2.49836">
        <ele>98.5</ele>
        <time>2023-07-19T08:01:17Z</time>
      </trkpt>
      <trkpt lat="49.83151" lon="2.49839">
        <ele>98.5</ele>
        <time>2023-07-19T08:01:18Z</time>
      </trkpt>
      <trkpt lat="49.83151" lon="2.49841">
        <ele>98.4</ele>
        <time>2023-07-19T08:01:19Z</time>
      </trkpt>
      <trkpt lat="49.83151" lon="2.49843">
        <ele>98.4</ele>
        <time>2023-07-19T08:01:20Z</time>
      </trkpt>
      <trkpt lat="49.8315" lon="2.49845">
        <ele>98.4</ele>
        <time>2023-07-19T08:01:21Z</time>
      </trkpt>
      <trkpt lat="49.8315" lon="2.49848">
        <ele>98.4</ele>
        <time>2023-07-19T08:01:22Z</time>
      </trkpt>
      <trkpt lat="49.8315" lon="2.4985">
        <ele>98.4</ele>
        <time>2023-07-19T08:01:24Z</time>
      </trkpt>
      <trkpt lat="49.83149" lon="2.49853">
        <ele>98.3</ele>
        <time>2023-07-19T08:01:25Z</time>
      </trkpt>
      <trkpt lat="49.83149" lon="2.49855">
        <ele>98.3</ele>
        <time>2023-07-19T08:01:26Z</time>
      </trkpt>
      <trkpt lat="49.83149" lon="2.49857">
        <ele>98.3</ele>
        <time>2023-07-19T08:01:27Z</time>
      </trkpt>
      <trkpt lat="49.83148" lon="2.49862">
        <ele>98.3</ele>
        <time>2023-07-19T08:01:29Z</time>
      </trkpt>
      <trkpt lat="49.83148" lon="2.49863">
        <ele>98.3</ele>
        <time>2023-07-19T08:01:30Z</time>
      </trkpt>
      <trkpt lat="49.83147" lon="2.49867">
        <ele>98.2</ele>
        <time>2023-07-19T08:01:31Z</time>
      </trkpt>
      <trkpt lat="49.83147" lon="2.49868">
        <ele>98.2</ele>
        <time>2023-07-19T08:01:32Z</time>
      </trkpt>
      <trkpt lat="49.83147" lon="2.49869">
        <ele>98.2</ele>
        <time>2023-07-19T08:01:33Z</time>
      </trkpt>
      <trkpt lat="49.83147" lon="2.49871">
        <ele>98.2</ele>
        <time>2023-07-19T08:01:34Z</time>
      </trkpt>
      <trkpt lat="49.83147" lon="2.49872">
        <ele>98.2</ele>
        <time>2023-07-19T08:01:36Z</time>
      </trkpt>
      <trkpt lat="49.83147" lon="2.49873">
        <ele>98.2</ele>
        <time>2023-07-19T08:01:37Z</time>
      </trkpt>
      <trkpt lat="49.83147" lon="2.49876">
        <ele>98.2</ele>
        <time>2023-07-19T08:01:38Z</time>
      </trkpt>
      <trkpt lat="49.83147" lon="2.49877">
        <ele>98.2</ele>
        <time>2023-07-19T08:01:39Z</time>
      </trkpt>
      <trkpt lat="49.83146" lon="2.49878">
        <ele>98.1</ele>
        <time>2023-07-19T08:01:40Z</time>
      </trkpt>
      <trkpt lat="49.83146" lon="2.4988">
        <ele>98.1</ele>
        <time>2023-07-19T08:01:42Z</time>
      </trkpt>
      <trkpt lat="49.83146" lon="2.49882">
        <ele>98.1</ele>
        <time>2023-07-19T08:01:43Z</time>
      </trkpt>
      <trkpt lat="49.83145" lon="2.49883">
        <ele>98.1</ele>
        <time>2023-07-19T08:01:44Z</time>
      </trkpt>
      <trkpt lat="49.83145" lon="2.49886">
        <ele>98.1</ele>
        <time>2023-07-19T08:01:45Z</time>
      </trkpt>
      <trkpt lat="49.83145" lon="2.49888">
        <ele>98.1</ele>
        <time>2023-07-19T08:01:46Z</time>
      </trkpt>
      <trkpt lat="49.83144" lon="2.4989">
        <ele>98.1</ele>
        <time>2023-07-19T08:01:47Z</time>
      </trkpt>
      <trkpt lat="49.83144" lon="2.49891">
        <ele>98</ele>
        <time>2023-07-19T08:01:48Z</time>
      </trkpt>
      <trkpt lat="49.83144" lon="2.49893">
        <ele>98</ele>
        <time>2023-07-19T08:01:49Z</time>
      </trkpt>
      <trkpt lat="49.83143" lon="2.49895">
        <ele>98</ele>
        <time>2023-07-19T08:01:50Z</time>
      </trkpt>
      <trkpt lat="49.83143" lon="2.49897">
        <ele>98</ele>
        <time>2023-07-19T08:01:51Z</time>
      </trkpt>
      <trkpt lat="49.83142" lon="2.49898">
        <ele>98</ele>
        <time>2023-07-19T08:01:52Z</time>
      </trkpt>
      <trkpt lat="49.83142" lon="2.499">
        <ele>98</ele>
        <time>2023-07-19T08:01:53Z</time>
      </trkpt>
      <trkpt lat="49.83141" lon="2.49903">
        <ele>98</ele>
        <time>2023-07-19T08:01:55Z</time>
      </trkpt>
      <trkpt lat="49.83141" lon="2.49904">
        <ele>97.9</ele>
        <time>2023-07-19T08:01:56Z</time>
      </trkpt>
      <trkpt lat="49.83141" lon="2.49906">
        <ele>97.9</ele>
        <time>2023-07-19T08:01:57Z</time>
      </trkpt>
      <trkpt lat="49.8314" lon="2.49908">
        <ele>97.9</ele>
        <time>2023-07-19T08:01:58Z</time>
      </trkpt>
      <trkpt lat="49.8314" lon="2.49909">
        <ele>97.9</ele>
        <time>2023-07-19T08:01:59Z</time>
      </trkpt>
      <trkpt lat="49.8314" lon="2.4991">
        <ele>97.9</ele>
        <time>2023-07-19T08:02:01Z</time>
      </trkpt>
      <trkpt lat="49.8314" lon="2.49912">
        <ele>97.9</ele>
        <time>2023-07-19T08:02:02Z</time>
      </trkpt>
      <trkpt lat="49.83139" lon="2.49915">
        <ele>97.9</ele>
        <time>2023-07-19T08:02:03Z</time>
      </trkpt>
      <trkpt lat="49.83139" lon="2.49917">
        <ele>97.9</ele>
        <time>2023-07-19T08:02:04Z</time>
      </trkpt>
      <trkpt lat="49.83139" lon="2.49918">
        <ele>97.9</ele>
        <time>2023-07-19T08:02:05Z</time>
      </trkpt>
      <trkpt lat="49.83138" lon="2.49921">
        <ele>97.8</ele>
        <time>2023-07-19T08:02:07Z</time>
      </trkpt>
      <trkpt lat="49.83138" lon="2.49923">
        <ele>97.8</ele>
        <time>2023-07-19T08:02:08Z</time>
      </trkpt>
      <trkpt lat="49.83138" lon="2.49924">
        <ele>97.8</ele>
        <time>2023-07-19T08:02:09Z</time>
      </trkpt>
      <trkpt lat="49.83138" lon="2.49927">
        <ele>97.8</ele>
        <time>2023-07-19T08:02:10Z</time>
      </trkpt>
      <trkpt lat="49.83138" lon="2.49929">
        <ele>97.8</ele>
        <time>2023-07-19T08:02:11Z</time>
      </trkpt>
      <trkpt lat="49.83137" lon="2.49932">
        <ele>97.8</ele>
        <time>2023-07-19T08:02:12Z</time>
      </trkpt>
      <trkpt lat="49.83137" lon="2.49933">
        <ele>97.8</ele>
        <time>2023-07-19T08:02:13Z</time>
      </trkpt>
      <trkpt lat="49.83137" lon="2.49934">
        <ele>97.8</ele>
        <time>2023-07-19T08:02:14Z</time>
      </trkpt>
      <trkpt lat="49.83136" lon="2.49937">
        <ele>97.8</ele>
        <time>2023-07-19T08:02:15Z</time>
      </trkpt>
      <trkpt lat="49.83136" lon="2.49939">
        <ele>97.8</ele>
        <time>2023-07-19T08:02:16Z</time>
      </trkpt>
      <trkpt lat="49.83136" lon="2.4994">
        <ele>97.7</ele>
        <time>2023-07-19T08:02:17Z</time>
      </trkpt>
      <trkpt lat="49.83136" lon="2.49942">
        <ele>97.7</ele>
        <time>2023-07-19T08:02:18Z</time>
      </trkpt>
      <trkpt lat="49.83135" lon="2.49945">
        <ele>97.7</ele>
        <time>2023-07-19T08:02:20Z</time>
      </trkpt>
      <trkpt lat="49.83135" lon="2.49947">
        <ele>97.7</ele>
        <time>2023-07-19T08:02:21Z</time>
      </trkpt>
      <trkpt lat="49.83135" lon="2.49949">
        <ele>97.7</ele>
        <time>2023-07-19T08:02:22Z</time>
      </trkpt>
      <trkpt lat="49.83135" lon="2.49952">
        <ele>97.7</ele>
        <time>2023-07-19T08:02:23Z</time>
      </trkpt>
      <trkpt lat="49.83134" lon="2.49954">
        <ele>97.7</ele>
        <time>2023-07-19T08:02:25Z</time>
      </trkpt>
      <trkpt lat="49.83134" lon="2.49955">
        <ele>97.7</ele>
        <time>2023-07-19T08:02:26Z</time>
      </trkpt>
      <trkpt lat="49.83134" lon="2.49957">
        <ele>97.6</ele>
        <time>2023-07-19T08:02:27Z</time>
      </trkpt>
      <trkpt lat="49.83134" lon="2.49959">
        <ele>97.6</ele>
        <time>2023-07-19T08:02:28Z</time>
      </trkpt>
      <trkpt lat="49.83134" lon="2.49961">
        <ele>97.6</ele>
        <time>2023-07-19T08:02:29Z</time>
      </trkpt>
      <trkpt lat="49.83133" lon="2.49964">
        <ele>97.6</ele>
        <time>2023-07-19T08:02:30Z</time>
      </trkpt>
      <trkpt lat="49.83133" lon="2.49966">
        <ele>97.6</ele>
        <time>2023-07-19T08:02:31Z</time>
      </trkpt>
      <trkpt lat="49.83132" lon="2.49968">
        <ele>97.6</ele>
        <time>2023-07-19T08:02:32Z</time>
      </trkpt>
      <trkpt lat="49.83132" lon="2.49969">
        <ele>97.6</ele>
        <time>2023-07-19T08:02:34Z</time>
      </trkpt>
      <trkpt lat="49.83132" lon="2.49973">
        <ele>97.6</ele>
        <time>2023-07-19T08:02:35Z</time>
      </trkpt>
      <trkpt lat="49.83132" lon="2.49974">
        <ele>97.6</ele>
        <time>2023-07-19T08:02:36Z</time>
      </trkpt>
      <trkpt lat="49.83131" lon="2.49976">
        <ele>97.6</ele>
        <time>2023-07-19T08:02:37Z</time>
      </trkpt>
      <trkpt lat="49.83131" lon="2.49978">
        <ele>97.6</ele>
        <time>2023-07-19T08:02:38Z</time>
      </trkpt>
      <trkpt lat="49.8313" lon="2.4998">
        <ele>97.6</ele>
        <time>2023-07-19T08:02:39Z</time>
      </trkpt>
      <trkpt lat="49.8313" lon="2.49983">
        <ele>97.6</ele>
        <time>2023-07-19T08:02:40Z</time>
      </trkpt>
      <trkpt lat="49.8313" lon="2.49985">
        <ele>97.6</ele>
        <time>2023-07-19T08:02:41Z</time>
      </trkpt>
      <trkpt lat="49.83129" lon="2.49987">
        <ele>97.6</ele>
        <time>2023-07-19T08:02:42Z</time>
      </trkpt>
      <trkpt lat="49.83129" lon="2.4999">
        <ele>97.6</ele>
        <time>2023-07-19T08:02:44Z</time>
      </trkpt>
      <trkpt lat="49.83128" lon="2.49992">
        <ele>97.6</ele>
        <time>2023-07-19T08:02:45Z</time>
      </trkpt>
      <trkpt lat="49.83128" lon="2.49994">
        <ele>97.6</ele>
        <time>2023-07-19T08:02:46Z</time>
      </trkpt>
      <trkpt lat="49.83127" lon="2.49996">
        <ele>97.6</ele>
        <time>2023-07-19T08:02:47Z</time>
      </trkpt>
      <trkpt lat="49.83127" lon="2.49998">
        <ele>97.6</ele>
        <time>2023-07-19T08:02:48Z</time>
      </trkpt>
      <trkpt lat="49.83127" lon="2.50001">
        <ele>97.6</ele>
        <time>2023-07-19T08:02:49Z</time>
      </trkpt>
      <trkpt lat="49.83126" lon="2.50003">
        <ele>97.6</ele>
        <time>2023-07-19T08:02:51Z</time>
      </trkpt>
      <trkpt lat="49.83126" lon="2.50005">
        <ele>97.6</ele>
        <time>2023-07-19T08:02:52Z</time>
      </trkpt>
      <trkpt lat="49.83125" lon="2.50008">
        <ele>97.6</ele>
        <time>2023-07-19T08:02:53Z</time>
      </trkpt>
      <trkpt lat="49.83125" lon="2.50009">
        <ele>97.6</ele>
        <time>2023-07-19T08:02:54Z</time>
      </trkpt>
      <trkpt lat="49.83124" lon="2.50011">
        <ele>97.6</ele>
        <time>2023-07-19T08:02:55Z</time>
      </trkpt>
      <trkpt lat="49.83124" lon="2.50012">
        <ele>97.6</ele>
        <time>2023-07-19T08:02:56Z</time>
      </trkpt>
      <trkpt lat="49.83124" lon="2.50014">
        <ele>97.6</ele>
        <time>2023-07-19T08:02:58Z</time>
      </trkpt>
      <trkpt lat="49.83123" lon="2.50016">
        <ele>97.6</ele>
        <time>2023-07-19T08:02:59Z</time>
      </trkpt>
      <trkpt lat="49.83123" lon="2.50017">
        <ele>97.6</ele>
        <time>2023-07-19T08:03:00Z</time>
      </trkpt>
      <trkpt lat="49.83122" lon="2.50021">
        <ele>97.6</ele>
        <time>2023-07-19T08:03:01Z</time>
      </trkpt>
      <trkpt lat="49.83122" lon="2.50022">
        <ele>97.6</ele>
        <time>2023-07-19T08:03:03Z</time>
      </trkpt>
      <trkpt lat="49.83122" lon="2.50023">
        <ele>97.6</ele>
        <time>2023-07-19T08:03:04Z</time>
      </trkpt>
      <trkpt lat="49.83121" lon="2.50026">
        <ele>97.6</ele>
        <time>2023-07-19T08:03:05Z</time>
      </trkpt>
      <trkpt lat="49.83121" lon="2.50027">
        <ele>97.6</ele>
        <time>2023-07-19T08:03:06Z</time>
      </trkpt>
      <trkpt lat="49.83121" lon="2.50028">
        <ele>97.6</ele>
        <time>2023-07-19T08:03:07Z</time>
      </trkpt>
      <trkpt lat="49.83121" lon="2.50029">
        <ele>97.6</ele>
        <time>2023-07-19T08:03:09Z</time>
      </trkpt>
      <trkpt lat="49.8312" lon="2.50031">
        <ele>97.6</ele>
        <time>2023-07-19T08:03:10Z</time>
      </trkpt>
      <trkpt lat="49.8312" lon="2.50032">
        <ele>97.6</ele>
        <time>2023-07-19T08:03:11Z</time>
      </trkpt>
      <trkpt lat="49.83119" lon="2.50035">
        <ele>97.6</ele>
        <time>2023-07-19T08:03:12Z</time>
      </trkpt>
      <trkpt lat="49.83119" lon="2.50036">
        <ele>97.6</ele>
        <time>2023-07-19T08:03:13Z</time>
      </trkpt>
      <trkpt lat="49.83119" lon="2.50038">
        <ele>97.6</ele>
        <time>2023-07-19T08:03:14Z</time>
      </trkpt>
      <trkpt lat="49.83119" lon="2.5004">
        <ele>97.6</ele>
        <time>2023-07-19T08:03:15Z</time>
      </trkpt>
      <trkpt lat="49.83118" lon="2.50042">
        <ele>97.6</ele>
        <time>2023-07-19T08:03:16Z</time>
      </trkpt>
      <trkpt lat="49.83118" lon="2.50045">
        <ele>97.6</ele>
        <time>2023-07-19T08:03:17Z</time>
      </trkpt>
      <trkpt lat="49.83118" lon="2.50046">
        <ele>97.6</ele>
        <time>2023-07-19T08:03:19Z</time>
      </trkpt>
      <trkpt lat="49.83118" lon="2.50047">
        <ele>97.6</ele>
        <time>2023-07-19T08:03:20Z</time>
      </trkpt>
      <trkpt lat="49.83118" lon="2.50048">
        <ele>97.6</ele>
        <time>2023-07-19T08:03:21Z</time>
      </trkpt>
      <trkpt lat="49.83117" lon="2.50051">
        <ele>97.6</ele>
        <time>2023-07-19T08:03:22Z</time>
      </trkpt>
      <trkpt lat="49.83117" lon="2.50052">
        <ele>97.6</ele>
        <time>2023-07-19T08:03:23Z</time>
      </trkpt>
      <trkpt lat="49.83117" lon="2.50054">
        <ele>97.6</ele>
        <time>2023-07-19T08:03:24Z</time>
      </trkpt>
      <trkpt lat="49.83116" lon="2.50054">
        <ele>97.6</ele>
        <time>2023-07-19T08:03:26Z</time>
      </trkpt>
      <trkpt lat="49.83116" lon="2.50055">
        <ele>97.6</ele>
        <time>2023-07-19T08:03:27Z</time>
      </trkpt>
      <trkpt lat="49.83116" lon="2.50057">
        <ele>97.6</ele>
        <time>2023-07-19T08:03:28Z</time>
      </trkpt>
      <trkpt lat="49.83116" lon="2.50058">
        <ele>97.6</ele>
        <time>2023-07-19T08:03:29Z</time>
      </trkpt>
      <trkpt lat="49.83116" lon="2.50059">
        <ele>97.6</ele>
        <time>2023-07-19T08:03:30Z</time>
      </trkpt>
      <trkpt lat="49.83116" lon="2.50061">
        <ele>97.6</ele>
        <time>2023-07-19T08:03:31Z</time>
      </trkpt>
      <trkpt lat="49.83116" lon="2.50062">
        <ele>97.6</ele>
        <time>2023-07-19T08:03:32Z</time>
      </trkpt>
      <trkpt lat="49.83116" lon="2.50063">
        <ele>97.6</ele>
        <time>2023-07-19T08:03:34Z</time>
      </trkpt>
      <trkpt lat="49.83115" lon="2.50064">
        <ele>97.6</ele>
        <time>2023-07-19T08:03:35Z</time>
      </trkpt>
      <trkpt lat="49.83115" lon="2.50066">
        <ele>97.6</ele>
        <time>2023-07-19T08:03:36Z</time>
      </trkpt>
      <trkpt lat="49.83116" lon="2.50068">
        <ele>97.6</ele>
        <time>2023-07-19T08:03:37Z</time>
      </trkpt>
      <trkpt lat="49.83116" lon="2.50069">
        <ele>97.6</ele>
        <time>2023-07-19T08:03:38Z</time>
      </trkpt>
      <trkpt lat="49.83115" lon="2.50072">
        <ele>97.6</ele>
        <time>2023-07-19T08:03:40Z</time>
      </trkpt>
      <trkpt lat="49.83115" lon="2.50074">
        <ele>97.6</ele>
        <time>2023-07-19T08:03:41Z</time>
      </trkpt>
      <trkpt lat="49.83115" lon="2.50075">
        <ele>97.6</ele>
        <time>2023-07-19T08:03:42Z</time>
      </trkpt>
      <trkpt lat="49.83114" lon="2.50078">
        <ele>97.6</ele>
        <time>2023-07-19T08:03:44Z</time>
      </trkpt>
      <trkpt lat="49.83113" lon="2.5008">
        <ele>97.6</ele>
        <time>2023-07-19T08:03:45Z</time>
      </trkpt>
      <trkpt lat="49.83113" lon="2.50081">
        <ele>97.6</ele>
        <time>2023-07-19T08:03:46Z</time>
      </trkpt>
      <trkpt lat="49.83113" lon="2.50083">
        <ele>97.6</ele>
        <time>2023-07-19T08:03:47Z</time>
      </trkpt>
      <trkpt lat="49.83112" lon="2.50084">
        <ele>97.6</ele>
        <time>2023-07-19T08:03:48Z</time>
      </trkpt>
      <trkpt lat="49.83112" lon="2.50086">
        <ele>97.6</ele>
        <time>2023-07-19T08:03:49Z</time>
      </trkpt>
      <trkpt lat="49.83112" lon="2.50088">
        <ele>97.7</ele>
        <time>2023-07-19T08:03:50Z</time>
      </trkpt>
      <trkpt lat="49.83112" lon="2.50088">
        <ele>97.7</ele>
        <time>2023-07-19T08:03:52Z</time>
      </trkpt>
      <trkpt lat="49.83112" lon="2.50089">
        <ele>97.7</ele>
        <time>2023-07-19T08:03:53Z</time>
      </trkpt>
      <trkpt lat="49.83112" lon="2.5009">
        <ele>97.7</ele>
        <time>2023-07-19T08:03:55Z</time>
      </trkpt>
      <trkpt lat="49.83111" lon="2.50091">
        <ele>97.7</ele>
        <time>2023-07-19T08:03:56Z</time>
      </trkpt>
      <trkpt lat="49.83111" lon="2.50093">
        <ele>97.7</ele>
        <time>2023-07-19T08:03:57Z</time>
      </trkpt>
      <trkpt lat="49.83111" lon="2.50095">
        <ele>97.7</ele>
        <time>2023-07-19T08:03:58Z</time>
      </trkpt>
      <trkpt lat="49.83111" lon="2.50096">
        <ele>97.7</ele>
        <time>2023-07-19T08:03:59Z</time>
      </trkpt>
      <trkpt lat="49.8311" lon="2.50098">
        <ele>97.7</ele>
        <time>2023-07-19T08:04:00Z</time>
      </trkpt>
      <trkpt lat="49.8311" lon="2.501">
        <ele>97.7</ele>
        <time>2023-07-19T08:04:01Z</time>
      </trkpt>
      <trkpt lat="49.8311" lon="2.50102">
        <ele>97.7</ele>
        <time>2023-07-19T08:04:03Z</time>
      </trkpt>
      <trkpt lat="49.83109" lon="2.50104">
        <ele>97.8</ele>
        <time>2023-07-19T08:04:04Z</time>
      </trkpt>
      <trkpt lat="49.83109" lon="2.50106">
        <ele>97.8</ele>
        <time>2023-07-19T08:04:05Z</time>
      </trkpt>
      <trkpt lat="49.83109" lon="2.5011">
        <ele>97.8</ele>
        <time>2023-07-19T08:04:06Z</time>
      </trkpt>
      <trkpt lat="49.83109" lon="2.50111">
        <ele>97.8</ele>
        <time>2023-07-19T08:04:07Z</time>
      </trkpt>
      <trkpt lat="49.83109" lon="2.50112">
        <ele>97.8</ele>
        <time>2023-07-19T08:04:08Z</time>
      </trkpt>
      <trkpt lat="49.83108" lon="2.50114">
        <ele>97.8</ele>
        <time>2023-07-19T08:04:09Z</time>
      </trkpt>
      <trkpt lat="49.83108" lon="2.50116">
        <ele>97.8</ele>
        <time>2023-07-19T08:04:10Z</time>
      </trkpt>
      <trkpt lat="49.83108" lon="2.50117">
        <ele>97.9</ele>
        <time>2023-07-19T08:04:12Z</time>
      </trkpt>
      <trkpt lat="49.83108" lon="2.50119">
        <ele>97.9</ele>
        <time>2023-07-19T08:04:13Z</time>
      </trkpt>
      <trkpt lat="49.83107" lon="2.50122">
        <ele>97.9</ele>
        <time>2023-07-19T08:04:14Z</time>
      </trkpt>
      <trkpt lat="49.83107" lon="2.50124">
        <ele>97.9</ele>
        <time>2023-07-19T08:04:15Z</time>
      </trkpt>
      <trkpt lat="49.83107" lon="2.50125">
        <ele>97.9</ele>
        <time>2023-07-19T08:04:16Z</time>
      </trkpt>
      <trkpt lat="49.83106" lon="2.50127">
        <ele>97.9</ele>
        <time>2023-07-19T08:04:17Z</time>
      </trkpt>
      <trkpt lat="49.83106" lon="2.50129">
        <ele>97.9</ele>
        <time>2023-07-19T08:04:18Z</time>
      </trkpt>
      <trkpt lat="49.83105" lon="2.5013">
        <ele>97.9</ele>
        <time>2023-07-19T08:04:19Z</time>
      </trkpt>
      <trkpt lat="49.83105" lon="2.50132">
        <ele>97.9</ele>
        <time>2023-07-19T08:04:21Z</time>
      </trkpt>
      <trkpt lat="49.83104" lon="2.50133">
        <ele>97.9</ele>
        <time>2023-07-19T08:04:22Z</time>
      </trkpt>
      <trkpt lat="49.83103" lon="2.50135">
        <ele>97.9</ele>
        <time>2023-07-19T08:04:23Z</time>
      </trkpt>
      <trkpt lat="49.83103" lon="2.50137">
        <ele>97.9</ele>
        <time>2023-07-19T08:04:24Z</time>
      </trkpt>
      <trkpt lat="49.83102" lon="2.50139">
        <ele>97.9</ele>
        <time>2023-07-19T08:04:25Z</time>
      </trkpt>
      <trkpt lat="49.83102" lon="2.5014">
        <ele>97.9</ele>
        <time>2023-07-19T08:04:26Z</time>
      </trkpt>
      <trkpt lat="49.83101" lon="2.50143">
        <ele>97.9</ele>
        <time>2023-07-19T08:04:27Z</time>
      </trkpt>
      <trkpt lat="49.83101" lon="2.50145">
        <ele>97.9</ele>
        <time>2023-07-19T08:04:29Z</time>
      </trkpt>
      <trkpt lat="49.83101" lon="2.50146">
        <ele>97.9</ele>
        <time>2023-07-19T08:04:30Z</time>
      </trkpt>
      <trkpt lat="49.83101" lon="2.50148">
        <ele>97.9</ele>
        <time>2023-07-19T08:04:31Z</time>
      </trkpt>
      <trkpt lat="49.831" lon="2.5015">
        <ele>97.9</ele>
        <time>2023-07-19T08:04:32Z</time>
      </trkpt>
      <trkpt lat="49.831" lon="2.50151">
        <ele>97.9</ele>
        <time>2023-07-19T08:04:33Z</time>
      </trkpt>
      <trkpt lat="49.831" lon="2.50153">
        <ele>97.9</ele>
        <time>2023-07-19T08:04:34Z</time>
      </trkpt>
      <trkpt lat="49.831" lon="2.50155">
        <ele>97.9</ele>
        <time>2023-07-19T08:04:35Z</time>
      </trkpt>
      <trkpt lat="49.83099" lon="2.50157">
        <ele>97.9</ele>
        <time>2023-07-19T08:04:36Z</time>
      </trkpt>
      <trkpt lat="49.83099" lon="2.50159">
        <ele>97.9</ele>
        <time>2023-07-19T08:04:38Z</time>
      </trkpt>
      <trkpt lat="49.83099" lon="2.50161">
        <ele>97.9</ele>
        <time>2023-07-19T08:04:39Z</time>
      </trkpt>
      <trkpt lat="49.83098" lon="2.50163">
        <ele>97.9</ele>
        <time>2023-07-19T08:04:40Z</time>
      </trkpt>
      <trkpt lat="49.83098" lon="2.50166">
        <ele>97.9</ele>
        <time>2023-07-19T08:04:41Z</time>
      </trkpt>
      <trkpt lat="49.83098" lon="2.50168">
        <ele>97.9</ele>
        <time>2023-07-19T08:04:42Z</time>
      </trkpt>
      <trkpt lat="49.83098" lon="2.5017">
        <ele>97.9</ele>
        <time>2023-07-19T08:04:43Z</time>
      </trkpt>
      <trkpt lat="49.83098" lon="2.50173">
        <ele>98</ele>
        <time>2023-07-19T08:04:44Z</time>
      </trkpt>
      <trkpt lat="49.83097" lon="2.50175">
        <ele>98</ele>
        <time>2023-07-19T08:04:45Z</time>
      </trkpt>
      <trkpt lat="49.83097" lon="2.50177">
        <ele>98</ele>
        <time>2023-07-19T08:04:46Z</time>
      </trkpt>
      <trkpt lat="49.83096" lon="2.5018">
        <ele>98</ele>
        <time>2023-07-19T08:04:48Z</time>
      </trkpt>
      <trkpt lat="49.83096" lon="2.50181">
        <ele>98</ele>
        <time>2023-07-19T08:04:49Z</time>
      </trkpt>
      <trkpt lat="49.83096" lon="2.50182">
        <ele>98</ele>
        <time>2023-07-19T08:04:50Z</time>
      </trkpt>
      <trkpt lat="49.83095" lon="2.50186">
        <ele>98</ele>
        <time>2023-07-19T08:04:51Z</time>
      </trkpt>
      <trkpt lat="49.83095" lon="2.50187">
        <ele>98</ele>
        <time>2023-07-19T08:04:52Z</time>
      </trkpt>
      <trkpt lat="49.83095" lon="2.50188">
        <ele>98</ele>
        <time>2023-07-19T08:04:53Z</time>
      </trkpt>
      <trkpt lat="49.83094" lon="2.5019">
        <ele>98</ele>
        <time>2023-07-19T08:04:54Z</time>
      </trkpt>
      <trkpt lat="49.83094" lon="2.50193">
        <ele>98</ele>
        <time>2023-07-19T08:04:55Z</time>
      </trkpt>
      <trkpt lat="49.83094" lon="2.50195">
        <ele>98</ele>
        <time>2023-07-19T08:04:57Z</time>
      </trkpt>
      <trkpt lat="49.83094" lon="2.50197">
        <ele>98</ele>
        <time>2023-07-19T08:04:58Z</time>
      </trkpt>
      <trkpt lat="49.83093" lon="2.50199">
        <ele>98</ele>
        <time>2023-07-19T08:04:59Z</time>
      </trkpt>
      <trkpt lat="49.83093" lon="2.50202">
        <ele>98.1</ele>
        <time>2023-07-19T08:05:00Z</time>
      </trkpt>
      <trkpt lat="49.83093" lon="2.50204">
        <ele>98.1</ele>
        <time>2023-07-19T08:05:01Z</time>
      </trkpt>
      <trkpt lat="49.83092" lon="2.50206">
        <ele>98.1</ele>
        <time>2023-07-19T08:05:02Z</time>
      </trkpt>
      <trkpt lat="49.83092" lon="2.50209">
        <ele>98.1</ele>
        <time>2023-07-19T08:05:03Z</time>
      </trkpt>
      <trkpt lat="49.83092" lon="2.50212">
        <ele>98.1</ele>
        <time>2023-07-19T08:05:04Z</time>
      </trkpt>
      <trkpt lat="49.83092" lon="2.50214">
        <ele>98.1</ele>
        <time>2023-07-19T08:05:05Z</time>
      </trkpt>
      <trkpt lat="49.83092" lon="2.50215">
        <ele>98.1</ele>
        <time>2023-07-19T08:05:07Z</time>
      </trkpt>
      <trkpt lat="49.83091" lon="2.50216">
        <ele>98.1</ele>
        <time>2023-07-19T08:05:08Z</time>
      </trkpt>
      <trkpt lat="49.83091" lon="2.50217">
        <ele>98.1</ele>
        <time>2023-07-19T08:05:09Z</time>
      </trkpt>
      <trkpt lat="49.83091" lon="2.5022">
        <ele>98.1</ele>
        <time>2023-07-19T08:05:10Z</time>
      </trkpt>
      <trkpt lat="49.8309" lon="2.50222">
        <ele>98.1</ele>
        <time>2023-07-19T08:05:11Z</time>
      </trkpt>
      <trkpt lat="49.8309" lon="2.50223">
        <ele>98.1</ele>
        <time>2023-07-19T08:05:12Z</time>
      </trkpt>
      <trkpt lat="49.8309" lon="2.50225">
        <ele>98.1</ele>
        <time>2023-07-19T08:05:13Z</time>
      </trkpt>
      <trkpt lat="49.8309" lon="2.50227">
        <ele>98.1</ele>
        <time>2023-07-19T08:05:14Z</time>
      </trkpt>
      <trkpt lat="49.83089" lon="2.50228">
        <ele>98.1</ele>
        <time>2023-07-19T08:05:16Z</time>
      </trkpt>
      <trkpt lat="49.83089" lon="2.5023">
        <ele>98.1</ele>
        <time>2023-07-19T08:05:17Z</time>
      </trkpt>
      <trkpt lat="49.83089" lon="2.50231">
        <ele>98.1</ele>
        <time>2023-07-19T08:05:18Z</time>
      </trkpt>
      <trkpt lat="49.83089" lon="2.50233">
        <ele>98.1</ele>
        <time>2023-07-19T08:05:19Z</time>
      </trkpt>
      <trkpt lat="49.83088" lon="2.50235">
        <ele>98.1</ele>
        <time>2023-07-19T08:05:20Z</time>
      </trkpt>
      <trkpt lat="49.83088" lon="2.50236">
        <ele>98.1</ele>
        <time>2023-07-19T08:05:21Z</time>
      </trkpt>
      <trkpt lat="49.83088" lon="2.50237">
        <ele>98.1</ele>
        <time>2023-07-19T08:05:22Z</time>
      </trkpt>
      <trkpt lat="49.83088" lon="2.50238">
        <ele>98.1</ele>
        <time>2023-07-19T08:05:23Z</time>
      </trkpt>
      <trkpt lat="49.83087" lon="2.5024">
        <ele>98.1</ele>
        <time>2023-07-19T08:05:24Z</time>
      </trkpt>
      <trkpt lat="49.83087" lon="2.50242">
        <ele>98.1</ele>
        <time>2023-07-19T08:05:25Z</time>
      </trkpt>
      <trkpt lat="49.83087" lon="2.50243">
        <ele>98.1</ele>
        <time>2023-07-19T08:05:27Z</time>
      </trkpt>
      <trkpt lat="49.83087" lon="2.50244">
        <ele>98.1</ele>
        <time>2023-07-19T08:05:28Z</time>
      </trkpt>
      <trkpt lat="49.83086" lon="2.50246">
        <ele>98.1</ele>
        <time>2023-07-19T08:05:29Z</time>
      </trkpt>
      <trkpt lat="49.83086" lon="2.50247">
        <ele>98.1</ele>
        <time>2023-07-19T08:05:30Z</time>
      </trkpt>
      <trkpt lat="49.83085" lon="2.50251">
        <ele>98.1</ele>
        <time>2023-07-19T08:05:31Z</time>
      </trkpt>
      <trkpt lat="49.83085" lon="2.50252">
        <ele>98.1</ele>
        <time>2023-07-19T08:05:32Z</time>
      </trkpt>
      <trkpt lat="49.83085" lon="2.50253">
        <ele>98.1</ele>
        <time>2023-07-19T08:05:33Z</time>
      </trkpt>
      <trkpt lat="49.83084" lon="2.50257">
        <ele>98.1</ele>
        <time>2023-07-19T08:05:35Z</time>
      </trkpt>
      <trkpt lat="49.83084" lon="2.50258">
        <ele>98.1</ele>
        <time>2023-07-19T08:05:36Z</time>
      </trkpt>
      <trkpt lat="49.83084" lon="2.50259">
        <ele>98.1</ele>
        <time>2023-07-19T08:05:37Z</time>
      </trkpt>
      <trkpt lat="49.83084" lon="2.50261">
        <ele>98.1</ele>
        <time>2023-07-19T08:05:38Z</time>
      </trkpt>
      <trkpt lat="49.83083" lon="2.50265">
        <ele>98.1</ele>
        <time>2023-07-19T08:05:40Z</time>
      </trkpt>
      <trkpt lat="49.83083" lon="2.50267">
        <ele>98.1</ele>
        <time>2023-07-19T08:05:41Z</time>
      </trkpt>
      <trkpt lat="49.83082" lon="2.50269">
        <ele>98.1</ele>
        <time>2023-07-19T08:05:42Z</time>
      </trkpt>
      <trkpt lat="49.83082" lon="2.50272">
        <ele>98.1</ele>
        <time>2023-07-19T08:05:43Z</time>
      </trkpt>
      <trkpt lat="49.83082" lon="2.50274">
        <ele>98.1</ele>
        <time>2023-07-19T08:05:44Z</time>
      </trkpt>
      <trkpt lat="49.83082" lon="2.50276">
        <ele>98.1</ele>
        <time>2023-07-19T08:05:45Z</time>
      </trkpt>
      <trkpt lat="49.83082" lon="2.50278">
        <ele>98.1</ele>
        <time>2023-07-19T08:05:46Z</time>
      </trkpt>
      <trkpt lat="49.83082" lon="2.50281">
        <ele>98.1</ele>
        <time>2023-07-19T08:05:48Z</time>
      </trkpt>
      <trkpt lat="49.83082" lon="2.50283">
        <ele>98.1</ele>
        <time>2023-07-19T08:05:49Z</time>
      </trkpt>
      <trkpt lat="49.83082" lon="2.50287">
        <ele>98</ele>
        <time>2023-07-19T08:05:50Z</time>
      </trkpt>
      <trkpt lat="49.83082" lon="2.50288">
        <ele>98</ele>
        <time>2023-07-19T08:05:51Z</time>
      </trkpt>
      <trkpt lat="49.83082" lon="2.50289">
        <ele>98</ele>
        <time>2023-07-19T08:05:52Z</time>
      </trkpt>
      <trkpt lat="49.83081" lon="2.50292">
        <ele>98</ele>
        <time>2023-07-19T08:05:53Z</time>
      </trkpt>
      <trkpt lat="49.83081" lon="2.50294">
        <ele>98</ele>
        <time>2023-07-19T08:05:54Z</time>
      </trkpt>
      <trkpt lat="49.83081" lon="2.50296">
        <ele>98</ele>
        <time>2023-07-19T08:05:55Z</time>
      </trkpt>
      <trkpt lat="49.83081" lon="2.50298">
        <ele>98</ele>
        <time>2023-07-19T08:05:56Z</time>
      </trkpt>
      <trkpt lat="49.8308" lon="2.50301">
        <ele>98</ele>
        <time>2023-07-19T08:05:58Z</time>
      </trkpt>
      <trkpt lat="49.8308" lon="2.50302">
        <ele>98</ele>
        <time>2023-07-19T08:05:59Z</time>
      </trkpt>
      <trkpt lat="49.8308" lon="2.50304">
        <ele>98</ele>
        <time>2023-07-19T08:06:00Z</time>
      </trkpt>
      <trkpt lat="49.8308" lon="2.50306">
        <ele>98</ele>
        <time>2023-07-19T08:06:01Z</time>
      </trkpt>
      <trkpt lat="49.8308" lon="2.50307">
        <ele>98</ele>
        <time>2023-07-19T08:06:02Z</time>
      </trkpt>
      <trkpt lat="49.8308" lon="2.50309">
        <ele>97.9</ele>
        <time>2023-07-19T08:06:03Z</time>
      </trkpt>
      <trkpt lat="49.83079" lon="2.50311">
        <ele>97.9</ele>
        <time>2023-07-19T08:06:04Z</time>
      </trkpt>
      <trkpt lat="49.83079" lon="2.50313">
        <ele>97.9</ele>
        <time>2023-07-19T08:06:05Z</time>
      </trkpt>
      <trkpt lat="49.83079" lon="2.50314">
        <ele>97.9</ele>
        <time>2023-07-19T08:06:06Z</time>
      </trkpt>
      <trkpt lat="49.83078" lon="2.50317">
        <ele>97.9</ele>
        <time>2023-07-19T08:06:08Z</time>
      </trkpt>
      <trkpt lat="49.83078" lon="2.50318">
        <ele>97.9</ele>
        <time>2023-07-19T08:06:09Z</time>
      </trkpt>
      <trkpt lat="49.83078" lon="2.50319">
        <ele>97.9</ele>
        <time>2023-07-19T08:06:10Z</time>
      </trkpt>
      <trkpt lat="49.83078" lon="2.50323">
        <ele>97.9</ele>
        <time>2023-07-19T08:06:12Z</time>
      </trkpt>
      <trkpt lat="49.83078" lon="2.50325">
        <ele>97.9</ele>
        <time>2023-07-19T08:06:13Z</time>
      </trkpt>
      <trkpt lat="49.83077" lon="2.50327">
        <ele>97.8</ele>
        <time>2023-07-19T08:06:15Z</time>
      </trkpt>
      <trkpt lat="49.83077" lon="2.50329">
        <ele>97.8</ele>
        <time>2023-07-19T08:06:16Z</time>
      </trkpt>
      <trkpt lat="49.83077" lon="2.50331">
        <ele>97.8</ele>
        <time>2023-07-19T08:06:18Z</time>
      </trkpt>
      <trkpt lat="49.83076" lon="2.50333">
        <ele>97.8</ele>
        <time>2023-07-19T08:06:19Z</time>
      </trkpt>
      <trkpt lat="49.83076" lon="2.50336">
        <ele>97.8</ele>
        <time>2023-07-19T08:06:20Z</time>
      </trkpt>
      <trkpt lat="49.83076" lon="2.50338">
        <ele>97.7</ele>
        <time>2023-07-19T08:06:21Z</time>
      </trkpt>
      <trkpt lat="49.83076" lon="2.50341">
        <ele>97.7</ele>
        <time>2023-07-19T08:06:22Z</time>
      </trkpt>
      <trkpt lat="49.83075" lon="2.50344">
        <ele>97.7</ele>
        <time>2023-07-19T08:06:23Z</time>
      </trkpt>
      <trkpt lat="49.83075" lon="2.50346">
        <ele>97.7</ele>
        <time>2023-07-19T08:06:24Z</time>
      </trkpt>
      <trkpt lat="49.83075" lon="2.50347">
        <ele>97.6</ele>
        <time>2023-07-19T08:06:25Z</time>
      </trkpt>
      <trkpt lat="49.83074" lon="2.5035">
        <ele>97.6</ele>
        <time>2023-07-19T08:06:26Z</time>
      </trkpt>
      <trkpt lat="49.83074" lon="2.50352">
        <ele>97.6</ele>
        <time>2023-07-19T08:06:28Z</time>
      </trkpt>
      <trkpt lat="49.83074" lon="2.50353">
        <ele>97.6</ele>
        <time>2023-07-19T08:06:29Z</time>
      </trkpt>
      <trkpt lat="49.83074" lon="2.50355">
        <ele>97.6</ele>
        <time>2023-07-19T08:06:30Z</time>
      </trkpt>
      <trkpt lat="49.83073" lon="2.50357">
        <ele>97.6</ele>
        <time>2023-07-19T08:06:31Z</time>
      </trkpt>
      <trkpt lat="49.83073" lon="2.50361">
        <ele>97.5</ele>
        <time>2023-07-19T08:06:32Z</time>
      </trkpt>
      <trkpt lat="49.83073" lon="2.50362">
        <ele>97.5</ele>
        <time>2023-07-19T08:06:34Z</time>
      </trkpt>
      <trkpt lat="49.83073" lon="2.50364">
        <ele>97.5</ele>
        <time>2023-07-19T08:06:35Z</time>
      </trkpt>
      <trkpt lat="49.83073" lon="2.50365">
        <ele>97.5</ele>
        <time>2023-07-19T08:06:36Z</time>
      </trkpt>
      <trkpt lat="49.83073" lon="2.50367">
        <ele>97.5</ele>
        <time>2023-07-19T08:06:38Z</time>
      </trkpt>
      <trkpt lat="49.83072" lon="2.50369">
        <ele>97.5</ele>
        <time>2023-07-19T08:06:39Z</time>
      </trkpt>
      <trkpt lat="49.83072" lon="2.50371">
        <ele>97.4</ele>
        <time>2023-07-19T08:06:40Z</time>
      </trkpt>
      <trkpt lat="49.83072" lon="2.50373">
        <ele>97.4</ele>
        <time>2023-07-19T08:06:41Z</time>
      </trkpt>
      <trkpt lat="49.83072" lon="2.50375">
        <ele>97.4</ele>
        <time>2023-07-19T08:06:42Z</time>
      </trkpt>
      <trkpt lat="49.83072" lon="2.50377">
        <ele>97.4</ele>
        <time>2023-07-19T08:06:44Z</time>
      </trkpt>
      <trkpt lat="49.83072" lon="2.50379">
        <ele>97.4</ele>
        <time>2023-07-19T08:06:45Z</time>
      </trkpt>
      <trkpt lat="49.83072" lon="2.50381">
        <ele>97.4</ele>
        <time>2023-07-19T08:06:46Z</time>
      </trkpt>
      <trkpt lat="49.83072" lon="2.50383">
        <ele>97.3</ele>
        <time>2023-07-19T08:06:47Z</time>
      </trkpt>
      <trkpt lat="49.83072" lon="2.50385">
        <ele>97.3</ele>
        <time>2023-07-19T08:06:48Z</time>
      </trkpt>
      <trkpt lat="49.83072" lon="2.50387">
        <ele>97.3</ele>
        <time>2023-07-19T08:06:49Z</time>
      </trkpt>
      <trkpt lat="49.83072" lon="2.5039">
        <ele>97.3</ele>
        <time>2023-07-19T08:06:51Z</time>
      </trkpt>
      <trkpt lat="49.83071" lon="2.50393">
        <ele>97.2</ele>
        <time>2023-07-19T08:06:52Z</time>
      </trkpt>
      <trkpt lat="49.83071" lon="2.50396">
        <ele>97.2</ele>
        <time>2023-07-19T08:06:53Z</time>
      </trkpt>
      <trkpt lat="49.83071" lon="2.50398">
        <ele>97.2</ele>
        <time>2023-07-19T08:06:54Z</time>
      </trkpt>
      <trkpt lat="49.83071" lon="2.504">
        <ele>97.2</ele>
        <time>2023-07-19T08:06:55Z</time>
      </trkpt>
      <trkpt lat="49.83071" lon="2.50402">
        <ele>97.2</ele>
        <time>2023-07-19T08:06:56Z</time>
      </trkpt>
      <trkpt lat="49.83071" lon="2.50404">
        <ele>97.1</ele>
        <time>2023-07-19T08:06:58Z</time>
      </trkpt>
      <trkpt lat="49.83071" lon="2.50407">
        <ele>97.1</ele>
        <time>2023-07-19T08:06:59Z</time>
      </trkpt>
      <trkpt lat="49.83071" lon="2.50408">
        <ele>97.1</ele>
        <time>2023-07-19T08:07:01Z</time>
      </trkpt>
      <trkpt lat="49.83071" lon="2.5041">
        <ele>97.1</ele>
        <time>2023-07-19T08:07:02Z</time>
      </trkpt>
      <trkpt lat="49.83071" lon="2.50411">
        <ele>97.1</ele>
        <time>2023-07-19T08:07:03Z</time>
      </trkpt>
      <trkpt lat="49.83071" lon="2.50413">
        <ele>97.1</ele>
        <time>2023-07-19T08:07:04Z</time>
      </trkpt>
      <trkpt lat="49.8307" lon="2.50416">
        <ele>97.1</ele>
        <time>2023-07-19T08:07:05Z</time>
      </trkpt>
      <trkpt lat="49.8307" lon="2.50418">
        <ele>97</ele>
        <time>2023-07-19T08:07:06Z</time>
      </trkpt>
      <trkpt lat="49.8307" lon="2.5042">
        <ele>97</ele>
        <time>2023-07-19T08:07:07Z</time>
      </trkpt>
      <trkpt lat="49.8307" lon="2.50422">
        <ele>97</ele>
        <time>2023-07-19T08:07:08Z</time>
      </trkpt>
      <trkpt lat="49.83069" lon="2.50425">
        <ele>97</ele>
        <time>2023-07-19T08:07:09Z</time>
      </trkpt>
      <trkpt lat="49.83069" lon="2.50427">
        <ele>97</ele>
        <time>2023-07-19T08:07:11Z</time>
      </trkpt>
      <trkpt lat="49.83069" lon="2.50428">
        <ele>97</ele>
        <time>2023-07-19T08:07:12Z</time>
      </trkpt>
      <trkpt lat="49.83069" lon="2.5043">
        <ele>97</ele>
        <time>2023-07-19T08:07:13Z</time>
      </trkpt>
      <trkpt lat="49.83068" lon="2.50431">
        <ele>97</ele>
        <time>2023-07-19T08:07:14Z</time>
      </trkpt>
      <trkpt lat="49.83068" lon="2.50432">
        <ele>97</ele>
        <time>2023-07-19T08:07:16Z</time>
      </trkpt>
      <trkpt lat="49.83068" lon="2.50435">
        <ele>97</ele>
        <time>2023-07-19T08:07:17Z</time>
      </trkpt>
      <trkpt lat="49.83067" lon="2.50437">
        <ele>97</ele>
        <time>2023-07-19T08:07:18Z</time>
      </trkpt>
      <trkpt lat="49.83067" lon="2.50438">
        <ele>97</ele>
        <time>2023-07-19T08:07:20Z</time>
      </trkpt>
      <trkpt lat="49.83067" lon="2.50439">
        <ele>97</ele>
        <time>2023-07-19T08:07:21Z</time>
      </trkpt>
      <trkpt lat="49.83066" lon="2.50442">
        <ele>97</ele>
        <time>2023-07-19T08:07:22Z</time>
      </trkpt>
      <trkpt lat="49.83066" lon="2.50444">
        <ele>97</ele>
        <time>2023-07-19T08:07:23Z</time>
      </trkpt>
      <trkpt lat="49.83065" lon="2.50447">
        <ele>97</ele>
        <time>2023-07-19T08:07:25Z</time>
      </trkpt>
      <trkpt lat="49.83065" lon="2.50452">
        <ele>97</ele>
        <time>2023-07-19T08:07:26Z</time>
      </trkpt>
      <trkpt lat="49.83065" lon="2.50453">
        <ele>97</ele>
        <time>2023-07-19T08:07:27Z</time>
      </trkpt>
      <trkpt lat="49.83065" lon="2.50457">
        <ele>97</ele>
        <time>2023-07-19T08:07:29Z</time>
      </trkpt>
      <trkpt lat="49.83065" lon="2.50458">
        <ele>97</ele>
        <time>2023-07-19T08:07:30Z</time>
      </trkpt>
      <trkpt lat="49.83065" lon="2.50461">
        <ele>97</ele>
        <time>2023-07-19T08:07:31Z</time>
      </trkpt>
      <trkpt lat="49.83065" lon="2.50464">
        <ele>97</ele>
        <time>2023-07-19T08:07:32Z</time>
      </trkpt>
      <trkpt lat="49.83065" lon="2.50466">
        <ele>97</ele>
        <time>2023-07-19T08:07:33Z</time>
      </trkpt>
      <trkpt lat="49.83064" lon="2.50468">
        <ele>97</ele>
        <time>2023-07-19T08:07:34Z</time>
      </trkpt>
      <trkpt lat="49.83064" lon="2.5047">
        <ele>97</ele>
        <time>2023-07-19T08:07:36Z</time>
      </trkpt>
      <trkpt lat="49.83064" lon="2.50473">
        <ele>97</ele>
        <time>2023-07-19T08:07:37Z</time>
      </trkpt>
      <trkpt lat="49.83064" lon="2.50475">
        <ele>97</ele>
        <time>2023-07-19T08:07:38Z</time>
      </trkpt>
      <trkpt lat="49.83064" lon="2.50475">
        <ele>97</ele>
        <time>2023-07-19T08:07:40Z</time>
      </trkpt>
      <trkpt lat="49.83064" lon="2.50477">
        <ele>97</ele>
        <time>2023-07-19T08:07:41Z</time>
      </trkpt>
      <trkpt lat="49.83063" lon="2.50479">
        <ele>97</ele>
        <time>2023-07-19T08:07:42Z</time>
      </trkpt>
      <trkpt lat="49.83063" lon="2.5048">
        <ele>97</ele>
        <time>2023-07-19T08:07:43Z</time>
      </trkpt>
      <trkpt lat="49.83063" lon="2.50481">
        <ele>97</ele>
        <time>2023-07-19T08:07:44Z</time>
      </trkpt>
      <trkpt lat="49.83063" lon="2.50483">
        <ele>97</ele>
        <time>2023-07-19T08:07:45Z</time>
      </trkpt>
      <trkpt lat="49.83063" lon="2.50485">
        <ele>97</ele>
        <time>2023-07-19T08:07:46Z</time>
      </trkpt>
      <trkpt lat="49.83062" lon="2.50487">
        <ele>97</ele>
        <time>2023-07-19T08:07:47Z</time>
      </trkpt>
      <trkpt lat="49.83062" lon="2.50491">
        <ele>97</ele>
        <time>2023-07-19T08:07:49Z</time>
      </trkpt>
      <trkpt lat="49.83061" lon="2.50492">
        <ele>97</ele>
        <time>2023-07-19T08:07:50Z</time>
      </trkpt>
      <trkpt lat="49.83061" lon="2.50493">
        <ele>97</ele>
        <time>2023-07-19T08:07:51Z</time>
      </trkpt>
      <trkpt lat="49.83061" lon="2.50497">
        <ele>97</ele>
        <time>2023-07-19T08:07:52Z</time>
      </trkpt>
      <trkpt lat="49.83061" lon="2.50498">
        <ele>97</ele>
        <time>2023-07-19T08:07:53Z</time>
      </trkpt>
      <trkpt lat="49.83061" lon="2.50499">
        <ele>97</ele>
        <time>2023-07-19T08:07:54Z</time>
      </trkpt>
      <trkpt lat="49.83061" lon="2.50501">
        <ele>97</ele>
        <time>2023-07-19T08:07:55Z</time>
      </trkpt>
      <trkpt lat="49.83061" lon="2.50503">
        <ele>97</ele>
        <time>2023-07-19T08:07:56Z</time>
      </trkpt>
      <trkpt lat="49.83061" lon="2.50505">
        <ele>97</ele>
        <time>2023-07-19T08:07:57Z</time>
      </trkpt>
      <trkpt lat="49.83061" lon="2.50506">
        <ele>97</ele>
        <time>2023-07-19T08:07:59Z</time>
      </trkpt>
      <trkpt lat="49.8306" lon="2.50507">
        <ele>97</ele>
        <time>2023-07-19T08:08:00Z</time>
      </trkpt>
      <trkpt lat="49.8306" lon="2.50509">
        <ele>97</ele>
        <time>2023-07-19T08:08:01Z</time>
      </trkpt>
      <trkpt lat="49.8306" lon="2.50513">
        <ele>97</ele>
        <time>2023-07-19T08:08:02Z</time>
      </trkpt>
      <trkpt lat="49.83059" lon="2.50514">
        <ele>97</ele>
        <time>2023-07-19T08:08:03Z</time>
      </trkpt>
      <trkpt lat="49.83059" lon="2.50515">
        <ele>97</ele>
        <time>2023-07-19T08:08:04Z</time>
      </trkpt>
      <trkpt lat="49.83059" lon="2.50516">
        <ele>97</ele>
        <time>2023-07-19T08:08:05Z</time>
      </trkpt>
      <trkpt lat="49.83059" lon="2.50517">
        <ele>97</ele>
        <time>2023-07-19T08:08:07Z</time>
      </trkpt>
      <trkpt lat="49.83058" lon="2.50519">
        <ele>97</ele>
        <time>2023-07-19T08:08:08Z</time>
      </trkpt>
      <trkpt lat="49.83058" lon="2.50521">
        <ele>97</ele>
        <time>2023-07-19T08:08:09Z</time>
      </trkpt>
      <trkpt lat="49.83058" lon="2.50524">
        <ele>97</ele>
        <time>2023-07-19T08:08:10Z</time>
      </trkpt>
      <trkpt lat="49.83058" lon="2.50527">
        <ele>97</ele>
        <time>2023-07-19T08:08:11Z</time>
      </trkpt>
      <trkpt lat="49.83058" lon="2.50528">
        <ele>97</ele>
        <time>2023-07-19T08:08:12Z</time>
      </trkpt>
      <trkpt lat="49.83058" lon="2.5053">
        <ele>97</ele>
        <time>2023-07-19T08:08:13Z</time>
      </trkpt>
      <trkpt lat="49.83058" lon="2.50533">
        <ele>97</ele>
        <time>2023-07-19T08:08:14Z</time>
      </trkpt>
      <trkpt lat="49.83058" lon="2.50534">
        <ele>97</ele>
        <time>2023-07-19T08:08:16Z</time>
      </trkpt>
      <trkpt lat="49.83058" lon="2.50536">
        <ele>97</ele>
        <time>2023-07-19T08:08:17Z</time>
      </trkpt>
      <trkpt lat="49.83058" lon="2.50539">
        <ele>96.9</ele>
        <time>2023-07-19T08:08:18Z</time>
      </trkpt>
      <trkpt lat="49.83058" lon="2.5054">
        <ele>96.9</ele>
        <time>2023-07-19T08:08:19Z</time>
      </trkpt>
      <trkpt lat="49.83058" lon="2.50542">
        <ele>96.9</ele>
        <time>2023-07-19T08:08:20Z</time>
      </trkpt>
      <trkpt lat="49.83057" lon="2.50544">
        <ele>96.9</ele>
        <time>2023-07-19T08:08:21Z</time>
      </trkpt>
      <trkpt lat="49.83057" lon="2.50545">
        <ele>96.9</ele>
        <time>2023-07-19T08:08:22Z</time>
      </trkpt>
      <trkpt lat="49.83057" lon="2.50547">
        <ele>96.9</ele>
        <time>2023-07-19T08:08:24Z</time>
      </trkpt>
      <trkpt lat="49.83057" lon="2.50548">
        <ele>96.9</ele>
        <time>2023-07-19T08:08:25Z</time>
      </trkpt>
      <trkpt lat="49.83057" lon="2.5055">
        <ele>96.9</ele>
        <time>2023-07-19T08:08:26Z</time>
      </trkpt>
      <trkpt lat="49.83057" lon="2.50552">
        <ele>96.9</ele>
        <time>2023-07-19T08:08:27Z</time>
      </trkpt>
      <trkpt lat="49.83057" lon="2.50554">
        <ele>96.9</ele>
        <time>2023-07-19T08:08:28Z</time>
      </trkpt>
      <trkpt lat="49.83057" lon="2.50555">
        <ele>96.9</ele>
        <time>2023-07-19T08:08:29Z</time>
      </trkpt>
      <trkpt lat="49.83057" lon="2.50557">
        <ele>96.9</ele>
        <time>2023-07-19T08:08:31Z</time>
      </trkpt>
      <trkpt lat="49.83057" lon="2.50559">
        <ele>96.9</ele>
        <time>2023-07-19T08:08:32Z</time>
      </trkpt>
      <trkpt lat="49.83057" lon="2.5056">
        <ele>96.9</ele>
        <time>2023-07-19T08:08:33Z</time>
      </trkpt>
      <trkpt lat="49.83057" lon="2.50562">
        <ele>96.9</ele>
        <time>2023-07-19T08:08:34Z</time>
      </trkpt>
      <trkpt lat="49.83056" lon="2.50564">
        <ele>96.9</ele>
        <time>2023-07-19T08:08:35Z</time>
      </trkpt>
      <trkpt lat="49.83056" lon="2.50565">
        <ele>96.9</ele>
        <time>2023-07-19T08:08:37Z</time>
      </trkpt>
      <trkpt lat="49.83056" lon="2.50567">
        <ele>96.9</ele>
        <time>2023-07-19T08:08:38Z</time>
      </trkpt>
      <trkpt lat="49.83056" lon="2.50569">
        <ele>96.9</ele>
        <time>2023-07-19T08:08:39Z</time>
      </trkpt>
      <trkpt lat="49.83056" lon="2.5057">
        <ele>96.9</ele>
        <time>2023-07-19T08:08:40Z</time>
      </trkpt>
      <trkpt lat="49.83055" lon="2.50572">
        <ele>96.9</ele>
        <time>2023-07-19T08:08:41Z</time>
      </trkpt>
      <trkpt lat="49.83055" lon="2.50573">
        <ele>96.9</ele>
        <time>2023-07-19T08:08:43Z</time>
      </trkpt>
      <trkpt lat="49.83055" lon="2.50574">
        <ele>96.9</ele>
        <time>2023-07-19T08:08:44Z</time>
      </trkpt>
      <trkpt lat="49.83054" lon="2.50576">
        <ele>96.9</ele>
        <time>2023-07-19T08:08:45Z</time>
      </trkpt>
      <trkpt lat="49.83053" lon="2.50576">
        <ele>96.9</ele>
        <time>2023-07-19T08:08:47Z</time>
      </trkpt>
      <trkpt lat="49.83052" lon="2.50576">
        <ele>96.9</ele>
        <time>2023-07-19T08:08:49Z</time>
      </trkpt>
      <trkpt lat="49.83052" lon="2.50575">
        <ele>96.9</ele>
        <time>2023-07-19T08:08:50Z</time>
      </trkpt>
      <trkpt lat="49.83052" lon="2.50575">
        <ele>96.9</ele>
        <time>2023-07-19T08:08:51Z</time>
      </trkpt>
      <trkpt lat="49.83052" lon="2.50574">
        <ele>96.8</ele>
        <time>2023-07-19T08:08:53Z</time>
      </trkpt>
      <trkpt lat="49.83052" lon="2.50574">
        <ele>96.8</ele>
        <time>2023-07-19T08:08:54Z</time>
      </trkpt>
      <trkpt lat="49.83052" lon="2.50574">
        <ele>96.8</ele>
        <time>2023-07-19T08:08:56Z</time>
      </trkpt>
      <trkpt lat="49.83052" lon="2.50574">
        <ele>96.8</ele>
        <time>2023-07-19T08:08:57Z</time>
      </trkpt>
      <trkpt lat="49.83052" lon="2.50574">
        <ele>96.8</ele>
        <time>2023-07-19T08:08:58Z</time>
      </trkpt>
      <trkpt lat="49.83051" lon="2.50573">
        <ele>96.8</ele>
        <time>2023-07-19T08:09:01Z</time>
      </trkpt>
      <trkpt lat="49.83051" lon="2.50573">
        <ele>96.8</ele>
        <time>2023-07-19T08:09:03Z</time>
      </trkpt>
      <trkpt lat="49.83051" lon="2.50572">
        <ele>96.8</ele>
        <time>2023-07-19T08:09:04Z</time>
      </trkpt>
      <trkpt lat="49.83053" lon="2.5057">
        <ele>96.8</ele>
        <time>2023-07-19T08:09:06Z</time>
      </trkpt>
      <trkpt lat="49.83054" lon="2.50569">
        <ele>96.8</ele>
        <time>2023-07-19T08:09:07Z</time>
      </trkpt>
      <trkpt lat="49.83054" lon="2.50569">
        <ele>96.8</ele>
        <time>2023-07-19T08:09:08Z</time>
      </trkpt>
      <trkpt lat="49.83054" lon="2.50569">
        <ele>96.8</ele>
        <time>2023-07-19T08:09:09Z</time>
      </trkpt>
      <trkpt lat="49.83054" lon="2.50569">
        <ele>96.8</ele>
        <time>2023-07-19T08:09:10Z</time>
      </trkpt>
      <trkpt lat="49.83054" lon="2.50569">
        <ele>96.8</ele>
        <time>2023-07-19T08:09:11Z</time>
      </trkpt>
      <trkpt lat="49.83054" lon="2.50569">
        <ele>96.8</ele>
        <time>2023-07-19T08:09:12Z</time>
      </trkpt>
      <trkpt lat="49.83054" lon="2.50569">
        <ele>96.8</ele>
        <time>2023-07-19T08:09:14Z</time>
      </trkpt>
      <trkpt lat="49.83054" lon="2.50569">
        <ele>96.8</ele>
        <time>2023-07-19T08:09:15Z</time>
      </trkpt>
      <trkpt lat="49.83055" lon="2.50569">
        <ele>96.8</ele>
        <time>2023-07-19T08:09:17Z</time>
      </trkpt>
      <trkpt lat="49.83055" lon="2.50569">
        <ele>96.8</ele>
        <time>2023-07-19T08:09:18Z</time>
      </trkpt>
      <trkpt lat="49.83055" lon="2.50569">
        <ele>96.8</ele>
        <time>2023-07-19T08:09:19Z</time>
      </trkpt>
      <trkpt lat="49.83055" lon="2.50569">
        <ele>96.8</ele>
        <time>2023-07-19T08:09:20Z</time>
      </trkpt>
      <trkpt lat="49.83055" lon="2.50569">
        <ele>96.8</ele>
        <time>2023-07-19T08:09:21Z</time>
      </trkpt>
      <trkpt lat="49.83055" lon="2.50569">
        <ele>96.8</ele>
        <time>2023-07-19T08:09:22Z</time>
      </trkpt>
      <trkpt lat="49.83055" lon="2.50569">
        <ele>96.8</ele>
        <time>2023-07-19T08:09:23Z</time>
      </trkpt>
      <trkpt lat="49.83055" lon="2.50569">
        <ele>96.8</ele>
        <time>2023-07-19T08:09:25Z</time>
      </trkpt>
      <trkpt lat="49.83055" lon="2.50569">
        <ele>96.8</ele>
        <time>2023-07-19T08:09:26Z</time>
      </trkpt>
      <trkpt lat="49.83055" lon="2.50569">
        <ele>96.8</ele>
        <time>2023-07-19T08:09:28Z</time>
      </trkpt>
      <trkpt lat="49.83055" lon="2.50569">
        <ele>96.8</ele>
        <time>2023-07-19T08:09:29Z</time>
      </trkpt>
      <trkpt lat="49.83055" lon="2.50569">
        <ele>96.8</ele>
        <time>2023-07-19T08:09:31Z</time>
      </trkpt>
      <trkpt lat="49.83055" lon="2.50569">
        <ele>96.8</ele>
        <time>2023-07-19T08:09:32Z</time>
      </trkpt>
      <trkpt lat="49.83055" lon="2.50569">
        <ele>96.8</ele>
        <time>2023-07-19T08:09:34Z</time>
      </trkpt>
      <trkpt lat="49.83055" lon="2.50569">
        <ele>96.8</ele>
        <time>2023-07-19T08:09:35Z</time>
      </trkpt>
      <trkpt lat="49.83055" lon="2.50569">
        <ele>96.8</ele>
        <time>2023-07-19T08:09:36Z</time>
      </trkpt>
      <trkpt lat="49.83055" lon="2.50569">
        <ele>96.8</ele>
        <time>2023-07-19T08:09:37Z</time>
      </trkpt>
      <trkpt lat="49.83055" lon="2.50569">
        <ele>96.8</ele>
        <time>2023-07-19T08:09:38Z</time>
      </trkpt>
      <trkpt lat="49.83055" lon="2.50569">
        <ele>96.8</ele>
        <time>2023-07-19T08:09:40Z</time>
      </trkpt>
      <trkpt lat="49.83055" lon="2.50569">
        <ele>96.8</ele>
        <time>2023-07-19T08:09:41Z</time>
      </trkpt>
      <trkpt lat="49.83055" lon="2.50569">
        <ele>96.8</ele>
        <time>2023-07-19T08:09:42Z</time>
      </trkpt>
      <trkpt lat="49.83055" lon="2.50569">
        <ele>96.8</ele>
        <time>2023-07-19T08:09:44Z</time>
      </trkpt>
      <trkpt lat="49.83055" lon="2.50569">
        <ele>96.8</ele>
        <time>2023-07-19T08:09:45Z</time>
      </trkpt>
      <trkpt lat="49.83055" lon="2.50569">
        <ele>96.8</ele>
        <time>2023-07-19T08:09:47Z</time>
      </trkpt>
      <trkpt lat="49.83055" lon="2.50569">
        <ele>96.8</ele>
        <time>2023-07-19T08:09:48Z</time>
      </trkpt>
      <trkpt lat="49.83055" lon="2.50569">
        <ele>96.8</ele>
        <time>2023-07-19T08:09:49Z</time>
      </trkpt>
      <trkpt lat="49.83055" lon="2.50569">
        <ele>96.8</ele>
        <time>2023-07-19T08:09:51Z</time>
      </trkpt>
      <trkpt lat="49.83055" lon="2.50569">
        <ele>96.8</ele>
        <time>2023-07-19T08:09:53Z</time>
      </trkpt>
      <trkpt lat="49.83055" lon="2.50569">
        <ele>96.8</ele>
        <time>2023-07-19T08:09:54Z</time>
      </trkpt>
      <trkpt lat="49.83055" lon="2.50569">
        <ele>96.8</ele>
        <time>2023-07-19T08:09:55Z</time>
      </trkpt>
      <trkpt lat="49.83055" lon="2.50569">
        <ele>96.8</ele>
        <time>2023-07-19T08:09:57Z</time>
      </trkpt>
      <trkpt lat="49.83055" lon="2.50569">
        <ele>96.8</ele>
        <time>2023-07-19T08:09:58Z</time>
      </trkpt>
      <trkpt lat="49.83055" lon="2.50569">
        <ele>96.8</ele>
        <time>2023-07-19T08:09:59Z</time>
      </trkpt>
      <trkpt lat="49.83055" lon="2.50569">
        <ele>96.8</ele>
        <time>2023-07-19T08:10:00Z</time>
      </trkpt>
      <trkpt lat="49.83055" lon="2.50569">
        <ele>96.8</ele>
        <time>2023-07-19T08:10:01Z</time>
      </trkpt>
      <trkpt lat="49.83055" lon="2.50569">
        <ele>96.8</ele>
        <time>2023-07-19T08:10:03Z</time>
      </trkpt>
      <trkpt lat="49.83055" lon="2.50569">
        <ele>96.8</ele>
        <time>2023-07-19T08:10:04Z</time>
      </trkpt>
      <trkpt lat="49.83055" lon="2.50569">
        <ele>96.8</ele>
        <time>2023-07-19T08:10:06Z</time>
      </trkpt>
      <trkpt lat="49.83055" lon="2.50569">
        <ele>96.8</ele>
        <time>2023-07-19T08:10:07Z</time>
      </trkpt>
      <trkpt lat="49.83055" lon="2.50569">
        <ele>96.8</ele>
        <time>2023-07-19T08:10:08Z</time>
      </trkpt>
      <trkpt lat="49.83055" lon="2.50569">
        <ele>96.8</ele>
        <time>2023-07-19T08:10:09Z</time>
      </trkpt>
      <trkpt lat="49.83055" lon="2.50569">
        <ele>96.8</ele>
        <time>2023-07-19T08:10:11Z</time>
      </trkpt>
      <trkpt lat="49.83055" lon="2.50569">
        <ele>96.8</ele>
        <time>2023-07-19T08:10:13Z</time>
      </trkpt>
      <trkpt lat="49.83055" lon="2.50569">
        <ele>96.8</ele>
        <time>2023-07-19T08:10:14Z</time>
      </trkpt>
      <trkpt lat="49.83055" lon="2.50569">
        <ele>96.8</ele>
        <time>2023-07-19T08:10:16Z</time>
      </trkpt>
      <trkpt lat="49.83055" lon="2.50569">
        <ele>96.8</ele>
        <time>2023-07-19T08:10:17Z</time>
      </trkpt>
      <trkpt lat="49.83055" lon="2.50569">
        <ele>96.8</ele>
        <time>2023-07-19T08:10:18Z</time>
      </trkpt>
      <trkpt lat="49.83055" lon="2.50569">
        <ele>96.8</ele>
        <time>2023-07-19T08:10:20Z</time>
      </trkpt>
      <trkpt lat="49.83055" lon="2.50569">
        <ele>96.8</ele>
        <time>2023-07-19T08:10:21Z</time>
      </trkpt>
      <trkpt lat="49.83055" lon="2.50569">
        <ele>96.8</ele>
        <time>2023-07-19T08:10:22Z</time>
      </trkpt>
      <trkpt lat="49.83055" lon="2.50569">
        <ele>96.8</ele>
        <time>2023-07-19T08:10:23Z</time>
      </trkpt>
      <trkpt lat="49.83055" lon="2.50569">
        <ele>96.8</ele>
        <time>2023-07-19T08:10:24Z</time>
      </trkpt>
      <trkpt lat="49.83055" lon="2.50569">
        <ele>96.8</ele>
        <time>2023-07-19T08:10:26Z</time>
      </trkpt>
      <trkpt lat="49.83055" lon="2.50569">
        <ele>96.8</ele>
        <time>2023-07-19T08:10:28Z</time>
      </trkpt>
      <trkpt lat="49.83055" lon="2.50569">
        <ele>96.8</ele>
        <time>2023-07-19T08:10:29Z</time>
      </trkpt>
      <trkpt lat="49.83055" lon="2.50569">
        <ele>96.8</ele>
        <time>2023-07-19T08:10:30Z</time>
      </trkpt>
      <trkpt lat="49.83055" lon="2.50569">
        <ele>96.8</ele>
        <time>2023-07-19T08:10:31Z</time>
      </trkpt>
      <trkpt lat="49.83055" lon="2.50569">
        <ele>96.8</ele>
        <time>2023-07-19T08:10:32Z</time>
      </trkpt>
      <trkpt lat="49.83055" lon="2.50569">
        <ele>96.8</ele>
        <time>2023-07-19T08:10:33Z</time>
      </trkpt>
      <trkpt lat="49.83055" lon="2.50569">
        <ele>96.8</ele>
        <time>2023-07-19T08:10:34Z</time>
      </trkpt>
      <trkpt lat="49.83055" lon="2.50569">
        <ele>96.8</ele>
        <time>2023-07-19T08:10:35Z</time>
      </trkpt>
      <trkpt lat="49.83055" lon="2.50569">
        <ele>96.8</ele>
        <time>2023-07-19T08:10:37Z</time>
      </trkpt>
      <trkpt lat="49.83055" lon="2.50569">
        <ele>96.8</ele>
        <time>2023-07-19T08:10:39Z</time>
      </trkpt>
      <trkpt lat="49.83055" lon="2.50569">
        <ele>96.8</ele>
        <time>2023-07-19T08:10:40Z</time>
      </trkpt>
      <trkpt lat="49.83055" lon="2.50569">
        <ele>96.8</ele>
        <time>2023-07-19T08:10:41Z</time>
      </trkpt>
      <trkpt lat="49.83055" lon="2.50569">
        <ele>96.8</ele>
        <time>2023-07-19T08:10:42Z</time>
      </trkpt>
      <trkpt lat="49.83055" lon="2.50569">
        <ele>96.8</ele>
        <time>2023-07-19T08:10:43Z</time>
      </trkpt>
      <trkpt lat="49.83055" lon="2.50569">
        <ele>96.8</ele>
        <time>2023-07-19T08:10:44Z</time>
      </trkpt>
      <trkpt lat="49.83055" lon="2.50569">
        <ele>96.8</ele>
        <time>2023-07-19T08:10:45Z</time>
      </trkpt>
      <trkpt lat="49.83055" lon="2.50569">
        <ele>96.8</ele>
        <time>2023-07-19T08:10:46Z</time>
      </trkpt>
      <trkpt lat="49.83055" lon="2.50569">
        <ele>96.8</ele>
        <time>2023-07-19T08:10:47Z</time>
      </trkpt>
      <trkpt lat="49.83055" lon="2.50569">
        <ele>96.8</ele>
        <time>2023-07-19T08:10:48Z</time>
      </trkpt>
      <trkpt lat="49.83055" lon="2.50569">
        <ele>96.8</ele>
        <time>2023-07-19T08:10:50Z</time>
      </trkpt>
      <trkpt lat="49.83055" lon="2.50569">
        <ele>96.8</ele>
        <time>2023-07-19T08:10:51Z</time>
      </trkpt>
      <trkpt lat="49.83055" lon="2.50569">
        <ele>96.8</ele>
        <time>2023-07-19T08:10:52Z</time>
      </trkpt>
      <trkpt lat="49.83055" lon="2.50569">
        <ele>96.8</ele>
        <time>2023-07-19T08:10:53Z</time>
      </trkpt>
      <trkpt lat="49.83055" lon="2.50569">
        <ele>96.8</ele>
        <time>2023-07-19T08:10:54Z</time>
      </trkpt>
      <trkpt lat="49.83055" lon="2.50567">
        <ele>96.8</ele>
        <time>2023-07-19T08:10:56Z</time>
      </trkpt>
      <trkpt lat="49.83056" lon="2.50567">
        <ele>96.8</ele>
        <time>2023-07-19T08:10:57Z</time>
      </trkpt>
      <trkpt lat="49.83056" lon="2.50567">
        <ele>96.8</ele>
        <time>2023-07-19T08:10:59Z</time>
      </trkpt>
      <trkpt lat="49.83056" lon="2.50569">
        <ele>96.8</ele>
        <time>2023-07-19T08:11:00Z</time>
      </trkpt>
      <trkpt lat="49.83056" lon="2.5057">
        <ele>96.8</ele>
        <time>2023-07-19T08:11:01Z</time>
      </trkpt>
      <trkpt lat="49.83056" lon="2.50571">
        <ele>96.8</ele>
        <time>2023-07-19T08:11:02Z</time>
      </trkpt>
      <trkpt lat="49.83055" lon="2.50573">
        <ele>96.8</ele>
        <time>2023-07-19T08:11:03Z</time>
      </trkpt>
      <trkpt lat="49.83055" lon="2.50574">
        <ele>96.8</ele>
        <time>2023-07-19T08:11:05Z</time>
      </trkpt>
      <trkpt lat="49.83055" lon="2.50575">
        <ele>96.8</ele>
        <time>2023-07-19T08:11:06Z</time>
      </trkpt>
      <trkpt lat="49.83055" lon="2.50576">
        <ele>96.8</ele>
        <time>2023-07-19T08:11:08Z</time>
      </trkpt>
      <trkpt lat="49.83055" lon="2.50577">
        <ele>96.8</ele>
        <time>2023-07-19T08:11:09Z</time>
      </trkpt>
      <trkpt lat="49.83055" lon="2.50579">
        <ele>96.7</ele>
        <time>2023-07-19T08:11:10Z</time>
      </trkpt>
      <trkpt lat="49.83055" lon="2.5058">
        <ele>96.7</ele>
        <time>2023-07-19T08:11:11Z</time>
      </trkpt>
      <trkpt lat="49.83054" lon="2.50581">
        <ele>96.7</ele>
        <time>2023-07-19T08:11:12Z</time>
      </trkpt>
      <trkpt lat="49.83054" lon="2.50583">
        <ele>96.7</ele>
        <time>2023-07-19T08:11:13Z</time>
      </trkpt>
      <trkpt lat="49.83053" lon="2.50584">
        <ele>96.7</ele>
        <time>2023-07-19T08:11:15Z</time>
      </trkpt>
      <trkpt lat="49.83053" lon="2.50586">
        <ele>96.7</ele>
        <time>2023-07-19T08:11:16Z</time>
      </trkpt>
      <trkpt lat="49.83053" lon="2.50588">
        <ele>96.7</ele>
        <time>2023-07-19T08:11:17Z</time>
      </trkpt>
      <trkpt lat="49.83053" lon="2.50587">
        <ele>96.7</ele>
        <time>2023-07-19T08:11:18Z</time>
      </trkpt>
      <trkpt lat="49.83053" lon="2.50587">
        <ele>96.7</ele>
        <time>2023-07-19T08:11:19Z</time>
      </trkpt>
      <trkpt lat="49.83054" lon="2.50587">
        <ele>96.7</ele>
        <time>2023-07-19T08:11:21Z</time>
      </trkpt>
      <trkpt lat="49.83054" lon="2.50589">
        <ele>96.3</ele>
        <time>2023-07-19T08:11:22Z</time>
      </trkpt>
      <trkpt lat="49.83055" lon="2.5059">
        <ele>96.3</ele>
        <time>2023-07-19T08:11:23Z</time>
      </trkpt>
      <trkpt lat="49.83056" lon="2.50591">
        <ele>96.2</ele>
        <time>2023-07-19T08:11:24Z</time>
      </trkpt>
      <trkpt lat="49.83057" lon="2.50592">
        <ele>96.2</ele>
        <time>2023-07-19T08:11:25Z</time>
      </trkpt>
      <trkpt lat="49.83058" lon="2.50592">
        <ele>96.1</ele>
        <time>2023-07-19T08:11:26Z</time>
      </trkpt>
      <trkpt lat="49.8306" lon="2.50592">
        <ele>96.1</ele>
        <time>2023-07-19T08:11:27Z</time>
      </trkpt>
      <trkpt lat="49.8306" lon="2.50592">
        <ele>96</ele>
        <time>2023-07-19T08:11:28Z</time>
      </trkpt>
      <trkpt lat="49.83061" lon="2.50591">
        <ele>96</ele>
        <time>2023-07-19T08:11:30Z</time>
      </trkpt>
      <trkpt lat="49.83061" lon="2.50591">
        <ele>96</ele>
        <time>2023-07-19T08:11:31Z</time>
      </trkpt>
      <trkpt lat="49.83063" lon="2.50591">
        <ele>96</ele>
        <time>2023-07-19T08:11:32Z</time>
      </trkpt>
      <trkpt lat="49.83063" lon="2.50591">
        <ele>95.9</ele>
        <time>2023-07-19T08:11:33Z</time>
      </trkpt>
      <trkpt lat="49.83064" lon="2.50591">
        <ele>95.9</ele>
        <time>2023-07-19T08:11:34Z</time>
      </trkpt>
      <trkpt lat="49.83064" lon="2.50591">
        <ele>95.9</ele>
        <time>2023-07-19T08:11:36Z</time>
      </trkpt>
      <trkpt lat="49.83064" lon="2.50591">
        <ele>95.9</ele>
        <time>2023-07-19T08:11:37Z</time>
      </trkpt>
      <trkpt lat="49.83065" lon="2.5059">
        <ele>95.9</ele>
        <time>2023-07-19T08:11:38Z</time>
      </trkpt>
      <trkpt lat="49.83066" lon="2.5059">
        <ele>95.8</ele>
        <time>2023-07-19T08:11:39Z</time>
      </trkpt>
      <trkpt lat="49.83067" lon="2.5059">
        <ele>95.8</ele>
        <time>2023-07-19T08:11:40Z</time>
      </trkpt>
      <trkpt lat="49.83068" lon="2.5059">
        <ele>95.7</ele>
        <time>2023-07-19T08:11:41Z</time>
      </trkpt>
      <trkpt lat="49.8307" lon="2.50589">
        <ele>95.7</ele>
        <time>2023-07-19T08:11:43Z</time>
      </trkpt>
      <trkpt lat="49.8307" lon="2.50589">
        <ele>95.6</ele>
        <time>2023-07-19T08:11:44Z</time>
      </trkpt>
      <trkpt lat="49.83071" lon="2.50589">
        <ele>95.6</ele>
        <time>2023-07-19T08:11:45Z</time>
      </trkpt>
      <trkpt lat="49.83073" lon="2.50589">
        <ele>95.6</ele>
        <time>2023-07-19T08:11:46Z</time>
      </trkpt>
      <trkpt lat="49.83074" lon="2.50588">
        <ele>95.5</ele>
        <time>2023-07-19T08:11:47Z</time>
      </trkpt>
      <trkpt lat="49.83076" lon="2.50588">
        <ele>95.4</ele>
        <time>2023-07-19T08:11:48Z</time>
      </trkpt>
      <trkpt lat="49.83077" lon="2.50588">
        <ele>95.4</ele>
        <time>2023-07-19T08:11:49Z</time>
      </trkpt>
      <trkpt lat="49.83077" lon="2.50587">
        <ele>95.4</ele>
        <time>2023-07-19T08:11:50Z</time>
      </trkpt>
      <trkpt lat="49.83079" lon="2.50587">
        <ele>95.3</ele>
        <time>2023-07-19T08:11:52Z</time>
      </trkpt>
      <trkpt lat="49.8308" lon="2.50586">
        <ele>95.2</ele>
        <time>2023-07-19T08:11:53Z</time>
      </trkpt>
      <trkpt lat="49.83083" lon="2.50585">
        <ele>95.1</ele>
        <time>2023-07-19T08:11:54Z</time>
      </trkpt>
      <trkpt lat="49.83084" lon="2.50585">
        <ele>95.1</ele>
        <time>2023-07-19T08:11:55Z</time>
      </trkpt>
      <trkpt lat="49.83087" lon="2.50583">
        <ele>95</ele>
        <time>2023-07-19T08:11:56Z</time>
      </trkpt>
      <trkpt lat="49.83089" lon="2.50582">
        <ele>94.9</ele>
        <time>2023-07-19T08:11:57Z</time>
      </trkpt>
      <trkpt lat="49.83091" lon="2.5058">
        <ele>94.8</ele>
        <time>2023-07-19T08:11:59Z</time>
      </trkpt>
      <trkpt lat="49.83094" lon="2.50578">
        <ele>94.7</ele>
        <time>2023-07-19T08:12:00Z</time>
      </trkpt>
      <trkpt lat="49.83098" lon="2.50576">
        <ele>94.6</ele>
        <time>2023-07-19T08:12:01Z</time>
      </trkpt>
      <trkpt lat="49.83099" lon="2.50575">
        <ele>94.6</ele>
        <time>2023-07-19T08:12:02Z</time>
      </trkpt>
      <trkpt lat="49.831" lon="2.50574">
        <ele>94.5</ele>
        <time>2023-07-19T08:12:03Z</time>
      </trkpt>
      <trkpt lat="49.83104" lon="2.50572">
        <ele>94.4</ele>
        <time>2023-07-19T08:12:05Z</time>
      </trkpt>
      <trkpt lat="49.83106" lon="2.5057">
        <ele>94.3</ele>
        <time>2023-07-19T08:12:07Z</time>
      </trkpt>
      <trkpt lat="49.83108" lon="2.50569">
        <ele>94.3</ele>
        <time>2023-07-19T08:12:08Z</time>
      </trkpt>
      <trkpt lat="49.83109" lon="2.50568">
        <ele>94.2</ele>
        <time>2023-07-19T08:12:10Z</time>
      </trkpt>
      <trkpt lat="49.8311" lon="2.50568">
        <ele>94.2</ele>
        <time>2023-07-19T08:12:11Z</time>
      </trkpt>
      <trkpt lat="49.83112" lon="2.50568">
        <ele>94.1</ele>
        <time>2023-07-19T08:12:12Z</time>
      </trkpt>
      <trkpt lat="49.83113" lon="2.50567">
        <ele>94.1</ele>
        <time>2023-07-19T08:12:13Z</time>
      </trkpt>
      <trkpt lat="49.83114" lon="2.50567">
        <ele>94.1</ele>
        <time>2023-07-19T08:12:15Z</time>
      </trkpt>
      <trkpt lat="49.83115" lon="2.50567">
        <ele>94</ele>
        <time>2023-07-19T08:12:16Z</time>
      </trkpt>
      <trkpt lat="49.83118" lon="2.50566">
        <ele>93.9</ele>
        <time>2023-07-19T08:12:17Z</time>
      </trkpt>
      <trkpt lat="49.83119" lon="2.50566">
        <ele>93.9</ele>
        <time>2023-07-19T08:12:18Z</time>
      </trkpt>
      <trkpt lat="49.8312" lon="2.50564">
        <ele>93.9</ele>
        <time>2023-07-19T08:12:19Z</time>
      </trkpt>
      <trkpt lat="49.83121" lon="2.50563">
        <ele>93.8</ele>
        <time>2023-07-19T08:12:20Z</time>
      </trkpt>
      <trkpt lat="49.83123" lon="2.50562">
        <ele>93.8</ele>
        <time>2023-07-19T08:12:21Z</time>
      </trkpt>
      <trkpt lat="49.83124" lon="2.50561">
        <ele>93.8</ele>
        <time>2023-07-19T08:12:22Z</time>
      </trkpt>
      <trkpt lat="49.83124" lon="2.5056">
        <ele>93.7</ele>
        <time>2023-07-19T08:12:24Z</time>
      </trkpt>
      <trkpt lat="49.83127" lon="2.50559">
        <ele>93.7</ele>
        <time>2023-07-19T08:12:25Z</time>
      </trkpt>
      <trkpt lat="49.83129" lon="2.50557">
        <ele>93.6</ele>
        <time>2023-07-19T08:12:27Z</time>
      </trkpt>
      <trkpt lat="49.8313" lon="2.50557">
        <ele>93.6</ele>
        <time>2023-07-19T08:12:28Z</time>
      </trkpt>
      <trkpt lat="49.83131" lon="2.50556">
        <ele>93.6</ele>
        <time>2023-07-19T08:12:29Z</time>
      </trkpt>
      <trkpt lat="49.83132" lon="2.50555">
        <ele>93.5</ele>
        <time>2023-07-19T08:12:30Z</time>
      </trkpt>
      <trkpt lat="49.83134" lon="2.50554">
        <ele>93.5</ele>
        <time>2023-07-19T08:12:31Z</time>
      </trkpt>
      <trkpt lat="49.83135" lon="2.50553">
        <ele>93.4</ele>
        <time>2023-07-19T08:12:32Z</time>
      </trkpt>
      <trkpt lat="49.83137" lon="2.50552">
        <ele>93.4</ele>
        <time>2023-07-19T08:12:34Z</time>
      </trkpt>
      <trkpt lat="49.83138" lon="2.50551">
        <ele>93.3</ele>
        <time>2023-07-19T08:12:35Z</time>
      </trkpt>
      <trkpt lat="49.8314" lon="2.5055">
        <ele>93.3</ele>
        <time>2023-07-19T08:12:36Z</time>
      </trkpt>
      <trkpt lat="49.83142" lon="2.50548">
        <ele>93.2</ele>
        <time>2023-07-19T08:12:37Z</time>
      </trkpt>
      <trkpt lat="49.83143" lon="2.50547">
        <ele>93.2</ele>
        <time>2023-07-19T08:12:39Z</time>
      </trkpt>
      <trkpt lat="49.83145" lon="2.50547">
        <ele>93.1</ele>
        <time>2023-07-19T08:12:40Z</time>
      </trkpt>
      <trkpt lat="49.83147" lon="2.50545">
        <ele>93.1</ele>
        <time>2023-07-19T08:12:42Z</time>
      </trkpt>
      <trkpt lat="49.83149" lon="2.50545">
        <ele>93</ele>
        <time>2023-07-19T08:12:43Z</time>
      </trkpt>
      <trkpt lat="49.8315" lon="2.50544">
        <ele>93</ele>
        <time>2023-07-19T08:12:44Z</time>
      </trkpt>
      <trkpt lat="49.83151" lon="2.50543">
        <ele>93</ele>
        <time>2023-07-19T08:12:45Z</time>
      </trkpt>
      <trkpt lat="49.83152" lon="2.50543">
        <ele>92.9</ele>
        <time>2023-07-19T08:12:46Z</time>
      </trkpt>
      <trkpt lat="49.83153" lon="2.50542">
        <ele>92.9</ele>
        <time>2023-07-19T08:12:47Z</time>
      </trkpt>
      <trkpt lat="49.83154" lon="2.50541">
        <ele>92.9</ele>
        <time>2023-07-19T08:12:49Z</time>
      </trkpt>
      <trkpt lat="49.83155" lon="2.50541">
        <ele>92.8</ele>
        <time>2023-07-19T08:12:50Z</time>
      </trkpt>
      <trkpt lat="49.83156" lon="2.50541">
        <ele>92.8</ele>
        <time>2023-07-19T08:12:51Z</time>
      </trkpt>
      <trkpt lat="49.83156" lon="2.5054">
        <ele>92.8</ele>
        <time>2023-07-19T08:12:52Z</time>
      </trkpt>
      <trkpt lat="49.83157" lon="2.5054">
        <ele>92.8</ele>
        <time>2023-07-19T08:12:53Z</time>
      </trkpt>
      <trkpt lat="49.83157" lon="2.50539">
        <ele>92.8</ele>
        <time>2023-07-19T08:12:54Z</time>
      </trkpt>
      <trkpt lat="49.83158" lon="2.50538">
        <ele>92.7</ele>
        <time>2023-07-19T08:12:55Z</time>
      </trkpt>
      <trkpt lat="49.83161" lon="2.50537">
        <ele>92.6</ele>
        <time>2023-07-19T08:12:57Z</time>
      </trkpt>
      <trkpt lat="49.83164" lon="2.50536">
        <ele>92.6</ele>
        <time>2023-07-19T08:12:59Z</time>
      </trkpt>
      <trkpt lat="49.83167" lon="2.50534">
        <ele>92.5</ele>
        <time>2023-07-19T08:13:00Z</time>
      </trkpt>
      <trkpt lat="49.83168" lon="2.50534">
        <ele>92.4</ele>
        <time>2023-07-19T08:13:02Z</time>
      </trkpt>
      <trkpt lat="49.8317" lon="2.50533">
        <ele>92.4</ele>
        <time>2023-07-19T08:13:03Z</time>
      </trkpt>
      <trkpt lat="49.83171" lon="2.50533">
        <ele>92.3</ele>
        <time>2023-07-19T08:13:04Z</time>
      </trkpt>
      <trkpt lat="49.83172" lon="2.50532">
        <ele>92.3</ele>
        <time>2023-07-19T08:13:05Z</time>
      </trkpt>
      <trkpt lat="49.83174" lon="2.50532">
        <ele>92.3</ele>
        <time>2023-07-19T08:13:06Z</time>
      </trkpt>
      <trkpt lat="49.83175" lon="2.50531">
        <ele>92.2</ele>
        <time>2023-07-19T08:13:07Z</time>
      </trkpt>
      <trkpt lat="49.83177" lon="2.5053">
        <ele>92.2</ele>
        <time>2023-07-19T08:13:09Z</time>
      </trkpt>
      <trkpt lat="49.83179" lon="2.50529">
        <ele>92.1</ele>
        <time>2023-07-19T08:13:10Z</time>
      </trkpt>
      <trkpt lat="49.8318" lon="2.50529">
        <ele>92.1</ele>
        <time>2023-07-19T08:13:11Z</time>
      </trkpt>
      <trkpt lat="49.83181" lon="2.50528">
        <ele>92.1</ele>
        <time>2023-07-19T08:13:12Z</time>
      </trkpt>
      <trkpt lat="49.83182" lon="2.50528">
        <ele>92</ele>
        <time>2023-07-19T08:13:13Z</time>
      </trkpt>
      <trkpt lat="49.83183" lon="2.50527">
        <ele>92</ele>
        <time>2023-07-19T08:13:15Z</time>
      </trkpt>
      <trkpt lat="49.83185" lon="2.50526">
        <ele>92</ele>
        <time>2023-07-19T08:13:16Z</time>
      </trkpt>
      <trkpt lat="49.83185" lon="2.50526">
        <ele>92</ele>
        <time>2023-07-19T08:13:17Z</time>
      </trkpt>
      <trkpt lat="49.83186" lon="2.50526">
        <ele>91.9</ele>
        <time>2023-07-19T08:13:19Z</time>
      </trkpt>
      <trkpt lat="49.83186" lon="2.50525">
        <ele>91.9</ele>
        <time>2023-07-19T08:13:20Z</time>
      </trkpt>
      <trkpt lat="49.83187" lon="2.50525">
        <ele>91.9</ele>
        <time>2023-07-19T08:13:21Z</time>
      </trkpt>
      <trkpt lat="49.83188" lon="2.50524">
        <ele>91.9</ele>
        <time>2023-07-19T08:13:22Z</time>
      </trkpt>
      <trkpt lat="49.83189" lon="2.50524">
        <ele>91.9</ele>
        <time>2023-07-19T08:13:23Z</time>
      </trkpt>
      <trkpt lat="49.8319" lon="2.50523">
        <ele>91.8</ele>
        <time>2023-07-19T08:13:24Z</time>
      </trkpt>
      <trkpt lat="49.83191" lon="2.50522">
        <ele>91.8</ele>
        <time>2023-07-19T08:13:25Z</time>
      </trkpt>
      <trkpt lat="49.83192" lon="2.50522">
        <ele>91.8</ele>
        <time>2023-07-19T08:13:27Z</time>
      </trkpt>
      <trkpt lat="49.83194" lon="2.50521">
        <ele>91.7</ele>
        <time>2023-07-19T08:13:28Z</time>
      </trkpt>
      <trkpt lat="49.83194" lon="2.5052">
        <ele>91.7</ele>
        <time>2023-07-19T08:13:30Z</time>
      </trkpt>
      <trkpt lat="49.83195" lon="2.5052">
        <ele>91.7</ele>
        <time>2023-07-19T08:13:31Z</time>
      </trkpt>
      <trkpt lat="49.83196" lon="2.50519">
        <ele>91.7</ele>
        <time>2023-07-19T08:13:32Z</time>
      </trkpt>
      <trkpt lat="49.83197" lon="2.50518">
        <ele>91.6</ele>
        <time>2023-07-19T08:13:33Z</time>
      </trkpt>
      <trkpt lat="49.83199" lon="2.50517">
        <ele>91.6</ele>
        <time>2023-07-19T08:13:34Z</time>
      </trkpt>
      <trkpt lat="49.83201" lon="2.50515">
        <ele>91.5</ele>
        <time>2023-07-19T08:13:36Z</time>
      </trkpt>
      <trkpt lat="49.83203" lon="2.50513">
        <ele>91.5</ele>
        <time>2023-07-19T08:13:37Z</time>
      </trkpt>
      <trkpt lat="49.83205" lon="2.50512">
        <ele>91.4</ele>
        <time>2023-07-19T08:13:38Z</time>
      </trkpt>
      <trkpt lat="49.83206" lon="2.50511">
        <ele>91.4</ele>
        <time>2023-07-19T08:13:40Z</time>
      </trkpt>
      <trkpt lat="49.83208" lon="2.5051">
        <ele>91.3</ele>
        <time>2023-07-19T08:13:41Z</time>
      </trkpt>
      <trkpt lat="49.83209" lon="2.50509">
        <ele>91.3</ele>
        <time>2023-07-19T08:13:42Z</time>
      </trkpt>
      <trkpt lat="49.83211" lon="2.50508">
        <ele>91.2</ele>
        <time>2023-07-19T08:13:43Z</time>
      </trkpt>
      <trkpt lat="49.83212" lon="2.50507">
        <ele>91.2</ele>
        <time>2023-07-19T08:13:44Z</time>
      </trkpt>
      <trkpt lat="49.83213" lon="2.50507">
        <ele>91.2</ele>
        <time>2023-07-19T08:13:45Z</time>
      </trkpt>
      <trkpt lat="49.83214" lon="2.50506">
        <ele>91.1</ele>
        <time>2023-07-19T08:13:46Z</time>
      </trkpt>
      <trkpt lat="49.83215" lon="2.50505">
        <ele>91.1</ele>
        <time>2023-07-19T08:13:47Z</time>
      </trkpt>
      <trkpt lat="49.83217" lon="2.50504">
        <ele>91.1</ele>
        <time>2023-07-19T08:13:49Z</time>
      </trkpt>
      <trkpt lat="49.83218" lon="2.50503">
        <ele>91</ele>
        <time>2023-07-19T08:13:50Z</time>
      </trkpt>
      <trkpt lat="49.83219" lon="2.50502">
        <ele>91</ele>
        <time>2023-07-19T08:13:51Z</time>
      </trkpt>
      <trkpt lat="49.8322" lon="2.50502">
        <ele>91</ele>
        <time>2023-07-19T08:13:53Z</time>
      </trkpt>
      <trkpt lat="49.83222" lon="2.50501">
        <ele>90.9</ele>
        <time>2023-07-19T08:13:54Z</time>
      </trkpt>
      <trkpt lat="49.83224" lon="2.50499">
        <ele>90.9</ele>
        <time>2023-07-19T08:13:55Z</time>
      </trkpt>
      <trkpt lat="49.83225" lon="2.50498">
        <ele>90.8</ele>
        <time>2023-07-19T08:13:56Z</time>
      </trkpt>
      <trkpt lat="49.83226" lon="2.50497">
        <ele>90.8</ele>
        <time>2023-07-19T08:13:57Z</time>
      </trkpt>
      <trkpt lat="49.83228" lon="2.50496">
        <ele>90.8</ele>
        <time>2023-07-19T08:13:58Z</time>
      </trkpt>
      <trkpt lat="49.8323" lon="2.50495">
        <ele>90.7</ele>
        <time>2023-07-19T08:14:00Z</time>
      </trkpt>
      <trkpt lat="49.83231" lon="2.50494">
        <ele>90.7</ele>
        <time>2023-07-19T08:14:01Z</time>
      </trkpt>
      <trkpt lat="49.83233" lon="2.50493">
        <ele>90.7</ele>
        <time>2023-07-19T08:14:02Z</time>
      </trkpt>
      <trkpt lat="49.83234" lon="2.50493">
        <ele>90.6</ele>
        <time>2023-07-19T08:14:04Z</time>
      </trkpt>
      <trkpt lat="49.83235" lon="2.50492">
        <ele>90.6</ele>
        <time>2023-07-19T08:14:05Z</time>
      </trkpt>
      <trkpt lat="49.83237" lon="2.50491">
        <ele>90.6</ele>
        <time>2023-07-19T08:14:06Z</time>
      </trkpt>
      <trkpt lat="49.83238" lon="2.5049">
        <ele>90.6</ele>
        <time>2023-07-19T08:14:07Z</time>
      </trkpt>
      <trkpt lat="49.83239" lon="2.50489">
        <ele>90.5</ele>
        <time>2023-07-19T08:14:08Z</time>
      </trkpt>
      <trkpt lat="49.83241" lon="2.50488">
        <ele>90.5</ele>
        <time>2023-07-19T08:14:09Z</time>
      </trkpt>
      <trkpt lat="49.83242" lon="2.50487">
        <ele>90.5</ele>
        <time>2023-07-19T08:14:10Z</time>
      </trkpt>
      <trkpt lat="49.83244" lon="2.50486">
        <ele>90.4</ele>
        <time>2023-07-19T08:14:12Z</time>
      </trkpt>
      <trkpt lat="49.83244" lon="2.50485">
        <ele>90.4</ele>
        <time>2023-07-19T08:14:13Z</time>
      </trkpt>
      <trkpt lat="49.83245" lon="2.50484">
        <ele>90.4</ele>
        <time>2023-07-19T08:14:15Z</time>
      </trkpt>
      <trkpt lat="49.83247" lon="2.50484">
        <ele>90.4</ele>
        <time>2023-07-19T08:14:16Z</time>
      </trkpt>
      <trkpt lat="49.83248" lon="2.50483">
        <ele>90.3</ele>
        <time>2023-07-19T08:14:17Z</time>
      </trkpt>
      <trkpt lat="49.83251" lon="2.50482">
        <ele>90.3</ele>
        <time>2023-07-19T08:14:19Z</time>
      </trkpt>
      <trkpt lat="49.83252" lon="2.50481">
        <ele>90.3</ele>
        <time>2023-07-19T08:14:20Z</time>
      </trkpt>
      <trkpt lat="49.83254" lon="2.50479">
        <ele>90.2</ele>
        <time>2023-07-19T08:14:22Z</time>
      </trkpt>
      <trkpt lat="49.83256" lon="2.50478">
        <ele>90.2</ele>
        <time>2023-07-19T08:14:23Z</time>
      </trkpt>
      <trkpt lat="49.83257" lon="2.50478">
        <ele>90.2</ele>
        <time>2023-07-19T08:14:25Z</time>
      </trkpt>
      <trkpt lat="49.83258" lon="2.50478">
        <ele>90.2</ele>
        <time>2023-07-19T08:14:26Z</time>
      </trkpt>
      <trkpt lat="49.83259" lon="2.50477">
        <ele>90.1</ele>
        <time>2023-07-19T08:14:27Z</time>
      </trkpt>
      <trkpt lat="49.83261" lon="2.50476">
        <ele>90.1</ele>
        <time>2023-07-19T08:14:28Z</time>
      </trkpt>
      <trkpt lat="49.83263" lon="2.50475">
        <ele>90.1</ele>
        <time>2023-07-19T08:14:30Z</time>
      </trkpt>
      <trkpt lat="49.83264" lon="2.50475">
        <ele>90</ele>
        <time>2023-07-19T08:14:31Z</time>
      </trkpt>
      <trkpt lat="49.83266" lon="2.50474">
        <ele>90</ele>
        <time>2023-07-19T08:14:33Z</time>
      </trkpt>
      <trkpt lat="49.83267" lon="2.50473">
        <ele>90</ele>
        <time>2023-07-19T08:14:34Z</time>
      </trkpt>
      <trkpt lat="49.83269" lon="2.50472">
        <ele>90</ele>
        <time>2023-07-19T08:14:35Z</time>
      </trkpt>
      <trkpt lat="49.8327" lon="2.50472">
        <ele>89.9</ele>
        <time>2023-07-19T08:14:37Z</time>
      </trkpt>
      <trkpt lat="49.83271" lon="2.50471">
        <ele>89.9</ele>
        <time>2023-07-19T08:14:38Z</time>
      </trkpt>
      <trkpt lat="49.83272" lon="2.5047">
        <ele>89.9</ele>
        <time>2023-07-19T08:14:39Z</time>
      </trkpt>
      <trkpt lat="49.83274" lon="2.50468">
        <ele>89.9</ele>
        <time>2023-07-19T08:14:41Z</time>
      </trkpt>
      <trkpt lat="49.83276" lon="2.50467">
        <ele>89.8</ele>
        <time>2023-07-19T08:14:42Z</time>
      </trkpt>
      <trkpt lat="49.83277" lon="2.50467">
        <ele>89.8</ele>
        <time>2023-07-19T08:14:43Z</time>
      </trkpt>
      <trkpt lat="49.83278" lon="2.50466">
        <ele>89.8</ele>
        <time>2023-07-19T08:14:45Z</time>
      </trkpt>
      <trkpt lat="49.83279" lon="2.50465">
        <ele>89.8</ele>
        <time>2023-07-19T08:14:46Z</time>
      </trkpt>
      <trkpt lat="49.8328" lon="2.50464">
        <ele>89.8</ele>
        <time>2023-07-19T08:14:48Z</time>
      </trkpt>
      <trkpt lat="49.83282" lon="2.50463">
        <ele>89.7</ele>
        <time>2023-07-19T08:14:49Z</time>
      </trkpt>
      <trkpt lat="49.83283" lon="2.50462">
        <ele>89.7</ele>
        <time>2023-07-19T08:14:51Z</time>
      </trkpt>
      <trkpt lat="49.83284" lon="2.50461">
        <ele>89.7</ele>
        <time>2023-07-19T08:14:52Z</time>
      </trkpt>
      <trkpt lat="49.83286" lon="2.5046">
        <ele>89.6</ele>
        <time>2023-07-19T08:14:53Z</time>
      </trkpt>
      <trkpt lat="49.83286" lon="2.50459">
        <ele>89.6</ele>
        <time>2023-07-19T08:14:54Z</time>
      </trkpt>
      <trkpt lat="49.83287" lon="2.50459">
        <ele>89.6</ele>
        <time>2023-07-19T08:14:55Z</time>
      </trkpt>
      <trkpt lat="49.83289" lon="2.50457">
        <ele>89.5</ele>
        <time>2023-07-19T08:14:56Z</time>
      </trkpt>
      <trkpt lat="49.8329" lon="2.50456">
        <ele>89.5</ele>
        <time>2023-07-19T08:14:58Z</time>
      </trkpt>
      <trkpt lat="49.83291" lon="2.50455">
        <ele>89.5</ele>
        <time>2023-07-19T08:14:59Z</time>
      </trkpt>
      <trkpt lat="49.83293" lon="2.50453">
        <ele>89.5</ele>
        <time>2023-07-19T08:15:01Z</time>
      </trkpt>
      <trkpt lat="49.83294" lon="2.50452">
        <ele>89.4</ele>
        <time>2023-07-19T08:15:02Z</time>
      </trkpt>
      <trkpt lat="49.83295" lon="2.50451">
        <ele>89.4</ele>
        <time>2023-07-19T08:15:03Z</time>
      </trkpt>
      <trkpt lat="49.83296" lon="2.5045">
        <ele>89.4</ele>
        <time>2023-07-19T08:15:04Z</time>
      </trkpt>
      <trkpt lat="49.83297" lon="2.5045">
        <ele>89.4</ele>
        <time>2023-07-19T08:15:05Z</time>
      </trkpt>
      <trkpt lat="49.83298" lon="2.50449">
        <ele>89.3</ele>
        <time>2023-07-19T08:15:06Z</time>
      </trkpt>
      <trkpt lat="49.83299" lon="2.50448">
        <ele>89.3</ele>
        <time>2023-07-19T08:15:08Z</time>
      </trkpt>
      <trkpt lat="49.833" lon="2.50447">
        <ele>89.3</ele>
        <time>2023-07-19T08:15:09Z</time>
      </trkpt>
      <trkpt lat="49.83301" lon="2.50446">
        <ele>89.3</ele>
        <time>2023-07-19T08:15:10Z</time>
      </trkpt>
      <trkpt lat="49.83302" lon="2.50445">
        <ele>89.2</ele>
        <time>2023-07-19T08:15:11Z</time>
      </trkpt>
      <trkpt lat="49.83304" lon="2.50443">
        <ele>89.2</ele>
        <time>2023-07-19T08:15:12Z</time>
      </trkpt>
      <trkpt lat="49.83305" lon="2.50443">
        <ele>89.2</ele>
        <time>2023-07-19T08:15:13Z</time>
      </trkpt>
      <trkpt lat="49.83306" lon="2.50442">
        <ele>89.2</ele>
        <time>2023-07-19T08:15:14Z</time>
      </trkpt>
      <trkpt lat="49.83307" lon="2.50441">
        <ele>89.1</ele>
        <time>2023-07-19T08:15:15Z</time>
      </trkpt>
      <trkpt lat="49.83308" lon="2.50441">
        <ele>89.1</ele>
        <time>2023-07-19T08:15:17Z</time>
      </trkpt>
      <trkpt lat="49.83309" lon="2.5044">
        <ele>89.1</ele>
        <time>2023-07-19T08:15:18Z</time>
      </trkpt>
      <trkpt lat="49.8331" lon="2.50439">
        <ele>89.1</ele>
        <time>2023-07-19T08:15:19Z</time>
      </trkpt>
      <trkpt lat="49.83311" lon="2.50438">
        <ele>89</ele>
        <time>2023-07-19T08:15:20Z</time>
      </trkpt>
      <trkpt lat="49.83312" lon="2.50438">
        <ele>89</ele>
        <time>2023-07-19T08:15:21Z</time>
      </trkpt>
      <trkpt lat="49.83314" lon="2.50436">
        <ele>89</ele>
        <time>2023-07-19T08:15:23Z</time>
      </trkpt>
      <trkpt lat="49.83315" lon="2.50435">
        <ele>89</ele>
        <time>2023-07-19T08:15:24Z</time>
      </trkpt>
      <trkpt lat="49.83318" lon="2.50433">
        <ele>88.9</ele>
        <time>2023-07-19T08:15:26Z</time>
      </trkpt>
      <trkpt lat="49.83319" lon="2.50432">
        <ele>88.9</ele>
        <time>2023-07-19T08:15:28Z</time>
      </trkpt>
      <trkpt lat="49.8332" lon="2.50432">
        <ele>88.9</ele>
        <time>2023-07-19T08:15:30Z</time>
      </trkpt>
      <trkpt lat="49.83321" lon="2.50431">
        <ele>88.9</ele>
        <time>2023-07-19T08:15:31Z</time>
      </trkpt>
      <trkpt lat="49.83322" lon="2.5043">
        <ele>88.8</ele>
        <time>2023-07-19T08:15:32Z</time>
      </trkpt>
      <trkpt lat="49.83324" lon="2.50429">
        <ele>88.8</ele>
        <time>2023-07-19T08:15:33Z</time>
      </trkpt>
      <trkpt lat="49.83325" lon="2.50428">
        <ele>88.8</ele>
        <time>2023-07-19T08:15:34Z</time>
      </trkpt>
      <trkpt lat="49.83327" lon="2.50427">
        <ele>88.7</ele>
        <time>2023-07-19T08:15:36Z</time>
      </trkpt>
      <trkpt lat="49.83329" lon="2.50427">
        <ele>88.7</ele>
        <time>2023-07-19T08:15:37Z</time>
      </trkpt>
      <trkpt lat="49.8333" lon="2.50426">
        <ele>88.7</ele>
        <time>2023-07-19T08:15:39Z</time>
      </trkpt>
      <trkpt lat="49.83332" lon="2.50425">
        <ele>88.6</ele>
        <time>2023-07-19T08:15:40Z</time>
      </trkpt>
      <trkpt lat="49.83334" lon="2.50425">
        <ele>88.6</ele>
        <time>2023-07-19T08:15:41Z</time>
      </trkpt>
      <trkpt lat="49.83335" lon="2.50424">
        <ele>88.6</ele>
        <time>2023-07-19T08:15:42Z</time>
      </trkpt>
      <trkpt lat="49.83337" lon="2.50423">
        <ele>88.5</ele>
        <time>2023-07-19T08:15:43Z</time>
      </trkpt>
      <trkpt lat="49.83338" lon="2.50422">
        <ele>88.5</ele>
        <time>2023-07-19T08:15:44Z</time>
      </trkpt>
      <trkpt lat="49.83339" lon="2.50422">
        <ele>88.5</ele>
        <time>2023-07-19T08:15:45Z</time>
      </trkpt>
      <trkpt lat="49.83342" lon="2.5042">
        <ele>88.4</ele>
        <time>2023-07-19T08:15:46Z</time>
      </trkpt>
      <trkpt lat="49.83343" lon="2.50419">
        <ele>88.4</ele>
        <time>2023-07-19T08:15:48Z</time>
      </trkpt>
      <trkpt lat="49.83345" lon="2.50418">
        <ele>88.3</ele>
        <time>2023-07-19T08:15:49Z</time>
      </trkpt>
      <trkpt lat="49.83346" lon="2.50416">
        <ele>88.3</ele>
        <time>2023-07-19T08:15:51Z</time>
      </trkpt>
      <trkpt lat="49.83347" lon="2.50415">
        <ele>88.2</ele>
        <time>2023-07-19T08:15:52Z</time>
      </trkpt>
      <trkpt lat="49.83349" lon="2.50414">
        <ele>88.2</ele>
        <time>2023-07-19T08:15:53Z</time>
      </trkpt>
      <trkpt lat="49.8335" lon="2.50413">
        <ele>88.2</ele>
        <time>2023-07-19T08:15:54Z</time>
      </trkpt>
      <trkpt lat="49.83352" lon="2.50412">
        <ele>88.1</ele>
        <time>2023-07-19T08:15:55Z</time>
      </trkpt>
      <trkpt lat="49.83355" lon="2.5041">
        <ele>88.1</ele>
        <time>2023-07-19T08:15:57Z</time>
      </trkpt>
      <trkpt lat="49.83356" lon="2.50409">
        <ele>88</ele>
        <time>2023-07-19T08:15:58Z</time>
      </trkpt>
      <trkpt lat="49.83357" lon="2.50409">
        <ele>88</ele>
        <time>2023-07-19T08:16:00Z</time>
      </trkpt>
      <trkpt lat="49.83358" lon="2.50408">
        <ele>88</ele>
        <time>2023-07-19T08:16:01Z</time>
      </trkpt>
      <trkpt lat="49.8336" lon="2.50407">
        <ele>87.9</ele>
        <time>2023-07-19T08:16:02Z</time>
      </trkpt>
      <trkpt lat="49.83361" lon="2.50406">
        <ele>87.9</ele>
        <time>2023-07-19T08:16:03Z</time>
      </trkpt>
      <trkpt lat="49.83363" lon="2.50405">
        <ele>87.8</ele>
        <time>2023-07-19T08:16:04Z</time>
      </trkpt>
      <trkpt lat="49.83364" lon="2.50404">
        <ele>87.8</ele>
        <time>2023-07-19T08:16:05Z</time>
      </trkpt>
      <trkpt lat="49.83365" lon="2.50402">
        <ele>87.8</ele>
        <time>2023-07-19T08:16:06Z</time>
      </trkpt>
      <trkpt lat="49.83366" lon="2.50402">
        <ele>87.7</ele>
        <time>2023-07-19T08:16:08Z</time>
      </trkpt>
      <trkpt lat="49.83369" lon="2.50399">
        <ele>87.6</ele>
        <time>2023-07-19T08:16:09Z</time>
      </trkpt>
      <trkpt lat="49.8337" lon="2.50398">
        <ele>87.6</ele>
        <time>2023-07-19T08:16:11Z</time>
      </trkpt>
      <trkpt lat="49.83371" lon="2.50398">
        <ele>87.6</ele>
        <time>2023-07-19T08:16:12Z</time>
      </trkpt>
      <trkpt lat="49.83372" lon="2.50397">
        <ele>87.5</ele>
        <time>2023-07-19T08:16:13Z</time>
      </trkpt>
      <trkpt lat="49.83373" lon="2.50396">
        <ele>87.5</ele>
        <time>2023-07-19T08:16:14Z</time>
      </trkpt>
      <trkpt lat="49.83374" lon="2.50395">
        <ele>87.4</ele>
        <time>2023-07-19T08:16:15Z</time>
      </trkpt>
      <trkpt lat="49.83376" lon="2.50394">
        <ele>87.4</ele>
        <time>2023-07-19T08:16:16Z</time>
      </trkpt>
      <trkpt lat="49.83377" lon="2.50393">
        <ele>87.3</ele>
        <time>2023-07-19T08:16:17Z</time>
      </trkpt>
      <trkpt lat="49.83378" lon="2.50393">
        <ele>87.3</ele>
        <time>2023-07-19T08:16:18Z</time>
      </trkpt>
      <trkpt lat="49.83379" lon="2.50392">
        <ele>87.3</ele>
        <time>2023-07-19T08:16:19Z</time>
      </trkpt>
      <trkpt lat="49.8338" lon="2.50391">
        <ele>87.2</ele>
        <time>2023-07-19T08:16:20Z</time>
      </trkpt>
      <trkpt lat="49.83382" lon="2.5039">
        <ele>87.2</ele>
        <time>2023-07-19T08:16:22Z</time>
      </trkpt>
      <trkpt lat="49.83383" lon="2.5039">
        <ele>87.1</ele>
        <time>2023-07-19T08:16:23Z</time>
      </trkpt>
      <trkpt lat="49.83385" lon="2.50388">
        <ele>87</ele>
        <time>2023-07-19T08:16:25Z</time>
      </trkpt>
      <trkpt lat="49.83386" lon="2.50387">
        <ele>87</ele>
        <time>2023-07-19T08:16:26Z</time>
      </trkpt>
      <trkpt lat="49.83388" lon="2.50386">
        <ele>86.9</ele>
        <time>2023-07-19T08:16:27Z</time>
      </trkpt>
      <trkpt lat="49.83389" lon="2.50385">
        <ele>86.9</ele>
        <time>2023-07-19T08:16:28Z</time>
      </trkpt>
      <trkpt lat="49.8339" lon="2.50384">
        <ele>86.8</ele>
        <time>2023-07-19T08:16:29Z</time>
      </trkpt>
      <trkpt lat="49.83392" lon="2.50382">
        <ele>86.8</ele>
        <time>2023-07-19T08:16:30Z</time>
      </trkpt>
      <trkpt lat="49.83395" lon="2.50381">
        <ele>86.7</ele>
        <time>2023-07-19T08:16:32Z</time>
      </trkpt>
      <trkpt lat="49.83396" lon="2.5038">
        <ele>86.6</ele>
        <time>2023-07-19T08:16:33Z</time>
      </trkpt>
      <trkpt lat="49.83397" lon="2.50379">
        <ele>86.6</ele>
        <time>2023-07-19T08:16:35Z</time>
      </trkpt>
      <trkpt lat="49.83399" lon="2.50378">
        <ele>86.5</ele>
        <time>2023-07-19T08:16:36Z</time>
      </trkpt>
      <trkpt lat="49.834" lon="2.50378">
        <ele>86.5</ele>
        <time>2023-07-19T08:16:37Z</time>
      </trkpt>
      <trkpt lat="49.83402" lon="2.50377">
        <ele>86.4</ele>
        <time>2023-07-19T08:16:38Z</time>
      </trkpt>
      <trkpt lat="49.83403" lon="2.50376">
        <ele>86.4</ele>
        <time>2023-07-19T08:16:39Z</time>
      </trkpt>
      <trkpt lat="49.83404" lon="2.50375">
        <ele>86.3</ele>
        <time>2023-07-19T08:16:41Z</time>
      </trkpt>
      <trkpt lat="49.83407" lon="2.50372">
        <ele>86.2</ele>
        <time>2023-07-19T08:16:42Z</time>
      </trkpt>
      <trkpt lat="49.83408" lon="2.50371">
        <ele>86.2</ele>
        <time>2023-07-19T08:16:43Z</time>
      </trkpt>
      <trkpt lat="49.83409" lon="2.5037">
        <ele>86.2</ele>
        <time>2023-07-19T08:16:45Z</time>
      </trkpt>
      <trkpt lat="49.8341" lon="2.50369">
        <ele>86.1</ele>
        <time>2023-07-19T08:16:46Z</time>
      </trkpt>
      <trkpt lat="49.83411" lon="2.50369">
        <ele>86.1</ele>
        <time>2023-07-19T08:16:47Z</time>
      </trkpt>
      <trkpt lat="49.83414" lon="2.50367">
        <ele>86</ele>
        <time>2023-07-19T08:16:49Z</time>
      </trkpt>
      <trkpt lat="49.83415" lon="2.50366">
        <ele>86</ele>
        <time>2023-07-19T08:16:50Z</time>
      </trkpt>
      <trkpt lat="49.83416" lon="2.50365">
        <ele>85.9</ele>
        <time>2023-07-19T08:16:52Z</time>
      </trkpt>
      <trkpt lat="49.83418" lon="2.50364">
        <ele>85.9</ele>
        <time>2023-07-19T08:16:53Z</time>
      </trkpt>
      <trkpt lat="49.8342" lon="2.50362">
        <ele>85.8</ele>
        <time>2023-07-19T08:16:55Z</time>
      </trkpt>
      <trkpt lat="49.83421" lon="2.50362">
        <ele>85.8</ele>
        <time>2023-07-19T08:16:56Z</time>
      </trkpt>
      <trkpt lat="49.83422" lon="2.50361">
        <ele>85.7</ele>
        <time>2023-07-19T08:16:57Z</time>
      </trkpt>
      <trkpt lat="49.83423" lon="2.5036">
        <ele>85.7</ele>
        <time>2023-07-19T08:16:59Z</time>
      </trkpt>
      <trkpt lat="49.83424" lon="2.50359">
        <ele>85.7</ele>
        <time>2023-07-19T08:17:00Z</time>
      </trkpt>
      <trkpt lat="49.83426" lon="2.50358">
        <ele>85.6</ele>
        <time>2023-07-19T08:17:01Z</time>
      </trkpt>
      <trkpt lat="49.83427" lon="2.50357">
        <ele>85.6</ele>
        <time>2023-07-19T08:17:02Z</time>
      </trkpt>
      <trkpt lat="49.83428" lon="2.50357">
        <ele>85.5</ele>
        <time>2023-07-19T08:17:03Z</time>
      </trkpt>
      <trkpt lat="49.83431" lon="2.50355">
        <ele>85.4</ele>
        <time>2023-07-19T08:17:05Z</time>
      </trkpt>
      <trkpt lat="49.83432" lon="2.50355">
        <ele>85.4</ele>
        <time>2023-07-19T08:17:06Z</time>
      </trkpt>
      <trkpt lat="49.83434" lon="2.50354">
        <ele>85.4</ele>
        <time>2023-07-19T08:17:07Z</time>
      </trkpt>
      <trkpt lat="49.83435" lon="2.50354">
        <ele>85.3</ele>
        <time>2023-07-19T08:17:09Z</time>
      </trkpt>
      <trkpt lat="49.83436" lon="2.50353">
        <ele>85.3</ele>
        <time>2023-07-19T08:17:10Z</time>
      </trkpt>
      <trkpt lat="49.83438" lon="2.50352">
        <ele>85.2</ele>
        <time>2023-07-19T08:17:11Z</time>
      </trkpt>
      <trkpt lat="49.83439" lon="2.50351">
        <ele>85.2</ele>
        <time>2023-07-19T08:17:12Z</time>
      </trkpt>
      <trkpt lat="49.83441" lon="2.50349">
        <ele>85.1</ele>
        <time>2023-07-19T08:17:13Z</time>
      </trkpt>
      <trkpt lat="49.83442" lon="2.50348">
        <ele>85.1</ele>
        <time>2023-07-19T08:17:15Z</time>
      </trkpt>
      <trkpt lat="49.83443" lon="2.50348">
        <ele>85.1</ele>
        <time>2023-07-19T08:17:16Z</time>
      </trkpt>
      <trkpt lat="49.83445" lon="2.50345">
        <ele>85</ele>
        <time>2023-07-19T08:17:17Z</time>
      </trkpt>
      <trkpt lat="49.83446" lon="2.50344">
        <ele>85</ele>
        <time>2023-07-19T08:17:19Z</time>
      </trkpt>
      <trkpt lat="49.83447" lon="2.50343">
        <ele>85</ele>
        <time>2023-07-19T08:17:20Z</time>
      </trkpt>
      <trkpt lat="49.83448" lon="2.50342">
        <ele>84.9</ele>
        <time>2023-07-19T08:17:21Z</time>
      </trkpt>
      <trkpt lat="49.83449" lon="2.50341">
        <ele>84.9</ele>
        <time>2023-07-19T08:17:22Z</time>
      </trkpt>
      <trkpt lat="49.8345" lon="2.5034">
        <ele>84.9</ele>
        <time>2023-07-19T08:17:23Z</time>
      </trkpt>
      <trkpt lat="49.83451" lon="2.50339">
        <ele>84.8</ele>
        <time>2023-07-19T08:17:24Z</time>
      </trkpt>
      <trkpt lat="49.83454" lon="2.50337">
        <ele>84.8</ele>
        <time>2023-07-19T08:17:26Z</time>
      </trkpt>
      <trkpt lat="49.83455" lon="2.50336">
        <ele>84.7</ele>
        <time>2023-07-19T08:17:27Z</time>
      </trkpt>
      <trkpt lat="49.83455" lon="2.50335">
        <ele>84.7</ele>
        <time>2023-07-19T08:17:29Z</time>
      </trkpt>
      <trkpt lat="49.83456" lon="2.50335">
        <ele>84.7</ele>
        <time>2023-07-19T08:17:30Z</time>
      </trkpt>
      <trkpt lat="49.83457" lon="2.50334">
        <ele>84.7</ele>
        <time>2023-07-19T08:17:31Z</time>
      </trkpt>
      <trkpt lat="49.83459" lon="2.50333">
        <ele>84.6</ele>
        <time>2023-07-19T08:17:32Z</time>
      </trkpt>
      <trkpt lat="49.8346" lon="2.50332">
        <ele>84.6</ele>
        <time>2023-07-19T08:17:33Z</time>
      </trkpt>
      <trkpt lat="49.8346" lon="2.50331">
        <ele>84.6</ele>
        <time>2023-07-19T08:17:34Z</time>
      </trkpt>
      <trkpt lat="49.83461" lon="2.5033">
        <ele>84.6</ele>
        <time>2023-07-19T08:17:36Z</time>
      </trkpt>
      <trkpt lat="49.83462" lon="2.50329">
        <ele>84.6</ele>
        <time>2023-07-19T08:17:37Z</time>
      </trkpt>
      <trkpt lat="49.83463" lon="2.50329">
        <ele>84.5</ele>
        <time>2023-07-19T08:17:38Z</time>
      </trkpt>
      <trkpt lat="49.83465" lon="2.50327">
        <ele>84.5</ele>
        <time>2023-07-19T08:17:40Z</time>
      </trkpt>
      <trkpt lat="49.83466" lon="2.50326">
        <ele>84.5</ele>
        <time>2023-07-19T08:17:41Z</time>
      </trkpt>
      <trkpt lat="49.83466" lon="2.50326">
        <ele>84.5</ele>
        <time>2023-07-19T08:17:42Z</time>
      </trkpt>
      <trkpt lat="49.83467" lon="2.50325">
        <ele>84.5</ele>
        <time>2023-07-19T08:17:43Z</time>
      </trkpt>
      <trkpt lat="49.83468" lon="2.50324">
        <ele>84.4</ele>
        <time>2023-07-19T08:17:44Z</time>
      </trkpt>
      <trkpt lat="49.83469" lon="2.50324">
        <ele>84.4</ele>
        <time>2023-07-19T08:17:45Z</time>
      </trkpt>
      <trkpt lat="49.83471" lon="2.50322">
        <ele>84.4</ele>
        <time>2023-07-19T08:17:46Z</time>
      </trkpt>
      <trkpt lat="49.83472" lon="2.50321">
        <ele>84.4</ele>
        <time>2023-07-19T08:17:47Z</time>
      </trkpt>
      <trkpt lat="49.83472" lon="2.5032">
        <ele>84.4</ele>
        <time>2023-07-19T08:17:49Z</time>
      </trkpt>
      <trkpt lat="49.83473" lon="2.50319">
        <ele>84.3</ele>
        <time>2023-07-19T08:17:50Z</time>
      </trkpt>
      <trkpt lat="49.83474" lon="2.50318">
        <ele>84.3</ele>
        <time>2023-07-19T08:17:51Z</time>
      </trkpt>
      <trkpt lat="49.83475" lon="2.50317">
        <ele>84.3</ele>
        <time>2023-07-19T08:17:52Z</time>
      </trkpt>
      <trkpt lat="49.83476" lon="2.50316">
        <ele>84.3</ele>
        <time>2023-07-19T08:17:54Z</time>
      </trkpt>
      <trkpt lat="49.83476" lon="2.50315">
        <ele>84.3</ele>
        <time>2023-07-19T08:17:55Z</time>
      </trkpt>
      <trkpt lat="49.83477" lon="2.50314">
        <ele>84.3</ele>
        <time>2023-07-19T08:17:56Z</time>
      </trkpt>
      <trkpt lat="49.83478" lon="2.50314">
        <ele>84.2</ele>
        <time>2023-07-19T08:17:57Z</time>
      </trkpt>
      <trkpt lat="49.83479" lon="2.50312">
        <ele>84.2</ele>
        <time>2023-07-19T08:17:58Z</time>
      </trkpt>
      <trkpt lat="49.8348" lon="2.50311">
        <ele>84.2</ele>
        <time>2023-07-19T08:17:59Z</time>
      </trkpt>
      <trkpt lat="49.83481" lon="2.5031">
        <ele>84.2</ele>
        <time>2023-07-19T08:18:01Z</time>
      </trkpt>
      <trkpt lat="49.83482" lon="2.5031">
        <ele>84.2</ele>
        <time>2023-07-19T08:18:02Z</time>
      </trkpt>
      <trkpt lat="49.83483" lon="2.50308">
        <ele>84.1</ele>
        <time>2023-07-19T08:18:03Z</time>
      </trkpt>
      <trkpt lat="49.83485" lon="2.50307">
        <ele>84.1</ele>
        <time>2023-07-19T08:18:04Z</time>
      </trkpt>
      <trkpt lat="49.83485" lon="2.50306">
        <ele>84.1</ele>
        <time>2023-07-19T08:18:05Z</time>
      </trkpt>
      <trkpt lat="49.83486" lon="2.50305">
        <ele>84.1</ele>
        <time>2023-07-19T08:18:06Z</time>
      </trkpt>
      <trkpt lat="49.83487" lon="2.50304">
        <ele>84.1</ele>
        <time>2023-07-19T08:18:07Z</time>
      </trkpt>
      <trkpt lat="49.83488" lon="2.50303">
        <ele>84</ele>
        <time>2023-07-19T08:18:08Z</time>
      </trkpt>
      <trkpt lat="49.8349" lon="2.50301">
        <ele>84</ele>
        <time>2023-07-19T08:18:10Z</time>
      </trkpt>
      <trkpt lat="49.83491" lon="2.50299">
        <ele>84</ele>
        <time>2023-07-19T08:18:11Z</time>
      </trkpt>
      <trkpt lat="49.83492" lon="2.50298">
        <ele>84</ele>
        <time>2023-07-19T08:18:13Z</time>
      </trkpt>
      <trkpt lat="49.83492" lon="2.50297">
        <ele>84</ele>
        <time>2023-07-19T08:18:14Z</time>
      </trkpt>
      <trkpt lat="49.83493" lon="2.50295">
        <ele>84</ele>
        <time>2023-07-19T08:18:15Z</time>
      </trkpt>
      <trkpt lat="49.83495" lon="2.50293">
        <ele>84</ele>
        <time>2023-07-19T08:18:16Z</time>
      </trkpt>
      <trkpt lat="49.83496" lon="2.50292">
        <ele>84</ele>
        <time>2023-07-19T08:18:17Z</time>
      </trkpt>
      <trkpt lat="49.83496" lon="2.50291">
        <ele>84</ele>
        <time>2023-07-19T08:18:18Z</time>
      </trkpt>
      <trkpt lat="49.83498" lon="2.50289">
        <ele>83.9</ele>
        <time>2023-07-19T08:18:19Z</time>
      </trkpt>
      <trkpt lat="49.83498" lon="2.50288">
        <ele>83.9</ele>
        <time>2023-07-19T08:18:21Z</time>
      </trkpt>
      <trkpt lat="49.83499" lon="2.50287">
        <ele>83.9</ele>
        <time>2023-07-19T08:18:22Z</time>
      </trkpt>
      <trkpt lat="49.83501" lon="2.50284">
        <ele>83.9</ele>
        <time>2023-07-19T08:18:23Z</time>
      </trkpt>
      <trkpt lat="49.83502" lon="2.50283">
        <ele>83.9</ele>
        <time>2023-07-19T08:18:25Z</time>
      </trkpt>
      <trkpt lat="49.83503" lon="2.50282">
        <ele>83.9</ele>
        <time>2023-07-19T08:18:26Z</time>
      </trkpt>
      <trkpt lat="49.83503" lon="2.50281">
        <ele>83.9</ele>
        <time>2023-07-19T08:18:27Z</time>
      </trkpt>
      <trkpt lat="49.83504" lon="2.5028">
        <ele>83.9</ele>
        <time>2023-07-19T08:18:28Z</time>
      </trkpt>
      <trkpt lat="49.83506" lon="2.50278">
        <ele>83.9</ele>
        <time>2023-07-19T08:18:29Z</time>
      </trkpt>
      <trkpt lat="49.83507" lon="2.50277">
        <ele>83.9</ele>
        <time>2023-07-19T08:18:30Z</time>
      </trkpt>
      <trkpt lat="49.83507" lon="2.50277">
        <ele>83.9</ele>
        <time>2023-07-19T08:18:31Z</time>
      </trkpt>
      <trkpt lat="49.83508" lon="2.50276">
        <ele>83.9</ele>
        <time>2023-07-19T08:18:32Z</time>
      </trkpt>
      <trkpt lat="49.83509" lon="2.50275">
        <ele>83.9</ele>
        <time>2023-07-19T08:18:34Z</time>
      </trkpt>
      <trkpt lat="49.8351" lon="2.50274">
        <ele>83.9</ele>
        <time>2023-07-19T08:18:35Z</time>
      </trkpt>
      <trkpt lat="49.83511" lon="2.50271">
        <ele>83.9</ele>
        <time>2023-07-19T08:18:36Z</time>
      </trkpt>
      <trkpt lat="49.83512" lon="2.5027">
        <ele>83.9</ele>
        <time>2023-07-19T08:18:37Z</time>
      </trkpt>
      <trkpt lat="49.83513" lon="2.5027">
        <ele>83.9</ele>
        <time>2023-07-19T08:18:38Z</time>
      </trkpt>
      <trkpt lat="49.83514" lon="2.50267">
        <ele>83.9</ele>
        <time>2023-07-19T08:18:39Z</time>
      </trkpt>
      <trkpt lat="49.83515" lon="2.50266">
        <ele>83.9</ele>
        <time>2023-07-19T08:18:40Z</time>
      </trkpt>
      <trkpt lat="49.83515" lon="2.50265">
        <ele>83.9</ele>
        <time>2023-07-19T08:18:41Z</time>
      </trkpt>
      <trkpt lat="49.83517" lon="2.50263">
        <ele>83.9</ele>
        <time>2023-07-19T08:18:43Z</time>
      </trkpt>
      <trkpt lat="49.83517" lon="2.50262">
        <ele>83.9</ele>
        <time>2023-07-19T08:18:44Z</time>
      </trkpt>
      <trkpt lat="49.83518" lon="2.50261">
        <ele>83.9</ele>
        <time>2023-07-19T08:18:45Z</time>
      </trkpt>
      <trkpt lat="49.8352" lon="2.50259">
        <ele>83.9</ele>
        <time>2023-07-19T08:18:46Z</time>
      </trkpt>
      <trkpt lat="49.8352" lon="2.50258">
        <ele>83.9</ele>
        <time>2023-07-19T08:18:47Z</time>
      </trkpt>
      <trkpt lat="49.83521" lon="2.50257">
        <ele>83.9</ele>
        <time>2023-07-19T08:18:48Z</time>
      </trkpt>
      <trkpt lat="49.83522" lon="2.50256">
        <ele>83.9</ele>
        <time>2023-07-19T08:18:50Z</time>
      </trkpt>
      <trkpt lat="49.83523" lon="2.50254">
        <ele>83.9</ele>
        <time>2023-07-19T08:18:51Z</time>
      </trkpt>
      <trkpt lat="49.83524" lon="2.50253">
        <ele>83.9</ele>
        <time>2023-07-19T08:18:52Z</time>
      </trkpt>
      <trkpt lat="49.83525" lon="2.50253">
        <ele>83.9</ele>
        <time>2023-07-19T08:18:53Z</time>
      </trkpt>
      <trkpt lat="49.83526" lon="2.50252">
        <ele>83.9</ele>
        <time>2023-07-19T08:18:55Z</time>
      </trkpt>
      <trkpt lat="49.83526" lon="2.5025">
        <ele>83.9</ele>
        <time>2023-07-19T08:18:56Z</time>
      </trkpt>
      <trkpt lat="49.83527" lon="2.50249">
        <ele>83.9</ele>
        <time>2023-07-19T08:18:57Z</time>
      </trkpt>
      <trkpt lat="49.83528" lon="2.50247">
        <ele>83.9</ele>
        <time>2023-07-19T08:18:58Z</time>
      </trkpt>
      <trkpt lat="49.83529" lon="2.50247">
        <ele>83.9</ele>
        <time>2023-07-19T08:18:59Z</time>
      </trkpt>
      <trkpt lat="49.83529" lon="2.50246">
        <ele>83.9</ele>
        <time>2023-07-19T08:19:00Z</time>
      </trkpt>
      <trkpt lat="49.8353" lon="2.50245">
        <ele>83.9</ele>
        <time>2023-07-19T08:19:01Z</time>
      </trkpt>
      <trkpt lat="49.83532" lon="2.50244">
        <ele>83.9</ele>
        <time>2023-07-19T08:19:03Z</time>
      </trkpt>
      <trkpt lat="49.83532" lon="2.50243">
        <ele>83.9</ele>
        <time>2023-07-19T08:19:04Z</time>
      </trkpt>
      <trkpt lat="49.83534" lon="2.50242">
        <ele>83.9</ele>
        <time>2023-07-19T08:19:06Z</time>
      </trkpt>
      <trkpt lat="49.83534" lon="2.50242">
        <ele>84</ele>
        <time>2023-07-19T08:19:07Z</time>
      </trkpt>
      <trkpt lat="49.83534" lon="2.50244">
        <ele>84</ele>
        <time>2023-07-19T08:19:09Z</time>
      </trkpt>
      <trkpt lat="49.83534" lon="2.50244">
        <ele>84</ele>
        <time>2023-07-19T08:19:10Z</time>
      </trkpt>
      <trkpt lat="49.83534" lon="2.50244">
        <ele>84</ele>
        <time>2023-07-19T08:19:12Z</time>
      </trkpt>
      <trkpt lat="49.83534" lon="2.50244">
        <ele>84</ele>
        <time>2023-07-19T08:19:13Z</time>
      </trkpt>
      <trkpt lat="49.83534" lon="2.50244">
        <ele>84</ele>
        <time>2023-07-19T08:19:14Z</time>
      </trkpt>
      <trkpt lat="49.83534" lon="2.50244">
        <ele>84</ele>
        <time>2023-07-19T08:19:16Z</time>
      </trkpt>
      <trkpt lat="49.83534" lon="2.50244">
        <ele>84</ele>
        <time>2023-07-19T08:19:17Z</time>
      </trkpt>
      <trkpt lat="49.83534" lon="2.50244">
        <ele>84</ele>
        <time>2023-07-19T08:19:19Z</time>
      </trkpt>
      <trkpt lat="49.83534" lon="2.50244">
        <ele>84</ele>
        <time>2023-07-19T08:19:20Z</time>
      </trkpt>
      <trkpt lat="49.83534" lon="2.50244">
        <ele>84</ele>
        <time>2023-07-19T08:19:22Z</time>
      </trkpt>
      <trkpt lat="49.83534" lon="2.50244">
        <ele>84</ele>
        <time>2023-07-19T08:19:23Z</time>
      </trkpt>
      <trkpt lat="49.83534" lon="2.50244">
        <ele>84</ele>
        <time>2023-07-19T08:19:25Z</time>
      </trkpt>
      <trkpt lat="49.83534" lon="2.50244">
        <ele>84</ele>
        <time>2023-07-19T08:19:26Z</time>
      </trkpt>
      <trkpt lat="49.83533" lon="2.50244">
        <ele>84</ele>
        <time>2023-07-19T08:19:28Z</time>
      </trkpt>
      <trkpt lat="49.83533" lon="2.50244">
        <ele>84</ele>
        <time>2023-07-19T08:19:29Z</time>
      </trkpt>
      <trkpt lat="49.83533" lon="2.50244">
        <ele>84</ele>
        <time>2023-07-19T08:19:31Z</time>
      </trkpt>
      <trkpt lat="49.83533" lon="2.50245">
        <ele>84</ele>
        <time>2023-07-19T08:19:32Z</time>
      </trkpt>
      <trkpt lat="49.83533" lon="2.50245">
        <ele>84</ele>
        <time>2023-07-19T08:19:33Z</time>
      </trkpt>
      <trkpt lat="49.83533" lon="2.50245">
        <ele>84</ele>
        <time>2023-07-19T08:19:34Z</time>
      </trkpt>
      <trkpt lat="49.83533" lon="2.50245">
        <ele>84</ele>
        <time>2023-07-19T08:19:35Z</time>
      </trkpt>
      <trkpt lat="49.83533" lon="2.50245">
        <ele>84</ele>
        <time>2023-07-19T08:19:36Z</time>
      </trkpt>
      <trkpt lat="49.83533" lon="2.50245">
        <ele>84</ele>
        <time>2023-07-19T08:19:38Z</time>
      </trkpt>
      <trkpt lat="49.83533" lon="2.50245">
        <ele>84</ele>
        <time>2023-07-19T08:19:39Z</time>
      </trkpt>
      <trkpt lat="49.83533" lon="2.50245">
        <ele>84</ele>
        <time>2023-07-19T08:19:40Z</time>
      </trkpt>
      <trkpt lat="49.83533" lon="2.50245">
        <ele>84</ele>
        <time>2023-07-19T08:19:42Z</time>
      </trkpt>
      <trkpt lat="49.83533" lon="2.50245">
        <ele>84</ele>
        <time>2023-07-19T08:19:43Z</time>
      </trkpt>
      <trkpt lat="49.83533" lon="2.50245">
        <ele>84</ele>
        <time>2023-07-19T08:19:44Z</time>
      </trkpt>
      <trkpt lat="49.83533" lon="2.50245">
        <ele>84</ele>
        <time>2023-07-19T08:19:45Z</time>
      </trkpt>
      <trkpt lat="49.83532" lon="2.50245">
        <ele>84</ele>
        <time>2023-07-19T08:19:46Z</time>
      </trkpt>
      <trkpt lat="49.83532" lon="2.50245">
        <ele>84</ele>
        <time>2023-07-19T08:19:47Z</time>
      </trkpt>
      <trkpt lat="49.83532" lon="2.50245">
        <ele>84</ele>
        <time>2023-07-19T08:19:49Z</time>
      </trkpt>
      <trkpt lat="49.83532" lon="2.50245">
        <ele>84</ele>
        <time>2023-07-19T08:19:50Z</time>
      </trkpt>
      <trkpt lat="49.83532" lon="2.50245">
        <ele>84</ele>
        <time>2023-07-19T08:19:52Z</time>
      </trkpt>
      <trkpt lat="49.83532" lon="2.50245">
        <ele>84</ele>
        <time>2023-07-19T08:19:53Z</time>
      </trkpt>
      <trkpt lat="49.83532" lon="2.50245">
        <ele>84</ele>
        <time>2023-07-19T08:19:54Z</time>
      </trkpt>
      <trkpt lat="49.83532" lon="2.50245">
        <ele>84</ele>
        <time>2023-07-19T08:19:55Z</time>
      </trkpt>
      <trkpt lat="49.83532" lon="2.50246">
        <ele>84</ele>
        <time>2023-07-19T08:19:56Z</time>
      </trkpt>
      <trkpt lat="49.83532" lon="2.50246">
        <ele>84</ele>
        <time>2023-07-19T08:19:57Z</time>
      </trkpt>
      <trkpt lat="49.83532" lon="2.50246">
        <ele>84</ele>
        <time>2023-07-19T08:19:58Z</time>
      </trkpt>
      <trkpt lat="49.83532" lon="2.50246">
        <ele>84</ele>
        <time>2023-07-19T08:19:59Z</time>
      </trkpt>
      <trkpt lat="49.83532" lon="2.50246">
        <ele>84</ele>
        <time>2023-07-19T08:20:01Z</time>
      </trkpt>
      <trkpt lat="49.83532" lon="2.50246">
        <ele>84</ele>
        <time>2023-07-19T08:20:03Z</time>
      </trkpt>
      <trkpt lat="49.83532" lon="2.50246">
        <ele>84</ele>
        <time>2023-07-19T08:20:04Z</time>
      </trkpt>
      <trkpt lat="49.83531" lon="2.50246">
        <ele>84</ele>
        <time>2023-07-19T08:20:05Z</time>
      </trkpt>
      <trkpt lat="49.83531" lon="2.50246">
        <ele>84</ele>
        <time>2023-07-19T08:20:07Z</time>
      </trkpt>
      <trkpt lat="49.83531" lon="2.50246">
        <ele>84</ele>
        <time>2023-07-19T08:20:08Z</time>
      </trkpt>
      <trkpt lat="49.83531" lon="2.50246">
        <ele>84</ele>
        <time>2023-07-19T08:20:09Z</time>
      </trkpt>
      <trkpt lat="49.83531" lon="2.50246">
        <ele>84</ele>
        <time>2023-07-19T08:20:11Z</time>
      </trkpt>
      <trkpt lat="49.83531" lon="2.50246">
        <ele>84</ele>
        <time>2023-07-19T08:20:12Z</time>
      </trkpt>
      <trkpt lat="49.83531" lon="2.50246">
        <ele>84</ele>
        <time>2023-07-19T08:20:13Z</time>
      </trkpt>
      <trkpt lat="49.83531" lon="2.50246">
        <ele>84</ele>
        <time>2023-07-19T08:20:14Z</time>
      </trkpt>
      <trkpt lat="49.83531" lon="2.50246">
        <ele>84</ele>
        <time>2023-07-19T08:20:15Z</time>
      </trkpt>
      <trkpt lat="49.83531" lon="2.50246">
        <ele>84</ele>
        <time>2023-07-19T08:20:17Z</time>
      </trkpt>
      <trkpt lat="49.83531" lon="2.50246">
        <ele>84</ele>
        <time>2023-07-19T08:20:18Z</time>
      </trkpt>
      <trkpt lat="49.83531" lon="2.50246">
        <ele>84</ele>
        <time>2023-07-19T08:20:19Z</time>
      </trkpt>
      <trkpt lat="49.83531" lon="2.50246">
        <ele>84</ele>
        <time>2023-07-19T08:20:20Z</time>
      </trkpt>
      <trkpt lat="49.83531" lon="2.50247">
        <ele>84</ele>
        <time>2023-07-19T08:20:22Z</time>
      </trkpt>
      <trkpt lat="49.83531" lon="2.50247">
        <ele>84</ele>
        <time>2023-07-19T08:20:23Z</time>
      </trkpt>
      <trkpt lat="49.83527" lon="2.50247">
        <ele>84</ele>
        <time>2023-07-19T08:20:24Z</time>
      </trkpt>
      <trkpt lat="49.83527" lon="2.50247">
        <ele>84</ele>
        <time>2023-07-19T08:20:25Z</time>
      </trkpt>
      <trkpt lat="49.83526" lon="2.50247">
        <ele>84</ele>
        <time>2023-07-19T08:20:26Z</time>
      </trkpt>
      <trkpt lat="49.83527" lon="2.50248">
        <ele>84</ele>
        <time>2023-07-19T08:20:29Z</time>
      </trkpt>
      <trkpt lat="49.83526" lon="2.50248">
        <ele>84</ele>
        <time>2023-07-19T08:20:31Z</time>
      </trkpt>
      <trkpt lat="49.83526" lon="2.50248">
        <ele>84</ele>
        <time>2023-07-19T08:20:32Z</time>
      </trkpt>
      <trkpt lat="49.83527" lon="2.50248">
        <ele>84</ele>
        <time>2023-07-19T08:20:34Z</time>
      </trkpt>
      <trkpt lat="49.83527" lon="2.50248">
        <ele>84</ele>
        <time>2023-07-19T08:20:35Z</time>
      </trkpt>
      <trkpt lat="49.83527" lon="2.50248">
        <ele>84</ele>
        <time>2023-07-19T08:20:37Z</time>
      </trkpt>
      <trkpt lat="49.83527" lon="2.50248">
        <ele>84</ele>
        <time>2023-07-19T08:20:38Z</time>
      </trkpt>
      <trkpt lat="49.83527" lon="2.50248">
        <ele>84</ele>
        <time>2023-07-19T08:20:39Z</time>
      </trkpt>
      <trkpt lat="49.83527" lon="2.50248">
        <ele>84</ele>
        <time>2023-07-19T08:20:41Z</time>
      </trkpt>
      <trkpt lat="49.83527" lon="2.50248">
        <ele>84</ele>
        <time>2023-07-19T08:20:42Z</time>
      </trkpt>
      <trkpt lat="49.83527" lon="2.50248">
        <ele>84.1</ele>
        <time>2023-07-19T08:20:45Z</time>
      </trkpt>
      <trkpt lat="49.83526" lon="2.50248">
        <ele>84.1</ele>
        <time>2023-07-19T08:20:46Z</time>
      </trkpt>
      <trkpt lat="49.83526" lon="2.50248">
        <ele>84.1</ele>
        <time>2023-07-19T08:20:47Z</time>
      </trkpt>
      <trkpt lat="49.83526" lon="2.50248">
        <ele>84.1</ele>
        <time>2023-07-19T08:20:48Z</time>
      </trkpt>
      <trkpt lat="49.83526" lon="2.50248">
        <ele>84.1</ele>
        <time>2023-07-19T08:20:50Z</time>
      </trkpt>
      <trkpt lat="49.83526" lon="2.50248">
        <ele>84.1</ele>
        <time>2023-07-19T08:20:51Z</time>
      </trkpt>
      <trkpt lat="49.83526" lon="2.50248">
        <ele>84.1</ele>
        <time>2023-07-19T08:20:53Z</time>
      </trkpt>
      <trkpt lat="49.83526" lon="2.50248">
        <ele>84.1</ele>
        <time>2023-07-19T08:20:54Z</time>
      </trkpt>
      <trkpt lat="49.83526" lon="2.50248">
        <ele>84.1</ele>
        <time>2023-07-19T08:20:55Z</time>
      </trkpt>
      <trkpt lat="49.83526" lon="2.50248">
        <ele>84.1</ele>
        <time>2023-07-19T08:20:56Z</time>
      </trkpt>
      <trkpt lat="49.83526" lon="2.50248">
        <ele>84.1</ele>
        <time>2023-07-19T08:20:57Z</time>
      </trkpt>
      <trkpt lat="49.83526" lon="2.50248">
        <ele>84.1</ele>
        <time>2023-07-19T08:20:58Z</time>
      </trkpt>
      <trkpt lat="49.83526" lon="2.50248">
        <ele>84.1</ele>
        <time>2023-07-19T08:21:00Z</time>
      </trkpt>
      <trkpt lat="49.83526" lon="2.50248">
        <ele>84.1</ele>
        <time>2023-07-19T08:21:01Z</time>
      </trkpt>
      <trkpt lat="49.83526" lon="2.50248">
        <ele>84.1</ele>
        <time>2023-07-19T08:21:02Z</time>
      </trkpt>
      <trkpt lat="49.83526" lon="2.50248">
        <ele>84.1</ele>
        <time>2023-07-19T08:21:03Z</time>
      </trkpt>
      <trkpt lat="49.83526" lon="2.50248">
        <ele>84.1</ele>
        <time>2023-07-19T08:21:05Z</time>
      </trkpt>
      <trkpt lat="49.83526" lon="2.50248">
        <ele>84.1</ele>
        <time>2023-07-19T08:21:06Z</time>
      </trkpt>
      <trkpt lat="49.83526" lon="2.50248">
        <ele>84.1</ele>
        <time>2023-07-19T08:21:08Z</time>
      </trkpt>
      <trkpt lat="49.83526" lon="2.50248">
        <ele>84.1</ele>
        <time>2023-07-19T08:21:09Z</time>
      </trkpt>
      <trkpt lat="49.83526" lon="2.50248">
        <ele>84.1</ele>
        <time>2023-07-19T08:21:10Z</time>
      </trkpt>
      <trkpt lat="49.83526" lon="2.50248">
        <ele>84.1</ele>
        <time>2023-07-19T08:21:12Z</time>
      </trkpt>
      <trkpt lat="49.83527" lon="2.50247">
        <ele>84.1</ele>
        <time>2023-07-19T08:21:14Z</time>
      </trkpt>
      <trkpt lat="49.83527" lon="2.50247">
        <ele>84.1</ele>
        <time>2023-07-19T08:21:15Z</time>
      </trkpt>
      <trkpt lat="49.83527" lon="2.50246">
        <ele>84.1</ele>
        <time>2023-07-19T08:21:16Z</time>
      </trkpt>
      <trkpt lat="49.83527" lon="2.50247">
        <ele>84.1</ele>
        <time>2023-07-19T08:21:17Z</time>
      </trkpt>
      <trkpt lat="49.83527" lon="2.50247">
        <ele>84.1</ele>
        <time>2023-07-19T08:21:18Z</time>
      </trkpt>
      <trkpt lat="49.83527" lon="2.50247">
        <ele>84.1</ele>
        <time>2023-07-19T08:21:19Z</time>
      </trkpt>
      <trkpt lat="49.83527" lon="2.50247">
        <ele>84.1</ele>
        <time>2023-07-19T08:21:21Z</time>
      </trkpt>
      <trkpt lat="49.83527" lon="2.50247">
        <ele>84.1</ele>
        <time>2023-07-19T08:21:22Z</time>
      </trkpt>
      <trkpt lat="49.83527" lon="2.50247">
        <ele>84.1</ele>
        <time>2023-07-19T08:21:23Z</time>
      </trkpt>
      <trkpt lat="49.83527" lon="2.50247">
        <ele>84.1</ele>
        <time>2023-07-19T08:21:25Z</time>
      </trkpt>
      <trkpt lat="49.83527" lon="2.50247">
        <ele>84.1</ele>
        <time>2023-07-19T08:21:26Z</time>
      </trkpt>
      <trkpt lat="49.83527" lon="2.50247">
        <ele>84.1</ele>
        <time>2023-07-19T08:21:27Z</time>
      </trkpt>
      <trkpt lat="49.83527" lon="2.50247">
        <ele>84.1</ele>
        <time>2023-07-19T08:21:28Z</time>
      </trkpt>
      <trkpt lat="49.83527" lon="2.50247">
        <ele>84.1</ele>
        <time>2023-07-19T08:21:29Z</time>
      </trkpt>
      <trkpt lat="49.83527" lon="2.50247">
        <ele>84.1</ele>
        <time>2023-07-19T08:21:31Z</time>
      </trkpt>
      <trkpt lat="49.83527" lon="2.50247">
        <ele>84.1</ele>
        <time>2023-07-19T08:21:32Z</time>
      </trkpt>
      <trkpt lat="49.83527" lon="2.50247">
        <ele>84.1</ele>
        <time>2023-07-19T08:21:34Z</time>
      </trkpt>
      <trkpt lat="49.83527" lon="2.50247">
        <ele>84.1</ele>
        <time>2023-07-19T08:21:36Z</time>
      </trkpt>
      <trkpt lat="49.83527" lon="2.50247">
        <ele>84.1</ele>
        <time>2023-07-19T08:21:37Z</time>
      </trkpt>
      <trkpt lat="49.83527" lon="2.50247">
        <ele>84.1</ele>
        <time>2023-07-19T08:21:38Z</time>
      </trkpt>
      <trkpt lat="49.83527" lon="2.50247">
        <ele>84.1</ele>
        <time>2023-07-19T08:21:39Z</time>
      </trkpt>
      <trkpt lat="49.83527" lon="2.50247">
        <ele>84.1</ele>
        <time>2023-07-19T08:21:40Z</time>
      </trkpt>
      <trkpt lat="49.83527" lon="2.50247">
        <ele>84.1</ele>
        <time>2023-07-19T08:21:41Z</time>
      </trkpt>
      <trkpt lat="49.83527" lon="2.50247">
        <ele>84.1</ele>
        <time>2023-07-19T08:21:42Z</time>
      </trkpt>
      <trkpt lat="49.83527" lon="2.50247">
        <ele>84.1</ele>
        <time>2023-07-19T08:21:43Z</time>
      </trkpt>
      <trkpt lat="49.83527" lon="2.50247">
        <ele>84.1</ele>
        <time>2023-07-19T08:21:44Z</time>
      </trkpt>
      <trkpt lat="49.83527" lon="2.50247">
        <ele>84.1</ele>
        <time>2023-07-19T08:21:45Z</time>
      </trkpt>
      <trkpt lat="49.83527" lon="2.50247">
        <ele>84.1</ele>
        <time>2023-07-19T08:21:47Z</time>
      </trkpt>
      <trkpt lat="49.83527" lon="2.50247">
        <ele>84.1</ele>
        <time>2023-07-19T08:21:48Z</time>
      </trkpt>
      <trkpt lat="49.83527" lon="2.50247">
        <ele>84.1</ele>
        <time>2023-07-19T08:21:49Z</time>
      </trkpt>
      <trkpt lat="49.83527" lon="2.50247">
        <ele>84.1</ele>
        <time>2023-07-19T08:21:50Z</time>
      </trkpt>
      <trkpt lat="49.83527" lon="2.50247">
        <ele>84.1</ele>
        <time>2023-07-19T08:21:51Z</time>
      </trkpt>
      <trkpt lat="49.83527" lon="2.50247">
        <ele>84.1</ele>
        <time>2023-07-19T08:21:52Z</time>
      </trkpt>
      <trkpt lat="49.83527" lon="2.50247">
        <ele>84.1</ele>
        <time>2023-07-19T08:21:53Z</time>
      </trkpt>
      <trkpt lat="49.83527" lon="2.50247">
        <ele>84.1</ele>
        <time>2023-07-19T08:21:54Z</time>
      </trkpt>
      <trkpt lat="49.83527" lon="2.50247">
        <ele>84.1</ele>
        <time>2023-07-19T08:21:55Z</time>
      </trkpt>
      <trkpt lat="49.83527" lon="2.50247">
        <ele>84.1</ele>
        <time>2023-07-19T08:21:56Z</time>
      </trkpt>
      <trkpt lat="49.83527" lon="2.50247">
        <ele>84.1</ele>
        <time>2023-07-19T08:21:58Z</time>
      </trkpt>
      <trkpt lat="49.83527" lon="2.50247">
        <ele>84.1</ele>
        <time>2023-07-19T08:21:59Z</time>
      </trkpt>
      <trkpt lat="49.83527" lon="2.50247">
        <ele>84.1</ele>
        <time>2023-07-19T08:22:01Z</time>
      </trkpt>
      <trkpt lat="49.83527" lon="2.50247">
        <ele>84.1</ele>
        <time>2023-07-19T08:22:02Z</time>
      </trkpt>
      <trkpt lat="49.83527" lon="2.50247">
        <ele>84.1</ele>
        <time>2023-07-19T08:22:04Z</time>
      </trkpt>
      <trkpt lat="49.83527" lon="2.50247">
        <ele>84.1</ele>
        <time>2023-07-19T08:22:06Z</time>
      </trkpt>
      <trkpt lat="49.83527" lon="2.50247">
        <ele>84.1</ele>
        <time>2023-07-19T08:22:07Z</time>
      </trkpt>
      <trkpt lat="49.83527" lon="2.50247">
        <ele>84.1</ele>
        <time>2023-07-19T08:22:08Z</time>
      </trkpt>
      <trkpt lat="49.83527" lon="2.50247">
        <ele>84.1</ele>
        <time>2023-07-19T08:22:10Z</time>
      </trkpt>
      <trkpt lat="49.83527" lon="2.50247">
        <ele>84.1</ele>
        <time>2023-07-19T08:22:11Z</time>
      </trkpt>
      <trkpt lat="49.83527" lon="2.50247">
        <ele>84.1</ele>
        <time>2023-07-19T08:22:12Z</time>
      </trkpt>
      <trkpt lat="49.83527" lon="2.50247">
        <ele>84.1</ele>
        <time>2023-07-19T08:22:14Z</time>
      </trkpt>
      <trkpt lat="49.83527" lon="2.50247">
        <ele>84.1</ele>
        <time>2023-07-19T08:22:15Z</time>
      </trkpt>
      <trkpt lat="49.83527" lon="2.50247">
        <ele>84.1</ele>
        <time>2023-07-19T08:22:16Z</time>
      </trkpt>
      <trkpt lat="49.83527" lon="2.50247">
        <ele>84.1</ele>
        <time>2023-07-19T08:22:17Z</time>
      </trkpt>
      <trkpt lat="49.83527" lon="2.50247">
        <ele>84.1</ele>
        <time>2023-07-19T08:22:18Z</time>
      </trkpt>
      <trkpt lat="49.83527" lon="2.50247">
        <ele>84.1</ele>
        <time>2023-07-19T08:22:19Z</time>
      </trkpt>
      <trkpt lat="49.83527" lon="2.50247">
        <ele>84.1</ele>
        <time>2023-07-19T08:22:20Z</time>
      </trkpt>
      <trkpt lat="49.83527" lon="2.50247">
        <ele>84.1</ele>
        <time>2023-07-19T08:22:22Z</time>
      </trkpt>
      <trkpt lat="49.83527" lon="2.50247">
        <ele>84.1</ele>
        <time>2023-07-19T08:22:23Z</time>
      </trkpt>
      <trkpt lat="49.83527" lon="2.50247">
        <ele>84.1</ele>
        <time>2023-07-19T08:22:24Z</time>
      </trkpt>
      <trkpt lat="49.83527" lon="2.50247">
        <ele>84.1</ele>
        <time>2023-07-19T08:22:26Z</time>
      </trkpt>
      <trkpt lat="49.83527" lon="2.50247">
        <ele>84.1</ele>
        <time>2023-07-19T08:22:27Z</time>
      </trkpt>
      <trkpt lat="49.83527" lon="2.50247">
        <ele>84.1</ele>
        <time>2023-07-19T08:22:29Z</time>
      </trkpt>
      <trkpt lat="49.83527" lon="2.50247">
        <ele>84.1</ele>
        <time>2023-07-19T08:22:30Z</time>
      </trkpt>
      <trkpt lat="49.83527" lon="2.50247">
        <ele>84.1</ele>
        <time>2023-07-19T08:22:31Z</time>
      </trkpt>
      <trkpt lat="49.83527" lon="2.50247">
        <ele>84.1</ele>
        <time>2023-07-19T08:22:32Z</time>
      </trkpt>
      <trkpt lat="49.83527" lon="2.50247">
        <ele>84.1</ele>
        <time>2023-07-19T08:22:34Z</time>
      </trkpt>
      <trkpt lat="49.83527" lon="2.50247">
        <ele>84.1</ele>
        <time>2023-07-19T08:22:35Z</time>
      </trkpt>
      <trkpt lat="49.83527" lon="2.50247">
        <ele>84.1</ele>
        <time>2023-07-19T08:22:36Z</time>
      </trkpt>
      <trkpt lat="49.83527" lon="2.50247">
        <ele>84.1</ele>
        <time>2023-07-19T08:22:37Z</time>
      </trkpt>
      <trkpt lat="49.83527" lon="2.50247">
        <ele>84.1</ele>
        <time>2023-07-19T08:22:38Z</time>
      </trkpt>
      <trkpt lat="49.83527" lon="2.50247">
        <ele>84.1</ele>
        <time>2023-07-19T08:22:39Z</time>
      </trkpt>
      <trkpt lat="49.83527" lon="2.50247">
        <ele>84.1</ele>
        <time>2023-07-19T08:22:40Z</time>
      </trkpt>
      <trkpt lat="49.83527" lon="2.50247">
        <ele>84.1</ele>
        <time>2023-07-19T08:22:42Z</time>
      </trkpt>
      <trkpt lat="49.83527" lon="2.50247">
        <ele>84.1</ele>
        <time>2023-07-19T08:22:43Z</time>
      </trkpt>
      <trkpt lat="49.83527" lon="2.50247">
        <ele>84.1</ele>
        <time>2023-07-19T08:22:44Z</time>
      </trkpt>
      <trkpt lat="49.83527" lon="2.50247">
        <ele>84.1</ele>
        <time>2023-07-19T08:22:46Z</time>
      </trkpt>
      <trkpt lat="49.83527" lon="2.50247">
        <ele>84.1</ele>
        <time>2023-07-19T08:22:48Z</time>
      </trkpt>
      <trkpt lat="49.83527" lon="2.50247">
        <ele>84.1</ele>
        <time>2023-07-19T08:22:49Z</time>
      </trkpt>
      <trkpt lat="49.83527" lon="2.50247">
        <ele>84.1</ele>
        <time>2023-07-19T08:22:50Z</time>
      </trkpt>
      <trkpt lat="49.83527" lon="2.50247">
        <ele>84.1</ele>
        <time>2023-07-19T08:22:51Z</time>
      </trkpt>
      <trkpt lat="49.83527" lon="2.50247">
        <ele>84.1</ele>
        <time>2023-07-19T08:22:52Z</time>
      </trkpt>
      <trkpt lat="49.83527" lon="2.50247">
        <ele>84.1</ele>
        <time>2023-07-19T08:22:53Z</time>
      </trkpt>
      <trkpt lat="49.83527" lon="2.50247">
        <ele>84.1</ele>
        <time>2023-07-19T08:22:54Z</time>
      </trkpt>
      <trkpt lat="49.83527" lon="2.50247">
        <ele>84.1</ele>
        <time>2023-07-19T08:22:56Z</time>
      </trkpt>
      <trkpt lat="49.83527" lon="2.50247">
        <ele>84.1</ele>
        <time>2023-07-19T08:22:57Z</time>
      </trkpt>
      <trkpt lat="49.83527" lon="2.50247">
        <ele>84.1</ele>
        <time>2023-07-19T08:22:59Z</time>
      </trkpt>
      <trkpt lat="49.83527" lon="2.50247">
        <ele>84.1</ele>
        <time>2023-07-19T08:23:00Z</time>
      </trkpt>
      <trkpt lat="49.83527" lon="2.50246">
        <ele>84.1</ele>
        <time>2023-07-19T08:23:02Z</time>
      </trkpt>
      <trkpt lat="49.83527" lon="2.50246">
        <ele>84.1</ele>
        <time>2023-07-19T08:23:03Z</time>
      </trkpt>
      <trkpt lat="49.83527" lon="2.50246">
        <ele>84.1</ele>
        <time>2023-07-19T08:23:04Z</time>
      </trkpt>
      <trkpt lat="49.83527" lon="2.50246">
        <ele>84.1</ele>
        <time>2023-07-19T08:23:05Z</time>
      </trkpt>
      <trkpt lat="49.83527" lon="2.50246">
        <ele>84.1</ele>
        <time>2023-07-19T08:23:06Z</time>
      </trkpt>
      <trkpt lat="49.83528" lon="2.50246">
        <ele>84.1</ele>
        <time>2023-07-19T08:23:08Z</time>
      </trkpt>
      <trkpt lat="49.83529" lon="2.50245">
        <ele>84.1</ele>
        <time>2023-07-19T08:23:09Z</time>
      </trkpt>
      <trkpt lat="49.83529" lon="2.50245">
        <ele>84.1</ele>
        <time>2023-07-19T08:23:10Z</time>
      </trkpt>
      <trkpt lat="49.8353" lon="2.50243">
        <ele>84.1</ele>
        <time>2023-07-19T08:23:11Z</time>
      </trkpt>
      <trkpt lat="49.83531" lon="2.50242">
        <ele>84.1</ele>
        <time>2023-07-19T08:23:12Z</time>
      </trkpt>
      <trkpt lat="49.83532" lon="2.50241">
        <ele>84.1</ele>
        <time>2023-07-19T08:23:13Z</time>
      </trkpt>
      <trkpt lat="49.83534" lon="2.5024">
        <ele>84.1</ele>
        <time>2023-07-19T08:23:15Z</time>
      </trkpt>
      <trkpt lat="49.83535" lon="2.5024">
        <ele>84.2</ele>
        <time>2023-07-19T08:23:16Z</time>
      </trkpt>
      <trkpt lat="49.83536" lon="2.50239">
        <ele>84.2</ele>
        <time>2023-07-19T08:23:17Z</time>
      </trkpt>
      <trkpt lat="49.83537" lon="2.50237">
        <ele>84.2</ele>
        <time>2023-07-19T08:23:18Z</time>
      </trkpt>
      <trkpt lat="49.83538" lon="2.50236">
        <ele>84.2</ele>
        <time>2023-07-19T08:23:19Z</time>
      </trkpt>
      <trkpt lat="49.83539" lon="2.50235">
        <ele>84.2</ele>
        <time>2023-07-19T08:23:21Z</time>
      </trkpt>
      <trkpt lat="49.83541" lon="2.50233">
        <ele>84.2</ele>
        <time>2023-07-19T08:23:22Z</time>
      </trkpt>
      <trkpt lat="49.83542" lon="2.50232">
        <ele>84.2</ele>
        <time>2023-07-19T08:23:23Z</time>
      </trkpt>
      <trkpt lat="49.83544" lon="2.5023">
        <ele>84.2</ele>
        <time>2023-07-19T08:23:24Z</time>
      </trkpt>
      <trkpt lat="49.83544" lon="2.5023">
        <ele>84.2</ele>
        <time>2023-07-19T08:23:26Z</time>
      </trkpt>
      <trkpt lat="49.83545" lon="2.50229">
        <ele>84.2</ele>
        <time>2023-07-19T08:23:27Z</time>
      </trkpt>
      <trkpt lat="49.83546" lon="2.50227">
        <ele>84.2</ele>
        <time>2023-07-19T08:23:28Z</time>
      </trkpt>
      <trkpt lat="49.83547" lon="2.50226">
        <ele>84.2</ele>
        <time>2023-07-19T08:23:29Z</time>
      </trkpt>
      <trkpt lat="49.83549" lon="2.50224">
        <ele>84.2</ele>
        <time>2023-07-19T08:23:31Z</time>
      </trkpt>
      <trkpt lat="49.8355" lon="2.50222">
        <ele>84.2</ele>
        <time>2023-07-19T08:23:33Z</time>
      </trkpt>
      <trkpt lat="49.83552" lon="2.50221">
        <ele>84.2</ele>
        <time>2023-07-19T08:23:34Z</time>
      </trkpt>
      <trkpt lat="49.83553" lon="2.50219">
        <ele>84.3</ele>
        <time>2023-07-19T08:23:35Z</time>
      </trkpt>
      <trkpt lat="49.83554" lon="2.50218">
        <ele>84.3</ele>
        <time>2023-07-19T08:23:36Z</time>
      </trkpt>
      <trkpt lat="49.83554" lon="2.50217">
        <ele>84.3</ele>
        <time>2023-07-19T08:23:38Z</time>
      </trkpt>
      <trkpt lat="49.83555" lon="2.50215">
        <ele>84.3</ele>
        <time>2023-07-19T08:23:39Z</time>
      </trkpt>
      <trkpt lat="49.83556" lon="2.50213">
        <ele>84.3</ele>
        <time>2023-07-19T08:23:40Z</time>
      </trkpt>
      <trkpt lat="49.83557" lon="2.50212">
        <ele>84.3</ele>
        <time>2023-07-19T08:23:41Z</time>
      </trkpt>
      <trkpt lat="49.83557" lon="2.50211">
        <ele>84.4</ele>
        <time>2023-07-19T08:23:42Z</time>
      </trkpt>
      <trkpt lat="49.83558" lon="2.50209">
        <ele>84.4</ele>
        <time>2023-07-19T08:23:43Z</time>
      </trkpt>
      <trkpt lat="49.83559" lon="2.50208">
        <ele>84.4</ele>
        <time>2023-07-19T08:23:44Z</time>
      </trkpt>
      <trkpt lat="49.8356" lon="2.50207">
        <ele>84.4</ele>
        <time>2023-07-19T08:23:46Z</time>
      </trkpt>
      <trkpt lat="49.83561" lon="2.50206">
        <ele>84.4</ele>
        <time>2023-07-19T08:23:47Z</time>
      </trkpt>
      <trkpt lat="49.83562" lon="2.50205">
        <ele>84.4</ele>
        <time>2023-07-19T08:23:48Z</time>
      </trkpt>
      <trkpt lat="49.83564" lon="2.50203">
        <ele>84.5</ele>
        <time>2023-07-19T08:23:49Z</time>
      </trkpt>
      <trkpt lat="49.83565" lon="2.50202">
        <ele>84.5</ele>
        <time>2023-07-19T08:23:50Z</time>
      </trkpt>
      <trkpt lat="49.83565" lon="2.50201">
        <ele>84.5</ele>
        <time>2023-07-19T08:23:51Z</time>
      </trkpt>
      <trkpt lat="49.83567" lon="2.50199">
        <ele>84.5</ele>
        <time>2023-07-19T08:23:53Z</time>
      </trkpt>
      <trkpt lat="49.83568" lon="2.50198">
        <ele>84.5</ele>
        <time>2023-07-19T08:23:54Z</time>
      </trkpt>
      <trkpt lat="49.83569" lon="2.50198">
        <ele>84.5</ele>
        <time>2023-07-19T08:23:55Z</time>
      </trkpt>
      <trkpt lat="49.83569" lon="2.50196">
        <ele>84.6</ele>
        <time>2023-07-19T08:23:56Z</time>
      </trkpt>
      <trkpt lat="49.8357" lon="2.50195">
        <ele>84.6</ele>
        <time>2023-07-19T08:23:57Z</time>
      </trkpt>
      <trkpt lat="49.83571" lon="2.50194">
        <ele>84.6</ele>
        <time>2023-07-19T08:23:58Z</time>
      </trkpt>
      <trkpt lat="49.83572" lon="2.50193">
        <ele>84.6</ele>
        <time>2023-07-19T08:24:00Z</time>
      </trkpt>
      <trkpt lat="49.83572" lon="2.50192">
        <ele>84.6</ele>
        <time>2023-07-19T08:24:01Z</time>
      </trkpt>
      <trkpt lat="49.83573" lon="2.50191">
        <ele>84.6</ele>
        <time>2023-07-19T08:24:02Z</time>
      </trkpt>
      <trkpt lat="49.83574" lon="2.5019">
        <ele>84.6</ele>
        <time>2023-07-19T08:24:03Z</time>
      </trkpt>
      <trkpt lat="49.83575" lon="2.5019">
        <ele>84.6</ele>
        <time>2023-07-19T08:24:04Z</time>
      </trkpt>
      <trkpt lat="49.83575" lon="2.50189">
        <ele>84.7</ele>
        <time>2023-07-19T08:24:05Z</time>
      </trkpt>
      <trkpt lat="49.83576" lon="2.50188">
        <ele>84.7</ele>
        <time>2023-07-19T08:24:07Z</time>
      </trkpt>
      <trkpt lat="49.83577" lon="2.50186">
        <ele>84.7</ele>
        <time>2023-07-19T08:24:08Z</time>
      </trkpt>
      <trkpt lat="49.83578" lon="2.50185">
        <ele>84.7</ele>
        <time>2023-07-19T08:24:09Z</time>
      </trkpt>
      <trkpt lat="49.83579" lon="2.50184">
        <ele>84.7</ele>
        <time>2023-07-19T08:24:10Z</time>
      </trkpt>
      <trkpt lat="49.83579" lon="2.50183">
        <ele>84.7</ele>
        <time>2023-07-19T08:24:11Z</time>
      </trkpt>
      <trkpt lat="49.8358" lon="2.50181">
        <ele>84.8</ele>
        <time>2023-07-19T08:24:12Z</time>
      </trkpt>
      <trkpt lat="49.83582" lon="2.50179">
        <ele>84.8</ele>
        <time>2023-07-19T08:24:14Z</time>
      </trkpt>
      <trkpt lat="49.83582" lon="2.50178">
        <ele>84.8</ele>
        <time>2023-07-19T08:24:15Z</time>
      </trkpt>
      <trkpt lat="49.83583" lon="2.50176">
        <ele>84.8</ele>
        <time>2023-07-19T08:24:16Z</time>
      </trkpt>
      <trkpt lat="49.83584" lon="2.50176">
        <ele>84.8</ele>
        <time>2023-07-19T08:24:17Z</time>
      </trkpt>
      <trkpt lat="49.83585" lon="2.50174">
        <ele>84.8</ele>
        <time>2023-07-19T08:24:18Z</time>
      </trkpt>
      <trkpt lat="49.83586" lon="2.50173">
        <ele>84.8</ele>
        <time>2023-07-19T08:24:19Z</time>
      </trkpt>
      <trkpt lat="49.83587" lon="2.5017">
        <ele>84.9</ele>
        <time>2023-07-19T08:24:20Z</time>
      </trkpt>
      <trkpt lat="49.83587" lon="2.50169">
        <ele>84.9</ele>
        <time>2023-07-19T08:24:22Z</time>
      </trkpt>
      <trkpt lat="49.83588" lon="2.50168">
        <ele>84.9</ele>
        <time>2023-07-19T08:24:23Z</time>
      </trkpt>
      <trkpt lat="49.83589" lon="2.50166">
        <ele>84.9</ele>
        <time>2023-07-19T08:24:24Z</time>
      </trkpt>
      <trkpt lat="49.8359" lon="2.50165">
        <ele>84.9</ele>
        <time>2023-07-19T08:24:25Z</time>
      </trkpt>
      <trkpt lat="49.83591" lon="2.50164">
        <ele>84.9</ele>
        <time>2023-07-19T08:24:26Z</time>
      </trkpt>
      <trkpt lat="49.83593" lon="2.50161">
        <ele>85</ele>
        <time>2023-07-19T08:24:27Z</time>
      </trkpt>
      <trkpt lat="49.83594" lon="2.5016">
        <ele>85</ele>
        <time>2023-07-19T08:24:29Z</time>
      </trkpt>
      <trkpt lat="49.83595" lon="2.50159">
        <ele>85</ele>
        <time>2023-07-19T08:24:30Z</time>
      </trkpt>
      <trkpt lat="49.83596" lon="2.50157">
        <ele>85</ele>
        <time>2023-07-19T08:24:32Z</time>
      </trkpt>
      <trkpt lat="49.83597" lon="2.50156">
        <ele>85</ele>
        <time>2023-07-19T08:24:33Z</time>
      </trkpt>
      <trkpt lat="49.83598" lon="2.50155">
        <ele>85.1</ele>
        <time>2023-07-19T08:24:35Z</time>
      </trkpt>
      <trkpt lat="49.83599" lon="2.50154">
        <ele>85.1</ele>
        <time>2023-07-19T08:24:36Z</time>
      </trkpt>
      <trkpt lat="49.836" lon="2.50153">
        <ele>85.1</ele>
        <time>2023-07-19T08:24:37Z</time>
      </trkpt>
      <trkpt lat="49.83601" lon="2.50152">
        <ele>85.2</ele>
        <time>2023-07-19T08:24:38Z</time>
      </trkpt>
      <trkpt lat="49.83602" lon="2.5015">
        <ele>85.2</ele>
        <time>2023-07-19T08:24:39Z</time>
      </trkpt>
      <trkpt lat="49.83603" lon="2.50149">
        <ele>85.2</ele>
        <time>2023-07-19T08:24:40Z</time>
      </trkpt>
      <trkpt lat="49.83604" lon="2.50148">
        <ele>85.3</ele>
        <time>2023-07-19T08:24:41Z</time>
      </trkpt>
      <trkpt lat="49.83605" lon="2.50146">
        <ele>85.3</ele>
        <time>2023-07-19T08:24:43Z</time>
      </trkpt>
      <trkpt lat="49.83607" lon="2.50144">
        <ele>85.3</ele>
        <time>2023-07-19T08:24:44Z</time>
      </trkpt>
      <trkpt lat="49.83608" lon="2.50143">
        <ele>85.4</ele>
        <time>2023-07-19T08:24:45Z</time>
      </trkpt>
      <trkpt lat="49.83608" lon="2.50142">
        <ele>85.4</ele>
        <time>2023-07-19T08:24:46Z</time>
      </trkpt>
      <trkpt lat="49.83609" lon="2.50142">
        <ele>85.4</ele>
        <time>2023-07-19T08:24:47Z</time>
      </trkpt>
      <trkpt lat="49.8361" lon="2.50141">
        <ele>85.4</ele>
        <time>2023-07-19T08:24:49Z</time>
      </trkpt>
      <trkpt lat="49.8361" lon="2.50142">
        <ele>85.5</ele>
        <time>2023-07-19T08:24:50Z</time>
      </trkpt>
      <trkpt lat="49.83611" lon="2.50142">
        <ele>85.5</ele>
        <time>2023-07-19T08:24:51Z</time>
      </trkpt>
      <trkpt lat="49.83611" lon="2.50142">
        <ele>85.5</ele>
        <time>2023-07-19T08:24:52Z</time>
      </trkpt>
      <trkpt lat="49.83611" lon="2.50142">
        <ele>85.5</ele>
        <time>2023-07-19T08:24:54Z</time>
      </trkpt>
      <trkpt lat="49.83612" lon="2.50143">
        <ele>85.5</ele>
        <time>2023-07-19T08:24:56Z</time>
      </trkpt>
      <trkpt lat="49.83612" lon="2.50143">
        <ele>85.5</ele>
        <time>2023-07-19T08:24:58Z</time>
      </trkpt>
      <trkpt lat="49.83611" lon="2.50143">
        <ele>85.5</ele>
        <time>2023-07-19T08:24:59Z</time>
      </trkpt>
      <trkpt lat="49.83611" lon="2.50143">
        <ele>85.5</ele>
        <time>2023-07-19T08:25:01Z</time>
      </trkpt>
      <trkpt lat="49.83611" lon="2.50143">
        <ele>85.5</ele>
        <time>2023-07-19T08:25:02Z</time>
      </trkpt>
      <trkpt lat="49.83611" lon="2.50143">
        <ele>85.5</ele>
        <time>2023-07-19T08:25:03Z</time>
      </trkpt>
      <trkpt lat="49.83612" lon="2.50143">
        <ele>85.5</ele>
        <time>2023-07-19T08:25:05Z</time>
      </trkpt>
      <trkpt lat="49.83612" lon="2.50143">
        <ele>85.5</ele>
        <time>2023-07-19T08:25:06Z</time>
      </trkpt>
      <trkpt lat="49.83612" lon="2.50142">
        <ele>85.6</ele>
        <time>2023-07-19T08:25:08Z</time>
      </trkpt>
      <trkpt lat="49.83612" lon="2.50141">
        <ele>85.6</ele>
        <time>2023-07-19T08:25:09Z</time>
      </trkpt>
      <trkpt lat="49.83612" lon="2.50141">
        <ele>85.6</ele>
        <time>2023-07-19T08:25:10Z</time>
      </trkpt>
      <trkpt lat="49.83612" lon="2.5014">
        <ele>85.6</ele>
        <time>2023-07-19T08:25:11Z</time>
      </trkpt>
      <trkpt lat="49.83612" lon="2.5014">
        <ele>85.6</ele>
        <time>2023-07-19T08:25:12Z</time>
      </trkpt>
      <trkpt lat="49.83612" lon="2.5014">
        <ele>85.6</ele>
        <time>2023-07-19T08:25:13Z</time>
      </trkpt>
      <trkpt lat="49.83612" lon="2.50139">
        <ele>85.6</ele>
        <time>2023-07-19T08:25:15Z</time>
      </trkpt>
      <trkpt lat="49.83612" lon="2.50138">
        <ele>85.7</ele>
        <time>2023-07-19T08:25:16Z</time>
      </trkpt>
      <trkpt lat="49.83612" lon="2.50138">
        <ele>85.7</ele>
        <time>2023-07-19T08:25:17Z</time>
      </trkpt>
      <trkpt lat="49.83612" lon="2.50137">
        <ele>85.7</ele>
        <time>2023-07-19T08:25:18Z</time>
      </trkpt>
      <trkpt lat="49.83612" lon="2.50136">
        <ele>85.7</ele>
        <time>2023-07-19T08:25:20Z</time>
      </trkpt>
      <trkpt lat="49.83613" lon="2.50134">
        <ele>85.7</ele>
        <time>2023-07-19T08:25:21Z</time>
      </trkpt>
      <trkpt lat="49.83613" lon="2.50133">
        <ele>85.8</ele>
        <time>2023-07-19T08:25:22Z</time>
      </trkpt>
      <trkpt lat="49.83613" lon="2.50131">
        <ele>85.8</ele>
        <time>2023-07-19T08:25:23Z</time>
      </trkpt>
      <trkpt lat="49.83614" lon="2.50129">
        <ele>85.8</ele>
        <time>2023-07-19T08:25:24Z</time>
      </trkpt>
      <trkpt lat="49.83615" lon="2.50128">
        <ele>85.9</ele>
        <time>2023-07-19T08:25:25Z</time>
      </trkpt>
      <trkpt lat="49.83615" lon="2.50126">
        <ele>85.9</ele>
        <time>2023-07-19T08:25:27Z</time>
      </trkpt>
      <trkpt lat="49.83617" lon="2.50125">
        <ele>85.9</ele>
        <time>2023-07-19T08:25:28Z</time>
      </trkpt>
      <trkpt lat="49.83618" lon="2.50123">
        <ele>86</ele>
        <time>2023-07-19T08:25:29Z</time>
      </trkpt>
      <trkpt lat="49.83619" lon="2.50121">
        <ele>86</ele>
        <time>2023-07-19T08:25:30Z</time>
      </trkpt>
      <trkpt lat="49.8362" lon="2.5012">
        <ele>86.1</ele>
        <time>2023-07-19T08:25:31Z</time>
      </trkpt>
      <trkpt lat="49.83621" lon="2.50118">
        <ele>86.1</ele>
        <time>2023-07-19T08:25:32Z</time>
      </trkpt>
      <trkpt lat="49.83622" lon="2.50116">
        <ele>86.2</ele>
        <time>2023-07-19T08:25:33Z</time>
      </trkpt>
      <trkpt lat="49.83623" lon="2.50115">
        <ele>86.2</ele>
        <time>2023-07-19T08:25:34Z</time>
      </trkpt>
      <trkpt lat="49.83624" lon="2.50113">
        <ele>86.3</ele>
        <time>2023-07-19T08:25:36Z</time>
      </trkpt>
      <trkpt lat="49.83625" lon="2.50112">
        <ele>86.3</ele>
        <time>2023-07-19T08:25:37Z</time>
      </trkpt>
      <trkpt lat="49.83627" lon="2.50111">
        <ele>86.4</ele>
        <time>2023-07-19T08:25:38Z</time>
      </trkpt>
      <trkpt lat="49.83627" lon="2.5011">
        <ele>86.4</ele>
        <time>2023-07-19T08:25:39Z</time>
      </trkpt>
      <trkpt lat="49.83628" lon="2.50109">
        <ele>86.4</ele>
        <time>2023-07-19T08:25:40Z</time>
      </trkpt>
      <trkpt lat="49.83628" lon="2.50109">
        <ele>86.4</ele>
        <time>2023-07-19T08:25:41Z</time>
      </trkpt>
      <trkpt lat="49.8363" lon="2.50106">
        <ele>86.5</ele>
        <time>2023-07-19T08:25:43Z</time>
      </trkpt>
      <trkpt lat="49.8363" lon="2.50105">
        <ele>86.6</ele>
        <time>2023-07-19T08:25:44Z</time>
      </trkpt>
      <trkpt lat="49.8363" lon="2.50103">
        <ele>86.6</ele>
        <time>2023-07-19T08:25:45Z</time>
      </trkpt>
      <trkpt lat="49.83631" lon="2.50102">
        <ele>86.6</ele>
        <time>2023-07-19T08:25:46Z</time>
      </trkpt>
      <trkpt lat="49.83631" lon="2.501">
        <ele>86.7</ele>
        <time>2023-07-19T08:25:47Z</time>
      </trkpt>
      <trkpt lat="49.83632" lon="2.50098">
        <ele>86.7</ele>
        <time>2023-07-19T08:25:48Z</time>
      </trkpt>
      <trkpt lat="49.83632" lon="2.50097">
        <ele>86.8</ele>
        <time>2023-07-19T08:25:50Z</time>
      </trkpt>
      <trkpt lat="49.83633" lon="2.50095">
        <ele>86.8</ele>
        <time>2023-07-19T08:25:51Z</time>
      </trkpt>
      <trkpt lat="49.83634" lon="2.50094">
        <ele>86.8</ele>
        <time>2023-07-19T08:25:52Z</time>
      </trkpt>
      <trkpt lat="49.83634" lon="2.50093">
        <ele>86.9</ele>
        <time>2023-07-19T08:25:53Z</time>
      </trkpt>
      <trkpt lat="49.83635" lon="2.50092">
        <ele>86.9</ele>
        <time>2023-07-19T08:25:54Z</time>
      </trkpt>
      <trkpt lat="49.83636" lon="2.50091">
        <ele>87</ele>
        <time>2023-07-19T08:25:55Z</time>
      </trkpt>
      <trkpt lat="49.83637" lon="2.5009">
        <ele>87</ele>
        <time>2023-07-19T08:25:56Z</time>
      </trkpt>
      <trkpt lat="49.83638" lon="2.50088">
        <ele>87.1</ele>
        <time>2023-07-19T08:25:58Z</time>
      </trkpt>
      <trkpt lat="49.83639" lon="2.50088">
        <ele>87.1</ele>
        <time>2023-07-19T08:25:59Z</time>
      </trkpt>
      <trkpt lat="49.8364" lon="2.50088">
        <ele>87.1</ele>
        <time>2023-07-19T08:26:00Z</time>
      </trkpt>
      <trkpt lat="49.83641" lon="2.50087">
        <ele>87.2</ele>
        <time>2023-07-19T08:26:02Z</time>
      </trkpt>
      <trkpt lat="49.83643" lon="2.50086">
        <ele>87.3</ele>
        <time>2023-07-19T08:26:03Z</time>
      </trkpt>
      <trkpt lat="49.83644" lon="2.50085">
        <ele>87.3</ele>
        <time>2023-07-19T08:26:04Z</time>
      </trkpt>
      <trkpt lat="49.83645" lon="2.50084">
        <ele>87.4</ele>
        <time>2023-07-19T08:26:05Z</time>
      </trkpt>
      <trkpt lat="49.83647" lon="2.50083">
        <ele>87.4</ele>
        <time>2023-07-19T08:26:06Z</time>
      </trkpt>
      <trkpt lat="49.83648" lon="2.50081">
        <ele>87.5</ele>
        <time>2023-07-19T08:26:08Z</time>
      </trkpt>
      <trkpt lat="49.83649" lon="2.5008">
        <ele>87.5</ele>
        <time>2023-07-19T08:26:09Z</time>
      </trkpt>
      <trkpt lat="49.8365" lon="2.50079">
        <ele>87.6</ele>
        <time>2023-07-19T08:26:10Z</time>
      </trkpt>
      <trkpt lat="49.83651" lon="2.50078">
        <ele>87.6</ele>
        <time>2023-07-19T08:26:11Z</time>
      </trkpt>
      <trkpt lat="49.83652" lon="2.50077">
        <ele>87.7</ele>
        <time>2023-07-19T08:26:12Z</time>
      </trkpt>
      <trkpt lat="49.83653" lon="2.50076">
        <ele>87.7</ele>
        <time>2023-07-19T08:26:13Z</time>
      </trkpt>
      <trkpt lat="49.83654" lon="2.50073">
        <ele>87.8</ele>
        <time>2023-07-19T08:26:15Z</time>
      </trkpt>
      <trkpt lat="49.83655" lon="2.50072">
        <ele>87.8</ele>
        <time>2023-07-19T08:26:16Z</time>
      </trkpt>
      <trkpt lat="49.83656" lon="2.5007">
        <ele>87.9</ele>
        <time>2023-07-19T08:26:18Z</time>
      </trkpt>
      <trkpt lat="49.83657" lon="2.50069">
        <ele>87.9</ele>
        <time>2023-07-19T08:26:19Z</time>
      </trkpt>
      <trkpt lat="49.83657" lon="2.50068">
        <ele>87.9</ele>
        <time>2023-07-19T08:26:20Z</time>
      </trkpt>
      <trkpt lat="49.83658" lon="2.50067">
        <ele>88</ele>
        <time>2023-07-19T08:26:21Z</time>
      </trkpt>
      <trkpt lat="49.83659" lon="2.50065">
        <ele>88</ele>
        <time>2023-07-19T08:26:22Z</time>
      </trkpt>
      <trkpt lat="49.8366" lon="2.50064">
        <ele>88.1</ele>
        <time>2023-07-19T08:26:23Z</time>
      </trkpt>
      <trkpt lat="49.83661" lon="2.50063">
        <ele>88.1</ele>
        <time>2023-07-19T08:26:25Z</time>
      </trkpt>
      <trkpt lat="49.83662" lon="2.50061">
        <ele>88.2</ele>
        <time>2023-07-19T08:26:26Z</time>
      </trkpt>
      <trkpt lat="49.83663" lon="2.50059">
        <ele>88.2</ele>
        <time>2023-07-19T08:26:27Z</time>
      </trkpt>
      <trkpt lat="49.83664" lon="2.50058">
        <ele>88.3</ele>
        <time>2023-07-19T08:26:28Z</time>
      </trkpt>
      <trkpt lat="49.83665" lon="2.50057">
        <ele>88.3</ele>
        <time>2023-07-19T08:26:29Z</time>
      </trkpt>
      <trkpt lat="49.83666" lon="2.50056">
        <ele>88.3</ele>
        <time>2023-07-19T08:26:31Z</time>
      </trkpt>
      <trkpt lat="49.83666" lon="2.50054">
        <ele>88.4</ele>
        <time>2023-07-19T08:26:32Z</time>
      </trkpt>
      <trkpt lat="49.83668" lon="2.50052">
        <ele>88.4</ele>
        <time>2023-07-19T08:26:33Z</time>
      </trkpt>
      <trkpt lat="49.83669" lon="2.50051">
        <ele>88.5</ele>
        <time>2023-07-19T08:26:34Z</time>
      </trkpt>
      <trkpt lat="49.83669" lon="2.50051">
        <ele>88.5</ele>
        <time>2023-07-19T08:26:35Z</time>
      </trkpt>
      <trkpt lat="49.8367" lon="2.5005">
        <ele>88.5</ele>
        <time>2023-07-19T08:26:37Z</time>
      </trkpt>
      <trkpt lat="49.83671" lon="2.50049">
        <ele>88.6</ele>
        <time>2023-07-19T08:26:38Z</time>
      </trkpt>
      <trkpt lat="49.83672" lon="2.50047">
        <ele>88.6</ele>
        <time>2023-07-19T08:26:39Z</time>
      </trkpt>
      <trkpt lat="49.83673" lon="2.50045">
        <ele>88.7</ele>
        <time>2023-07-19T08:26:40Z</time>
      </trkpt>
      <trkpt lat="49.83674" lon="2.50044">
        <ele>88.7</ele>
        <time>2023-07-19T08:26:41Z</time>
      </trkpt>
      <trkpt lat="49.83674" lon="2.50043">
        <ele>88.7</ele>
        <time>2023-07-19T08:26:42Z</time>
      </trkpt>
      <trkpt lat="49.83675" lon="2.50042">
        <ele>88.8</ele>
        <time>2023-07-19T08:26:43Z</time>
      </trkpt>
      <trkpt lat="49.83677" lon="2.5004">
        <ele>88.8</ele>
        <time>2023-07-19T08:26:45Z</time>
      </trkpt>
      <trkpt lat="49.83678" lon="2.50039">
        <ele>88.9</ele>
        <time>2023-07-19T08:26:46Z</time>
      </trkpt>
      <trkpt lat="49.83679" lon="2.50038">
        <ele>88.9</ele>
        <time>2023-07-19T08:26:47Z</time>
      </trkpt>
      <trkpt lat="49.8368" lon="2.50036">
        <ele>89</ele>
        <time>2023-07-19T08:26:48Z</time>
      </trkpt>
      <trkpt lat="49.83681" lon="2.50035">
        <ele>89</ele>
        <time>2023-07-19T08:26:49Z</time>
      </trkpt>
      <trkpt lat="49.83683" lon="2.50033">
        <ele>89.1</ele>
        <time>2023-07-19T08:26:51Z</time>
      </trkpt>
      <trkpt lat="49.83683" lon="2.50032">
        <ele>89.1</ele>
        <time>2023-07-19T08:26:52Z</time>
      </trkpt>
      <trkpt lat="49.83684" lon="2.50031">
        <ele>89.1</ele>
        <time>2023-07-19T08:26:53Z</time>
      </trkpt>
      <trkpt lat="49.83686" lon="2.50029">
        <ele>89.2</ele>
        <time>2023-07-19T08:26:54Z</time>
      </trkpt>
      <trkpt lat="49.83687" lon="2.50027">
        <ele>89.2</ele>
        <time>2023-07-19T08:26:56Z</time>
      </trkpt>
      <trkpt lat="49.83688" lon="2.50026">
        <ele>89.3</ele>
        <time>2023-07-19T08:26:57Z</time>
      </trkpt>
      <trkpt lat="49.83689" lon="2.50025">
        <ele>89.3</ele>
        <time>2023-07-19T08:26:59Z</time>
      </trkpt>
      <trkpt lat="49.8369" lon="2.50023">
        <ele>89.3</ele>
        <time>2023-07-19T08:27:00Z</time>
      </trkpt>
      <trkpt lat="49.8369" lon="2.50022">
        <ele>89.4</ele>
        <time>2023-07-19T08:27:02Z</time>
      </trkpt>
      <trkpt lat="49.83692" lon="2.5002">
        <ele>89.4</ele>
        <time>2023-07-19T08:27:03Z</time>
      </trkpt>
      <trkpt lat="49.83692" lon="2.50019">
        <ele>89.5</ele>
        <time>2023-07-19T08:27:05Z</time>
      </trkpt>
      <trkpt lat="49.83693" lon="2.50018">
        <ele>89.5</ele>
        <time>2023-07-19T08:27:06Z</time>
      </trkpt>
      <trkpt lat="49.83694" lon="2.50016">
        <ele>89.5</ele>
        <time>2023-07-19T08:27:07Z</time>
      </trkpt>
      <trkpt lat="49.83695" lon="2.50015">
        <ele>89.6</ele>
        <time>2023-07-19T08:27:08Z</time>
      </trkpt>
      <trkpt lat="49.83696" lon="2.50014">
        <ele>89.6</ele>
        <time>2023-07-19T08:27:09Z</time>
      </trkpt>
      <trkpt lat="49.83697" lon="2.50013">
        <ele>89.6</ele>
        <time>2023-07-19T08:27:10Z</time>
      </trkpt>
      <trkpt lat="49.83698" lon="2.50012">
        <ele>89.7</ele>
        <time>2023-07-19T08:27:11Z</time>
      </trkpt>
      <trkpt lat="49.83699" lon="2.50011">
        <ele>89.7</ele>
        <time>2023-07-19T08:27:13Z</time>
      </trkpt>
      <trkpt lat="49.837" lon="2.5001">
        <ele>89.7</ele>
        <time>2023-07-19T08:27:14Z</time>
      </trkpt>
      <trkpt lat="49.83701" lon="2.50008">
        <ele>89.8</ele>
        <time>2023-07-19T08:27:15Z</time>
      </trkpt>
      <trkpt lat="49.83702" lon="2.50007">
        <ele>89.8</ele>
        <time>2023-07-19T08:27:17Z</time>
      </trkpt>
      <trkpt lat="49.83703" lon="2.50005">
        <ele>89.8</ele>
        <time>2023-07-19T08:27:18Z</time>
      </trkpt>
      <trkpt lat="49.83704" lon="2.50004">
        <ele>89.9</ele>
        <time>2023-07-19T08:27:19Z</time>
      </trkpt>
      <trkpt lat="49.83705" lon="2.50003">
        <ele>89.9</ele>
        <time>2023-07-19T08:27:21Z</time>
      </trkpt>
      <trkpt lat="49.83706" lon="2.50002">
        <ele>89.9</ele>
        <time>2023-07-19T08:27:22Z</time>
      </trkpt>
      <trkpt lat="49.83707" lon="2.50001">
        <ele>90</ele>
        <time>2023-07-19T08:27:23Z</time>
      </trkpt>
      <trkpt lat="49.83708" lon="2.50001">
        <ele>90</ele>
        <time>2023-07-19T08:27:24Z</time>
      </trkpt>
      <trkpt lat="49.8371" lon="2.49999">
        <ele>90</ele>
        <time>2023-07-19T08:27:25Z</time>
      </trkpt>
      <trkpt lat="49.83711" lon="2.49997">
        <ele>90.1</ele>
        <time>2023-07-19T08:27:26Z</time>
      </trkpt>
      <trkpt lat="49.83712" lon="2.49997">
        <ele>90.1</ele>
        <time>2023-07-19T08:27:28Z</time>
      </trkpt>
      <trkpt lat="49.83713" lon="2.49996">
        <ele>90.1</ele>
        <time>2023-07-19T08:27:29Z</time>
      </trkpt>
      <trkpt lat="49.83715" lon="2.49993">
        <ele>90.2</ele>
        <time>2023-07-19T08:27:30Z</time>
      </trkpt>
      <trkpt lat="49.83716" lon="2.49992">
        <ele>90.2</ele>
        <time>2023-07-19T08:27:32Z</time>
      </trkpt>
      <trkpt lat="49.83717" lon="2.49992">
        <ele>90.2</ele>
        <time>2023-07-19T08:27:33Z</time>
      </trkpt>
      <trkpt lat="49.83718" lon="2.49991">
        <ele>90.2</ele>
        <time>2023-07-19T08:27:34Z</time>
      </trkpt>
      <trkpt lat="49.83719" lon="2.4999">
        <ele>90.2</ele>
        <time>2023-07-19T08:27:35Z</time>
      </trkpt>
      <trkpt lat="49.8372" lon="2.49989">
        <ele>90.3</ele>
        <time>2023-07-19T08:27:37Z</time>
      </trkpt>
      <trkpt lat="49.83721" lon="2.49988">
        <ele>90.3</ele>
        <time>2023-07-19T08:27:38Z</time>
      </trkpt>
      <trkpt lat="49.83723" lon="2.49986">
        <ele>90.3</ele>
        <time>2023-07-19T08:27:39Z</time>
      </trkpt>
      <trkpt lat="49.83724" lon="2.49986">
        <ele>90.4</ele>
        <time>2023-07-19T08:27:40Z</time>
      </trkpt>
      <trkpt lat="49.83725" lon="2.49985">
        <ele>90.4</ele>
        <time>2023-07-19T08:27:41Z</time>
      </trkpt>
      <trkpt lat="49.83726" lon="2.49984">
        <ele>90.4</ele>
        <time>2023-07-19T08:27:42Z</time>
      </trkpt>
      <trkpt lat="49.83727" lon="2.49983">
        <ele>90.4</ele>
        <time>2023-07-19T08:27:43Z</time>
      </trkpt>
      <trkpt lat="49.83728" lon="2.49982">
        <ele>90.4</ele>
        <time>2023-07-19T08:27:44Z</time>
      </trkpt>
      <trkpt lat="49.8373" lon="2.4998">
        <ele>90.5</ele>
        <time>2023-07-19T08:27:46Z</time>
      </trkpt>
      <trkpt lat="49.83731" lon="2.49979">
        <ele>90.5</ele>
        <time>2023-07-19T08:27:47Z</time>
      </trkpt>
      <trkpt lat="49.83731" lon="2.49979">
        <ele>90.5</ele>
        <time>2023-07-19T08:27:48Z</time>
      </trkpt>
      <trkpt lat="49.83732" lon="2.49978">
        <ele>90.6</ele>
        <time>2023-07-19T08:27:49Z</time>
      </trkpt>
      <trkpt lat="49.83733" lon="2.49977">
        <ele>90.6</ele>
        <time>2023-07-19T08:27:50Z</time>
      </trkpt>
      <trkpt lat="49.83734" lon="2.49975">
        <ele>90.6</ele>
        <time>2023-07-19T08:27:51Z</time>
      </trkpt>
      <trkpt lat="49.83735" lon="2.49974">
        <ele>90.6</ele>
        <time>2023-07-19T08:27:52Z</time>
      </trkpt>
      <trkpt lat="49.83736" lon="2.49973">
        <ele>90.7</ele>
        <time>2023-07-19T08:27:53Z</time>
      </trkpt>
      <trkpt lat="49.83737" lon="2.49972">
        <ele>90.7</ele>
        <time>2023-07-19T08:27:55Z</time>
      </trkpt>
      <trkpt lat="49.83738" lon="2.49971">
        <ele>90.7</ele>
        <time>2023-07-19T08:27:56Z</time>
      </trkpt>
      <trkpt lat="49.83739" lon="2.4997">
        <ele>90.8</ele>
        <time>2023-07-19T08:27:57Z</time>
      </trkpt>
      <trkpt lat="49.8374" lon="2.49969">
        <ele>90.8</ele>
        <time>2023-07-19T08:27:58Z</time>
      </trkpt>
      <trkpt lat="49.83741" lon="2.49968">
        <ele>90.8</ele>
        <time>2023-07-19T08:27:59Z</time>
      </trkpt>
      <trkpt lat="49.83742" lon="2.49966">
        <ele>90.8</ele>
        <time>2023-07-19T08:28:00Z</time>
      </trkpt>
      <trkpt lat="49.83743" lon="2.49965">
        <ele>90.9</ele>
        <time>2023-07-19T08:28:02Z</time>
      </trkpt>
      <trkpt lat="49.83744" lon="2.49965">
        <ele>90.9</ele>
        <time>2023-07-19T08:28:03Z</time>
      </trkpt>
      <trkpt lat="49.83745" lon="2.49964">
        <ele>90.9</ele>
        <time>2023-07-19T08:28:04Z</time>
      </trkpt>
      <trkpt lat="49.83746" lon="2.49963">
        <ele>91</ele>
        <time>2023-07-19T08:28:05Z</time>
      </trkpt>
      <trkpt lat="49.83747" lon="2.49962">
        <ele>91</ele>
        <time>2023-07-19T08:28:06Z</time>
      </trkpt>
      <trkpt lat="49.83749" lon="2.4996">
        <ele>91</ele>
        <time>2023-07-19T08:28:07Z</time>
      </trkpt>
      <trkpt lat="49.83749" lon="2.49959">
        <ele>91.1</ele>
        <time>2023-07-19T08:28:08Z</time>
      </trkpt>
      <trkpt lat="49.8375" lon="2.49958">
        <ele>91.1</ele>
        <time>2023-07-19T08:28:09Z</time>
      </trkpt>
      <trkpt lat="49.83753" lon="2.49955">
        <ele>91.2</ele>
        <time>2023-07-19T08:28:11Z</time>
      </trkpt>
      <trkpt lat="49.83753" lon="2.49955">
        <ele>91.2</ele>
        <time>2023-07-19T08:28:12Z</time>
      </trkpt>
      <trkpt lat="49.83755" lon="2.49953">
        <ele>91.2</ele>
        <time>2023-07-19T08:28:14Z</time>
      </trkpt>
      <trkpt lat="49.83756" lon="2.49952">
        <ele>91.2</ele>
        <time>2023-07-19T08:28:15Z</time>
      </trkpt>
      <trkpt lat="49.83758" lon="2.4995">
        <ele>91.3</ele>
        <time>2023-07-19T08:28:16Z</time>
      </trkpt>
      <trkpt lat="49.83758" lon="2.49949">
        <ele>91.3</ele>
        <time>2023-07-19T08:28:17Z</time>
      </trkpt>
      <trkpt lat="49.83759" lon="2.49949">
        <ele>91.3</ele>
        <time>2023-07-19T08:28:18Z</time>
      </trkpt>
      <trkpt lat="49.8376" lon="2.49947">
        <ele>91.4</ele>
        <time>2023-07-19T08:28:20Z</time>
      </trkpt>
      <trkpt lat="49.83761" lon="2.49946">
        <ele>91.4</ele>
        <time>2023-07-19T08:28:21Z</time>
      </trkpt>
      <trkpt lat="49.83762" lon="2.49945">
        <ele>91.4</ele>
        <time>2023-07-19T08:28:22Z</time>
      </trkpt>
      <trkpt lat="49.83762" lon="2.49944">
        <ele>91.4</ele>
        <time>2023-07-19T08:28:23Z</time>
      </trkpt>
      <trkpt lat="49.83763" lon="2.49943">
        <ele>91.4</ele>
        <time>2023-07-19T08:28:24Z</time>
      </trkpt>
      <trkpt lat="49.83764" lon="2.49942">
        <ele>91.5</ele>
        <time>2023-07-19T08:28:25Z</time>
      </trkpt>
      <trkpt lat="49.83765" lon="2.49941">
        <ele>91.5</ele>
        <time>2023-07-19T08:28:27Z</time>
      </trkpt>
      <trkpt lat="49.83766" lon="2.4994">
        <ele>91.5</ele>
        <time>2023-07-19T08:28:28Z</time>
      </trkpt>
      <trkpt lat="49.83768" lon="2.49937">
        <ele>91.5</ele>
        <time>2023-07-19T08:28:29Z</time>
      </trkpt>
      <trkpt lat="49.83768" lon="2.49936">
        <ele>91.6</ele>
        <time>2023-07-19T08:28:30Z</time>
      </trkpt>
      <trkpt lat="49.83769" lon="2.49935">
        <ele>91.6</ele>
        <time>2023-07-19T08:28:31Z</time>
      </trkpt>
      <trkpt lat="49.8377" lon="2.49934">
        <ele>91.6</ele>
        <time>2023-07-19T08:28:33Z</time>
      </trkpt>
      <trkpt lat="49.83771" lon="2.49932">
        <ele>91.6</ele>
        <time>2023-07-19T08:28:34Z</time>
      </trkpt>
      <trkpt lat="49.83772" lon="2.4993">
        <ele>91.7</ele>
        <time>2023-07-19T08:28:35Z</time>
      </trkpt>
      <trkpt lat="49.83773" lon="2.49929">
        <ele>91.7</ele>
        <time>2023-07-19T08:28:36Z</time>
      </trkpt>
      <trkpt lat="49.83773" lon="2.49928">
        <ele>91.7</ele>
        <time>2023-07-19T08:28:37Z</time>
      </trkpt>
      <trkpt lat="49.83775" lon="2.49926">
        <ele>91.7</ele>
        <time>2023-07-19T08:28:38Z</time>
      </trkpt>
      <trkpt lat="49.83776" lon="2.49925">
        <ele>91.8</ele>
        <time>2023-07-19T08:28:40Z</time>
      </trkpt>
      <trkpt lat="49.83776" lon="2.49925">
        <ele>91.8</ele>
        <time>2023-07-19T08:28:41Z</time>
      </trkpt>
      <trkpt lat="49.83778" lon="2.49923">
        <ele>91.8</ele>
        <time>2023-07-19T08:28:42Z</time>
      </trkpt>
      <trkpt lat="49.83779" lon="2.49922">
        <ele>91.8</ele>
        <time>2023-07-19T08:28:43Z</time>
      </trkpt>
      <trkpt lat="49.8378" lon="2.49921">
        <ele>91.9</ele>
        <time>2023-07-19T08:28:45Z</time>
      </trkpt>
      <trkpt lat="49.83781" lon="2.4992">
        <ele>91.9</ele>
        <time>2023-07-19T08:28:46Z</time>
      </trkpt>
      <trkpt lat="49.83782" lon="2.49918">
        <ele>91.9</ele>
        <time>2023-07-19T08:28:47Z</time>
      </trkpt>
      <trkpt lat="49.83783" lon="2.49917">
        <ele>92</ele>
        <time>2023-07-19T08:28:48Z</time>
      </trkpt>
      <trkpt lat="49.83784" lon="2.49916">
        <ele>92</ele>
        <time>2023-07-19T08:28:49Z</time>
      </trkpt>
      <trkpt lat="49.83786" lon="2.49914">
        <ele>92</ele>
        <time>2023-07-19T08:28:50Z</time>
      </trkpt>
      <trkpt lat="49.83787" lon="2.49913">
        <ele>92.1</ele>
        <time>2023-07-19T08:28:52Z</time>
      </trkpt>
      <trkpt lat="49.83789" lon="2.49912">
        <ele>92.1</ele>
        <time>2023-07-19T08:28:53Z</time>
      </trkpt>
      <trkpt lat="49.8379" lon="2.49911">
        <ele>92.1</ele>
        <time>2023-07-19T08:28:55Z</time>
      </trkpt>
      <trkpt lat="49.83791" lon="2.4991">
        <ele>92.1</ele>
        <time>2023-07-19T08:28:57Z</time>
      </trkpt>
      <trkpt lat="49.83792" lon="2.49909">
        <ele>92.2</ele>
        <time>2023-07-19T08:28:59Z</time>
      </trkpt>
      <trkpt lat="49.83793" lon="2.49908">
        <ele>92.2</ele>
        <time>2023-07-19T08:29:00Z</time>
      </trkpt>
      <trkpt lat="49.83794" lon="2.49906">
        <ele>92.2</ele>
        <time>2023-07-19T08:29:02Z</time>
      </trkpt>
      <trkpt lat="49.83795" lon="2.49905">
        <ele>92.2</ele>
        <time>2023-07-19T08:29:03Z</time>
      </trkpt>
      <trkpt lat="49.83795" lon="2.49905">
        <ele>92.3</ele>
        <time>2023-07-19T08:29:04Z</time>
      </trkpt>
      <trkpt lat="49.83797" lon="2.49903">
        <ele>92.3</ele>
        <time>2023-07-19T08:29:05Z</time>
      </trkpt>
      <trkpt lat="49.83798" lon="2.49902">
        <ele>92.3</ele>
        <time>2023-07-19T08:29:06Z</time>
      </trkpt>
      <trkpt lat="49.83798" lon="2.49901">
        <ele>92.3</ele>
        <time>2023-07-19T08:29:07Z</time>
      </trkpt>
      <trkpt lat="49.83799" lon="2.499">
        <ele>92.4</ele>
        <time>2023-07-19T08:29:08Z</time>
      </trkpt>
      <trkpt lat="49.838" lon="2.49899">
        <ele>92.4</ele>
        <time>2023-07-19T08:29:10Z</time>
      </trkpt>
      <trkpt lat="49.83801" lon="2.49898">
        <ele>92.4</ele>
        <time>2023-07-19T08:29:11Z</time>
      </trkpt>
      <trkpt lat="49.83802" lon="2.49896">
        <ele>92.4</ele>
        <time>2023-07-19T08:29:12Z</time>
      </trkpt>
      <trkpt lat="49.83803" lon="2.49895">
        <ele>92.5</ele>
        <time>2023-07-19T08:29:13Z</time>
      </trkpt>
      <trkpt lat="49.83803" lon="2.49894">
        <ele>92.5</ele>
        <time>2023-07-19T08:29:14Z</time>
      </trkpt>
      <trkpt lat="49.83804" lon="2.49893">
        <ele>92.5</ele>
        <time>2023-07-19T08:29:15Z</time>
      </trkpt>
      <trkpt lat="49.83805" lon="2.49892">
        <ele>92.5</ele>
        <time>2023-07-19T08:29:17Z</time>
      </trkpt>
      <trkpt lat="49.83806" lon="2.49892">
        <ele>92.5</ele>
        <time>2023-07-19T08:29:18Z</time>
      </trkpt>
      <trkpt lat="49.83808" lon="2.4989">
        <ele>92.6</ele>
        <time>2023-07-19T08:29:19Z</time>
      </trkpt>
      <trkpt lat="49.83809" lon="2.49889">
        <ele>92.6</ele>
        <time>2023-07-19T08:29:20Z</time>
      </trkpt>
      <trkpt lat="49.83809" lon="2.49888">
        <ele>92.6</ele>
        <time>2023-07-19T08:29:21Z</time>
      </trkpt>
      <trkpt lat="49.83811" lon="2.49887">
        <ele>92.7</ele>
        <time>2023-07-19T08:29:22Z</time>
      </trkpt>
      <trkpt lat="49.83812" lon="2.49886">
        <ele>92.7</ele>
        <time>2023-07-19T08:29:24Z</time>
      </trkpt>
      <trkpt lat="49.83813" lon="2.49885">
        <ele>92.7</ele>
        <time>2023-07-19T08:29:25Z</time>
      </trkpt>
      <trkpt lat="49.83815" lon="2.49883">
        <ele>92.8</ele>
        <time>2023-07-19T08:29:26Z</time>
      </trkpt>
      <trkpt lat="49.83816" lon="2.49883">
        <ele>92.8</ele>
        <time>2023-07-19T08:29:27Z</time>
      </trkpt>
      <trkpt lat="49.83816" lon="2.49882">
        <ele>92.8</ele>
        <time>2023-07-19T08:29:28Z</time>
      </trkpt>
      <trkpt lat="49.83818" lon="2.49881">
        <ele>92.9</ele>
        <time>2023-07-19T08:29:29Z</time>
      </trkpt>
      <trkpt lat="49.8382" lon="2.4988">
        <ele>92.9</ele>
        <time>2023-07-19T08:29:31Z</time>
      </trkpt>
      <trkpt lat="49.83821" lon="2.4988">
        <ele>92.9</ele>
        <time>2023-07-19T08:29:33Z</time>
      </trkpt>
      <trkpt lat="49.83822" lon="2.49879">
        <ele>92.9</ele>
        <time>2023-07-19T08:29:34Z</time>
      </trkpt>
      <trkpt lat="49.83823" lon="2.49878">
        <ele>93</ele>
        <time>2023-07-19T08:29:35Z</time>
      </trkpt>
      <trkpt lat="49.83826" lon="2.49876">
        <ele>93</ele>
        <time>2023-07-19T08:29:36Z</time>
      </trkpt>
      <trkpt lat="49.83826" lon="2.49876">
        <ele>93</ele>
        <time>2023-07-19T08:29:37Z</time>
      </trkpt>
      <trkpt lat="49.83829" lon="2.49874">
        <ele>93.1</ele>
        <time>2023-07-19T08:29:38Z</time>
      </trkpt>
      <trkpt lat="49.8383" lon="2.49872">
        <ele>93.1</ele>
        <time>2023-07-19T08:29:40Z</time>
      </trkpt>
      <trkpt lat="49.83832" lon="2.49871">
        <ele>93.1</ele>
        <time>2023-07-19T08:29:41Z</time>
      </trkpt>
      <trkpt lat="49.83835" lon="2.49868">
        <ele>93.2</ele>
        <time>2023-07-19T08:29:43Z</time>
      </trkpt>
      <trkpt lat="49.83837" lon="2.49866">
        <ele>93.2</ele>
        <time>2023-07-19T08:29:44Z</time>
      </trkpt>
      <trkpt lat="49.83838" lon="2.49865">
        <ele>93.2</ele>
        <time>2023-07-19T08:29:45Z</time>
      </trkpt>
      <trkpt lat="49.83839" lon="2.49864">
        <ele>93.2</ele>
        <time>2023-07-19T08:29:46Z</time>
      </trkpt>
      <trkpt lat="49.83841" lon="2.49862">
        <ele>93.3</ele>
        <time>2023-07-19T08:29:48Z</time>
      </trkpt>
      <trkpt lat="49.83842" lon="2.49861">
        <ele>93.3</ele>
        <time>2023-07-19T08:29:49Z</time>
      </trkpt>
      <trkpt lat="49.83843" lon="2.49859">
        <ele>93.3</ele>
        <time>2023-07-19T08:29:50Z</time>
      </trkpt>
      <trkpt lat="49.83844" lon="2.49858">
        <ele>93.3</ele>
        <time>2023-07-19T08:29:51Z</time>
      </trkpt>
      <trkpt lat="49.83845" lon="2.49856">
        <ele>93.4</ele>
        <time>2023-07-19T08:29:52Z</time>
      </trkpt>
      <trkpt lat="49.83847" lon="2.49854">
        <ele>93.4</ele>
        <time>2023-07-19T08:29:54Z</time>
      </trkpt>
      <trkpt lat="49.83847" lon="2.49853">
        <ele>93.4</ele>
        <time>2023-07-19T08:29:55Z</time>
      </trkpt>
      <trkpt lat="49.83848" lon="2.49852">
        <ele>93.4</ele>
        <time>2023-07-19T08:29:56Z</time>
      </trkpt>
      <trkpt lat="49.83849" lon="2.4985">
        <ele>93.4</ele>
        <time>2023-07-19T08:29:57Z</time>
      </trkpt>
      <trkpt lat="49.8385" lon="2.49848">
        <ele>93.4</ele>
        <time>2023-07-19T08:29:58Z</time>
      </trkpt>
      <trkpt lat="49.83851" lon="2.49846">
        <ele>93.5</ele>
        <time>2023-07-19T08:29:59Z</time>
      </trkpt>
      <trkpt lat="49.83852" lon="2.49845">
        <ele>93.5</ele>
        <time>2023-07-19T08:30:00Z</time>
      </trkpt>
      <trkpt lat="49.83853" lon="2.49844">
        <ele>93.5</ele>
        <time>2023-07-19T08:30:01Z</time>
      </trkpt>
      <trkpt lat="49.83853" lon="2.49843">
        <ele>93.5</ele>
        <time>2023-07-19T08:30:03Z</time>
      </trkpt>
      <trkpt lat="49.83854" lon="2.49841">
        <ele>93.5</ele>
        <time>2023-07-19T08:30:04Z</time>
      </trkpt>
      <trkpt lat="49.83857" lon="2.49838">
        <ele>93.6</ele>
        <time>2023-07-19T08:30:06Z</time>
      </trkpt>
      <trkpt lat="49.83857" lon="2.49837">
        <ele>93.6</ele>
        <time>2023-07-19T08:30:07Z</time>
      </trkpt>
      <trkpt lat="49.83859" lon="2.49835">
        <ele>93.6</ele>
        <time>2023-07-19T08:30:08Z</time>
      </trkpt>
      <trkpt lat="49.8386" lon="2.49833">
        <ele>93.6</ele>
        <time>2023-07-19T08:30:10Z</time>
      </trkpt>
      <trkpt lat="49.83861" lon="2.49832">
        <ele>93.7</ele>
        <time>2023-07-19T08:30:11Z</time>
      </trkpt>
      <trkpt lat="49.83862" lon="2.4983">
        <ele>93.7</ele>
        <time>2023-07-19T08:30:13Z</time>
      </trkpt>
      <trkpt lat="49.83863" lon="2.49828">
        <ele>93.7</ele>
        <time>2023-07-19T08:30:14Z</time>
      </trkpt>
      <trkpt lat="49.83864" lon="2.49827">
        <ele>93.7</ele>
        <time>2023-07-19T08:30:15Z</time>
      </trkpt>
      <trkpt lat="49.83865" lon="2.49826">
        <ele>93.7</ele>
        <time>2023-07-19T08:30:16Z</time>
      </trkpt>
      <trkpt lat="49.83865" lon="2.49825">
        <ele>93.8</ele>
        <time>2023-07-19T08:30:18Z</time>
      </trkpt>
      <trkpt lat="49.83866" lon="2.49824">
        <ele>93.8</ele>
        <time>2023-07-19T08:30:19Z</time>
      </trkpt>
      <trkpt lat="49.83867" lon="2.49822">
        <ele>93.8</ele>
        <time>2023-07-19T08:30:20Z</time>
      </trkpt>
      <trkpt lat="49.83869" lon="2.4982">
        <ele>93.8</ele>
        <time>2023-07-19T08:30:21Z</time>
      </trkpt>
      <trkpt lat="49.8387" lon="2.49819">
        <ele>93.8</ele>
        <time>2023-07-19T08:30:22Z</time>
      </trkpt>
      <trkpt lat="49.8387" lon="2.49819">
        <ele>93.8</ele>
        <time>2023-07-19T08:30:23Z</time>
      </trkpt>
      <trkpt lat="49.83872" lon="2.49817">
        <ele>93.9</ele>
        <time>2023-07-19T08:30:24Z</time>
      </trkpt>
      <trkpt lat="49.83873" lon="2.49816">
        <ele>93.9</ele>
        <time>2023-07-19T08:30:25Z</time>
      </trkpt>
      <trkpt lat="49.83874" lon="2.49815">
        <ele>93.9</ele>
        <time>2023-07-19T08:30:26Z</time>
      </trkpt>
      <trkpt lat="49.83874" lon="2.49814">
        <ele>93.9</ele>
        <time>2023-07-19T08:30:27Z</time>
      </trkpt>
      <trkpt lat="49.83875" lon="2.49813">
        <ele>93.9</ele>
        <time>2023-07-19T08:30:29Z</time>
      </trkpt>
      <trkpt lat="49.83876" lon="2.49811">
        <ele>93.9</ele>
        <time>2023-07-19T08:30:30Z</time>
      </trkpt>
      <trkpt lat="49.83877" lon="2.49809">
        <ele>94</ele>
        <time>2023-07-19T08:30:31Z</time>
      </trkpt>
      <trkpt lat="49.83878" lon="2.49808">
        <ele>94</ele>
        <time>2023-07-19T08:30:32Z</time>
      </trkpt>
      <trkpt lat="49.83879" lon="2.49807">
        <ele>94</ele>
        <time>2023-07-19T08:30:33Z</time>
      </trkpt>
      <trkpt lat="49.8388" lon="2.49805">
        <ele>94</ele>
        <time>2023-07-19T08:30:34Z</time>
      </trkpt>
      <trkpt lat="49.83881" lon="2.49804">
        <ele>94</ele>
        <time>2023-07-19T08:30:35Z</time>
      </trkpt>
      <trkpt lat="49.83882" lon="2.49803">
        <ele>94</ele>
        <time>2023-07-19T08:30:36Z</time>
      </trkpt>
      <trkpt lat="49.83883" lon="2.49802">
        <ele>94</ele>
        <time>2023-07-19T08:30:37Z</time>
      </trkpt>
      <trkpt lat="49.83884" lon="2.49801">
        <ele>94.1</ele>
        <time>2023-07-19T08:30:38Z</time>
      </trkpt>
      <trkpt lat="49.83885" lon="2.49799">
        <ele>94.1</ele>
        <time>2023-07-19T08:30:40Z</time>
      </trkpt>
      <trkpt lat="49.83886" lon="2.49798">
        <ele>94.1</ele>
        <time>2023-07-19T08:30:41Z</time>
      </trkpt>
      <trkpt lat="49.83887" lon="2.49796">
        <ele>94.1</ele>
        <time>2023-07-19T08:30:42Z</time>
      </trkpt>
      <trkpt lat="49.83888" lon="2.49795">
        <ele>94.1</ele>
        <time>2023-07-19T08:30:43Z</time>
      </trkpt>
      <trkpt lat="49.83889" lon="2.49794">
        <ele>94.2</ele>
        <time>2023-07-19T08:30:44Z</time>
      </trkpt>
      <trkpt lat="49.8389" lon="2.49793">
        <ele>94.2</ele>
        <time>2023-07-19T08:30:45Z</time>
      </trkpt>
      <trkpt lat="49.83891" lon="2.49792">
        <ele>94.2</ele>
        <time>2023-07-19T08:30:46Z</time>
      </trkpt>
      <trkpt lat="49.83893" lon="2.4979">
        <ele>94.2</ele>
        <time>2023-07-19T08:30:48Z</time>
      </trkpt>
      <trkpt lat="49.83894" lon="2.49788">
        <ele>94.3</ele>
        <time>2023-07-19T08:30:49Z</time>
      </trkpt>
      <trkpt lat="49.83896" lon="2.49787">
        <ele>94.3</ele>
        <time>2023-07-19T08:30:51Z</time>
      </trkpt>
      <trkpt lat="49.83898" lon="2.49785">
        <ele>94.3</ele>
        <time>2023-07-19T08:30:52Z</time>
      </trkpt>
      <trkpt lat="49.83899" lon="2.49783">
        <ele>94.3</ele>
        <time>2023-07-19T08:30:54Z</time>
      </trkpt>
      <trkpt lat="49.839" lon="2.49782">
        <ele>94.4</ele>
        <time>2023-07-19T08:30:55Z</time>
      </trkpt>
      <trkpt lat="49.83901" lon="2.49781">
        <ele>94.4</ele>
        <time>2023-07-19T08:30:56Z</time>
      </trkpt>
      <trkpt lat="49.83903" lon="2.49779">
        <ele>94.4</ele>
        <time>2023-07-19T08:30:57Z</time>
      </trkpt>
      <trkpt lat="49.83904" lon="2.49778">
        <ele>94.4</ele>
        <time>2023-07-19T08:30:58Z</time>
      </trkpt>
      <trkpt lat="49.83905" lon="2.49778">
        <ele>94.4</ele>
        <time>2023-07-19T08:30:59Z</time>
      </trkpt>
      <trkpt lat="49.83906" lon="2.49776">
        <ele>94.5</ele>
        <time>2023-07-19T08:31:01Z</time>
      </trkpt>
      <trkpt lat="49.83907" lon="2.49775">
        <ele>94.5</ele>
        <time>2023-07-19T08:31:02Z</time>
      </trkpt>
      <trkpt lat="49.83909" lon="2.49773">
        <ele>94.5</ele>
        <time>2023-07-19T08:31:04Z</time>
      </trkpt>
      <trkpt lat="49.8391" lon="2.49772">
        <ele>94.6</ele>
        <time>2023-07-19T08:31:05Z</time>
      </trkpt>
      <trkpt lat="49.83911" lon="2.49771">
        <ele>94.6</ele>
        <time>2023-07-19T08:31:06Z</time>
      </trkpt>
      <trkpt lat="49.83912" lon="2.49771">
        <ele>94.6</ele>
        <time>2023-07-19T08:31:07Z</time>
      </trkpt>
      <trkpt lat="49.83912" lon="2.49769">
        <ele>94.6</ele>
        <time>2023-07-19T08:31:09Z</time>
      </trkpt>
      <trkpt lat="49.83914" lon="2.49767">
        <ele>94.7</ele>
        <time>2023-07-19T08:31:10Z</time>
      </trkpt>
      <trkpt lat="49.83915" lon="2.49766">
        <ele>94.7</ele>
        <time>2023-07-19T08:31:11Z</time>
      </trkpt>
      <trkpt lat="49.83916" lon="2.49765">
        <ele>94.7</ele>
        <time>2023-07-19T08:31:13Z</time>
      </trkpt>
      <trkpt lat="49.83917" lon="2.49764">
        <ele>94.7</ele>
        <time>2023-07-19T08:31:14Z</time>
      </trkpt>
      <trkpt lat="49.83918" lon="2.49762">
        <ele>94.8</ele>
        <time>2023-07-19T08:31:15Z</time>
      </trkpt>
      <trkpt lat="49.83919" lon="2.49761">
        <ele>94.8</ele>
        <time>2023-07-19T08:31:16Z</time>
      </trkpt>
      <trkpt lat="49.8392" lon="2.4976">
        <ele>94.8</ele>
        <time>2023-07-19T08:31:18Z</time>
      </trkpt>
      <trkpt lat="49.83921" lon="2.49759">
        <ele>94.8</ele>
        <time>2023-07-19T08:31:19Z</time>
      </trkpt>
      <trkpt lat="49.83923" lon="2.49757">
        <ele>94.9</ele>
        <time>2023-07-19T08:31:20Z</time>
      </trkpt>
      <trkpt lat="49.83923" lon="2.49755">
        <ele>94.9</ele>
        <time>2023-07-19T08:31:21Z</time>
      </trkpt>
      <trkpt lat="49.83924" lon="2.49754">
        <ele>94.9</ele>
        <time>2023-07-19T08:31:23Z</time>
      </trkpt>
      <trkpt lat="49.83925" lon="2.49753">
        <ele>94.9</ele>
        <time>2023-07-19T08:31:24Z</time>
      </trkpt>
      <trkpt lat="49.83926" lon="2.49752">
        <ele>94.9</ele>
        <time>2023-07-19T08:31:25Z</time>
      </trkpt>
      <trkpt lat="49.83926" lon="2.49751">
        <ele>94.9</ele>
        <time>2023-07-19T08:31:27Z</time>
      </trkpt>
      <trkpt lat="49.83927" lon="2.4975">
        <ele>94.9</ele>
        <time>2023-07-19T08:31:28Z</time>
      </trkpt>
      <trkpt lat="49.83928" lon="2.49749">
        <ele>95</ele>
        <time>2023-07-19T08:31:29Z</time>
      </trkpt>
      <trkpt lat="49.83929" lon="2.49748">
        <ele>95</ele>
        <time>2023-07-19T08:31:30Z</time>
      </trkpt>
      <trkpt lat="49.8393" lon="2.49747">
        <ele>95</ele>
        <time>2023-07-19T08:31:31Z</time>
      </trkpt>
      <trkpt lat="49.83931" lon="2.49745">
        <ele>95</ele>
        <time>2023-07-19T08:31:32Z</time>
      </trkpt>
      <trkpt lat="49.83932" lon="2.49745">
        <ele>95</ele>
        <time>2023-07-19T08:31:33Z</time>
      </trkpt>
      <trkpt lat="49.83933" lon="2.49744">
        <ele>95</ele>
        <time>2023-07-19T08:31:34Z</time>
      </trkpt>
      <trkpt lat="49.83934" lon="2.49743">
        <ele>95</ele>
        <time>2023-07-19T08:31:36Z</time>
      </trkpt>
      <trkpt lat="49.83934" lon="2.49742">
        <ele>95.1</ele>
        <time>2023-07-19T08:31:37Z</time>
      </trkpt>
      <trkpt lat="49.83935" lon="2.49741">
        <ele>95.1</ele>
        <time>2023-07-19T08:31:38Z</time>
      </trkpt>
      <trkpt lat="49.83936" lon="2.49741">
        <ele>95.1</ele>
        <time>2023-07-19T08:31:39Z</time>
      </trkpt>
      <trkpt lat="49.83937" lon="2.4974">
        <ele>95.1</ele>
        <time>2023-07-19T08:31:40Z</time>
      </trkpt>
      <trkpt lat="49.83938" lon="2.49738">
        <ele>95.1</ele>
        <time>2023-07-19T08:31:41Z</time>
      </trkpt>
      <trkpt lat="49.8394" lon="2.49736">
        <ele>95.1</ele>
        <time>2023-07-19T08:31:42Z</time>
      </trkpt>
      <trkpt lat="49.83941" lon="2.49735">
        <ele>95.2</ele>
        <time>2023-07-19T08:31:44Z</time>
      </trkpt>
      <trkpt lat="49.83942" lon="2.49735">
        <ele>95.2</ele>
        <time>2023-07-19T08:31:45Z</time>
      </trkpt>
      <trkpt lat="49.83944" lon="2.49733">
        <ele>95.2</ele>
        <time>2023-07-19T08:31:46Z</time>
      </trkpt>
      <trkpt lat="49.83945" lon="2.49732">
        <ele>95.2</ele>
        <time>2023-07-19T08:31:48Z</time>
      </trkpt>
      <trkpt lat="49.83945" lon="2.49731">
        <ele>95.2</ele>
        <time>2023-07-19T08:31:49Z</time>
      </trkpt>
      <trkpt lat="49.83947" lon="2.49729">
        <ele>95.3</ele>
        <time>2023-07-19T08:31:50Z</time>
      </trkpt>
      <trkpt lat="49.83948" lon="2.49729">
        <ele>95.3</ele>
        <time>2023-07-19T08:31:51Z</time>
      </trkpt>
      <trkpt lat="49.83949" lon="2.49728">
        <ele>95.3</ele>
        <time>2023-07-19T08:31:52Z</time>
      </trkpt>
      <trkpt lat="49.8395" lon="2.49727">
        <ele>95.3</ele>
        <time>2023-07-19T08:31:53Z</time>
      </trkpt>
      <trkpt lat="49.83951" lon="2.49726">
        <ele>95.3</ele>
        <time>2023-07-19T08:31:55Z</time>
      </trkpt>
      <trkpt lat="49.83953" lon="2.49723">
        <ele>95.4</ele>
        <time>2023-07-19T08:31:57Z</time>
      </trkpt>
      <trkpt lat="49.83954" lon="2.49722">
        <ele>95.4</ele>
        <time>2023-07-19T08:31:59Z</time>
      </trkpt>
      <trkpt lat="49.83955" lon="2.49721">
        <ele>95.4</ele>
        <time>2023-07-19T08:32:00Z</time>
      </trkpt>
      <trkpt lat="49.83955" lon="2.49719">
        <ele>95.4</ele>
        <time>2023-07-19T08:32:01Z</time>
      </trkpt>
      <trkpt lat="49.83957" lon="2.49717">
        <ele>95.5</ele>
        <time>2023-07-19T08:32:02Z</time>
      </trkpt>
      <trkpt lat="49.83958" lon="2.49716">
        <ele>95.5</ele>
        <time>2023-07-19T08:32:03Z</time>
      </trkpt>
      <trkpt lat="49.83959" lon="2.49715">
        <ele>95.5</ele>
        <time>2023-07-19T08:32:05Z</time>
      </trkpt>
      <trkpt lat="49.83959" lon="2.49714">
        <ele>95.5</ele>
        <time>2023-07-19T08:32:06Z</time>
      </trkpt>
      <trkpt lat="49.8396" lon="2.49713">
        <ele>95.5</ele>
        <time>2023-07-19T08:32:07Z</time>
      </trkpt>
      <trkpt lat="49.83961" lon="2.49712">
        <ele>95.5</ele>
        <time>2023-07-19T08:32:08Z</time>
      </trkpt>
      <trkpt lat="49.83963" lon="2.49711">
        <ele>95.5</ele>
        <time>2023-07-19T08:32:09Z</time>
      </trkpt>
      <trkpt lat="49.83963" lon="2.4971">
        <ele>95.6</ele>
        <time>2023-07-19T08:32:10Z</time>
      </trkpt>
      <trkpt lat="49.83964" lon="2.49709">
        <ele>95.6</ele>
        <time>2023-07-19T08:32:11Z</time>
      </trkpt>
      <trkpt lat="49.83966" lon="2.49707">
        <ele>95.6</ele>
        <time>2023-07-19T08:32:12Z</time>
      </trkpt>
      <trkpt lat="49.83966" lon="2.49706">
        <ele>95.6</ele>
        <time>2023-07-19T08:32:14Z</time>
      </trkpt>
      <trkpt lat="49.83967" lon="2.49705">
        <ele>95.6</ele>
        <time>2023-07-19T08:32:15Z</time>
      </trkpt>
      <trkpt lat="49.83969" lon="2.49703">
        <ele>95.6</ele>
        <time>2023-07-19T08:32:16Z</time>
      </trkpt>
      <trkpt lat="49.83969" lon="2.49702">
        <ele>95.6</ele>
        <time>2023-07-19T08:32:17Z</time>
      </trkpt>
      <trkpt lat="49.8397" lon="2.49701">
        <ele>95.6</ele>
        <time>2023-07-19T08:32:18Z</time>
      </trkpt>
      <trkpt lat="49.83971" lon="2.49698">
        <ele>95.7</ele>
        <time>2023-07-19T08:32:19Z</time>
      </trkpt>
      <trkpt lat="49.83972" lon="2.49697">
        <ele>95.7</ele>
        <time>2023-07-19T08:32:20Z</time>
      </trkpt>
      <trkpt lat="49.83972" lon="2.49696">
        <ele>95.7</ele>
        <time>2023-07-19T08:32:21Z</time>
      </trkpt>
      <trkpt lat="49.83973" lon="2.49695">
        <ele>95.7</ele>
        <time>2023-07-19T08:32:22Z</time>
      </trkpt>
      <trkpt lat="49.83974" lon="2.49693">
        <ele>95.7</ele>
        <time>2023-07-19T08:32:23Z</time>
      </trkpt>
      <trkpt lat="49.83975" lon="2.49692">
        <ele>95.8</ele>
        <time>2023-07-19T08:32:25Z</time>
      </trkpt>
      <trkpt lat="49.83976" lon="2.4969">
        <ele>95.8</ele>
        <time>2023-07-19T08:32:26Z</time>
      </trkpt>
      <trkpt lat="49.83978" lon="2.49687">
        <ele>95.8</ele>
        <time>2023-07-19T08:32:27Z</time>
      </trkpt>
      <trkpt lat="49.83979" lon="2.49686">
        <ele>95.8</ele>
        <time>2023-07-19T08:32:29Z</time>
      </trkpt>
      <trkpt lat="49.8398" lon="2.49684">
        <ele>95.8</ele>
        <time>2023-07-19T08:32:30Z</time>
      </trkpt>
      <trkpt lat="49.8398" lon="2.49683">
        <ele>95.8</ele>
        <time>2023-07-19T08:32:32Z</time>
      </trkpt>
      <trkpt lat="49.83981" lon="2.49682">
        <ele>95.9</ele>
        <time>2023-07-19T08:32:33Z</time>
      </trkpt>
      <trkpt lat="49.83983" lon="2.4968">
        <ele>95.9</ele>
        <time>2023-07-19T08:32:34Z</time>
      </trkpt>
      <trkpt lat="49.83984" lon="2.49679">
        <ele>95.9</ele>
        <time>2023-07-19T08:32:35Z</time>
      </trkpt>
      <trkpt lat="49.83984" lon="2.49678">
        <ele>95.9</ele>
        <time>2023-07-19T08:32:36Z</time>
      </trkpt>
      <trkpt lat="49.83986" lon="2.49676">
        <ele>95.9</ele>
        <time>2023-07-19T08:32:37Z</time>
      </trkpt>
      <trkpt lat="49.83987" lon="2.49675">
        <ele>95.9</ele>
        <time>2023-07-19T08:32:39Z</time>
      </trkpt>
      <trkpt lat="49.83988" lon="2.49674">
        <ele>95.9</ele>
        <time>2023-07-19T08:32:40Z</time>
      </trkpt>
      <trkpt lat="49.83989" lon="2.49673">
        <ele>95.9</ele>
        <time>2023-07-19T08:32:42Z</time>
      </trkpt>
      <trkpt lat="49.83989" lon="2.49672">
        <ele>95.9</ele>
        <time>2023-07-19T08:32:43Z</time>
      </trkpt>
      <trkpt lat="49.83991" lon="2.4967">
        <ele>96</ele>
        <time>2023-07-19T08:32:45Z</time>
      </trkpt>
      <trkpt lat="49.83992" lon="2.49669">
        <ele>96</ele>
        <time>2023-07-19T08:32:46Z</time>
      </trkpt>
      <trkpt lat="49.83994" lon="2.49666">
        <ele>96</ele>
        <time>2023-07-19T08:32:48Z</time>
      </trkpt>
      <trkpt lat="49.83995" lon="2.49665">
        <ele>96</ele>
        <time>2023-07-19T08:32:49Z</time>
      </trkpt>
      <trkpt lat="49.83997" lon="2.49663">
        <ele>96</ele>
        <time>2023-07-19T08:32:51Z</time>
      </trkpt>
      <trkpt lat="49.83998" lon="2.49662">
        <ele>96</ele>
        <time>2023-07-19T08:32:52Z</time>
      </trkpt>
      <trkpt lat="49.83998" lon="2.49662">
        <ele>96</ele>
        <time>2023-07-19T08:32:53Z</time>
      </trkpt>
      <trkpt lat="49.84" lon="2.4966">
        <ele>96.1</ele>
        <time>2023-07-19T08:32:55Z</time>
      </trkpt>
      <trkpt lat="49.84001" lon="2.49658">
        <ele>96.1</ele>
        <time>2023-07-19T08:32:56Z</time>
      </trkpt>
      <trkpt lat="49.84004" lon="2.49655">
        <ele>96.1</ele>
        <time>2023-07-19T08:32:58Z</time>
      </trkpt>
      <trkpt lat="49.84005" lon="2.49654">
        <ele>96.1</ele>
        <time>2023-07-19T08:32:59Z</time>
      </trkpt>
      <trkpt lat="49.84006" lon="2.49654">
        <ele>96.1</ele>
        <time>2023-07-19T08:33:01Z</time>
      </trkpt>
      <trkpt lat="49.84007" lon="2.49653">
        <ele>96.1</ele>
        <time>2023-07-19T08:33:02Z</time>
      </trkpt>
      <trkpt lat="49.84009" lon="2.4965">
        <ele>96.1</ele>
        <time>2023-07-19T08:33:04Z</time>
      </trkpt>
      <trkpt lat="49.8401" lon="2.49649">
        <ele>96.2</ele>
        <time>2023-07-19T08:33:05Z</time>
      </trkpt>
      <trkpt lat="49.84011" lon="2.49648">
        <ele>96.2</ele>
        <time>2023-07-19T08:33:06Z</time>
      </trkpt>
      <trkpt lat="49.84013" lon="2.49647">
        <ele>96.2</ele>
        <time>2023-07-19T08:33:07Z</time>
      </trkpt>
      <trkpt lat="49.84014" lon="2.49646">
        <ele>96.2</ele>
        <time>2023-07-19T08:33:08Z</time>
      </trkpt>
      <trkpt lat="49.84015" lon="2.49646">
        <ele>96.2</ele>
        <time>2023-07-19T08:33:10Z</time>
      </trkpt>
      <trkpt lat="49.84016" lon="2.49645">
        <ele>96.2</ele>
        <time>2023-07-19T08:33:11Z</time>
      </trkpt>
      <trkpt lat="49.84017" lon="2.49644">
        <ele>96.2</ele>
        <time>2023-07-19T08:33:12Z</time>
      </trkpt>
      <trkpt lat="49.84018" lon="2.49643">
        <ele>96.2</ele>
        <time>2023-07-19T08:33:13Z</time>
      </trkpt>
      <trkpt lat="49.8402" lon="2.49641">
        <ele>96.2</ele>
        <time>2023-07-19T08:33:14Z</time>
      </trkpt>
      <trkpt lat="49.84021" lon="2.4964">
        <ele>96.2</ele>
        <time>2023-07-19T08:33:15Z</time>
      </trkpt>
      <trkpt lat="49.84022" lon="2.49639">
        <ele>96.3</ele>
        <time>2023-07-19T08:33:16Z</time>
      </trkpt>
      <trkpt lat="49.84023" lon="2.49638">
        <ele>96.3</ele>
        <time>2023-07-19T08:33:18Z</time>
      </trkpt>
      <trkpt lat="49.84024" lon="2.49637">
        <ele>96.3</ele>
        <time>2023-07-19T08:33:19Z</time>
      </trkpt>
      <trkpt lat="49.84025" lon="2.49636">
        <ele>96.3</ele>
        <time>2023-07-19T08:33:20Z</time>
      </trkpt>
      <trkpt lat="49.84026" lon="2.49635">
        <ele>96.3</ele>
        <time>2023-07-19T08:33:21Z</time>
      </trkpt>
      <trkpt lat="49.84026" lon="2.49634">
        <ele>96.3</ele>
        <time>2023-07-19T08:33:22Z</time>
      </trkpt>
      <trkpt lat="49.84027" lon="2.49633">
        <ele>96.3</ele>
        <time>2023-07-19T08:33:23Z</time>
      </trkpt>
      <trkpt lat="49.84028" lon="2.49631">
        <ele>96.3</ele>
        <time>2023-07-19T08:33:24Z</time>
      </trkpt>
      <trkpt lat="49.84029" lon="2.4963">
        <ele>96.3</ele>
        <time>2023-07-19T08:33:25Z</time>
      </trkpt>
      <trkpt lat="49.8403" lon="2.49628">
        <ele>96.3</ele>
        <time>2023-07-19T08:33:27Z</time>
      </trkpt>
      <trkpt lat="49.84031" lon="2.49627">
        <ele>96.3</ele>
        <time>2023-07-19T08:33:29Z</time>
      </trkpt>
      <trkpt lat="49.84032" lon="2.49625">
        <ele>96.3</ele>
        <time>2023-07-19T08:33:30Z</time>
      </trkpt>
      <trkpt lat="49.84034" lon="2.49623">
        <ele>96.3</ele>
        <time>2023-07-19T08:33:31Z</time>
      </trkpt>
      <trkpt lat="49.84034" lon="2.49622">
        <ele>96.3</ele>
        <time>2023-07-19T08:33:32Z</time>
      </trkpt>
      <trkpt lat="49.84035" lon="2.49621">
        <ele>96.3</ele>
        <time>2023-07-19T08:33:33Z</time>
      </trkpt>
      <trkpt lat="49.84037" lon="2.49618">
        <ele>96.3</ele>
        <time>2023-07-19T08:33:34Z</time>
      </trkpt>
      <trkpt lat="49.84038" lon="2.49617">
        <ele>96.3</ele>
        <time>2023-07-19T08:33:36Z</time>
      </trkpt>
      <trkpt lat="49.84039" lon="2.49615">
        <ele>96.3</ele>
        <time>2023-07-19T08:33:37Z</time>
      </trkpt>
      <trkpt lat="49.8404" lon="2.49614">
        <ele>96.3</ele>
        <time>2023-07-19T08:33:39Z</time>
      </trkpt>
      <trkpt lat="49.84041" lon="2.49612">
        <ele>96.3</ele>
        <time>2023-07-19T08:33:40Z</time>
      </trkpt>
      <trkpt lat="49.84042" lon="2.49611">
        <ele>96.3</ele>
        <time>2023-07-19T08:33:41Z</time>
      </trkpt>
      <trkpt lat="49.84044" lon="2.49609">
        <ele>96.3</ele>
        <time>2023-07-19T08:33:43Z</time>
      </trkpt>
      <trkpt lat="49.84045" lon="2.49607">
        <ele>96.3</ele>
        <time>2023-07-19T08:33:44Z</time>
      </trkpt>
      <trkpt lat="49.84046" lon="2.49605">
        <ele>96.3</ele>
        <time>2023-07-19T08:33:46Z</time>
      </trkpt>
      <trkpt lat="49.84047" lon="2.49604">
        <ele>96.3</ele>
        <time>2023-07-19T08:33:47Z</time>
      </trkpt>
      <trkpt lat="49.84048" lon="2.49603">
        <ele>96.3</ele>
        <time>2023-07-19T08:33:48Z</time>
      </trkpt>
      <trkpt lat="49.8405" lon="2.496">
        <ele>96.4</ele>
        <time>2023-07-19T08:33:50Z</time>
      </trkpt>
      <trkpt lat="49.84051" lon="2.49599">
        <ele>96.4</ele>
        <time>2023-07-19T08:33:51Z</time>
      </trkpt>
      <trkpt lat="49.84053" lon="2.49597">
        <ele>96.4</ele>
        <time>2023-07-19T08:33:53Z</time>
      </trkpt>
      <trkpt lat="49.84054" lon="2.49596">
        <ele>96.4</ele>
        <time>2023-07-19T08:33:54Z</time>
      </trkpt>
      <trkpt lat="49.84055" lon="2.49595">
        <ele>96.4</ele>
        <time>2023-07-19T08:33:56Z</time>
      </trkpt>
      <trkpt lat="49.84056" lon="2.49594">
        <ele>96.4</ele>
        <time>2023-07-19T08:33:57Z</time>
      </trkpt>
      <trkpt lat="49.84057" lon="2.49593">
        <ele>96.4</ele>
        <time>2023-07-19T08:33:58Z</time>
      </trkpt>
      <trkpt lat="49.84058" lon="2.49592">
        <ele>96.4</ele>
        <time>2023-07-19T08:33:59Z</time>
      </trkpt>
      <trkpt lat="49.84059" lon="2.49591">
        <ele>96.4</ele>
        <time>2023-07-19T08:34:00Z</time>
      </trkpt>
      <trkpt lat="49.84061" lon="2.49589">
        <ele>96.4</ele>
        <time>2023-07-19T08:34:01Z</time>
      </trkpt>
      <trkpt lat="49.84061" lon="2.49588">
        <ele>96.4</ele>
        <time>2023-07-19T08:34:02Z</time>
      </trkpt>
      <trkpt lat="49.84062" lon="2.49587">
        <ele>96.4</ele>
        <time>2023-07-19T08:34:03Z</time>
      </trkpt>
      <trkpt lat="49.84063" lon="2.49586">
        <ele>96.4</ele>
        <time>2023-07-19T08:34:04Z</time>
      </trkpt>
      <trkpt lat="49.84064" lon="2.49586">
        <ele>96.4</ele>
        <time>2023-07-19T08:34:06Z</time>
      </trkpt>
      <trkpt lat="49.84065" lon="2.49585">
        <ele>96.4</ele>
        <time>2023-07-19T08:34:07Z</time>
      </trkpt>
      <trkpt lat="49.84066" lon="2.49583">
        <ele>96.5</ele>
        <time>2023-07-19T08:34:08Z</time>
      </trkpt>
      <trkpt lat="49.84068" lon="2.49581">
        <ele>96.5</ele>
        <time>2023-07-19T08:34:10Z</time>
      </trkpt>
      <trkpt lat="49.84069" lon="2.49581">
        <ele>96.5</ele>
        <time>2023-07-19T08:34:11Z</time>
      </trkpt>
      <trkpt lat="49.84071" lon="2.4958">
        <ele>96.5</ele>
        <time>2023-07-19T08:34:13Z</time>
      </trkpt>
      <trkpt lat="49.84072" lon="2.49578">
        <ele>96.5</ele>
        <time>2023-07-19T08:34:14Z</time>
      </trkpt>
      <trkpt lat="49.84074" lon="2.49577">
        <ele>96.5</ele>
        <time>2023-07-19T08:34:16Z</time>
      </trkpt>
      <trkpt lat="49.84075" lon="2.49576">
        <ele>96.5</ele>
        <time>2023-07-19T08:34:17Z</time>
      </trkpt>
      <trkpt lat="49.84076" lon="2.49575">
        <ele>96.5</ele>
        <time>2023-07-19T08:34:18Z</time>
      </trkpt>
      <trkpt lat="49.84077" lon="2.49574">
        <ele>96.5</ele>
        <time>2023-07-19T08:34:19Z</time>
      </trkpt>
      <trkpt lat="49.84078" lon="2.49573">
        <ele>96.5</ele>
        <time>2023-07-19T08:34:20Z</time>
      </trkpt>
      <trkpt lat="49.8408" lon="2.4957">
        <ele>96.5</ele>
        <time>2023-07-19T08:34:21Z</time>
      </trkpt>
      <trkpt lat="49.84082" lon="2.49569">
        <ele>96.5</ele>
        <time>2023-07-19T08:34:24Z</time>
      </trkpt>
      <trkpt lat="49.84083" lon="2.49568">
        <ele>96.5</ele>
        <time>2023-07-19T08:34:26Z</time>
      </trkpt>
      <trkpt lat="49.84084" lon="2.49567">
        <ele>96.5</ele>
        <time>2023-07-19T08:34:27Z</time>
      </trkpt>
      <trkpt lat="49.84085" lon="2.49565">
        <ele>96.5</ele>
        <time>2023-07-19T08:34:28Z</time>
      </trkpt>
      <trkpt lat="49.84087" lon="2.49564">
        <ele>96.5</ele>
        <time>2023-07-19T08:34:29Z</time>
      </trkpt>
      <trkpt lat="49.84088" lon="2.49562">
        <ele>96.5</ele>
        <time>2023-07-19T08:34:31Z</time>
      </trkpt>
      <trkpt lat="49.84089" lon="2.49561">
        <ele>96.5</ele>
        <time>2023-07-19T08:34:32Z</time>
      </trkpt>
      <trkpt lat="49.8409" lon="2.4956">
        <ele>96.5</ele>
        <time>2023-07-19T08:34:34Z</time>
      </trkpt>
      <trkpt lat="49.84091" lon="2.49559">
        <ele>96.5</ele>
        <time>2023-07-19T08:34:35Z</time>
      </trkpt>
      <trkpt lat="49.84092" lon="2.49558">
        <ele>96.5</ele>
        <time>2023-07-19T08:34:36Z</time>
      </trkpt>
      <trkpt lat="49.84093" lon="2.49557">
        <ele>96.5</ele>
        <time>2023-07-19T08:34:37Z</time>
      </trkpt>
      <trkpt lat="49.84094" lon="2.49556">
        <ele>96.5</ele>
        <time>2023-07-19T08:34:38Z</time>
      </trkpt>
      <trkpt lat="49.84095" lon="2.49555">
        <ele>96.5</ele>
        <time>2023-07-19T08:34:39Z</time>
      </trkpt>
      <trkpt lat="49.84096" lon="2.49553">
        <ele>96.5</ele>
        <time>2023-07-19T08:34:40Z</time>
      </trkpt>
      <trkpt lat="49.84097" lon="2.49552">
        <ele>96.5</ele>
        <time>2023-07-19T08:34:41Z</time>
      </trkpt>
      <trkpt lat="49.84098" lon="2.49551">
        <ele>96.5</ele>
        <time>2023-07-19T08:34:42Z</time>
      </trkpt>
      <trkpt lat="49.84099" lon="2.4955">
        <ele>96.5</ele>
        <time>2023-07-19T08:34:44Z</time>
      </trkpt>
      <trkpt lat="49.841" lon="2.49549">
        <ele>96.5</ele>
        <time>2023-07-19T08:34:45Z</time>
      </trkpt>
      <trkpt lat="49.84101" lon="2.49548">
        <ele>96.5</ele>
        <time>2023-07-19T08:34:46Z</time>
      </trkpt>
      <trkpt lat="49.84104" lon="2.49546">
        <ele>96.5</ele>
        <time>2023-07-19T08:34:48Z</time>
      </trkpt>
      <trkpt lat="49.84105" lon="2.49545">
        <ele>96.5</ele>
        <time>2023-07-19T08:34:49Z</time>
      </trkpt>
      <trkpt lat="49.84106" lon="2.49544">
        <ele>96.5</ele>
        <time>2023-07-19T08:34:50Z</time>
      </trkpt>
      <trkpt lat="49.84108" lon="2.49542">
        <ele>96.6</ele>
        <time>2023-07-19T08:34:51Z</time>
      </trkpt>
      <trkpt lat="49.84109" lon="2.49541">
        <ele>96.6</ele>
        <time>2023-07-19T08:34:53Z</time>
      </trkpt>
      <trkpt lat="49.8411" lon="2.49541">
        <ele>96.6</ele>
        <time>2023-07-19T08:34:54Z</time>
      </trkpt>
      <trkpt lat="49.84111" lon="2.4954">
        <ele>96.6</ele>
        <time>2023-07-19T08:34:55Z</time>
      </trkpt>
      <trkpt lat="49.84112" lon="2.49539">
        <ele>96.6</ele>
        <time>2023-07-19T08:34:56Z</time>
      </trkpt>
      <trkpt lat="49.84113" lon="2.49538">
        <ele>96.6</ele>
        <time>2023-07-19T08:34:57Z</time>
      </trkpt>
      <trkpt lat="49.84114" lon="2.49537">
        <ele>96.6</ele>
        <time>2023-07-19T08:34:58Z</time>
      </trkpt>
      <trkpt lat="49.84114" lon="2.49537">
        <ele>96.6</ele>
        <time>2023-07-19T08:34:59Z</time>
      </trkpt>
      <trkpt lat="49.84115" lon="2.49536">
        <ele>96.6</ele>
        <time>2023-07-19T08:35:00Z</time>
      </trkpt>
      <trkpt lat="49.84117" lon="2.49534">
        <ele>96.6</ele>
        <time>2023-07-19T08:35:02Z</time>
      </trkpt>
      <trkpt lat="49.84118" lon="2.49534">
        <ele>96.6</ele>
        <time>2023-07-19T08:35:03Z</time>
      </trkpt>
      <trkpt lat="49.84118" lon="2.49533">
        <ele>96.6</ele>
        <time>2023-07-19T08:35:04Z</time>
      </trkpt>
      <trkpt lat="49.8412" lon="2.49531">
        <ele>96.6</ele>
        <time>2023-07-19T08:35:06Z</time>
      </trkpt>
      <trkpt lat="49.84121" lon="2.4953">
        <ele>96.6</ele>
        <time>2023-07-19T08:35:07Z</time>
      </trkpt>
      <trkpt lat="49.84121" lon="2.49529">
        <ele>96.6</ele>
        <time>2023-07-19T08:35:08Z</time>
      </trkpt>
      <trkpt lat="49.84122" lon="2.49528">
        <ele>96.6</ele>
        <time>2023-07-19T08:35:10Z</time>
      </trkpt>
      <trkpt lat="49.84123" lon="2.49527">
        <ele>96.6</ele>
        <time>2023-07-19T08:35:11Z</time>
      </trkpt>
      <trkpt lat="49.84125" lon="2.49526">
        <ele>96.7</ele>
        <time>2023-07-19T08:35:12Z</time>
      </trkpt>
      <trkpt lat="49.84125" lon="2.49525">
        <ele>96.7</ele>
        <time>2023-07-19T08:35:14Z</time>
      </trkpt>
      <trkpt lat="49.84126" lon="2.49524">
        <ele>96.7</ele>
        <time>2023-07-19T08:35:15Z</time>
      </trkpt>
      <trkpt lat="49.84127" lon="2.49523">
        <ele>96.7</ele>
        <time>2023-07-19T08:35:16Z</time>
      </trkpt>
      <trkpt lat="49.84128" lon="2.49522">
        <ele>96.7</ele>
        <time>2023-07-19T08:35:17Z</time>
      </trkpt>
      <trkpt lat="49.84129" lon="2.49521">
        <ele>96.7</ele>
        <time>2023-07-19T08:35:18Z</time>
      </trkpt>
      <trkpt lat="49.8413" lon="2.4952">
        <ele>96.7</ele>
        <time>2023-07-19T08:35:19Z</time>
      </trkpt>
      <trkpt lat="49.84131" lon="2.49519">
        <ele>96.7</ele>
        <time>2023-07-19T08:35:20Z</time>
      </trkpt>
      <trkpt lat="49.84132" lon="2.49518">
        <ele>96.7</ele>
        <time>2023-07-19T08:35:21Z</time>
      </trkpt>
      <trkpt lat="49.84133" lon="2.49517">
        <ele>96.8</ele>
        <time>2023-07-19T08:35:22Z</time>
      </trkpt>
      <trkpt lat="49.84134" lon="2.49516">
        <ele>96.8</ele>
        <time>2023-07-19T08:35:24Z</time>
      </trkpt>
      <trkpt lat="49.84136" lon="2.49515">
        <ele>96.8</ele>
        <time>2023-07-19T08:35:25Z</time>
      </trkpt>
      <trkpt lat="49.84137" lon="2.49513">
        <ele>96.8</ele>
        <time>2023-07-19T08:35:26Z</time>
      </trkpt>
      <trkpt lat="49.84138" lon="2.49512">
        <ele>96.8</ele>
        <time>2023-07-19T08:35:27Z</time>
      </trkpt>
      <trkpt lat="49.84138" lon="2.49511">
        <ele>96.8</ele>
        <time>2023-07-19T08:35:28Z</time>
      </trkpt>
      <trkpt lat="49.84139" lon="2.4951">
        <ele>96.8</ele>
        <time>2023-07-19T08:35:30Z</time>
      </trkpt>
      <trkpt lat="49.8414" lon="2.49509">
        <ele>96.9</ele>
        <time>2023-07-19T08:35:31Z</time>
      </trkpt>
      <trkpt lat="49.84142" lon="2.49508">
        <ele>96.9</ele>
        <time>2023-07-19T08:35:33Z</time>
      </trkpt>
      <trkpt lat="49.84142" lon="2.49507">
        <ele>96.9</ele>
        <time>2023-07-19T08:35:34Z</time>
      </trkpt>
      <trkpt lat="49.84143" lon="2.49506">
        <ele>96.9</ele>
        <time>2023-07-19T08:35:35Z</time>
      </trkpt>
      <trkpt lat="49.84145" lon="2.49505">
        <ele>96.9</ele>
        <time>2023-07-19T08:35:36Z</time>
      </trkpt>
      <trkpt lat="49.84146" lon="2.49503">
        <ele>96.9</ele>
        <time>2023-07-19T08:35:37Z</time>
      </trkpt>
      <trkpt lat="49.84147" lon="2.49501">
        <ele>96.9</ele>
        <time>2023-07-19T08:35:38Z</time>
      </trkpt>
      <trkpt lat="49.84148" lon="2.495">
        <ele>96.9</ele>
        <time>2023-07-19T08:35:40Z</time>
      </trkpt>
      <trkpt lat="49.84149" lon="2.49499">
        <ele>96.9</ele>
        <time>2023-07-19T08:35:41Z</time>
      </trkpt>
      <trkpt lat="49.84149" lon="2.49498">
        <ele>96.9</ele>
        <time>2023-07-19T08:35:42Z</time>
      </trkpt>
      <trkpt lat="49.8415" lon="2.49497">
        <ele>96.9</ele>
        <time>2023-07-19T08:35:43Z</time>
      </trkpt>
      <trkpt lat="49.84152" lon="2.49496">
        <ele>97</ele>
        <time>2023-07-19T08:35:44Z</time>
      </trkpt>
      <trkpt lat="49.84153" lon="2.49495">
        <ele>97</ele>
        <time>2023-07-19T08:35:45Z</time>
      </trkpt>
      <trkpt lat="49.84153" lon="2.49494">
        <ele>97</ele>
        <time>2023-07-19T08:35:46Z</time>
      </trkpt>
      <trkpt lat="49.84155" lon="2.49493">
        <ele>97</ele>
        <time>2023-07-19T08:35:48Z</time>
      </trkpt>
      <trkpt lat="49.84156" lon="2.49492">
        <ele>97</ele>
        <time>2023-07-19T08:35:49Z</time>
      </trkpt>
      <trkpt lat="49.84156" lon="2.49491">
        <ele>97</ele>
        <time>2023-07-19T08:35:50Z</time>
      </trkpt>
      <trkpt lat="49.84158" lon="2.49489">
        <ele>97</ele>
        <time>2023-07-19T08:35:51Z</time>
      </trkpt>
      <trkpt lat="49.84159" lon="2.49488">
        <ele>97</ele>
        <time>2023-07-19T08:35:52Z</time>
      </trkpt>
      <trkpt lat="49.84159" lon="2.49488">
        <ele>97</ele>
        <time>2023-07-19T08:35:53Z</time>
      </trkpt>
      <trkpt lat="49.84161" lon="2.49486">
        <ele>97</ele>
        <time>2023-07-19T08:35:55Z</time>
      </trkpt>
      <trkpt lat="49.84162" lon="2.49485">
        <ele>97</ele>
        <time>2023-07-19T08:35:56Z</time>
      </trkpt>
      <trkpt lat="49.84163" lon="2.49484">
        <ele>97</ele>
        <time>2023-07-19T08:35:57Z</time>
      </trkpt>
      <trkpt lat="49.84164" lon="2.49482">
        <ele>97</ele>
        <time>2023-07-19T08:35:59Z</time>
      </trkpt>
      <trkpt lat="49.84165" lon="2.49481">
        <ele>97</ele>
        <time>2023-07-19T08:36:00Z</time>
      </trkpt>
      <trkpt lat="49.84166" lon="2.4948">
        <ele>97</ele>
        <time>2023-07-19T08:36:02Z</time>
      </trkpt>
      <trkpt lat="49.84167" lon="2.49479">
        <ele>97.1</ele>
        <time>2023-07-19T08:36:03Z</time>
      </trkpt>
      <trkpt lat="49.84168" lon="2.49478">
        <ele>97.1</ele>
        <time>2023-07-19T08:36:04Z</time>
      </trkpt>
      <trkpt lat="49.84169" lon="2.49477">
        <ele>97.1</ele>
        <time>2023-07-19T08:36:05Z</time>
      </trkpt>
      <trkpt lat="49.8417" lon="2.49476">
        <ele>97.1</ele>
        <time>2023-07-19T08:36:06Z</time>
      </trkpt>
      <trkpt lat="49.84171" lon="2.49475">
        <ele>97.1</ele>
        <time>2023-07-19T08:36:07Z</time>
      </trkpt>
      <trkpt lat="49.84172" lon="2.49474">
        <ele>97.1</ele>
        <time>2023-07-19T08:36:08Z</time>
      </trkpt>
      <trkpt lat="49.84173" lon="2.49473">
        <ele>97.1</ele>
        <time>2023-07-19T08:36:10Z</time>
      </trkpt>
      <trkpt lat="49.84174" lon="2.49472">
        <ele>97.2</ele>
        <time>2023-07-19T08:36:11Z</time>
      </trkpt>
      <trkpt lat="49.84175" lon="2.49471">
        <ele>97.2</ele>
        <time>2023-07-19T08:36:12Z</time>
      </trkpt>
      <trkpt lat="49.84175" lon="2.49471">
        <ele>97.2</ele>
        <time>2023-07-19T08:36:13Z</time>
      </trkpt>
      <trkpt lat="49.84176" lon="2.4947">
        <ele>97.2</ele>
        <time>2023-07-19T08:36:14Z</time>
      </trkpt>
      <trkpt lat="49.84177" lon="2.49469">
        <ele>97.2</ele>
        <time>2023-07-19T08:36:15Z</time>
      </trkpt>
      <trkpt lat="49.84178" lon="2.49468">
        <ele>97.2</ele>
        <time>2023-07-19T08:36:17Z</time>
      </trkpt>
      <trkpt lat="49.84179" lon="2.49467">
        <ele>97.2</ele>
        <time>2023-07-19T08:36:18Z</time>
      </trkpt>
      <trkpt lat="49.84181" lon="2.49465">
        <ele>97.3</ele>
        <time>2023-07-19T08:36:19Z</time>
      </trkpt>
      <trkpt lat="49.84181" lon="2.49464">
        <ele>97.3</ele>
        <time>2023-07-19T08:36:20Z</time>
      </trkpt>
      <trkpt lat="49.84182" lon="2.49464">
        <ele>97.3</ele>
        <time>2023-07-19T08:36:21Z</time>
      </trkpt>
      <trkpt lat="49.84183" lon="2.49462">
        <ele>97.3</ele>
        <time>2023-07-19T08:36:23Z</time>
      </trkpt>
      <trkpt lat="49.84184" lon="2.49462">
        <ele>97.3</ele>
        <time>2023-07-19T08:36:25Z</time>
      </trkpt>
      <trkpt lat="49.84186" lon="2.4946">
        <ele>97.3</ele>
        <time>2023-07-19T08:36:26Z</time>
      </trkpt>
      <trkpt lat="49.84187" lon="2.49459">
        <ele>97.4</ele>
        <time>2023-07-19T08:36:27Z</time>
      </trkpt>
      <trkpt lat="49.84187" lon="2.49458">
        <ele>97.4</ele>
        <time>2023-07-19T08:36:28Z</time>
      </trkpt>
      <trkpt lat="49.84188" lon="2.49458">
        <ele>97.4</ele>
        <time>2023-07-19T08:36:30Z</time>
      </trkpt>
      <trkpt lat="49.84189" lon="2.49457">
        <ele>97.4</ele>
        <time>2023-07-19T08:36:31Z</time>
      </trkpt>
      <trkpt lat="49.84191" lon="2.49455">
        <ele>97.4</ele>
        <time>2023-07-19T08:36:32Z</time>
      </trkpt>
      <trkpt lat="49.84192" lon="2.49454">
        <ele>97.4</ele>
        <time>2023-07-19T08:36:33Z</time>
      </trkpt>
      <trkpt lat="49.84193" lon="2.49454">
        <ele>97.4</ele>
        <time>2023-07-19T08:36:34Z</time>
      </trkpt>
      <trkpt lat="49.84195" lon="2.49452">
        <ele>97.5</ele>
        <time>2023-07-19T08:36:36Z</time>
      </trkpt>
      <trkpt lat="49.84196" lon="2.49451">
        <ele>97.5</ele>
        <time>2023-07-19T08:36:38Z</time>
      </trkpt>
      <trkpt lat="49.84197" lon="2.4945">
        <ele>97.5</ele>
        <time>2023-07-19T08:36:39Z</time>
      </trkpt>
      <trkpt lat="49.84199" lon="2.49448">
        <ele>97.5</ele>
        <time>2023-07-19T08:36:40Z</time>
      </trkpt>
      <trkpt lat="49.842" lon="2.49447">
        <ele>97.5</ele>
        <time>2023-07-19T08:36:41Z</time>
      </trkpt>
      <trkpt lat="49.84201" lon="2.49446">
        <ele>97.6</ele>
        <time>2023-07-19T08:36:42Z</time>
      </trkpt>
      <trkpt lat="49.84202" lon="2.49445">
        <ele>97.6</ele>
        <time>2023-07-19T08:36:44Z</time>
      </trkpt>
      <trkpt lat="49.84203" lon="2.49444">
        <ele>97.6</ele>
        <time>2023-07-19T08:36:45Z</time>
      </trkpt>
      <trkpt lat="49.84204" lon="2.49443">
        <ele>97.6</ele>
        <time>2023-07-19T08:36:46Z</time>
      </trkpt>
      <trkpt lat="49.84205" lon="2.49442">
        <ele>97.6</ele>
        <time>2023-07-19T08:36:47Z</time>
      </trkpt>
      <trkpt lat="49.84206" lon="2.4944">
        <ele>97.7</ele>
        <time>2023-07-19T08:36:48Z</time>
      </trkpt>
      <trkpt lat="49.84207" lon="2.49439">
        <ele>97.7</ele>
        <time>2023-07-19T08:36:49Z</time>
      </trkpt>
      <trkpt lat="49.84209" lon="2.49437">
        <ele>97.7</ele>
        <time>2023-07-19T08:36:50Z</time>
      </trkpt>
      <trkpt lat="49.8421" lon="2.49437">
        <ele>97.7</ele>
        <time>2023-07-19T08:36:51Z</time>
      </trkpt>
      <trkpt lat="49.8421" lon="2.49436">
        <ele>97.8</ele>
        <time>2023-07-19T08:36:53Z</time>
      </trkpt>
      <trkpt lat="49.84211" lon="2.49435">
        <ele>97.8</ele>
        <time>2023-07-19T08:36:54Z</time>
      </trkpt>
      <trkpt lat="49.84212" lon="2.49434">
        <ele>97.8</ele>
        <time>2023-07-19T08:36:55Z</time>
      </trkpt>
      <trkpt lat="49.84213" lon="2.49433">
        <ele>97.8</ele>
        <time>2023-07-19T08:36:56Z</time>
      </trkpt>
      <trkpt lat="49.84215" lon="2.49431">
        <ele>97.8</ele>
        <time>2023-07-19T08:36:57Z</time>
      </trkpt>
      <trkpt lat="49.84215" lon="2.4943">
        <ele>97.9</ele>
        <time>2023-07-19T08:36:58Z</time>
      </trkpt>
      <trkpt lat="49.84216" lon="2.4943">
        <ele>97.9</ele>
        <time>2023-07-19T08:36:59Z</time>
      </trkpt>
      <trkpt lat="49.84216" lon="2.49429">
        <ele>97.9</ele>
        <time>2023-07-19T08:37:01Z</time>
      </trkpt>
      <trkpt lat="49.84217" lon="2.49427">
        <ele>97.9</ele>
        <time>2023-07-19T08:37:02Z</time>
      </trkpt>
      <trkpt lat="49.84218" lon="2.49426">
        <ele>97.9</ele>
        <time>2023-07-19T08:37:03Z</time>
      </trkpt>
      <trkpt lat="49.84219" lon="2.49425">
        <ele>97.9</ele>
        <time>2023-07-19T08:37:04Z</time>
      </trkpt>
      <trkpt lat="49.8422" lon="2.49424">
        <ele>98</ele>
        <time>2023-07-19T08:37:05Z</time>
      </trkpt>
      <trkpt lat="49.84221" lon="2.49423">
        <ele>98</ele>
        <time>2023-07-19T08:37:06Z</time>
      </trkpt>
      <trkpt lat="49.84223" lon="2.4942">
        <ele>98</ele>
        <time>2023-07-19T08:37:08Z</time>
      </trkpt>
      <trkpt lat="49.84224" lon="2.49419">
        <ele>98</ele>
        <time>2023-07-19T08:37:10Z</time>
      </trkpt>
      <trkpt lat="49.84225" lon="2.49418">
        <ele>98</ele>
        <time>2023-07-19T08:37:11Z</time>
      </trkpt>
      <trkpt lat="49.84226" lon="2.49417">
        <ele>98.1</ele>
        <time>2023-07-19T08:37:12Z</time>
      </trkpt>
      <trkpt lat="49.84226" lon="2.49416">
        <ele>98.1</ele>
        <time>2023-07-19T08:37:13Z</time>
      </trkpt>
      <trkpt lat="49.84227" lon="2.49415">
        <ele>98.1</ele>
        <time>2023-07-19T08:37:14Z</time>
      </trkpt>
      <trkpt lat="49.84228" lon="2.49414">
        <ele>98.1</ele>
        <time>2023-07-19T08:37:16Z</time>
      </trkpt>
      <trkpt lat="49.84229" lon="2.49413">
        <ele>98.1</ele>
        <time>2023-07-19T08:37:17Z</time>
      </trkpt>
      <trkpt lat="49.8423" lon="2.49412">
        <ele>98.1</ele>
        <time>2023-07-19T08:37:18Z</time>
      </trkpt>
      <trkpt lat="49.84232" lon="2.4941">
        <ele>98.2</ele>
        <time>2023-07-19T08:37:19Z</time>
      </trkpt>
      <trkpt lat="49.84233" lon="2.49408">
        <ele>98.2</ele>
        <time>2023-07-19T08:37:21Z</time>
      </trkpt>
      <trkpt lat="49.84235" lon="2.49406">
        <ele>98.2</ele>
        <time>2023-07-19T08:37:22Z</time>
      </trkpt>
      <trkpt lat="49.84236" lon="2.49405">
        <ele>98.2</ele>
        <time>2023-07-19T08:37:23Z</time>
      </trkpt>
      <trkpt lat="49.84236" lon="2.49404">
        <ele>98.2</ele>
        <time>2023-07-19T08:37:25Z</time>
      </trkpt>
      <trkpt lat="49.84237" lon="2.49403">
        <ele>98.3</ele>
        <time>2023-07-19T08:37:26Z</time>
      </trkpt>
      <trkpt lat="49.84239" lon="2.49401">
        <ele>98.3</ele>
        <time>2023-07-19T08:37:27Z</time>
      </trkpt>
      <trkpt lat="49.8424" lon="2.494">
        <ele>98.3</ele>
        <time>2023-07-19T08:37:28Z</time>
      </trkpt>
      <trkpt lat="49.8424" lon="2.494">
        <ele>98.3</ele>
        <time>2023-07-19T08:37:29Z</time>
      </trkpt>
      <trkpt lat="49.84241" lon="2.49398">
        <ele>98.3</ele>
        <time>2023-07-19T08:37:30Z</time>
      </trkpt>
      <trkpt lat="49.84243" lon="2.49397">
        <ele>98.4</ele>
        <time>2023-07-19T08:37:31Z</time>
      </trkpt>
      <trkpt lat="49.84243" lon="2.49397">
        <ele>98.4</ele>
        <time>2023-07-19T08:37:33Z</time>
      </trkpt>
      <trkpt lat="49.84245" lon="2.49396">
        <ele>98.4</ele>
        <time>2023-07-19T08:37:34Z</time>
      </trkpt>
      <trkpt lat="49.84246" lon="2.49395">
        <ele>98.4</ele>
        <time>2023-07-19T08:37:35Z</time>
      </trkpt>
      <trkpt lat="49.84248" lon="2.49393">
        <ele>98.4</ele>
        <time>2023-07-19T08:37:36Z</time>
      </trkpt>
      <trkpt lat="49.84248" lon="2.49392">
        <ele>98.4</ele>
        <time>2023-07-19T08:37:37Z</time>
      </trkpt>
      <trkpt lat="49.84249" lon="2.49392">
        <ele>98.5</ele>
        <time>2023-07-19T08:37:38Z</time>
      </trkpt>
      <trkpt lat="49.8425" lon="2.49391">
        <ele>98.5</ele>
        <time>2023-07-19T08:37:40Z</time>
      </trkpt>
      <trkpt lat="49.84251" lon="2.4939">
        <ele>98.5</ele>
        <time>2023-07-19T08:37:41Z</time>
      </trkpt>
      <trkpt lat="49.84252" lon="2.49389">
        <ele>98.5</ele>
        <time>2023-07-19T08:37:42Z</time>
      </trkpt>
      <trkpt lat="49.84254" lon="2.49387">
        <ele>98.5</ele>
        <time>2023-07-19T08:37:43Z</time>
      </trkpt>
      <trkpt lat="49.84254" lon="2.49386">
        <ele>98.5</ele>
        <time>2023-07-19T08:37:44Z</time>
      </trkpt>
      <trkpt lat="49.84255" lon="2.49385">
        <ele>98.5</ele>
        <time>2023-07-19T08:37:45Z</time>
      </trkpt>
      <trkpt lat="49.84257" lon="2.49383">
        <ele>98.6</ele>
        <time>2023-07-19T08:37:46Z</time>
      </trkpt>
      <trkpt lat="49.84258" lon="2.49383">
        <ele>98.6</ele>
        <time>2023-07-19T08:37:48Z</time>
      </trkpt>
      <trkpt lat="49.84258" lon="2.49382">
        <ele>98.6</ele>
        <time>2023-07-19T08:37:49Z</time>
      </trkpt>
      <trkpt lat="49.84259" lon="2.49381">
        <ele>98.6</ele>
        <time>2023-07-19T08:37:50Z</time>
      </trkpt>
      <trkpt lat="49.84261" lon="2.49379">
        <ele>98.6</ele>
        <time>2023-07-19T08:37:51Z</time>
      </trkpt>
      <trkpt lat="49.84262" lon="2.49378">
        <ele>98.6</ele>
        <time>2023-07-19T08:37:52Z</time>
      </trkpt>
      <trkpt lat="49.84264" lon="2.49375">
        <ele>98.6</ele>
        <time>2023-07-19T08:37:54Z</time>
      </trkpt>
      <trkpt lat="49.84266" lon="2.49373">
        <ele>98.7</ele>
        <time>2023-07-19T08:37:56Z</time>
      </trkpt>
      <trkpt lat="49.84267" lon="2.49372">
        <ele>98.7</ele>
        <time>2023-07-19T08:37:57Z</time>
      </trkpt>
      <trkpt lat="49.84268" lon="2.49371">
        <ele>98.7</ele>
        <time>2023-07-19T08:37:58Z</time>
      </trkpt>
      <trkpt lat="49.8427" lon="2.4937">
        <ele>98.7</ele>
        <time>2023-07-19T08:38:00Z</time>
      </trkpt>
      <trkpt lat="49.84272" lon="2.49367">
        <ele>98.7</ele>
        <time>2023-07-19T08:38:02Z</time>
      </trkpt>
      <trkpt lat="49.84273" lon="2.49366">
        <ele>98.7</ele>
        <time>2023-07-19T08:38:04Z</time>
      </trkpt>
      <trkpt lat="49.84274" lon="2.49364">
        <ele>98.7</ele>
        <time>2023-07-19T08:38:05Z</time>
      </trkpt>
      <trkpt lat="49.84275" lon="2.49363">
        <ele>98.7</ele>
        <time>2023-07-19T08:38:06Z</time>
      </trkpt>
      <trkpt lat="49.84277" lon="2.49361">
        <ele>98.7</ele>
        <time>2023-07-19T08:38:07Z</time>
      </trkpt>
      <trkpt lat="49.84278" lon="2.4936">
        <ele>98.7</ele>
        <time>2023-07-19T08:38:08Z</time>
      </trkpt>
      <trkpt lat="49.84279" lon="2.49359">
        <ele>98.7</ele>
        <time>2023-07-19T08:38:09Z</time>
      </trkpt>
      <trkpt lat="49.8428" lon="2.49357">
        <ele>98.7</ele>
        <time>2023-07-19T08:38:11Z</time>
      </trkpt>
      <trkpt lat="49.84281" lon="2.49356">
        <ele>98.7</ele>
        <time>2023-07-19T08:38:12Z</time>
      </trkpt>
      <trkpt lat="49.84282" lon="2.49356">
        <ele>98.7</ele>
        <time>2023-07-19T08:38:13Z</time>
      </trkpt>
      <trkpt lat="49.84283" lon="2.49354">
        <ele>98.7</ele>
        <time>2023-07-19T08:38:14Z</time>
      </trkpt>
      <trkpt lat="49.84284" lon="2.49353">
        <ele>98.7</ele>
        <time>2023-07-19T08:38:15Z</time>
      </trkpt>
      <trkpt lat="49.84285" lon="2.49352">
        <ele>98.7</ele>
        <time>2023-07-19T08:38:17Z</time>
      </trkpt>
      <trkpt lat="49.84286" lon="2.49351">
        <ele>98.7</ele>
        <time>2023-07-19T08:38:18Z</time>
      </trkpt>
      <trkpt lat="49.84287" lon="2.49348">
        <ele>98.7</ele>
        <time>2023-07-19T08:38:19Z</time>
      </trkpt>
      <trkpt lat="49.84288" lon="2.49347">
        <ele>98.7</ele>
        <time>2023-07-19T08:38:20Z</time>
      </trkpt>
      <trkpt lat="49.84289" lon="2.49346">
        <ele>98.7</ele>
        <time>2023-07-19T08:38:22Z</time>
      </trkpt>
      <trkpt lat="49.8429" lon="2.49345">
        <ele>98.7</ele>
        <time>2023-07-19T08:38:23Z</time>
      </trkpt>
      <trkpt lat="49.84292" lon="2.49343">
        <ele>98.7</ele>
        <time>2023-07-19T08:38:24Z</time>
      </trkpt>
      <trkpt lat="49.84292" lon="2.49342">
        <ele>98.7</ele>
        <time>2023-07-19T08:38:25Z</time>
      </trkpt>
      <trkpt lat="49.84293" lon="2.49341">
        <ele>98.7</ele>
        <time>2023-07-19T08:38:26Z</time>
      </trkpt>
      <trkpt lat="49.84294" lon="2.4934">
        <ele>98.7</ele>
        <time>2023-07-19T08:38:27Z</time>
      </trkpt>
      <trkpt lat="49.84295" lon="2.49339">
        <ele>98.7</ele>
        <time>2023-07-19T08:38:28Z</time>
      </trkpt>
      <trkpt lat="49.84296" lon="2.49337">
        <ele>98.7</ele>
        <time>2023-07-19T08:38:30Z</time>
      </trkpt>
      <trkpt lat="49.84297" lon="2.49336">
        <ele>98.7</ele>
        <time>2023-07-19T08:38:31Z</time>
      </trkpt>
      <trkpt lat="49.84298" lon="2.49334">
        <ele>98.7</ele>
        <time>2023-07-19T08:38:32Z</time>
      </trkpt>
      <trkpt lat="49.843" lon="2.49333">
        <ele>98.7</ele>
        <time>2023-07-19T08:38:34Z</time>
      </trkpt>
      <trkpt lat="49.84301" lon="2.49332">
        <ele>98.7</ele>
        <time>2023-07-19T08:38:35Z</time>
      </trkpt>
      <trkpt lat="49.84302" lon="2.4933">
        <ele>98.7</ele>
        <time>2023-07-19T08:38:36Z</time>
      </trkpt>
      <trkpt lat="49.84303" lon="2.49329">
        <ele>98.7</ele>
        <time>2023-07-19T08:38:37Z</time>
      </trkpt>
      <trkpt lat="49.84304" lon="2.49328">
        <ele>98.7</ele>
        <time>2023-07-19T08:38:38Z</time>
      </trkpt>
      <trkpt lat="49.84305" lon="2.49327">
        <ele>98.7</ele>
        <time>2023-07-19T08:38:39Z</time>
      </trkpt>
      <trkpt lat="49.84308" lon="2.49324">
        <ele>98.7</ele>
        <time>2023-07-19T08:38:40Z</time>
      </trkpt>
      <trkpt lat="49.84308" lon="2.49323">
        <ele>98.7</ele>
        <time>2023-07-19T08:38:42Z</time>
      </trkpt>
      <trkpt lat="49.84309" lon="2.49322">
        <ele>98.7</ele>
        <time>2023-07-19T08:38:43Z</time>
      </trkpt>
      <trkpt lat="49.8431" lon="2.49321">
        <ele>98.7</ele>
        <time>2023-07-19T08:38:44Z</time>
      </trkpt>
      <trkpt lat="49.84311" lon="2.4932">
        <ele>98.7</ele>
        <time>2023-07-19T08:38:45Z</time>
      </trkpt>
      <trkpt lat="49.84313" lon="2.49319">
        <ele>98.7</ele>
        <time>2023-07-19T08:38:47Z</time>
      </trkpt>
      <trkpt lat="49.84314" lon="2.49317">
        <ele>98.7</ele>
        <time>2023-07-19T08:38:48Z</time>
      </trkpt>
      <trkpt lat="49.84315" lon="2.49316">
        <ele>98.7</ele>
        <time>2023-07-19T08:38:49Z</time>
      </trkpt>
      <trkpt lat="49.84317" lon="2.49314">
        <ele>98.8</ele>
        <time>2023-07-19T08:38:51Z</time>
      </trkpt>
      <trkpt lat="49.84319" lon="2.49313">
        <ele>98.8</ele>
        <time>2023-07-19T08:38:52Z</time>
      </trkpt>
      <trkpt lat="49.8432" lon="2.49312">
        <ele>98.8</ele>
        <time>2023-07-19T08:38:54Z</time>
      </trkpt>
      <trkpt lat="49.84321" lon="2.49312">
        <ele>98.8</ele>
        <time>2023-07-19T08:38:55Z</time>
      </trkpt>
      <trkpt lat="49.84322" lon="2.49311">
        <ele>98.8</ele>
        <time>2023-07-19T08:38:56Z</time>
      </trkpt>
      <trkpt lat="49.84323" lon="2.4931">
        <ele>98.8</ele>
        <time>2023-07-19T08:38:57Z</time>
      </trkpt>
      <trkpt lat="49.84323" lon="2.4931">
        <ele>98.8</ele>
        <time>2023-07-19T08:38:59Z</time>
      </trkpt>
      <trkpt lat="49.84323" lon="2.49309">
        <ele>98.8</ele>
        <time>2023-07-19T08:39:01Z</time>
      </trkpt>
      <trkpt lat="49.84323" lon="2.49308">
        <ele>98.8</ele>
        <time>2023-07-19T08:39:02Z</time>
      </trkpt>
      <trkpt lat="49.84323" lon="2.49308">
        <ele>98.8</ele>
        <time>2023-07-19T08:39:05Z</time>
      </trkpt>
      <trkpt lat="49.84323" lon="2.49308">
        <ele>98.8</ele>
        <time>2023-07-19T08:39:08Z</time>
      </trkpt>
      <trkpt lat="49.84323" lon="2.49308">
        <ele>98.8</ele>
        <time>2023-07-19T08:39:09Z</time>
      </trkpt>
      <trkpt lat="49.84323" lon="2.49308">
        <ele>98.8</ele>
        <time>2023-07-19T08:39:11Z</time>
      </trkpt>
      <trkpt lat="49.84323" lon="2.49308">
        <ele>98.8</ele>
        <time>2023-07-19T08:39:12Z</time>
      </trkpt>
      <trkpt lat="49.84323" lon="2.49308">
        <ele>98.8</ele>
        <time>2023-07-19T08:39:15Z</time>
      </trkpt>
      <trkpt lat="49.84323" lon="2.49308">
        <ele>98.8</ele>
        <time>2023-07-19T08:39:16Z</time>
      </trkpt>
      <trkpt lat="49.84323" lon="2.49309">
        <ele>98.7</ele>
        <time>2023-07-19T08:39:17Z</time>
      </trkpt>
      <trkpt lat="49.84323" lon="2.49309">
        <ele>98.7</ele>
        <time>2023-07-19T08:39:18Z</time>
      </trkpt>
      <trkpt lat="49.84323" lon="2.49309">
        <ele>98.7</ele>
        <time>2023-07-19T08:39:19Z</time>
      </trkpt>
      <trkpt lat="49.84323" lon="2.49309">
        <ele>98.7</ele>
        <time>2023-07-19T08:39:20Z</time>
      </trkpt>
      <trkpt lat="49.84323" lon="2.49309">
        <ele>98.7</ele>
        <time>2023-07-19T08:39:21Z</time>
      </trkpt>
      <trkpt lat="49.84323" lon="2.49309">
        <ele>98.7</ele>
        <time>2023-07-19T08:39:22Z</time>
      </trkpt>
      <trkpt lat="49.84323" lon="2.49309">
        <ele>98.7</ele>
        <time>2023-07-19T08:39:23Z</time>
      </trkpt>
      <trkpt lat="49.84323" lon="2.49309">
        <ele>98.7</ele>
        <time>2023-07-19T08:39:24Z</time>
      </trkpt>
      <trkpt lat="49.84323" lon="2.49309">
        <ele>98.7</ele>
        <time>2023-07-19T08:39:25Z</time>
      </trkpt>
      <trkpt lat="49.84323" lon="2.49309">
        <ele>98.7</ele>
        <time>2023-07-19T08:39:27Z</time>
      </trkpt>
      <trkpt lat="49.84323" lon="2.49309">
        <ele>98.7</ele>
        <time>2023-07-19T08:39:28Z</time>
      </trkpt>
      <trkpt lat="49.84322" lon="2.4931">
        <ele>98.7</ele>
        <time>2023-07-19T08:39:29Z</time>
      </trkpt>
      <trkpt lat="49.84322" lon="2.49311">
        <ele>98.7</ele>
        <time>2023-07-19T08:39:30Z</time>
      </trkpt>
      <trkpt lat="49.84322" lon="2.4931">
        <ele>98.7</ele>
        <time>2023-07-19T08:39:31Z</time>
      </trkpt>
      <trkpt lat="49.84322" lon="2.4931">
        <ele>98.7</ele>
        <time>2023-07-19T08:39:33Z</time>
      </trkpt>
      <trkpt lat="49.84322" lon="2.49308">
        <ele>98.6</ele>
        <time>2023-07-19T08:39:34Z</time>
      </trkpt>
      <trkpt lat="49.84322" lon="2.49307">
        <ele>98.6</ele>
        <time>2023-07-19T08:39:35Z</time>
      </trkpt>
      <trkpt lat="49.84322" lon="2.49307">
        <ele>98.6</ele>
        <time>2023-07-19T08:39:36Z</time>
      </trkpt>
      <trkpt lat="49.84322" lon="2.49307">
        <ele>98.6</ele>
        <time>2023-07-19T08:39:39Z</time>
      </trkpt>
      <trkpt lat="49.84322" lon="2.49307">
        <ele>98.6</ele>
        <time>2023-07-19T08:39:40Z</time>
      </trkpt>
      <trkpt lat="49.84322" lon="2.49307">
        <ele>98.6</ele>
        <time>2023-07-19T08:39:43Z</time>
      </trkpt>
      <trkpt lat="49.84321" lon="2.49307">
        <ele>98.6</ele>
        <time>2023-07-19T08:39:45Z</time>
      </trkpt>
      <trkpt lat="49.84321" lon="2.49307">
        <ele>98.6</ele>
        <time>2023-07-19T08:39:46Z</time>
      </trkpt>
      <trkpt lat="49.84321" lon="2.49307">
        <ele>98.6</ele>
        <time>2023-07-19T08:39:48Z</time>
      </trkpt>
      <trkpt lat="49.84321" lon="2.49307">
        <ele>98.6</ele>
        <time>2023-07-19T08:39:49Z</time>
      </trkpt>
      <trkpt lat="49.84321" lon="2.49308">
        <ele>98.6</ele>
        <time>2023-07-19T08:39:51Z</time>
      </trkpt>
      <trkpt lat="49.84321" lon="2.49308">
        <ele>98.5</ele>
        <time>2023-07-19T08:39:52Z</time>
      </trkpt>
      <trkpt lat="49.84321" lon="2.49308">
        <ele>98.5</ele>
        <time>2023-07-19T08:39:53Z</time>
      </trkpt>
      <trkpt lat="49.84321" lon="2.49308">
        <ele>98.5</ele>
        <time>2023-07-19T08:39:55Z</time>
      </trkpt>
      <trkpt lat="49.84321" lon="2.49308">
        <ele>98.5</ele>
        <time>2023-07-19T08:39:56Z</time>
      </trkpt>
      <trkpt lat="49.84321" lon="2.49308">
        <ele>98.5</ele>
        <time>2023-07-19T08:39:57Z</time>
      </trkpt>
      <trkpt lat="49.84321" lon="2.49308">
        <ele>98.5</ele>
        <time>2023-07-19T08:39:59Z</time>
      </trkpt>
      <trkpt lat="49.84321" lon="2.49308">
        <ele>98.5</ele>
        <time>2023-07-19T08:40:00Z</time>
      </trkpt>
      <trkpt lat="49.84321" lon="2.49308">
        <ele>98.5</ele>
        <time>2023-07-19T08:40:01Z</time>
      </trkpt>
      <trkpt lat="49.84321" lon="2.49308">
        <ele>98.5</ele>
        <time>2023-07-19T08:40:02Z</time>
      </trkpt>
      <trkpt lat="49.84321" lon="2.49308">
        <ele>98.5</ele>
        <time>2023-07-19T08:40:04Z</time>
      </trkpt>
      <trkpt lat="49.84321" lon="2.49308">
        <ele>98.5</ele>
        <time>2023-07-19T08:40:05Z</time>
      </trkpt>
      <trkpt lat="49.84321" lon="2.49308">
        <ele>98.5</ele>
        <time>2023-07-19T08:40:06Z</time>
      </trkpt>
      <trkpt lat="49.84321" lon="2.49308">
        <ele>98.5</ele>
        <time>2023-07-19T08:40:08Z</time>
      </trkpt>
      <trkpt lat="49.84321" lon="2.49308">
        <ele>98.5</ele>
        <time>2023-07-19T08:40:09Z</time>
      </trkpt>
      <trkpt lat="49.84321" lon="2.49308">
        <ele>98.5</ele>
        <time>2023-07-19T08:40:10Z</time>
      </trkpt>
      <trkpt lat="49.84321" lon="2.49308">
        <ele>98.5</ele>
        <time>2023-07-19T08:40:12Z</time>
      </trkpt>
      <trkpt lat="49.84321" lon="2.49308">
        <ele>98.5</ele>
        <time>2023-07-19T08:40:14Z</time>
      </trkpt>
      <trkpt lat="49.84321" lon="2.49308">
        <ele>98.5</ele>
        <time>2023-07-19T08:40:15Z</time>
      </trkpt>
      <trkpt lat="49.84321" lon="2.49308">
        <ele>98.5</ele>
        <time>2023-07-19T08:40:16Z</time>
      </trkpt>
      <trkpt lat="49.84321" lon="2.49308">
        <ele>98.5</ele>
        <time>2023-07-19T08:40:18Z</time>
      </trkpt>
      <trkpt lat="49.84321" lon="2.49308">
        <ele>98.5</ele>
        <time>2023-07-19T08:40:19Z</time>
      </trkpt>
      <trkpt lat="49.84321" lon="2.49308">
        <ele>98.5</ele>
        <time>2023-07-19T08:40:20Z</time>
      </trkpt>
      <trkpt lat="49.84321" lon="2.49308">
        <ele>98.5</ele>
        <time>2023-07-19T08:40:21Z</time>
      </trkpt>
      <trkpt lat="49.84321" lon="2.49308">
        <ele>98.5</ele>
        <time>2023-07-19T08:40:22Z</time>
      </trkpt>
      <trkpt lat="49.84321" lon="2.49308">
        <ele>98.5</ele>
        <time>2023-07-19T08:40:23Z</time>
      </trkpt>
      <trkpt lat="49.84321" lon="2.49308">
        <ele>98.5</ele>
        <time>2023-07-19T08:40:25Z</time>
      </trkpt>
      <trkpt lat="49.84321" lon="2.49308">
        <ele>98.5</ele>
        <time>2023-07-19T08:40:26Z</time>
      </trkpt>
      <trkpt lat="49.84321" lon="2.49308">
        <ele>98.5</ele>
        <time>2023-07-19T08:40:27Z</time>
      </trkpt>
      <trkpt lat="49.84321" lon="2.49308">
        <ele>98.5</ele>
        <time>2023-07-19T08:40:28Z</time>
      </trkpt>
      <trkpt lat="49.84321" lon="2.49308">
        <ele>98.5</ele>
        <time>2023-07-19T08:40:29Z</time>
      </trkpt>
      <trkpt lat="49.84322" lon="2.49312">
        <ele>98.5</ele>
        <time>2023-07-19T08:40:31Z</time>
      </trkpt>
      <trkpt lat="49.84322" lon="2.49312">
        <ele>98.5</ele>
        <time>2023-07-19T08:40:32Z</time>
      </trkpt>
      <trkpt lat="49.84322" lon="2.49311">
        <ele>98.5</ele>
        <time>2023-07-19T08:40:33Z</time>
      </trkpt>
      <trkpt lat="49.84321" lon="2.4931">
        <ele>98.4</ele>
        <time>2023-07-19T08:40:35Z</time>
      </trkpt>
      <trkpt lat="49.84321" lon="2.4931">
        <ele>98.4</ele>
        <time>2023-07-19T08:40:36Z</time>
      </trkpt>
      <trkpt lat="49.84321" lon="2.4931">
        <ele>98.4</ele>
        <time>2023-07-19T08:40:37Z</time>
      </trkpt>
      <trkpt lat="49.84321" lon="2.4931">
        <ele>98.4</ele>
        <time>2023-07-19T08:40:38Z</time>
      </trkpt>
      <trkpt lat="49.84322" lon="2.49309">
        <ele>98.4</ele>
        <time>2023-07-19T08:40:39Z</time>
      </trkpt>
      <trkpt lat="49.84322" lon="2.49309">
        <ele>98.4</ele>
        <time>2023-07-19T08:40:41Z</time>
      </trkpt>
      <trkpt lat="49.84322" lon="2.49309">
        <ele>98.4</ele>
        <time>2023-07-19T08:40:43Z</time>
      </trkpt>
      <trkpt lat="49.84323" lon="2.49308">
        <ele>98.4</ele>
        <time>2023-07-19T08:40:44Z</time>
      </trkpt>
      <trkpt lat="49.84323" lon="2.49306">
        <ele>98.4</ele>
        <time>2023-07-19T08:40:45Z</time>
      </trkpt>
      <trkpt lat="49.84323" lon="2.49305">
        <ele>98.3</ele>
        <time>2023-07-19T08:40:46Z</time>
      </trkpt>
      <trkpt lat="49.84323" lon="2.49303">
        <ele>98.3</ele>
        <time>2023-07-19T08:40:47Z</time>
      </trkpt>
      <trkpt lat="49.84323" lon="2.49301">
        <ele>98.3</ele>
        <time>2023-07-19T08:40:48Z</time>
      </trkpt>
      <trkpt lat="49.84323" lon="2.493">
        <ele>98.3</ele>
        <time>2023-07-19T08:40:49Z</time>
      </trkpt>
      <trkpt lat="49.84323" lon="2.49299">
        <ele>98.3</ele>
        <time>2023-07-19T08:40:50Z</time>
      </trkpt>
      <trkpt lat="49.84322" lon="2.49297">
        <ele>98.3</ele>
        <time>2023-07-19T08:40:52Z</time>
      </trkpt>
      <trkpt lat="49.84322" lon="2.49295">
        <ele>98.3</ele>
        <time>2023-07-19T08:40:53Z</time>
      </trkpt>
      <trkpt lat="49.8432" lon="2.49296">
        <ele>98.3</ele>
        <time>2023-07-19T08:40:55Z</time>
      </trkpt>
      <trkpt lat="49.8432" lon="2.49298">
        <ele>98.2</ele>
        <time>2023-07-19T08:40:56Z</time>
      </trkpt>
      <trkpt lat="49.8432" lon="2.493">
        <ele>98.2</ele>
        <time>2023-07-19T08:40:58Z</time>
      </trkpt>
      <trkpt lat="49.8432" lon="2.493">
        <ele>98.2</ele>
        <time>2023-07-19T08:40:59Z</time>
      </trkpt>
      <trkpt lat="49.8432" lon="2.493">
        <ele>98.2</ele>
        <time>2023-07-19T08:41:00Z</time>
      </trkpt>
      <trkpt lat="49.8432" lon="2.493">
        <ele>98.2</ele>
        <time>2023-07-19T08:41:02Z</time>
      </trkpt>
      <trkpt lat="49.8432" lon="2.493">
        <ele>98.2</ele>
        <time>2023-07-19T08:41:03Z</time>
      </trkpt>
      <trkpt lat="49.8432" lon="2.493">
        <ele>98.2</ele>
        <time>2023-07-19T08:41:04Z</time>
      </trkpt>
      <trkpt lat="49.8432" lon="2.49299">
        <ele>98.2</ele>
        <time>2023-07-19T08:41:06Z</time>
      </trkpt>
      <trkpt lat="49.8432" lon="2.49297">
        <ele>98.2</ele>
        <time>2023-07-19T08:41:07Z</time>
      </trkpt>
      <trkpt lat="49.84319" lon="2.49294">
        <ele>98.2</ele>
        <time>2023-07-19T08:41:08Z</time>
      </trkpt>
      <trkpt lat="49.84319" lon="2.49284">
        <ele>98.2</ele>
        <time>2023-07-19T08:41:11Z</time>
      </trkpt>
      <trkpt lat="49.84318" lon="2.4928">
        <ele>98.2</ele>
        <time>2023-07-19T08:41:12Z</time>
      </trkpt>
      <trkpt lat="49.84318" lon="2.49277">
        <ele>98.2</ele>
        <time>2023-07-19T08:41:14Z</time>
      </trkpt>
      <trkpt lat="49.84318" lon="2.49273">
        <ele>98.2</ele>
        <time>2023-07-19T08:41:15Z</time>
      </trkpt>
      <trkpt lat="49.84317" lon="2.49269">
        <ele>98.2</ele>
        <time>2023-07-19T08:41:16Z</time>
      </trkpt>
      <trkpt lat="49.84317" lon="2.49267">
        <ele>98.2</ele>
        <time>2023-07-19T08:41:18Z</time>
      </trkpt>
      <trkpt lat="49.84317" lon="2.49266">
        <ele>98.2</ele>
        <time>2023-07-19T08:41:19Z</time>
      </trkpt>
      <trkpt lat="49.84317" lon="2.49264">
        <ele>98.2</ele>
        <time>2023-07-19T08:41:20Z</time>
      </trkpt>
      <trkpt lat="49.84317" lon="2.49263">
        <ele>98.2</ele>
        <time>2023-07-19T08:41:21Z</time>
      </trkpt>
      <trkpt lat="49.84317" lon="2.49261">
        <ele>98.2</ele>
        <time>2023-07-19T08:41:22Z</time>
      </trkpt>
      <trkpt lat="49.84317" lon="2.49258">
        <ele>98.2</ele>
        <time>2023-07-19T08:41:23Z</time>
      </trkpt>
      <trkpt lat="49.84317" lon="2.49256">
        <ele>98.2</ele>
        <time>2023-07-19T08:41:24Z</time>
      </trkpt>
      <trkpt lat="49.84317" lon="2.49254">
        <ele>98.2</ele>
        <time>2023-07-19T08:41:25Z</time>
      </trkpt>
      <trkpt lat="49.84317" lon="2.49251">
        <ele>98.2</ele>
        <time>2023-07-19T08:41:26Z</time>
      </trkpt>
      <trkpt lat="49.84316" lon="2.49249">
        <ele>98.2</ele>
        <time>2023-07-19T08:41:28Z</time>
      </trkpt>
      <trkpt lat="49.84316" lon="2.49247">
        <ele>98.2</ele>
        <time>2023-07-19T08:41:29Z</time>
      </trkpt>
      <trkpt lat="49.84316" lon="2.49244">
        <ele>98.2</ele>
        <time>2023-07-19T08:41:30Z</time>
      </trkpt>
      <trkpt lat="49.84315" lon="2.49243">
        <ele>98.2</ele>
        <time>2023-07-19T08:41:31Z</time>
      </trkpt>
      <trkpt lat="49.84315" lon="2.49241">
        <ele>98.1</ele>
        <time>2023-07-19T08:41:32Z</time>
      </trkpt>
      <trkpt lat="49.84315" lon="2.49239">
        <ele>98.1</ele>
        <time>2023-07-19T08:41:33Z</time>
      </trkpt>
      <trkpt lat="49.84315" lon="2.49237">
        <ele>98.1</ele>
        <time>2023-07-19T08:41:35Z</time>
      </trkpt>
      <trkpt lat="49.84314" lon="2.49236">
        <ele>98.1</ele>
        <time>2023-07-19T08:41:36Z</time>
      </trkpt>
      <trkpt lat="49.84314" lon="2.49234">
        <ele>98.1</ele>
        <time>2023-07-19T08:41:37Z</time>
      </trkpt>
      <trkpt lat="49.84313" lon="2.4923">
        <ele>98.1</ele>
        <time>2023-07-19T08:41:38Z</time>
      </trkpt>
      <trkpt lat="49.84313" lon="2.49229">
        <ele>98.1</ele>
        <time>2023-07-19T08:41:39Z</time>
      </trkpt>
      <trkpt lat="49.84312" lon="2.49225">
        <ele>98.1</ele>
        <time>2023-07-19T08:41:41Z</time>
      </trkpt>
      <trkpt lat="49.84311" lon="2.49223">
        <ele>98.1</ele>
        <time>2023-07-19T08:41:43Z</time>
      </trkpt>
      <trkpt lat="49.8431" lon="2.49219">
        <ele>98.1</ele>
        <time>2023-07-19T08:41:44Z</time>
      </trkpt>
      <trkpt lat="49.8431" lon="2.49218">
        <ele>98.1</ele>
        <time>2023-07-19T08:41:46Z</time>
      </trkpt>
      <trkpt lat="49.84309" lon="2.49216">
        <ele>98.1</ele>
        <time>2023-07-19T08:41:47Z</time>
      </trkpt>
      <trkpt lat="49.84309" lon="2.49215">
        <ele>98.1</ele>
        <time>2023-07-19T08:41:48Z</time>
      </trkpt>
      <trkpt lat="49.84309" lon="2.49214">
        <ele>98.1</ele>
        <time>2023-07-19T08:41:49Z</time>
      </trkpt>
      <trkpt lat="49.84309" lon="2.49212">
        <ele>98.1</ele>
        <time>2023-07-19T08:41:50Z</time>
      </trkpt>
      <trkpt lat="49.84309" lon="2.4921">
        <ele>98.1</ele>
        <time>2023-07-19T08:41:51Z</time>
      </trkpt>
      <trkpt lat="49.84308" lon="2.49207">
        <ele>98.1</ele>
        <time>2023-07-19T08:41:53Z</time>
      </trkpt>
      <trkpt lat="49.84308" lon="2.49205">
        <ele>98.1</ele>
        <time>2023-07-19T08:41:54Z</time>
      </trkpt>
      <trkpt lat="49.84307" lon="2.49204">
        <ele>98.1</ele>
        <time>2023-07-19T08:41:56Z</time>
      </trkpt>
      <trkpt lat="49.84307" lon="2.49202">
        <ele>98.1</ele>
        <time>2023-07-19T08:41:57Z</time>
      </trkpt>
      <trkpt lat="49.84307" lon="2.492">
        <ele>98.1</ele>
        <time>2023-07-19T08:41:58Z</time>
      </trkpt>
      <trkpt lat="49.84307" lon="2.49199">
        <ele>98.1</ele>
        <time>2023-07-19T08:41:59Z</time>
      </trkpt>
      <trkpt lat="49.84306" lon="2.49197">
        <ele>98.1</ele>
        <time>2023-07-19T08:42:00Z</time>
      </trkpt>
      <trkpt lat="49.84306" lon="2.49195">
        <ele>98.1</ele>
        <time>2023-07-19T08:42:01Z</time>
      </trkpt>
      <trkpt lat="49.84306" lon="2.49193">
        <ele>98.1</ele>
        <time>2023-07-19T08:42:03Z</time>
      </trkpt>
      <trkpt lat="49.84305" lon="2.49192">
        <ele>98.1</ele>
        <time>2023-07-19T08:42:04Z</time>
      </trkpt>
      <trkpt lat="49.84305" lon="2.49189">
        <ele>98.2</ele>
        <time>2023-07-19T08:42:05Z</time>
      </trkpt>
      <trkpt lat="49.84305" lon="2.49188">
        <ele>98.2</ele>
        <time>2023-07-19T08:42:06Z</time>
      </trkpt>
      <trkpt lat="49.84304" lon="2.49187">
        <ele>98.2</ele>
        <time>2023-07-19T08:42:07Z</time>
      </trkpt>
      <trkpt lat="49.84304" lon="2.49184">
        <ele>98.2</ele>
        <time>2023-07-19T08:42:08Z</time>
      </trkpt>
      <trkpt lat="49.84304" lon="2.49183">
        <ele>98.2</ele>
        <time>2023-07-19T08:42:09Z</time>
      </trkpt>
      <trkpt lat="49.84303" lon="2.49181">
        <ele>98.2</ele>
        <time>2023-07-19T08:42:10Z</time>
      </trkpt>
      <trkpt lat="49.84303" lon="2.49179">
        <ele>98.2</ele>
        <time>2023-07-19T08:42:11Z</time>
      </trkpt>
      <trkpt lat="49.84303" lon="2.49177">
        <ele>98.2</ele>
        <time>2023-07-19T08:42:13Z</time>
      </trkpt>
      <trkpt lat="49.84303" lon="2.49174">
        <ele>98.2</ele>
        <time>2023-07-19T08:42:14Z</time>
      </trkpt>
      <trkpt lat="49.84302" lon="2.49171">
        <ele>98.2</ele>
        <time>2023-07-19T08:42:15Z</time>
      </trkpt>
      <trkpt lat="49.84302" lon="2.49169">
        <ele>98.2</ele>
        <time>2023-07-19T08:42:16Z</time>
      </trkpt>
      <trkpt lat="49.84301" lon="2.49164">
        <ele>98.3</ele>
        <time>2023-07-19T08:42:18Z</time>
      </trkpt>
      <trkpt lat="49.843" lon="2.49159">
        <ele>98.3</ele>
        <time>2023-07-19T08:42:20Z</time>
      </trkpt>
      <trkpt lat="49.843" lon="2.49157">
        <ele>98.3</ele>
        <time>2023-07-19T08:42:21Z</time>
      </trkpt>
      <trkpt lat="49.843" lon="2.49155">
        <ele>98.3</ele>
        <time>2023-07-19T08:42:22Z</time>
      </trkpt>
      <trkpt lat="49.84299" lon="2.49152">
        <ele>98.3</ele>
        <time>2023-07-19T08:42:24Z</time>
      </trkpt>
      <trkpt lat="49.84299" lon="2.4915">
        <ele>98.3</ele>
        <time>2023-07-19T08:42:25Z</time>
      </trkpt>
      <trkpt lat="49.84299" lon="2.49149">
        <ele>98.3</ele>
        <time>2023-07-19T08:42:26Z</time>
      </trkpt>
      <trkpt lat="49.84299" lon="2.49147">
        <ele>98.3</ele>
        <time>2023-07-19T08:42:27Z</time>
      </trkpt>
      <trkpt lat="49.84299" lon="2.49146">
        <ele>98.3</ele>
        <time>2023-07-19T08:42:28Z</time>
      </trkpt>
      <trkpt lat="49.84298" lon="2.49144">
        <ele>98.4</ele>
        <time>2023-07-19T08:42:30Z</time>
      </trkpt>
      <trkpt lat="49.84298" lon="2.4914">
        <ele>98.4</ele>
        <time>2023-07-19T08:42:32Z</time>
      </trkpt>
      <trkpt lat="49.84297" lon="2.49139">
        <ele>98.4</ele>
        <time>2023-07-19T08:42:33Z</time>
      </trkpt>
      <trkpt lat="49.84297" lon="2.49137">
        <ele>98.4</ele>
        <time>2023-07-19T08:42:34Z</time>
      </trkpt>
      <trkpt lat="49.84297" lon="2.49136">
        <ele>98.4</ele>
        <time>2023-07-19T08:42:35Z</time>
      </trkpt>
      <trkpt lat="49.84297" lon="2.49134">
        <ele>98.4</ele>
        <time>2023-07-19T08:42:36Z</time>
      </trkpt>
      <trkpt lat="49.84296" lon="2.49133">
        <ele>98.4</ele>
        <time>2023-07-19T08:42:37Z</time>
      </trkpt>
      <trkpt lat="49.84296" lon="2.49131">
        <ele>98.4</ele>
        <time>2023-07-19T08:42:38Z</time>
      </trkpt>
      <trkpt lat="49.84296" lon="2.49129">
        <ele>98.4</ele>
        <time>2023-07-19T08:42:39Z</time>
      </trkpt>
      <trkpt lat="49.84295" lon="2.49128">
        <ele>98.4</ele>
        <time>2023-07-19T08:42:41Z</time>
      </trkpt>
      <trkpt lat="49.84295" lon="2.49126">
        <ele>98.4</ele>
        <time>2023-07-19T08:42:42Z</time>
      </trkpt>
      <trkpt lat="49.84295" lon="2.49124">
        <ele>98.5</ele>
        <time>2023-07-19T08:42:43Z</time>
      </trkpt>
      <trkpt lat="49.84294" lon="2.49122">
        <ele>98.5</ele>
        <time>2023-07-19T08:42:44Z</time>
      </trkpt>
      <trkpt lat="49.84294" lon="2.4912">
        <ele>98.5</ele>
        <time>2023-07-19T08:42:45Z</time>
      </trkpt>
      <trkpt lat="49.84294" lon="2.49116">
        <ele>98.5</ele>
        <time>2023-07-19T08:42:46Z</time>
      </trkpt>
      <trkpt lat="49.84293" lon="2.49114">
        <ele>98.5</ele>
        <time>2023-07-19T08:42:47Z</time>
      </trkpt>
      <trkpt lat="49.84293" lon="2.49113">
        <ele>98.6</ele>
        <time>2023-07-19T08:42:49Z</time>
      </trkpt>
      <trkpt lat="49.84293" lon="2.49111">
        <ele>98.6</ele>
        <time>2023-07-19T08:42:51Z</time>
      </trkpt>
      <trkpt lat="49.84293" lon="2.49109">
        <ele>98.6</ele>
        <time>2023-07-19T08:42:52Z</time>
      </trkpt>
      <trkpt lat="49.84292" lon="2.49107">
        <ele>98.6</ele>
        <time>2023-07-19T08:42:53Z</time>
      </trkpt>
      <trkpt lat="49.84292" lon="2.49105">
        <ele>98.6</ele>
        <time>2023-07-19T08:42:54Z</time>
      </trkpt>
      <trkpt lat="49.84292" lon="2.49102">
        <ele>98.7</ele>
        <time>2023-07-19T08:42:56Z</time>
      </trkpt>
      <trkpt lat="49.84291" lon="2.49099">
        <ele>98.7</ele>
        <time>2023-07-19T08:42:57Z</time>
      </trkpt>
      <trkpt lat="49.84291" lon="2.49097">
        <ele>98.7</ele>
        <time>2023-07-19T08:42:59Z</time>
      </trkpt>
      <trkpt lat="49.84291" lon="2.49095">
        <ele>98.7</ele>
        <time>2023-07-19T08:43:00Z</time>
      </trkpt>
      <trkpt lat="49.84291" lon="2.49094">
        <ele>98.7</ele>
        <time>2023-07-19T08:43:01Z</time>
      </trkpt>
      <trkpt lat="49.84291" lon="2.49092">
        <ele>98.7</ele>
        <time>2023-07-19T08:43:02Z</time>
      </trkpt>
      <trkpt lat="49.8429" lon="2.4909">
        <ele>98.7</ele>
        <time>2023-07-19T08:43:03Z</time>
      </trkpt>
      <trkpt lat="49.8429" lon="2.49089">
        <ele>98.7</ele>
        <time>2023-07-19T08:43:04Z</time>
      </trkpt>
      <trkpt lat="49.8429" lon="2.49087">
        <ele>98.7</ele>
        <time>2023-07-19T08:43:06Z</time>
      </trkpt>
      <trkpt lat="49.8429" lon="2.49086">
        <ele>98.7</ele>
        <time>2023-07-19T08:43:07Z</time>
      </trkpt>
      <trkpt lat="49.84289" lon="2.49084">
        <ele>98.7</ele>
        <time>2023-07-19T08:43:08Z</time>
      </trkpt>
      <trkpt lat="49.84289" lon="2.49082">
        <ele>98.8</ele>
        <time>2023-07-19T08:43:09Z</time>
      </trkpt>
      <trkpt lat="49.84289" lon="2.49081">
        <ele>98.8</ele>
        <time>2023-07-19T08:43:10Z</time>
      </trkpt>
      <trkpt lat="49.84288" lon="2.49077">
        <ele>98.8</ele>
        <time>2023-07-19T08:43:12Z</time>
      </trkpt>
      <trkpt lat="49.84288" lon="2.49073">
        <ele>98.8</ele>
        <time>2023-07-19T08:43:14Z</time>
      </trkpt>
      <trkpt lat="49.84288" lon="2.49072">
        <ele>98.8</ele>
        <time>2023-07-19T08:43:15Z</time>
      </trkpt>
      <trkpt lat="49.84288" lon="2.49071">
        <ele>98.8</ele>
        <time>2023-07-19T08:43:16Z</time>
      </trkpt>
      <trkpt lat="49.84287" lon="2.49068">
        <ele>98.8</ele>
        <time>2023-07-19T08:43:17Z</time>
      </trkpt>
      <trkpt lat="49.84287" lon="2.49067">
        <ele>98.8</ele>
        <time>2023-07-19T08:43:18Z</time>
      </trkpt>
      <trkpt lat="49.84287" lon="2.49065">
        <ele>98.8</ele>
        <time>2023-07-19T08:43:19Z</time>
      </trkpt>
      <trkpt lat="49.84287" lon="2.49062">
        <ele>98.8</ele>
        <time>2023-07-19T08:43:20Z</time>
      </trkpt>
      <trkpt lat="49.84286" lon="2.49061">
        <ele>98.8</ele>
        <time>2023-07-19T08:43:22Z</time>
      </trkpt>
      <trkpt lat="49.84286" lon="2.49059">
        <ele>98.8</ele>
        <time>2023-07-19T08:43:23Z</time>
      </trkpt>
      <trkpt lat="49.84286" lon="2.49057">
        <ele>98.8</ele>
        <time>2023-07-19T08:43:24Z</time>
      </trkpt>
      <trkpt lat="49.84286" lon="2.49053">
        <ele>98.8</ele>
        <time>2023-07-19T08:43:26Z</time>
      </trkpt>
      <trkpt lat="49.84285" lon="2.49052">
        <ele>98.8</ele>
        <time>2023-07-19T08:43:27Z</time>
      </trkpt>
      <trkpt lat="49.84285" lon="2.49048">
        <ele>98.9</ele>
        <time>2023-07-19T08:43:29Z</time>
      </trkpt>
      <trkpt lat="49.84284" lon="2.49046">
        <ele>98.9</ele>
        <time>2023-07-19T08:43:30Z</time>
      </trkpt>
      <trkpt lat="49.84284" lon="2.49043">
        <ele>98.9</ele>
        <time>2023-07-19T08:43:32Z</time>
      </trkpt>
      <trkpt lat="49.84283" lon="2.49039">
        <ele>98.9</ele>
        <time>2023-07-19T08:43:33Z</time>
      </trkpt>
      <trkpt lat="49.84283" lon="2.49037">
        <ele>98.9</ele>
        <time>2023-07-19T08:43:35Z</time>
      </trkpt>
      <trkpt lat="49.84282" lon="2.49036">
        <ele>98.9</ele>
        <time>2023-07-19T08:43:36Z</time>
      </trkpt>
      <trkpt lat="49.84282" lon="2.49033">
        <ele>98.9</ele>
        <time>2023-07-19T08:43:37Z</time>
      </trkpt>
      <trkpt lat="49.84282" lon="2.49032">
        <ele>98.9</ele>
        <time>2023-07-19T08:43:38Z</time>
      </trkpt>
      <trkpt lat="49.84281" lon="2.49028">
        <ele>99</ele>
        <time>2023-07-19T08:43:40Z</time>
      </trkpt>
      <trkpt lat="49.84281" lon="2.49027">
        <ele>99</ele>
        <time>2023-07-19T08:43:42Z</time>
      </trkpt>
      <trkpt lat="49.84281" lon="2.49025">
        <ele>99</ele>
        <time>2023-07-19T08:43:43Z</time>
      </trkpt>
      <trkpt lat="49.84281" lon="2.49023">
        <ele>99</ele>
        <time>2023-07-19T08:43:44Z</time>
      </trkpt>
      <trkpt lat="49.8428" lon="2.49021">
        <ele>99</ele>
        <time>2023-07-19T08:43:45Z</time>
      </trkpt>
      <trkpt lat="49.8428" lon="2.4902">
        <ele>99</ele>
        <time>2023-07-19T08:43:46Z</time>
      </trkpt>
      <trkpt lat="49.84279" lon="2.49018">
        <ele>99</ele>
        <time>2023-07-19T08:43:47Z</time>
      </trkpt>
      <trkpt lat="49.84279" lon="2.49017">
        <ele>99</ele>
        <time>2023-07-19T08:43:48Z</time>
      </trkpt>
      <trkpt lat="49.84278" lon="2.49014">
        <ele>99</ele>
        <time>2023-07-19T08:43:50Z</time>
      </trkpt>
      <trkpt lat="49.84278" lon="2.49013">
        <ele>99</ele>
        <time>2023-07-19T08:43:51Z</time>
      </trkpt>
      <trkpt lat="49.84277" lon="2.49012">
        <ele>99</ele>
        <time>2023-07-19T08:43:52Z</time>
      </trkpt>
      <trkpt lat="49.84277" lon="2.4901">
        <ele>99</ele>
        <time>2023-07-19T08:43:53Z</time>
      </trkpt>
      <trkpt lat="49.84276" lon="2.49008">
        <ele>99</ele>
        <time>2023-07-19T08:43:54Z</time>
      </trkpt>
      <trkpt lat="49.84276" lon="2.49007">
        <ele>99.1</ele>
        <time>2023-07-19T08:43:56Z</time>
      </trkpt>
      <trkpt lat="49.84276" lon="2.49004">
        <ele>99.1</ele>
        <time>2023-07-19T08:43:57Z</time>
      </trkpt>
      <trkpt lat="49.84276" lon="2.49002">
        <ele>99.1</ele>
        <time>2023-07-19T08:43:58Z</time>
      </trkpt>
      <trkpt lat="49.84275" lon="2.49001">
        <ele>99.1</ele>
        <time>2023-07-19T08:43:59Z</time>
      </trkpt>
      <trkpt lat="49.84275" lon="2.48997">
        <ele>99.1</ele>
        <time>2023-07-19T08:44:00Z</time>
      </trkpt>
      <trkpt lat="49.84275" lon="2.48996">
        <ele>99.1</ele>
        <time>2023-07-19T08:44:01Z</time>
      </trkpt>
      <trkpt lat="49.84275" lon="2.48995">
        <ele>99.1</ele>
        <time>2023-07-19T08:44:02Z</time>
      </trkpt>
      <trkpt lat="49.84275" lon="2.48993">
        <ele>99.1</ele>
        <time>2023-07-19T08:44:03Z</time>
      </trkpt>
      <trkpt lat="49.84274" lon="2.48989">
        <ele>99.1</ele>
        <time>2023-07-19T08:44:05Z</time>
      </trkpt>
      <trkpt lat="49.84274" lon="2.48987">
        <ele>99.1</ele>
        <time>2023-07-19T08:44:07Z</time>
      </trkpt>
      <trkpt lat="49.84273" lon="2.48985">
        <ele>99.1</ele>
        <time>2023-07-19T08:44:08Z</time>
      </trkpt>
      <trkpt lat="49.84273" lon="2.48983">
        <ele>99.1</ele>
        <time>2023-07-19T08:44:09Z</time>
      </trkpt>
      <trkpt lat="49.84273" lon="2.48981">
        <ele>99.1</ele>
        <time>2023-07-19T08:44:10Z</time>
      </trkpt>
      <trkpt lat="49.84272" lon="2.48977">
        <ele>99.1</ele>
        <time>2023-07-19T08:44:11Z</time>
      </trkpt>
      <trkpt lat="49.84272" lon="2.48976">
        <ele>99.1</ele>
        <time>2023-07-19T08:44:12Z</time>
      </trkpt>
      <trkpt lat="49.84272" lon="2.48975">
        <ele>99.1</ele>
        <time>2023-07-19T08:44:13Z</time>
      </trkpt>
      <trkpt lat="49.84271" lon="2.48972">
        <ele>99.2</ele>
        <time>2023-07-19T08:44:15Z</time>
      </trkpt>
      <trkpt lat="49.84271" lon="2.4897">
        <ele>99.2</ele>
        <time>2023-07-19T08:44:17Z</time>
      </trkpt>
      <trkpt lat="49.84271" lon="2.48968">
        <ele>99.2</ele>
        <time>2023-07-19T08:44:18Z</time>
      </trkpt>
      <trkpt lat="49.8427" lon="2.48966">
        <ele>99.2</ele>
        <time>2023-07-19T08:44:19Z</time>
      </trkpt>
      <trkpt lat="49.8427" lon="2.48962">
        <ele>99.2</ele>
        <time>2023-07-19T08:44:20Z</time>
      </trkpt>
      <trkpt lat="49.8427" lon="2.48961">
        <ele>99.2</ele>
        <time>2023-07-19T08:44:21Z</time>
      </trkpt>
      <trkpt lat="49.84269" lon="2.4896">
        <ele>99.2</ele>
        <time>2023-07-19T08:44:22Z</time>
      </trkpt>
      <trkpt lat="49.84269" lon="2.48958">
        <ele>99.3</ele>
        <time>2023-07-19T08:44:23Z</time>
      </trkpt>
      <trkpt lat="49.84269" lon="2.48956">
        <ele>99.3</ele>
        <time>2023-07-19T08:44:25Z</time>
      </trkpt>
      <trkpt lat="49.84268" lon="2.48954">
        <ele>99.3</ele>
        <time>2023-07-19T08:44:26Z</time>
      </trkpt>
      <trkpt lat="49.84268" lon="2.48953">
        <ele>99.3</ele>
        <time>2023-07-19T08:44:27Z</time>
      </trkpt>
      <trkpt lat="49.84268" lon="2.48951">
        <ele>99.3</ele>
        <time>2023-07-19T08:44:28Z</time>
      </trkpt>
      <trkpt lat="49.84268" lon="2.48949">
        <ele>99.3</ele>
        <time>2023-07-19T08:44:29Z</time>
      </trkpt>
      <trkpt lat="49.84267" lon="2.48947">
        <ele>99.3</ele>
        <time>2023-07-19T08:44:30Z</time>
      </trkpt>
      <trkpt lat="49.84267" lon="2.48945">
        <ele>99.4</ele>
        <time>2023-07-19T08:44:31Z</time>
      </trkpt>
      <trkpt lat="49.84267" lon="2.48943">
        <ele>99.4</ele>
        <time>2023-07-19T08:44:33Z</time>
      </trkpt>
      <trkpt lat="49.84266" lon="2.48939">
        <ele>99.4</ele>
        <time>2023-07-19T08:44:34Z</time>
      </trkpt>
      <trkpt lat="49.84265" lon="2.48938">
        <ele>99.4</ele>
        <time>2023-07-19T08:44:36Z</time>
      </trkpt>
      <trkpt lat="49.84265" lon="2.48936">
        <ele>99.4</ele>
        <time>2023-07-19T08:44:37Z</time>
      </trkpt>
      <trkpt lat="49.84264" lon="2.48935">
        <ele>99.4</ele>
        <time>2023-07-19T08:44:38Z</time>
      </trkpt>
      <trkpt lat="49.84264" lon="2.48933">
        <ele>99.5</ele>
        <time>2023-07-19T08:44:39Z</time>
      </trkpt>
      <trkpt lat="49.84264" lon="2.48931">
        <ele>99.5</ele>
        <time>2023-07-19T08:44:40Z</time>
      </trkpt>
      <trkpt lat="49.84263" lon="2.48929">
        <ele>99.5</ele>
        <time>2023-07-19T08:44:41Z</time>
      </trkpt>
      <trkpt lat="49.84263" lon="2.48926">
        <ele>99.5</ele>
        <time>2023-07-19T08:44:43Z</time>
      </trkpt>
      <trkpt lat="49.84263" lon="2.48925">
        <ele>99.5</ele>
        <time>2023-07-19T08:44:44Z</time>
      </trkpt>
      <trkpt lat="49.84262" lon="2.48923">
        <ele>99.5</ele>
        <time>2023-07-19T08:44:45Z</time>
      </trkpt>
      <trkpt lat="49.84262" lon="2.4892">
        <ele>99.6</ele>
        <time>2023-07-19T08:44:46Z</time>
      </trkpt>
      <trkpt lat="49.84262" lon="2.48919">
        <ele>99.6</ele>
        <time>2023-07-19T08:44:47Z</time>
      </trkpt>
      <trkpt lat="49.84262" lon="2.48918">
        <ele>99.6</ele>
        <time>2023-07-19T08:44:48Z</time>
      </trkpt>
      <trkpt lat="49.84261" lon="2.48916">
        <ele>99.6</ele>
        <time>2023-07-19T08:44:49Z</time>
      </trkpt>
      <trkpt lat="49.84261" lon="2.48914">
        <ele>99.6</ele>
        <time>2023-07-19T08:44:50Z</time>
      </trkpt>
      <trkpt lat="49.84261" lon="2.4891">
        <ele>99.6</ele>
        <time>2023-07-19T08:44:52Z</time>
      </trkpt>
      <trkpt lat="49.8426" lon="2.48907">
        <ele>99.6</ele>
        <time>2023-07-19T08:44:53Z</time>
      </trkpt>
      <trkpt lat="49.8426" lon="2.48905">
        <ele>99.7</ele>
        <time>2023-07-19T08:44:55Z</time>
      </trkpt>
      <trkpt lat="49.8426" lon="2.48904">
        <ele>99.7</ele>
        <time>2023-07-19T08:44:56Z</time>
      </trkpt>
      <trkpt lat="49.84259" lon="2.48899">
        <ele>99.7</ele>
        <time>2023-07-19T08:44:58Z</time>
      </trkpt>
      <trkpt lat="49.84259" lon="2.48898">
        <ele>99.7</ele>
        <time>2023-07-19T08:44:59Z</time>
      </trkpt>
      <trkpt lat="49.84258" lon="2.48896">
        <ele>99.7</ele>
        <time>2023-07-19T08:45:01Z</time>
      </trkpt>
      <trkpt lat="49.84258" lon="2.48893">
        <ele>99.7</ele>
        <time>2023-07-19T08:45:02Z</time>
      </trkpt>
      <trkpt lat="49.84257" lon="2.48891">
        <ele>99.7</ele>
        <time>2023-07-19T08:45:03Z</time>
      </trkpt>
      <trkpt lat="49.84257" lon="2.48889">
        <ele>99.8</ele>
        <time>2023-07-19T08:45:05Z</time>
      </trkpt>
      <trkpt lat="49.84256" lon="2.48886">
        <ele>99.8</ele>
        <time>2023-07-19T08:45:06Z</time>
      </trkpt>
      <trkpt lat="49.84255" lon="2.48883">
        <ele>99.8</ele>
        <time>2023-07-19T08:45:08Z</time>
      </trkpt>
      <trkpt lat="49.84255" lon="2.48881">
        <ele>99.8</ele>
        <time>2023-07-19T08:45:09Z</time>
      </trkpt>
      <trkpt lat="49.84254" lon="2.48878">
        <ele>99.8</ele>
        <time>2023-07-19T08:45:11Z</time>
      </trkpt>
      <trkpt lat="49.84254" lon="2.48876">
        <ele>99.8</ele>
        <time>2023-07-19T08:45:12Z</time>
      </trkpt>
      <trkpt lat="49.84254" lon="2.48873">
        <ele>99.8</ele>
        <time>2023-07-19T08:45:14Z</time>
      </trkpt>
      <trkpt lat="49.84254" lon="2.4887">
        <ele>99.8</ele>
        <time>2023-07-19T08:45:15Z</time>
      </trkpt>
      <trkpt lat="49.84253" lon="2.48868">
        <ele>99.8</ele>
        <time>2023-07-19T08:45:17Z</time>
      </trkpt>
      <trkpt lat="49.84253" lon="2.48867">
        <ele>99.8</ele>
        <time>2023-07-19T08:45:18Z</time>
      </trkpt>
      <trkpt lat="49.84253" lon="2.48864">
        <ele>99.8</ele>
        <time>2023-07-19T08:45:19Z</time>
      </trkpt>
      <trkpt lat="49.84253" lon="2.48862">
        <ele>99.8</ele>
        <time>2023-07-19T08:45:20Z</time>
      </trkpt>
      <trkpt lat="49.84253" lon="2.4886">
        <ele>99.8</ele>
        <time>2023-07-19T08:45:21Z</time>
      </trkpt>
      <trkpt lat="49.84252" lon="2.48858">
        <ele>99.8</ele>
        <time>2023-07-19T08:45:23Z</time>
      </trkpt>
      <trkpt lat="49.84252" lon="2.48854">
        <ele>99.8</ele>
        <time>2023-07-19T08:45:25Z</time>
      </trkpt>
      <trkpt lat="49.84252" lon="2.48852">
        <ele>99.8</ele>
        <time>2023-07-19T08:45:26Z</time>
      </trkpt>
      <trkpt lat="49.84252" lon="2.48849">
        <ele>99.8</ele>
        <time>2023-07-19T08:45:27Z</time>
      </trkpt>
      <trkpt lat="49.84252" lon="2.48848">
        <ele>99.8</ele>
        <time>2023-07-19T08:45:28Z</time>
      </trkpt>
      <trkpt lat="49.84251" lon="2.48846">
        <ele>99.8</ele>
        <time>2023-07-19T08:45:29Z</time>
      </trkpt>
      <trkpt lat="49.84251" lon="2.48844">
        <ele>99.8</ele>
        <time>2023-07-19T08:45:30Z</time>
      </trkpt>
      <trkpt lat="49.84251" lon="2.48842">
        <ele>99.8</ele>
        <time>2023-07-19T08:45:31Z</time>
      </trkpt>
      <trkpt lat="49.84251" lon="2.48839">
        <ele>99.8</ele>
        <time>2023-07-19T08:45:33Z</time>
      </trkpt>
      <trkpt lat="49.84251" lon="2.48837">
        <ele>99.8</ele>
        <time>2023-07-19T08:45:34Z</time>
      </trkpt>
      <trkpt lat="49.84251" lon="2.48833">
        <ele>99.8</ele>
        <time>2023-07-19T08:45:36Z</time>
      </trkpt>
      <trkpt lat="49.8425" lon="2.48832">
        <ele>99.8</ele>
        <time>2023-07-19T08:45:37Z</time>
      </trkpt>
      <trkpt lat="49.8425" lon="2.48831">
        <ele>99.8</ele>
        <time>2023-07-19T08:45:38Z</time>
      </trkpt>
      <trkpt lat="49.8425" lon="2.48829">
        <ele>99.8</ele>
        <time>2023-07-19T08:45:39Z</time>
      </trkpt>
      <trkpt lat="49.8425" lon="2.48826">
        <ele>99.8</ele>
        <time>2023-07-19T08:45:40Z</time>
      </trkpt>
      <trkpt lat="49.8425" lon="2.48824">
        <ele>99.8</ele>
        <time>2023-07-19T08:45:41Z</time>
      </trkpt>
      <trkpt lat="49.8425" lon="2.48821">
        <ele>99.8</ele>
        <time>2023-07-19T08:45:43Z</time>
      </trkpt>
      <trkpt lat="49.8425" lon="2.48818">
        <ele>99.9</ele>
        <time>2023-07-19T08:45:44Z</time>
      </trkpt>
      <trkpt lat="49.84249" lon="2.48816">
        <ele>99.9</ele>
        <time>2023-07-19T08:45:46Z</time>
      </trkpt>
      <trkpt lat="49.84249" lon="2.48814">
        <ele>99.9</ele>
        <time>2023-07-19T08:45:47Z</time>
      </trkpt>
      <trkpt lat="49.84249" lon="2.48812">
        <ele>99.9</ele>
        <time>2023-07-19T08:45:48Z</time>
      </trkpt>
      <trkpt lat="49.84248" lon="2.48806">
        <ele>99.9</ele>
        <time>2023-07-19T08:45:50Z</time>
      </trkpt>
      <trkpt lat="49.84248" lon="2.48804">
        <ele>99.9</ele>
        <time>2023-07-19T08:45:52Z</time>
      </trkpt>
      <trkpt lat="49.84247" lon="2.48802">
        <ele>99.9</ele>
        <time>2023-07-19T08:45:53Z</time>
      </trkpt>
      <trkpt lat="49.84247" lon="2.48798">
        <ele>99.9</ele>
        <time>2023-07-19T08:45:54Z</time>
      </trkpt>
      <trkpt lat="49.84247" lon="2.48797">
        <ele>99.9</ele>
        <time>2023-07-19T08:45:56Z</time>
      </trkpt>
      <trkpt lat="49.84247" lon="2.48796">
        <ele>99.9</ele>
        <time>2023-07-19T08:45:57Z</time>
      </trkpt>
      <trkpt lat="49.84246" lon="2.48793">
        <ele>99.9</ele>
        <time>2023-07-19T08:45:58Z</time>
      </trkpt>
      <trkpt lat="49.84246" lon="2.48791">
        <ele>99.9</ele>
        <time>2023-07-19T08:45:59Z</time>
      </trkpt>
      <trkpt lat="49.84246" lon="2.4879">
        <ele>99.9</ele>
        <time>2023-07-19T08:46:00Z</time>
      </trkpt>
      <trkpt lat="49.84246" lon="2.48788">
        <ele>99.9</ele>
        <time>2023-07-19T08:46:01Z</time>
      </trkpt>
      <trkpt lat="49.84245" lon="2.48786">
        <ele>99.9</ele>
        <time>2023-07-19T08:46:02Z</time>
      </trkpt>
      <trkpt lat="49.84245" lon="2.48785">
        <ele>100</ele>
        <time>2023-07-19T08:46:04Z</time>
      </trkpt>
      <trkpt lat="49.84244" lon="2.48783">
        <ele>100</ele>
        <time>2023-07-19T08:46:05Z</time>
      </trkpt>
      <trkpt lat="49.84244" lon="2.48781">
        <ele>100</ele>
        <time>2023-07-19T08:46:06Z</time>
      </trkpt>
      <trkpt lat="49.84244" lon="2.4878">
        <ele>100</ele>
        <time>2023-07-19T08:46:07Z</time>
      </trkpt>
      <trkpt lat="49.84243" lon="2.48778">
        <ele>100</ele>
        <time>2023-07-19T08:46:08Z</time>
      </trkpt>
      <trkpt lat="49.84243" lon="2.48776">
        <ele>100</ele>
        <time>2023-07-19T08:46:09Z</time>
      </trkpt>
      <trkpt lat="49.84242" lon="2.48774">
        <ele>100</ele>
        <time>2023-07-19T08:46:10Z</time>
      </trkpt>
      <trkpt lat="49.84241" lon="2.48772">
        <ele>100</ele>
        <time>2023-07-19T08:46:12Z</time>
      </trkpt>
      <trkpt lat="49.84241" lon="2.48771">
        <ele>100</ele>
        <time>2023-07-19T08:46:13Z</time>
      </trkpt>
      <trkpt lat="49.8424" lon="2.48769">
        <ele>100</ele>
        <time>2023-07-19T08:46:14Z</time>
      </trkpt>
      <trkpt lat="49.84239" lon="2.48767">
        <ele>100</ele>
        <time>2023-07-19T08:46:15Z</time>
      </trkpt>
      <trkpt lat="49.84238" lon="2.48764">
        <ele>100</ele>
        <time>2023-07-19T08:46:16Z</time>
      </trkpt>
      <trkpt lat="49.84238" lon="2.48763">
        <ele>100</ele>
        <time>2023-07-19T08:46:17Z</time>
      </trkpt>
      <trkpt lat="49.84238" lon="2.48762">
        <ele>100</ele>
        <time>2023-07-19T08:46:18Z</time>
      </trkpt>
      <trkpt lat="49.84237" lon="2.4876">
        <ele>100</ele>
        <time>2023-07-19T08:46:19Z</time>
      </trkpt>
      <trkpt lat="49.84237" lon="2.48759">
        <ele>100</ele>
        <time>2023-07-19T08:46:21Z</time>
      </trkpt>
      <trkpt lat="49.84236" lon="2.48757">
        <ele>100</ele>
        <time>2023-07-19T08:46:22Z</time>
      </trkpt>
      <trkpt lat="49.84236" lon="2.48755">
        <ele>100.1</ele>
        <time>2023-07-19T08:46:23Z</time>
      </trkpt>
      <trkpt lat="49.84236" lon="2.48753">
        <ele>100.1</ele>
        <time>2023-07-19T08:46:24Z</time>
      </trkpt>
      <trkpt lat="49.84235" lon="2.48752">
        <ele>100.1</ele>
        <time>2023-07-19T08:46:25Z</time>
      </trkpt>
      <trkpt lat="49.84235" lon="2.4875">
        <ele>100.1</ele>
        <time>2023-07-19T08:46:26Z</time>
      </trkpt>
      <trkpt lat="49.84235" lon="2.48749">
        <ele>100.1</ele>
        <time>2023-07-19T08:46:28Z</time>
      </trkpt>
      <trkpt lat="49.84234" lon="2.48747">
        <ele>100.1</ele>
        <time>2023-07-19T08:46:29Z</time>
      </trkpt>
      <trkpt lat="49.84234" lon="2.48744">
        <ele>100.1</ele>
        <time>2023-07-19T08:46:30Z</time>
      </trkpt>
      <trkpt lat="49.84234" lon="2.48743">
        <ele>100.1</ele>
        <time>2023-07-19T08:46:31Z</time>
      </trkpt>
      <trkpt lat="49.84233" lon="2.48741">
        <ele>100.1</ele>
        <time>2023-07-19T08:46:32Z</time>
      </trkpt>
      <trkpt lat="49.84233" lon="2.48738">
        <ele>100.1</ele>
        <time>2023-07-19T08:46:33Z</time>
      </trkpt>
      <trkpt lat="49.84232" lon="2.48737">
        <ele>100.1</ele>
        <time>2023-07-19T08:46:34Z</time>
      </trkpt>
      <trkpt lat="49.84232" lon="2.48736">
        <ele>100.1</ele>
        <time>2023-07-19T08:46:35Z</time>
      </trkpt>
      <trkpt lat="49.84232" lon="2.48731">
        <ele>100.1</ele>
        <time>2023-07-19T08:46:37Z</time>
      </trkpt>
      <trkpt lat="49.84232" lon="2.4873">
        <ele>100.1</ele>
        <time>2023-07-19T08:46:39Z</time>
      </trkpt>
      <trkpt lat="49.84231" lon="2.48728">
        <ele>100.1</ele>
        <time>2023-07-19T08:46:40Z</time>
      </trkpt>
      <trkpt lat="49.84231" lon="2.48727">
        <ele>100.2</ele>
        <time>2023-07-19T08:46:41Z</time>
      </trkpt>
      <trkpt lat="49.84231" lon="2.48726">
        <ele>100.2</ele>
        <time>2023-07-19T08:46:42Z</time>
      </trkpt>
      <trkpt lat="49.84231" lon="2.48722">
        <ele>100.2</ele>
        <time>2023-07-19T08:46:43Z</time>
      </trkpt>
      <trkpt lat="49.84231" lon="2.48721">
        <ele>100.2</ele>
        <time>2023-07-19T08:46:44Z</time>
      </trkpt>
      <trkpt lat="49.8423" lon="2.4872">
        <ele>100.2</ele>
        <time>2023-07-19T08:46:45Z</time>
      </trkpt>
      <trkpt lat="49.8423" lon="2.48716">
        <ele>100.2</ele>
        <time>2023-07-19T08:46:47Z</time>
      </trkpt>
      <trkpt lat="49.8423" lon="2.48715">
        <ele>100.2</ele>
        <time>2023-07-19T08:46:48Z</time>
      </trkpt>
      <trkpt lat="49.8423" lon="2.48714">
        <ele>100.2</ele>
        <time>2023-07-19T08:46:49Z</time>
      </trkpt>
      <trkpt lat="49.8423" lon="2.4871">
        <ele>100.2</ele>
        <time>2023-07-19T08:46:50Z</time>
      </trkpt>
      <trkpt lat="49.8423" lon="2.48709">
        <ele>100.2</ele>
        <time>2023-07-19T08:46:51Z</time>
      </trkpt>
      <trkpt lat="49.84229" lon="2.48708">
        <ele>100.3</ele>
        <time>2023-07-19T08:46:52Z</time>
      </trkpt>
      <trkpt lat="49.84229" lon="2.48703">
        <ele>100.3</ele>
        <time>2023-07-19T08:46:55Z</time>
      </trkpt>
      <trkpt lat="49.84229" lon="2.48701">
        <ele>100.3</ele>
        <time>2023-07-19T08:46:57Z</time>
      </trkpt>
      <trkpt lat="49.84228" lon="2.48698">
        <ele>100.3</ele>
        <time>2023-07-19T08:46:58Z</time>
      </trkpt>
      <trkpt lat="49.84228" lon="2.48696">
        <ele>100.3</ele>
        <time>2023-07-19T08:46:59Z</time>
      </trkpt>
      <trkpt lat="49.84228" lon="2.48694">
        <ele>100.3</ele>
        <time>2023-07-19T08:47:00Z</time>
      </trkpt>
      <trkpt lat="49.84228" lon="2.48692">
        <ele>100.3</ele>
        <time>2023-07-19T08:47:01Z</time>
      </trkpt>
      <trkpt lat="49.84227" lon="2.4869">
        <ele>100.4</ele>
        <time>2023-07-19T08:47:02Z</time>
      </trkpt>
      <trkpt lat="49.84227" lon="2.48687">
        <ele>100.4</ele>
        <time>2023-07-19T08:47:04Z</time>
      </trkpt>
      <trkpt lat="49.84227" lon="2.48685">
        <ele>100.4</ele>
        <time>2023-07-19T08:47:05Z</time>
      </trkpt>
      <trkpt lat="49.84226" lon="2.4868">
        <ele>100.4</ele>
        <time>2023-07-19T08:47:07Z</time>
      </trkpt>
      <trkpt lat="49.84226" lon="2.48679">
        <ele>100.4</ele>
        <time>2023-07-19T08:47:08Z</time>
      </trkpt>
      <trkpt lat="49.84226" lon="2.48677">
        <ele>100.4</ele>
        <time>2023-07-19T08:47:10Z</time>
      </trkpt>
      <trkpt lat="49.84225" lon="2.48674">
        <ele>100.4</ele>
        <time>2023-07-19T08:47:11Z</time>
      </trkpt>
      <trkpt lat="49.84225" lon="2.48673">
        <ele>100.4</ele>
        <time>2023-07-19T08:47:12Z</time>
      </trkpt>
      <trkpt lat="49.84225" lon="2.48671">
        <ele>100.4</ele>
        <time>2023-07-19T08:47:14Z</time>
      </trkpt>
      <trkpt lat="49.84225" lon="2.48669">
        <ele>100.5</ele>
        <time>2023-07-19T08:47:15Z</time>
      </trkpt>
      <trkpt lat="49.84224" lon="2.48665">
        <ele>100.5</ele>
        <time>2023-07-19T08:47:17Z</time>
      </trkpt>
      <trkpt lat="49.84224" lon="2.48663">
        <ele>100.5</ele>
        <time>2023-07-19T08:47:19Z</time>
      </trkpt>
      <trkpt lat="49.84223" lon="2.4866">
        <ele>100.5</ele>
        <time>2023-07-19T08:47:20Z</time>
      </trkpt>
      <trkpt lat="49.84223" lon="2.48658">
        <ele>100.5</ele>
        <time>2023-07-19T08:47:21Z</time>
      </trkpt>
      <trkpt lat="49.84223" lon="2.48657">
        <ele>100.5</ele>
        <time>2023-07-19T08:47:22Z</time>
      </trkpt>
      <trkpt lat="49.84222" lon="2.48654">
        <ele>100.5</ele>
        <time>2023-07-19T08:47:23Z</time>
      </trkpt>
      <trkpt lat="49.84222" lon="2.48653">
        <ele>100.5</ele>
        <time>2023-07-19T08:47:24Z</time>
      </trkpt>
      <trkpt lat="49.84222" lon="2.48651">
        <ele>100.5</ele>
        <time>2023-07-19T08:47:25Z</time>
      </trkpt>
      <trkpt lat="49.84222" lon="2.48648">
        <ele>100.5</ele>
        <time>2023-07-19T08:47:27Z</time>
      </trkpt>
      <trkpt lat="49.84221" lon="2.48647">
        <ele>100.5</ele>
        <time>2023-07-19T08:47:28Z</time>
      </trkpt>
      <trkpt lat="49.84221" lon="2.48646">
        <ele>100.5</ele>
        <time>2023-07-19T08:47:29Z</time>
      </trkpt>
      <trkpt lat="49.84221" lon="2.48643">
        <ele>100.5</ele>
        <time>2023-07-19T08:47:30Z</time>
      </trkpt>
      <trkpt lat="49.8422" lon="2.48642">
        <ele>100.5</ele>
        <time>2023-07-19T08:47:31Z</time>
      </trkpt>
      <trkpt lat="49.8422" lon="2.4864">
        <ele>100.5</ele>
        <time>2023-07-19T08:47:32Z</time>
      </trkpt>
      <trkpt lat="49.8422" lon="2.48637">
        <ele>100.5</ele>
        <time>2023-07-19T08:47:33Z</time>
      </trkpt>
      <trkpt lat="49.8422" lon="2.48636">
        <ele>100.5</ele>
        <time>2023-07-19T08:47:35Z</time>
      </trkpt>
      <trkpt lat="49.84219" lon="2.48635">
        <ele>100.5</ele>
        <time>2023-07-19T08:47:36Z</time>
      </trkpt>
      <trkpt lat="49.84219" lon="2.48632">
        <ele>100.5</ele>
        <time>2023-07-19T08:47:37Z</time>
      </trkpt>
      <trkpt lat="49.84219" lon="2.48631">
        <ele>100.5</ele>
        <time>2023-07-19T08:47:38Z</time>
      </trkpt>
      <trkpt lat="49.84219" lon="2.48629">
        <ele>100.6</ele>
        <time>2023-07-19T08:47:39Z</time>
      </trkpt>
      <trkpt lat="49.84218" lon="2.48627">
        <ele>100.6</ele>
        <time>2023-07-19T08:47:40Z</time>
      </trkpt>
      <trkpt lat="49.84218" lon="2.48625">
        <ele>100.6</ele>
        <time>2023-07-19T08:47:41Z</time>
      </trkpt>
      <trkpt lat="49.84217" lon="2.48624">
        <ele>100.6</ele>
        <time>2023-07-19T08:47:43Z</time>
      </trkpt>
      <trkpt lat="49.84217" lon="2.48621">
        <ele>100.6</ele>
        <time>2023-07-19T08:47:44Z</time>
      </trkpt>
      <trkpt lat="49.84216" lon="2.48619">
        <ele>100.6</ele>
        <time>2023-07-19T08:47:45Z</time>
      </trkpt>
      <trkpt lat="49.84216" lon="2.48618">
        <ele>100.6</ele>
        <time>2023-07-19T08:47:46Z</time>
      </trkpt>
      <trkpt lat="49.84216" lon="2.48616">
        <ele>100.6</ele>
        <time>2023-07-19T08:47:47Z</time>
      </trkpt>
      <trkpt lat="49.84215" lon="2.48614">
        <ele>100.6</ele>
        <time>2023-07-19T08:47:48Z</time>
      </trkpt>
      <trkpt lat="49.84215" lon="2.48613">
        <ele>100.6</ele>
        <time>2023-07-19T08:47:49Z</time>
      </trkpt>
      <trkpt lat="49.84215" lon="2.48609">
        <ele>100.6</ele>
        <time>2023-07-19T08:47:50Z</time>
      </trkpt>
      <trkpt lat="49.84214" lon="2.48608">
        <ele>100.6</ele>
        <time>2023-07-19T08:47:51Z</time>
      </trkpt>
      <trkpt lat="49.84214" lon="2.48607">
        <ele>100.6</ele>
        <time>2023-07-19T08:47:52Z</time>
      </trkpt>
      <trkpt lat="49.84214" lon="2.48603">
        <ele>100.6</ele>
        <time>2023-07-19T08:47:54Z</time>
      </trkpt>
      <trkpt lat="49.84213" lon="2.48602">
        <ele>100.6</ele>
        <time>2023-07-19T08:47:55Z</time>
      </trkpt>
      <trkpt lat="49.84213" lon="2.48601">
        <ele>100.6</ele>
        <time>2023-07-19T08:47:56Z</time>
      </trkpt>
      <trkpt lat="49.84212" lon="2.48599">
        <ele>100.6</ele>
        <time>2023-07-19T08:47:58Z</time>
      </trkpt>
      <trkpt lat="49.84212" lon="2.48596">
        <ele>100.6</ele>
        <time>2023-07-19T08:47:59Z</time>
      </trkpt>
      <trkpt lat="49.84211" lon="2.48592">
        <ele>100.7</ele>
        <time>2023-07-19T08:48:01Z</time>
      </trkpt>
      <trkpt lat="49.84211" lon="2.4859">
        <ele>100.7</ele>
        <time>2023-07-19T08:48:03Z</time>
      </trkpt>
      <trkpt lat="49.84211" lon="2.48588">
        <ele>100.7</ele>
        <time>2023-07-19T08:48:05Z</time>
      </trkpt>
      <trkpt lat="49.8421" lon="2.48585">
        <ele>100.7</ele>
        <time>2023-07-19T08:48:06Z</time>
      </trkpt>
      <trkpt lat="49.8421" lon="2.48582">
        <ele>100.7</ele>
        <time>2023-07-19T08:48:07Z</time>
      </trkpt>
      <trkpt lat="49.8421" lon="2.48581">
        <ele>100.7</ele>
        <time>2023-07-19T08:48:08Z</time>
      </trkpt>
      <trkpt lat="49.84209" lon="2.4858">
        <ele>100.7</ele>
        <time>2023-07-19T08:48:09Z</time>
      </trkpt>
      <trkpt lat="49.84209" lon="2.48578">
        <ele>100.7</ele>
        <time>2023-07-19T08:48:10Z</time>
      </trkpt>
      <trkpt lat="49.84209" lon="2.48577">
        <ele>100.7</ele>
        <time>2023-07-19T08:48:11Z</time>
      </trkpt>
      <trkpt lat="49.84208" lon="2.48575">
        <ele>100.8</ele>
        <time>2023-07-19T08:48:13Z</time>
      </trkpt>
      <trkpt lat="49.84208" lon="2.48572">
        <ele>100.8</ele>
        <time>2023-07-19T08:48:14Z</time>
      </trkpt>
      <trkpt lat="49.84208" lon="2.4857">
        <ele>100.8</ele>
        <time>2023-07-19T08:48:15Z</time>
      </trkpt>
      <trkpt lat="49.84208" lon="2.48569">
        <ele>100.8</ele>
        <time>2023-07-19T08:48:16Z</time>
      </trkpt>
      <trkpt lat="49.84207" lon="2.48566">
        <ele>100.8</ele>
        <time>2023-07-19T08:48:17Z</time>
      </trkpt>
      <trkpt lat="49.84207" lon="2.48564">
        <ele>100.8</ele>
        <time>2023-07-19T08:48:19Z</time>
      </trkpt>
      <trkpt lat="49.84207" lon="2.48563">
        <ele>100.8</ele>
        <time>2023-07-19T08:48:20Z</time>
      </trkpt>
      <trkpt lat="49.84207" lon="2.4856">
        <ele>100.8</ele>
        <time>2023-07-19T08:48:21Z</time>
      </trkpt>
      <trkpt lat="49.84207" lon="2.48558">
        <ele>100.8</ele>
        <time>2023-07-19T08:48:22Z</time>
      </trkpt>
      <trkpt lat="49.84207" lon="2.48557">
        <ele>100.8</ele>
        <time>2023-07-19T08:48:23Z</time>
      </trkpt>
      <trkpt lat="49.84206" lon="2.48555">
        <ele>100.8</ele>
        <time>2023-07-19T08:48:24Z</time>
      </trkpt>
      <trkpt lat="49.84206" lon="2.48553">
        <ele>100.8</ele>
        <time>2023-07-19T08:48:25Z</time>
      </trkpt>
      <trkpt lat="49.84206" lon="2.48552">
        <ele>100.8</ele>
        <time>2023-07-19T08:48:26Z</time>
      </trkpt>
      <trkpt lat="49.84206" lon="2.4855">
        <ele>100.8</ele>
        <time>2023-07-19T08:48:28Z</time>
      </trkpt>
      <trkpt lat="49.84205" lon="2.48548">
        <ele>100.9</ele>
        <time>2023-07-19T08:48:29Z</time>
      </trkpt>
      <trkpt lat="49.84205" lon="2.48547">
        <ele>100.9</ele>
        <time>2023-07-19T08:48:30Z</time>
      </trkpt>
      <trkpt lat="49.84205" lon="2.48543">
        <ele>100.9</ele>
        <time>2023-07-19T08:48:32Z</time>
      </trkpt>
      <trkpt lat="49.84204" lon="2.48541">
        <ele>100.9</ele>
        <time>2023-07-19T08:48:33Z</time>
      </trkpt>
      <trkpt lat="49.84204" lon="2.48538">
        <ele>100.9</ele>
        <time>2023-07-19T08:48:34Z</time>
      </trkpt>
      <trkpt lat="49.84204" lon="2.48537">
        <ele>100.9</ele>
        <time>2023-07-19T08:48:36Z</time>
      </trkpt>
      <trkpt lat="49.84203" lon="2.48536">
        <ele>100.9</ele>
        <time>2023-07-19T08:48:37Z</time>
      </trkpt>
      <trkpt lat="49.84203" lon="2.48533">
        <ele>100.9</ele>
        <time>2023-07-19T08:48:38Z</time>
      </trkpt>
      <trkpt lat="49.84203" lon="2.48532">
        <ele>100.9</ele>
        <time>2023-07-19T08:48:39Z</time>
      </trkpt>
      <trkpt lat="49.84203" lon="2.4853">
        <ele>100.9</ele>
        <time>2023-07-19T08:48:40Z</time>
      </trkpt>
      <trkpt lat="49.84203" lon="2.48529">
        <ele>100.9</ele>
        <time>2023-07-19T08:48:41Z</time>
      </trkpt>
      <trkpt lat="49.84203" lon="2.48527">
        <ele>100.9</ele>
        <time>2023-07-19T08:48:42Z</time>
      </trkpt>
      <trkpt lat="49.84202" lon="2.48525">
        <ele>100.9</ele>
        <time>2023-07-19T08:48:44Z</time>
      </trkpt>
      <trkpt lat="49.84202" lon="2.48523">
        <ele>100.9</ele>
        <time>2023-07-19T08:48:45Z</time>
      </trkpt>
      <trkpt lat="49.84202" lon="2.48521">
        <ele>101</ele>
        <time>2023-07-19T08:48:46Z</time>
      </trkpt>
      <trkpt lat="49.84202" lon="2.4852">
        <ele>101</ele>
        <time>2023-07-19T08:48:47Z</time>
      </trkpt>
      <trkpt lat="49.84202" lon="2.48516">
        <ele>101</ele>
        <time>2023-07-19T08:48:48Z</time>
      </trkpt>
      <trkpt lat="49.84201" lon="2.48515">
        <ele>101</ele>
        <time>2023-07-19T08:48:49Z</time>
      </trkpt>
      <trkpt lat="49.84201" lon="2.48514">
        <ele>101</ele>
        <time>2023-07-19T08:48:50Z</time>
      </trkpt>
      <trkpt lat="49.84201" lon="2.48512">
        <ele>101</ele>
        <time>2023-07-19T08:48:51Z</time>
      </trkpt>
      <trkpt lat="49.84201" lon="2.48511">
        <ele>101</ele>
        <time>2023-07-19T08:48:53Z</time>
      </trkpt>
      <trkpt lat="49.842" lon="2.48509">
        <ele>101</ele>
        <time>2023-07-19T08:48:54Z</time>
      </trkpt>
      <trkpt lat="49.842" lon="2.48506">
        <ele>101.1</ele>
        <time>2023-07-19T08:48:55Z</time>
      </trkpt>
      <trkpt lat="49.842" lon="2.48504">
        <ele>101.1</ele>
        <time>2023-07-19T08:48:56Z</time>
      </trkpt>
      <trkpt lat="49.842" lon="2.48503">
        <ele>101.1</ele>
        <time>2023-07-19T08:48:57Z</time>
      </trkpt>
      <trkpt lat="49.84199" lon="2.48501">
        <ele>101.1</ele>
        <time>2023-07-19T08:48:58Z</time>
      </trkpt>
      <trkpt lat="49.84199" lon="2.48499">
        <ele>101.1</ele>
        <time>2023-07-19T08:48:59Z</time>
      </trkpt>
      <trkpt lat="49.84199" lon="2.48496">
        <ele>101.1</ele>
        <time>2023-07-19T08:49:01Z</time>
      </trkpt>
      <trkpt lat="49.84199" lon="2.48494">
        <ele>101.1</ele>
        <time>2023-07-19T08:49:02Z</time>
      </trkpt>
      <trkpt lat="49.84198" lon="2.48492">
        <ele>101.1</ele>
        <time>2023-07-19T08:49:04Z</time>
      </trkpt>
      <trkpt lat="49.84198" lon="2.48491">
        <ele>101.1</ele>
        <time>2023-07-19T08:49:05Z</time>
      </trkpt>
      <trkpt lat="49.84198" lon="2.48487">
        <ele>101.2</ele>
        <time>2023-07-19T08:49:06Z</time>
      </trkpt>
      <trkpt lat="49.84198" lon="2.48486">
        <ele>101.2</ele>
        <time>2023-07-19T08:49:07Z</time>
      </trkpt>
      <trkpt lat="49.84197" lon="2.48485">
        <ele>101.2</ele>
        <time>2023-07-19T08:49:08Z</time>
      </trkpt>
      <trkpt lat="49.84197" lon="2.48481">
        <ele>101.2</ele>
        <time>2023-07-19T08:49:09Z</time>
      </trkpt>
      <trkpt lat="49.84197" lon="2.48479">
        <ele>101.2</ele>
        <time>2023-07-19T08:49:11Z</time>
      </trkpt>
      <trkpt lat="49.84197" lon="2.48477">
        <ele>101.2</ele>
        <time>2023-07-19T08:49:13Z</time>
      </trkpt>
      <trkpt lat="49.84197" lon="2.48475">
        <ele>101.2</ele>
        <time>2023-07-19T08:49:14Z</time>
      </trkpt>
      <trkpt lat="49.84197" lon="2.48473">
        <ele>101.3</ele>
        <time>2023-07-19T08:49:15Z</time>
      </trkpt>
      <trkpt lat="49.84196" lon="2.48471">
        <ele>101.3</ele>
        <time>2023-07-19T08:49:16Z</time>
      </trkpt>
      <trkpt lat="49.84196" lon="2.48469">
        <ele>101.3</ele>
        <time>2023-07-19T08:49:17Z</time>
      </trkpt>
      <trkpt lat="49.84196" lon="2.48467">
        <ele>101.3</ele>
        <time>2023-07-19T08:49:19Z</time>
      </trkpt>
      <trkpt lat="49.84196" lon="2.48466">
        <ele>101.3</ele>
        <time>2023-07-19T08:49:20Z</time>
      </trkpt>
      <trkpt lat="49.84196" lon="2.48463">
        <ele>101.3</ele>
        <time>2023-07-19T08:49:21Z</time>
      </trkpt>
      <trkpt lat="49.84195" lon="2.48461">
        <ele>101.3</ele>
        <time>2023-07-19T08:49:23Z</time>
      </trkpt>
      <trkpt lat="49.84195" lon="2.48459">
        <ele>101.3</ele>
        <time>2023-07-19T08:49:24Z</time>
      </trkpt>
      <trkpt lat="49.84195" lon="2.48457">
        <ele>101.3</ele>
        <time>2023-07-19T08:49:25Z</time>
      </trkpt>
      <trkpt lat="49.84195" lon="2.48455">
        <ele>101.4</ele>
        <time>2023-07-19T08:49:26Z</time>
      </trkpt>
      <trkpt lat="49.84195" lon="2.48453">
        <ele>101.4</ele>
        <time>2023-07-19T08:49:27Z</time>
      </trkpt>
      <trkpt lat="49.84195" lon="2.48451">
        <ele>101.4</ele>
        <time>2023-07-19T08:49:29Z</time>
      </trkpt>
      <trkpt lat="49.84194" lon="2.48448">
        <ele>101.4</ele>
        <time>2023-07-19T08:49:30Z</time>
      </trkpt>
      <trkpt lat="49.84194" lon="2.48447">
        <ele>101.4</ele>
        <time>2023-07-19T08:49:31Z</time>
      </trkpt>
      <trkpt lat="49.84194" lon="2.48446">
        <ele>101.4</ele>
        <time>2023-07-19T08:49:32Z</time>
      </trkpt>
      <trkpt lat="49.84194" lon="2.48444">
        <ele>101.4</ele>
        <time>2023-07-19T08:49:33Z</time>
      </trkpt>
      <trkpt lat="49.84194" lon="2.48442">
        <ele>101.4</ele>
        <time>2023-07-19T08:49:34Z</time>
      </trkpt>
      <trkpt lat="49.84194" lon="2.4844">
        <ele>101.4</ele>
        <time>2023-07-19T08:49:36Z</time>
      </trkpt>
      <trkpt lat="49.84193" lon="2.48438">
        <ele>101.4</ele>
        <time>2023-07-19T08:49:37Z</time>
      </trkpt>
      <trkpt lat="49.84193" lon="2.48435">
        <ele>101.5</ele>
        <time>2023-07-19T08:49:38Z</time>
      </trkpt>
      <trkpt lat="49.84193" lon="2.48433">
        <ele>101.5</ele>
        <time>2023-07-19T08:49:40Z</time>
      </trkpt>
      <trkpt lat="49.84193" lon="2.48431">
        <ele>101.5</ele>
        <time>2023-07-19T08:49:41Z</time>
      </trkpt>
      <trkpt lat="49.84192" lon="2.48429">
        <ele>101.5</ele>
        <time>2023-07-19T08:49:42Z</time>
      </trkpt>
      <trkpt lat="49.84192" lon="2.48425">
        <ele>101.5</ele>
        <time>2023-07-19T08:49:44Z</time>
      </trkpt>
      <trkpt lat="49.84191" lon="2.48423">
        <ele>101.5</ele>
        <time>2023-07-19T08:49:45Z</time>
      </trkpt>
      <trkpt lat="49.84191" lon="2.48421">
        <ele>101.5</ele>
        <time>2023-07-19T08:49:47Z</time>
      </trkpt>
      <trkpt lat="49.8419" lon="2.48418">
        <ele>101.5</ele>
        <time>2023-07-19T08:49:48Z</time>
      </trkpt>
      <trkpt lat="49.8419" lon="2.48416">
        <ele>101.5</ele>
        <time>2023-07-19T08:49:50Z</time>
      </trkpt>
      <trkpt lat="49.8419" lon="2.48413">
        <ele>101.6</ele>
        <time>2023-07-19T08:49:51Z</time>
      </trkpt>
      <trkpt lat="49.84189" lon="2.48412">
        <ele>101.6</ele>
        <time>2023-07-19T08:49:52Z</time>
      </trkpt>
      <trkpt lat="49.84189" lon="2.48408">
        <ele>101.6</ele>
        <time>2023-07-19T08:49:54Z</time>
      </trkpt>
      <trkpt lat="49.84188" lon="2.48407">
        <ele>101.6</ele>
        <time>2023-07-19T08:49:55Z</time>
      </trkpt>
      <trkpt lat="49.84188" lon="2.48406">
        <ele>101.6</ele>
        <time>2023-07-19T08:49:56Z</time>
      </trkpt>
      <trkpt lat="49.84187" lon="2.48403">
        <ele>101.6</ele>
        <time>2023-07-19T08:49:57Z</time>
      </trkpt>
      <trkpt lat="49.84187" lon="2.48401">
        <ele>101.6</ele>
        <time>2023-07-19T08:49:58Z</time>
      </trkpt>
      <trkpt lat="49.84187" lon="2.484">
        <ele>101.6</ele>
        <time>2023-07-19T08:49:59Z</time>
      </trkpt>
      <trkpt lat="49.84186" lon="2.48398">
        <ele>101.6</ele>
        <time>2023-07-19T08:50:00Z</time>
      </trkpt>
      <trkpt lat="49.84186" lon="2.48397">
        <ele>101.6</ele>
        <time>2023-07-19T08:50:02Z</time>
      </trkpt>
      <trkpt lat="49.84186" lon="2.48395">
        <ele>101.6</ele>
        <time>2023-07-19T08:50:03Z</time>
      </trkpt>
      <trkpt lat="49.84185" lon="2.48393">
        <ele>101.6</ele>
        <time>2023-07-19T08:50:04Z</time>
      </trkpt>
      <trkpt lat="49.84185" lon="2.48391">
        <ele>101.6</ele>
        <time>2023-07-19T08:50:05Z</time>
      </trkpt>
      <trkpt lat="49.84184" lon="2.48388">
        <ele>101.6</ele>
        <time>2023-07-19T08:50:06Z</time>
      </trkpt>
      <trkpt lat="49.84184" lon="2.48386">
        <ele>101.6</ele>
        <time>2023-07-19T08:50:07Z</time>
      </trkpt>
      <trkpt lat="49.84184" lon="2.48385">
        <ele>101.7</ele>
        <time>2023-07-19T08:50:08Z</time>
      </trkpt>
      <trkpt lat="49.84183" lon="2.48383">
        <ele>101.7</ele>
        <time>2023-07-19T08:50:10Z</time>
      </trkpt>
      <trkpt lat="49.84183" lon="2.48381">
        <ele>101.7</ele>
        <time>2023-07-19T08:50:11Z</time>
      </trkpt>
      <trkpt lat="49.84183" lon="2.4838">
        <ele>101.7</ele>
        <time>2023-07-19T08:50:12Z</time>
      </trkpt>
      <trkpt lat="49.84183" lon="2.48376">
        <ele>101.7</ele>
        <time>2023-07-19T08:50:13Z</time>
      </trkpt>
      <trkpt lat="49.84183" lon="2.48375">
        <ele>101.7</ele>
        <time>2023-07-19T08:50:14Z</time>
      </trkpt>
      <trkpt lat="49.84182" lon="2.48374">
        <ele>101.7</ele>
        <time>2023-07-19T08:50:15Z</time>
      </trkpt>
      <trkpt lat="49.84182" lon="2.48371">
        <ele>101.7</ele>
        <time>2023-07-19T08:50:17Z</time>
      </trkpt>
      <trkpt lat="49.84182" lon="2.48369">
        <ele>101.7</ele>
        <time>2023-07-19T08:50:18Z</time>
      </trkpt>
      <trkpt lat="49.84182" lon="2.48368">
        <ele>101.7</ele>
        <time>2023-07-19T08:50:19Z</time>
      </trkpt>
      <trkpt lat="49.84181" lon="2.48366">
        <ele>101.7</ele>
        <time>2023-07-19T08:50:20Z</time>
      </trkpt>
      <trkpt lat="49.84181" lon="2.48365">
        <ele>101.7</ele>
        <time>2023-07-19T08:50:22Z</time>
      </trkpt>
      <trkpt lat="49.84181" lon="2.48363">
        <ele>101.7</ele>
        <time>2023-07-19T08:50:23Z</time>
      </trkpt>
      <trkpt lat="49.8418" lon="2.48361">
        <ele>101.7</ele>
        <time>2023-07-19T08:50:24Z</time>
      </trkpt>
      <trkpt lat="49.8418" lon="2.48359">
        <ele>101.7</ele>
        <time>2023-07-19T08:50:25Z</time>
      </trkpt>
      <trkpt lat="49.84179" lon="2.48358">
        <ele>101.7</ele>
        <time>2023-07-19T08:50:27Z</time>
      </trkpt>
      <trkpt lat="49.84179" lon="2.48357">
        <ele>101.7</ele>
        <time>2023-07-19T08:50:28Z</time>
      </trkpt>
      <trkpt lat="49.84179" lon="2.48355">
        <ele>101.7</ele>
        <time>2023-07-19T08:50:29Z</time>
      </trkpt>
      <trkpt lat="49.84179" lon="2.48354">
        <ele>101.7</ele>
        <time>2023-07-19T08:50:30Z</time>
      </trkpt>
      <trkpt lat="49.84179" lon="2.48353">
        <ele>101.7</ele>
        <time>2023-07-19T08:50:32Z</time>
      </trkpt>
      <trkpt lat="49.84179" lon="2.48353">
        <ele>101.7</ele>
        <time>2023-07-19T08:50:33Z</time>
      </trkpt>
      <trkpt lat="49.84179" lon="2.48353">
        <ele>101.7</ele>
        <time>2023-07-19T08:50:35Z</time>
      </trkpt>
      <trkpt lat="49.84179" lon="2.48353">
        <ele>101.7</ele>
        <time>2023-07-19T08:50:36Z</time>
      </trkpt>
      <trkpt lat="49.84179" lon="2.48353">
        <ele>101.7</ele>
        <time>2023-07-19T08:50:37Z</time>
      </trkpt>
      <trkpt lat="49.84179" lon="2.48353">
        <ele>101.7</ele>
        <time>2023-07-19T08:50:39Z</time>
      </trkpt>
      <trkpt lat="49.84179" lon="2.48354">
        <ele>101.7</ele>
        <time>2023-07-19T08:50:40Z</time>
      </trkpt>
      <trkpt lat="49.84179" lon="2.48354">
        <ele>101.7</ele>
        <time>2023-07-19T08:50:42Z</time>
      </trkpt>
      <trkpt lat="49.84179" lon="2.48354">
        <ele>101.7</ele>
        <time>2023-07-19T08:50:43Z</time>
      </trkpt>
      <trkpt lat="49.84179" lon="2.48354">
        <ele>101.7</ele>
        <time>2023-07-19T08:50:46Z</time>
      </trkpt>
      <trkpt lat="49.84179" lon="2.48355">
        <ele>101.7</ele>
        <time>2023-07-19T08:50:48Z</time>
      </trkpt>
      <trkpt lat="49.84179" lon="2.48355">
        <ele>101.7</ele>
        <time>2023-07-19T08:50:50Z</time>
      </trkpt>
      <trkpt lat="49.84179" lon="2.48355">
        <ele>101.7</ele>
        <time>2023-07-19T08:50:51Z</time>
      </trkpt>
      <trkpt lat="49.84179" lon="2.48355">
        <ele>101.7</ele>
        <time>2023-07-19T08:50:52Z</time>
      </trkpt>
      <trkpt lat="49.84179" lon="2.48355">
        <ele>101.7</ele>
        <time>2023-07-19T08:50:53Z</time>
      </trkpt>
      <trkpt lat="49.84179" lon="2.48355">
        <ele>101.7</ele>
        <time>2023-07-19T08:50:54Z</time>
      </trkpt>
      <trkpt lat="49.84179" lon="2.48355">
        <ele>101.7</ele>
        <time>2023-07-19T08:50:56Z</time>
      </trkpt>
      <trkpt lat="49.84179" lon="2.48355">
        <ele>101.7</ele>
        <time>2023-07-19T08:50:57Z</time>
      </trkpt>
      <trkpt lat="49.84179" lon="2.48355">
        <ele>101.7</ele>
        <time>2023-07-19T08:50:58Z</time>
      </trkpt>
      <trkpt lat="49.84179" lon="2.48355">
        <ele>101.7</ele>
        <time>2023-07-19T08:50:59Z</time>
      </trkpt>
      <trkpt lat="49.84179" lon="2.48355">
        <ele>101.7</ele>
        <time>2023-07-19T08:51:01Z</time>
      </trkpt>
      <trkpt lat="49.84179" lon="2.48355">
        <ele>101.7</ele>
        <time>2023-07-19T08:51:02Z</time>
      </trkpt>
      <trkpt lat="49.84179" lon="2.48355">
        <ele>101.7</ele>
        <time>2023-07-19T08:51:03Z</time>
      </trkpt>
      <trkpt lat="49.84179" lon="2.48355">
        <ele>101.7</ele>
        <time>2023-07-19T08:51:04Z</time>
      </trkpt>
      <trkpt lat="49.84179" lon="2.48355">
        <ele>101.7</ele>
        <time>2023-07-19T08:51:05Z</time>
      </trkpt>
      <trkpt lat="49.84179" lon="2.48355">
        <ele>101.7</ele>
        <time>2023-07-19T08:51:06Z</time>
      </trkpt>
      <trkpt lat="49.84179" lon="2.48355">
        <ele>101.7</ele>
        <time>2023-07-19T08:51:07Z</time>
      </trkpt>
      <trkpt lat="49.84179" lon="2.48355">
        <ele>101.7</ele>
        <time>2023-07-19T08:51:08Z</time>
      </trkpt>
      <trkpt lat="49.84179" lon="2.48355">
        <ele>101.7</ele>
        <time>2023-07-19T08:51:09Z</time>
      </trkpt>
      <trkpt lat="49.84179" lon="2.48355">
        <ele>101.7</ele>
        <time>2023-07-19T08:51:10Z</time>
      </trkpt>
      <trkpt lat="49.84179" lon="2.48355">
        <ele>101.7</ele>
        <time>2023-07-19T08:51:11Z</time>
      </trkpt>
      <trkpt lat="49.84179" lon="2.48355">
        <ele>101.7</ele>
        <time>2023-07-19T08:51:12Z</time>
      </trkpt>
      <trkpt lat="49.84179" lon="2.48355">
        <ele>101.7</ele>
        <time>2023-07-19T08:51:13Z</time>
      </trkpt>
      <trkpt lat="49.84179" lon="2.48355">
        <ele>101.7</ele>
        <time>2023-07-19T08:51:14Z</time>
      </trkpt>
      <trkpt lat="49.84179" lon="2.48355">
        <ele>101.7</ele>
        <time>2023-07-19T08:51:15Z</time>
      </trkpt>
      <trkpt lat="49.84179" lon="2.48355">
        <ele>101.7</ele>
        <time>2023-07-19T08:51:16Z</time>
      </trkpt>
      <trkpt lat="49.84179" lon="2.48355">
        <ele>101.7</ele>
        <time>2023-07-19T08:51:17Z</time>
      </trkpt>
      <trkpt lat="49.84179" lon="2.48355">
        <ele>101.7</ele>
        <time>2023-07-19T08:51:18Z</time>
      </trkpt>
      <trkpt lat="49.84179" lon="2.48355">
        <ele>101.7</ele>
        <time>2023-07-19T08:51:19Z</time>
      </trkpt>
      <trkpt lat="49.84179" lon="2.48355">
        <ele>101.7</ele>
        <time>2023-07-19T08:51:20Z</time>
      </trkpt>
      <trkpt lat="49.84179" lon="2.48355">
        <ele>101.7</ele>
        <time>2023-07-19T08:51:21Z</time>
      </trkpt>
      <trkpt lat="49.84179" lon="2.48355">
        <ele>101.7</ele>
        <time>2023-07-19T08:51:22Z</time>
      </trkpt>
      <trkpt lat="49.84179" lon="2.48355">
        <ele>101.7</ele>
        <time>2023-07-19T08:51:24Z</time>
      </trkpt>
      <trkpt lat="49.84179" lon="2.48356">
        <ele>101.7</ele>
        <time>2023-07-19T08:51:25Z</time>
      </trkpt>
      <trkpt lat="49.84179" lon="2.48355">
        <ele>101.7</ele>
        <time>2023-07-19T08:51:26Z</time>
      </trkpt>
      <trkpt lat="49.8418" lon="2.48356">
        <ele>101.7</ele>
        <time>2023-07-19T08:51:28Z</time>
      </trkpt>
      <trkpt lat="49.84179" lon="2.48356">
        <ele>101.7</ele>
        <time>2023-07-19T08:51:29Z</time>
      </trkpt>
      <trkpt lat="49.84179" lon="2.48355">
        <ele>101.7</ele>
        <time>2023-07-19T08:51:31Z</time>
      </trkpt>
      <trkpt lat="49.84179" lon="2.48354">
        <ele>101.7</ele>
        <time>2023-07-19T08:51:32Z</time>
      </trkpt>
      <trkpt lat="49.84178" lon="2.48354">
        <ele>101.7</ele>
        <time>2023-07-19T08:51:35Z</time>
      </trkpt>
      <trkpt lat="49.84178" lon="2.48354">
        <ele>101.7</ele>
        <time>2023-07-19T08:51:36Z</time>
      </trkpt>
      <trkpt lat="49.84178" lon="2.48354">
        <ele>101.7</ele>
        <time>2023-07-19T08:51:38Z</time>
      </trkpt>
      <trkpt lat="49.84178" lon="2.48354">
        <ele>101.7</ele>
        <time>2023-07-19T08:51:39Z</time>
      </trkpt>
      <trkpt lat="49.84178" lon="2.48353">
        <ele>101.7</ele>
        <time>2023-07-19T08:51:41Z</time>
      </trkpt>
      <trkpt lat="49.84178" lon="2.48353">
        <ele>101.8</ele>
        <time>2023-07-19T08:51:42Z</time>
      </trkpt>
      <trkpt lat="49.84178" lon="2.48353">
        <ele>101.8</ele>
        <time>2023-07-19T08:51:44Z</time>
      </trkpt>
      <trkpt lat="49.84178" lon="2.48353">
        <ele>101.8</ele>
        <time>2023-07-19T08:51:46Z</time>
      </trkpt>
      <trkpt lat="49.84178" lon="2.48354">
        <ele>101.8</ele>
        <time>2023-07-19T08:51:47Z</time>
      </trkpt>
      <trkpt lat="49.84178" lon="2.48354">
        <ele>101.8</ele>
        <time>2023-07-19T08:51:48Z</time>
      </trkpt>
      <trkpt lat="49.84178" lon="2.48354">
        <ele>101.8</ele>
        <time>2023-07-19T08:51:50Z</time>
      </trkpt>
      <trkpt lat="49.84178" lon="2.48354">
        <ele>101.8</ele>
        <time>2023-07-19T08:51:52Z</time>
      </trkpt>
      <trkpt lat="49.84178" lon="2.48354">
        <ele>101.8</ele>
        <time>2023-07-19T08:51:53Z</time>
      </trkpt>
      <trkpt lat="49.84178" lon="2.48354">
        <ele>101.8</ele>
        <time>2023-07-19T08:51:54Z</time>
      </trkpt>
      <trkpt lat="49.84178" lon="2.48354">
        <ele>101.8</ele>
        <time>2023-07-19T08:51:55Z</time>
      </trkpt>
      <trkpt lat="49.84178" lon="2.48354">
        <ele>101.8</ele>
        <time>2023-07-19T08:51:56Z</time>
      </trkpt>
      <trkpt lat="49.84178" lon="2.48354">
        <ele>101.8</ele>
        <time>2023-07-19T08:51:57Z</time>
      </trkpt>
      <trkpt lat="49.84178" lon="2.48354">
        <ele>101.8</ele>
        <time>2023-07-19T08:51:58Z</time>
      </trkpt>
      <trkpt lat="49.84178" lon="2.48354">
        <ele>101.8</ele>
        <time>2023-07-19T08:51:59Z</time>
      </trkpt>
      <trkpt lat="49.84178" lon="2.48354">
        <ele>101.8</ele>
        <time>2023-07-19T08:52:00Z</time>
      </trkpt>
      <trkpt lat="49.84178" lon="2.48354">
        <ele>101.8</ele>
        <time>2023-07-19T08:52:02Z</time>
      </trkpt>
      <trkpt lat="49.84178" lon="2.48354">
        <ele>101.8</ele>
        <time>2023-07-19T08:52:04Z</time>
      </trkpt>
      <trkpt lat="49.84178" lon="2.48354">
        <ele>101.8</ele>
        <time>2023-07-19T08:52:06Z</time>
      </trkpt>
      <trkpt lat="49.84178" lon="2.48354">
        <ele>101.8</ele>
        <time>2023-07-19T08:52:07Z</time>
      </trkpt>
      <trkpt lat="49.84178" lon="2.48354">
        <ele>101.8</ele>
        <time>2023-07-19T08:52:08Z</time>
      </trkpt>
      <trkpt lat="49.84178" lon="2.48354">
        <ele>101.8</ele>
        <time>2023-07-19T08:52:10Z</time>
      </trkpt>
      <trkpt lat="49.84178" lon="2.48354">
        <ele>101.8</ele>
        <time>2023-07-19T08:52:11Z</time>
      </trkpt>
      <trkpt lat="49.84178" lon="2.48354">
        <ele>101.8</ele>
        <time>2023-07-19T08:52:12Z</time>
      </trkpt>
      <trkpt lat="49.84178" lon="2.48354">
        <ele>101.8</ele>
        <time>2023-07-19T08:52:13Z</time>
      </trkpt>
      <trkpt lat="49.84178" lon="2.48354">
        <ele>101.8</ele>
        <time>2023-07-19T08:52:14Z</time>
      </trkpt>
      <trkpt lat="49.84178" lon="2.48354">
        <ele>101.8</ele>
        <time>2023-07-19T08:52:15Z</time>
      </trkpt>
      <trkpt lat="49.84178" lon="2.48354">
        <ele>101.8</ele>
        <time>2023-07-19T08:52:16Z</time>
      </trkpt>
      <trkpt lat="49.84178" lon="2.48354">
        <ele>101.8</ele>
        <time>2023-07-19T08:52:17Z</time>
      </trkpt>
      <trkpt lat="49.84178" lon="2.48354">
        <ele>101.8</ele>
        <time>2023-07-19T08:52:18Z</time>
      </trkpt>
      <trkpt lat="49.84178" lon="2.48354">
        <ele>101.8</ele>
        <time>2023-07-19T08:52:19Z</time>
      </trkpt>
      <trkpt lat="49.84178" lon="2.48354">
        <ele>101.8</ele>
        <time>2023-07-19T08:52:20Z</time>
      </trkpt>
      <trkpt lat="49.84178" lon="2.48354">
        <ele>101.8</ele>
        <time>2023-07-19T08:52:21Z</time>
      </trkpt>
      <trkpt lat="49.84178" lon="2.48354">
        <ele>101.8</ele>
        <time>2023-07-19T08:52:22Z</time>
      </trkpt>
      <trkpt lat="49.84178" lon="2.48354">
        <ele>101.8</ele>
        <time>2023-07-19T08:52:24Z</time>
      </trkpt>
      <trkpt lat="49.84178" lon="2.48354">
        <ele>101.8</ele>
        <time>2023-07-19T08:52:25Z</time>
      </trkpt>
      <trkpt lat="49.84178" lon="2.48354">
        <ele>101.8</ele>
        <time>2023-07-19T08:52:26Z</time>
      </trkpt>
      <trkpt lat="49.84178" lon="2.48354">
        <ele>101.8</ele>
        <time>2023-07-19T08:52:27Z</time>
      </trkpt>
      <trkpt lat="49.84178" lon="2.48354">
        <ele>101.8</ele>
        <time>2023-07-19T08:52:28Z</time>
      </trkpt>
      <trkpt lat="49.84178" lon="2.48354">
        <ele>101.8</ele>
        <time>2023-07-19T08:52:29Z</time>
      </trkpt>
      <trkpt lat="49.84178" lon="2.48354">
        <ele>101.8</ele>
        <time>2023-07-19T08:52:30Z</time>
      </trkpt>
      <trkpt lat="49.84178" lon="2.48354">
        <ele>101.8</ele>
        <time>2023-07-19T08:52:31Z</time>
      </trkpt>
      <trkpt lat="49.84178" lon="2.48354">
        <ele>101.8</ele>
        <time>2023-07-19T08:52:32Z</time>
      </trkpt>
      <trkpt lat="49.84178" lon="2.48354">
        <ele>101.8</ele>
        <time>2023-07-19T08:52:33Z</time>
      </trkpt>
      <trkpt lat="49.84178" lon="2.48354">
        <ele>101.8</ele>
        <time>2023-07-19T08:52:35Z</time>
      </trkpt>
      <trkpt lat="49.84178" lon="2.48354">
        <ele>101.8</ele>
        <time>2023-07-19T08:52:36Z</time>
      </trkpt>
      <trkpt lat="49.84178" lon="2.48354">
        <ele>101.8</ele>
        <time>2023-07-19T08:52:38Z</time>
      </trkpt>
      <trkpt lat="49.84178" lon="2.48354">
        <ele>101.8</ele>
        <time>2023-07-19T08:52:39Z</time>
      </trkpt>
      <trkpt lat="49.84178" lon="2.48354">
        <ele>101.8</ele>
        <time>2023-07-19T08:52:40Z</time>
      </trkpt>
      <trkpt lat="49.84178" lon="2.48354">
        <ele>101.8</ele>
        <time>2023-07-19T08:52:42Z</time>
      </trkpt>
      <trkpt lat="49.84178" lon="2.48354">
        <ele>101.8</ele>
        <time>2023-07-19T08:52:43Z</time>
      </trkpt>
      <trkpt lat="49.84178" lon="2.48354">
        <ele>101.8</ele>
        <time>2023-07-19T08:52:44Z</time>
      </trkpt>
      <trkpt lat="49.84178" lon="2.48354">
        <ele>101.8</ele>
        <time>2023-07-19T08:52:46Z</time>
      </trkpt>
      <trkpt lat="49.84178" lon="2.48354">
        <ele>101.8</ele>
        <time>2023-07-19T08:52:47Z</time>
      </trkpt>
      <trkpt lat="49.84178" lon="2.48354">
        <ele>101.8</ele>
        <time>2023-07-19T08:52:49Z</time>
      </trkpt>
      <trkpt lat="49.84178" lon="2.48354">
        <ele>101.8</ele>
        <time>2023-07-19T08:52:50Z</time>
      </trkpt>
      <trkpt lat="49.84178" lon="2.48354">
        <ele>101.8</ele>
        <time>2023-07-19T08:52:51Z</time>
      </trkpt>
      <trkpt lat="49.84178" lon="2.48354">
        <ele>101.8</ele>
        <time>2023-07-19T08:52:52Z</time>
      </trkpt>
      <trkpt lat="49.84178" lon="2.48354">
        <ele>101.8</ele>
        <time>2023-07-19T08:52:54Z</time>
      </trkpt>
      <trkpt lat="49.84178" lon="2.48354">
        <ele>101.8</ele>
        <time>2023-07-19T08:52:55Z</time>
      </trkpt>
      <trkpt lat="49.84178" lon="2.48354">
        <ele>101.8</ele>
        <time>2023-07-19T08:52:57Z</time>
      </trkpt>
      <trkpt lat="49.84178" lon="2.48354">
        <ele>101.8</ele>
        <time>2023-07-19T08:52:58Z</time>
      </trkpt>
      <trkpt lat="49.84178" lon="2.48354">
        <ele>101.8</ele>
        <time>2023-07-19T08:52:59Z</time>
      </trkpt>
      <trkpt lat="49.84178" lon="2.48354">
        <ele>101.8</ele>
        <time>2023-07-19T08:53:00Z</time>
      </trkpt>
      <trkpt lat="49.84178" lon="2.48354">
        <ele>101.8</ele>
        <time>2023-07-19T08:53:01Z</time>
      </trkpt>
      <trkpt lat="49.84178" lon="2.48354">
        <ele>101.8</ele>
        <time>2023-07-19T08:53:02Z</time>
      </trkpt>
      <trkpt lat="49.84178" lon="2.48354">
        <ele>101.8</ele>
        <time>2023-07-19T08:53:03Z</time>
      </trkpt>
      <trkpt lat="49.84178" lon="2.48354">
        <ele>101.8</ele>
        <time>2023-07-19T08:53:05Z</time>
      </trkpt>
      <trkpt lat="49.84178" lon="2.48354">
        <ele>101.8</ele>
        <time>2023-07-19T08:53:07Z</time>
      </trkpt>
      <trkpt lat="49.84178" lon="2.48354">
        <ele>101.8</ele>
        <time>2023-07-19T08:53:08Z</time>
      </trkpt>
      <trkpt lat="49.84178" lon="2.48354">
        <ele>101.8</ele>
        <time>2023-07-19T08:53:09Z</time>
      </trkpt>
      <trkpt lat="49.84178" lon="2.48354">
        <ele>101.8</ele>
        <time>2023-07-19T08:53:10Z</time>
      </trkpt>
      <trkpt lat="49.84178" lon="2.48354">
        <ele>101.8</ele>
        <time>2023-07-19T08:53:11Z</time>
      </trkpt>
      <trkpt lat="49.84178" lon="2.48354">
        <ele>101.8</ele>
        <time>2023-07-19T08:53:12Z</time>
      </trkpt>
      <trkpt lat="49.84178" lon="2.48354">
        <ele>101.8</ele>
        <time>2023-07-19T08:53:14Z</time>
      </trkpt>
      <trkpt lat="49.84178" lon="2.48354">
        <ele>101.8</ele>
        <time>2023-07-19T08:53:15Z</time>
      </trkpt>
      <trkpt lat="49.84178" lon="2.48354">
        <ele>101.8</ele>
        <time>2023-07-19T08:53:16Z</time>
      </trkpt>
      <trkpt lat="49.84178" lon="2.48354">
        <ele>101.8</ele>
        <time>2023-07-19T08:53:17Z</time>
      </trkpt>
      <trkpt lat="49.84178" lon="2.48354">
        <ele>101.8</ele>
        <time>2023-07-19T08:53:18Z</time>
      </trkpt>
      <trkpt lat="49.84178" lon="2.48354">
        <ele>101.8</ele>
        <time>2023-07-19T08:53:19Z</time>
      </trkpt>
      <trkpt lat="49.84178" lon="2.48357">
        <ele>101.8</ele>
        <time>2023-07-19T08:53:20Z</time>
      </trkpt>
      <trkpt lat="49.84179" lon="2.48359">
        <ele>101.8</ele>
        <time>2023-07-19T08:53:21Z</time>
      </trkpt>
      <trkpt lat="49.84179" lon="2.48359">
        <ele>101.8</ele>
        <time>2023-07-19T08:53:22Z</time>
      </trkpt>
      <trkpt lat="49.84179" lon="2.48358">
        <ele>101.8</ele>
        <time>2023-07-19T08:53:23Z</time>
      </trkpt>
      <trkpt lat="49.84178" lon="2.48357">
        <ele>101.8</ele>
        <time>2023-07-19T08:53:25Z</time>
      </trkpt>
      <trkpt lat="49.84178" lon="2.48355">
        <ele>101.8</ele>
        <time>2023-07-19T08:53:26Z</time>
      </trkpt>
      <trkpt lat="49.84179" lon="2.48354">
        <ele>101.8</ele>
        <time>2023-07-19T08:53:27Z</time>
      </trkpt>
      <trkpt lat="49.84178" lon="2.48352">
        <ele>101.8</ele>
        <time>2023-07-19T08:53:28Z</time>
      </trkpt>
      <trkpt lat="49.84178" lon="2.48349">
        <ele>101.8</ele>
        <time>2023-07-19T08:53:29Z</time>
      </trkpt>
      <trkpt lat="49.84178" lon="2.48348">
        <ele>101.8</ele>
        <time>2023-07-19T08:53:30Z</time>
      </trkpt>
      <trkpt lat="49.84177" lon="2.48346">
        <ele>101.8</ele>
        <time>2023-07-19T08:53:31Z</time>
      </trkpt>
      <trkpt lat="49.84177" lon="2.48342">
        <ele>101.9</ele>
        <time>2023-07-19T08:53:33Z</time>
      </trkpt>
      <trkpt lat="49.84177" lon="2.4834">
        <ele>101.9</ele>
        <time>2023-07-19T08:53:34Z</time>
      </trkpt>
      <trkpt lat="49.84178" lon="2.48339">
        <ele>101.9</ele>
        <time>2023-07-19T08:53:35Z</time>
      </trkpt>
      <trkpt lat="49.84178" lon="2.48338">
        <ele>101.9</ele>
        <time>2023-07-19T08:53:37Z</time>
      </trkpt>
      <trkpt lat="49.84178" lon="2.48336">
        <ele>101.9</ele>
        <time>2023-07-19T08:53:38Z</time>
      </trkpt>
      <trkpt lat="49.84178" lon="2.48334">
        <ele>101.9</ele>
        <time>2023-07-19T08:53:40Z</time>
      </trkpt>
      <trkpt lat="49.84177" lon="2.48333">
        <ele>101.8</ele>
        <time>2023-07-19T08:53:41Z</time>
      </trkpt>
      <trkpt lat="49.84177" lon="2.48331">
        <ele>101.8</ele>
        <time>2023-07-19T08:53:42Z</time>
      </trkpt>
      <trkpt lat="49.84176" lon="2.4833">
        <ele>101.8</ele>
        <time>2023-07-19T08:53:43Z</time>
      </trkpt>
      <trkpt lat="49.84175" lon="2.48328">
        <ele>101.8</ele>
        <time>2023-07-19T08:53:44Z</time>
      </trkpt>
      <trkpt lat="49.84174" lon="2.48326">
        <ele>101.8</ele>
        <time>2023-07-19T08:53:46Z</time>
      </trkpt>
      <trkpt lat="49.84173" lon="2.48325">
        <ele>101.8</ele>
        <time>2023-07-19T08:53:47Z</time>
      </trkpt>
      <trkpt lat="49.84173" lon="2.48323">
        <ele>101.8</ele>
        <time>2023-07-19T08:53:48Z</time>
      </trkpt>
      <trkpt lat="49.84172" lon="2.48321">
        <ele>101.7</ele>
        <time>2023-07-19T08:53:49Z</time>
      </trkpt>
      <trkpt lat="49.84171" lon="2.48319">
        <ele>101.7</ele>
        <time>2023-07-19T08:53:50Z</time>
      </trkpt>
      <trkpt lat="49.84171" lon="2.48318">
        <ele>101.7</ele>
        <time>2023-07-19T08:53:51Z</time>
      </trkpt>
      <trkpt lat="49.8417" lon="2.48316">
        <ele>101.7</ele>
        <time>2023-07-19T08:53:52Z</time>
      </trkpt>
      <trkpt lat="49.84169" lon="2.48314">
        <ele>101.7</ele>
        <time>2023-07-19T08:53:53Z</time>
      </trkpt>
      <trkpt lat="49.84168" lon="2.48311">
        <ele>101.7</ele>
        <time>2023-07-19T08:53:55Z</time>
      </trkpt>
      <trkpt lat="49.84168" lon="2.48309">
        <ele>101.7</ele>
        <time>2023-07-19T08:53:57Z</time>
      </trkpt>
      <trkpt lat="49.84168" lon="2.48306">
        <ele>101.7</ele>
        <time>2023-07-19T08:53:58Z</time>
      </trkpt>
      <trkpt lat="49.84167" lon="2.48305">
        <ele>101.7</ele>
        <time>2023-07-19T08:53:59Z</time>
      </trkpt>
      <trkpt lat="49.84167" lon="2.48301">
        <ele>101.6</ele>
        <time>2023-07-19T08:54:00Z</time>
      </trkpt>
      <trkpt lat="49.84167" lon="2.483">
        <ele>101.6</ele>
        <time>2023-07-19T08:54:01Z</time>
      </trkpt>
      <trkpt lat="49.84166" lon="2.48299">
        <ele>101.6</ele>
        <time>2023-07-19T08:54:02Z</time>
      </trkpt>
      <trkpt lat="49.84166" lon="2.48296">
        <ele>101.6</ele>
        <time>2023-07-19T08:54:03Z</time>
      </trkpt>
      <trkpt lat="49.84165" lon="2.48295">
        <ele>101.6</ele>
        <time>2023-07-19T08:54:05Z</time>
      </trkpt>
      <trkpt lat="49.84165" lon="2.48293">
        <ele>101.6</ele>
        <time>2023-07-19T08:54:06Z</time>
      </trkpt>
      <trkpt lat="49.84165" lon="2.4829">
        <ele>101.6</ele>
        <time>2023-07-19T08:54:07Z</time>
      </trkpt>
      <trkpt lat="49.84164" lon="2.48289">
        <ele>101.6</ele>
        <time>2023-07-19T08:54:08Z</time>
      </trkpt>
      <trkpt lat="49.84164" lon="2.48287">
        <ele>101.6</ele>
        <time>2023-07-19T08:54:09Z</time>
      </trkpt>
      <trkpt lat="49.84164" lon="2.48284">
        <ele>101.6</ele>
        <time>2023-07-19T08:54:11Z</time>
      </trkpt>
      <trkpt lat="49.84164" lon="2.48283">
        <ele>101.6</ele>
        <time>2023-07-19T08:54:12Z</time>
      </trkpt>
      <trkpt lat="49.84164" lon="2.48281">
        <ele>101.6</ele>
        <time>2023-07-19T08:54:13Z</time>
      </trkpt>
      <trkpt lat="49.84163" lon="2.48278">
        <ele>101.6</ele>
        <time>2023-07-19T08:54:14Z</time>
      </trkpt>
      <trkpt lat="49.84163" lon="2.48277">
        <ele>101.5</ele>
        <time>2023-07-19T08:54:15Z</time>
      </trkpt>
      <trkpt lat="49.84163" lon="2.48275">
        <ele>101.5</ele>
        <time>2023-07-19T08:54:16Z</time>
      </trkpt>
      <trkpt lat="49.84163" lon="2.48273">
        <ele>101.5</ele>
        <time>2023-07-19T08:54:18Z</time>
      </trkpt>
      <trkpt lat="49.84162" lon="2.48272">
        <ele>101.5</ele>
        <time>2023-07-19T08:54:19Z</time>
      </trkpt>
      <trkpt lat="49.84162" lon="2.4827">
        <ele>101.5</ele>
        <time>2023-07-19T08:54:20Z</time>
      </trkpt>
      <trkpt lat="49.84162" lon="2.48267">
        <ele>101.5</ele>
        <time>2023-07-19T08:54:21Z</time>
      </trkpt>
      <trkpt lat="49.84162" lon="2.48265">
        <ele>101.5</ele>
        <time>2023-07-19T08:54:22Z</time>
      </trkpt>
      <trkpt lat="49.84162" lon="2.48264">
        <ele>101.5</ele>
        <time>2023-07-19T08:54:23Z</time>
      </trkpt>
      <trkpt lat="49.84161" lon="2.48261">
        <ele>101.5</ele>
        <time>2023-07-19T08:54:25Z</time>
      </trkpt>
      <trkpt lat="49.84161" lon="2.48259">
        <ele>101.4</ele>
        <time>2023-07-19T08:54:26Z</time>
      </trkpt>
      <trkpt lat="49.84161" lon="2.48258">
        <ele>101.4</ele>
        <time>2023-07-19T08:54:27Z</time>
      </trkpt>
      <trkpt lat="49.84161" lon="2.48256">
        <ele>101.4</ele>
        <time>2023-07-19T08:54:28Z</time>
      </trkpt>
      <trkpt lat="49.84161" lon="2.48254">
        <ele>101.4</ele>
        <time>2023-07-19T08:54:29Z</time>
      </trkpt>
      <trkpt lat="49.8416" lon="2.48253">
        <ele>101.4</ele>
        <time>2023-07-19T08:54:30Z</time>
      </trkpt>
      <trkpt lat="49.8416" lon="2.48251">
        <ele>101.4</ele>
        <time>2023-07-19T08:54:31Z</time>
      </trkpt>
      <trkpt lat="49.8416" lon="2.4825">
        <ele>101.4</ele>
        <time>2023-07-19T08:54:33Z</time>
      </trkpt>
      <trkpt lat="49.8416" lon="2.48248">
        <ele>101.4</ele>
        <time>2023-07-19T08:54:34Z</time>
      </trkpt>
      <trkpt lat="49.8416" lon="2.48246">
        <ele>101.4</ele>
        <time>2023-07-19T08:54:35Z</time>
      </trkpt>
      <trkpt lat="49.84159" lon="2.48244">
        <ele>101.3</ele>
        <time>2023-07-19T08:54:36Z</time>
      </trkpt>
      <trkpt lat="49.84159" lon="2.48241">
        <ele>101.3</ele>
        <time>2023-07-19T08:54:37Z</time>
      </trkpt>
      <trkpt lat="49.84159" lon="2.48239">
        <ele>101.3</ele>
        <time>2023-07-19T08:54:38Z</time>
      </trkpt>
      <trkpt lat="49.84158" lon="2.48236">
        <ele>101.3</ele>
        <time>2023-07-19T08:54:39Z</time>
      </trkpt>
      <trkpt lat="49.84158" lon="2.48234">
        <ele>101.3</ele>
        <time>2023-07-19T08:54:41Z</time>
      </trkpt>
      <trkpt lat="49.84158" lon="2.48233">
        <ele>101.2</ele>
        <time>2023-07-19T08:54:42Z</time>
      </trkpt>
      <trkpt lat="49.84158" lon="2.48231">
        <ele>101.2</ele>
        <time>2023-07-19T08:54:43Z</time>
      </trkpt>
      <trkpt lat="49.84158" lon="2.4823">
        <ele>101.2</ele>
        <time>2023-07-19T08:54:44Z</time>
      </trkpt>
      <trkpt lat="49.84158" lon="2.48228">
        <ele>101.2</ele>
        <time>2023-07-19T08:54:45Z</time>
      </trkpt>
      <trkpt lat="49.84158" lon="2.48225">
        <ele>101.2</ele>
        <time>2023-07-19T08:54:46Z</time>
      </trkpt>
      <trkpt lat="49.84159" lon="2.48224">
        <ele>101.1</ele>
        <time>2023-07-19T08:54:47Z</time>
      </trkpt>
      <trkpt lat="49.84159" lon="2.48223">
        <ele>101.1</ele>
        <time>2023-07-19T08:54:48Z</time>
      </trkpt>
      <trkpt lat="49.84159" lon="2.48221">
        <ele>101.1</ele>
        <time>2023-07-19T08:54:50Z</time>
      </trkpt>
      <trkpt lat="49.84159" lon="2.48219">
        <ele>101.1</ele>
        <time>2023-07-19T08:54:51Z</time>
      </trkpt>
      <trkpt lat="49.84158" lon="2.48218">
        <ele>101</ele>
        <time>2023-07-19T08:54:52Z</time>
      </trkpt>
      <trkpt lat="49.84157" lon="2.48215">
        <ele>101</ele>
        <time>2023-07-19T08:54:53Z</time>
      </trkpt>
      <trkpt lat="49.84157" lon="2.48214">
        <ele>101</ele>
        <time>2023-07-19T08:54:54Z</time>
      </trkpt>
      <trkpt lat="49.84157" lon="2.48212">
        <ele>100.9</ele>
        <time>2023-07-19T08:54:55Z</time>
      </trkpt>
      <trkpt lat="49.84156" lon="2.4821">
        <ele>100.9</ele>
        <time>2023-07-19T08:54:56Z</time>
      </trkpt>
      <trkpt lat="49.84156" lon="2.48207">
        <ele>100.9</ele>
        <time>2023-07-19T08:54:58Z</time>
      </trkpt>
      <trkpt lat="49.84155" lon="2.48205">
        <ele>100.8</ele>
        <time>2023-07-19T08:54:59Z</time>
      </trkpt>
      <trkpt lat="49.84155" lon="2.48203">
        <ele>100.8</ele>
        <time>2023-07-19T08:55:01Z</time>
      </trkpt>
      <trkpt lat="49.84154" lon="2.48201">
        <ele>100.8</ele>
        <time>2023-07-19T08:55:02Z</time>
      </trkpt>
      <trkpt lat="49.84154" lon="2.48199">
        <ele>100.7</ele>
        <time>2023-07-19T08:55:03Z</time>
      </trkpt>
      <trkpt lat="49.84154" lon="2.48197">
        <ele>100.7</ele>
        <time>2023-07-19T08:55:04Z</time>
      </trkpt>
      <trkpt lat="49.84154" lon="2.48195">
        <ele>100.7</ele>
        <time>2023-07-19T08:55:05Z</time>
      </trkpt>
      <trkpt lat="49.84153" lon="2.48193">
        <ele>100.6</ele>
        <time>2023-07-19T08:55:06Z</time>
      </trkpt>
      <trkpt lat="49.84153" lon="2.4819">
        <ele>100.6</ele>
        <time>2023-07-19T08:55:07Z</time>
      </trkpt>
      <trkpt lat="49.84153" lon="2.48188">
        <ele>100.6</ele>
        <time>2023-07-19T08:55:08Z</time>
      </trkpt>
      <trkpt lat="49.84153" lon="2.48186">
        <ele>100.5</ele>
        <time>2023-07-19T08:55:09Z</time>
      </trkpt>
      <trkpt lat="49.84153" lon="2.48184">
        <ele>100.5</ele>
        <time>2023-07-19T08:55:11Z</time>
      </trkpt>
      <trkpt lat="49.84152" lon="2.4818">
        <ele>100.5</ele>
        <time>2023-07-19T08:55:12Z</time>
      </trkpt>
      <trkpt lat="49.84152" lon="2.48177">
        <ele>100.4</ele>
        <time>2023-07-19T08:55:14Z</time>
      </trkpt>
      <trkpt lat="49.84152" lon="2.48175">
        <ele>100.4</ele>
        <time>2023-07-19T08:55:15Z</time>
      </trkpt>
      <trkpt lat="49.84152" lon="2.48172">
        <ele>100.4</ele>
        <time>2023-07-19T08:55:16Z</time>
      </trkpt>
      <trkpt lat="49.84151" lon="2.4817">
        <ele>100.4</ele>
        <time>2023-07-19T08:55:17Z</time>
      </trkpt>
      <trkpt lat="49.84151" lon="2.48165">
        <ele>100.4</ele>
        <time>2023-07-19T08:55:18Z</time>
      </trkpt>
      <trkpt lat="49.84151" lon="2.48163">
        <ele>100.3</ele>
        <time>2023-07-19T08:55:20Z</time>
      </trkpt>
      <trkpt lat="49.84151" lon="2.48161">
        <ele>100.3</ele>
        <time>2023-07-19T08:55:21Z</time>
      </trkpt>
      <trkpt lat="49.84151" lon="2.48159">
        <ele>100.3</ele>
        <time>2023-07-19T08:55:22Z</time>
      </trkpt>
      <trkpt lat="49.84151" lon="2.48158">
        <ele>100.3</ele>
        <time>2023-07-19T08:55:24Z</time>
      </trkpt>
      <trkpt lat="49.8415" lon="2.48155">
        <ele>100.3</ele>
        <time>2023-07-19T08:55:25Z</time>
      </trkpt>
      <trkpt lat="49.8415" lon="2.48153">
        <ele>100.3</ele>
        <time>2023-07-19T08:55:26Z</time>
      </trkpt>
      <trkpt lat="49.84149" lon="2.4815">
        <ele>100.3</ele>
        <time>2023-07-19T08:55:27Z</time>
      </trkpt>
      <trkpt lat="49.84149" lon="2.4815">
        <ele>100.3</ele>
        <time>2023-07-19T08:55:28Z</time>
      </trkpt>
      <trkpt lat="49.84149" lon="2.48149">
        <ele>100.3</ele>
        <time>2023-07-19T08:55:29Z</time>
      </trkpt>
      <trkpt lat="49.84148" lon="2.48146">
        <ele>100.3</ele>
        <time>2023-07-19T08:55:31Z</time>
      </trkpt>
      <trkpt lat="49.84148" lon="2.48142">
        <ele>100.3</ele>
        <time>2023-07-19T08:55:33Z</time>
      </trkpt>
      <trkpt lat="49.84147" lon="2.48141">
        <ele>100.3</ele>
        <time>2023-07-19T08:55:35Z</time>
      </trkpt>
      <trkpt lat="49.84147" lon="2.48138">
        <ele>100.2</ele>
        <time>2023-07-19T08:55:36Z</time>
      </trkpt>
      <trkpt lat="49.84146" lon="2.48136">
        <ele>100.2</ele>
        <time>2023-07-19T08:55:37Z</time>
      </trkpt>
      <trkpt lat="49.84146" lon="2.48133">
        <ele>100.2</ele>
        <time>2023-07-19T08:55:39Z</time>
      </trkpt>
      <trkpt lat="49.84146" lon="2.48131">
        <ele>100.2</ele>
        <time>2023-07-19T08:55:41Z</time>
      </trkpt>
      <trkpt lat="49.84146" lon="2.4813">
        <ele>100.2</ele>
        <time>2023-07-19T08:55:42Z</time>
      </trkpt>
      <trkpt lat="49.84146" lon="2.48128">
        <ele>100.2</ele>
        <time>2023-07-19T08:55:43Z</time>
      </trkpt>
      <trkpt lat="49.84146" lon="2.48126">
        <ele>100.2</ele>
        <time>2023-07-19T08:55:44Z</time>
      </trkpt>
      <trkpt lat="49.84145" lon="2.48125">
        <ele>100.2</ele>
        <time>2023-07-19T08:55:45Z</time>
      </trkpt>
      <trkpt lat="49.84145" lon="2.48123">
        <ele>100.2</ele>
        <time>2023-07-19T08:55:46Z</time>
      </trkpt>
      <trkpt lat="49.84145" lon="2.48122">
        <ele>100.1</ele>
        <time>2023-07-19T08:55:47Z</time>
      </trkpt>
      <trkpt lat="49.84145" lon="2.4812">
        <ele>100.1</ele>
        <time>2023-07-19T08:55:49Z</time>
      </trkpt>
      <trkpt lat="49.84144" lon="2.48119">
        <ele>100.1</ele>
        <time>2023-07-19T08:55:50Z</time>
      </trkpt>
      <trkpt lat="49.84144" lon="2.48117">
        <ele>100.1</ele>
        <time>2023-07-19T08:55:51Z</time>
      </trkpt>
      <trkpt lat="49.84143" lon="2.48115">
        <ele>100.1</ele>
        <time>2023-07-19T08:55:52Z</time>
      </trkpt>
      <trkpt lat="49.84143" lon="2.48114">
        <ele>100.1</ele>
        <time>2023-07-19T08:55:53Z</time>
      </trkpt>
      <trkpt lat="49.84142" lon="2.48113">
        <ele>100.1</ele>
        <time>2023-07-19T08:55:54Z</time>
      </trkpt>
      <trkpt lat="49.84142" lon="2.4811">
        <ele>100.1</ele>
        <time>2023-07-19T08:55:55Z</time>
      </trkpt>
      <trkpt lat="49.84142" lon="2.48108">
        <ele>100</ele>
        <time>2023-07-19T08:55:56Z</time>
      </trkpt>
      <trkpt lat="49.84141" lon="2.48105">
        <ele>100</ele>
        <time>2023-07-19T08:55:57Z</time>
      </trkpt>
      <trkpt lat="49.84141" lon="2.48104">
        <ele>100</ele>
        <time>2023-07-19T08:55:59Z</time>
      </trkpt>
      <trkpt lat="49.84141" lon="2.48102">
        <ele>100</ele>
        <time>2023-07-19T08:56:00Z</time>
      </trkpt>
      <trkpt lat="49.8414" lon="2.48099">
        <ele>100</ele>
        <time>2023-07-19T08:56:01Z</time>
      </trkpt>
      <trkpt lat="49.8414" lon="2.48098">
        <ele>100</ele>
        <time>2023-07-19T08:56:02Z</time>
      </trkpt>
      <trkpt lat="49.8414" lon="2.48097">
        <ele>99.9</ele>
        <time>2023-07-19T08:56:03Z</time>
      </trkpt>
      <trkpt lat="49.8414" lon="2.48095">
        <ele>99.9</ele>
        <time>2023-07-19T08:56:04Z</time>
      </trkpt>
      <trkpt lat="49.8414" lon="2.48093">
        <ele>99.9</ele>
        <time>2023-07-19T08:56:05Z</time>
      </trkpt>
      <trkpt lat="49.84139" lon="2.48089">
        <ele>99.9</ele>
        <time>2023-07-19T08:56:07Z</time>
      </trkpt>
      <trkpt lat="49.84139" lon="2.48086">
        <ele>99.9</ele>
        <time>2023-07-19T08:56:09Z</time>
      </trkpt>
      <trkpt lat="49.84139" lon="2.48084">
        <ele>99.9</ele>
        <time>2023-07-19T08:56:10Z</time>
      </trkpt>
      <trkpt lat="49.84139" lon="2.48083">
        <ele>99.9</ele>
        <time>2023-07-19T08:56:11Z</time>
      </trkpt>
      <trkpt lat="49.84139" lon="2.4808">
        <ele>99.8</ele>
        <time>2023-07-19T08:56:12Z</time>
      </trkpt>
      <trkpt lat="49.84138" lon="2.48078">
        <ele>99.8</ele>
        <time>2023-07-19T08:56:14Z</time>
      </trkpt>
      <trkpt lat="49.84138" lon="2.48076">
        <ele>99.8</ele>
        <time>2023-07-19T08:56:15Z</time>
      </trkpt>
      <trkpt lat="49.84138" lon="2.48073">
        <ele>99.8</ele>
        <time>2023-07-19T08:56:16Z</time>
      </trkpt>
      <trkpt lat="49.84138" lon="2.4807">
        <ele>99.8</ele>
        <time>2023-07-19T08:56:18Z</time>
      </trkpt>
      <trkpt lat="49.84137" lon="2.48069">
        <ele>99.8</ele>
        <time>2023-07-19T08:56:19Z</time>
      </trkpt>
      <trkpt lat="49.84137" lon="2.48068">
        <ele>99.7</ele>
        <time>2023-07-19T08:56:20Z</time>
      </trkpt>
      <trkpt lat="49.84137" lon="2.48066">
        <ele>99.7</ele>
        <time>2023-07-19T08:56:21Z</time>
      </trkpt>
      <trkpt lat="49.84137" lon="2.48063">
        <ele>99.7</ele>
        <time>2023-07-19T08:56:22Z</time>
      </trkpt>
      <trkpt lat="49.84137" lon="2.48061">
        <ele>99.7</ele>
        <time>2023-07-19T08:56:23Z</time>
      </trkpt>
      <trkpt lat="49.84136" lon="2.4806">
        <ele>99.7</ele>
        <time>2023-07-19T08:56:24Z</time>
      </trkpt>
      <trkpt lat="49.84136" lon="2.48058">
        <ele>99.7</ele>
        <time>2023-07-19T08:56:25Z</time>
      </trkpt>
      <trkpt lat="49.84136" lon="2.48055">
        <ele>99.7</ele>
        <time>2023-07-19T08:56:26Z</time>
      </trkpt>
      <trkpt lat="49.84136" lon="2.48053">
        <ele>99.7</ele>
        <time>2023-07-19T08:56:28Z</time>
      </trkpt>
      <trkpt lat="49.84135" lon="2.48052">
        <ele>99.7</ele>
        <time>2023-07-19T08:56:29Z</time>
      </trkpt>
      <trkpt lat="49.84135" lon="2.48047">
        <ele>99.6</ele>
        <time>2023-07-19T08:56:30Z</time>
      </trkpt>
      <trkpt lat="49.84135" lon="2.48046">
        <ele>99.6</ele>
        <time>2023-07-19T08:56:32Z</time>
      </trkpt>
      <trkpt lat="49.84135" lon="2.48044">
        <ele>99.6</ele>
        <time>2023-07-19T08:56:33Z</time>
      </trkpt>
      <trkpt lat="49.84134" lon="2.48043">
        <ele>99.6</ele>
        <time>2023-07-19T08:56:34Z</time>
      </trkpt>
      <trkpt lat="49.84134" lon="2.48041">
        <ele>99.6</ele>
        <time>2023-07-19T08:56:35Z</time>
      </trkpt>
      <trkpt lat="49.84134" lon="2.48039">
        <ele>99.6</ele>
        <time>2023-07-19T08:56:37Z</time>
      </trkpt>
      <trkpt lat="49.84133" lon="2.48034">
        <ele>99.6</ele>
        <time>2023-07-19T08:56:39Z</time>
      </trkpt>
      <trkpt lat="49.84133" lon="2.48033">
        <ele>99.6</ele>
        <time>2023-07-19T08:56:41Z</time>
      </trkpt>
      <trkpt lat="49.84133" lon="2.48031">
        <ele>99.6</ele>
        <time>2023-07-19T08:56:42Z</time>
      </trkpt>
      <trkpt lat="49.84133" lon="2.48028">
        <ele>99.6</ele>
        <time>2023-07-19T08:56:43Z</time>
      </trkpt>
      <trkpt lat="49.84132" lon="2.48026">
        <ele>99.6</ele>
        <time>2023-07-19T08:56:44Z</time>
      </trkpt>
      <trkpt lat="49.84132" lon="2.48024">
        <ele>99.6</ele>
        <time>2023-07-19T08:56:45Z</time>
      </trkpt>
      <trkpt lat="49.84132" lon="2.48022">
        <ele>99.6</ele>
        <time>2023-07-19T08:56:46Z</time>
      </trkpt>
      <trkpt lat="49.84132" lon="2.48018">
        <ele>99.6</ele>
        <time>2023-07-19T08:56:48Z</time>
      </trkpt>
      <trkpt lat="49.84131" lon="2.48017">
        <ele>99.6</ele>
        <time>2023-07-19T08:56:49Z</time>
      </trkpt>
      <trkpt lat="49.84131" lon="2.48016">
        <ele>99.6</ele>
        <time>2023-07-19T08:56:50Z</time>
      </trkpt>
      <trkpt lat="49.84131" lon="2.48012">
        <ele>99.6</ele>
        <time>2023-07-19T08:56:51Z</time>
      </trkpt>
      <trkpt lat="49.84131" lon="2.48011">
        <ele>99.6</ele>
        <time>2023-07-19T08:56:52Z</time>
      </trkpt>
      <trkpt lat="49.8413" lon="2.4801">
        <ele>99.6</ele>
        <time>2023-07-19T08:56:53Z</time>
      </trkpt>
      <trkpt lat="49.8413" lon="2.48008">
        <ele>99.5</ele>
        <time>2023-07-19T08:56:55Z</time>
      </trkpt>
      <trkpt lat="49.8413" lon="2.48006">
        <ele>99.5</ele>
        <time>2023-07-19T08:56:56Z</time>
      </trkpt>
      <trkpt lat="49.8413" lon="2.48004">
        <ele>99.5</ele>
        <time>2023-07-19T08:56:57Z</time>
      </trkpt>
      <trkpt lat="49.84129" lon="2.48002">
        <ele>99.5</ele>
        <time>2023-07-19T08:56:58Z</time>
      </trkpt>
      <trkpt lat="49.84129" lon="2.48">
        <ele>99.5</ele>
        <time>2023-07-19T08:56:59Z</time>
      </trkpt>
      <trkpt lat="49.84129" lon="2.47998">
        <ele>99.5</ele>
        <time>2023-07-19T08:57:00Z</time>
      </trkpt>
      <trkpt lat="49.84129" lon="2.47997">
        <ele>99.5</ele>
        <time>2023-07-19T08:57:01Z</time>
      </trkpt>
      <trkpt lat="49.84128" lon="2.47995">
        <ele>99.5</ele>
        <time>2023-07-19T08:57:02Z</time>
      </trkpt>
      <trkpt lat="49.84128" lon="2.47993">
        <ele>99.5</ele>
        <time>2023-07-19T08:57:03Z</time>
      </trkpt>
      <trkpt lat="49.84128" lon="2.47991">
        <ele>99.5</ele>
        <time>2023-07-19T08:57:04Z</time>
      </trkpt>
      <trkpt lat="49.84128" lon="2.47989">
        <ele>99.5</ele>
        <time>2023-07-19T08:57:06Z</time>
      </trkpt>
      <trkpt lat="49.84127" lon="2.47986">
        <ele>99.5</ele>
        <time>2023-07-19T08:57:07Z</time>
      </trkpt>
      <trkpt lat="49.84127" lon="2.47985">
        <ele>99.5</ele>
        <time>2023-07-19T08:57:08Z</time>
      </trkpt>
      <trkpt lat="49.84127" lon="2.47984">
        <ele>99.5</ele>
        <time>2023-07-19T08:57:09Z</time>
      </trkpt>
      <trkpt lat="49.84127" lon="2.47982">
        <ele>99.5</ele>
        <time>2023-07-19T08:57:10Z</time>
      </trkpt>
      <trkpt lat="49.84126" lon="2.4798">
        <ele>99.5</ele>
        <time>2023-07-19T08:57:11Z</time>
      </trkpt>
      <trkpt lat="49.84126" lon="2.47978">
        <ele>99.5</ele>
        <time>2023-07-19T08:57:12Z</time>
      </trkpt>
      <trkpt lat="49.84126" lon="2.47975">
        <ele>99.4</ele>
        <time>2023-07-19T08:57:13Z</time>
      </trkpt>
      <trkpt lat="49.84125" lon="2.47973">
        <ele>99.4</ele>
        <time>2023-07-19T08:57:15Z</time>
      </trkpt>
      <trkpt lat="49.84125" lon="2.47972">
        <ele>99.4</ele>
        <time>2023-07-19T08:57:16Z</time>
      </trkpt>
      <trkpt lat="49.84125" lon="2.4797">
        <ele>99.4</ele>
        <time>2023-07-19T08:57:17Z</time>
      </trkpt>
      <trkpt lat="49.84124" lon="2.47968">
        <ele>99.4</ele>
        <time>2023-07-19T08:57:19Z</time>
      </trkpt>
      <trkpt lat="49.84124" lon="2.47965">
        <ele>99.4</ele>
        <time>2023-07-19T08:57:20Z</time>
      </trkpt>
      <trkpt lat="49.84124" lon="2.47963">
        <ele>99.4</ele>
        <time>2023-07-19T08:57:21Z</time>
      </trkpt>
      <trkpt lat="49.84123" lon="2.4796">
        <ele>99.3</ele>
        <time>2023-07-19T08:57:22Z</time>
      </trkpt>
      <trkpt lat="49.84123" lon="2.47958">
        <ele>99.3</ele>
        <time>2023-07-19T08:57:23Z</time>
      </trkpt>
      <trkpt lat="49.84123" lon="2.47956">
        <ele>99.3</ele>
        <time>2023-07-19T08:57:24Z</time>
      </trkpt>
      <trkpt lat="49.84122" lon="2.47954">
        <ele>99.3</ele>
        <time>2023-07-19T08:57:25Z</time>
      </trkpt>
      <trkpt lat="49.84122" lon="2.47952">
        <ele>99.3</ele>
        <time>2023-07-19T08:57:27Z</time>
      </trkpt>
      <trkpt lat="49.84122" lon="2.47949">
        <ele>99.2</ele>
        <time>2023-07-19T08:57:28Z</time>
      </trkpt>
      <trkpt lat="49.84121" lon="2.47948">
        <ele>99.2</ele>
        <time>2023-07-19T08:57:29Z</time>
      </trkpt>
      <trkpt lat="49.84121" lon="2.47946">
        <ele>99.2</ele>
        <time>2023-07-19T08:57:30Z</time>
      </trkpt>
      <trkpt lat="49.84121" lon="2.47943">
        <ele>99.2</ele>
        <time>2023-07-19T08:57:31Z</time>
      </trkpt>
      <trkpt lat="49.84121" lon="2.47942">
        <ele>99.2</ele>
        <time>2023-07-19T08:57:32Z</time>
      </trkpt>
      <trkpt lat="49.84121" lon="2.4794">
        <ele>99.2</ele>
        <time>2023-07-19T08:57:33Z</time>
      </trkpt>
      <trkpt lat="49.84121" lon="2.47938">
        <ele>99.2</ele>
        <time>2023-07-19T08:57:34Z</time>
      </trkpt>
      <trkpt lat="49.8412" lon="2.47935">
        <ele>99.1</ele>
        <time>2023-07-19T08:57:35Z</time>
      </trkpt>
      <trkpt lat="49.8412" lon="2.4793">
        <ele>99.1</ele>
        <time>2023-07-19T08:57:38Z</time>
      </trkpt>
      <trkpt lat="49.84119" lon="2.47929">
        <ele>99.1</ele>
        <time>2023-07-19T08:57:39Z</time>
      </trkpt>
      <trkpt lat="49.84119" lon="2.47927">
        <ele>99.1</ele>
        <time>2023-07-19T08:57:41Z</time>
      </trkpt>
      <trkpt lat="49.84118" lon="2.47926">
        <ele>99.1</ele>
        <time>2023-07-19T08:57:42Z</time>
      </trkpt>
      <trkpt lat="49.84118" lon="2.47922">
        <ele>99.1</ele>
        <time>2023-07-19T08:57:43Z</time>
      </trkpt>
      <trkpt lat="49.84118" lon="2.47921">
        <ele>99.1</ele>
        <time>2023-07-19T08:57:44Z</time>
      </trkpt>
      <trkpt lat="49.84117" lon="2.4792">
        <ele>99</ele>
        <time>2023-07-19T08:57:45Z</time>
      </trkpt>
      <trkpt lat="49.84117" lon="2.47917">
        <ele>99</ele>
        <time>2023-07-19T08:57:46Z</time>
      </trkpt>
      <trkpt lat="49.84116" lon="2.47916">
        <ele>99</ele>
        <time>2023-07-19T08:57:48Z</time>
      </trkpt>
      <trkpt lat="49.84116" lon="2.47914">
        <ele>99</ele>
        <time>2023-07-19T08:57:49Z</time>
      </trkpt>
      <trkpt lat="49.84115" lon="2.47911">
        <ele>99</ele>
        <time>2023-07-19T08:57:50Z</time>
      </trkpt>
      <trkpt lat="49.84115" lon="2.4791">
        <ele>99</ele>
        <time>2023-07-19T08:57:51Z</time>
      </trkpt>
      <trkpt lat="49.84115" lon="2.47909">
        <ele>99</ele>
        <time>2023-07-19T08:57:52Z</time>
      </trkpt>
      <trkpt lat="49.84114" lon="2.47908">
        <ele>99</ele>
        <time>2023-07-19T08:57:53Z</time>
      </trkpt>
      <trkpt lat="49.84114" lon="2.47906">
        <ele>99</ele>
        <time>2023-07-19T08:57:54Z</time>
      </trkpt>
      <trkpt lat="49.84114" lon="2.47904">
        <ele>99</ele>
        <time>2023-07-19T08:57:55Z</time>
      </trkpt>
      <trkpt lat="49.84113" lon="2.479">
        <ele>99</ele>
        <time>2023-07-19T08:57:56Z</time>
      </trkpt>
      <trkpt lat="49.84113" lon="2.47898">
        <ele>99</ele>
        <time>2023-07-19T08:57:58Z</time>
      </trkpt>
      <trkpt lat="49.84113" lon="2.47897">
        <ele>98.9</ele>
        <time>2023-07-19T08:57:59Z</time>
      </trkpt>
      <trkpt lat="49.84113" lon="2.47893">
        <ele>98.9</ele>
        <time>2023-07-19T08:58:00Z</time>
      </trkpt>
      <trkpt lat="49.84113" lon="2.47892">
        <ele>98.9</ele>
        <time>2023-07-19T08:58:02Z</time>
      </trkpt>
      <trkpt lat="49.84113" lon="2.4789">
        <ele>98.9</ele>
        <time>2023-07-19T08:58:03Z</time>
      </trkpt>
      <trkpt lat="49.84113" lon="2.47889">
        <ele>98.9</ele>
        <time>2023-07-19T08:58:04Z</time>
      </trkpt>
      <trkpt lat="49.84113" lon="2.47887">
        <ele>98.9</ele>
        <time>2023-07-19T08:58:05Z</time>
      </trkpt>
      <trkpt lat="49.84113" lon="2.47885">
        <ele>98.9</ele>
        <time>2023-07-19T08:58:06Z</time>
      </trkpt>
      <trkpt lat="49.84113" lon="2.47882">
        <ele>98.9</ele>
        <time>2023-07-19T08:58:08Z</time>
      </trkpt>
      <trkpt lat="49.84112" lon="2.4788">
        <ele>98.9</ele>
        <time>2023-07-19T08:58:09Z</time>
      </trkpt>
      <trkpt lat="49.84112" lon="2.47878">
        <ele>98.9</ele>
        <time>2023-07-19T08:58:10Z</time>
      </trkpt>
      <trkpt lat="49.84112" lon="2.47875">
        <ele>98.9</ele>
        <time>2023-07-19T08:58:12Z</time>
      </trkpt>
      <trkpt lat="49.84111" lon="2.47873">
        <ele>98.9</ele>
        <time>2023-07-19T08:58:13Z</time>
      </trkpt>
      <trkpt lat="49.8411" lon="2.47869">
        <ele>98.9</ele>
        <time>2023-07-19T08:58:15Z</time>
      </trkpt>
      <trkpt lat="49.8411" lon="2.47867">
        <ele>98.8</ele>
        <time>2023-07-19T08:58:16Z</time>
      </trkpt>
      <trkpt lat="49.84109" lon="2.47864">
        <ele>98.8</ele>
        <time>2023-07-19T08:58:17Z</time>
      </trkpt>
      <trkpt lat="49.84108" lon="2.47863">
        <ele>98.8</ele>
        <time>2023-07-19T08:58:19Z</time>
      </trkpt>
      <trkpt lat="49.84108" lon="2.47862">
        <ele>98.8</ele>
        <time>2023-07-19T08:58:20Z</time>
      </trkpt>
      <trkpt lat="49.84107" lon="2.4786">
        <ele>98.8</ele>
        <time>2023-07-19T08:58:21Z</time>
      </trkpt>
      <trkpt lat="49.84107" lon="2.47858">
        <ele>98.8</ele>
        <time>2023-07-19T08:58:22Z</time>
      </trkpt>
      <trkpt lat="49.84106" lon="2.47855">
        <ele>98.8</ele>
        <time>2023-07-19T08:58:23Z</time>
      </trkpt>
      <trkpt lat="49.84105" lon="2.47854">
        <ele>98.7</ele>
        <time>2023-07-19T08:58:24Z</time>
      </trkpt>
      <trkpt lat="49.84105" lon="2.47853">
        <ele>98.7</ele>
        <time>2023-07-19T08:58:25Z</time>
      </trkpt>
      <trkpt lat="49.84104" lon="2.47849">
        <ele>98.7</ele>
        <time>2023-07-19T08:58:26Z</time>
      </trkpt>
      <trkpt lat="49.84103" lon="2.47847">
        <ele>98.7</ele>
        <time>2023-07-19T08:58:28Z</time>
      </trkpt>
      <trkpt lat="49.84103" lon="2.47846">
        <ele>98.6</ele>
        <time>2023-07-19T08:58:29Z</time>
      </trkpt>
      <trkpt lat="49.84102" lon="2.47844">
        <ele>98.6</ele>
        <time>2023-07-19T08:58:31Z</time>
      </trkpt>
      <trkpt lat="49.84102" lon="2.47842">
        <ele>98.6</ele>
        <time>2023-07-19T08:58:32Z</time>
      </trkpt>
      <trkpt lat="49.84101" lon="2.4784">
        <ele>98.5</ele>
        <time>2023-07-19T08:58:33Z</time>
      </trkpt>
      <trkpt lat="49.84101" lon="2.47838">
        <ele>98.5</ele>
        <time>2023-07-19T08:58:34Z</time>
      </trkpt>
      <trkpt lat="49.841" lon="2.47836">
        <ele>98.5</ele>
        <time>2023-07-19T08:58:35Z</time>
      </trkpt>
      <trkpt lat="49.84099" lon="2.47834">
        <ele>98.4</ele>
        <time>2023-07-19T08:58:36Z</time>
      </trkpt>
      <trkpt lat="49.84099" lon="2.47833">
        <ele>98.4</ele>
        <time>2023-07-19T08:58:38Z</time>
      </trkpt>
      <trkpt lat="49.84097" lon="2.47828">
        <ele>98.3</ele>
        <time>2023-07-19T08:58:40Z</time>
      </trkpt>
      <trkpt lat="49.84096" lon="2.47826">
        <ele>98.3</ele>
        <time>2023-07-19T08:58:42Z</time>
      </trkpt>
      <trkpt lat="49.84095" lon="2.47824">
        <ele>98.3</ele>
        <time>2023-07-19T08:58:43Z</time>
      </trkpt>
      <trkpt lat="49.84095" lon="2.47822">
        <ele>98.3</ele>
        <time>2023-07-19T08:58:44Z</time>
      </trkpt>
      <trkpt lat="49.84094" lon="2.47819">
        <ele>98.2</ele>
        <time>2023-07-19T08:58:45Z</time>
      </trkpt>
      <trkpt lat="49.84093" lon="2.47818">
        <ele>98.2</ele>
        <time>2023-07-19T08:58:46Z</time>
      </trkpt>
      <trkpt lat="49.84093" lon="2.47817">
        <ele>98.2</ele>
        <time>2023-07-19T08:58:47Z</time>
      </trkpt>
      <trkpt lat="49.84092" lon="2.47815">
        <ele>98.2</ele>
        <time>2023-07-19T08:58:49Z</time>
      </trkpt>
      <trkpt lat="49.84091" lon="2.47813">
        <ele>98.2</ele>
        <time>2023-07-19T08:58:50Z</time>
      </trkpt>
      <trkpt lat="49.84091" lon="2.47811">
        <ele>98.1</ele>
        <time>2023-07-19T08:58:52Z</time>
      </trkpt>
      <trkpt lat="49.8409" lon="2.47809">
        <ele>98.1</ele>
        <time>2023-07-19T08:58:53Z</time>
      </trkpt>
      <trkpt lat="49.84089" lon="2.47806">
        <ele>98.1</ele>
        <time>2023-07-19T08:58:54Z</time>
      </trkpt>
      <trkpt lat="49.84089" lon="2.47805">
        <ele>98.1</ele>
        <time>2023-07-19T08:58:55Z</time>
      </trkpt>
      <trkpt lat="49.84088" lon="2.47804">
        <ele>98.1</ele>
        <time>2023-07-19T08:58:56Z</time>
      </trkpt>
      <trkpt lat="49.84087" lon="2.478">
        <ele>98</ele>
        <time>2023-07-19T08:58:57Z</time>
      </trkpt>
      <trkpt lat="49.84086" lon="2.47798">
        <ele>98</ele>
        <time>2023-07-19T08:58:59Z</time>
      </trkpt>
      <trkpt lat="49.84086" lon="2.47796">
        <ele>98</ele>
        <time>2023-07-19T08:59:01Z</time>
      </trkpt>
      <trkpt lat="49.84085" lon="2.47795">
        <ele>98</ele>
        <time>2023-07-19T08:59:02Z</time>
      </trkpt>
      <trkpt lat="49.84085" lon="2.47793">
        <ele>97.9</ele>
        <time>2023-07-19T08:59:03Z</time>
      </trkpt>
      <trkpt lat="49.84084" lon="2.47791">
        <ele>97.9</ele>
        <time>2023-07-19T08:59:04Z</time>
      </trkpt>
      <trkpt lat="49.84084" lon="2.47789">
        <ele>97.9</ele>
        <time>2023-07-19T08:59:06Z</time>
      </trkpt>
      <trkpt lat="49.84083" lon="2.47785">
        <ele>97.8</ele>
        <time>2023-07-19T08:59:08Z</time>
      </trkpt>
      <trkpt lat="49.84082" lon="2.47783">
        <ele>97.8</ele>
        <time>2023-07-19T08:59:10Z</time>
      </trkpt>
      <trkpt lat="49.84081" lon="2.47781">
        <ele>97.8</ele>
        <time>2023-07-19T08:59:11Z</time>
      </trkpt>
      <trkpt lat="49.84081" lon="2.47779">
        <ele>97.8</ele>
        <time>2023-07-19T08:59:12Z</time>
      </trkpt>
      <trkpt lat="49.84081" lon="2.47777">
        <ele>97.8</ele>
        <time>2023-07-19T08:59:14Z</time>
      </trkpt>
      <trkpt lat="49.8408" lon="2.47774">
        <ele>97.8</ele>
        <time>2023-07-19T08:59:15Z</time>
      </trkpt>
      <trkpt lat="49.84079" lon="2.47773">
        <ele>97.7</ele>
        <time>2023-07-19T08:59:16Z</time>
      </trkpt>
      <trkpt lat="49.84079" lon="2.47772">
        <ele>97.7</ele>
        <time>2023-07-19T08:59:17Z</time>
      </trkpt>
      <trkpt lat="49.84079" lon="2.4777">
        <ele>97.7</ele>
        <time>2023-07-19T08:59:18Z</time>
      </trkpt>
      <trkpt lat="49.84078" lon="2.47768">
        <ele>97.7</ele>
        <time>2023-07-19T08:59:19Z</time>
      </trkpt>
      <trkpt lat="49.84077" lon="2.47767">
        <ele>97.7</ele>
        <time>2023-07-19T08:59:21Z</time>
      </trkpt>
      <trkpt lat="49.84076" lon="2.47764">
        <ele>97.7</ele>
        <time>2023-07-19T08:59:22Z</time>
      </trkpt>
      <trkpt lat="49.84076" lon="2.47762">
        <ele>97.7</ele>
        <time>2023-07-19T08:59:24Z</time>
      </trkpt>
      <trkpt lat="49.84075" lon="2.4776">
        <ele>97.7</ele>
        <time>2023-07-19T08:59:25Z</time>
      </trkpt>
      <trkpt lat="49.84074" lon="2.47757">
        <ele>97.6</ele>
        <time>2023-07-19T08:59:26Z</time>
      </trkpt>
      <trkpt lat="49.84074" lon="2.47756">
        <ele>97.6</ele>
        <time>2023-07-19T08:59:27Z</time>
      </trkpt>
      <trkpt lat="49.84073" lon="2.47753">
        <ele>97.6</ele>
        <time>2023-07-19T08:59:29Z</time>
      </trkpt>
      <trkpt lat="49.84072" lon="2.47751">
        <ele>97.6</ele>
        <time>2023-07-19T08:59:31Z</time>
      </trkpt>
      <trkpt lat="49.84071" lon="2.47748">
        <ele>97.6</ele>
        <time>2023-07-19T08:59:32Z</time>
      </trkpt>
      <trkpt lat="49.8407" lon="2.47745">
        <ele>97.6</ele>
        <time>2023-07-19T08:59:34Z</time>
      </trkpt>
      <trkpt lat="49.8407" lon="2.47744">
        <ele>97.6</ele>
        <time>2023-07-19T08:59:35Z</time>
      </trkpt>
      <trkpt lat="49.84069" lon="2.47743">
        <ele>97.6</ele>
        <time>2023-07-19T08:59:36Z</time>
      </trkpt>
      <trkpt lat="49.84069" lon="2.47741">
        <ele>97.5</ele>
        <time>2023-07-19T08:59:37Z</time>
      </trkpt>
      <trkpt lat="49.84068" lon="2.47739">
        <ele>97.5</ele>
        <time>2023-07-19T08:59:38Z</time>
      </trkpt>
      <trkpt lat="49.84068" lon="2.47737">
        <ele>97.5</ele>
        <time>2023-07-19T08:59:39Z</time>
      </trkpt>
      <trkpt lat="49.84067" lon="2.47735">
        <ele>97.5</ele>
        <time>2023-07-19T08:59:40Z</time>
      </trkpt>
      <trkpt lat="49.84066" lon="2.4773">
        <ele>97.5</ele>
        <time>2023-07-19T08:59:43Z</time>
      </trkpt>
      <trkpt lat="49.84065" lon="2.47727">
        <ele>97.5</ele>
        <time>2023-07-19T08:59:45Z</time>
      </trkpt>
      <trkpt lat="49.84065" lon="2.47726">
        <ele>97.5</ele>
        <time>2023-07-19T08:59:46Z</time>
      </trkpt>
      <trkpt lat="49.84064" lon="2.47723">
        <ele>97.5</ele>
        <time>2023-07-19T08:59:48Z</time>
      </trkpt>
      <trkpt lat="49.84063" lon="2.47722">
        <ele>97.5</ele>
        <time>2023-07-19T08:59:49Z</time>
      </trkpt>
      <trkpt lat="49.84063" lon="2.4772">
        <ele>97.5</ele>
        <time>2023-07-19T08:59:50Z</time>
      </trkpt>
      <trkpt lat="49.84062" lon="2.47717">
        <ele>97.5</ele>
        <time>2023-07-19T08:59:51Z</time>
      </trkpt>
      <trkpt lat="49.84062" lon="2.47716">
        <ele>97.5</ele>
        <time>2023-07-19T08:59:53Z</time>
      </trkpt>
      <trkpt lat="49.84061" lon="2.47714">
        <ele>97.5</ele>
        <time>2023-07-19T08:59:54Z</time>
      </trkpt>
      <trkpt lat="49.84061" lon="2.47712">
        <ele>97.5</ele>
        <time>2023-07-19T08:59:55Z</time>
      </trkpt>
      <trkpt lat="49.8406" lon="2.47709">
        <ele>97.5</ele>
        <time>2023-07-19T08:59:57Z</time>
      </trkpt>
      <trkpt lat="49.84059" lon="2.47708">
        <ele>97.5</ele>
        <time>2023-07-19T08:59:58Z</time>
      </trkpt>
      <trkpt lat="49.84058" lon="2.47705">
        <ele>97.5</ele>
        <time>2023-07-19T08:59:59Z</time>
      </trkpt>
      <trkpt lat="49.84057" lon="2.47703">
        <ele>97.5</ele>
        <time>2023-07-19T09:00:00Z</time>
      </trkpt>
      <trkpt lat="49.84057" lon="2.47702">
        <ele>97.5</ele>
        <time>2023-07-19T09:00:02Z</time>
      </trkpt>
      <trkpt lat="49.84057" lon="2.477">
        <ele>97.5</ele>
        <time>2023-07-19T09:00:03Z</time>
      </trkpt>
      <trkpt lat="49.84056" lon="2.47699">
        <ele>97.5</ele>
        <time>2023-07-19T09:00:04Z</time>
      </trkpt>
      <trkpt lat="49.84056" lon="2.47697">
        <ele>97.5</ele>
        <time>2023-07-19T09:00:05Z</time>
      </trkpt>
      <trkpt lat="49.84055" lon="2.47694">
        <ele>97.5</ele>
        <time>2023-07-19T09:00:06Z</time>
      </trkpt>
      <trkpt lat="49.84055" lon="2.47693">
        <ele>97.5</ele>
        <time>2023-07-19T09:00:07Z</time>
      </trkpt>
      <trkpt lat="49.84055" lon="2.47691">
        <ele>97.5</ele>
        <time>2023-07-19T09:00:08Z</time>
      </trkpt>
      <trkpt lat="49.84054" lon="2.47689">
        <ele>97.5</ele>
        <time>2023-07-19T09:00:09Z</time>
      </trkpt>
      <trkpt lat="49.84053" lon="2.47687">
        <ele>97.5</ele>
        <time>2023-07-19T09:00:11Z</time>
      </trkpt>
      <trkpt lat="49.84053" lon="2.47686">
        <ele>97.5</ele>
        <time>2023-07-19T09:00:12Z</time>
      </trkpt>
      <trkpt lat="49.84052" lon="2.47683">
        <ele>97.5</ele>
        <time>2023-07-19T09:00:13Z</time>
      </trkpt>
      <trkpt lat="49.84052" lon="2.47682">
        <ele>97.5</ele>
        <time>2023-07-19T09:00:14Z</time>
      </trkpt>
      <trkpt lat="49.84051" lon="2.47681">
        <ele>97.5</ele>
        <time>2023-07-19T09:00:15Z</time>
      </trkpt>
      <trkpt lat="49.84051" lon="2.47679">
        <ele>97.5</ele>
        <time>2023-07-19T09:00:16Z</time>
      </trkpt>
      <trkpt lat="49.8405" lon="2.47678">
        <ele>97.5</ele>
        <time>2023-07-19T09:00:17Z</time>
      </trkpt>
      <trkpt lat="49.8405" lon="2.47676">
        <ele>97.5</ele>
        <time>2023-07-19T09:00:18Z</time>
      </trkpt>
      <trkpt lat="49.84049" lon="2.47675">
        <ele>97.5</ele>
        <time>2023-07-19T09:00:19Z</time>
      </trkpt>
      <trkpt lat="49.84049" lon="2.47673">
        <ele>97.5</ele>
        <time>2023-07-19T09:00:21Z</time>
      </trkpt>
      <trkpt lat="49.84048" lon="2.47672">
        <ele>97.5</ele>
        <time>2023-07-19T09:00:22Z</time>
      </trkpt>
      <trkpt lat="49.84048" lon="2.4767">
        <ele>97.5</ele>
        <time>2023-07-19T09:00:23Z</time>
      </trkpt>
      <trkpt lat="49.84047" lon="2.47667">
        <ele>97.5</ele>
        <time>2023-07-19T09:00:24Z</time>
      </trkpt>
      <trkpt lat="49.84047" lon="2.47666">
        <ele>97.5</ele>
        <time>2023-07-19T09:00:25Z</time>
      </trkpt>
      <trkpt lat="49.84046" lon="2.47664">
        <ele>97.5</ele>
        <time>2023-07-19T09:00:26Z</time>
      </trkpt>
      <trkpt lat="49.84046" lon="2.47662">
        <ele>97.5</ele>
        <time>2023-07-19T09:00:27Z</time>
      </trkpt>
      <trkpt lat="49.84045" lon="2.47659">
        <ele>97.5</ele>
        <time>2023-07-19T09:00:28Z</time>
      </trkpt>
      <trkpt lat="49.84044" lon="2.47658">
        <ele>97.5</ele>
        <time>2023-07-19T09:00:30Z</time>
      </trkpt>
      <trkpt lat="49.84044" lon="2.47657">
        <ele>97.5</ele>
        <time>2023-07-19T09:00:31Z</time>
      </trkpt>
      <trkpt lat="49.84043" lon="2.47655">
        <ele>97.5</ele>
        <time>2023-07-19T09:00:32Z</time>
      </trkpt>
      <trkpt lat="49.84043" lon="2.47653">
        <ele>97.5</ele>
        <time>2023-07-19T09:00:33Z</time>
      </trkpt>
      <trkpt lat="49.84042" lon="2.4765">
        <ele>97.5</ele>
        <time>2023-07-19T09:00:35Z</time>
      </trkpt>
      <trkpt lat="49.84041" lon="2.47649">
        <ele>97.5</ele>
        <time>2023-07-19T09:00:36Z</time>
      </trkpt>
      <trkpt lat="49.84041" lon="2.47647">
        <ele>97.5</ele>
        <time>2023-07-19T09:00:37Z</time>
      </trkpt>
      <trkpt lat="49.8404" lon="2.47646">
        <ele>97.5</ele>
        <time>2023-07-19T09:00:39Z</time>
      </trkpt>
      <trkpt lat="49.84039" lon="2.47644">
        <ele>97.5</ele>
        <time>2023-07-19T09:00:40Z</time>
      </trkpt>
      <trkpt lat="49.84039" lon="2.47643">
        <ele>97.5</ele>
        <time>2023-07-19T09:00:41Z</time>
      </trkpt>
      <trkpt lat="49.84038" lon="2.47642">
        <ele>97.5</ele>
        <time>2023-07-19T09:00:42Z</time>
      </trkpt>
      <trkpt lat="49.84038" lon="2.4764">
        <ele>97.5</ele>
        <time>2023-07-19T09:00:43Z</time>
      </trkpt>
      <trkpt lat="49.84037" lon="2.47638">
        <ele>97.5</ele>
        <time>2023-07-19T09:00:44Z</time>
      </trkpt>
      <trkpt lat="49.84037" lon="2.47637">
        <ele>97.5</ele>
        <time>2023-07-19T09:00:45Z</time>
      </trkpt>
      <trkpt lat="49.84036" lon="2.47635">
        <ele>97.5</ele>
        <time>2023-07-19T09:00:46Z</time>
      </trkpt>
      <trkpt lat="49.84036" lon="2.47633">
        <ele>97.5</ele>
        <time>2023-07-19T09:00:48Z</time>
      </trkpt>
      <trkpt lat="49.84034" lon="2.47629">
        <ele>97.5</ele>
        <time>2023-07-19T09:00:50Z</time>
      </trkpt>
      <trkpt lat="49.84034" lon="2.47628">
        <ele>97.4</ele>
        <time>2023-07-19T09:00:51Z</time>
      </trkpt>
      <trkpt lat="49.84033" lon="2.47626">
        <ele>97.4</ele>
        <time>2023-07-19T09:00:52Z</time>
      </trkpt>
      <trkpt lat="49.84032" lon="2.47624">
        <ele>97.4</ele>
        <time>2023-07-19T09:00:53Z</time>
      </trkpt>
      <trkpt lat="49.84032" lon="2.47622">
        <ele>97.4</ele>
        <time>2023-07-19T09:00:54Z</time>
      </trkpt>
      <trkpt lat="49.84031" lon="2.47621">
        <ele>97.4</ele>
        <time>2023-07-19T09:00:55Z</time>
      </trkpt>
      <trkpt lat="49.8403" lon="2.47619">
        <ele>97.4</ele>
        <time>2023-07-19T09:00:57Z</time>
      </trkpt>
      <trkpt lat="49.84028" lon="2.47614">
        <ele>97.4</ele>
        <time>2023-07-19T09:00:58Z</time>
      </trkpt>
      <trkpt lat="49.84028" lon="2.47613">
        <ele>97.4</ele>
        <time>2023-07-19T09:01:00Z</time>
      </trkpt>
      <trkpt lat="49.84027" lon="2.47611">
        <ele>97.4</ele>
        <time>2023-07-19T09:01:02Z</time>
      </trkpt>
      <trkpt lat="49.84026" lon="2.47609">
        <ele>97.3</ele>
        <time>2023-07-19T09:01:03Z</time>
      </trkpt>
      <trkpt lat="49.84025" lon="2.47606">
        <ele>97.3</ele>
        <time>2023-07-19T09:01:04Z</time>
      </trkpt>
      <trkpt lat="49.84025" lon="2.47605">
        <ele>97.3</ele>
        <time>2023-07-19T09:01:05Z</time>
      </trkpt>
      <trkpt lat="49.84025" lon="2.47604">
        <ele>97.3</ele>
        <time>2023-07-19T09:01:06Z</time>
      </trkpt>
      <trkpt lat="49.84024" lon="2.47601">
        <ele>97.3</ele>
        <time>2023-07-19T09:01:08Z</time>
      </trkpt>
      <trkpt lat="49.84023" lon="2.476">
        <ele>97.3</ele>
        <time>2023-07-19T09:01:09Z</time>
      </trkpt>
      <trkpt lat="49.84022" lon="2.47599">
        <ele>97.2</ele>
        <time>2023-07-19T09:01:10Z</time>
      </trkpt>
      <trkpt lat="49.84022" lon="2.47596">
        <ele>97.2</ele>
        <time>2023-07-19T09:01:11Z</time>
      </trkpt>
      <trkpt lat="49.84021" lon="2.47595">
        <ele>97.2</ele>
        <time>2023-07-19T09:01:12Z</time>
      </trkpt>
      <trkpt lat="49.84021" lon="2.47594">
        <ele>97.2</ele>
        <time>2023-07-19T09:01:13Z</time>
      </trkpt>
      <trkpt lat="49.8402" lon="2.47592">
        <ele>97.1</ele>
        <time>2023-07-19T09:01:14Z</time>
      </trkpt>
      <trkpt lat="49.84019" lon="2.4759">
        <ele>97.1</ele>
        <time>2023-07-19T09:01:15Z</time>
      </trkpt>
      <trkpt lat="49.84018" lon="2.47589">
        <ele>97.1</ele>
        <time>2023-07-19T09:01:17Z</time>
      </trkpt>
      <trkpt lat="49.84018" lon="2.47587">
        <ele>97.1</ele>
        <time>2023-07-19T09:01:18Z</time>
      </trkpt>
      <trkpt lat="49.84017" lon="2.47586">
        <ele>97.1</ele>
        <time>2023-07-19T09:01:19Z</time>
      </trkpt>
      <trkpt lat="49.84017" lon="2.47583">
        <ele>97</ele>
        <time>2023-07-19T09:01:20Z</time>
      </trkpt>
      <trkpt lat="49.84016" lon="2.4758">
        <ele>97</ele>
        <time>2023-07-19T09:01:22Z</time>
      </trkpt>
      <trkpt lat="49.84015" lon="2.47577">
        <ele>97</ele>
        <time>2023-07-19T09:01:23Z</time>
      </trkpt>
      <trkpt lat="49.84015" lon="2.47576">
        <ele>97</ele>
        <time>2023-07-19T09:01:24Z</time>
      </trkpt>
      <trkpt lat="49.84014" lon="2.47573">
        <ele>96.9</ele>
        <time>2023-07-19T09:01:25Z</time>
      </trkpt>
      <trkpt lat="49.84013" lon="2.4757">
        <ele>96.9</ele>
        <time>2023-07-19T09:01:27Z</time>
      </trkpt>
      <trkpt lat="49.84012" lon="2.47568">
        <ele>96.9</ele>
        <time>2023-07-19T09:01:28Z</time>
      </trkpt>
      <trkpt lat="49.84012" lon="2.47566">
        <ele>96.9</ele>
        <time>2023-07-19T09:01:29Z</time>
      </trkpt>
      <trkpt lat="49.84012" lon="2.47564">
        <ele>96.8</ele>
        <time>2023-07-19T09:01:31Z</time>
      </trkpt>
      <trkpt lat="49.84011" lon="2.47561">
        <ele>96.8</ele>
        <time>2023-07-19T09:01:32Z</time>
      </trkpt>
      <trkpt lat="49.8401" lon="2.4756">
        <ele>96.8</ele>
        <time>2023-07-19T09:01:33Z</time>
      </trkpt>
      <trkpt lat="49.8401" lon="2.47559">
        <ele>96.8</ele>
        <time>2023-07-19T09:01:34Z</time>
      </trkpt>
      <trkpt lat="49.84009" lon="2.47556">
        <ele>96.8</ele>
        <time>2023-07-19T09:01:35Z</time>
      </trkpt>
      <trkpt lat="49.84009" lon="2.47555">
        <ele>96.8</ele>
        <time>2023-07-19T09:01:36Z</time>
      </trkpt>
      <trkpt lat="49.84008" lon="2.47554">
        <ele>96.8</ele>
        <time>2023-07-19T09:01:37Z</time>
      </trkpt>
      <trkpt lat="49.84008" lon="2.47552">
        <ele>96.8</ele>
        <time>2023-07-19T09:01:39Z</time>
      </trkpt>
      <trkpt lat="49.84007" lon="2.4755">
        <ele>96.8</ele>
        <time>2023-07-19T09:01:40Z</time>
      </trkpt>
      <trkpt lat="49.84007" lon="2.47549">
        <ele>96.8</ele>
        <time>2023-07-19T09:01:41Z</time>
      </trkpt>
      <trkpt lat="49.84006" lon="2.47547">
        <ele>96.7</ele>
        <time>2023-07-19T09:01:42Z</time>
      </trkpt>
      <trkpt lat="49.84006" lon="2.47545">
        <ele>96.7</ele>
        <time>2023-07-19T09:01:43Z</time>
      </trkpt>
      <trkpt lat="49.84006" lon="2.47544">
        <ele>96.7</ele>
        <time>2023-07-19T09:01:44Z</time>
      </trkpt>
      <trkpt lat="49.84005" lon="2.4754">
        <ele>96.7</ele>
        <time>2023-07-19T09:01:45Z</time>
      </trkpt>
      <trkpt lat="49.84005" lon="2.47539">
        <ele>96.7</ele>
        <time>2023-07-19T09:01:47Z</time>
      </trkpt>
      <trkpt lat="49.84004" lon="2.47537">
        <ele>96.7</ele>
        <time>2023-07-19T09:01:48Z</time>
      </trkpt>
      <trkpt lat="49.84003" lon="2.47535">
        <ele>96.7</ele>
        <time>2023-07-19T09:01:49Z</time>
      </trkpt>
      <trkpt lat="49.84003" lon="2.47533">
        <ele>96.7</ele>
        <time>2023-07-19T09:01:51Z</time>
      </trkpt>
      <trkpt lat="49.84002" lon="2.47532">
        <ele>96.7</ele>
        <time>2023-07-19T09:01:52Z</time>
      </trkpt>
      <trkpt lat="49.84001" lon="2.4753">
        <ele>96.7</ele>
        <time>2023-07-19T09:01:53Z</time>
      </trkpt>
      <trkpt lat="49.84001" lon="2.47529">
        <ele>96.6</ele>
        <time>2023-07-19T09:01:54Z</time>
      </trkpt>
      <trkpt lat="49.84" lon="2.47526">
        <ele>96.6</ele>
        <time>2023-07-19T09:01:56Z</time>
      </trkpt>
      <trkpt lat="49.83999" lon="2.47525">
        <ele>96.6</ele>
        <time>2023-07-19T09:01:57Z</time>
      </trkpt>
      <trkpt lat="49.83999" lon="2.47523">
        <ele>96.6</ele>
        <time>2023-07-19T09:01:58Z</time>
      </trkpt>
      <trkpt lat="49.83997" lon="2.4752">
        <ele>96.6</ele>
        <time>2023-07-19T09:01:59Z</time>
      </trkpt>
      <trkpt lat="49.83997" lon="2.47518">
        <ele>96.6</ele>
        <time>2023-07-19T09:02:01Z</time>
      </trkpt>
      <trkpt lat="49.83996" lon="2.47517">
        <ele>96.6</ele>
        <time>2023-07-19T09:02:02Z</time>
      </trkpt>
      <trkpt lat="49.83995" lon="2.47515">
        <ele>96.6</ele>
        <time>2023-07-19T09:02:03Z</time>
      </trkpt>
      <trkpt lat="49.83995" lon="2.47513">
        <ele>96.5</ele>
        <time>2023-07-19T09:02:04Z</time>
      </trkpt>
      <trkpt lat="49.83994" lon="2.47511">
        <ele>96.5</ele>
        <time>2023-07-19T09:02:06Z</time>
      </trkpt>
      <trkpt lat="49.83993" lon="2.47509">
        <ele>96.5</ele>
        <time>2023-07-19T09:02:07Z</time>
      </trkpt>
      <trkpt lat="49.83993" lon="2.47507">
        <ele>96.5</ele>
        <time>2023-07-19T09:02:08Z</time>
      </trkpt>
      <trkpt lat="49.83992" lon="2.47504">
        <ele>96.5</ele>
        <time>2023-07-19T09:02:09Z</time>
      </trkpt>
      <trkpt lat="49.83992" lon="2.47503">
        <ele>96.5</ele>
        <time>2023-07-19T09:02:10Z</time>
      </trkpt>
      <trkpt lat="49.83991" lon="2.47502">
        <ele>96.5</ele>
        <time>2023-07-19T09:02:11Z</time>
      </trkpt>
      <trkpt lat="49.83991" lon="2.47499">
        <ele>96.5</ele>
        <time>2023-07-19T09:02:12Z</time>
      </trkpt>
      <trkpt lat="49.8399" lon="2.47498">
        <ele>96.5</ele>
        <time>2023-07-19T09:02:14Z</time>
      </trkpt>
      <trkpt lat="49.8399" lon="2.47497">
        <ele>96.5</ele>
        <time>2023-07-19T09:02:15Z</time>
      </trkpt>
      <trkpt lat="49.83989" lon="2.47495">
        <ele>96.5</ele>
        <time>2023-07-19T09:02:16Z</time>
      </trkpt>
      <trkpt lat="49.83989" lon="2.47493">
        <ele>96.5</ele>
        <time>2023-07-19T09:02:17Z</time>
      </trkpt>
      <trkpt lat="49.83988" lon="2.47491">
        <ele>96.5</ele>
        <time>2023-07-19T09:02:18Z</time>
      </trkpt>
      <trkpt lat="49.83988" lon="2.47489">
        <ele>96.5</ele>
        <time>2023-07-19T09:02:19Z</time>
      </trkpt>
      <trkpt lat="49.83987" lon="2.47486">
        <ele>96.5</ele>
        <time>2023-07-19T09:02:20Z</time>
      </trkpt>
      <trkpt lat="49.83987" lon="2.47484">
        <ele>96.5</ele>
        <time>2023-07-19T09:02:21Z</time>
      </trkpt>
      <trkpt lat="49.83986" lon="2.47483">
        <ele>96.5</ele>
        <time>2023-07-19T09:02:22Z</time>
      </trkpt>
      <trkpt lat="49.83986" lon="2.4748">
        <ele>96.5</ele>
        <time>2023-07-19T09:02:24Z</time>
      </trkpt>
      <trkpt lat="49.83986" lon="2.47479">
        <ele>96.5</ele>
        <time>2023-07-19T09:02:25Z</time>
      </trkpt>
      <trkpt lat="49.83985" lon="2.47478">
        <ele>96.5</ele>
        <time>2023-07-19T09:02:26Z</time>
      </trkpt>
      <trkpt lat="49.83985" lon="2.47476">
        <ele>96.6</ele>
        <time>2023-07-19T09:02:28Z</time>
      </trkpt>
      <trkpt lat="49.83984" lon="2.47474">
        <ele>96.6</ele>
        <time>2023-07-19T09:02:29Z</time>
      </trkpt>
      <trkpt lat="49.83984" lon="2.47473">
        <ele>96.6</ele>
        <time>2023-07-19T09:02:30Z</time>
      </trkpt>
      <trkpt lat="49.83983" lon="2.4747">
        <ele>96.6</ele>
        <time>2023-07-19T09:02:31Z</time>
      </trkpt>
      <trkpt lat="49.83983" lon="2.47468">
        <ele>96.6</ele>
        <time>2023-07-19T09:02:32Z</time>
      </trkpt>
      <trkpt lat="49.83982" lon="2.47464">
        <ele>96.6</ele>
        <time>2023-07-19T09:02:34Z</time>
      </trkpt>
      <trkpt lat="49.83982" lon="2.47462">
        <ele>96.6</ele>
        <time>2023-07-19T09:02:36Z</time>
      </trkpt>
      <trkpt lat="49.83982" lon="2.47461">
        <ele>96.6</ele>
        <time>2023-07-19T09:02:37Z</time>
      </trkpt>
      <trkpt lat="49.83981" lon="2.47459">
        <ele>96.6</ele>
        <time>2023-07-19T09:02:38Z</time>
      </trkpt>
      <trkpt lat="49.83981" lon="2.47457">
        <ele>96.6</ele>
        <time>2023-07-19T09:02:39Z</time>
      </trkpt>
      <trkpt lat="49.8398" lon="2.47455">
        <ele>96.6</ele>
        <time>2023-07-19T09:02:40Z</time>
      </trkpt>
      <trkpt lat="49.8398" lon="2.47454">
        <ele>96.6</ele>
        <time>2023-07-19T09:02:41Z</time>
      </trkpt>
      <trkpt lat="49.83979" lon="2.47452">
        <ele>96.6</ele>
        <time>2023-07-19T09:02:42Z</time>
      </trkpt>
      <trkpt lat="49.83979" lon="2.47451">
        <ele>96.7</ele>
        <time>2023-07-19T09:02:44Z</time>
      </trkpt>
      <trkpt lat="49.83978" lon="2.47448">
        <ele>96.7</ele>
        <time>2023-07-19T09:02:45Z</time>
      </trkpt>
      <trkpt lat="49.83978" lon="2.47447">
        <ele>96.7</ele>
        <time>2023-07-19T09:02:47Z</time>
      </trkpt>
      <trkpt lat="49.83978" lon="2.47445">
        <ele>96.7</ele>
        <time>2023-07-19T09:02:48Z</time>
      </trkpt>
      <trkpt lat="49.83977" lon="2.47443">
        <ele>96.7</ele>
        <time>2023-07-19T09:02:49Z</time>
      </trkpt>
      <trkpt lat="49.83977" lon="2.47441">
        <ele>96.7</ele>
        <time>2023-07-19T09:02:50Z</time>
      </trkpt>
      <trkpt lat="49.83976" lon="2.47439">
        <ele>96.7</ele>
        <time>2023-07-19T09:02:52Z</time>
      </trkpt>
      <trkpt lat="49.83976" lon="2.47436">
        <ele>96.8</ele>
        <time>2023-07-19T09:02:53Z</time>
      </trkpt>
      <trkpt lat="49.83975" lon="2.47434">
        <ele>96.8</ele>
        <time>2023-07-19T09:02:55Z</time>
      </trkpt>
      <trkpt lat="49.83975" lon="2.47432">
        <ele>96.8</ele>
        <time>2023-07-19T09:02:56Z</time>
      </trkpt>
      <trkpt lat="49.83974" lon="2.4743">
        <ele>96.8</ele>
        <time>2023-07-19T09:02:57Z</time>
      </trkpt>
      <trkpt lat="49.83973" lon="2.47426">
        <ele>96.8</ele>
        <time>2023-07-19T09:02:59Z</time>
      </trkpt>
      <trkpt lat="49.83973" lon="2.47425">
        <ele>96.8</ele>
        <time>2023-07-19T09:03:00Z</time>
      </trkpt>
      <trkpt lat="49.83973" lon="2.47424">
        <ele>96.8</ele>
        <time>2023-07-19T09:03:01Z</time>
      </trkpt>
      <trkpt lat="49.83972" lon="2.47422">
        <ele>96.9</ele>
        <time>2023-07-19T09:03:02Z</time>
      </trkpt>
      <trkpt lat="49.83972" lon="2.4742">
        <ele>96.9</ele>
        <time>2023-07-19T09:03:03Z</time>
      </trkpt>
      <trkpt lat="49.83971" lon="2.47418">
        <ele>96.9</ele>
        <time>2023-07-19T09:03:05Z</time>
      </trkpt>
      <trkpt lat="49.83971" lon="2.47416">
        <ele>96.9</ele>
        <time>2023-07-19T09:03:06Z</time>
      </trkpt>
      <trkpt lat="49.8397" lon="2.47415">
        <ele>96.9</ele>
        <time>2023-07-19T09:03:07Z</time>
      </trkpt>
      <trkpt lat="49.83969" lon="2.47411">
        <ele>97</ele>
        <time>2023-07-19T09:03:08Z</time>
      </trkpt>
      <trkpt lat="49.83969" lon="2.4741">
        <ele>97</ele>
        <time>2023-07-19T09:03:09Z</time>
      </trkpt>
      <trkpt lat="49.83969" lon="2.47409">
        <ele>97</ele>
        <time>2023-07-19T09:03:10Z</time>
      </trkpt>
      <trkpt lat="49.83968" lon="2.47406">
        <ele>97</ele>
        <time>2023-07-19T09:03:11Z</time>
      </trkpt>
      <trkpt lat="49.83967" lon="2.47405">
        <ele>97</ele>
        <time>2023-07-19T09:03:13Z</time>
      </trkpt>
      <trkpt lat="49.83967" lon="2.47404">
        <ele>97</ele>
        <time>2023-07-19T09:03:14Z</time>
      </trkpt>
      <trkpt lat="49.83966" lon="2.47401">
        <ele>97.1</ele>
        <time>2023-07-19T09:03:15Z</time>
      </trkpt>
      <trkpt lat="49.83965" lon="2.474">
        <ele>97.1</ele>
        <time>2023-07-19T09:03:16Z</time>
      </trkpt>
      <trkpt lat="49.83965" lon="2.47398">
        <ele>97.1</ele>
        <time>2023-07-19T09:03:17Z</time>
      </trkpt>
      <trkpt lat="49.83964" lon="2.47397">
        <ele>97.1</ele>
        <time>2023-07-19T09:03:18Z</time>
      </trkpt>
      <trkpt lat="49.83963" lon="2.47395">
        <ele>97.1</ele>
        <time>2023-07-19T09:03:19Z</time>
      </trkpt>
      <trkpt lat="49.83962" lon="2.47393">
        <ele>97.1</ele>
        <time>2023-07-19T09:03:21Z</time>
      </trkpt>
      <trkpt lat="49.83961" lon="2.4739">
        <ele>97.2</ele>
        <time>2023-07-19T09:03:22Z</time>
      </trkpt>
      <trkpt lat="49.8396" lon="2.47388">
        <ele>97.2</ele>
        <time>2023-07-19T09:03:23Z</time>
      </trkpt>
      <trkpt lat="49.8396" lon="2.47387">
        <ele>97.2</ele>
        <time>2023-07-19T09:03:25Z</time>
      </trkpt>
      <trkpt lat="49.83959" lon="2.47386">
        <ele>97.2</ele>
        <time>2023-07-19T09:03:26Z</time>
      </trkpt>
      <trkpt lat="49.83959" lon="2.47385">
        <ele>97.2</ele>
        <time>2023-07-19T09:03:27Z</time>
      </trkpt>
      <trkpt lat="49.83958" lon="2.47383">
        <ele>97.2</ele>
        <time>2023-07-19T09:03:28Z</time>
      </trkpt>
      <trkpt lat="49.83957" lon="2.47382">
        <ele>97.3</ele>
        <time>2023-07-19T09:03:29Z</time>
      </trkpt>
      <trkpt lat="49.83957" lon="2.4738">
        <ele>97.3</ele>
        <time>2023-07-19T09:03:30Z</time>
      </trkpt>
      <trkpt lat="49.83956" lon="2.47379">
        <ele>97.3</ele>
        <time>2023-07-19T09:03:32Z</time>
      </trkpt>
      <trkpt lat="49.83954" lon="2.47375">
        <ele>97.3</ele>
        <time>2023-07-19T09:03:33Z</time>
      </trkpt>
      <trkpt lat="49.83954" lon="2.47373">
        <ele>97.3</ele>
        <time>2023-07-19T09:03:35Z</time>
      </trkpt>
      <trkpt lat="49.83953" lon="2.47372">
        <ele>97.3</ele>
        <time>2023-07-19T09:03:36Z</time>
      </trkpt>
      <trkpt lat="49.83953" lon="2.47371">
        <ele>97.3</ele>
        <time>2023-07-19T09:03:37Z</time>
      </trkpt>
      <trkpt lat="49.83952" lon="2.47369">
        <ele>97.4</ele>
        <time>2023-07-19T09:03:38Z</time>
      </trkpt>
      <trkpt lat="49.83951" lon="2.47368">
        <ele>97.4</ele>
        <time>2023-07-19T09:03:39Z</time>
      </trkpt>
      <trkpt lat="49.83951" lon="2.47366">
        <ele>97.4</ele>
        <time>2023-07-19T09:03:40Z</time>
      </trkpt>
      <trkpt lat="49.8395" lon="2.47365">
        <ele>97.4</ele>
        <time>2023-07-19T09:03:42Z</time>
      </trkpt>
      <trkpt lat="49.8395" lon="2.47363">
        <ele>97.4</ele>
        <time>2023-07-19T09:03:43Z</time>
      </trkpt>
      <trkpt lat="49.83949" lon="2.47361">
        <ele>97.4</ele>
        <time>2023-07-19T09:03:44Z</time>
      </trkpt>
      <trkpt lat="49.83948" lon="2.47358">
        <ele>97.4</ele>
        <time>2023-07-19T09:03:46Z</time>
      </trkpt>
      <trkpt lat="49.83947" lon="2.47357">
        <ele>97.4</ele>
        <time>2023-07-19T09:03:47Z</time>
      </trkpt>
      <trkpt lat="49.83947" lon="2.47355">
        <ele>97.5</ele>
        <time>2023-07-19T09:03:48Z</time>
      </trkpt>
      <trkpt lat="49.83946" lon="2.47353">
        <ele>97.5</ele>
        <time>2023-07-19T09:03:50Z</time>
      </trkpt>
      <trkpt lat="49.83946" lon="2.47351">
        <ele>97.5</ele>
        <time>2023-07-19T09:03:51Z</time>
      </trkpt>
      <trkpt lat="49.83946" lon="2.4735">
        <ele>97.5</ele>
        <time>2023-07-19T09:03:52Z</time>
      </trkpt>
      <trkpt lat="49.83945" lon="2.47348">
        <ele>97.5</ele>
        <time>2023-07-19T09:03:53Z</time>
      </trkpt>
      <trkpt lat="49.83945" lon="2.47347">
        <ele>97.5</ele>
        <time>2023-07-19T09:03:54Z</time>
      </trkpt>
      <trkpt lat="49.83944" lon="2.47345">
        <ele>97.5</ele>
        <time>2023-07-19T09:03:55Z</time>
      </trkpt>
      <trkpt lat="49.83944" lon="2.47343">
        <ele>97.5</ele>
        <time>2023-07-19T09:03:56Z</time>
      </trkpt>
      <trkpt lat="49.83944" lon="2.47341">
        <ele>97.5</ele>
        <time>2023-07-19T09:03:58Z</time>
      </trkpt>
      <trkpt lat="49.83943" lon="2.4734">
        <ele>97.5</ele>
        <time>2023-07-19T09:03:59Z</time>
      </trkpt>
      <trkpt lat="49.83943" lon="2.47337">
        <ele>97.6</ele>
        <time>2023-07-19T09:04:00Z</time>
      </trkpt>
      <trkpt lat="49.83943" lon="2.47335">
        <ele>97.6</ele>
        <time>2023-07-19T09:04:01Z</time>
      </trkpt>
      <trkpt lat="49.83942" lon="2.47334">
        <ele>97.6</ele>
        <time>2023-07-19T09:04:02Z</time>
      </trkpt>
      <trkpt lat="49.83942" lon="2.47331">
        <ele>97.6</ele>
        <time>2023-07-19T09:04:03Z</time>
      </trkpt>
      <trkpt lat="49.83941" lon="2.4733">
        <ele>97.6</ele>
        <time>2023-07-19T09:04:04Z</time>
      </trkpt>
      <trkpt lat="49.83941" lon="2.47329">
        <ele>97.6</ele>
        <time>2023-07-19T09:04:05Z</time>
      </trkpt>
      <trkpt lat="49.83941" lon="2.47327">
        <ele>97.6</ele>
        <time>2023-07-19T09:04:07Z</time>
      </trkpt>
      <trkpt lat="49.8394" lon="2.47325">
        <ele>97.6</ele>
        <time>2023-07-19T09:04:08Z</time>
      </trkpt>
      <trkpt lat="49.8394" lon="2.47324">
        <ele>97.6</ele>
        <time>2023-07-19T09:04:09Z</time>
      </trkpt>
      <trkpt lat="49.83939" lon="2.47321">
        <ele>97.6</ele>
        <time>2023-07-19T09:04:10Z</time>
      </trkpt>
      <trkpt lat="49.83938" lon="2.4732">
        <ele>97.6</ele>
        <time>2023-07-19T09:04:11Z</time>
      </trkpt>
      <trkpt lat="49.83938" lon="2.47319">
        <ele>97.6</ele>
        <time>2023-07-19T09:04:12Z</time>
      </trkpt>
      <trkpt lat="49.83937" lon="2.47317">
        <ele>97.6</ele>
        <time>2023-07-19T09:04:13Z</time>
      </trkpt>
      <trkpt lat="49.83936" lon="2.47314">
        <ele>97.6</ele>
        <time>2023-07-19T09:04:15Z</time>
      </trkpt>
      <trkpt lat="49.83935" lon="2.47311">
        <ele>97.6</ele>
        <time>2023-07-19T09:04:16Z</time>
      </trkpt>
      <trkpt lat="49.83934" lon="2.47309">
        <ele>97.6</ele>
        <time>2023-07-19T09:04:18Z</time>
      </trkpt>
      <trkpt lat="49.83934" lon="2.47308">
        <ele>97.6</ele>
        <time>2023-07-19T09:04:19Z</time>
      </trkpt>
      <trkpt lat="49.83933" lon="2.47306">
        <ele>97.6</ele>
        <time>2023-07-19T09:04:20Z</time>
      </trkpt>
      <trkpt lat="49.83933" lon="2.47305">
        <ele>97.6</ele>
        <time>2023-07-19T09:04:21Z</time>
      </trkpt>
      <trkpt lat="49.83931" lon="2.47302">
        <ele>97.6</ele>
        <time>2023-07-19T09:04:23Z</time>
      </trkpt>
      <trkpt lat="49.8393" lon="2.473">
        <ele>97.6</ele>
        <time>2023-07-19T09:04:25Z</time>
      </trkpt>
      <trkpt lat="49.83929" lon="2.47297">
        <ele>97.6</ele>
        <time>2023-07-19T09:04:26Z</time>
      </trkpt>
      <trkpt lat="49.83928" lon="2.47296">
        <ele>97.6</ele>
        <time>2023-07-19T09:04:27Z</time>
      </trkpt>
      <trkpt lat="49.83928" lon="2.47295">
        <ele>97.6</ele>
        <time>2023-07-19T09:04:28Z</time>
      </trkpt>
      <trkpt lat="49.83927" lon="2.47294">
        <ele>97.6</ele>
        <time>2023-07-19T09:04:29Z</time>
      </trkpt>
      <trkpt lat="49.83926" lon="2.47291">
        <ele>97.6</ele>
        <time>2023-07-19T09:04:31Z</time>
      </trkpt>
      <trkpt lat="49.83925" lon="2.47289">
        <ele>97.6</ele>
        <time>2023-07-19T09:04:32Z</time>
      </trkpt>
      <trkpt lat="49.83924" lon="2.47287">
        <ele>97.6</ele>
        <time>2023-07-19T09:04:33Z</time>
      </trkpt>
      <trkpt lat="49.83924" lon="2.47285">
        <ele>97.6</ele>
        <time>2023-07-19T09:04:35Z</time>
      </trkpt>
      <trkpt lat="49.83923" lon="2.47283">
        <ele>97.6</ele>
        <time>2023-07-19T09:04:36Z</time>
      </trkpt>
      <trkpt lat="49.83922" lon="2.4728">
        <ele>97.6</ele>
        <time>2023-07-19T09:04:37Z</time>
      </trkpt>
      <trkpt lat="49.83921" lon="2.47279">
        <ele>97.5</ele>
        <time>2023-07-19T09:04:38Z</time>
      </trkpt>
      <trkpt lat="49.83921" lon="2.47278">
        <ele>97.5</ele>
        <time>2023-07-19T09:04:40Z</time>
      </trkpt>
      <trkpt lat="49.8392" lon="2.47277">
        <ele>97.5</ele>
        <time>2023-07-19T09:04:41Z</time>
      </trkpt>
      <trkpt lat="49.8392" lon="2.47275">
        <ele>97.5</ele>
        <time>2023-07-19T09:04:42Z</time>
      </trkpt>
      <trkpt lat="49.83919" lon="2.47274">
        <ele>97.5</ele>
        <time>2023-07-19T09:04:43Z</time>
      </trkpt>
      <trkpt lat="49.83919" lon="2.47273">
        <ele>97.5</ele>
        <time>2023-07-19T09:04:44Z</time>
      </trkpt>
      <trkpt lat="49.83918" lon="2.47271">
        <ele>97.5</ele>
        <time>2023-07-19T09:04:46Z</time>
      </trkpt>
      <trkpt lat="49.83917" lon="2.47269">
        <ele>97.5</ele>
        <time>2023-07-19T09:04:47Z</time>
      </trkpt>
      <trkpt lat="49.83917" lon="2.47267">
        <ele>97.5</ele>
        <time>2023-07-19T09:04:48Z</time>
      </trkpt>
      <trkpt lat="49.83916" lon="2.47266">
        <ele>97.5</ele>
        <time>2023-07-19T09:04:49Z</time>
      </trkpt>
      <trkpt lat="49.83916" lon="2.47264">
        <ele>97.5</ele>
        <time>2023-07-19T09:04:50Z</time>
      </trkpt>
      <trkpt lat="49.83915" lon="2.47263">
        <ele>97.5</ele>
        <time>2023-07-19T09:04:51Z</time>
      </trkpt>
      <trkpt lat="49.83914" lon="2.47262">
        <ele>97.5</ele>
        <time>2023-07-19T09:04:52Z</time>
      </trkpt>
      <trkpt lat="49.83913" lon="2.4726">
        <ele>97.5</ele>
        <time>2023-07-19T09:04:54Z</time>
      </trkpt>
      <trkpt lat="49.83913" lon="2.47258">
        <ele>97.5</ele>
        <time>2023-07-19T09:04:55Z</time>
      </trkpt>
      <trkpt lat="49.83913" lon="2.47256">
        <ele>97.5</ele>
        <time>2023-07-19T09:04:56Z</time>
      </trkpt>
      <trkpt lat="49.83912" lon="2.47254">
        <ele>97.5</ele>
        <time>2023-07-19T09:04:58Z</time>
      </trkpt>
      <trkpt lat="49.83912" lon="2.47253">
        <ele>97.5</ele>
        <time>2023-07-19T09:04:59Z</time>
      </trkpt>
      <trkpt lat="49.83912" lon="2.4725">
        <ele>97.5</ele>
        <time>2023-07-19T09:05:02Z</time>
      </trkpt>
      <trkpt lat="49.83911" lon="2.4725">
        <ele>97.5</ele>
        <time>2023-07-19T09:05:04Z</time>
      </trkpt>
      <trkpt lat="49.83911" lon="2.4725">
        <ele>97.5</ele>
        <time>2023-07-19T09:05:06Z</time>
      </trkpt>
      <trkpt lat="49.83911" lon="2.4725">
        <ele>97.5</ele>
        <time>2023-07-19T09:05:07Z</time>
      </trkpt>
      <trkpt lat="49.83911" lon="2.47251">
        <ele>97.5</ele>
        <time>2023-07-19T09:05:08Z</time>
      </trkpt>
      <trkpt lat="49.8391" lon="2.47251">
        <ele>97.5</ele>
        <time>2023-07-19T09:05:09Z</time>
      </trkpt>
      <trkpt lat="49.8391" lon="2.47251">
        <ele>97.5</ele>
        <time>2023-07-19T09:05:11Z</time>
      </trkpt>
      <trkpt lat="49.8391" lon="2.47251">
        <ele>97.5</ele>
        <time>2023-07-19T09:05:13Z</time>
      </trkpt>
      <trkpt lat="49.8391" lon="2.47251">
        <ele>97.5</ele>
        <time>2023-07-19T09:05:14Z</time>
      </trkpt>
      <trkpt lat="49.8391" lon="2.47251">
        <ele>97.5</ele>
        <time>2023-07-19T09:05:15Z</time>
      </trkpt>
      <trkpt lat="49.8391" lon="2.47251">
        <ele>97.5</ele>
        <time>2023-07-19T09:05:16Z</time>
      </trkpt>
      <trkpt lat="49.8391" lon="2.47251">
        <ele>97.5</ele>
        <time>2023-07-19T09:05:18Z</time>
      </trkpt>
      <trkpt lat="49.8391" lon="2.47251">
        <ele>97.5</ele>
        <time>2023-07-19T09:05:19Z</time>
      </trkpt>
      <trkpt lat="49.8391" lon="2.47251">
        <ele>97.5</ele>
        <time>2023-07-19T09:05:20Z</time>
      </trkpt>
      <trkpt lat="49.8391" lon="2.47251">
        <ele>97.5</ele>
        <time>2023-07-19T09:05:21Z</time>
      </trkpt>
      <trkpt lat="49.83911" lon="2.47251">
        <ele>97.5</ele>
        <time>2023-07-19T09:05:23Z</time>
      </trkpt>
      <trkpt lat="49.83911" lon="2.47251">
        <ele>97.5</ele>
        <time>2023-07-19T09:05:24Z</time>
      </trkpt>
      <trkpt lat="49.83911" lon="2.47251">
        <ele>97.5</ele>
        <time>2023-07-19T09:05:26Z</time>
      </trkpt>
      <trkpt lat="49.83911" lon="2.47251">
        <ele>97.5</ele>
        <time>2023-07-19T09:05:27Z</time>
      </trkpt>
      <trkpt lat="49.83911" lon="2.47251">
        <ele>97.5</ele>
        <time>2023-07-19T09:05:28Z</time>
      </trkpt>
      <trkpt lat="49.83911" lon="2.47252">
        <ele>97.5</ele>
        <time>2023-07-19T09:05:29Z</time>
      </trkpt>
      <trkpt lat="49.8391" lon="2.47252">
        <ele>97.5</ele>
        <time>2023-07-19T09:05:30Z</time>
      </trkpt>
      <trkpt lat="49.8391" lon="2.47252">
        <ele>97.5</ele>
        <time>2023-07-19T09:05:31Z</time>
      </trkpt>
      <trkpt lat="49.83909" lon="2.47252">
        <ele>97.5</ele>
        <time>2023-07-19T09:05:32Z</time>
      </trkpt>
      <trkpt lat="49.83908" lon="2.47252">
        <ele>97.5</ele>
        <time>2023-07-19T09:05:34Z</time>
      </trkpt>
      <trkpt lat="49.83908" lon="2.47252">
        <ele>97.5</ele>
        <time>2023-07-19T09:05:35Z</time>
      </trkpt>
      <trkpt lat="49.83908" lon="2.47252">
        <ele>97.5</ele>
        <time>2023-07-19T09:05:36Z</time>
      </trkpt>
      <trkpt lat="49.83908" lon="2.47252">
        <ele>97.5</ele>
        <time>2023-07-19T09:05:37Z</time>
      </trkpt>
      <trkpt lat="49.83908" lon="2.47252">
        <ele>97.5</ele>
        <time>2023-07-19T09:05:38Z</time>
      </trkpt>
      <trkpt lat="49.83909" lon="2.47252">
        <ele>97.5</ele>
        <time>2023-07-19T09:05:40Z</time>
      </trkpt>
      <trkpt lat="49.83909" lon="2.47252">
        <ele>97.5</ele>
        <time>2023-07-19T09:05:41Z</time>
      </trkpt>
      <trkpt lat="49.83909" lon="2.47252">
        <ele>97.5</ele>
        <time>2023-07-19T09:05:42Z</time>
      </trkpt>
      <trkpt lat="49.83909" lon="2.47252">
        <ele>97.5</ele>
        <time>2023-07-19T09:05:43Z</time>
      </trkpt>
      <trkpt lat="49.83909" lon="2.47252">
        <ele>97.5</ele>
        <time>2023-07-19T09:05:44Z</time>
      </trkpt>
      <trkpt lat="49.83909" lon="2.47252">
        <ele>97.5</ele>
        <time>2023-07-19T09:05:45Z</time>
      </trkpt>
      <trkpt lat="49.83909" lon="2.47252">
        <ele>97.5</ele>
        <time>2023-07-19T09:05:46Z</time>
      </trkpt>
      <trkpt lat="49.83909" lon="2.47252">
        <ele>97.5</ele>
        <time>2023-07-19T09:05:47Z</time>
      </trkpt>
      <trkpt lat="49.83909" lon="2.47252">
        <ele>97.5</ele>
        <time>2023-07-19T09:05:48Z</time>
      </trkpt>
      <trkpt lat="49.83909" lon="2.47252">
        <ele>97.5</ele>
        <time>2023-07-19T09:05:49Z</time>
      </trkpt>
      <trkpt lat="49.83909" lon="2.47252">
        <ele>97.5</ele>
        <time>2023-07-19T09:05:50Z</time>
      </trkpt>
      <trkpt lat="49.83909" lon="2.47252">
        <ele>97.5</ele>
        <time>2023-07-19T09:05:51Z</time>
      </trkpt>
      <trkpt lat="49.83909" lon="2.47252">
        <ele>97.5</ele>
        <time>2023-07-19T09:05:52Z</time>
      </trkpt>
      <trkpt lat="49.83909" lon="2.47252">
        <ele>97.5</ele>
        <time>2023-07-19T09:05:53Z</time>
      </trkpt>
      <trkpt lat="49.83909" lon="2.47252">
        <ele>97.5</ele>
        <time>2023-07-19T09:05:54Z</time>
      </trkpt>
      <trkpt lat="49.83909" lon="2.47252">
        <ele>97.5</ele>
        <time>2023-07-19T09:05:56Z</time>
      </trkpt>
      <trkpt lat="49.83909" lon="2.47252">
        <ele>97.5</ele>
        <time>2023-07-19T09:05:57Z</time>
      </trkpt>
      <trkpt lat="49.83909" lon="2.47252">
        <ele>97.5</ele>
        <time>2023-07-19T09:05:58Z</time>
      </trkpt>
      <trkpt lat="49.83909" lon="2.47252">
        <ele>97.5</ele>
        <time>2023-07-19T09:05:59Z</time>
      </trkpt>
      <trkpt lat="49.83909" lon="2.47252">
        <ele>97.5</ele>
        <time>2023-07-19T09:06:00Z</time>
      </trkpt>
      <trkpt lat="49.83909" lon="2.47252">
        <ele>97.5</ele>
        <time>2023-07-19T09:06:02Z</time>
      </trkpt>
      <trkpt lat="49.83909" lon="2.47252">
        <ele>97.5</ele>
        <time>2023-07-19T09:06:03Z</time>
      </trkpt>
      <trkpt lat="49.83909" lon="2.47252">
        <ele>97.5</ele>
        <time>2023-07-19T09:06:04Z</time>
      </trkpt>
      <trkpt lat="49.83909" lon="2.47252">
        <ele>97.5</ele>
        <time>2023-07-19T09:06:05Z</time>
      </trkpt>
      <trkpt lat="49.83909" lon="2.47252">
        <ele>97.5</ele>
        <time>2023-07-19T09:06:06Z</time>
      </trkpt>
      <trkpt lat="49.83909" lon="2.47252">
        <ele>97.5</ele>
        <time>2023-07-19T09:06:07Z</time>
      </trkpt>
      <trkpt lat="49.83909" lon="2.47252">
        <ele>97.5</ele>
        <time>2023-07-19T09:06:08Z</time>
      </trkpt>
      <trkpt lat="49.83909" lon="2.47252">
        <ele>97.5</ele>
        <time>2023-07-19T09:06:10Z</time>
      </trkpt>
      <trkpt lat="49.83909" lon="2.47252">
        <ele>97.5</ele>
        <time>2023-07-19T09:06:11Z</time>
      </trkpt>
      <trkpt lat="49.83909" lon="2.47252">
        <ele>97.5</ele>
        <time>2023-07-19T09:06:12Z</time>
      </trkpt>
      <trkpt lat="49.83909" lon="2.47252">
        <ele>97.5</ele>
        <time>2023-07-19T09:06:14Z</time>
      </trkpt>
      <trkpt lat="49.83909" lon="2.47252">
        <ele>97.5</ele>
        <time>2023-07-19T09:06:15Z</time>
      </trkpt>
      <trkpt lat="49.83909" lon="2.47252">
        <ele>97.5</ele>
        <time>2023-07-19T09:06:16Z</time>
      </trkpt>
      <trkpt lat="49.83909" lon="2.47252">
        <ele>97.5</ele>
        <time>2023-07-19T09:06:17Z</time>
      </trkpt>
      <trkpt lat="49.83909" lon="2.47252">
        <ele>97.5</ele>
        <time>2023-07-19T09:06:18Z</time>
      </trkpt>
      <trkpt lat="49.83909" lon="2.47252">
        <ele>97.5</ele>
        <time>2023-07-19T09:06:20Z</time>
      </trkpt>
      <trkpt lat="49.83909" lon="2.47252">
        <ele>97.5</ele>
        <time>2023-07-19T09:06:21Z</time>
      </trkpt>
      <trkpt lat="49.83909" lon="2.47252">
        <ele>97.5</ele>
        <time>2023-07-19T09:06:22Z</time>
      </trkpt>
      <trkpt lat="49.83909" lon="2.47252">
        <ele>97.5</ele>
        <time>2023-07-19T09:06:23Z</time>
      </trkpt>
      <trkpt lat="49.83909" lon="2.47252">
        <ele>97.5</ele>
        <time>2023-07-19T09:06:24Z</time>
      </trkpt>
      <trkpt lat="49.83909" lon="2.47252">
        <ele>97.5</ele>
        <time>2023-07-19T09:06:25Z</time>
      </trkpt>
      <trkpt lat="49.83909" lon="2.47252">
        <ele>97.5</ele>
        <time>2023-07-19T09:06:26Z</time>
      </trkpt>
      <trkpt lat="49.83909" lon="2.47252">
        <ele>97.5</ele>
        <time>2023-07-19T09:06:27Z</time>
      </trkpt>
      <trkpt lat="49.83909" lon="2.47252">
        <ele>97.5</ele>
        <time>2023-07-19T09:06:29Z</time>
      </trkpt>
      <trkpt lat="49.83909" lon="2.47252">
        <ele>97.5</ele>
        <time>2023-07-19T09:06:30Z</time>
      </trkpt>
      <trkpt lat="49.83909" lon="2.47252">
        <ele>97.5</ele>
        <time>2023-07-19T09:06:31Z</time>
      </trkpt>
      <trkpt lat="49.8391" lon="2.47252">
        <ele>97.5</ele>
        <time>2023-07-19T09:06:32Z</time>
      </trkpt>
      <trkpt lat="49.83911" lon="2.47251">
        <ele>97.5</ele>
        <time>2023-07-19T09:06:33Z</time>
      </trkpt>
      <trkpt lat="49.83911" lon="2.4725">
        <ele>97.5</ele>
        <time>2023-07-19T09:06:35Z</time>
      </trkpt>
      <trkpt lat="49.83911" lon="2.47249">
        <ele>97.5</ele>
        <time>2023-07-19T09:06:36Z</time>
      </trkpt>
      <trkpt lat="49.83911" lon="2.47248">
        <ele>97.5</ele>
        <time>2023-07-19T09:06:37Z</time>
      </trkpt>
      <trkpt lat="49.83911" lon="2.47247">
        <ele>97.4</ele>
        <time>2023-07-19T09:06:38Z</time>
      </trkpt>
      <trkpt lat="49.8391" lon="2.47245">
        <ele>97.4</ele>
        <time>2023-07-19T09:06:39Z</time>
      </trkpt>
      <trkpt lat="49.83909" lon="2.47243">
        <ele>97.3</ele>
        <time>2023-07-19T09:06:40Z</time>
      </trkpt>
      <trkpt lat="49.83909" lon="2.47241">
        <ele>97.3</ele>
        <time>2023-07-19T09:06:41Z</time>
      </trkpt>
      <trkpt lat="49.83908" lon="2.4724">
        <ele>97.2</ele>
        <time>2023-07-19T09:06:43Z</time>
      </trkpt>
      <trkpt lat="49.83907" lon="2.47238">
        <ele>97.2</ele>
        <time>2023-07-19T09:06:44Z</time>
      </trkpt>
      <trkpt lat="49.83907" lon="2.47237">
        <ele>97.2</ele>
        <time>2023-07-19T09:06:45Z</time>
      </trkpt>
      <trkpt lat="49.83906" lon="2.47235">
        <ele>97.1</ele>
        <time>2023-07-19T09:06:46Z</time>
      </trkpt>
      <trkpt lat="49.83905" lon="2.47234">
        <ele>97.1</ele>
        <time>2023-07-19T09:06:47Z</time>
      </trkpt>
      <trkpt lat="49.83905" lon="2.47232">
        <ele>97</ele>
        <time>2023-07-19T09:06:48Z</time>
      </trkpt>
      <trkpt lat="49.83904" lon="2.47231">
        <ele>97</ele>
        <time>2023-07-19T09:06:49Z</time>
      </trkpt>
      <trkpt lat="49.83904" lon="2.47229">
        <ele>97</ele>
        <time>2023-07-19T09:06:51Z</time>
      </trkpt>
      <trkpt lat="49.83903" lon="2.47228">
        <ele>96.9</ele>
        <time>2023-07-19T09:06:52Z</time>
      </trkpt>
      <trkpt lat="49.83903" lon="2.47226">
        <ele>96.9</ele>
        <time>2023-07-19T09:06:53Z</time>
      </trkpt>
      <trkpt lat="49.83902" lon="2.47224">
        <ele>96.9</ele>
        <time>2023-07-19T09:06:54Z</time>
      </trkpt>
      <trkpt lat="49.83902" lon="2.47223">
        <ele>96.8</ele>
        <time>2023-07-19T09:06:55Z</time>
      </trkpt>
      <trkpt lat="49.83901" lon="2.4722">
        <ele>96.8</ele>
        <time>2023-07-19T09:06:56Z</time>
      </trkpt>
      <trkpt lat="49.83901" lon="2.47219">
        <ele>96.7</ele>
        <time>2023-07-19T09:06:58Z</time>
      </trkpt>
      <trkpt lat="49.839" lon="2.47217">
        <ele>96.7</ele>
        <time>2023-07-19T09:06:59Z</time>
      </trkpt>
      <trkpt lat="49.839" lon="2.47216">
        <ele>96.7</ele>
        <time>2023-07-19T09:07:01Z</time>
      </trkpt>
      <trkpt lat="49.83899" lon="2.47214">
        <ele>96.6</ele>
        <time>2023-07-19T09:07:02Z</time>
      </trkpt>
      <trkpt lat="49.83899" lon="2.47212">
        <ele>96.6</ele>
        <time>2023-07-19T09:07:03Z</time>
      </trkpt>
      <trkpt lat="49.83898" lon="2.4721">
        <ele>96.5</ele>
        <time>2023-07-19T09:07:04Z</time>
      </trkpt>
      <trkpt lat="49.83898" lon="2.47209">
        <ele>96.5</ele>
        <time>2023-07-19T09:07:05Z</time>
      </trkpt>
      <trkpt lat="49.83897" lon="2.47207">
        <ele>96.5</ele>
        <time>2023-07-19T09:07:07Z</time>
      </trkpt>
      <trkpt lat="49.83896" lon="2.47206">
        <ele>96.4</ele>
        <time>2023-07-19T09:07:08Z</time>
      </trkpt>
      <trkpt lat="49.83896" lon="2.47204">
        <ele>96.4</ele>
        <time>2023-07-19T09:07:09Z</time>
      </trkpt>
      <trkpt lat="49.83895" lon="2.47202">
        <ele>96.4</ele>
        <time>2023-07-19T09:07:10Z</time>
      </trkpt>
      <trkpt lat="49.83894" lon="2.472">
        <ele>96.3</ele>
        <time>2023-07-19T09:07:11Z</time>
      </trkpt>
      <trkpt lat="49.83894" lon="2.47198">
        <ele>96.3</ele>
        <time>2023-07-19T09:07:12Z</time>
      </trkpt>
      <trkpt lat="49.83893" lon="2.47197">
        <ele>96.2</ele>
        <time>2023-07-19T09:07:13Z</time>
      </trkpt>
      <trkpt lat="49.83892" lon="2.47194">
        <ele>96.2</ele>
        <time>2023-07-19T09:07:15Z</time>
      </trkpt>
      <trkpt lat="49.83892" lon="2.47193">
        <ele>96.1</ele>
        <time>2023-07-19T09:07:16Z</time>
      </trkpt>
      <trkpt lat="49.83892" lon="2.47192">
        <ele>96.1</ele>
        <time>2023-07-19T09:07:17Z</time>
      </trkpt>
      <trkpt lat="49.83891" lon="2.47189">
        <ele>96.1</ele>
        <time>2023-07-19T09:07:18Z</time>
      </trkpt>
      <trkpt lat="49.8389" lon="2.47188">
        <ele>96</ele>
        <time>2023-07-19T09:07:19Z</time>
      </trkpt>
      <trkpt lat="49.8389" lon="2.47187">
        <ele>96</ele>
        <time>2023-07-19T09:07:20Z</time>
      </trkpt>
      <trkpt lat="49.83889" lon="2.47184">
        <ele>95.9</ele>
        <time>2023-07-19T09:07:22Z</time>
      </trkpt>
      <trkpt lat="49.83888" lon="2.47183">
        <ele>95.9</ele>
        <time>2023-07-19T09:07:23Z</time>
      </trkpt>
      <trkpt lat="49.83888" lon="2.47182">
        <ele>95.9</ele>
        <time>2023-07-19T09:07:24Z</time>
      </trkpt>
      <trkpt lat="49.83887" lon="2.4718">
        <ele>95.9</ele>
        <time>2023-07-19T09:07:25Z</time>
      </trkpt>
      <trkpt lat="49.83886" lon="2.47178">
        <ele>95.8</ele>
        <time>2023-07-19T09:07:26Z</time>
      </trkpt>
      <trkpt lat="49.83886" lon="2.47176">
        <ele>95.8</ele>
        <time>2023-07-19T09:07:27Z</time>
      </trkpt>
      <trkpt lat="49.83885" lon="2.47174">
        <ele>95.7</ele>
        <time>2023-07-19T09:07:28Z</time>
      </trkpt>
      <trkpt lat="49.83885" lon="2.47172">
        <ele>95.7</ele>
        <time>2023-07-19T09:07:29Z</time>
      </trkpt>
      <trkpt lat="49.83884" lon="2.4717">
        <ele>95.6</ele>
        <time>2023-07-19T09:07:31Z</time>
      </trkpt>
      <trkpt lat="49.83883" lon="2.47168">
        <ele>95.6</ele>
        <time>2023-07-19T09:07:32Z</time>
      </trkpt>
      <trkpt lat="49.83883" lon="2.47166">
        <ele>95.5</ele>
        <time>2023-07-19T09:07:33Z</time>
      </trkpt>
      <trkpt lat="49.83882" lon="2.47164">
        <ele>95.5</ele>
        <time>2023-07-19T09:07:35Z</time>
      </trkpt>
      <trkpt lat="49.83881" lon="2.4716">
        <ele>95.4</ele>
        <time>2023-07-19T09:07:36Z</time>
      </trkpt>
      <trkpt lat="49.8388" lon="2.47159">
        <ele>95.3</ele>
        <time>2023-07-19T09:07:37Z</time>
      </trkpt>
      <trkpt lat="49.8388" lon="2.47158">
        <ele>95.3</ele>
        <time>2023-07-19T09:07:38Z</time>
      </trkpt>
      <trkpt lat="49.8388" lon="2.47156">
        <ele>95.3</ele>
        <time>2023-07-19T09:07:39Z</time>
      </trkpt>
      <trkpt lat="49.83879" lon="2.47155">
        <ele>95.2</ele>
        <time>2023-07-19T09:07:40Z</time>
      </trkpt>
      <trkpt lat="49.83878" lon="2.47152">
        <ele>95.1</ele>
        <time>2023-07-19T09:07:41Z</time>
      </trkpt>
      <trkpt lat="49.83877" lon="2.47151">
        <ele>95.1</ele>
        <time>2023-07-19T09:07:43Z</time>
      </trkpt>
      <trkpt lat="49.83877" lon="2.4715">
        <ele>95.1</ele>
        <time>2023-07-19T09:07:44Z</time>
      </trkpt>
      <trkpt lat="49.83876" lon="2.47147">
        <ele>95</ele>
        <time>2023-07-19T09:07:45Z</time>
      </trkpt>
      <trkpt lat="49.83875" lon="2.47146">
        <ele>94.9</ele>
        <time>2023-07-19T09:07:46Z</time>
      </trkpt>
      <trkpt lat="49.83875" lon="2.47145">
        <ele>94.9</ele>
        <time>2023-07-19T09:07:47Z</time>
      </trkpt>
      <trkpt lat="49.83875" lon="2.47144">
        <ele>94.9</ele>
        <time>2023-07-19T09:07:48Z</time>
      </trkpt>
      <trkpt lat="49.83874" lon="2.47141">
        <ele>94.8</ele>
        <time>2023-07-19T09:07:50Z</time>
      </trkpt>
      <trkpt lat="49.83873" lon="2.4714">
        <ele>94.8</ele>
        <time>2023-07-19T09:07:51Z</time>
      </trkpt>
      <trkpt lat="49.83872" lon="2.47139">
        <ele>94.7</ele>
        <time>2023-07-19T09:07:52Z</time>
      </trkpt>
      <trkpt lat="49.83872" lon="2.47137">
        <ele>94.7</ele>
        <time>2023-07-19T09:07:53Z</time>
      </trkpt>
      <trkpt lat="49.8387" lon="2.47133">
        <ele>94.5</ele>
        <time>2023-07-19T09:07:55Z</time>
      </trkpt>
      <trkpt lat="49.8387" lon="2.47132">
        <ele>94.5</ele>
        <time>2023-07-19T09:07:56Z</time>
      </trkpt>
      <trkpt lat="49.83869" lon="2.47129">
        <ele>94.4</ele>
        <time>2023-07-19T09:07:58Z</time>
      </trkpt>
      <trkpt lat="49.83868" lon="2.47128">
        <ele>94.4</ele>
        <time>2023-07-19T09:07:59Z</time>
      </trkpt>
      <trkpt lat="49.83868" lon="2.47127">
        <ele>94.3</ele>
        <time>2023-07-19T09:08:00Z</time>
      </trkpt>
      <trkpt lat="49.83867" lon="2.47125">
        <ele>94.3</ele>
        <time>2023-07-19T09:08:01Z</time>
      </trkpt>
      <trkpt lat="49.83866" lon="2.47123">
        <ele>94.2</ele>
        <time>2023-07-19T09:08:02Z</time>
      </trkpt>
      <trkpt lat="49.83865" lon="2.4712">
        <ele>94.1</ele>
        <time>2023-07-19T09:08:05Z</time>
      </trkpt>
      <trkpt lat="49.83865" lon="2.47119">
        <ele>94</ele>
        <time>2023-07-19T09:08:06Z</time>
      </trkpt>
      <trkpt lat="49.83864" lon="2.47116">
        <ele>93.9</ele>
        <time>2023-07-19T09:08:07Z</time>
      </trkpt>
      <trkpt lat="49.83864" lon="2.47115">
        <ele>93.9</ele>
        <time>2023-07-19T09:08:08Z</time>
      </trkpt>
      <trkpt lat="49.83863" lon="2.47113">
        <ele>93.9</ele>
        <time>2023-07-19T09:08:09Z</time>
      </trkpt>
      <trkpt lat="49.83863" lon="2.47112">
        <ele>93.8</ele>
        <time>2023-07-19T09:08:10Z</time>
      </trkpt>
      <trkpt lat="49.83862" lon="2.4711">
        <ele>93.7</ele>
        <time>2023-07-19T09:08:11Z</time>
      </trkpt>
      <trkpt lat="49.83861" lon="2.47109">
        <ele>93.7</ele>
        <time>2023-07-19T09:08:12Z</time>
      </trkpt>
      <trkpt lat="49.83861" lon="2.47107">
        <ele>93.6</ele>
        <time>2023-07-19T09:08:13Z</time>
      </trkpt>
      <trkpt lat="49.8386" lon="2.47105">
        <ele>93.6</ele>
        <time>2023-07-19T09:08:14Z</time>
      </trkpt>
      <trkpt lat="49.8386" lon="2.47104">
        <ele>93.5</ele>
        <time>2023-07-19T09:08:16Z</time>
      </trkpt>
      <trkpt lat="49.83859" lon="2.47102">
        <ele>93.5</ele>
        <time>2023-07-19T09:08:17Z</time>
      </trkpt>
      <trkpt lat="49.83858" lon="2.471">
        <ele>93.4</ele>
        <time>2023-07-19T09:08:18Z</time>
      </trkpt>
      <trkpt lat="49.83857" lon="2.47097">
        <ele>93.3</ele>
        <time>2023-07-19T09:08:19Z</time>
      </trkpt>
      <trkpt lat="49.83857" lon="2.47095">
        <ele>93.2</ele>
        <time>2023-07-19T09:08:20Z</time>
      </trkpt>
      <trkpt lat="49.83856" lon="2.47093">
        <ele>93.2</ele>
        <time>2023-07-19T09:08:21Z</time>
      </trkpt>
      <trkpt lat="49.83855" lon="2.47091">
        <ele>93.1</ele>
        <time>2023-07-19T09:08:22Z</time>
      </trkpt>
      <trkpt lat="49.83854" lon="2.47088">
        <ele>93</ele>
        <time>2023-07-19T09:08:23Z</time>
      </trkpt>
      <trkpt lat="49.83853" lon="2.47086">
        <ele>92.9</ele>
        <time>2023-07-19T09:08:25Z</time>
      </trkpt>
      <trkpt lat="49.83853" lon="2.47084">
        <ele>92.8</ele>
        <time>2023-07-19T09:08:26Z</time>
      </trkpt>
      <trkpt lat="49.83852" lon="2.47082">
        <ele>92.8</ele>
        <time>2023-07-19T09:08:27Z</time>
      </trkpt>
      <trkpt lat="49.83851" lon="2.4708">
        <ele>92.7</ele>
        <time>2023-07-19T09:08:28Z</time>
      </trkpt>
      <trkpt lat="49.8385" lon="2.47077">
        <ele>92.6</ele>
        <time>2023-07-19T09:08:30Z</time>
      </trkpt>
      <trkpt lat="49.83849" lon="2.47075">
        <ele>92.5</ele>
        <time>2023-07-19T09:08:31Z</time>
      </trkpt>
      <trkpt lat="49.83848" lon="2.47073">
        <ele>92.4</ele>
        <time>2023-07-19T09:08:32Z</time>
      </trkpt>
      <trkpt lat="49.83847" lon="2.47071">
        <ele>92.3</ele>
        <time>2023-07-19T09:08:33Z</time>
      </trkpt>
      <trkpt lat="49.83846" lon="2.4707">
        <ele>92.3</ele>
        <time>2023-07-19T09:08:34Z</time>
      </trkpt>
      <trkpt lat="49.83846" lon="2.47069">
        <ele>92.3</ele>
        <time>2023-07-19T09:08:35Z</time>
      </trkpt>
      <trkpt lat="49.83845" lon="2.47066">
        <ele>92.2</ele>
        <time>2023-07-19T09:08:36Z</time>
      </trkpt>
      <trkpt lat="49.83844" lon="2.47065">
        <ele>92.1</ele>
        <time>2023-07-19T09:08:37Z</time>
      </trkpt>
      <trkpt lat="49.83843" lon="2.47062">
        <ele>92</ele>
        <time>2023-07-19T09:08:39Z</time>
      </trkpt>
      <trkpt lat="49.83843" lon="2.4706">
        <ele>92</ele>
        <time>2023-07-19T09:08:40Z</time>
      </trkpt>
      <trkpt lat="49.83842" lon="2.47059">
        <ele>91.9</ele>
        <time>2023-07-19T09:08:41Z</time>
      </trkpt>
      <trkpt lat="49.83841" lon="2.47057">
        <ele>91.9</ele>
        <time>2023-07-19T09:08:43Z</time>
      </trkpt>
      <trkpt lat="49.8384" lon="2.47054">
        <ele>91.8</ele>
        <time>2023-07-19T09:08:45Z</time>
      </trkpt>
      <trkpt lat="49.83839" lon="2.47052">
        <ele>91.7</ele>
        <time>2023-07-19T09:08:46Z</time>
      </trkpt>
      <trkpt lat="49.83839" lon="2.47051">
        <ele>91.7</ele>
        <time>2023-07-19T09:08:47Z</time>
      </trkpt>
      <trkpt lat="49.83838" lon="2.47048">
        <ele>91.5</ele>
        <time>2023-07-19T09:08:49Z</time>
      </trkpt>
      <trkpt lat="49.83837" lon="2.47045">
        <ele>91.5</ele>
        <time>2023-07-19T09:08:50Z</time>
      </trkpt>
      <trkpt lat="49.83836" lon="2.47044">
        <ele>91.4</ele>
        <time>2023-07-19T09:08:51Z</time>
      </trkpt>
      <trkpt lat="49.83835" lon="2.47042">
        <ele>91.3</ele>
        <time>2023-07-19T09:08:53Z</time>
      </trkpt>
      <trkpt lat="49.83834" lon="2.4704">
        <ele>91.2</ele>
        <time>2023-07-19T09:08:54Z</time>
      </trkpt>
      <trkpt lat="49.83833" lon="2.47038">
        <ele>91.2</ele>
        <time>2023-07-19T09:08:55Z</time>
      </trkpt>
      <trkpt lat="49.83832" lon="2.47036">
        <ele>91.1</ele>
        <time>2023-07-19T09:08:56Z</time>
      </trkpt>
      <trkpt lat="49.83831" lon="2.47035">
        <ele>91.1</ele>
        <time>2023-07-19T09:08:57Z</time>
      </trkpt>
      <trkpt lat="49.8383" lon="2.47033">
        <ele>91</ele>
        <time>2023-07-19T09:08:58Z</time>
      </trkpt>
      <trkpt lat="49.83829" lon="2.47031">
        <ele>90.9</ele>
        <time>2023-07-19T09:08:59Z</time>
      </trkpt>
      <trkpt lat="49.83828" lon="2.47029">
        <ele>90.9</ele>
        <time>2023-07-19T09:09:01Z</time>
      </trkpt>
      <trkpt lat="49.83828" lon="2.47027">
        <ele>90.8</ele>
        <time>2023-07-19T09:09:02Z</time>
      </trkpt>
      <trkpt lat="49.83827" lon="2.47026">
        <ele>90.8</ele>
        <time>2023-07-19T09:09:04Z</time>
      </trkpt>
      <trkpt lat="49.83826" lon="2.47024">
        <ele>90.7</ele>
        <time>2023-07-19T09:09:05Z</time>
      </trkpt>
      <trkpt lat="49.83826" lon="2.47022">
        <ele>90.6</ele>
        <time>2023-07-19T09:09:06Z</time>
      </trkpt>
      <trkpt lat="49.83825" lon="2.47021">
        <ele>90.6</ele>
        <time>2023-07-19T09:09:07Z</time>
      </trkpt>
      <trkpt lat="49.83825" lon="2.4702">
        <ele>90.6</ele>
        <time>2023-07-19T09:09:08Z</time>
      </trkpt>
      <trkpt lat="49.83823" lon="2.47017">
        <ele>90.5</ele>
        <time>2023-07-19T09:09:10Z</time>
      </trkpt>
      <trkpt lat="49.83822" lon="2.47013">
        <ele>90.4</ele>
        <time>2023-07-19T09:09:12Z</time>
      </trkpt>
      <trkpt lat="49.83821" lon="2.47011">
        <ele>90.3</ele>
        <time>2023-07-19T09:09:14Z</time>
      </trkpt>
      <trkpt lat="49.83821" lon="2.47009">
        <ele>90.3</ele>
        <time>2023-07-19T09:09:15Z</time>
      </trkpt>
      <trkpt lat="49.8382" lon="2.47007">
        <ele>90.2</ele>
        <time>2023-07-19T09:09:16Z</time>
      </trkpt>
      <trkpt lat="49.83819" lon="2.47004">
        <ele>90.2</ele>
        <time>2023-07-19T09:09:17Z</time>
      </trkpt>
      <trkpt lat="49.83819" lon="2.47002">
        <ele>90.1</ele>
        <time>2023-07-19T09:09:18Z</time>
      </trkpt>
      <trkpt lat="49.83818" lon="2.47">
        <ele>90.1</ele>
        <time>2023-07-19T09:09:19Z</time>
      </trkpt>
      <trkpt lat="49.83817" lon="2.46998">
        <ele>90.1</ele>
        <time>2023-07-19T09:09:20Z</time>
      </trkpt>
      <trkpt lat="49.83816" lon="2.46995">
        <ele>90</ele>
        <time>2023-07-19T09:09:21Z</time>
      </trkpt>
      <trkpt lat="49.83815" lon="2.46993">
        <ele>90</ele>
        <time>2023-07-19T09:09:23Z</time>
      </trkpt>
      <trkpt lat="49.83814" lon="2.46992">
        <ele>89.9</ele>
        <time>2023-07-19T09:09:24Z</time>
      </trkpt>
      <trkpt lat="49.83814" lon="2.4699">
        <ele>89.9</ele>
        <time>2023-07-19T09:09:25Z</time>
      </trkpt>
      <trkpt lat="49.83813" lon="2.46989">
        <ele>89.9</ele>
        <time>2023-07-19T09:09:26Z</time>
      </trkpt>
      <trkpt lat="49.83813" lon="2.46988">
        <ele>89.9</ele>
        <time>2023-07-19T09:09:28Z</time>
      </trkpt>
      <trkpt lat="49.83812" lon="2.46987">
        <ele>89.8</ele>
        <time>2023-07-19T09:09:29Z</time>
      </trkpt>
      <trkpt lat="49.83812" lon="2.46986">
        <ele>89.8</ele>
        <time>2023-07-19T09:09:30Z</time>
      </trkpt>
      <trkpt lat="49.83811" lon="2.46984">
        <ele>89.8</ele>
        <time>2023-07-19T09:09:31Z</time>
      </trkpt>
      <trkpt lat="49.8381" lon="2.46983">
        <ele>89.8</ele>
        <time>2023-07-19T09:09:32Z</time>
      </trkpt>
      <trkpt lat="49.8381" lon="2.46981">
        <ele>89.7</ele>
        <time>2023-07-19T09:09:33Z</time>
      </trkpt>
      <trkpt lat="49.83809" lon="2.4698">
        <ele>89.7</ele>
        <time>2023-07-19T09:09:35Z</time>
      </trkpt>
      <trkpt lat="49.83807" lon="2.46977">
        <ele>89.6</ele>
        <time>2023-07-19T09:09:36Z</time>
      </trkpt>
      <trkpt lat="49.83807" lon="2.46976">
        <ele>89.6</ele>
        <time>2023-07-19T09:09:38Z</time>
      </trkpt>
      <trkpt lat="49.83806" lon="2.46974">
        <ele>89.6</ele>
        <time>2023-07-19T09:09:39Z</time>
      </trkpt>
      <trkpt lat="49.83806" lon="2.46971">
        <ele>89.5</ele>
        <time>2023-07-19T09:09:40Z</time>
      </trkpt>
      <trkpt lat="49.83804" lon="2.46968">
        <ele>89.4</ele>
        <time>2023-07-19T09:09:41Z</time>
      </trkpt>
      <trkpt lat="49.83804" lon="2.46966">
        <ele>89.4</ele>
        <time>2023-07-19T09:09:42Z</time>
      </trkpt>
      <trkpt lat="49.83802" lon="2.46962">
        <ele>89.3</ele>
        <time>2023-07-19T09:09:44Z</time>
      </trkpt>
      <trkpt lat="49.83801" lon="2.4696">
        <ele>89.3</ele>
        <time>2023-07-19T09:09:45Z</time>
      </trkpt>
      <trkpt lat="49.838" lon="2.46958">
        <ele>89.3</ele>
        <time>2023-07-19T09:09:46Z</time>
      </trkpt>
      <trkpt lat="49.838" lon="2.46956">
        <ele>89.2</ele>
        <time>2023-07-19T09:09:48Z</time>
      </trkpt>
      <trkpt lat="49.83799" lon="2.46952">
        <ele>89.2</ele>
        <time>2023-07-19T09:09:49Z</time>
      </trkpt>
      <trkpt lat="49.83799" lon="2.46949">
        <ele>89.1</ele>
        <time>2023-07-19T09:09:51Z</time>
      </trkpt>
      <trkpt lat="49.83798" lon="2.46947">
        <ele>89.1</ele>
        <time>2023-07-19T09:09:52Z</time>
      </trkpt>
      <trkpt lat="49.83799" lon="2.46944">
        <ele>89.1</ele>
        <time>2023-07-19T09:09:53Z</time>
      </trkpt>
      <trkpt lat="49.83799" lon="2.46942">
        <ele>89.1</ele>
        <time>2023-07-19T09:09:54Z</time>
      </trkpt>
      <trkpt lat="49.83799" lon="2.4694">
        <ele>89.1</ele>
        <time>2023-07-19T09:09:55Z</time>
      </trkpt>
      <trkpt lat="49.83799" lon="2.46938">
        <ele>89.1</ele>
        <time>2023-07-19T09:09:56Z</time>
      </trkpt>
      <trkpt lat="49.83799" lon="2.46936">
        <ele>89.1</ele>
        <time>2023-07-19T09:09:57Z</time>
      </trkpt>
      <trkpt lat="49.838" lon="2.46933">
        <ele>89</ele>
        <time>2023-07-19T09:09:59Z</time>
      </trkpt>
      <trkpt lat="49.83801" lon="2.46931">
        <ele>89</ele>
        <time>2023-07-19T09:10:00Z</time>
      </trkpt>
      <trkpt lat="49.83802" lon="2.4693">
        <ele>89</ele>
        <time>2023-07-19T09:10:01Z</time>
      </trkpt>
      <trkpt lat="49.83802" lon="2.46928">
        <ele>88.9</ele>
        <time>2023-07-19T09:10:03Z</time>
      </trkpt>
      <trkpt lat="49.83804" lon="2.46925">
        <ele>88.9</ele>
        <time>2023-07-19T09:10:04Z</time>
      </trkpt>
      <trkpt lat="49.83805" lon="2.46923">
        <ele>88.9</ele>
        <time>2023-07-19T09:10:05Z</time>
      </trkpt>
      <trkpt lat="49.83806" lon="2.46922">
        <ele>88.8</ele>
        <time>2023-07-19T09:10:06Z</time>
      </trkpt>
      <trkpt lat="49.83807" lon="2.4692">
        <ele>88.8</ele>
        <time>2023-07-19T09:10:07Z</time>
      </trkpt>
      <trkpt lat="49.83807" lon="2.46919">
        <ele>88.8</ele>
        <time>2023-07-19T09:10:08Z</time>
      </trkpt>
      <trkpt lat="49.83808" lon="2.46917">
        <ele>88.7</ele>
        <time>2023-07-19T09:10:10Z</time>
      </trkpt>
      <trkpt lat="49.83809" lon="2.46916">
        <ele>88.7</ele>
        <time>2023-07-19T09:10:12Z</time>
      </trkpt>
      <trkpt lat="49.8381" lon="2.46916">
        <ele>88.7</ele>
        <time>2023-07-19T09:10:13Z</time>
      </trkpt>
      <trkpt lat="49.83811" lon="2.46915">
        <ele>88.6</ele>
        <time>2023-07-19T09:10:14Z</time>
      </trkpt>
      <trkpt lat="49.83812" lon="2.46914">
        <ele>88.6</ele>
        <time>2023-07-19T09:10:16Z</time>
      </trkpt>
      <trkpt lat="49.83813" lon="2.46913">
        <ele>88.6</ele>
        <time>2023-07-19T09:10:17Z</time>
      </trkpt>
      <trkpt lat="49.83814" lon="2.46912">
        <ele>88.5</ele>
        <time>2023-07-19T09:10:18Z</time>
      </trkpt>
      <trkpt lat="49.83815" lon="2.46911">
        <ele>88.5</ele>
        <time>2023-07-19T09:10:19Z</time>
      </trkpt>
      <trkpt lat="49.83815" lon="2.46911">
        <ele>88.5</ele>
        <time>2023-07-19T09:10:20Z</time>
      </trkpt>
      <trkpt lat="49.83817" lon="2.4691">
        <ele>88.5</ele>
        <time>2023-07-19T09:10:21Z</time>
      </trkpt>
      <trkpt lat="49.83818" lon="2.46909">
        <ele>88.4</ele>
        <time>2023-07-19T09:10:23Z</time>
      </trkpt>
      <trkpt lat="49.83819" lon="2.46907">
        <ele>88.4</ele>
        <time>2023-07-19T09:10:24Z</time>
      </trkpt>
      <trkpt lat="49.8382" lon="2.46906">
        <ele>88.4</ele>
        <time>2023-07-19T09:10:25Z</time>
      </trkpt>
      <trkpt lat="49.83822" lon="2.46903">
        <ele>88.3</ele>
        <time>2023-07-19T09:10:27Z</time>
      </trkpt>
      <trkpt lat="49.83824" lon="2.46901">
        <ele>88.3</ele>
        <time>2023-07-19T09:10:29Z</time>
      </trkpt>
      <trkpt lat="49.83825" lon="2.469">
        <ele>88.3</ele>
        <time>2023-07-19T09:10:30Z</time>
      </trkpt>
      <trkpt lat="49.83826" lon="2.46899">
        <ele>88.3</ele>
        <time>2023-07-19T09:10:31Z</time>
      </trkpt>
      <trkpt lat="49.83828" lon="2.46897">
        <ele>88.3</ele>
        <time>2023-07-19T09:10:32Z</time>
      </trkpt>
      <trkpt lat="49.83829" lon="2.46895">
        <ele>88.2</ele>
        <time>2023-07-19T09:10:33Z</time>
      </trkpt>
      <trkpt lat="49.83831" lon="2.46894">
        <ele>88.2</ele>
        <time>2023-07-19T09:10:34Z</time>
      </trkpt>
      <trkpt lat="49.83832" lon="2.46892">
        <ele>88.2</ele>
        <time>2023-07-19T09:10:35Z</time>
      </trkpt>
      <trkpt lat="49.83834" lon="2.46891">
        <ele>88.2</ele>
        <time>2023-07-19T09:10:36Z</time>
      </trkpt>
      <trkpt lat="49.83836" lon="2.46889">
        <ele>88.2</ele>
        <time>2023-07-19T09:10:38Z</time>
      </trkpt>
      <trkpt lat="49.83837" lon="2.46888">
        <ele>88.2</ele>
        <time>2023-07-19T09:10:39Z</time>
      </trkpt>
      <trkpt lat="49.83838" lon="2.46887">
        <ele>88.2</ele>
        <time>2023-07-19T09:10:40Z</time>
      </trkpt>
      <trkpt lat="49.8384" lon="2.46887">
        <ele>88.1</ele>
        <time>2023-07-19T09:10:41Z</time>
      </trkpt>
      <trkpt lat="49.83841" lon="2.46886">
        <ele>88.1</ele>
        <time>2023-07-19T09:10:43Z</time>
      </trkpt>
      <trkpt lat="49.83842" lon="2.46886">
        <ele>88.1</ele>
        <time>2023-07-19T09:10:44Z</time>
      </trkpt>
      <trkpt lat="49.83843" lon="2.46885">
        <ele>88.1</ele>
        <time>2023-07-19T09:10:45Z</time>
      </trkpt>
      <trkpt lat="49.83844" lon="2.46884">
        <ele>88.1</ele>
        <time>2023-07-19T09:10:46Z</time>
      </trkpt>
      <trkpt lat="49.83846" lon="2.46884">
        <ele>88.1</ele>
        <time>2023-07-19T09:10:47Z</time>
      </trkpt>
      <trkpt lat="49.83847" lon="2.46883">
        <ele>88.1</ele>
        <time>2023-07-19T09:10:48Z</time>
      </trkpt>
      <trkpt lat="49.83847" lon="2.46882">
        <ele>88.1</ele>
        <time>2023-07-19T09:10:49Z</time>
      </trkpt>
      <trkpt lat="49.8385" lon="2.46879">
        <ele>88.1</ele>
        <time>2023-07-19T09:10:51Z</time>
      </trkpt>
      <trkpt lat="49.83851" lon="2.46879">
        <ele>88.1</ele>
        <time>2023-07-19T09:10:52Z</time>
      </trkpt>
      <trkpt lat="49.83853" lon="2.46876">
        <ele>88</ele>
        <time>2023-07-19T09:10:54Z</time>
      </trkpt>
      <trkpt lat="49.83854" lon="2.46875">
        <ele>88</ele>
        <time>2023-07-19T09:10:55Z</time>
      </trkpt>
      <trkpt lat="49.83855" lon="2.46874">
        <ele>88</ele>
        <time>2023-07-19T09:10:57Z</time>
      </trkpt>
      <trkpt lat="49.83856" lon="2.46873">
        <ele>88</ele>
        <time>2023-07-19T09:10:58Z</time>
      </trkpt>
      <trkpt lat="49.83857" lon="2.46872">
        <ele>88</ele>
        <time>2023-07-19T09:10:59Z</time>
      </trkpt>
      <trkpt lat="49.83858" lon="2.46872">
        <ele>88</ele>
        <time>2023-07-19T09:11:00Z</time>
      </trkpt>
      <trkpt lat="49.83858" lon="2.46871">
        <ele>88</ele>
        <time>2023-07-19T09:11:01Z</time>
      </trkpt>
      <trkpt lat="49.83859" lon="2.46871">
        <ele>88</ele>
        <time>2023-07-19T09:11:02Z</time>
      </trkpt>
      <trkpt lat="49.8386" lon="2.46871">
        <ele>88</ele>
        <time>2023-07-19T09:11:03Z</time>
      </trkpt>
      <trkpt lat="49.8386" lon="2.46871">
        <ele>88</ele>
        <time>2023-07-19T09:11:05Z</time>
      </trkpt>
      <trkpt lat="49.83861" lon="2.4687">
        <ele>88</ele>
        <time>2023-07-19T09:11:06Z</time>
      </trkpt>
      <trkpt lat="49.83862" lon="2.46869">
        <ele>87.9</ele>
        <time>2023-07-19T09:11:07Z</time>
      </trkpt>
      <trkpt lat="49.83863" lon="2.46868">
        <ele>87.9</ele>
        <time>2023-07-19T09:11:08Z</time>
      </trkpt>
      <trkpt lat="49.83864" lon="2.46867">
        <ele>87.9</ele>
        <time>2023-07-19T09:11:09Z</time>
      </trkpt>
      <trkpt lat="49.83865" lon="2.46866">
        <ele>87.9</ele>
        <time>2023-07-19T09:11:10Z</time>
      </trkpt>
      <trkpt lat="49.83866" lon="2.46865">
        <ele>87.9</ele>
        <time>2023-07-19T09:11:12Z</time>
      </trkpt>
      <trkpt lat="49.83867" lon="2.46863">
        <ele>87.9</ele>
        <time>2023-07-19T09:11:13Z</time>
      </trkpt>
      <trkpt lat="49.83868" lon="2.46862">
        <ele>87.9</ele>
        <time>2023-07-19T09:11:14Z</time>
      </trkpt>
      <trkpt lat="49.83869" lon="2.46861">
        <ele>87.9</ele>
        <time>2023-07-19T09:11:15Z</time>
      </trkpt>
      <trkpt lat="49.8387" lon="2.46859">
        <ele>87.9</ele>
        <time>2023-07-19T09:11:17Z</time>
      </trkpt>
      <trkpt lat="49.8387" lon="2.46858">
        <ele>87.9</ele>
        <time>2023-07-19T09:11:18Z</time>
      </trkpt>
      <trkpt lat="49.83871" lon="2.46857">
        <ele>87.9</ele>
        <time>2023-07-19T09:11:19Z</time>
      </trkpt>
      <trkpt lat="49.83872" lon="2.46855">
        <ele>87.9</ele>
        <time>2023-07-19T09:11:20Z</time>
      </trkpt>
      <trkpt lat="49.83872" lon="2.46853">
        <ele>87.9</ele>
        <time>2023-07-19T09:11:21Z</time>
      </trkpt>
      <trkpt lat="49.83873" lon="2.4685">
        <ele>87.9</ele>
        <time>2023-07-19T09:11:23Z</time>
      </trkpt>
      <trkpt lat="49.83874" lon="2.46848">
        <ele>87.9</ele>
        <time>2023-07-19T09:11:24Z</time>
      </trkpt>
      <trkpt lat="49.83874" lon="2.46847">
        <ele>87.9</ele>
        <time>2023-07-19T09:11:26Z</time>
      </trkpt>
      <trkpt lat="49.83874" lon="2.46845">
        <ele>87.9</ele>
        <time>2023-07-19T09:11:27Z</time>
      </trkpt>
      <trkpt lat="49.83875" lon="2.46844">
        <ele>87.9</ele>
        <time>2023-07-19T09:11:28Z</time>
      </trkpt>
      <trkpt lat="49.83875" lon="2.46842">
        <ele>87.9</ele>
        <time>2023-07-19T09:11:29Z</time>
      </trkpt>
      <trkpt lat="49.83876" lon="2.4684">
        <ele>87.9</ele>
        <time>2023-07-19T09:11:30Z</time>
      </trkpt>
      <trkpt lat="49.83877" lon="2.46838">
        <ele>87.9</ele>
        <time>2023-07-19T09:11:31Z</time>
      </trkpt>
      <trkpt lat="49.83878" lon="2.46833">
        <ele>87.9</ele>
        <time>2023-07-19T09:11:33Z</time>
      </trkpt>
      <trkpt lat="49.83879" lon="2.46832">
        <ele>87.9</ele>
        <time>2023-07-19T09:11:34Z</time>
      </trkpt>
      <trkpt lat="49.8388" lon="2.4683">
        <ele>87.9</ele>
        <time>2023-07-19T09:11:36Z</time>
      </trkpt>
      <trkpt lat="49.8388" lon="2.46829">
        <ele>87.9</ele>
        <time>2023-07-19T09:11:37Z</time>
      </trkpt>
      <trkpt lat="49.83881" lon="2.46827">
        <ele>87.9</ele>
        <time>2023-07-19T09:11:38Z</time>
      </trkpt>
      <trkpt lat="49.83881" lon="2.46824">
        <ele>88</ele>
        <time>2023-07-19T09:11:39Z</time>
      </trkpt>
      <trkpt lat="49.83882" lon="2.46823">
        <ele>88</ele>
        <time>2023-07-19T09:11:40Z</time>
      </trkpt>
      <trkpt lat="49.83882" lon="2.46822">
        <ele>88</ele>
        <time>2023-07-19T09:11:41Z</time>
      </trkpt>
      <trkpt lat="49.83883" lon="2.46818">
        <ele>88</ele>
        <time>2023-07-19T09:11:42Z</time>
      </trkpt>
      <trkpt lat="49.83884" lon="2.46816">
        <ele>88</ele>
        <time>2023-07-19T09:11:44Z</time>
      </trkpt>
      <trkpt lat="49.83884" lon="2.46814">
        <ele>88</ele>
        <time>2023-07-19T09:11:45Z</time>
      </trkpt>
      <trkpt lat="49.83885" lon="2.46812">
        <ele>88</ele>
        <time>2023-07-19T09:11:46Z</time>
      </trkpt>
      <trkpt lat="49.83885" lon="2.46811">
        <ele>88</ele>
        <time>2023-07-19T09:11:48Z</time>
      </trkpt>
      <trkpt lat="49.83886" lon="2.46808">
        <ele>88</ele>
        <time>2023-07-19T09:11:49Z</time>
      </trkpt>
      <trkpt lat="49.83886" lon="2.46806">
        <ele>88</ele>
        <time>2023-07-19T09:11:50Z</time>
      </trkpt>
      <trkpt lat="49.83886" lon="2.46804">
        <ele>88</ele>
        <time>2023-07-19T09:11:51Z</time>
      </trkpt>
      <trkpt lat="49.83887" lon="2.46802">
        <ele>88.1</ele>
        <time>2023-07-19T09:11:52Z</time>
      </trkpt>
      <trkpt lat="49.83887" lon="2.468">
        <ele>88.1</ele>
        <time>2023-07-19T09:11:53Z</time>
      </trkpt>
      <trkpt lat="49.83888" lon="2.46799">
        <ele>88.1</ele>
        <time>2023-07-19T09:11:54Z</time>
      </trkpt>
      <trkpt lat="49.83888" lon="2.46797">
        <ele>88.1</ele>
        <time>2023-07-19T09:11:56Z</time>
      </trkpt>
      <trkpt lat="49.83888" lon="2.46796">
        <ele>88.1</ele>
        <time>2023-07-19T09:11:57Z</time>
      </trkpt>
      <trkpt lat="49.83889" lon="2.46794">
        <ele>88.2</ele>
        <time>2023-07-19T09:11:58Z</time>
      </trkpt>
      <trkpt lat="49.83889" lon="2.46792">
        <ele>88.2</ele>
        <time>2023-07-19T09:11:59Z</time>
      </trkpt>
      <trkpt lat="49.83889" lon="2.46791">
        <ele>88.2</ele>
        <time>2023-07-19T09:12:00Z</time>
      </trkpt>
      <trkpt lat="49.8389" lon="2.46789">
        <ele>88.2</ele>
        <time>2023-07-19T09:12:01Z</time>
      </trkpt>
      <trkpt lat="49.8389" lon="2.46786">
        <ele>88.2</ele>
        <time>2023-07-19T09:12:02Z</time>
      </trkpt>
      <trkpt lat="49.83891" lon="2.46785">
        <ele>88.3</ele>
        <time>2023-07-19T09:12:04Z</time>
      </trkpt>
      <trkpt lat="49.83891" lon="2.46784">
        <ele>88.3</ele>
        <time>2023-07-19T09:12:05Z</time>
      </trkpt>
      <trkpt lat="49.83891" lon="2.46782">
        <ele>88.3</ele>
        <time>2023-07-19T09:12:06Z</time>
      </trkpt>
      <trkpt lat="49.83892" lon="2.4678">
        <ele>88.3</ele>
        <time>2023-07-19T09:12:07Z</time>
      </trkpt>
      <trkpt lat="49.83892" lon="2.46778">
        <ele>88.3</ele>
        <time>2023-07-19T09:12:08Z</time>
      </trkpt>
      <trkpt lat="49.83892" lon="2.46776">
        <ele>88.4</ele>
        <time>2023-07-19T09:12:09Z</time>
      </trkpt>
      <trkpt lat="49.83893" lon="2.46774">
        <ele>88.4</ele>
        <time>2023-07-19T09:12:10Z</time>
      </trkpt>
      <trkpt lat="49.83893" lon="2.46771">
        <ele>88.4</ele>
        <time>2023-07-19T09:12:12Z</time>
      </trkpt>
      <trkpt lat="49.83894" lon="2.4677">
        <ele>88.4</ele>
        <time>2023-07-19T09:12:13Z</time>
      </trkpt>
      <trkpt lat="49.83894" lon="2.46767">
        <ele>88.5</ele>
        <time>2023-07-19T09:12:15Z</time>
      </trkpt>
      <trkpt lat="49.83895" lon="2.46764">
        <ele>88.5</ele>
        <time>2023-07-19T09:12:17Z</time>
      </trkpt>
      <trkpt lat="49.83895" lon="2.4676">
        <ele>88.6</ele>
        <time>2023-07-19T09:12:18Z</time>
      </trkpt>
      <trkpt lat="49.83896" lon="2.46758">
        <ele>88.6</ele>
        <time>2023-07-19T09:12:20Z</time>
      </trkpt>
      <trkpt lat="49.83896" lon="2.46756">
        <ele>88.6</ele>
        <time>2023-07-19T09:12:21Z</time>
      </trkpt>
      <trkpt lat="49.83897" lon="2.46753">
        <ele>88.7</ele>
        <time>2023-07-19T09:12:22Z</time>
      </trkpt>
      <trkpt lat="49.83897" lon="2.46752">
        <ele>88.7</ele>
        <time>2023-07-19T09:12:23Z</time>
      </trkpt>
      <trkpt lat="49.83898" lon="2.4675">
        <ele>88.7</ele>
        <time>2023-07-19T09:12:25Z</time>
      </trkpt>
      <trkpt lat="49.83898" lon="2.46749">
        <ele>88.7</ele>
        <time>2023-07-19T09:12:26Z</time>
      </trkpt>
      <trkpt lat="49.83899" lon="2.46747">
        <ele>88.8</ele>
        <time>2023-07-19T09:12:27Z</time>
      </trkpt>
      <trkpt lat="49.83899" lon="2.46746">
        <ele>88.8</ele>
        <time>2023-07-19T09:12:28Z</time>
      </trkpt>
      <trkpt lat="49.839" lon="2.46741">
        <ele>88.9</ele>
        <time>2023-07-19T09:12:30Z</time>
      </trkpt>
      <trkpt lat="49.839" lon="2.46739">
        <ele>88.9</ele>
        <time>2023-07-19T09:12:32Z</time>
      </trkpt>
      <trkpt lat="49.839" lon="2.46738">
        <ele>88.9</ele>
        <time>2023-07-19T09:12:33Z</time>
      </trkpt>
      <trkpt lat="49.839" lon="2.46736">
        <ele>88.9</ele>
        <time>2023-07-19T09:12:34Z</time>
      </trkpt>
      <trkpt lat="49.839" lon="2.46735">
        <ele>89</ele>
        <time>2023-07-19T09:12:35Z</time>
      </trkpt>
      <trkpt lat="49.839" lon="2.46733">
        <ele>89</ele>
        <time>2023-07-19T09:12:36Z</time>
      </trkpt>
      <trkpt lat="49.83901" lon="2.46731">
        <ele>89</ele>
        <time>2023-07-19T09:12:37Z</time>
      </trkpt>
      <trkpt lat="49.83901" lon="2.4673">
        <ele>89.1</ele>
        <time>2023-07-19T09:12:39Z</time>
      </trkpt>
      <trkpt lat="49.83901" lon="2.46728">
        <ele>89.1</ele>
        <time>2023-07-19T09:12:40Z</time>
      </trkpt>
      <trkpt lat="49.83902" lon="2.46726">
        <ele>89.1</ele>
        <time>2023-07-19T09:12:41Z</time>
      </trkpt>
      <trkpt lat="49.83902" lon="2.46724">
        <ele>89.1</ele>
        <time>2023-07-19T09:12:42Z</time>
      </trkpt>
      <trkpt lat="49.83902" lon="2.46721">
        <ele>89.2</ele>
        <time>2023-07-19T09:12:44Z</time>
      </trkpt>
      <trkpt lat="49.83903" lon="2.4672">
        <ele>89.2</ele>
        <time>2023-07-19T09:12:45Z</time>
      </trkpt>
      <trkpt lat="49.83903" lon="2.46719">
        <ele>89.2</ele>
        <time>2023-07-19T09:12:46Z</time>
      </trkpt>
      <trkpt lat="49.83903" lon="2.46717">
        <ele>89.3</ele>
        <time>2023-07-19T09:12:47Z</time>
      </trkpt>
      <trkpt lat="49.83903" lon="2.46715">
        <ele>89.3</ele>
        <time>2023-07-19T09:12:48Z</time>
      </trkpt>
      <trkpt lat="49.83904" lon="2.46713">
        <ele>89.3</ele>
        <time>2023-07-19T09:12:49Z</time>
      </trkpt>
      <trkpt lat="49.83904" lon="2.4671">
        <ele>89.4</ele>
        <time>2023-07-19T09:12:50Z</time>
      </trkpt>
      <trkpt lat="49.83905" lon="2.46708">
        <ele>89.4</ele>
        <time>2023-07-19T09:12:52Z</time>
      </trkpt>
      <trkpt lat="49.83905" lon="2.46707">
        <ele>89.5</ele>
        <time>2023-07-19T09:12:53Z</time>
      </trkpt>
      <trkpt lat="49.83905" lon="2.46705">
        <ele>89.5</ele>
        <time>2023-07-19T09:12:54Z</time>
      </trkpt>
      <trkpt lat="49.83906" lon="2.46703">
        <ele>89.5</ele>
        <time>2023-07-19T09:12:55Z</time>
      </trkpt>
      <trkpt lat="49.83906" lon="2.46701">
        <ele>89.6</ele>
        <time>2023-07-19T09:12:56Z</time>
      </trkpt>
      <trkpt lat="49.83907" lon="2.46699">
        <ele>89.6</ele>
        <time>2023-07-19T09:12:57Z</time>
      </trkpt>
      <trkpt lat="49.83907" lon="2.46698">
        <ele>89.6</ele>
        <time>2023-07-19T09:12:58Z</time>
      </trkpt>
      <trkpt lat="49.83907" lon="2.46695">
        <ele>89.7</ele>
        <time>2023-07-19T09:13:00Z</time>
      </trkpt>
      <trkpt lat="49.83908" lon="2.46694">
        <ele>89.7</ele>
        <time>2023-07-19T09:13:01Z</time>
      </trkpt>
      <trkpt lat="49.83908" lon="2.46692">
        <ele>89.8</ele>
        <time>2023-07-19T09:13:02Z</time>
      </trkpt>
      <trkpt lat="49.83908" lon="2.46691">
        <ele>89.8</ele>
        <time>2023-07-19T09:13:03Z</time>
      </trkpt>
      <trkpt lat="49.83908" lon="2.46689">
        <ele>89.9</ele>
        <time>2023-07-19T09:13:04Z</time>
      </trkpt>
      <trkpt lat="49.83908" lon="2.46687">
        <ele>89.9</ele>
        <time>2023-07-19T09:13:06Z</time>
      </trkpt>
      <trkpt lat="49.83909" lon="2.46685">
        <ele>90</ele>
        <time>2023-07-19T09:13:07Z</time>
      </trkpt>
      <trkpt lat="49.83909" lon="2.46682">
        <ele>90</ele>
        <time>2023-07-19T09:13:08Z</time>
      </trkpt>
      <trkpt lat="49.83909" lon="2.46679">
        <ele>90.1</ele>
        <time>2023-07-19T09:13:10Z</time>
      </trkpt>
      <trkpt lat="49.83909" lon="2.46677">
        <ele>90.1</ele>
        <time>2023-07-19T09:13:11Z</time>
      </trkpt>
      <trkpt lat="49.83909" lon="2.46673">
        <ele>90.2</ele>
        <time>2023-07-19T09:13:13Z</time>
      </trkpt>
      <trkpt lat="49.83909" lon="2.46672">
        <ele>90.3</ele>
        <time>2023-07-19T09:13:14Z</time>
      </trkpt>
      <trkpt lat="49.8391" lon="2.4667">
        <ele>90.3</ele>
        <time>2023-07-19T09:13:15Z</time>
      </trkpt>
      <trkpt lat="49.8391" lon="2.46668">
        <ele>90.4</ele>
        <time>2023-07-19T09:13:17Z</time>
      </trkpt>
      <trkpt lat="49.8391" lon="2.46666">
        <ele>90.4</ele>
        <time>2023-07-19T09:13:18Z</time>
      </trkpt>
      <trkpt lat="49.8391" lon="2.46664">
        <ele>90.4</ele>
        <time>2023-07-19T09:13:20Z</time>
      </trkpt>
      <trkpt lat="49.83911" lon="2.46662">
        <ele>90.5</ele>
        <time>2023-07-19T09:13:21Z</time>
      </trkpt>
      <trkpt lat="49.83911" lon="2.4666">
        <ele>90.5</ele>
        <time>2023-07-19T09:13:22Z</time>
      </trkpt>
      <trkpt lat="49.83911" lon="2.46657">
        <ele>90.6</ele>
        <time>2023-07-19T09:13:23Z</time>
      </trkpt>
      <trkpt lat="49.83912" lon="2.46655">
        <ele>90.6</ele>
        <time>2023-07-19T09:13:24Z</time>
      </trkpt>
      <trkpt lat="49.83912" lon="2.46654">
        <ele>90.7</ele>
        <time>2023-07-19T09:13:26Z</time>
      </trkpt>
      <trkpt lat="49.83912" lon="2.46652">
        <ele>90.7</ele>
        <time>2023-07-19T09:13:27Z</time>
      </trkpt>
      <trkpt lat="49.83912" lon="2.46651">
        <ele>90.8</ele>
        <time>2023-07-19T09:13:28Z</time>
      </trkpt>
      <trkpt lat="49.83912" lon="2.46649">
        <ele>90.8</ele>
        <time>2023-07-19T09:13:29Z</time>
      </trkpt>
      <trkpt lat="49.83912" lon="2.46647">
        <ele>90.8</ele>
        <time>2023-07-19T09:13:30Z</time>
      </trkpt>
      <trkpt lat="49.83913" lon="2.46645">
        <ele>90.9</ele>
        <time>2023-07-19T09:13:31Z</time>
      </trkpt>
      <trkpt lat="49.83913" lon="2.46643">
        <ele>90.9</ele>
        <time>2023-07-19T09:13:33Z</time>
      </trkpt>
      <trkpt lat="49.83913" lon="2.4664">
        <ele>91</ele>
        <time>2023-07-19T09:13:34Z</time>
      </trkpt>
      <trkpt lat="49.83913" lon="2.46639">
        <ele>91</ele>
        <time>2023-07-19T09:13:35Z</time>
      </trkpt>
      <trkpt lat="49.83914" lon="2.46638">
        <ele>91</ele>
        <time>2023-07-19T09:13:36Z</time>
      </trkpt>
      <trkpt lat="49.83914" lon="2.46636">
        <ele>91.1</ele>
        <time>2023-07-19T09:13:37Z</time>
      </trkpt>
      <trkpt lat="49.83914" lon="2.46634">
        <ele>91.1</ele>
        <time>2023-07-19T09:13:38Z</time>
      </trkpt>
      <trkpt lat="49.83915" lon="2.46632">
        <ele>91.2</ele>
        <time>2023-07-19T09:13:40Z</time>
      </trkpt>
      <trkpt lat="49.83915" lon="2.4663">
        <ele>91.2</ele>
        <time>2023-07-19T09:13:41Z</time>
      </trkpt>
      <trkpt lat="49.83915" lon="2.46628">
        <ele>91.2</ele>
        <time>2023-07-19T09:13:42Z</time>
      </trkpt>
      <trkpt lat="49.83915" lon="2.46626">
        <ele>91.3</ele>
        <time>2023-07-19T09:13:43Z</time>
      </trkpt>
      <trkpt lat="49.83916" lon="2.46625">
        <ele>91.3</ele>
        <time>2023-07-19T09:13:44Z</time>
      </trkpt>
      <trkpt lat="49.83916" lon="2.46623">
        <ele>91.4</ele>
        <time>2023-07-19T09:13:46Z</time>
      </trkpt>
      <trkpt lat="49.83916" lon="2.46622">
        <ele>91.4</ele>
        <time>2023-07-19T09:13:47Z</time>
      </trkpt>
      <trkpt lat="49.83917" lon="2.4662">
        <ele>91.4</ele>
        <time>2023-07-19T09:13:48Z</time>
      </trkpt>
      <trkpt lat="49.83917" lon="2.46618">
        <ele>91.5</ele>
        <time>2023-07-19T09:13:49Z</time>
      </trkpt>
      <trkpt lat="49.83917" lon="2.46617">
        <ele>91.5</ele>
        <time>2023-07-19T09:13:50Z</time>
      </trkpt>
      <trkpt lat="49.83918" lon="2.46615">
        <ele>91.5</ele>
        <time>2023-07-19T09:13:51Z</time>
      </trkpt>
      <trkpt lat="49.83918" lon="2.46614">
        <ele>91.6</ele>
        <time>2023-07-19T09:13:52Z</time>
      </trkpt>
      <trkpt lat="49.83919" lon="2.46611">
        <ele>91.6</ele>
        <time>2023-07-19T09:13:54Z</time>
      </trkpt>
      <trkpt lat="49.83919" lon="2.46609">
        <ele>91.7</ele>
        <time>2023-07-19T09:13:55Z</time>
      </trkpt>
      <trkpt lat="49.83919" lon="2.46608">
        <ele>91.7</ele>
        <time>2023-07-19T09:13:56Z</time>
      </trkpt>
      <trkpt lat="49.8392" lon="2.46606">
        <ele>91.7</ele>
        <time>2023-07-19T09:13:58Z</time>
      </trkpt>
      <trkpt lat="49.8392" lon="2.46604">
        <ele>91.8</ele>
        <time>2023-07-19T09:13:59Z</time>
      </trkpt>
      <trkpt lat="49.8392" lon="2.46602">
        <ele>91.8</ele>
        <time>2023-07-19T09:14:00Z</time>
      </trkpt>
      <trkpt lat="49.83921" lon="2.46601">
        <ele>91.8</ele>
        <time>2023-07-19T09:14:01Z</time>
      </trkpt>
      <trkpt lat="49.83921" lon="2.46599">
        <ele>91.9</ele>
        <time>2023-07-19T09:14:02Z</time>
      </trkpt>
      <trkpt lat="49.83921" lon="2.46598">
        <ele>91.9</ele>
        <time>2023-07-19T09:14:04Z</time>
      </trkpt>
      <trkpt lat="49.83922" lon="2.46596">
        <ele>91.9</ele>
        <time>2023-07-19T09:14:05Z</time>
      </trkpt>
      <trkpt lat="49.83922" lon="2.46594">
        <ele>92</ele>
        <time>2023-07-19T09:14:06Z</time>
      </trkpt>
      <trkpt lat="49.83922" lon="2.46593">
        <ele>92</ele>
        <time>2023-07-19T09:14:07Z</time>
      </trkpt>
      <trkpt lat="49.83923" lon="2.46591">
        <ele>92</ele>
        <time>2023-07-19T09:14:08Z</time>
      </trkpt>
      <trkpt lat="49.83923" lon="2.46588">
        <ele>92.1</ele>
        <time>2023-07-19T09:14:09Z</time>
      </trkpt>
      <trkpt lat="49.83924" lon="2.46587">
        <ele>92.1</ele>
        <time>2023-07-19T09:14:11Z</time>
      </trkpt>
      <trkpt lat="49.83924" lon="2.46586">
        <ele>92.2</ele>
        <time>2023-07-19T09:14:12Z</time>
      </trkpt>
      <trkpt lat="49.83924" lon="2.46584">
        <ele>92.2</ele>
        <time>2023-07-19T09:14:13Z</time>
      </trkpt>
      <trkpt lat="49.83924" lon="2.46582">
        <ele>92.2</ele>
        <time>2023-07-19T09:14:14Z</time>
      </trkpt>
      <trkpt lat="49.83925" lon="2.4658">
        <ele>92.3</ele>
        <time>2023-07-19T09:14:15Z</time>
      </trkpt>
      <trkpt lat="49.83925" lon="2.46579">
        <ele>92.3</ele>
        <time>2023-07-19T09:14:16Z</time>
      </trkpt>
      <trkpt lat="49.83926" lon="2.46577">
        <ele>92.3</ele>
        <time>2023-07-19T09:14:18Z</time>
      </trkpt>
      <trkpt lat="49.83926" lon="2.46575">
        <ele>92.4</ele>
        <time>2023-07-19T09:14:19Z</time>
      </trkpt>
      <trkpt lat="49.83926" lon="2.46574">
        <ele>92.4</ele>
        <time>2023-07-19T09:14:20Z</time>
      </trkpt>
      <trkpt lat="49.83927" lon="2.46572">
        <ele>92.4</ele>
        <time>2023-07-19T09:14:21Z</time>
      </trkpt>
      <trkpt lat="49.83927" lon="2.46571">
        <ele>92.5</ele>
        <time>2023-07-19T09:14:22Z</time>
      </trkpt>
      <trkpt lat="49.83928" lon="2.46568">
        <ele>92.5</ele>
        <time>2023-07-19T09:14:24Z</time>
      </trkpt>
      <trkpt lat="49.83928" lon="2.46567">
        <ele>92.6</ele>
        <time>2023-07-19T09:14:25Z</time>
      </trkpt>
      <trkpt lat="49.83928" lon="2.46565">
        <ele>92.6</ele>
        <time>2023-07-19T09:14:27Z</time>
      </trkpt>
      <trkpt lat="49.83929" lon="2.46563">
        <ele>92.7</ele>
        <time>2023-07-19T09:14:28Z</time>
      </trkpt>
      <trkpt lat="49.83929" lon="2.46561">
        <ele>92.7</ele>
        <time>2023-07-19T09:14:29Z</time>
      </trkpt>
      <trkpt lat="49.8393" lon="2.46558">
        <ele>92.8</ele>
        <time>2023-07-19T09:14:31Z</time>
      </trkpt>
      <trkpt lat="49.8393" lon="2.46557">
        <ele>92.8</ele>
        <time>2023-07-19T09:14:32Z</time>
      </trkpt>
      <trkpt lat="49.8393" lon="2.46556">
        <ele>92.8</ele>
        <time>2023-07-19T09:14:33Z</time>
      </trkpt>
      <trkpt lat="49.83931" lon="2.46553">
        <ele>92.9</ele>
        <time>2023-07-19T09:14:34Z</time>
      </trkpt>
      <trkpt lat="49.83931" lon="2.46552">
        <ele>92.9</ele>
        <time>2023-07-19T09:14:35Z</time>
      </trkpt>
      <trkpt lat="49.83932" lon="2.46551">
        <ele>92.9</ele>
        <time>2023-07-19T09:14:36Z</time>
      </trkpt>
      <trkpt lat="49.83933" lon="2.46547">
        <ele>93</ele>
        <time>2023-07-19T09:14:38Z</time>
      </trkpt>
      <trkpt lat="49.83933" lon="2.46546">
        <ele>93</ele>
        <time>2023-07-19T09:14:39Z</time>
      </trkpt>
      <trkpt lat="49.83933" lon="2.46545">
        <ele>93.1</ele>
        <time>2023-07-19T09:14:40Z</time>
      </trkpt>
      <trkpt lat="49.83934" lon="2.46543">
        <ele>93.1</ele>
        <time>2023-07-19T09:14:41Z</time>
      </trkpt>
      <trkpt lat="49.83934" lon="2.46542">
        <ele>93.1</ele>
        <time>2023-07-19T09:14:42Z</time>
      </trkpt>
      <trkpt lat="49.83935" lon="2.4654">
        <ele>93.2</ele>
        <time>2023-07-19T09:14:44Z</time>
      </trkpt>
      <trkpt lat="49.83935" lon="2.46538">
        <ele>93.2</ele>
        <time>2023-07-19T09:14:45Z</time>
      </trkpt>
      <trkpt lat="49.83936" lon="2.46536">
        <ele>93.3</ele>
        <time>2023-07-19T09:14:46Z</time>
      </trkpt>
      <trkpt lat="49.83936" lon="2.46534">
        <ele>93.3</ele>
        <time>2023-07-19T09:14:48Z</time>
      </trkpt>
      <trkpt lat="49.83937" lon="2.46532">
        <ele>93.3</ele>
        <time>2023-07-19T09:14:49Z</time>
      </trkpt>
      <trkpt lat="49.83937" lon="2.46531">
        <ele>93.4</ele>
        <time>2023-07-19T09:14:50Z</time>
      </trkpt>
      <trkpt lat="49.83938" lon="2.46528">
        <ele>93.4</ele>
        <time>2023-07-19T09:14:51Z</time>
      </trkpt>
      <trkpt lat="49.83938" lon="2.46526">
        <ele>93.4</ele>
        <time>2023-07-19T09:14:52Z</time>
      </trkpt>
      <trkpt lat="49.83938" lon="2.46525">
        <ele>93.5</ele>
        <time>2023-07-19T09:14:53Z</time>
      </trkpt>
      <trkpt lat="49.83939" lon="2.46522">
        <ele>93.5</ele>
        <time>2023-07-19T09:14:54Z</time>
      </trkpt>
      <trkpt lat="49.83939" lon="2.46521">
        <ele>93.6</ele>
        <time>2023-07-19T09:14:56Z</time>
      </trkpt>
      <trkpt lat="49.83939" lon="2.46519">
        <ele>93.6</ele>
        <time>2023-07-19T09:14:57Z</time>
      </trkpt>
      <trkpt lat="49.83939" lon="2.46518">
        <ele>93.6</ele>
        <time>2023-07-19T09:14:58Z</time>
      </trkpt>
      <trkpt lat="49.8394" lon="2.46516">
        <ele>93.7</ele>
        <time>2023-07-19T09:14:59Z</time>
      </trkpt>
      <trkpt lat="49.8394" lon="2.46514">
        <ele>93.7</ele>
        <time>2023-07-19T09:15:01Z</time>
      </trkpt>
      <trkpt lat="49.8394" lon="2.46511">
        <ele>93.8</ele>
        <time>2023-07-19T09:15:02Z</time>
      </trkpt>
      <trkpt lat="49.8394" lon="2.46508">
        <ele>93.8</ele>
        <time>2023-07-19T09:15:04Z</time>
      </trkpt>
      <trkpt lat="49.8394" lon="2.46506">
        <ele>93.9</ele>
        <time>2023-07-19T09:15:06Z</time>
      </trkpt>
      <trkpt lat="49.83941" lon="2.46504">
        <ele>93.9</ele>
        <time>2023-07-19T09:15:07Z</time>
      </trkpt>
      <trkpt lat="49.83941" lon="2.46502">
        <ele>94</ele>
        <time>2023-07-19T09:15:08Z</time>
      </trkpt>
      <trkpt lat="49.83941" lon="2.465">
        <ele>94</ele>
        <time>2023-07-19T09:15:09Z</time>
      </trkpt>
      <trkpt lat="49.8394" lon="2.46498">
        <ele>94</ele>
        <time>2023-07-19T09:15:11Z</time>
      </trkpt>
      <trkpt lat="49.8394" lon="2.46498">
        <ele>94</ele>
        <time>2023-07-19T09:15:12Z</time>
      </trkpt>
      <trkpt lat="49.8394" lon="2.46498">
        <ele>94</ele>
        <time>2023-07-19T09:15:13Z</time>
      </trkpt>
      <trkpt lat="49.83941" lon="2.46498">
        <ele>94.1</ele>
        <time>2023-07-19T09:15:14Z</time>
      </trkpt>
      <trkpt lat="49.83941" lon="2.46498">
        <ele>94.1</ele>
        <time>2023-07-19T09:15:15Z</time>
      </trkpt>
      <trkpt lat="49.83941" lon="2.46498">
        <ele>94.1</ele>
        <time>2023-07-19T09:15:17Z</time>
      </trkpt>
      <trkpt lat="49.83942" lon="2.46498">
        <ele>94.1</ele>
        <time>2023-07-19T09:15:19Z</time>
      </trkpt>
      <trkpt lat="49.83942" lon="2.46498">
        <ele>94.1</ele>
        <time>2023-07-19T09:15:20Z</time>
      </trkpt>
      <trkpt lat="49.83942" lon="2.46498">
        <ele>94.1</ele>
        <time>2023-07-19T09:15:22Z</time>
      </trkpt>
      <trkpt lat="49.83943" lon="2.46498">
        <ele>94.1</ele>
        <time>2023-07-19T09:15:23Z</time>
      </trkpt>
      <trkpt lat="49.83945" lon="2.46495">
        <ele>94.2</ele>
        <time>2023-07-19T09:15:25Z</time>
      </trkpt>
      <trkpt lat="49.83946" lon="2.46494">
        <ele>94.2</ele>
        <time>2023-07-19T09:15:26Z</time>
      </trkpt>
      <trkpt lat="49.83947" lon="2.46491">
        <ele>94.3</ele>
        <time>2023-07-19T09:15:27Z</time>
      </trkpt>
      <trkpt lat="49.83947" lon="2.46489">
        <ele>94.3</ele>
        <time>2023-07-19T09:15:28Z</time>
      </trkpt>
      <trkpt lat="49.83947" lon="2.46488">
        <ele>94.4</ele>
        <time>2023-07-19T09:15:29Z</time>
      </trkpt>
      <trkpt lat="49.83948" lon="2.46484">
        <ele>94.5</ele>
        <time>2023-07-19T09:15:30Z</time>
      </trkpt>
      <trkpt lat="49.83948" lon="2.46482">
        <ele>94.5</ele>
        <time>2023-07-19T09:15:31Z</time>
      </trkpt>
      <trkpt lat="49.83947" lon="2.46479">
        <ele>94.5</ele>
        <time>2023-07-19T09:15:32Z</time>
      </trkpt>
      <trkpt lat="49.83947" lon="2.46475">
        <ele>94.6</ele>
        <time>2023-07-19T09:15:34Z</time>
      </trkpt>
      <trkpt lat="49.83946" lon="2.46472">
        <ele>94.7</ele>
        <time>2023-07-19T09:15:35Z</time>
      </trkpt>
      <trkpt lat="49.83946" lon="2.4647">
        <ele>94.7</ele>
        <time>2023-07-19T09:15:37Z</time>
      </trkpt>
      <trkpt lat="49.83946" lon="2.46468">
        <ele>94.8</ele>
        <time>2023-07-19T09:15:38Z</time>
      </trkpt>
      <trkpt lat="49.83946" lon="2.46466">
        <ele>94.8</ele>
        <time>2023-07-19T09:15:39Z</time>
      </trkpt>
      <trkpt lat="49.83946" lon="2.46465">
        <ele>94.8</ele>
        <time>2023-07-19T09:15:40Z</time>
      </trkpt>
      <trkpt lat="49.83945" lon="2.46464">
        <ele>94.9</ele>
        <time>2023-07-19T09:15:41Z</time>
      </trkpt>
      <trkpt lat="49.83946" lon="2.46462">
        <ele>94.9</ele>
        <time>2023-07-19T09:15:42Z</time>
      </trkpt>
      <trkpt lat="49.83946" lon="2.4646">
        <ele>94.9</ele>
        <time>2023-07-19T09:15:44Z</time>
      </trkpt>
      <trkpt lat="49.83946" lon="2.46458">
        <ele>95</ele>
        <time>2023-07-19T09:15:45Z</time>
      </trkpt>
      <trkpt lat="49.83946" lon="2.46456">
        <ele>95</ele>
        <time>2023-07-19T09:15:46Z</time>
      </trkpt>
      <trkpt lat="49.83946" lon="2.46454">
        <ele>95.1</ele>
        <time>2023-07-19T09:15:47Z</time>
      </trkpt>
      <trkpt lat="49.83947" lon="2.46452">
        <ele>95.1</ele>
        <time>2023-07-19T09:15:48Z</time>
      </trkpt>
      <trkpt lat="49.83947" lon="2.46451">
        <ele>95.1</ele>
        <time>2023-07-19T09:15:50Z</time>
      </trkpt>
      <trkpt lat="49.83947" lon="2.46449">
        <ele>95.2</ele>
        <time>2023-07-19T09:15:51Z</time>
      </trkpt>
      <trkpt lat="49.83947" lon="2.46447">
        <ele>95.2</ele>
        <time>2023-07-19T09:15:52Z</time>
      </trkpt>
      <trkpt lat="49.83948" lon="2.46445">
        <ele>95.2</ele>
        <time>2023-07-19T09:15:53Z</time>
      </trkpt>
      <trkpt lat="49.83948" lon="2.46443">
        <ele>95.3</ele>
        <time>2023-07-19T09:15:54Z</time>
      </trkpt>
      <trkpt lat="49.83948" lon="2.46441">
        <ele>95.3</ele>
        <time>2023-07-19T09:15:55Z</time>
      </trkpt>
      <trkpt lat="49.83949" lon="2.4644">
        <ele>95.4</ele>
        <time>2023-07-19T09:15:57Z</time>
      </trkpt>
      <trkpt lat="49.83949" lon="2.46436">
        <ele>95.4</ele>
        <time>2023-07-19T09:15:58Z</time>
      </trkpt>
      <trkpt lat="49.83949" lon="2.46435">
        <ele>95.5</ele>
        <time>2023-07-19T09:15:59Z</time>
      </trkpt>
      <trkpt lat="49.83949" lon="2.46434">
        <ele>95.5</ele>
        <time>2023-07-19T09:16:00Z</time>
      </trkpt>
      <trkpt lat="49.83949" lon="2.46432">
        <ele>95.5</ele>
        <time>2023-07-19T09:16:01Z</time>
      </trkpt>
      <trkpt lat="49.8395" lon="2.4643">
        <ele>95.6</ele>
        <time>2023-07-19T09:16:02Z</time>
      </trkpt>
      <trkpt lat="49.8395" lon="2.46428">
        <ele>95.6</ele>
        <time>2023-07-19T09:16:04Z</time>
      </trkpt>
      <trkpt lat="49.8395" lon="2.46426">
        <ele>95.7</ele>
        <time>2023-07-19T09:16:05Z</time>
      </trkpt>
      <trkpt lat="49.8395" lon="2.46424">
        <ele>95.7</ele>
        <time>2023-07-19T09:16:06Z</time>
      </trkpt>
      <trkpt lat="49.8395" lon="2.46422">
        <ele>95.8</ele>
        <time>2023-07-19T09:16:07Z</time>
      </trkpt>
      <trkpt lat="49.8395" lon="2.4642">
        <ele>95.8</ele>
        <time>2023-07-19T09:16:08Z</time>
      </trkpt>
      <trkpt lat="49.8395" lon="2.46418">
        <ele>95.9</ele>
        <time>2023-07-19T09:16:10Z</time>
      </trkpt>
      <trkpt lat="49.83951" lon="2.46416">
        <ele>95.9</ele>
        <time>2023-07-19T09:16:11Z</time>
      </trkpt>
      <trkpt lat="49.83951" lon="2.46414">
        <ele>96</ele>
        <time>2023-07-19T09:16:12Z</time>
      </trkpt>
      <trkpt lat="49.83951" lon="2.46412">
        <ele>96</ele>
        <time>2023-07-19T09:16:13Z</time>
      </trkpt>
      <trkpt lat="49.83951" lon="2.46411">
        <ele>96</ele>
        <time>2023-07-19T09:16:14Z</time>
      </trkpt>
      <trkpt lat="49.83951" lon="2.46409">
        <ele>96.1</ele>
        <time>2023-07-19T09:16:15Z</time>
      </trkpt>
      <trkpt lat="49.83952" lon="2.46406">
        <ele>96.2</ele>
        <time>2023-07-19T09:16:18Z</time>
      </trkpt>
      <trkpt lat="49.83952" lon="2.46404">
        <ele>96.2</ele>
        <time>2023-07-19T09:16:19Z</time>
      </trkpt>
      <trkpt lat="49.83953" lon="2.46399">
        <ele>96.3</ele>
        <time>2023-07-19T09:16:20Z</time>
      </trkpt>
      <trkpt lat="49.83953" lon="2.46397">
        <ele>96.4</ele>
        <time>2023-07-19T09:16:21Z</time>
      </trkpt>
      <trkpt lat="49.83954" lon="2.46394">
        <ele>96.4</ele>
        <time>2023-07-19T09:16:22Z</time>
      </trkpt>
      <trkpt lat="49.83954" lon="2.4639">
        <ele>96.5</ele>
        <time>2023-07-19T09:16:24Z</time>
      </trkpt>
      <trkpt lat="49.83954" lon="2.46388">
        <ele>96.6</ele>
        <time>2023-07-19T09:16:25Z</time>
      </trkpt>
      <trkpt lat="49.83954" lon="2.46385">
        <ele>96.7</ele>
        <time>2023-07-19T09:16:27Z</time>
      </trkpt>
      <trkpt lat="49.83954" lon="2.46383">
        <ele>96.7</ele>
        <time>2023-07-19T09:16:28Z</time>
      </trkpt>
      <trkpt lat="49.83955" lon="2.46381">
        <ele>96.8</ele>
        <time>2023-07-19T09:16:29Z</time>
      </trkpt>
      <trkpt lat="49.83955" lon="2.46377">
        <ele>96.8</ele>
        <time>2023-07-19T09:16:30Z</time>
      </trkpt>
      <trkpt lat="49.83955" lon="2.46376">
        <ele>96.8</ele>
        <time>2023-07-19T09:16:31Z</time>
      </trkpt>
      <trkpt lat="49.83955" lon="2.46375">
        <ele>96.9</ele>
        <time>2023-07-19T09:16:32Z</time>
      </trkpt>
      <trkpt lat="49.83955" lon="2.46372">
        <ele>96.9</ele>
        <time>2023-07-19T09:16:34Z</time>
      </trkpt>
      <trkpt lat="49.83955" lon="2.4637">
        <ele>97</ele>
        <time>2023-07-19T09:16:35Z</time>
      </trkpt>
      <trkpt lat="49.83956" lon="2.46369">
        <ele>97</ele>
        <time>2023-07-19T09:16:36Z</time>
      </trkpt>
      <trkpt lat="49.83956" lon="2.46367">
        <ele>97</ele>
        <time>2023-07-19T09:16:37Z</time>
      </trkpt>
      <trkpt lat="49.83956" lon="2.46365">
        <ele>97</ele>
        <time>2023-07-19T09:16:38Z</time>
      </trkpt>
      <trkpt lat="49.83956" lon="2.46363">
        <ele>97.1</ele>
        <time>2023-07-19T09:16:39Z</time>
      </trkpt>
      <trkpt lat="49.83956" lon="2.4636">
        <ele>97.1</ele>
        <time>2023-07-19T09:16:41Z</time>
      </trkpt>
      <trkpt lat="49.83956" lon="2.46359">
        <ele>97.1</ele>
        <time>2023-07-19T09:16:42Z</time>
      </trkpt>
      <trkpt lat="49.83956" lon="2.46357">
        <ele>97.2</ele>
        <time>2023-07-19T09:16:43Z</time>
      </trkpt>
      <trkpt lat="49.83956" lon="2.46355">
        <ele>97.2</ele>
        <time>2023-07-19T09:16:44Z</time>
      </trkpt>
      <trkpt lat="49.83955" lon="2.46353">
        <ele>97.2</ele>
        <time>2023-07-19T09:16:45Z</time>
      </trkpt>
      <trkpt lat="49.83955" lon="2.46351">
        <ele>97.2</ele>
        <time>2023-07-19T09:16:47Z</time>
      </trkpt>
      <trkpt lat="49.83955" lon="2.46348">
        <ele>97.3</ele>
        <time>2023-07-19T09:16:48Z</time>
      </trkpt>
      <trkpt lat="49.83955" lon="2.46347">
        <ele>97.3</ele>
        <time>2023-07-19T09:16:49Z</time>
      </trkpt>
      <trkpt lat="49.83955" lon="2.46346">
        <ele>97.3</ele>
        <time>2023-07-19T09:16:50Z</time>
      </trkpt>
      <trkpt lat="49.83955" lon="2.46344">
        <ele>97.3</ele>
        <time>2023-07-19T09:16:51Z</time>
      </trkpt>
      <trkpt lat="49.83956" lon="2.46342">
        <ele>97.4</ele>
        <time>2023-07-19T09:16:52Z</time>
      </trkpt>
      <trkpt lat="49.83956" lon="2.4634">
        <ele>97.4</ele>
        <time>2023-07-19T09:16:53Z</time>
      </trkpt>
      <trkpt lat="49.83956" lon="2.46338">
        <ele>97.4</ele>
        <time>2023-07-19T09:16:55Z</time>
      </trkpt>
      <trkpt lat="49.83956" lon="2.46337">
        <ele>97.5</ele>
        <time>2023-07-19T09:16:56Z</time>
      </trkpt>
      <trkpt lat="49.83956" lon="2.46335">
        <ele>97.5</ele>
        <time>2023-07-19T09:16:57Z</time>
      </trkpt>
      <trkpt lat="49.83956" lon="2.46331">
        <ele>97.5</ele>
        <time>2023-07-19T09:16:58Z</time>
      </trkpt>
      <trkpt lat="49.83957" lon="2.46329">
        <ele>97.6</ele>
        <time>2023-07-19T09:16:59Z</time>
      </trkpt>
      <trkpt lat="49.83957" lon="2.46327">
        <ele>97.6</ele>
        <time>2023-07-19T09:17:01Z</time>
      </trkpt>
      <trkpt lat="49.83957" lon="2.46325">
        <ele>97.6</ele>
        <time>2023-07-19T09:17:03Z</time>
      </trkpt>
      <trkpt lat="49.83957" lon="2.46323">
        <ele>97.6</ele>
        <time>2023-07-19T09:17:04Z</time>
      </trkpt>
      <trkpt lat="49.83957" lon="2.4632">
        <ele>97.7</ele>
        <time>2023-07-19T09:17:06Z</time>
      </trkpt>
      <trkpt lat="49.83957" lon="2.46318">
        <ele>97.7</ele>
        <time>2023-07-19T09:17:07Z</time>
      </trkpt>
      <trkpt lat="49.83957" lon="2.46316">
        <ele>97.7</ele>
        <time>2023-07-19T09:17:08Z</time>
      </trkpt>
      <trkpt lat="49.83956" lon="2.46315">
        <ele>97.7</ele>
        <time>2023-07-19T09:17:10Z</time>
      </trkpt>
      <trkpt lat="49.83956" lon="2.46313">
        <ele>97.8</ele>
        <time>2023-07-19T09:17:11Z</time>
      </trkpt>
      <trkpt lat="49.83956" lon="2.46311">
        <ele>97.8</ele>
        <time>2023-07-19T09:17:12Z</time>
      </trkpt>
      <trkpt lat="49.83956" lon="2.46309">
        <ele>97.8</ele>
        <time>2023-07-19T09:17:13Z</time>
      </trkpt>
      <trkpt lat="49.83956" lon="2.46307">
        <ele>97.8</ele>
        <time>2023-07-19T09:17:14Z</time>
      </trkpt>
      <trkpt lat="49.83956" lon="2.46304">
        <ele>97.9</ele>
        <time>2023-07-19T09:17:16Z</time>
      </trkpt>
      <trkpt lat="49.83955" lon="2.46303">
        <ele>97.9</ele>
        <time>2023-07-19T09:17:17Z</time>
      </trkpt>
      <trkpt lat="49.83955" lon="2.46301">
        <ele>97.9</ele>
        <time>2023-07-19T09:17:18Z</time>
      </trkpt>
      <trkpt lat="49.83955" lon="2.46298">
        <ele>98</ele>
        <time>2023-07-19T09:17:20Z</time>
      </trkpt>
      <trkpt lat="49.83955" lon="2.46296">
        <ele>98</ele>
        <time>2023-07-19T09:17:21Z</time>
      </trkpt>
      <trkpt lat="49.83955" lon="2.46294">
        <ele>98</ele>
        <time>2023-07-19T09:17:22Z</time>
      </trkpt>
      <trkpt lat="49.83955" lon="2.46293">
        <ele>98.1</ele>
        <time>2023-07-19T09:17:23Z</time>
      </trkpt>
      <trkpt lat="49.83955" lon="2.46291">
        <ele>98.1</ele>
        <time>2023-07-19T09:17:25Z</time>
      </trkpt>
      <trkpt lat="49.83956" lon="2.46288">
        <ele>98.1</ele>
        <time>2023-07-19T09:17:26Z</time>
      </trkpt>
      <trkpt lat="49.83956" lon="2.46286">
        <ele>98.1</ele>
        <time>2023-07-19T09:17:27Z</time>
      </trkpt>
      <trkpt lat="49.83956" lon="2.46284">
        <ele>98.2</ele>
        <time>2023-07-19T09:17:28Z</time>
      </trkpt>
      <trkpt lat="49.83956" lon="2.46281">
        <ele>98.2</ele>
        <time>2023-07-19T09:17:30Z</time>
      </trkpt>
      <trkpt lat="49.83956" lon="2.46279">
        <ele>98.2</ele>
        <time>2023-07-19T09:17:31Z</time>
      </trkpt>
      <trkpt lat="49.83956" lon="2.46275">
        <ele>98.3</ele>
        <time>2023-07-19T09:17:33Z</time>
      </trkpt>
      <trkpt lat="49.83956" lon="2.46274">
        <ele>98.3</ele>
        <time>2023-07-19T09:17:34Z</time>
      </trkpt>
      <trkpt lat="49.83957" lon="2.46272">
        <ele>98.3</ele>
        <time>2023-07-19T09:17:36Z</time>
      </trkpt>
      <trkpt lat="49.83957" lon="2.4627">
        <ele>98.4</ele>
        <time>2023-07-19T09:17:37Z</time>
      </trkpt>
      <trkpt lat="49.83957" lon="2.46268">
        <ele>98.4</ele>
        <time>2023-07-19T09:17:38Z</time>
      </trkpt>
      <trkpt lat="49.83957" lon="2.46266">
        <ele>98.4</ele>
        <time>2023-07-19T09:17:39Z</time>
      </trkpt>
      <trkpt lat="49.83958" lon="2.46262">
        <ele>98.5</ele>
        <time>2023-07-19T09:17:41Z</time>
      </trkpt>
      <trkpt lat="49.83958" lon="2.4626">
        <ele>98.5</ele>
        <time>2023-07-19T09:17:42Z</time>
      </trkpt>
      <trkpt lat="49.83958" lon="2.46258">
        <ele>98.5</ele>
        <time>2023-07-19T09:17:44Z</time>
      </trkpt>
      <trkpt lat="49.83958" lon="2.46256">
        <ele>98.5</ele>
        <time>2023-07-19T09:17:45Z</time>
      </trkpt>
      <trkpt lat="49.83958" lon="2.46254">
        <ele>98.5</ele>
        <time>2023-07-19T09:17:46Z</time>
      </trkpt>
      <trkpt lat="49.83958" lon="2.46252">
        <ele>98.6</ele>
        <time>2023-07-19T09:17:48Z</time>
      </trkpt>
      <trkpt lat="49.83959" lon="2.46251">
        <ele>98.6</ele>
        <time>2023-07-19T09:17:49Z</time>
      </trkpt>
      <trkpt lat="49.83959" lon="2.46249">
        <ele>98.6</ele>
        <time>2023-07-19T09:17:50Z</time>
      </trkpt>
      <trkpt lat="49.83959" lon="2.46247">
        <ele>98.6</ele>
        <time>2023-07-19T09:17:51Z</time>
      </trkpt>
      <trkpt lat="49.8396" lon="2.46244">
        <ele>98.6</ele>
        <time>2023-07-19T09:17:52Z</time>
      </trkpt>
      <trkpt lat="49.8396" lon="2.46242">
        <ele>98.6</ele>
        <time>2023-07-19T09:17:54Z</time>
      </trkpt>
      <trkpt lat="49.8396" lon="2.46241">
        <ele>98.6</ele>
        <time>2023-07-19T09:17:55Z</time>
      </trkpt>
      <trkpt lat="49.8396" lon="2.46238">
        <ele>98.7</ele>
        <time>2023-07-19T09:17:56Z</time>
      </trkpt>
      <trkpt lat="49.8396" lon="2.46237">
        <ele>98.7</ele>
        <time>2023-07-19T09:17:57Z</time>
      </trkpt>
      <trkpt lat="49.8396" lon="2.46235">
        <ele>98.7</ele>
        <time>2023-07-19T09:17:58Z</time>
      </trkpt>
      <trkpt lat="49.8396" lon="2.46232">
        <ele>98.7</ele>
        <time>2023-07-19T09:17:59Z</time>
      </trkpt>
      <trkpt lat="49.8396" lon="2.46231">
        <ele>98.7</ele>
        <time>2023-07-19T09:18:00Z</time>
      </trkpt>
      <trkpt lat="49.8396" lon="2.46229">
        <ele>98.7</ele>
        <time>2023-07-19T09:18:01Z</time>
      </trkpt>
      <trkpt lat="49.8396" lon="2.46228">
        <ele>98.8</ele>
        <time>2023-07-19T09:18:03Z</time>
      </trkpt>
      <trkpt lat="49.8396" lon="2.46225">
        <ele>98.8</ele>
        <time>2023-07-19T09:18:05Z</time>
      </trkpt>
      <trkpt lat="49.83961" lon="2.46223">
        <ele>98.8</ele>
        <time>2023-07-19T09:18:06Z</time>
      </trkpt>
      <trkpt lat="49.83961" lon="2.46221">
        <ele>98.8</ele>
        <time>2023-07-19T09:18:07Z</time>
      </trkpt>
      <trkpt lat="49.83961" lon="2.46219">
        <ele>98.8</ele>
        <time>2023-07-19T09:18:08Z</time>
      </trkpt>
      <trkpt lat="49.83961" lon="2.46216">
        <ele>98.9</ele>
        <time>2023-07-19T09:18:09Z</time>
      </trkpt>
      <trkpt lat="49.83961" lon="2.46215">
        <ele>98.9</ele>
        <time>2023-07-19T09:18:10Z</time>
      </trkpt>
      <trkpt lat="49.83961" lon="2.46213">
        <ele>98.9</ele>
        <time>2023-07-19T09:18:11Z</time>
      </trkpt>
      <trkpt lat="49.83961" lon="2.4621">
        <ele>98.9</ele>
        <time>2023-07-19T09:18:13Z</time>
      </trkpt>
      <trkpt lat="49.83961" lon="2.46208">
        <ele>98.9</ele>
        <time>2023-07-19T09:18:14Z</time>
      </trkpt>
      <trkpt lat="49.83961" lon="2.46205">
        <ele>99</ele>
        <time>2023-07-19T09:18:16Z</time>
      </trkpt>
      <trkpt lat="49.83961" lon="2.46204">
        <ele>99</ele>
        <time>2023-07-19T09:18:17Z</time>
      </trkpt>
      <trkpt lat="49.83962" lon="2.46202">
        <ele>99</ele>
        <time>2023-07-19T09:18:18Z</time>
      </trkpt>
      <trkpt lat="49.83962" lon="2.46198">
        <ele>99</ele>
        <time>2023-07-19T09:18:19Z</time>
      </trkpt>
      <trkpt lat="49.83962" lon="2.46196">
        <ele>99</ele>
        <time>2023-07-19T09:18:21Z</time>
      </trkpt>
      <trkpt lat="49.83962" lon="2.46195">
        <ele>99.1</ele>
        <time>2023-07-19T09:18:22Z</time>
      </trkpt>
      <trkpt lat="49.83962" lon="2.46193">
        <ele>99.1</ele>
        <time>2023-07-19T09:18:24Z</time>
      </trkpt>
      <trkpt lat="49.83962" lon="2.46191">
        <ele>99.1</ele>
        <time>2023-07-19T09:18:25Z</time>
      </trkpt>
      <trkpt lat="49.83962" lon="2.46189">
        <ele>99.1</ele>
        <time>2023-07-19T09:18:26Z</time>
      </trkpt>
      <trkpt lat="49.83962" lon="2.46187">
        <ele>99.1</ele>
        <time>2023-07-19T09:18:27Z</time>
      </trkpt>
      <trkpt lat="49.83962" lon="2.46183">
        <ele>99.2</ele>
        <time>2023-07-19T09:18:29Z</time>
      </trkpt>
      <trkpt lat="49.83962" lon="2.46182">
        <ele>99.2</ele>
        <time>2023-07-19T09:18:30Z</time>
      </trkpt>
      <trkpt lat="49.83962" lon="2.46181">
        <ele>99.2</ele>
        <time>2023-07-19T09:18:31Z</time>
      </trkpt>
      <trkpt lat="49.83962" lon="2.46179">
        <ele>99.2</ele>
        <time>2023-07-19T09:18:32Z</time>
      </trkpt>
      <trkpt lat="49.83962" lon="2.46177">
        <ele>99.2</ele>
        <time>2023-07-19T09:18:33Z</time>
      </trkpt>
      <trkpt lat="49.83962" lon="2.46175">
        <ele>99.2</ele>
        <time>2023-07-19T09:18:34Z</time>
      </trkpt>
      <trkpt lat="49.83962" lon="2.46174">
        <ele>99.3</ele>
        <time>2023-07-19T09:18:36Z</time>
      </trkpt>
      <trkpt lat="49.83962" lon="2.46172">
        <ele>99.3</ele>
        <time>2023-07-19T09:18:37Z</time>
      </trkpt>
      <trkpt lat="49.83962" lon="2.4617">
        <ele>99.3</ele>
        <time>2023-07-19T09:18:38Z</time>
      </trkpt>
      <trkpt lat="49.83962" lon="2.46168">
        <ele>99.3</ele>
        <time>2023-07-19T09:18:39Z</time>
      </trkpt>
      <trkpt lat="49.83963" lon="2.46166">
        <ele>99.3</ele>
        <time>2023-07-19T09:18:40Z</time>
      </trkpt>
      <trkpt lat="49.83963" lon="2.46164">
        <ele>99.4</ele>
        <time>2023-07-19T09:18:41Z</time>
      </trkpt>
      <trkpt lat="49.83963" lon="2.46163">
        <ele>99.4</ele>
        <time>2023-07-19T09:18:42Z</time>
      </trkpt>
      <trkpt lat="49.83963" lon="2.46161">
        <ele>99.4</ele>
        <time>2023-07-19T09:18:44Z</time>
      </trkpt>
      <trkpt lat="49.83963" lon="2.46159">
        <ele>99.4</ele>
        <time>2023-07-19T09:18:45Z</time>
      </trkpt>
      <trkpt lat="49.83963" lon="2.46156">
        <ele>99.4</ele>
        <time>2023-07-19T09:18:46Z</time>
      </trkpt>
      <trkpt lat="49.83963" lon="2.46154">
        <ele>99.5</ele>
        <time>2023-07-19T09:18:47Z</time>
      </trkpt>
      <trkpt lat="49.83963" lon="2.46153">
        <ele>99.5</ele>
        <time>2023-07-19T09:18:48Z</time>
      </trkpt>
      <trkpt lat="49.83963" lon="2.4615">
        <ele>99.5</ele>
        <time>2023-07-19T09:18:49Z</time>
      </trkpt>
      <trkpt lat="49.83963" lon="2.46148">
        <ele>99.5</ele>
        <time>2023-07-19T09:18:51Z</time>
      </trkpt>
      <trkpt lat="49.83963" lon="2.46147">
        <ele>99.5</ele>
        <time>2023-07-19T09:18:52Z</time>
      </trkpt>
      <trkpt lat="49.83963" lon="2.46145">
        <ele>99.6</ele>
        <time>2023-07-19T09:18:53Z</time>
      </trkpt>
      <trkpt lat="49.83963" lon="2.46144">
        <ele>99.6</ele>
        <time>2023-07-19T09:18:54Z</time>
      </trkpt>
      <trkpt lat="49.83963" lon="2.46142">
        <ele>99.6</ele>
        <time>2023-07-19T09:18:55Z</time>
      </trkpt>
      <trkpt lat="49.83963" lon="2.4614">
        <ele>99.6</ele>
        <time>2023-07-19T09:18:56Z</time>
      </trkpt>
      <trkpt lat="49.83964" lon="2.46139">
        <ele>99.6</ele>
        <time>2023-07-19T09:18:57Z</time>
      </trkpt>
      <trkpt lat="49.83964" lon="2.46137">
        <ele>99.6</ele>
        <time>2023-07-19T09:18:59Z</time>
      </trkpt>
      <trkpt lat="49.83964" lon="2.46135">
        <ele>99.7</ele>
        <time>2023-07-19T09:19:00Z</time>
      </trkpt>
      <trkpt lat="49.83964" lon="2.46133">
        <ele>99.7</ele>
        <time>2023-07-19T09:19:01Z</time>
      </trkpt>
      <trkpt lat="49.83964" lon="2.46131">
        <ele>99.7</ele>
        <time>2023-07-19T09:19:02Z</time>
      </trkpt>
      <trkpt lat="49.83964" lon="2.46128">
        <ele>99.8</ele>
        <time>2023-07-19T09:19:03Z</time>
      </trkpt>
      <trkpt lat="49.83964" lon="2.46127">
        <ele>99.8</ele>
        <time>2023-07-19T09:19:05Z</time>
      </trkpt>
      <trkpt lat="49.83964" lon="2.46126">
        <ele>99.8</ele>
        <time>2023-07-19T09:19:06Z</time>
      </trkpt>
      <trkpt lat="49.83964" lon="2.46124">
        <ele>99.8</ele>
        <time>2023-07-19T09:19:07Z</time>
      </trkpt>
      <trkpt lat="49.83964" lon="2.46122">
        <ele>99.8</ele>
        <time>2023-07-19T09:19:08Z</time>
      </trkpt>
      <trkpt lat="49.83965" lon="2.4612">
        <ele>99.9</ele>
        <time>2023-07-19T09:19:09Z</time>
      </trkpt>
      <trkpt lat="49.83965" lon="2.46117">
        <ele>99.9</ele>
        <time>2023-07-19T09:19:10Z</time>
      </trkpt>
      <trkpt lat="49.83965" lon="2.46116">
        <ele>99.9</ele>
        <time>2023-07-19T09:19:11Z</time>
      </trkpt>
      <trkpt lat="49.83965" lon="2.46115">
        <ele>99.9</ele>
        <time>2023-07-19T09:19:12Z</time>
      </trkpt>
      <trkpt lat="49.83965" lon="2.46111">
        <ele>100</ele>
        <time>2023-07-19T09:19:14Z</time>
      </trkpt>
      <trkpt lat="49.83965" lon="2.4611">
        <ele>100</ele>
        <time>2023-07-19T09:19:15Z</time>
      </trkpt>
      <trkpt lat="49.83965" lon="2.46109">
        <ele>100</ele>
        <time>2023-07-19T09:19:16Z</time>
      </trkpt>
      <trkpt lat="49.83965" lon="2.46106">
        <ele>100</ele>
        <time>2023-07-19T09:19:17Z</time>
      </trkpt>
      <trkpt lat="49.83965" lon="2.46104">
        <ele>100.1</ele>
        <time>2023-07-19T09:19:18Z</time>
      </trkpt>
      <trkpt lat="49.83965" lon="2.46103">
        <ele>100.1</ele>
        <time>2023-07-19T09:19:19Z</time>
      </trkpt>
      <trkpt lat="49.83966" lon="2.461">
        <ele>100.1</ele>
        <time>2023-07-19T09:19:21Z</time>
      </trkpt>
      <trkpt lat="49.83966" lon="2.46099">
        <ele>100.1</ele>
        <time>2023-07-19T09:19:22Z</time>
      </trkpt>
      <trkpt lat="49.83966" lon="2.46098">
        <ele>100.1</ele>
        <time>2023-07-19T09:19:23Z</time>
      </trkpt>
      <trkpt lat="49.83966" lon="2.46094">
        <ele>100.2</ele>
        <time>2023-07-19T09:19:24Z</time>
      </trkpt>
      <trkpt lat="49.83966" lon="2.46093">
        <ele>100.2</ele>
        <time>2023-07-19T09:19:25Z</time>
      </trkpt>
      <trkpt lat="49.83966" lon="2.46092">
        <ele>100.2</ele>
        <time>2023-07-19T09:19:26Z</time>
      </trkpt>
      <trkpt lat="49.83966" lon="2.4609">
        <ele>100.2</ele>
        <time>2023-07-19T09:19:27Z</time>
      </trkpt>
      <trkpt lat="49.83966" lon="2.46089">
        <ele>100.2</ele>
        <time>2023-07-19T09:19:29Z</time>
      </trkpt>
      <trkpt lat="49.83966" lon="2.46086">
        <ele>100.2</ele>
        <time>2023-07-19T09:19:30Z</time>
      </trkpt>
      <trkpt lat="49.83966" lon="2.46085">
        <ele>100.3</ele>
        <time>2023-07-19T09:19:31Z</time>
      </trkpt>
      <trkpt lat="49.83966" lon="2.46083">
        <ele>100.3</ele>
        <time>2023-07-19T09:19:32Z</time>
      </trkpt>
      <trkpt lat="49.83967" lon="2.46081">
        <ele>100.3</ele>
        <time>2023-07-19T09:19:33Z</time>
      </trkpt>
      <trkpt lat="49.83967" lon="2.4608">
        <ele>100.3</ele>
        <time>2023-07-19T09:19:35Z</time>
      </trkpt>
      <trkpt lat="49.83967" lon="2.46078">
        <ele>100.3</ele>
        <time>2023-07-19T09:19:36Z</time>
      </trkpt>
      <trkpt lat="49.83967" lon="2.46076">
        <ele>100.4</ele>
        <time>2023-07-19T09:19:37Z</time>
      </trkpt>
      <trkpt lat="49.83967" lon="2.46074">
        <ele>100.4</ele>
        <time>2023-07-19T09:19:38Z</time>
      </trkpt>
      <trkpt lat="49.83967" lon="2.46072">
        <ele>100.4</ele>
        <time>2023-07-19T09:19:39Z</time>
      </trkpt>
      <trkpt lat="49.83968" lon="2.4607">
        <ele>100.4</ele>
        <time>2023-07-19T09:19:40Z</time>
      </trkpt>
      <trkpt lat="49.83968" lon="2.46068">
        <ele>100.5</ele>
        <time>2023-07-19T09:19:41Z</time>
      </trkpt>
      <trkpt lat="49.83968" lon="2.46067">
        <ele>100.5</ele>
        <time>2023-07-19T09:19:42Z</time>
      </trkpt>
      <trkpt lat="49.83969" lon="2.46065">
        <ele>100.5</ele>
        <time>2023-07-19T09:19:44Z</time>
      </trkpt>
      <trkpt lat="49.83969" lon="2.46063">
        <ele>100.5</ele>
        <time>2023-07-19T09:19:45Z</time>
      </trkpt>
      <trkpt lat="49.8397" lon="2.46061">
        <ele>100.6</ele>
        <time>2023-07-19T09:19:46Z</time>
      </trkpt>
      <trkpt lat="49.8397" lon="2.46059">
        <ele>100.6</ele>
        <time>2023-07-19T09:19:47Z</time>
      </trkpt>
      <trkpt lat="49.83972" lon="2.46055">
        <ele>100.6</ele>
        <time>2023-07-19T09:19:48Z</time>
      </trkpt>
      <trkpt lat="49.83972" lon="2.46054">
        <ele>100.6</ele>
        <time>2023-07-19T09:19:50Z</time>
      </trkpt>
      <trkpt lat="49.83972" lon="2.46053">
        <ele>100.7</ele>
        <time>2023-07-19T09:19:51Z</time>
      </trkpt>
      <trkpt lat="49.83973" lon="2.46051">
        <ele>100.7</ele>
        <time>2023-07-19T09:19:52Z</time>
      </trkpt>
      <trkpt lat="49.83973" lon="2.4605">
        <ele>100.7</ele>
        <time>2023-07-19T09:19:53Z</time>
      </trkpt>
      <trkpt lat="49.83974" lon="2.46047">
        <ele>100.7</ele>
        <time>2023-07-19T09:19:54Z</time>
      </trkpt>
      <trkpt lat="49.83974" lon="2.46046">
        <ele>100.8</ele>
        <time>2023-07-19T09:19:55Z</time>
      </trkpt>
      <trkpt lat="49.83975" lon="2.46044">
        <ele>100.8</ele>
        <time>2023-07-19T09:19:56Z</time>
      </trkpt>
      <trkpt lat="49.83975" lon="2.46043">
        <ele>100.8</ele>
        <time>2023-07-19T09:19:58Z</time>
      </trkpt>
      <trkpt lat="49.83975" lon="2.46041">
        <ele>100.8</ele>
        <time>2023-07-19T09:19:59Z</time>
      </trkpt>
      <trkpt lat="49.83976" lon="2.46039">
        <ele>100.8</ele>
        <time>2023-07-19T09:20:00Z</time>
      </trkpt>
      <trkpt lat="49.83976" lon="2.46038">
        <ele>100.8</ele>
        <time>2023-07-19T09:20:01Z</time>
      </trkpt>
      <trkpt lat="49.83976" lon="2.46036">
        <ele>100.8</ele>
        <time>2023-07-19T09:20:02Z</time>
      </trkpt>
      <trkpt lat="49.83976" lon="2.46034">
        <ele>100.9</ele>
        <time>2023-07-19T09:20:03Z</time>
      </trkpt>
      <trkpt lat="49.83977" lon="2.46032">
        <ele>100.9</ele>
        <time>2023-07-19T09:20:05Z</time>
      </trkpt>
      <trkpt lat="49.83977" lon="2.46031">
        <ele>100.9</ele>
        <time>2023-07-19T09:20:06Z</time>
      </trkpt>
      <trkpt lat="49.83977" lon="2.46029">
        <ele>100.9</ele>
        <time>2023-07-19T09:20:07Z</time>
      </trkpt>
      <trkpt lat="49.83977" lon="2.46027">
        <ele>100.9</ele>
        <time>2023-07-19T09:20:08Z</time>
      </trkpt>
      <trkpt lat="49.83977" lon="2.46026">
        <ele>100.9</ele>
        <time>2023-07-19T09:20:09Z</time>
      </trkpt>
      <trkpt lat="49.83977" lon="2.46025">
        <ele>100.9</ele>
        <time>2023-07-19T09:20:10Z</time>
      </trkpt>
      <trkpt lat="49.83977" lon="2.46022">
        <ele>101</ele>
        <time>2023-07-19T09:20:12Z</time>
      </trkpt>
      <trkpt lat="49.83977" lon="2.46021">
        <ele>101</ele>
        <time>2023-07-19T09:20:13Z</time>
      </trkpt>
      <trkpt lat="49.83977" lon="2.4602">
        <ele>101</ele>
        <time>2023-07-19T09:20:14Z</time>
      </trkpt>
      <trkpt lat="49.83977" lon="2.46018">
        <ele>101</ele>
        <time>2023-07-19T09:20:15Z</time>
      </trkpt>
      <trkpt lat="49.83977" lon="2.46017">
        <ele>101</ele>
        <time>2023-07-19T09:20:17Z</time>
      </trkpt>
      <trkpt lat="49.83978" lon="2.46015">
        <ele>101</ele>
        <time>2023-07-19T09:20:18Z</time>
      </trkpt>
      <trkpt lat="49.83978" lon="2.46013">
        <ele>101</ele>
        <time>2023-07-19T09:20:19Z</time>
      </trkpt>
      <trkpt lat="49.83978" lon="2.46012">
        <ele>101</ele>
        <time>2023-07-19T09:20:20Z</time>
      </trkpt>
      <trkpt lat="49.83979" lon="2.4601">
        <ele>101</ele>
        <time>2023-07-19T09:20:22Z</time>
      </trkpt>
      <trkpt lat="49.8398" lon="2.46009">
        <ele>101</ele>
        <time>2023-07-19T09:20:23Z</time>
      </trkpt>
      <trkpt lat="49.8398" lon="2.46007">
        <ele>101</ele>
        <time>2023-07-19T09:20:24Z</time>
      </trkpt>
      <trkpt lat="49.83981" lon="2.46005">
        <ele>101.1</ele>
        <time>2023-07-19T09:20:25Z</time>
      </trkpt>
      <trkpt lat="49.83981" lon="2.46004">
        <ele>101.1</ele>
        <time>2023-07-19T09:20:26Z</time>
      </trkpt>
      <trkpt lat="49.83981" lon="2.46002">
        <ele>101.1</ele>
        <time>2023-07-19T09:20:27Z</time>
      </trkpt>
      <trkpt lat="49.83981" lon="2.46001">
        <ele>101.1</ele>
        <time>2023-07-19T09:20:28Z</time>
      </trkpt>
      <trkpt lat="49.83981" lon="2.45999">
        <ele>101.1</ele>
        <time>2023-07-19T09:20:30Z</time>
      </trkpt>
      <trkpt lat="49.83982" lon="2.45997">
        <ele>101.1</ele>
        <time>2023-07-19T09:20:31Z</time>
      </trkpt>
      <trkpt lat="49.83982" lon="2.45994">
        <ele>101.1</ele>
        <time>2023-07-19T09:20:32Z</time>
      </trkpt>
      <trkpt lat="49.83982" lon="2.45992">
        <ele>101.1</ele>
        <time>2023-07-19T09:20:34Z</time>
      </trkpt>
      <trkpt lat="49.83983" lon="2.45989">
        <ele>101.1</ele>
        <time>2023-07-19T09:20:35Z</time>
      </trkpt>
      <trkpt lat="49.83983" lon="2.45989">
        <ele>101.1</ele>
        <time>2023-07-19T09:20:36Z</time>
      </trkpt>
      <trkpt lat="49.83983" lon="2.45989">
        <ele>101.2</ele>
        <time>2023-07-19T09:20:39Z</time>
      </trkpt>
      <trkpt lat="49.83983" lon="2.45989">
        <ele>101.2</ele>
        <time>2023-07-19T09:20:42Z</time>
      </trkpt>
      <trkpt lat="49.83983" lon="2.45989">
        <ele>101.2</ele>
        <time>2023-07-19T09:20:44Z</time>
      </trkpt>
      <trkpt lat="49.83984" lon="2.45989">
        <ele>101.2</ele>
        <time>2023-07-19T09:20:45Z</time>
      </trkpt>
      <trkpt lat="49.83984" lon="2.45989">
        <ele>101.2</ele>
        <time>2023-07-19T09:20:46Z</time>
      </trkpt>
      <trkpt lat="49.83984" lon="2.45989">
        <ele>101.2</ele>
        <time>2023-07-19T09:20:48Z</time>
      </trkpt>
      <trkpt lat="49.83984" lon="2.45989">
        <ele>101.2</ele>
        <time>2023-07-19T09:20:49Z</time>
      </trkpt>
      <trkpt lat="49.83983" lon="2.45989">
        <ele>101.2</ele>
        <time>2023-07-19T09:20:52Z</time>
      </trkpt>
      <trkpt lat="49.83983" lon="2.4599">
        <ele>101.2</ele>
        <time>2023-07-19T09:20:53Z</time>
      </trkpt>
      <trkpt lat="49.83983" lon="2.4599">
        <ele>101.2</ele>
        <time>2023-07-19T09:20:55Z</time>
      </trkpt>
      <trkpt lat="49.83983" lon="2.4599">
        <ele>101.2</ele>
        <time>2023-07-19T09:20:57Z</time>
      </trkpt>
      <trkpt lat="49.83983" lon="2.4599">
        <ele>101.2</ele>
        <time>2023-07-19T09:20:58Z</time>
      </trkpt>
      <trkpt lat="49.83983" lon="2.4599">
        <ele>101.2</ele>
        <time>2023-07-19T09:20:59Z</time>
      </trkpt>
      <trkpt lat="49.83983" lon="2.4599">
        <ele>101.2</ele>
        <time>2023-07-19T09:21:00Z</time>
      </trkpt>
      <trkpt lat="49.83983" lon="2.4599">
        <ele>101.2</ele>
        <time>2023-07-19T09:21:01Z</time>
      </trkpt>
      <trkpt lat="49.83983" lon="2.4599">
        <ele>101.2</ele>
        <time>2023-07-19T09:21:03Z</time>
      </trkpt>
      <trkpt lat="49.83983" lon="2.4599">
        <ele>101.2</ele>
        <time>2023-07-19T09:21:04Z</time>
      </trkpt>
      <trkpt lat="49.83983" lon="2.4599">
        <ele>101.2</ele>
        <time>2023-07-19T09:21:05Z</time>
      </trkpt>
      <trkpt lat="49.83983" lon="2.4599">
        <ele>101.2</ele>
        <time>2023-07-19T09:21:07Z</time>
      </trkpt>
      <trkpt lat="49.83983" lon="2.4599">
        <ele>101.2</ele>
        <time>2023-07-19T09:21:08Z</time>
      </trkpt>
      <trkpt lat="49.83983" lon="2.4599">
        <ele>101.2</ele>
        <time>2023-07-19T09:21:09Z</time>
      </trkpt>
      <trkpt lat="49.83983" lon="2.4599">
        <ele>101.2</ele>
        <time>2023-07-19T09:21:10Z</time>
      </trkpt>
      <trkpt lat="49.83983" lon="2.4599">
        <ele>101.2</ele>
        <time>2023-07-19T09:21:11Z</time>
      </trkpt>
      <trkpt lat="49.83983" lon="2.4599">
        <ele>101.2</ele>
        <time>2023-07-19T09:21:13Z</time>
      </trkpt>
      <trkpt lat="49.83983" lon="2.4599">
        <ele>101.2</ele>
        <time>2023-07-19T09:21:15Z</time>
      </trkpt>
      <trkpt lat="49.83983" lon="2.4599">
        <ele>101.2</ele>
        <time>2023-07-19T09:21:17Z</time>
      </trkpt>
      <trkpt lat="49.83983" lon="2.4599">
        <ele>101.2</ele>
        <time>2023-07-19T09:21:18Z</time>
      </trkpt>
      <trkpt lat="49.83983" lon="2.4599">
        <ele>101.2</ele>
        <time>2023-07-19T09:21:19Z</time>
      </trkpt>
      <trkpt lat="49.83983" lon="2.4599">
        <ele>101.2</ele>
        <time>2023-07-19T09:21:21Z</time>
      </trkpt>
      <trkpt lat="49.83983" lon="2.4599">
        <ele>101.2</ele>
        <time>2023-07-19T09:21:22Z</time>
      </trkpt>
      <trkpt lat="49.83983" lon="2.4599">
        <ele>101.2</ele>
        <time>2023-07-19T09:21:23Z</time>
      </trkpt>
      <trkpt lat="49.83983" lon="2.4599">
        <ele>101.2</ele>
        <time>2023-07-19T09:21:24Z</time>
      </trkpt>
      <trkpt lat="49.83983" lon="2.4599">
        <ele>101.2</ele>
        <time>2023-07-19T09:21:25Z</time>
      </trkpt>
      <trkpt lat="49.83983" lon="2.4599">
        <ele>101.2</ele>
        <time>2023-07-19T09:21:26Z</time>
      </trkpt>
      <trkpt lat="49.83983" lon="2.4599">
        <ele>101.2</ele>
        <time>2023-07-19T09:21:27Z</time>
      </trkpt>
      <trkpt lat="49.83983" lon="2.4599">
        <ele>101.2</ele>
        <time>2023-07-19T09:21:29Z</time>
      </trkpt>
      <trkpt lat="49.83983" lon="2.4599">
        <ele>101.2</ele>
        <time>2023-07-19T09:21:30Z</time>
      </trkpt>
      <trkpt lat="49.83983" lon="2.4599">
        <ele>101.2</ele>
        <time>2023-07-19T09:21:31Z</time>
      </trkpt>
      <trkpt lat="49.83983" lon="2.4599">
        <ele>101.2</ele>
        <time>2023-07-19T09:21:33Z</time>
      </trkpt>
      <trkpt lat="49.83983" lon="2.4599">
        <ele>101.2</ele>
        <time>2023-07-19T09:21:34Z</time>
      </trkpt>
      <trkpt lat="49.83983" lon="2.4599">
        <ele>101.2</ele>
        <time>2023-07-19T09:21:35Z</time>
      </trkpt>
      <trkpt lat="49.83983" lon="2.4599">
        <ele>101.2</ele>
        <time>2023-07-19T09:21:36Z</time>
      </trkpt>
      <trkpt lat="49.83983" lon="2.4599">
        <ele>101.2</ele>
        <time>2023-07-19T09:21:38Z</time>
      </trkpt>
      <trkpt lat="49.83983" lon="2.4599">
        <ele>101.2</ele>
        <time>2023-07-19T09:21:39Z</time>
      </trkpt>
      <trkpt lat="49.83983" lon="2.4599">
        <ele>101.2</ele>
        <time>2023-07-19T09:21:40Z</time>
      </trkpt>
      <trkpt lat="49.83983" lon="2.4599">
        <ele>101.2</ele>
        <time>2023-07-19T09:21:41Z</time>
      </trkpt>
      <trkpt lat="49.83983" lon="2.4599">
        <ele>101.2</ele>
        <time>2023-07-19T09:21:42Z</time>
      </trkpt>
      <trkpt lat="49.83982" lon="2.45998">
        <ele>101.2</ele>
        <time>2023-07-19T09:21:44Z</time>
      </trkpt>
      <trkpt lat="49.83982" lon="2.45997">
        <ele>101.2</ele>
        <time>2023-07-19T09:21:45Z</time>
      </trkpt>
      <trkpt lat="49.83982" lon="2.45995">
        <ele>101.2</ele>
        <time>2023-07-19T09:21:47Z</time>
      </trkpt>
      <trkpt lat="49.83982" lon="2.45994">
        <ele>101.3</ele>
        <time>2023-07-19T09:21:48Z</time>
      </trkpt>
      <trkpt lat="49.83982" lon="2.45992">
        <ele>101.3</ele>
        <time>2023-07-19T09:21:49Z</time>
      </trkpt>
      <trkpt lat="49.83982" lon="2.45991">
        <ele>101.3</ele>
        <time>2023-07-19T09:21:51Z</time>
      </trkpt>
      <trkpt lat="49.83982" lon="2.45989">
        <ele>101.3</ele>
        <time>2023-07-19T09:21:54Z</time>
      </trkpt>
      <trkpt lat="49.83982" lon="2.45987">
        <ele>101.3</ele>
        <time>2023-07-19T09:21:55Z</time>
      </trkpt>
      <trkpt lat="49.83982" lon="2.45986">
        <ele>101.3</ele>
        <time>2023-07-19T09:21:57Z</time>
      </trkpt>
      <trkpt lat="49.83983" lon="2.45984">
        <ele>101.3</ele>
        <time>2023-07-19T09:21:58Z</time>
      </trkpt>
      <trkpt lat="49.83983" lon="2.45983">
        <ele>101.3</ele>
        <time>2023-07-19T09:21:59Z</time>
      </trkpt>
      <trkpt lat="49.83983" lon="2.4598">
        <ele>101.3</ele>
        <time>2023-07-19T09:22:00Z</time>
      </trkpt>
      <trkpt lat="49.83983" lon="2.45979">
        <ele>101.3</ele>
        <time>2023-07-19T09:22:01Z</time>
      </trkpt>
      <trkpt lat="49.83983" lon="2.45978">
        <ele>101.3</ele>
        <time>2023-07-19T09:22:02Z</time>
      </trkpt>
      <trkpt lat="49.83983" lon="2.45976">
        <ele>101.3</ele>
        <time>2023-07-19T09:22:04Z</time>
      </trkpt>
      <trkpt lat="49.83983" lon="2.45975">
        <ele>101.4</ele>
        <time>2023-07-19T09:22:06Z</time>
      </trkpt>
      <trkpt lat="49.83984" lon="2.45973">
        <ele>101.4</ele>
        <time>2023-07-19T09:22:07Z</time>
      </trkpt>
      <trkpt lat="49.83984" lon="2.45972">
        <ele>101.4</ele>
        <time>2023-07-19T09:22:08Z</time>
      </trkpt>
      <trkpt lat="49.83984" lon="2.45971">
        <ele>101.4</ele>
        <time>2023-07-19T09:22:09Z</time>
      </trkpt>
      <trkpt lat="49.83985" lon="2.4597">
        <ele>101.4</ele>
        <time>2023-07-19T09:22:10Z</time>
      </trkpt>
      <trkpt lat="49.83985" lon="2.45969">
        <ele>101.4</ele>
        <time>2023-07-19T09:22:11Z</time>
      </trkpt>
      <trkpt lat="49.83986" lon="2.45966">
        <ele>101.4</ele>
        <time>2023-07-19T09:22:12Z</time>
      </trkpt>
      <trkpt lat="49.83986" lon="2.45965">
        <ele>101.4</ele>
        <time>2023-07-19T09:22:13Z</time>
      </trkpt>
      <trkpt lat="49.83986" lon="2.45964">
        <ele>101.4</ele>
        <time>2023-07-19T09:22:15Z</time>
      </trkpt>
      <trkpt lat="49.83986" lon="2.45963">
        <ele>101.4</ele>
        <time>2023-07-19T09:22:17Z</time>
      </trkpt>
      <trkpt lat="49.83987" lon="2.45962">
        <ele>101.4</ele>
        <time>2023-07-19T09:22:18Z</time>
      </trkpt>
      <trkpt lat="49.83987" lon="2.45961">
        <ele>101.4</ele>
        <time>2023-07-19T09:22:19Z</time>
      </trkpt>
      <trkpt lat="49.83987" lon="2.45959">
        <ele>101.4</ele>
        <time>2023-07-19T09:22:20Z</time>
      </trkpt>
      <trkpt lat="49.83987" lon="2.45958">
        <ele>101.4</ele>
        <time>2023-07-19T09:22:22Z</time>
      </trkpt>
      <trkpt lat="49.83988" lon="2.45957">
        <ele>101.4</ele>
        <time>2023-07-19T09:22:23Z</time>
      </trkpt>
      <trkpt lat="49.83988" lon="2.45956">
        <ele>101.4</ele>
        <time>2023-07-19T09:22:25Z</time>
      </trkpt>
      <trkpt lat="49.83988" lon="2.45955">
        <ele>101.5</ele>
        <time>2023-07-19T09:22:26Z</time>
      </trkpt>
      <trkpt lat="49.83988" lon="2.45954">
        <ele>101.5</ele>
        <time>2023-07-19T09:22:27Z</time>
      </trkpt>
      <trkpt lat="49.83989" lon="2.45952">
        <ele>101.5</ele>
        <time>2023-07-19T09:22:29Z</time>
      </trkpt>
      <trkpt lat="49.83989" lon="2.45951">
        <ele>101.5</ele>
        <time>2023-07-19T09:22:30Z</time>
      </trkpt>
      <trkpt lat="49.8399" lon="2.4595">
        <ele>101.5</ele>
        <time>2023-07-19T09:22:31Z</time>
      </trkpt>
      <trkpt lat="49.8399" lon="2.45948">
        <ele>101.5</ele>
        <time>2023-07-19T09:22:33Z</time>
      </trkpt>
      <trkpt lat="49.8399" lon="2.45947">
        <ele>101.5</ele>
        <time>2023-07-19T09:22:34Z</time>
      </trkpt>
      <trkpt lat="49.83991" lon="2.45946">
        <ele>101.5</ele>
        <time>2023-07-19T09:22:35Z</time>
      </trkpt>
      <trkpt lat="49.83991" lon="2.45943">
        <ele>101.6</ele>
        <time>2023-07-19T09:22:37Z</time>
      </trkpt>
      <trkpt lat="49.83991" lon="2.45941">
        <ele>101.6</ele>
        <time>2023-07-19T09:22:39Z</time>
      </trkpt>
      <trkpt lat="49.83992" lon="2.45939">
        <ele>101.6</ele>
        <time>2023-07-19T09:22:40Z</time>
      </trkpt>
      <trkpt lat="49.83992" lon="2.45937">
        <ele>101.6</ele>
        <time>2023-07-19T09:22:41Z</time>
      </trkpt>
      <trkpt lat="49.83992" lon="2.45935">
        <ele>101.7</ele>
        <time>2023-07-19T09:22:43Z</time>
      </trkpt>
      <trkpt lat="49.83992" lon="2.45934">
        <ele>101.7</ele>
        <time>2023-07-19T09:22:44Z</time>
      </trkpt>
      <trkpt lat="49.83992" lon="2.45931">
        <ele>101.7</ele>
        <time>2023-07-19T09:22:45Z</time>
      </trkpt>
      <trkpt lat="49.83992" lon="2.45929">
        <ele>101.7</ele>
        <time>2023-07-19T09:22:47Z</time>
      </trkpt>
      <trkpt lat="49.83992" lon="2.45926">
        <ele>101.8</ele>
        <time>2023-07-19T09:22:48Z</time>
      </trkpt>
      <trkpt lat="49.83992" lon="2.45924">
        <ele>101.8</ele>
        <time>2023-07-19T09:22:50Z</time>
      </trkpt>
      <trkpt lat="49.83993" lon="2.45923">
        <ele>101.8</ele>
        <time>2023-07-19T09:22:51Z</time>
      </trkpt>
      <trkpt lat="49.83993" lon="2.45921">
        <ele>101.8</ele>
        <time>2023-07-19T09:22:52Z</time>
      </trkpt>
      <trkpt lat="49.83993" lon="2.45919">
        <ele>101.8</ele>
        <time>2023-07-19T09:22:53Z</time>
      </trkpt>
      <trkpt lat="49.83993" lon="2.45917">
        <ele>101.9</ele>
        <time>2023-07-19T09:22:54Z</time>
      </trkpt>
      <trkpt lat="49.83993" lon="2.45915">
        <ele>101.9</ele>
        <time>2023-07-19T09:22:55Z</time>
      </trkpt>
      <trkpt lat="49.83992" lon="2.45913">
        <ele>101.9</ele>
        <time>2023-07-19T09:22:57Z</time>
      </trkpt>
      <trkpt lat="49.83993" lon="2.4591">
        <ele>102</ele>
        <time>2023-07-19T09:22:58Z</time>
      </trkpt>
      <trkpt lat="49.83993" lon="2.45908">
        <ele>102</ele>
        <time>2023-07-19T09:22:59Z</time>
      </trkpt>
      <trkpt lat="49.83993" lon="2.45907">
        <ele>102</ele>
        <time>2023-07-19T09:23:00Z</time>
      </trkpt>
      <trkpt lat="49.83993" lon="2.45904">
        <ele>102</ele>
        <time>2023-07-19T09:23:01Z</time>
      </trkpt>
      <trkpt lat="49.83993" lon="2.45903">
        <ele>102.1</ele>
        <time>2023-07-19T09:23:03Z</time>
      </trkpt>
      <trkpt lat="49.83993" lon="2.45901">
        <ele>102.1</ele>
        <time>2023-07-19T09:23:04Z</time>
      </trkpt>
      <trkpt lat="49.83994" lon="2.45898">
        <ele>102.1</ele>
        <time>2023-07-19T09:23:05Z</time>
      </trkpt>
      <trkpt lat="49.83994" lon="2.45897">
        <ele>102.2</ele>
        <time>2023-07-19T09:23:06Z</time>
      </trkpt>
      <trkpt lat="49.83994" lon="2.45896">
        <ele>102.2</ele>
        <time>2023-07-19T09:23:07Z</time>
      </trkpt>
      <trkpt lat="49.83994" lon="2.45894">
        <ele>102.2</ele>
        <time>2023-07-19T09:23:08Z</time>
      </trkpt>
      <trkpt lat="49.83994" lon="2.45892">
        <ele>102.2</ele>
        <time>2023-07-19T09:23:10Z</time>
      </trkpt>
      <trkpt lat="49.83994" lon="2.45891">
        <ele>102.3</ele>
        <time>2023-07-19T09:23:11Z</time>
      </trkpt>
      <trkpt lat="49.83995" lon="2.45887">
        <ele>102.3</ele>
        <time>2023-07-19T09:23:12Z</time>
      </trkpt>
      <trkpt lat="49.83995" lon="2.45886">
        <ele>102.3</ele>
        <time>2023-07-19T09:23:13Z</time>
      </trkpt>
      <trkpt lat="49.83995" lon="2.45885">
        <ele>102.4</ele>
        <time>2023-07-19T09:23:14Z</time>
      </trkpt>
      <trkpt lat="49.83995" lon="2.45881">
        <ele>102.4</ele>
        <time>2023-07-19T09:23:16Z</time>
      </trkpt>
      <trkpt lat="49.83995" lon="2.45879">
        <ele>102.4</ele>
        <time>2023-07-19T09:23:17Z</time>
      </trkpt>
      <trkpt lat="49.83995" lon="2.45878">
        <ele>102.5</ele>
        <time>2023-07-19T09:23:18Z</time>
      </trkpt>
      <trkpt lat="49.83995" lon="2.45874">
        <ele>102.5</ele>
        <time>2023-07-19T09:23:20Z</time>
      </trkpt>
      <trkpt lat="49.83995" lon="2.45872">
        <ele>102.5</ele>
        <time>2023-07-19T09:23:21Z</time>
      </trkpt>
      <trkpt lat="49.83996" lon="2.45869">
        <ele>102.6</ele>
        <time>2023-07-19T09:23:23Z</time>
      </trkpt>
      <trkpt lat="49.83996" lon="2.45868">
        <ele>102.6</ele>
        <time>2023-07-19T09:23:24Z</time>
      </trkpt>
      <trkpt lat="49.83996" lon="2.45866">
        <ele>102.6</ele>
        <time>2023-07-19T09:23:25Z</time>
      </trkpt>
      <trkpt lat="49.83996" lon="2.45863">
        <ele>102.6</ele>
        <time>2023-07-19T09:23:26Z</time>
      </trkpt>
      <trkpt lat="49.83997" lon="2.45862">
        <ele>102.7</ele>
        <time>2023-07-19T09:23:27Z</time>
      </trkpt>
      <trkpt lat="49.83997" lon="2.45861">
        <ele>102.7</ele>
        <time>2023-07-19T09:23:28Z</time>
      </trkpt>
      <trkpt lat="49.83997" lon="2.45857">
        <ele>102.7</ele>
        <time>2023-07-19T09:23:30Z</time>
      </trkpt>
      <trkpt lat="49.83997" lon="2.45856">
        <ele>102.7</ele>
        <time>2023-07-19T09:23:31Z</time>
      </trkpt>
      <trkpt lat="49.83997" lon="2.45855">
        <ele>102.7</ele>
        <time>2023-07-19T09:23:32Z</time>
      </trkpt>
      <trkpt lat="49.83998" lon="2.45851">
        <ele>102.8</ele>
        <time>2023-07-19T09:23:34Z</time>
      </trkpt>
      <trkpt lat="49.83999" lon="2.45848">
        <ele>102.8</ele>
        <time>2023-07-19T09:23:36Z</time>
      </trkpt>
      <trkpt lat="49.83999" lon="2.45846">
        <ele>102.9</ele>
        <time>2023-07-19T09:23:37Z</time>
      </trkpt>
      <trkpt lat="49.83999" lon="2.45845">
        <ele>102.9</ele>
        <time>2023-07-19T09:23:38Z</time>
      </trkpt>
      <trkpt lat="49.84" lon="2.45842">
        <ele>102.9</ele>
        <time>2023-07-19T09:23:40Z</time>
      </trkpt>
      <trkpt lat="49.84" lon="2.4584">
        <ele>103</ele>
        <time>2023-07-19T09:23:41Z</time>
      </trkpt>
      <trkpt lat="49.84001" lon="2.45838">
        <ele>103</ele>
        <time>2023-07-19T09:23:43Z</time>
      </trkpt>
      <trkpt lat="49.84001" lon="2.45836">
        <ele>103</ele>
        <time>2023-07-19T09:23:45Z</time>
      </trkpt>
      <trkpt lat="49.84001" lon="2.45833">
        <ele>103.1</ele>
        <time>2023-07-19T09:23:46Z</time>
      </trkpt>
      <trkpt lat="49.84002" lon="2.45831">
        <ele>103.1</ele>
        <time>2023-07-19T09:23:47Z</time>
      </trkpt>
      <trkpt lat="49.84002" lon="2.45828">
        <ele>103.1</ele>
        <time>2023-07-19T09:23:48Z</time>
      </trkpt>
      <trkpt lat="49.84003" lon="2.45827">
        <ele>103.1</ele>
        <time>2023-07-19T09:23:50Z</time>
      </trkpt>
      <trkpt lat="49.84003" lon="2.45825">
        <ele>103.2</ele>
        <time>2023-07-19T09:23:51Z</time>
      </trkpt>
      <trkpt lat="49.84003" lon="2.45824">
        <ele>103.2</ele>
        <time>2023-07-19T09:23:52Z</time>
      </trkpt>
      <trkpt lat="49.84003" lon="2.45822">
        <ele>103.2</ele>
        <time>2023-07-19T09:23:53Z</time>
      </trkpt>
      <trkpt lat="49.84003" lon="2.45821">
        <ele>103.2</ele>
        <time>2023-07-19T09:23:54Z</time>
      </trkpt>
      <trkpt lat="49.84004" lon="2.45819">
        <ele>103.2</ele>
        <time>2023-07-19T09:23:56Z</time>
      </trkpt>
      <trkpt lat="49.84004" lon="2.45816">
        <ele>103.3</ele>
        <time>2023-07-19T09:23:57Z</time>
      </trkpt>
      <trkpt lat="49.84005" lon="2.45812">
        <ele>103.3</ele>
        <time>2023-07-19T09:23:59Z</time>
      </trkpt>
      <trkpt lat="49.84005" lon="2.4581">
        <ele>103.3</ele>
        <time>2023-07-19T09:24:01Z</time>
      </trkpt>
      <trkpt lat="49.84006" lon="2.45808">
        <ele>103.4</ele>
        <time>2023-07-19T09:24:03Z</time>
      </trkpt>
      <trkpt lat="49.84006" lon="2.45806">
        <ele>103.4</ele>
        <time>2023-07-19T09:24:04Z</time>
      </trkpt>
      <trkpt lat="49.84007" lon="2.45804">
        <ele>103.4</ele>
        <time>2023-07-19T09:24:06Z</time>
      </trkpt>
      <trkpt lat="49.84007" lon="2.45802">
        <ele>103.5</ele>
        <time>2023-07-19T09:24:07Z</time>
      </trkpt>
      <trkpt lat="49.84008" lon="2.45799">
        <ele>103.5</ele>
        <time>2023-07-19T09:24:08Z</time>
      </trkpt>
      <trkpt lat="49.84008" lon="2.45797">
        <ele>103.5</ele>
        <time>2023-07-19T09:24:10Z</time>
      </trkpt>
      <trkpt lat="49.84008" lon="2.45796">
        <ele>103.5</ele>
        <time>2023-07-19T09:24:11Z</time>
      </trkpt>
      <trkpt lat="49.84008" lon="2.45795">
        <ele>103.5</ele>
        <time>2023-07-19T09:24:13Z</time>
      </trkpt>
      <trkpt lat="49.84009" lon="2.45793">
        <ele>103.6</ele>
        <time>2023-07-19T09:24:14Z</time>
      </trkpt>
      <trkpt lat="49.84009" lon="2.45791">
        <ele>103.6</ele>
        <time>2023-07-19T09:24:15Z</time>
      </trkpt>
      <trkpt lat="49.84009" lon="2.45789">
        <ele>103.6</ele>
        <time>2023-07-19T09:24:16Z</time>
      </trkpt>
      <trkpt lat="49.8401" lon="2.45787">
        <ele>103.6</ele>
        <time>2023-07-19T09:24:17Z</time>
      </trkpt>
      <trkpt lat="49.8401" lon="2.45786">
        <ele>103.6</ele>
        <time>2023-07-19T09:24:19Z</time>
      </trkpt>
      <trkpt lat="49.8401" lon="2.45784">
        <ele>103.7</ele>
        <time>2023-07-19T09:24:20Z</time>
      </trkpt>
      <trkpt lat="49.84011" lon="2.45782">
        <ele>103.7</ele>
        <time>2023-07-19T09:24:21Z</time>
      </trkpt>
      <trkpt lat="49.84011" lon="2.4578">
        <ele>103.7</ele>
        <time>2023-07-19T09:24:22Z</time>
      </trkpt>
      <trkpt lat="49.84011" lon="2.45779">
        <ele>103.7</ele>
        <time>2023-07-19T09:24:23Z</time>
      </trkpt>
      <trkpt lat="49.84012" lon="2.45778">
        <ele>103.7</ele>
        <time>2023-07-19T09:24:24Z</time>
      </trkpt>
      <trkpt lat="49.84012" lon="2.45776">
        <ele>103.8</ele>
        <time>2023-07-19T09:24:26Z</time>
      </trkpt>
      <trkpt lat="49.84012" lon="2.45774">
        <ele>103.8</ele>
        <time>2023-07-19T09:24:27Z</time>
      </trkpt>
      <trkpt lat="49.84012" lon="2.45772">
        <ele>103.8</ele>
        <time>2023-07-19T09:24:28Z</time>
      </trkpt>
      <trkpt lat="49.84013" lon="2.45769">
        <ele>103.8</ele>
        <time>2023-07-19T09:24:29Z</time>
      </trkpt>
      <trkpt lat="49.84013" lon="2.45767">
        <ele>103.8</ele>
        <time>2023-07-19T09:24:30Z</time>
      </trkpt>
      <trkpt lat="49.84013" lon="2.45766">
        <ele>103.9</ele>
        <time>2023-07-19T09:24:32Z</time>
      </trkpt>
      <trkpt lat="49.84014" lon="2.45762">
        <ele>103.9</ele>
        <time>2023-07-19T09:24:33Z</time>
      </trkpt>
      <trkpt lat="49.84014" lon="2.45761">
        <ele>103.9</ele>
        <time>2023-07-19T09:24:34Z</time>
      </trkpt>
      <trkpt lat="49.84014" lon="2.4576">
        <ele>103.9</ele>
        <time>2023-07-19T09:24:35Z</time>
      </trkpt>
      <trkpt lat="49.84015" lon="2.45758">
        <ele>103.9</ele>
        <time>2023-07-19T09:24:36Z</time>
      </trkpt>
      <trkpt lat="49.84015" lon="2.45756">
        <ele>104</ele>
        <time>2023-07-19T09:24:37Z</time>
      </trkpt>
      <trkpt lat="49.84015" lon="2.45754">
        <ele>104</ele>
        <time>2023-07-19T09:24:39Z</time>
      </trkpt>
      <trkpt lat="49.84015" lon="2.45751">
        <ele>104</ele>
        <time>2023-07-19T09:24:40Z</time>
      </trkpt>
      <trkpt lat="49.84016" lon="2.4575">
        <ele>104</ele>
        <time>2023-07-19T09:24:41Z</time>
      </trkpt>
      <trkpt lat="49.84016" lon="2.45748">
        <ele>104.1</ele>
        <time>2023-07-19T09:24:42Z</time>
      </trkpt>
      <trkpt lat="49.84016" lon="2.45747">
        <ele>104.1</ele>
        <time>2023-07-19T09:24:43Z</time>
      </trkpt>
      <trkpt lat="49.84016" lon="2.45745">
        <ele>104.1</ele>
        <time>2023-07-19T09:24:44Z</time>
      </trkpt>
      <trkpt lat="49.84017" lon="2.45744">
        <ele>104.1</ele>
        <time>2023-07-19T09:24:45Z</time>
      </trkpt>
      <trkpt lat="49.84017" lon="2.4574">
        <ele>104.1</ele>
        <time>2023-07-19T09:24:47Z</time>
      </trkpt>
      <trkpt lat="49.84017" lon="2.45739">
        <ele>104.1</ele>
        <time>2023-07-19T09:24:48Z</time>
      </trkpt>
      <trkpt lat="49.84017" lon="2.45738">
        <ele>104.1</ele>
        <time>2023-07-19T09:24:49Z</time>
      </trkpt>
      <trkpt lat="49.84017" lon="2.45736">
        <ele>104.2</ele>
        <time>2023-07-19T09:24:50Z</time>
      </trkpt>
      <trkpt lat="49.84018" lon="2.45734">
        <ele>104.2</ele>
        <time>2023-07-19T09:24:51Z</time>
      </trkpt>
      <trkpt lat="49.84018" lon="2.45733">
        <ele>104.2</ele>
        <time>2023-07-19T09:24:52Z</time>
      </trkpt>
      <trkpt lat="49.84019" lon="2.4573">
        <ele>104.2</ele>
        <time>2023-07-19T09:24:54Z</time>
      </trkpt>
      <trkpt lat="49.84019" lon="2.45728">
        <ele>104.2</ele>
        <time>2023-07-19T09:24:55Z</time>
      </trkpt>
      <trkpt lat="49.84019" lon="2.45727">
        <ele>104.2</ele>
        <time>2023-07-19T09:24:56Z</time>
      </trkpt>
      <trkpt lat="49.84019" lon="2.45725">
        <ele>104.2</ele>
        <time>2023-07-19T09:24:57Z</time>
      </trkpt>
      <trkpt lat="49.84019" lon="2.45723">
        <ele>104.3</ele>
        <time>2023-07-19T09:24:58Z</time>
      </trkpt>
      <trkpt lat="49.84019" lon="2.45721">
        <ele>104.3</ele>
        <time>2023-07-19T09:25:00Z</time>
      </trkpt>
      <trkpt lat="49.84019" lon="2.4572">
        <ele>104.3</ele>
        <time>2023-07-19T09:25:01Z</time>
      </trkpt>
      <trkpt lat="49.8402" lon="2.45718">
        <ele>104.3</ele>
        <time>2023-07-19T09:25:02Z</time>
      </trkpt>
      <trkpt lat="49.8402" lon="2.45716">
        <ele>104.3</ele>
        <time>2023-07-19T09:25:03Z</time>
      </trkpt>
      <trkpt lat="49.8402" lon="2.45714">
        <ele>104.3</ele>
        <time>2023-07-19T09:25:04Z</time>
      </trkpt>
      <trkpt lat="49.84021" lon="2.45713">
        <ele>104.4</ele>
        <time>2023-07-19T09:25:05Z</time>
      </trkpt>
      <trkpt lat="49.84021" lon="2.45711">
        <ele>104.4</ele>
        <time>2023-07-19T09:25:07Z</time>
      </trkpt>
      <trkpt lat="49.84021" lon="2.45708">
        <ele>104.4</ele>
        <time>2023-07-19T09:25:08Z</time>
      </trkpt>
      <trkpt lat="49.84021" lon="2.45706">
        <ele>104.4</ele>
        <time>2023-07-19T09:25:09Z</time>
      </trkpt>
      <trkpt lat="49.84021" lon="2.45703">
        <ele>104.4</ele>
        <time>2023-07-19T09:25:11Z</time>
      </trkpt>
      <trkpt lat="49.84022" lon="2.45701">
        <ele>104.5</ele>
        <time>2023-07-19T09:25:12Z</time>
      </trkpt>
      <trkpt lat="49.84022" lon="2.45698">
        <ele>104.5</ele>
        <time>2023-07-19T09:25:14Z</time>
      </trkpt>
      <trkpt lat="49.84022" lon="2.45697">
        <ele>104.5</ele>
        <time>2023-07-19T09:25:15Z</time>
      </trkpt>
      <trkpt lat="49.84022" lon="2.45695">
        <ele>104.5</ele>
        <time>2023-07-19T09:25:16Z</time>
      </trkpt>
      <trkpt lat="49.84022" lon="2.45692">
        <ele>104.6</ele>
        <time>2023-07-19T09:25:17Z</time>
      </trkpt>
      <trkpt lat="49.84022" lon="2.4569">
        <ele>104.6</ele>
        <time>2023-07-19T09:25:18Z</time>
      </trkpt>
      <trkpt lat="49.84022" lon="2.45689">
        <ele>104.6</ele>
        <time>2023-07-19T09:25:20Z</time>
      </trkpt>
      <trkpt lat="49.84022" lon="2.45687">
        <ele>104.6</ele>
        <time>2023-07-19T09:25:21Z</time>
      </trkpt>
      <trkpt lat="49.84023" lon="2.45685">
        <ele>104.7</ele>
        <time>2023-07-19T09:25:22Z</time>
      </trkpt>
      <trkpt lat="49.84023" lon="2.45684">
        <ele>104.7</ele>
        <time>2023-07-19T09:25:23Z</time>
      </trkpt>
      <trkpt lat="49.84023" lon="2.45682">
        <ele>104.7</ele>
        <time>2023-07-19T09:25:24Z</time>
      </trkpt>
      <trkpt lat="49.84023" lon="2.4568">
        <ele>104.8</ele>
        <time>2023-07-19T09:25:25Z</time>
      </trkpt>
      <trkpt lat="49.84023" lon="2.45678">
        <ele>104.8</ele>
        <time>2023-07-19T09:25:27Z</time>
      </trkpt>
      <trkpt lat="49.84023" lon="2.45675">
        <ele>104.8</ele>
        <time>2023-07-19T09:25:28Z</time>
      </trkpt>
      <trkpt lat="49.84024" lon="2.45673">
        <ele>104.8</ele>
        <time>2023-07-19T09:25:29Z</time>
      </trkpt>
      <trkpt lat="49.84024" lon="2.45672">
        <ele>104.9</ele>
        <time>2023-07-19T09:25:30Z</time>
      </trkpt>
      <trkpt lat="49.84024" lon="2.4567">
        <ele>104.9</ele>
        <time>2023-07-19T09:25:31Z</time>
      </trkpt>
      <trkpt lat="49.84024" lon="2.45669">
        <ele>104.9</ele>
        <time>2023-07-19T09:25:32Z</time>
      </trkpt>
      <trkpt lat="49.84024" lon="2.45667">
        <ele>104.9</ele>
        <time>2023-07-19T09:25:34Z</time>
      </trkpt>
      <trkpt lat="49.84025" lon="2.45665">
        <ele>105</ele>
        <time>2023-07-19T09:25:35Z</time>
      </trkpt>
      <trkpt lat="49.84025" lon="2.45664">
        <ele>105</ele>
        <time>2023-07-19T09:25:36Z</time>
      </trkpt>
      <trkpt lat="49.84025" lon="2.45662">
        <ele>105</ele>
        <time>2023-07-19T09:25:37Z</time>
      </trkpt>
      <trkpt lat="49.84025" lon="2.45661">
        <ele>105</ele>
        <time>2023-07-19T09:25:38Z</time>
      </trkpt>
      <trkpt lat="49.84025" lon="2.45659">
        <ele>105.1</ele>
        <time>2023-07-19T09:25:39Z</time>
      </trkpt>
      <trkpt lat="49.84025" lon="2.45657">
        <ele>105.1</ele>
        <time>2023-07-19T09:25:41Z</time>
      </trkpt>
      <trkpt lat="49.84025" lon="2.45656">
        <ele>105.1</ele>
        <time>2023-07-19T09:25:42Z</time>
      </trkpt>
      <trkpt lat="49.84025" lon="2.45654">
        <ele>105.1</ele>
        <time>2023-07-19T09:25:44Z</time>
      </trkpt>
      <trkpt lat="49.84025" lon="2.45652">
        <ele>105.1</ele>
        <time>2023-07-19T09:25:45Z</time>
      </trkpt>
      <trkpt lat="49.84026" lon="2.45651">
        <ele>105.1</ele>
        <time>2023-07-19T09:25:46Z</time>
      </trkpt>
      <trkpt lat="49.84026" lon="2.4565">
        <ele>105.2</ele>
        <time>2023-07-19T09:25:47Z</time>
      </trkpt>
      <trkpt lat="49.84026" lon="2.45647">
        <ele>105.2</ele>
        <time>2023-07-19T09:25:49Z</time>
      </trkpt>
      <trkpt lat="49.84027" lon="2.45646">
        <ele>105.2</ele>
        <time>2023-07-19T09:25:50Z</time>
      </trkpt>
      <trkpt lat="49.84027" lon="2.45645">
        <ele>105.2</ele>
        <time>2023-07-19T09:25:52Z</time>
      </trkpt>
      <trkpt lat="49.84028" lon="2.45643">
        <ele>105.2</ele>
        <time>2023-07-19T09:25:53Z</time>
      </trkpt>
      <trkpt lat="49.84028" lon="2.45642">
        <ele>105.2</ele>
        <time>2023-07-19T09:25:55Z</time>
      </trkpt>
      <trkpt lat="49.84028" lon="2.45642">
        <ele>105.2</ele>
        <time>2023-07-19T09:25:56Z</time>
      </trkpt>
      <trkpt lat="49.84029" lon="2.45643">
        <ele>105.2</ele>
        <time>2023-07-19T09:25:57Z</time>
      </trkpt>
      <trkpt lat="49.8403" lon="2.45643">
        <ele>105.3</ele>
        <time>2023-07-19T09:25:59Z</time>
      </trkpt>
      <trkpt lat="49.84031" lon="2.45643">
        <ele>105.3</ele>
        <time>2023-07-19T09:26:00Z</time>
      </trkpt>
      <trkpt lat="49.84031" lon="2.45642">
        <ele>105.3</ele>
        <time>2023-07-19T09:26:01Z</time>
      </trkpt>
      <trkpt lat="49.84032" lon="2.4564">
        <ele>105.3</ele>
        <time>2023-07-19T09:26:02Z</time>
      </trkpt>
      <trkpt lat="49.84032" lon="2.45639">
        <ele>105.3</ele>
        <time>2023-07-19T09:26:03Z</time>
      </trkpt>
      <trkpt lat="49.84032" lon="2.45637">
        <ele>105.2</ele>
        <time>2023-07-19T09:26:05Z</time>
      </trkpt>
      <trkpt lat="49.84032" lon="2.45636">
        <ele>105.2</ele>
        <time>2023-07-19T09:26:07Z</time>
      </trkpt>
      <trkpt lat="49.84032" lon="2.45636">
        <ele>105.2</ele>
        <time>2023-07-19T09:26:08Z</time>
      </trkpt>
      <trkpt lat="49.84032" lon="2.45636">
        <ele>105.2</ele>
        <time>2023-07-19T09:26:10Z</time>
      </trkpt>
      <trkpt lat="49.84032" lon="2.45636">
        <ele>105.2</ele>
        <time>2023-07-19T09:26:11Z</time>
      </trkpt>
      <trkpt lat="49.84032" lon="2.45636">
        <ele>105.2</ele>
        <time>2023-07-19T09:26:13Z</time>
      </trkpt>
      <trkpt lat="49.84032" lon="2.45636">
        <ele>105.2</ele>
        <time>2023-07-19T09:26:14Z</time>
      </trkpt>
      <trkpt lat="49.84032" lon="2.45636">
        <ele>105.2</ele>
        <time>2023-07-19T09:26:16Z</time>
      </trkpt>
      <trkpt lat="49.84032" lon="2.45636">
        <ele>105.2</ele>
        <time>2023-07-19T09:26:17Z</time>
      </trkpt>
      <trkpt lat="49.84032" lon="2.45636">
        <ele>105.2</ele>
        <time>2023-07-19T09:26:18Z</time>
      </trkpt>
      <trkpt lat="49.84032" lon="2.45636">
        <ele>105.2</ele>
        <time>2023-07-19T09:26:20Z</time>
      </trkpt>
      <trkpt lat="49.84032" lon="2.45636">
        <ele>105.2</ele>
        <time>2023-07-19T09:26:21Z</time>
      </trkpt>
      <trkpt lat="49.84032" lon="2.45637">
        <ele>105.2</ele>
        <time>2023-07-19T09:26:22Z</time>
      </trkpt>
      <trkpt lat="49.84031" lon="2.45637">
        <ele>105.2</ele>
        <time>2023-07-19T09:26:23Z</time>
      </trkpt>
      <trkpt lat="49.84031" lon="2.45637">
        <ele>105.2</ele>
        <time>2023-07-19T09:26:25Z</time>
      </trkpt>
      <trkpt lat="49.84031" lon="2.45637">
        <ele>105.2</ele>
        <time>2023-07-19T09:26:26Z</time>
      </trkpt>
      <trkpt lat="49.84031" lon="2.45637">
        <ele>105.2</ele>
        <time>2023-07-19T09:26:28Z</time>
      </trkpt>
      <trkpt lat="49.84031" lon="2.45637">
        <ele>105.2</ele>
        <time>2023-07-19T09:26:29Z</time>
      </trkpt>
      <trkpt lat="49.84031" lon="2.45637">
        <ele>105.2</ele>
        <time>2023-07-19T09:26:30Z</time>
      </trkpt>
      <trkpt lat="49.84031" lon="2.45637">
        <ele>105.2</ele>
        <time>2023-07-19T09:26:31Z</time>
      </trkpt>
      <trkpt lat="49.84031" lon="2.45637">
        <ele>105.2</ele>
        <time>2023-07-19T09:26:32Z</time>
      </trkpt>
      <trkpt lat="49.84031" lon="2.45637">
        <ele>105.2</ele>
        <time>2023-07-19T09:26:33Z</time>
      </trkpt>
      <trkpt lat="49.84031" lon="2.45637">
        <ele>105.2</ele>
        <time>2023-07-19T09:26:34Z</time>
      </trkpt>
      <trkpt lat="49.84031" lon="2.45637">
        <ele>105.2</ele>
        <time>2023-07-19T09:26:35Z</time>
      </trkpt>
      <trkpt lat="49.84031" lon="2.45637">
        <ele>105.2</ele>
        <time>2023-07-19T09:26:36Z</time>
      </trkpt>
      <trkpt lat="49.84031" lon="2.45637">
        <ele>105.2</ele>
        <time>2023-07-19T09:26:37Z</time>
      </trkpt>
      <trkpt lat="49.84031" lon="2.45637">
        <ele>105.2</ele>
        <time>2023-07-19T09:26:38Z</time>
      </trkpt>
      <trkpt lat="49.84031" lon="2.45637">
        <ele>105.2</ele>
        <time>2023-07-19T09:26:39Z</time>
      </trkpt>
      <trkpt lat="49.84031" lon="2.45637">
        <ele>105.2</ele>
        <time>2023-07-19T09:26:40Z</time>
      </trkpt>
      <trkpt lat="49.84031" lon="2.45637">
        <ele>105.2</ele>
        <time>2023-07-19T09:26:41Z</time>
      </trkpt>
      <trkpt lat="49.84031" lon="2.45637">
        <ele>105.2</ele>
        <time>2023-07-19T09:26:42Z</time>
      </trkpt>
      <trkpt lat="49.84031" lon="2.45637">
        <ele>105.2</ele>
        <time>2023-07-19T09:26:44Z</time>
      </trkpt>
      <trkpt lat="49.84031" lon="2.45637">
        <ele>105.2</ele>
        <time>2023-07-19T09:26:45Z</time>
      </trkpt>
      <trkpt lat="49.84031" lon="2.45637">
        <ele>105.2</ele>
        <time>2023-07-19T09:26:46Z</time>
      </trkpt>
      <trkpt lat="49.84031" lon="2.45637">
        <ele>105.2</ele>
        <time>2023-07-19T09:26:47Z</time>
      </trkpt>
      <trkpt lat="49.84031" lon="2.45637">
        <ele>105.2</ele>
        <time>2023-07-19T09:26:48Z</time>
      </trkpt>
      <trkpt lat="49.84031" lon="2.45637">
        <ele>105.2</ele>
        <time>2023-07-19T09:26:50Z</time>
      </trkpt>
      <trkpt lat="49.84031" lon="2.45637">
        <ele>105.2</ele>
        <time>2023-07-19T09:26:51Z</time>
      </trkpt>
      <trkpt lat="49.84031" lon="2.45637">
        <ele>105.2</ele>
        <time>2023-07-19T09:26:52Z</time>
      </trkpt>
      <trkpt lat="49.84031" lon="2.45637">
        <ele>105.2</ele>
        <time>2023-07-19T09:26:53Z</time>
      </trkpt>
      <trkpt lat="49.84031" lon="2.45637">
        <ele>105.2</ele>
        <time>2023-07-19T09:26:54Z</time>
      </trkpt>
      <trkpt lat="49.84031" lon="2.45637">
        <ele>105.2</ele>
        <time>2023-07-19T09:26:55Z</time>
      </trkpt>
      <trkpt lat="49.84031" lon="2.45637">
        <ele>105.2</ele>
        <time>2023-07-19T09:26:56Z</time>
      </trkpt>
      <trkpt lat="49.84031" lon="2.45637">
        <ele>105.2</ele>
        <time>2023-07-19T09:26:57Z</time>
      </trkpt>
      <trkpt lat="49.84031" lon="2.45637">
        <ele>105.2</ele>
        <time>2023-07-19T09:26:58Z</time>
      </trkpt>
      <trkpt lat="49.84031" lon="2.45637">
        <ele>105.2</ele>
        <time>2023-07-19T09:26:59Z</time>
      </trkpt>
      <trkpt lat="49.84031" lon="2.45637">
        <ele>105.2</ele>
        <time>2023-07-19T09:27:00Z</time>
      </trkpt>
      <trkpt lat="49.84031" lon="2.45637">
        <ele>105.2</ele>
        <time>2023-07-19T09:27:01Z</time>
      </trkpt>
      <trkpt lat="49.84031" lon="2.45637">
        <ele>105.2</ele>
        <time>2023-07-19T09:27:02Z</time>
      </trkpt>
      <trkpt lat="49.84031" lon="2.45637">
        <ele>105.2</ele>
        <time>2023-07-19T09:27:03Z</time>
      </trkpt>
      <trkpt lat="49.84031" lon="2.45637">
        <ele>105.2</ele>
        <time>2023-07-19T09:27:04Z</time>
      </trkpt>
      <trkpt lat="49.84031" lon="2.45637">
        <ele>105.2</ele>
        <time>2023-07-19T09:27:05Z</time>
      </trkpt>
      <trkpt lat="49.84031" lon="2.45637">
        <ele>105.2</ele>
        <time>2023-07-19T09:27:06Z</time>
      </trkpt>
      <trkpt lat="49.84031" lon="2.45637">
        <ele>105.2</ele>
        <time>2023-07-19T09:27:07Z</time>
      </trkpt>
      <trkpt lat="49.84031" lon="2.45637">
        <ele>105.2</ele>
        <time>2023-07-19T09:27:08Z</time>
      </trkpt>
      <trkpt lat="49.84031" lon="2.45637">
        <ele>105.2</ele>
        <time>2023-07-19T09:27:09Z</time>
      </trkpt>
      <trkpt lat="49.84031" lon="2.45637">
        <ele>105.2</ele>
        <time>2023-07-19T09:27:11Z</time>
      </trkpt>
      <trkpt lat="49.84031" lon="2.45637">
        <ele>105.2</ele>
        <time>2023-07-19T09:27:12Z</time>
      </trkpt>
      <trkpt lat="49.84031" lon="2.45637">
        <ele>105.2</ele>
        <time>2023-07-19T09:27:13Z</time>
      </trkpt>
      <trkpt lat="49.84031" lon="2.45637">
        <ele>105.2</ele>
        <time>2023-07-19T09:27:14Z</time>
      </trkpt>
      <trkpt lat="49.84031" lon="2.4564">
        <ele>105.1</ele>
        <time>2023-07-19T09:27:15Z</time>
      </trkpt>
      <trkpt lat="49.8403" lon="2.45642">
        <ele>105.1</ele>
        <time>2023-07-19T09:27:16Z</time>
      </trkpt>
      <trkpt lat="49.8403" lon="2.45642">
        <ele>105.1</ele>
        <time>2023-07-19T09:27:17Z</time>
      </trkpt>
      <trkpt lat="49.84031" lon="2.45641">
        <ele>105.1</ele>
        <time>2023-07-19T09:27:18Z</time>
      </trkpt>
      <trkpt lat="49.84032" lon="2.4564">
        <ele>105</ele>
        <time>2023-07-19T09:27:20Z</time>
      </trkpt>
      <trkpt lat="49.84032" lon="2.45639">
        <ele>105</ele>
        <time>2023-07-19T09:27:21Z</time>
      </trkpt>
      <trkpt lat="49.84033" lon="2.45639">
        <ele>105</ele>
        <time>2023-07-19T09:27:22Z</time>
      </trkpt>
      <trkpt lat="49.84034" lon="2.45638">
        <ele>105</ele>
        <time>2023-07-19T09:27:24Z</time>
      </trkpt>
      <trkpt lat="49.84035" lon="2.45637">
        <ele>105</ele>
        <time>2023-07-19T09:27:25Z</time>
      </trkpt>
      <trkpt lat="49.84036" lon="2.45636">
        <ele>104.9</ele>
        <time>2023-07-19T09:27:26Z</time>
      </trkpt>
      <trkpt lat="49.84037" lon="2.45635">
        <ele>104.9</ele>
        <time>2023-07-19T09:27:28Z</time>
      </trkpt>
      <trkpt lat="49.84038" lon="2.45634">
        <ele>104.9</ele>
        <time>2023-07-19T09:27:29Z</time>
      </trkpt>
      <trkpt lat="49.84038" lon="2.45634">
        <ele>104.9</ele>
        <time>2023-07-19T09:27:30Z</time>
      </trkpt>
      <trkpt lat="49.84041" lon="2.45634">
        <ele>104.9</ele>
        <time>2023-07-19T09:27:31Z</time>
      </trkpt>
      <trkpt lat="49.84041" lon="2.45634">
        <ele>104.8</ele>
        <time>2023-07-19T09:27:32Z</time>
      </trkpt>
      <trkpt lat="49.84042" lon="2.45635">
        <ele>104.8</ele>
        <time>2023-07-19T09:27:33Z</time>
      </trkpt>
      <trkpt lat="49.84044" lon="2.45636">
        <ele>104.8</ele>
        <time>2023-07-19T09:27:35Z</time>
      </trkpt>
      <trkpt lat="49.84045" lon="2.45637">
        <ele>104.8</ele>
        <time>2023-07-19T09:27:36Z</time>
      </trkpt>
      <trkpt lat="49.84045" lon="2.45638">
        <ele>104.8</ele>
        <time>2023-07-19T09:27:38Z</time>
      </trkpt>
      <trkpt lat="49.84046" lon="2.45639">
        <ele>104.8</ele>
        <time>2023-07-19T09:27:39Z</time>
      </trkpt>
      <trkpt lat="49.84047" lon="2.4564">
        <ele>104.8</ele>
        <time>2023-07-19T09:27:40Z</time>
      </trkpt>
      <trkpt lat="49.84048" lon="2.45641">
        <ele>104.8</ele>
        <time>2023-07-19T09:27:42Z</time>
      </trkpt>
      <trkpt lat="49.84049" lon="2.45641">
        <ele>104.7</ele>
        <time>2023-07-19T09:27:43Z</time>
      </trkpt>
      <trkpt lat="49.8405" lon="2.45641">
        <ele>104.7</ele>
        <time>2023-07-19T09:27:44Z</time>
      </trkpt>
      <trkpt lat="49.84051" lon="2.45641">
        <ele>104.7</ele>
        <time>2023-07-19T09:27:45Z</time>
      </trkpt>
      <trkpt lat="49.84052" lon="2.45641">
        <ele>104.7</ele>
        <time>2023-07-19T09:27:46Z</time>
      </trkpt>
      <trkpt lat="49.84054" lon="2.45642">
        <ele>104.7</ele>
        <time>2023-07-19T09:27:47Z</time>
      </trkpt>
      <trkpt lat="49.84055" lon="2.45642">
        <ele>104.7</ele>
        <time>2023-07-19T09:27:48Z</time>
      </trkpt>
      <trkpt lat="49.84055" lon="2.45642">
        <ele>104.7</ele>
        <time>2023-07-19T09:27:49Z</time>
      </trkpt>
      <trkpt lat="49.84056" lon="2.45642">
        <ele>104.7</ele>
        <time>2023-07-19T09:27:50Z</time>
      </trkpt>
      <trkpt lat="49.84058" lon="2.45642">
        <ele>104.7</ele>
        <time>2023-07-19T09:27:51Z</time>
      </trkpt>
      <trkpt lat="49.8406" lon="2.45642">
        <ele>104.7</ele>
        <time>2023-07-19T09:27:53Z</time>
      </trkpt>
      <trkpt lat="49.84061" lon="2.45642">
        <ele>104.7</ele>
        <time>2023-07-19T09:27:54Z</time>
      </trkpt>
      <trkpt lat="49.84063" lon="2.45643">
        <ele>104.7</ele>
        <time>2023-07-19T09:27:56Z</time>
      </trkpt>
      <trkpt lat="49.84064" lon="2.45643">
        <ele>104.7</ele>
        <time>2023-07-19T09:27:57Z</time>
      </trkpt>
      <trkpt lat="49.84066" lon="2.45643">
        <ele>104.7</ele>
        <time>2023-07-19T09:27:58Z</time>
      </trkpt>
      <trkpt lat="49.84067" lon="2.45644">
        <ele>104.7</ele>
        <time>2023-07-19T09:27:59Z</time>
      </trkpt>
      <trkpt lat="49.84068" lon="2.45644">
        <ele>104.7</ele>
        <time>2023-07-19T09:28:00Z</time>
      </trkpt>
      <trkpt lat="49.84069" lon="2.45644">
        <ele>104.7</ele>
        <time>2023-07-19T09:28:01Z</time>
      </trkpt>
      <trkpt lat="49.8407" lon="2.45644">
        <ele>104.6</ele>
        <time>2023-07-19T09:28:03Z</time>
      </trkpt>
      <trkpt lat="49.84071" lon="2.45644">
        <ele>104.6</ele>
        <time>2023-07-19T09:28:04Z</time>
      </trkpt>
      <trkpt lat="49.84072" lon="2.45645">
        <ele>104.6</ele>
        <time>2023-07-19T09:28:05Z</time>
      </trkpt>
      <trkpt lat="49.84074" lon="2.45645">
        <ele>104.6</ele>
        <time>2023-07-19T09:28:06Z</time>
      </trkpt>
      <trkpt lat="49.84075" lon="2.45645">
        <ele>104.6</ele>
        <time>2023-07-19T09:28:07Z</time>
      </trkpt>
      <trkpt lat="49.84076" lon="2.45645">
        <ele>104.7</ele>
        <time>2023-07-19T09:28:08Z</time>
      </trkpt>
      <trkpt lat="49.84077" lon="2.45645">
        <ele>104.7</ele>
        <time>2023-07-19T09:28:09Z</time>
      </trkpt>
      <trkpt lat="49.84079" lon="2.45645">
        <ele>104.7</ele>
        <time>2023-07-19T09:28:11Z</time>
      </trkpt>
      <trkpt lat="49.8408" lon="2.45645">
        <ele>104.7</ele>
        <time>2023-07-19T09:28:12Z</time>
      </trkpt>
      <trkpt lat="49.84081" lon="2.45645">
        <ele>104.7</ele>
        <time>2023-07-19T09:28:13Z</time>
      </trkpt>
      <trkpt lat="49.84082" lon="2.45645">
        <ele>104.7</ele>
        <time>2023-07-19T09:28:14Z</time>
      </trkpt>
      <trkpt lat="49.84083" lon="2.45645">
        <ele>104.7</ele>
        <time>2023-07-19T09:28:15Z</time>
      </trkpt>
      <trkpt lat="49.84085" lon="2.45645">
        <ele>104.7</ele>
        <time>2023-07-19T09:28:16Z</time>
      </trkpt>
      <trkpt lat="49.84086" lon="2.45645">
        <ele>104.8</ele>
        <time>2023-07-19T09:28:18Z</time>
      </trkpt>
      <trkpt lat="49.84088" lon="2.45645">
        <ele>104.8</ele>
        <time>2023-07-19T09:28:19Z</time>
      </trkpt>
      <trkpt lat="49.84089" lon="2.45645">
        <ele>104.8</ele>
        <time>2023-07-19T09:28:20Z</time>
      </trkpt>
      <trkpt lat="49.84091" lon="2.45645">
        <ele>104.9</ele>
        <time>2023-07-19T09:28:21Z</time>
      </trkpt>
      <trkpt lat="49.84092" lon="2.45645">
        <ele>104.9</ele>
        <time>2023-07-19T09:28:22Z</time>
      </trkpt>
      <trkpt lat="49.84093" lon="2.45645">
        <ele>104.9</ele>
        <time>2023-07-19T09:28:23Z</time>
      </trkpt>
      <trkpt lat="49.84094" lon="2.45645">
        <ele>104.9</ele>
        <time>2023-07-19T09:28:24Z</time>
      </trkpt>
      <trkpt lat="49.84095" lon="2.45645">
        <ele>105</ele>
        <time>2023-07-19T09:28:26Z</time>
      </trkpt>
      <trkpt lat="49.84096" lon="2.45645">
        <ele>105</ele>
        <time>2023-07-19T09:28:27Z</time>
      </trkpt>
      <trkpt lat="49.84098" lon="2.45645">
        <ele>105</ele>
        <time>2023-07-19T09:28:28Z</time>
      </trkpt>
      <trkpt lat="49.84099" lon="2.45645">
        <ele>105.1</ele>
        <time>2023-07-19T09:28:29Z</time>
      </trkpt>
      <trkpt lat="49.841" lon="2.45645">
        <ele>105.1</ele>
        <time>2023-07-19T09:28:30Z</time>
      </trkpt>
      <trkpt lat="49.84101" lon="2.45646">
        <ele>105.1</ele>
        <time>2023-07-19T09:28:31Z</time>
      </trkpt>
      <trkpt lat="49.84102" lon="2.45646">
        <ele>105.1</ele>
        <time>2023-07-19T09:28:32Z</time>
      </trkpt>
      <trkpt lat="49.84103" lon="2.45646">
        <ele>105.2</ele>
        <time>2023-07-19T09:28:34Z</time>
      </trkpt>
      <trkpt lat="49.84105" lon="2.45646">
        <ele>105.2</ele>
        <time>2023-07-19T09:28:35Z</time>
      </trkpt>
      <trkpt lat="49.84106" lon="2.45646">
        <ele>105.2</ele>
        <time>2023-07-19T09:28:36Z</time>
      </trkpt>
      <trkpt lat="49.84107" lon="2.45646">
        <ele>105.2</ele>
        <time>2023-07-19T09:28:37Z</time>
      </trkpt>
      <trkpt lat="49.84108" lon="2.45646">
        <ele>105.2</ele>
        <time>2023-07-19T09:28:38Z</time>
      </trkpt>
      <trkpt lat="49.84109" lon="2.45647">
        <ele>105.3</ele>
        <time>2023-07-19T09:28:39Z</time>
      </trkpt>
      <trkpt lat="49.8411" lon="2.45647">
        <ele>105.3</ele>
        <time>2023-07-19T09:28:40Z</time>
      </trkpt>
      <trkpt lat="49.84112" lon="2.45647">
        <ele>105.3</ele>
        <time>2023-07-19T09:28:41Z</time>
      </trkpt>
      <trkpt lat="49.84114" lon="2.45647">
        <ele>105.3</ele>
        <time>2023-07-19T09:28:43Z</time>
      </trkpt>
      <trkpt lat="49.84116" lon="2.45647">
        <ele>105.3</ele>
        <time>2023-07-19T09:28:44Z</time>
      </trkpt>
      <trkpt lat="49.84117" lon="2.45647">
        <ele>105.3</ele>
        <time>2023-07-19T09:28:46Z</time>
      </trkpt>
      <trkpt lat="49.84118" lon="2.45648">
        <ele>105.3</ele>
        <time>2023-07-19T09:28:47Z</time>
      </trkpt>
      <trkpt lat="49.8412" lon="2.45648">
        <ele>105.3</ele>
        <time>2023-07-19T09:28:48Z</time>
      </trkpt>
      <trkpt lat="49.84121" lon="2.45648">
        <ele>105.3</ele>
        <time>2023-07-19T09:28:49Z</time>
      </trkpt>
      <trkpt lat="49.84122" lon="2.45648">
        <ele>105.3</ele>
        <time>2023-07-19T09:28:50Z</time>
      </trkpt>
      <trkpt lat="49.84123" lon="2.45648">
        <ele>105.3</ele>
        <time>2023-07-19T09:28:52Z</time>
      </trkpt>
      <trkpt lat="49.84124" lon="2.45648">
        <ele>105.3</ele>
        <time>2023-07-19T09:28:53Z</time>
      </trkpt>
      <trkpt lat="49.84125" lon="2.45649">
        <ele>105.3</ele>
        <time>2023-07-19T09:28:54Z</time>
      </trkpt>
      <trkpt lat="49.84126" lon="2.45649">
        <ele>105.3</ele>
        <time>2023-07-19T09:28:55Z</time>
      </trkpt>
      <trkpt lat="49.84127" lon="2.45649">
        <ele>105.3</ele>
        <time>2023-07-19T09:28:56Z</time>
      </trkpt>
      <trkpt lat="49.84129" lon="2.45649">
        <ele>105.3</ele>
        <time>2023-07-19T09:28:57Z</time>
      </trkpt>
      <trkpt lat="49.8413" lon="2.45649">
        <ele>105.3</ele>
        <time>2023-07-19T09:28:58Z</time>
      </trkpt>
      <trkpt lat="49.84131" lon="2.4565">
        <ele>105.3</ele>
        <time>2023-07-19T09:29:00Z</time>
      </trkpt>
      <trkpt lat="49.84133" lon="2.4565">
        <ele>105.2</ele>
        <time>2023-07-19T09:29:01Z</time>
      </trkpt>
      <trkpt lat="49.84134" lon="2.4565">
        <ele>105.2</ele>
        <time>2023-07-19T09:29:02Z</time>
      </trkpt>
      <trkpt lat="49.84136" lon="2.4565">
        <ele>105.2</ele>
        <time>2023-07-19T09:29:03Z</time>
      </trkpt>
      <trkpt lat="49.84137" lon="2.4565">
        <ele>105.2</ele>
        <time>2023-07-19T09:29:04Z</time>
      </trkpt>
      <trkpt lat="49.84138" lon="2.4565">
        <ele>105.2</ele>
        <time>2023-07-19T09:29:05Z</time>
      </trkpt>
      <trkpt lat="49.84139" lon="2.4565">
        <ele>105.2</ele>
        <time>2023-07-19T09:29:07Z</time>
      </trkpt>
      <trkpt lat="49.8414" lon="2.45651">
        <ele>105.2</ele>
        <time>2023-07-19T09:29:08Z</time>
      </trkpt>
      <trkpt lat="49.84142" lon="2.45651">
        <ele>105.2</ele>
        <time>2023-07-19T09:29:10Z</time>
      </trkpt>
      <trkpt lat="49.84144" lon="2.45652">
        <ele>105.2</ele>
        <time>2023-07-19T09:29:11Z</time>
      </trkpt>
      <trkpt lat="49.84145" lon="2.45652">
        <ele>105.2</ele>
        <time>2023-07-19T09:29:12Z</time>
      </trkpt>
      <trkpt lat="49.84145" lon="2.45652">
        <ele>105.2</ele>
        <time>2023-07-19T09:29:13Z</time>
      </trkpt>
      <trkpt lat="49.84147" lon="2.45652">
        <ele>105.2</ele>
        <time>2023-07-19T09:29:15Z</time>
      </trkpt>
      <trkpt lat="49.84148" lon="2.45652">
        <ele>105.2</ele>
        <time>2023-07-19T09:29:16Z</time>
      </trkpt>
      <trkpt lat="49.84149" lon="2.45652">
        <ele>105.1</ele>
        <time>2023-07-19T09:29:17Z</time>
      </trkpt>
      <trkpt lat="49.8415" lon="2.45652">
        <ele>105.1</ele>
        <time>2023-07-19T09:29:18Z</time>
      </trkpt>
      <trkpt lat="49.84151" lon="2.45653">
        <ele>105.1</ele>
        <time>2023-07-19T09:29:19Z</time>
      </trkpt>
      <trkpt lat="49.84154" lon="2.45654">
        <ele>105.1</ele>
        <time>2023-07-19T09:29:21Z</time>
      </trkpt>
      <trkpt lat="49.84155" lon="2.45654">
        <ele>105.1</ele>
        <time>2023-07-19T09:29:22Z</time>
      </trkpt>
      <trkpt lat="49.84157" lon="2.45655">
        <ele>105.1</ele>
        <time>2023-07-19T09:29:24Z</time>
      </trkpt>
      <trkpt lat="49.84159" lon="2.45655">
        <ele>105.1</ele>
        <time>2023-07-19T09:29:25Z</time>
      </trkpt>
      <trkpt lat="49.8416" lon="2.45656">
        <ele>105.1</ele>
        <time>2023-07-19T09:29:27Z</time>
      </trkpt>
      <trkpt lat="49.84161" lon="2.45656">
        <ele>105.1</ele>
        <time>2023-07-19T09:29:28Z</time>
      </trkpt>
      <trkpt lat="49.84163" lon="2.45656">
        <ele>105.1</ele>
        <time>2023-07-19T09:29:29Z</time>
      </trkpt>
      <trkpt lat="49.84164" lon="2.45656">
        <ele>105.1</ele>
        <time>2023-07-19T09:29:30Z</time>
      </trkpt>
      <trkpt lat="49.84165" lon="2.45656">
        <ele>105</ele>
        <time>2023-07-19T09:29:31Z</time>
      </trkpt>
      <trkpt lat="49.84166" lon="2.45657">
        <ele>105</ele>
        <time>2023-07-19T09:29:32Z</time>
      </trkpt>
      <trkpt lat="49.84167" lon="2.45657">
        <ele>105</ele>
        <time>2023-07-19T09:29:34Z</time>
      </trkpt>
      <trkpt lat="49.84169" lon="2.45658">
        <ele>105</ele>
        <time>2023-07-19T09:29:35Z</time>
      </trkpt>
      <trkpt lat="49.8417" lon="2.45658">
        <ele>105</ele>
        <time>2023-07-19T09:29:36Z</time>
      </trkpt>
      <trkpt lat="49.84174" lon="2.45659">
        <ele>105</ele>
        <time>2023-07-19T09:29:37Z</time>
      </trkpt>
      <trkpt lat="49.84175" lon="2.45659">
        <ele>105</ele>
        <time>2023-07-19T09:29:39Z</time>
      </trkpt>
      <trkpt lat="49.84176" lon="2.45659">
        <ele>104.9</ele>
        <time>2023-07-19T09:29:40Z</time>
      </trkpt>
      <trkpt lat="49.84178" lon="2.4566">
        <ele>104.9</ele>
        <time>2023-07-19T09:29:41Z</time>
      </trkpt>
      <trkpt lat="49.84179" lon="2.4566">
        <ele>104.9</ele>
        <time>2023-07-19T09:29:43Z</time>
      </trkpt>
      <trkpt lat="49.8418" lon="2.4566">
        <ele>104.9</ele>
        <time>2023-07-19T09:29:44Z</time>
      </trkpt>
      <trkpt lat="49.84181" lon="2.45661">
        <ele>104.9</ele>
        <time>2023-07-19T09:29:45Z</time>
      </trkpt>
      <trkpt lat="49.84183" lon="2.45661">
        <ele>104.9</ele>
        <time>2023-07-19T09:29:46Z</time>
      </trkpt>
      <trkpt lat="49.84184" lon="2.45661">
        <ele>104.9</ele>
        <time>2023-07-19T09:29:47Z</time>
      </trkpt>
      <trkpt lat="49.84185" lon="2.45662">
        <ele>105</ele>
        <time>2023-07-19T09:29:48Z</time>
      </trkpt>
      <trkpt lat="49.84187" lon="2.45662">
        <ele>105</ele>
        <time>2023-07-19T09:29:49Z</time>
      </trkpt>
      <trkpt lat="49.84188" lon="2.45662">
        <ele>105</ele>
        <time>2023-07-19T09:29:50Z</time>
      </trkpt>
      <trkpt lat="49.8419" lon="2.45662">
        <ele>105</ele>
        <time>2023-07-19T09:29:52Z</time>
      </trkpt>
      <trkpt lat="49.84191" lon="2.45663">
        <ele>105</ele>
        <time>2023-07-19T09:29:54Z</time>
      </trkpt>
      <trkpt lat="49.84192" lon="2.45663">
        <ele>105</ele>
        <time>2023-07-19T09:29:55Z</time>
      </trkpt>
      <trkpt lat="49.84194" lon="2.45663">
        <ele>105.1</ele>
        <time>2023-07-19T09:29:56Z</time>
      </trkpt>
      <trkpt lat="49.84196" lon="2.45663">
        <ele>105.1</ele>
        <time>2023-07-19T09:29:58Z</time>
      </trkpt>
      <trkpt lat="49.84197" lon="2.45663">
        <ele>105.1</ele>
        <time>2023-07-19T09:29:59Z</time>
      </trkpt>
      <trkpt lat="49.84197" lon="2.45663">
        <ele>105.1</ele>
        <time>2023-07-19T09:30:00Z</time>
      </trkpt>
      <trkpt lat="49.84199" lon="2.45663">
        <ele>105.1</ele>
        <time>2023-07-19T09:30:01Z</time>
      </trkpt>
      <trkpt lat="49.842" lon="2.45663">
        <ele>105.2</ele>
        <time>2023-07-19T09:30:02Z</time>
      </trkpt>
      <trkpt lat="49.84203" lon="2.45664">
        <ele>105.2</ele>
        <time>2023-07-19T09:30:04Z</time>
      </trkpt>
      <trkpt lat="49.84206" lon="2.45664">
        <ele>105.3</ele>
        <time>2023-07-19T09:30:07Z</time>
      </trkpt>
      <trkpt lat="49.84207" lon="2.45664">
        <ele>105.3</ele>
        <time>2023-07-19T09:30:08Z</time>
      </trkpt>
      <trkpt lat="49.84209" lon="2.45665">
        <ele>105.3</ele>
        <time>2023-07-19T09:30:09Z</time>
      </trkpt>
      <trkpt lat="49.84211" lon="2.45665">
        <ele>105.3</ele>
        <time>2023-07-19T09:30:11Z</time>
      </trkpt>
      <trkpt lat="49.84211" lon="2.45665">
        <ele>105.3</ele>
        <time>2023-07-19T09:30:12Z</time>
      </trkpt>
      <trkpt lat="49.84212" lon="2.45665">
        <ele>105.3</ele>
        <time>2023-07-19T09:30:13Z</time>
      </trkpt>
      <trkpt lat="49.84213" lon="2.45665">
        <ele>105.3</ele>
        <time>2023-07-19T09:30:14Z</time>
      </trkpt>
      <trkpt lat="49.84214" lon="2.45665">
        <ele>105.3</ele>
        <time>2023-07-19T09:30:15Z</time>
      </trkpt>
      <trkpt lat="49.84216" lon="2.45665">
        <ele>105.3</ele>
        <time>2023-07-19T09:30:16Z</time>
      </trkpt>
      <trkpt lat="49.84217" lon="2.45665">
        <ele>105.3</ele>
        <time>2023-07-19T09:30:18Z</time>
      </trkpt>
      <trkpt lat="49.84218" lon="2.45665">
        <ele>105.3</ele>
        <time>2023-07-19T09:30:19Z</time>
      </trkpt>
      <trkpt lat="49.84219" lon="2.45664">
        <ele>105.3</ele>
        <time>2023-07-19T09:30:20Z</time>
      </trkpt>
      <trkpt lat="49.84221" lon="2.45664">
        <ele>105.3</ele>
        <time>2023-07-19T09:30:22Z</time>
      </trkpt>
      <trkpt lat="49.84223" lon="2.45665">
        <ele>105.2</ele>
        <time>2023-07-19T09:30:23Z</time>
      </trkpt>
      <trkpt lat="49.84224" lon="2.45665">
        <ele>105.2</ele>
        <time>2023-07-19T09:30:24Z</time>
      </trkpt>
      <trkpt lat="49.84225" lon="2.45665">
        <ele>105.2</ele>
        <time>2023-07-19T09:30:26Z</time>
      </trkpt>
      <trkpt lat="49.84226" lon="2.45664">
        <ele>105.2</ele>
        <time>2023-07-19T09:30:27Z</time>
      </trkpt>
      <trkpt lat="49.84228" lon="2.45664">
        <ele>105.2</ele>
        <time>2023-07-19T09:30:28Z</time>
      </trkpt>
      <trkpt lat="49.8423" lon="2.45664">
        <ele>105.2</ele>
        <time>2023-07-19T09:30:30Z</time>
      </trkpt>
      <trkpt lat="49.84232" lon="2.45664">
        <ele>105.2</ele>
        <time>2023-07-19T09:30:31Z</time>
      </trkpt>
      <trkpt lat="49.84232" lon="2.45664">
        <ele>105.2</ele>
        <time>2023-07-19T09:30:32Z</time>
      </trkpt>
      <trkpt lat="49.84233" lon="2.45664">
        <ele>105.2</ele>
        <time>2023-07-19T09:30:33Z</time>
      </trkpt>
      <trkpt lat="49.84234" lon="2.45664">
        <ele>105.2</ele>
        <time>2023-07-19T09:30:35Z</time>
      </trkpt>
      <trkpt lat="49.84235" lon="2.45665">
        <ele>105.2</ele>
        <time>2023-07-19T09:30:36Z</time>
      </trkpt>
      <trkpt lat="49.84237" lon="2.45665">
        <ele>105.2</ele>
        <time>2023-07-19T09:30:37Z</time>
      </trkpt>
      <trkpt lat="49.84238" lon="2.45665">
        <ele>105.2</ele>
        <time>2023-07-19T09:30:38Z</time>
      </trkpt>
      <trkpt lat="49.84239" lon="2.45665">
        <ele>105.3</ele>
        <time>2023-07-19T09:30:39Z</time>
      </trkpt>
      <trkpt lat="49.8424" lon="2.45666">
        <ele>105.3</ele>
        <time>2023-07-19T09:30:41Z</time>
      </trkpt>
      <trkpt lat="49.84241" lon="2.45667">
        <ele>105.3</ele>
        <time>2023-07-19T09:30:42Z</time>
      </trkpt>
      <trkpt lat="49.84242" lon="2.45668">
        <ele>105.3</ele>
        <time>2023-07-19T09:30:43Z</time>
      </trkpt>
      <trkpt lat="49.84243" lon="2.45668">
        <ele>105.3</ele>
        <time>2023-07-19T09:30:44Z</time>
      </trkpt>
      <trkpt lat="49.84245" lon="2.45669">
        <ele>105.3</ele>
        <time>2023-07-19T09:30:46Z</time>
      </trkpt>
      <trkpt lat="49.84246" lon="2.45669">
        <ele>105.3</ele>
        <time>2023-07-19T09:30:48Z</time>
      </trkpt>
      <trkpt lat="49.84247" lon="2.4567">
        <ele>105.3</ele>
        <time>2023-07-19T09:30:49Z</time>
      </trkpt>
      <trkpt lat="49.84248" lon="2.4567">
        <ele>105.3</ele>
        <time>2023-07-19T09:30:50Z</time>
      </trkpt>
      <trkpt lat="49.84249" lon="2.45671">
        <ele>105.3</ele>
        <time>2023-07-19T09:30:51Z</time>
      </trkpt>
      <trkpt lat="49.84251" lon="2.45672">
        <ele>105.3</ele>
        <time>2023-07-19T09:30:52Z</time>
      </trkpt>
      <trkpt lat="49.84252" lon="2.45673">
        <ele>105.4</ele>
        <time>2023-07-19T09:30:53Z</time>
      </trkpt>
      <trkpt lat="49.84253" lon="2.45674">
        <ele>105.4</ele>
        <time>2023-07-19T09:30:55Z</time>
      </trkpt>
      <trkpt lat="49.84254" lon="2.45675">
        <ele>105.4</ele>
        <time>2023-07-19T09:30:56Z</time>
      </trkpt>
      <trkpt lat="49.84254" lon="2.45676">
        <ele>105.4</ele>
        <time>2023-07-19T09:30:57Z</time>
      </trkpt>
      <trkpt lat="49.84255" lon="2.45677">
        <ele>105.4</ele>
        <time>2023-07-19T09:30:58Z</time>
      </trkpt>
      <trkpt lat="49.84257" lon="2.45679">
        <ele>105.4</ele>
        <time>2023-07-19T09:30:59Z</time>
      </trkpt>
      <trkpt lat="49.84258" lon="2.4568">
        <ele>105.5</ele>
        <time>2023-07-19T09:31:01Z</time>
      </trkpt>
      <trkpt lat="49.84259" lon="2.45681">
        <ele>105.5</ele>
        <time>2023-07-19T09:31:02Z</time>
      </trkpt>
      <trkpt lat="49.8426" lon="2.45682">
        <ele>105.5</ele>
        <time>2023-07-19T09:31:03Z</time>
      </trkpt>
      <trkpt lat="49.8426" lon="2.45683">
        <ele>105.5</ele>
        <time>2023-07-19T09:31:04Z</time>
      </trkpt>
      <trkpt lat="49.84261" lon="2.45684">
        <ele>105.5</ele>
        <time>2023-07-19T09:31:05Z</time>
      </trkpt>
      <trkpt lat="49.84262" lon="2.45684">
        <ele>105.6</ele>
        <time>2023-07-19T09:31:06Z</time>
      </trkpt>
      <trkpt lat="49.84264" lon="2.45685">
        <ele>105.6</ele>
        <time>2023-07-19T09:31:08Z</time>
      </trkpt>
      <trkpt lat="49.84265" lon="2.45685">
        <ele>105.6</ele>
        <time>2023-07-19T09:31:09Z</time>
      </trkpt>
      <trkpt lat="49.84266" lon="2.45685">
        <ele>105.7</ele>
        <time>2023-07-19T09:31:10Z</time>
      </trkpt>
      <trkpt lat="49.84267" lon="2.45686">
        <ele>105.7</ele>
        <time>2023-07-19T09:31:11Z</time>
      </trkpt>
      <trkpt lat="49.84269" lon="2.45686">
        <ele>105.7</ele>
        <time>2023-07-19T09:31:12Z</time>
      </trkpt>
      <trkpt lat="49.8427" lon="2.45687">
        <ele>105.7</ele>
        <time>2023-07-19T09:31:14Z</time>
      </trkpt>
      <trkpt lat="49.84271" lon="2.45687">
        <ele>105.8</ele>
        <time>2023-07-19T09:31:15Z</time>
      </trkpt>
      <trkpt lat="49.84272" lon="2.45687">
        <ele>105.8</ele>
        <time>2023-07-19T09:31:16Z</time>
      </trkpt>
      <trkpt lat="49.84274" lon="2.45687">
        <ele>105.8</ele>
        <time>2023-07-19T09:31:17Z</time>
      </trkpt>
      <trkpt lat="49.84275" lon="2.45687">
        <ele>105.8</ele>
        <time>2023-07-19T09:31:18Z</time>
      </trkpt>
      <trkpt lat="49.84276" lon="2.45687">
        <ele>105.9</ele>
        <time>2023-07-19T09:31:19Z</time>
      </trkpt>
      <trkpt lat="49.84277" lon="2.45686">
        <ele>105.9</ele>
        <time>2023-07-19T09:31:21Z</time>
      </trkpt>
      <trkpt lat="49.84278" lon="2.45686">
        <ele>105.9</ele>
        <time>2023-07-19T09:31:22Z</time>
      </trkpt>
      <trkpt lat="49.84279" lon="2.45685">
        <ele>105.9</ele>
        <time>2023-07-19T09:31:23Z</time>
      </trkpt>
      <trkpt lat="49.84279" lon="2.45685">
        <ele>105.9</ele>
        <time>2023-07-19T09:31:24Z</time>
      </trkpt>
      <trkpt lat="49.8428" lon="2.45684">
        <ele>105.9</ele>
        <time>2023-07-19T09:31:25Z</time>
      </trkpt>
      <trkpt lat="49.84282" lon="2.45684">
        <ele>106</ele>
        <time>2023-07-19T09:31:26Z</time>
      </trkpt>
      <trkpt lat="49.84283" lon="2.45683">
        <ele>106</ele>
        <time>2023-07-19T09:31:27Z</time>
      </trkpt>
      <trkpt lat="49.84284" lon="2.45683">
        <ele>106</ele>
        <time>2023-07-19T09:31:29Z</time>
      </trkpt>
      <trkpt lat="49.84286" lon="2.45683">
        <ele>106</ele>
        <time>2023-07-19T09:31:30Z</time>
      </trkpt>
      <trkpt lat="49.84287" lon="2.45682">
        <ele>106</ele>
        <time>2023-07-19T09:31:31Z</time>
      </trkpt>
      <trkpt lat="49.84289" lon="2.45682">
        <ele>106.1</ele>
        <time>2023-07-19T09:31:33Z</time>
      </trkpt>
      <trkpt lat="49.84291" lon="2.45682">
        <ele>106.1</ele>
        <time>2023-07-19T09:31:34Z</time>
      </trkpt>
      <trkpt lat="49.84292" lon="2.45682">
        <ele>106.1</ele>
        <time>2023-07-19T09:31:36Z</time>
      </trkpt>
      <trkpt lat="49.84294" lon="2.45681">
        <ele>106.1</ele>
        <time>2023-07-19T09:31:37Z</time>
      </trkpt>
      <trkpt lat="49.84295" lon="2.45681">
        <ele>106.2</ele>
        <time>2023-07-19T09:31:38Z</time>
      </trkpt>
      <trkpt lat="49.84297" lon="2.45681">
        <ele>106.2</ele>
        <time>2023-07-19T09:31:39Z</time>
      </trkpt>
      <trkpt lat="49.84298" lon="2.45681">
        <ele>106.2</ele>
        <time>2023-07-19T09:31:40Z</time>
      </trkpt>
      <trkpt lat="49.84299" lon="2.45681">
        <ele>106.2</ele>
        <time>2023-07-19T09:31:41Z</time>
      </trkpt>
      <trkpt lat="49.843" lon="2.45681">
        <ele>106.2</ele>
        <time>2023-07-19T09:31:43Z</time>
      </trkpt>
      <trkpt lat="49.84301" lon="2.45681">
        <ele>106.2</ele>
        <time>2023-07-19T09:31:44Z</time>
      </trkpt>
      <trkpt lat="49.84304" lon="2.4568">
        <ele>106.3</ele>
        <time>2023-07-19T09:31:45Z</time>
      </trkpt>
      <trkpt lat="49.84304" lon="2.4568">
        <ele>106.3</ele>
        <time>2023-07-19T09:31:46Z</time>
      </trkpt>
      <trkpt lat="49.84305" lon="2.4568">
        <ele>106.3</ele>
        <time>2023-07-19T09:31:47Z</time>
      </trkpt>
      <trkpt lat="49.84307" lon="2.45679">
        <ele>106.3</ele>
        <time>2023-07-19T09:31:49Z</time>
      </trkpt>
      <trkpt lat="49.84308" lon="2.45679">
        <ele>106.4</ele>
        <time>2023-07-19T09:31:50Z</time>
      </trkpt>
      <trkpt lat="49.84309" lon="2.45679">
        <ele>106.4</ele>
        <time>2023-07-19T09:31:51Z</time>
      </trkpt>
      <trkpt lat="49.8431" lon="2.45678">
        <ele>106.4</ele>
        <time>2023-07-19T09:31:52Z</time>
      </trkpt>
      <trkpt lat="49.84311" lon="2.45677">
        <ele>106.4</ele>
        <time>2023-07-19T09:31:53Z</time>
      </trkpt>
      <trkpt lat="49.84312" lon="2.45677">
        <ele>106.4</ele>
        <time>2023-07-19T09:31:54Z</time>
      </trkpt>
      <trkpt lat="49.84313" lon="2.45676">
        <ele>106.4</ele>
        <time>2023-07-19T09:31:55Z</time>
      </trkpt>
      <trkpt lat="49.84314" lon="2.45676">
        <ele>106.4</ele>
        <time>2023-07-19T09:31:57Z</time>
      </trkpt>
      <trkpt lat="49.84316" lon="2.45676">
        <ele>106.4</ele>
        <time>2023-07-19T09:31:58Z</time>
      </trkpt>
      <trkpt lat="49.84317" lon="2.45676">
        <ele>106.4</ele>
        <time>2023-07-19T09:31:59Z</time>
      </trkpt>
      <trkpt lat="49.84318" lon="2.45677">
        <ele>106.4</ele>
        <time>2023-07-19T09:32:01Z</time>
      </trkpt>
      <trkpt lat="49.84319" lon="2.45677">
        <ele>106.4</ele>
        <time>2023-07-19T09:32:02Z</time>
      </trkpt>
      <trkpt lat="49.8432" lon="2.45677">
        <ele>106.4</ele>
        <time>2023-07-19T09:32:03Z</time>
      </trkpt>
      <trkpt lat="49.84321" lon="2.45676">
        <ele>106.4</ele>
        <time>2023-07-19T09:32:04Z</time>
      </trkpt>
      <trkpt lat="49.84323" lon="2.45676">
        <ele>106.4</ele>
        <time>2023-07-19T09:32:05Z</time>
      </trkpt>
      <trkpt lat="49.84324" lon="2.45676">
        <ele>106.4</ele>
        <time>2023-07-19T09:32:06Z</time>
      </trkpt>
      <trkpt lat="49.84325" lon="2.45676">
        <ele>106.4</ele>
        <time>2023-07-19T09:32:07Z</time>
      </trkpt>
      <trkpt lat="49.84327" lon="2.45677">
        <ele>106.4</ele>
        <time>2023-07-19T09:32:09Z</time>
      </trkpt>
      <trkpt lat="49.84328" lon="2.45677">
        <ele>106.4</ele>
        <time>2023-07-19T09:32:10Z</time>
      </trkpt>
      <trkpt lat="49.84328" lon="2.45677">
        <ele>106.4</ele>
        <time>2023-07-19T09:32:11Z</time>
      </trkpt>
      <trkpt lat="49.84331" lon="2.45677">
        <ele>106.4</ele>
        <time>2023-07-19T09:32:12Z</time>
      </trkpt>
      <trkpt lat="49.84331" lon="2.45677">
        <ele>106.4</ele>
        <time>2023-07-19T09:32:13Z</time>
      </trkpt>
      <trkpt lat="49.84332" lon="2.45677">
        <ele>106.4</ele>
        <time>2023-07-19T09:32:14Z</time>
      </trkpt>
      <trkpt lat="49.84334" lon="2.45678">
        <ele>106.4</ele>
        <time>2023-07-19T09:32:15Z</time>
      </trkpt>
      <trkpt lat="49.84335" lon="2.45678">
        <ele>106.4</ele>
        <time>2023-07-19T09:32:17Z</time>
      </trkpt>
      <trkpt lat="49.84336" lon="2.45679">
        <ele>106.4</ele>
        <time>2023-07-19T09:32:18Z</time>
      </trkpt>
      <trkpt lat="49.84338" lon="2.4568">
        <ele>106.4</ele>
        <time>2023-07-19T09:32:19Z</time>
      </trkpt>
      <trkpt lat="49.84339" lon="2.45681">
        <ele>106.4</ele>
        <time>2023-07-19T09:32:21Z</time>
      </trkpt>
      <trkpt lat="49.84342" lon="2.45682">
        <ele>106.4</ele>
        <time>2023-07-19T09:32:22Z</time>
      </trkpt>
      <trkpt lat="49.84345" lon="2.45682">
        <ele>106.5</ele>
        <time>2023-07-19T09:32:24Z</time>
      </trkpt>
      <trkpt lat="49.84345" lon="2.45683">
        <ele>106.5</ele>
        <time>2023-07-19T09:32:25Z</time>
      </trkpt>
      <trkpt lat="49.84348" lon="2.45683">
        <ele>106.5</ele>
        <time>2023-07-19T09:32:26Z</time>
      </trkpt>
      <trkpt lat="49.84349" lon="2.45684">
        <ele>106.5</ele>
        <time>2023-07-19T09:32:28Z</time>
      </trkpt>
      <trkpt lat="49.84351" lon="2.45684">
        <ele>106.5</ele>
        <time>2023-07-19T09:32:29Z</time>
      </trkpt>
      <trkpt lat="49.84352" lon="2.45685">
        <ele>106.5</ele>
        <time>2023-07-19T09:32:30Z</time>
      </trkpt>
      <trkpt lat="49.84353" lon="2.45686">
        <ele>106.5</ele>
        <time>2023-07-19T09:32:31Z</time>
      </trkpt>
      <trkpt lat="49.84356" lon="2.45688">
        <ele>106.5</ele>
        <time>2023-07-19T09:32:33Z</time>
      </trkpt>
      <trkpt lat="49.84357" lon="2.45689">
        <ele>106.5</ele>
        <time>2023-07-19T09:32:34Z</time>
      </trkpt>
      <trkpt lat="49.84359" lon="2.45691">
        <ele>106.5</ele>
        <time>2023-07-19T09:32:36Z</time>
      </trkpt>
      <trkpt lat="49.8436" lon="2.45692">
        <ele>106.6</ele>
        <time>2023-07-19T09:32:37Z</time>
      </trkpt>
      <trkpt lat="49.84361" lon="2.45692">
        <ele>106.6</ele>
        <time>2023-07-19T09:32:38Z</time>
      </trkpt>
      <trkpt lat="49.84362" lon="2.45693">
        <ele>106.6</ele>
        <time>2023-07-19T09:32:39Z</time>
      </trkpt>
      <trkpt lat="49.84364" lon="2.45694">
        <ele>106.6</ele>
        <time>2023-07-19T09:32:40Z</time>
      </trkpt>
      <trkpt lat="49.84366" lon="2.45695">
        <ele>106.7</ele>
        <time>2023-07-19T09:32:42Z</time>
      </trkpt>
      <trkpt lat="49.84367" lon="2.45695">
        <ele>106.7</ele>
        <time>2023-07-19T09:32:43Z</time>
      </trkpt>
      <trkpt lat="49.84368" lon="2.45696">
        <ele>106.7</ele>
        <time>2023-07-19T09:32:45Z</time>
      </trkpt>
      <trkpt lat="49.84369" lon="2.45697">
        <ele>106.7</ele>
        <time>2023-07-19T09:32:46Z</time>
      </trkpt>
      <trkpt lat="49.8437" lon="2.45698">
        <ele>106.7</ele>
        <time>2023-07-19T09:32:47Z</time>
      </trkpt>
      <trkpt lat="49.84371" lon="2.45699">
        <ele>106.7</ele>
        <time>2023-07-19T09:32:48Z</time>
      </trkpt>
      <trkpt lat="49.84372" lon="2.45699">
        <ele>106.7</ele>
        <time>2023-07-19T09:32:49Z</time>
      </trkpt>
      <trkpt lat="49.84373" lon="2.457">
        <ele>106.7</ele>
        <time>2023-07-19T09:32:50Z</time>
      </trkpt>
      <trkpt lat="49.84375" lon="2.45701">
        <ele>106.7</ele>
        <time>2023-07-19T09:32:52Z</time>
      </trkpt>
      <trkpt lat="49.84376" lon="2.45702">
        <ele>106.6</ele>
        <time>2023-07-19T09:32:53Z</time>
      </trkpt>
      <trkpt lat="49.84378" lon="2.45703">
        <ele>106.6</ele>
        <time>2023-07-19T09:32:54Z</time>
      </trkpt>
      <trkpt lat="49.8438" lon="2.45704">
        <ele>106.5</ele>
        <time>2023-07-19T09:32:56Z</time>
      </trkpt>
      <trkpt lat="49.84381" lon="2.45704">
        <ele>106.5</ele>
        <time>2023-07-19T09:32:58Z</time>
      </trkpt>
      <trkpt lat="49.84383" lon="2.45704">
        <ele>106.5</ele>
        <time>2023-07-19T09:32:59Z</time>
      </trkpt>
      <trkpt lat="49.84384" lon="2.45703">
        <ele>106.5</ele>
        <time>2023-07-19T09:33:00Z</time>
      </trkpt>
      <trkpt lat="49.84385" lon="2.45703">
        <ele>106.5</ele>
        <time>2023-07-19T09:33:01Z</time>
      </trkpt>
      <trkpt lat="49.84386" lon="2.45702">
        <ele>106.4</ele>
        <time>2023-07-19T09:33:02Z</time>
      </trkpt>
      <trkpt lat="49.84387" lon="2.45702">
        <ele>106.4</ele>
        <time>2023-07-19T09:33:03Z</time>
      </trkpt>
      <trkpt lat="49.84388" lon="2.45702">
        <ele>106.4</ele>
        <time>2023-07-19T09:33:04Z</time>
      </trkpt>
      <trkpt lat="49.84389" lon="2.45703">
        <ele>106.4</ele>
        <time>2023-07-19T09:33:05Z</time>
      </trkpt>
      <trkpt lat="49.8439" lon="2.45704">
        <ele>106.4</ele>
        <time>2023-07-19T09:33:06Z</time>
      </trkpt>
      <trkpt lat="49.84392" lon="2.45706">
        <ele>106.3</ele>
        <time>2023-07-19T09:33:07Z</time>
      </trkpt>
      <trkpt lat="49.84392" lon="2.45707">
        <ele>106.3</ele>
        <time>2023-07-19T09:33:09Z</time>
      </trkpt>
      <trkpt lat="49.84393" lon="2.45708">
        <ele>106.3</ele>
        <time>2023-07-19T09:33:10Z</time>
      </trkpt>
      <trkpt lat="49.84394" lon="2.45708">
        <ele>106.3</ele>
        <time>2023-07-19T09:33:11Z</time>
      </trkpt>
      <trkpt lat="49.84395" lon="2.45707">
        <ele>106.2</ele>
        <time>2023-07-19T09:33:12Z</time>
      </trkpt>
      <trkpt lat="49.84395" lon="2.45706">
        <ele>106.2</ele>
        <time>2023-07-19T09:33:13Z</time>
      </trkpt>
      <trkpt lat="49.84396" lon="2.45704">
        <ele>106.2</ele>
        <time>2023-07-19T09:33:15Z</time>
      </trkpt>
      <trkpt lat="49.84396" lon="2.45704">
        <ele>106.2</ele>
        <time>2023-07-19T09:33:16Z</time>
      </trkpt>
      <trkpt lat="49.84397" lon="2.45704">
        <ele>106.2</ele>
        <time>2023-07-19T09:33:17Z</time>
      </trkpt>
      <trkpt lat="49.84398" lon="2.45703">
        <ele>106.2</ele>
        <time>2023-07-19T09:33:18Z</time>
      </trkpt>
      <trkpt lat="49.84399" lon="2.45703">
        <ele>106.2</ele>
        <time>2023-07-19T09:33:19Z</time>
      </trkpt>
      <trkpt lat="49.84399" lon="2.45703">
        <ele>106.1</ele>
        <time>2023-07-19T09:33:20Z</time>
      </trkpt>
      <trkpt lat="49.844" lon="2.45703">
        <ele>106.1</ele>
        <time>2023-07-19T09:33:21Z</time>
      </trkpt>
      <trkpt lat="49.84401" lon="2.45702">
        <ele>106.1</ele>
        <time>2023-07-19T09:33:22Z</time>
      </trkpt>
      <trkpt lat="49.84402" lon="2.45702">
        <ele>106.1</ele>
        <time>2023-07-19T09:33:24Z</time>
      </trkpt>
      <trkpt lat="49.84403" lon="2.45702">
        <ele>106.1</ele>
        <time>2023-07-19T09:33:25Z</time>
      </trkpt>
      <trkpt lat="49.84404" lon="2.45701">
        <ele>106.1</ele>
        <time>2023-07-19T09:33:26Z</time>
      </trkpt>
      <trkpt lat="49.84405" lon="2.45701">
        <ele>106.1</ele>
        <time>2023-07-19T09:33:27Z</time>
      </trkpt>
      <trkpt lat="49.84406" lon="2.45701">
        <ele>106</ele>
        <time>2023-07-19T09:33:28Z</time>
      </trkpt>
      <trkpt lat="49.84406" lon="2.457">
        <ele>106</ele>
        <time>2023-07-19T09:33:29Z</time>
      </trkpt>
      <trkpt lat="49.84407" lon="2.457">
        <ele>106</ele>
        <time>2023-07-19T09:33:30Z</time>
      </trkpt>
      <trkpt lat="49.84408" lon="2.457">
        <ele>106</ele>
        <time>2023-07-19T09:33:32Z</time>
      </trkpt>
      <trkpt lat="49.8441" lon="2.45699">
        <ele>106</ele>
        <time>2023-07-19T09:33:33Z</time>
      </trkpt>
      <trkpt lat="49.84411" lon="2.45699">
        <ele>106</ele>
        <time>2023-07-19T09:33:34Z</time>
      </trkpt>
      <trkpt lat="49.84412" lon="2.45698">
        <ele>105.9</ele>
        <time>2023-07-19T09:33:35Z</time>
      </trkpt>
      <trkpt lat="49.84413" lon="2.45698">
        <ele>105.9</ele>
        <time>2023-07-19T09:33:36Z</time>
      </trkpt>
      <trkpt lat="49.84414" lon="2.45698">
        <ele>105.9</ele>
        <time>2023-07-19T09:33:37Z</time>
      </trkpt>
      <trkpt lat="49.84415" lon="2.45697">
        <ele>105.9</ele>
        <time>2023-07-19T09:33:39Z</time>
      </trkpt>
      <trkpt lat="49.84416" lon="2.45698">
        <ele>105.9</ele>
        <time>2023-07-19T09:33:40Z</time>
      </trkpt>
      <trkpt lat="49.84416" lon="2.457">
        <ele>105.9</ele>
        <time>2023-07-19T09:33:42Z</time>
      </trkpt>
      <trkpt lat="49.84417" lon="2.45701">
        <ele>105.9</ele>
        <time>2023-07-19T09:33:43Z</time>
      </trkpt>
      <trkpt lat="49.84418" lon="2.45701">
        <ele>105.9</ele>
        <time>2023-07-19T09:33:44Z</time>
      </trkpt>
      <trkpt lat="49.84419" lon="2.457">
        <ele>105.8</ele>
        <time>2023-07-19T09:33:46Z</time>
      </trkpt>
      <trkpt lat="49.8442" lon="2.457">
        <ele>105.8</ele>
        <time>2023-07-19T09:33:47Z</time>
      </trkpt>
      <trkpt lat="49.84421" lon="2.45699">
        <ele>105.8</ele>
        <time>2023-07-19T09:33:48Z</time>
      </trkpt>
      <trkpt lat="49.84422" lon="2.45699">
        <ele>105.8</ele>
        <time>2023-07-19T09:33:50Z</time>
      </trkpt>
      <trkpt lat="49.84423" lon="2.45698">
        <ele>105.8</ele>
        <time>2023-07-19T09:33:51Z</time>
      </trkpt>
      <trkpt lat="49.84424" lon="2.45697">
        <ele>105.8</ele>
        <time>2023-07-19T09:33:52Z</time>
      </trkpt>
      <trkpt lat="49.84425" lon="2.45697">
        <ele>105.8</ele>
        <time>2023-07-19T09:33:53Z</time>
      </trkpt>
      <trkpt lat="49.84426" lon="2.45698">
        <ele>105.8</ele>
        <time>2023-07-19T09:33:54Z</time>
      </trkpt>
      <trkpt lat="49.84426" lon="2.45699">
        <ele>105.8</ele>
        <time>2023-07-19T09:33:55Z</time>
      </trkpt>
      <trkpt lat="49.84427" lon="2.45702">
        <ele>105.7</ele>
        <time>2023-07-19T09:33:57Z</time>
      </trkpt>
      <trkpt lat="49.84428" lon="2.45703">
        <ele>105.7</ele>
        <time>2023-07-19T09:33:59Z</time>
      </trkpt>
      <trkpt lat="49.84428" lon="2.45704">
        <ele>105.7</ele>
        <time>2023-07-19T09:34:00Z</time>
      </trkpt>
      <trkpt lat="49.84428" lon="2.45705">
        <ele>105.7</ele>
        <time>2023-07-19T09:34:01Z</time>
      </trkpt>
      <trkpt lat="49.84427" lon="2.45707">
        <ele>105.7</ele>
        <time>2023-07-19T09:34:03Z</time>
      </trkpt>
      <trkpt lat="49.84427" lon="2.45707">
        <ele>105.7</ele>
        <time>2023-07-19T09:34:05Z</time>
      </trkpt>
      <trkpt lat="49.84427" lon="2.45707">
        <ele>105.7</ele>
        <time>2023-07-19T09:34:06Z</time>
      </trkpt>
      <trkpt lat="49.84427" lon="2.45707">
        <ele>105.7</ele>
        <time>2023-07-19T09:34:07Z</time>
      </trkpt>
      <trkpt lat="49.84427" lon="2.45708">
        <ele>105.7</ele>
        <time>2023-07-19T09:34:08Z</time>
      </trkpt>
      <trkpt lat="49.84427" lon="2.45708">
        <ele>105.7</ele>
        <time>2023-07-19T09:34:10Z</time>
      </trkpt>
      <trkpt lat="49.84427" lon="2.45708">
        <ele>105.7</ele>
        <time>2023-07-19T09:34:11Z</time>
      </trkpt>
      <trkpt lat="49.84427" lon="2.45708">
        <ele>105.7</ele>
        <time>2023-07-19T09:34:13Z</time>
      </trkpt>
      <trkpt lat="49.84427" lon="2.45708">
        <ele>105.7</ele>
        <time>2023-07-19T09:34:14Z</time>
      </trkpt>
      <trkpt lat="49.84427" lon="2.45708">
        <ele>105.7</ele>
        <time>2023-07-19T09:34:16Z</time>
      </trkpt>
      <trkpt lat="49.84427" lon="2.45707">
        <ele>105.7</ele>
        <time>2023-07-19T09:34:17Z</time>
      </trkpt>
      <trkpt lat="49.84427" lon="2.45707">
        <ele>105.7</ele>
        <time>2023-07-19T09:34:18Z</time>
      </trkpt>
      <trkpt lat="49.84426" lon="2.45706">
        <ele>105.7</ele>
        <time>2023-07-19T09:34:20Z</time>
      </trkpt>
      <trkpt lat="49.84426" lon="2.45706">
        <ele>105.7</ele>
        <time>2023-07-19T09:34:22Z</time>
      </trkpt>
      <trkpt lat="49.84426" lon="2.45706">
        <ele>105.7</ele>
        <time>2023-07-19T09:34:23Z</time>
      </trkpt>
      <trkpt lat="49.84426" lon="2.45706">
        <ele>105.7</ele>
        <time>2023-07-19T09:34:24Z</time>
      </trkpt>
      <trkpt lat="49.84426" lon="2.45706">
        <ele>105.7</ele>
        <time>2023-07-19T09:34:25Z</time>
      </trkpt>
      <trkpt lat="49.84426" lon="2.45706">
        <ele>105.7</ele>
        <time>2023-07-19T09:34:26Z</time>
      </trkpt>
      <trkpt lat="49.84426" lon="2.45703">
        <ele>105.7</ele>
        <time>2023-07-19T09:34:28Z</time>
      </trkpt>
      <trkpt lat="49.84426" lon="2.45703">
        <ele>105.7</ele>
        <time>2023-07-19T09:34:29Z</time>
      </trkpt>
      <trkpt lat="49.84426" lon="2.45704">
        <ele>105.7</ele>
        <time>2023-07-19T09:34:30Z</time>
      </trkpt>
      <trkpt lat="49.84426" lon="2.45704">
        <ele>105.7</ele>
        <time>2023-07-19T09:34:31Z</time>
      </trkpt>
      <trkpt lat="49.84427" lon="2.45708">
        <ele>105.7</ele>
        <time>2023-07-19T09:34:32Z</time>
      </trkpt>
      <trkpt lat="49.84428" lon="2.4571">
        <ele>105.6</ele>
        <time>2023-07-19T09:34:34Z</time>
      </trkpt>
      <trkpt lat="49.8443" lon="2.45711">
        <ele>105.6</ele>
        <time>2023-07-19T09:34:35Z</time>
      </trkpt>
      <trkpt lat="49.84431" lon="2.45711">
        <ele>105.6</ele>
        <time>2023-07-19T09:34:36Z</time>
      </trkpt>
      <trkpt lat="49.84433" lon="2.45709">
        <ele>105.6</ele>
        <time>2023-07-19T09:34:38Z</time>
      </trkpt>
      <trkpt lat="49.84434" lon="2.45708">
        <ele>105.6</ele>
        <time>2023-07-19T09:34:39Z</time>
      </trkpt>
      <trkpt lat="49.84435" lon="2.45707">
        <ele>105.6</ele>
        <time>2023-07-19T09:34:40Z</time>
      </trkpt>
      <trkpt lat="49.84437" lon="2.45707">
        <ele>105.6</ele>
        <time>2023-07-19T09:34:42Z</time>
      </trkpt>
      <trkpt lat="49.84438" lon="2.45707">
        <ele>105.6</ele>
        <time>2023-07-19T09:34:43Z</time>
      </trkpt>
      <trkpt lat="49.84439" lon="2.45708">
        <ele>105.6</ele>
        <time>2023-07-19T09:34:44Z</time>
      </trkpt>
      <trkpt lat="49.84439" lon="2.45709">
        <ele>105.6</ele>
        <time>2023-07-19T09:34:45Z</time>
      </trkpt>
      <trkpt lat="49.8444" lon="2.45709">
        <ele>105.6</ele>
        <time>2023-07-19T09:34:46Z</time>
      </trkpt>
      <trkpt lat="49.84441" lon="2.4571">
        <ele>105.6</ele>
        <time>2023-07-19T09:34:47Z</time>
      </trkpt>
      <trkpt lat="49.84442" lon="2.45709">
        <ele>105.6</ele>
        <time>2023-07-19T09:34:49Z</time>
      </trkpt>
      <trkpt lat="49.84443" lon="2.45709">
        <ele>105.6</ele>
        <time>2023-07-19T09:34:50Z</time>
      </trkpt>
      <trkpt lat="49.84444" lon="2.45709">
        <ele>105.6</ele>
        <time>2023-07-19T09:34:51Z</time>
      </trkpt>
      <trkpt lat="49.84444" lon="2.45709">
        <ele>105.6</ele>
        <time>2023-07-19T09:34:52Z</time>
      </trkpt>
      <trkpt lat="49.84445" lon="2.45709">
        <ele>105.6</ele>
        <time>2023-07-19T09:34:53Z</time>
      </trkpt>
      <trkpt lat="49.84446" lon="2.45709">
        <ele>105.6</ele>
        <time>2023-07-19T09:34:54Z</time>
      </trkpt>
      <trkpt lat="49.84447" lon="2.4571">
        <ele>105.6</ele>
        <time>2023-07-19T09:34:56Z</time>
      </trkpt>
      <trkpt lat="49.84447" lon="2.45711">
        <ele>105.6</ele>
        <time>2023-07-19T09:34:57Z</time>
      </trkpt>
      <trkpt lat="49.84446" lon="2.45712">
        <ele>105.6</ele>
        <time>2023-07-19T09:34:59Z</time>
      </trkpt>
      <trkpt lat="49.84446" lon="2.45712">
        <ele>105.6</ele>
        <time>2023-07-19T09:35:00Z</time>
      </trkpt>
      <trkpt lat="49.84445" lon="2.45712">
        <ele>105.6</ele>
        <time>2023-07-19T09:35:01Z</time>
      </trkpt>
      <trkpt lat="49.84445" lon="2.45712">
        <ele>105.6</ele>
        <time>2023-07-19T09:35:03Z</time>
      </trkpt>
      <trkpt lat="49.84445" lon="2.45712">
        <ele>105.6</ele>
        <time>2023-07-19T09:35:04Z</time>
      </trkpt>
      <trkpt lat="49.84445" lon="2.45713">
        <ele>105.6</ele>
        <time>2023-07-19T09:35:06Z</time>
      </trkpt>
      <trkpt lat="49.84445" lon="2.45713">
        <ele>105.6</ele>
        <time>2023-07-19T09:35:07Z</time>
      </trkpt>
      <trkpt lat="49.84445" lon="2.45713">
        <ele>105.6</ele>
        <time>2023-07-19T09:35:09Z</time>
      </trkpt>
      <trkpt lat="49.84445" lon="2.45713">
        <ele>105.6</ele>
        <time>2023-07-19T09:35:10Z</time>
      </trkpt>
      <trkpt lat="49.84445" lon="2.45713">
        <ele>105.6</ele>
        <time>2023-07-19T09:35:11Z</time>
      </trkpt>
      <trkpt lat="49.84444" lon="2.45712">
        <ele>105.6</ele>
        <time>2023-07-19T09:35:12Z</time>
      </trkpt>
      <trkpt lat="49.84444" lon="2.45712">
        <ele>105.6</ele>
        <time>2023-07-19T09:35:13Z</time>
      </trkpt>
      <trkpt lat="49.84444" lon="2.45712">
        <ele>105.6</ele>
        <time>2023-07-19T09:35:15Z</time>
      </trkpt>
      <trkpt lat="49.84444" lon="2.45712">
        <ele>105.6</ele>
        <time>2023-07-19T09:35:17Z</time>
      </trkpt>
      <trkpt lat="49.84444" lon="2.45712">
        <ele>105.6</ele>
        <time>2023-07-19T09:35:18Z</time>
      </trkpt>
      <trkpt lat="49.84444" lon="2.45712">
        <ele>105.6</ele>
        <time>2023-07-19T09:35:19Z</time>
      </trkpt>
      <trkpt lat="49.84444" lon="2.45712">
        <ele>105.6</ele>
        <time>2023-07-19T09:35:20Z</time>
      </trkpt>
      <trkpt lat="49.84444" lon="2.45712">
        <ele>105.6</ele>
        <time>2023-07-19T09:35:21Z</time>
      </trkpt>
      <trkpt lat="49.84444" lon="2.45712">
        <ele>105.6</ele>
        <time>2023-07-19T09:35:22Z</time>
      </trkpt>
      <trkpt lat="49.84444" lon="2.45712">
        <ele>105.6</ele>
        <time>2023-07-19T09:35:23Z</time>
      </trkpt>
      <trkpt lat="49.84444" lon="2.45712">
        <ele>105.6</ele>
        <time>2023-07-19T09:35:25Z</time>
      </trkpt>
      <trkpt lat="49.84444" lon="2.45712">
        <ele>105.6</ele>
        <time>2023-07-19T09:35:26Z</time>
      </trkpt>
      <trkpt lat="49.84444" lon="2.45712">
        <ele>105.6</ele>
        <time>2023-07-19T09:35:28Z</time>
      </trkpt>
      <trkpt lat="49.84444" lon="2.45712">
        <ele>105.6</ele>
        <time>2023-07-19T09:35:29Z</time>
      </trkpt>
      <trkpt lat="49.84444" lon="2.45712">
        <ele>105.6</ele>
        <time>2023-07-19T09:35:30Z</time>
      </trkpt>
      <trkpt lat="49.84444" lon="2.45712">
        <ele>105.6</ele>
        <time>2023-07-19T09:35:31Z</time>
      </trkpt>
      <trkpt lat="49.84444" lon="2.45712">
        <ele>105.6</ele>
        <time>2023-07-19T09:35:32Z</time>
      </trkpt>
      <trkpt lat="49.84444" lon="2.45712">
        <ele>105.6</ele>
        <time>2023-07-19T09:35:33Z</time>
      </trkpt>
      <trkpt lat="49.84444" lon="2.45712">
        <ele>105.6</ele>
        <time>2023-07-19T09:35:34Z</time>
      </trkpt>
      <trkpt lat="49.84444" lon="2.45712">
        <ele>105.6</ele>
        <time>2023-07-19T09:35:35Z</time>
      </trkpt>
      <trkpt lat="49.84444" lon="2.45712">
        <ele>105.6</ele>
        <time>2023-07-19T09:35:37Z</time>
      </trkpt>
      <trkpt lat="49.84444" lon="2.45712">
        <ele>105.6</ele>
        <time>2023-07-19T09:35:39Z</time>
      </trkpt>
      <trkpt lat="49.84444" lon="2.45712">
        <ele>105.6</ele>
        <time>2023-07-19T09:35:40Z</time>
      </trkpt>
      <trkpt lat="49.84444" lon="2.45712">
        <ele>105.6</ele>
        <time>2023-07-19T09:35:41Z</time>
      </trkpt>
      <trkpt lat="49.84444" lon="2.45712">
        <ele>105.6</ele>
        <time>2023-07-19T09:35:42Z</time>
      </trkpt>
      <trkpt lat="49.84444" lon="2.45712">
        <ele>105.6</ele>
        <time>2023-07-19T09:35:44Z</time>
      </trkpt>
      <trkpt lat="49.84444" lon="2.45712">
        <ele>105.6</ele>
        <time>2023-07-19T09:35:45Z</time>
      </trkpt>
      <trkpt lat="49.84444" lon="2.45712">
        <ele>105.6</ele>
        <time>2023-07-19T09:35:46Z</time>
      </trkpt>
      <trkpt lat="49.84444" lon="2.45712">
        <ele>105.6</ele>
        <time>2023-07-19T09:35:47Z</time>
      </trkpt>
      <trkpt lat="49.84444" lon="2.45712">
        <ele>105.6</ele>
        <time>2023-07-19T09:35:48Z</time>
      </trkpt>
      <trkpt lat="49.84444" lon="2.45712">
        <ele>105.6</ele>
        <time>2023-07-19T09:35:49Z</time>
      </trkpt>
      <trkpt lat="49.84444" lon="2.45712">
        <ele>105.6</ele>
        <time>2023-07-19T09:35:50Z</time>
      </trkpt>
      <trkpt lat="49.84444" lon="2.45712">
        <ele>105.6</ele>
        <time>2023-07-19T09:35:51Z</time>
      </trkpt>
      <trkpt lat="49.84444" lon="2.45712">
        <ele>105.6</ele>
        <time>2023-07-19T09:35:52Z</time>
      </trkpt>
      <trkpt lat="49.84444" lon="2.45712">
        <ele>105.6</ele>
        <time>2023-07-19T09:35:53Z</time>
      </trkpt>
      <trkpt lat="49.84444" lon="2.45712">
        <ele>105.6</ele>
        <time>2023-07-19T09:35:54Z</time>
      </trkpt>
      <trkpt lat="49.84444" lon="2.45712">
        <ele>105.6</ele>
        <time>2023-07-19T09:35:55Z</time>
      </trkpt>
      <trkpt lat="49.84444" lon="2.45712">
        <ele>105.6</ele>
        <time>2023-07-19T09:35:57Z</time>
      </trkpt>
      <trkpt lat="49.84444" lon="2.45712">
        <ele>105.6</ele>
        <time>2023-07-19T09:35:58Z</time>
      </trkpt>
      <trkpt lat="49.84444" lon="2.45712">
        <ele>105.6</ele>
        <time>2023-07-19T09:35:59Z</time>
      </trkpt>
      <trkpt lat="49.84444" lon="2.45712">
        <ele>105.6</ele>
        <time>2023-07-19T09:36:00Z</time>
      </trkpt>
      <trkpt lat="49.84444" lon="2.45712">
        <ele>105.6</ele>
        <time>2023-07-19T09:36:01Z</time>
      </trkpt>
      <trkpt lat="49.84444" lon="2.45712">
        <ele>105.6</ele>
        <time>2023-07-19T09:36:02Z</time>
      </trkpt>
      <trkpt lat="49.84444" lon="2.45712">
        <ele>105.6</ele>
        <time>2023-07-19T09:36:03Z</time>
      </trkpt>
      <trkpt lat="49.84444" lon="2.45712">
        <ele>105.6</ele>
        <time>2023-07-19T09:36:05Z</time>
      </trkpt>
      <trkpt lat="49.84444" lon="2.45712">
        <ele>105.6</ele>
        <time>2023-07-19T09:36:07Z</time>
      </trkpt>
      <trkpt lat="49.84444" lon="2.45712">
        <ele>105.6</ele>
        <time>2023-07-19T09:36:08Z</time>
      </trkpt>
      <trkpt lat="49.84444" lon="2.45712">
        <ele>105.6</ele>
        <time>2023-07-19T09:36:09Z</time>
      </trkpt>
      <trkpt lat="49.84444" lon="2.45712">
        <ele>105.6</ele>
        <time>2023-07-19T09:36:10Z</time>
      </trkpt>
      <trkpt lat="49.84444" lon="2.45712">
        <ele>105.6</ele>
        <time>2023-07-19T09:36:11Z</time>
      </trkpt>
      <trkpt lat="49.84444" lon="2.45712">
        <ele>105.6</ele>
        <time>2023-07-19T09:36:12Z</time>
      </trkpt>
      <trkpt lat="49.84444" lon="2.45712">
        <ele>105.6</ele>
        <time>2023-07-19T09:36:13Z</time>
      </trkpt>
      <trkpt lat="49.84444" lon="2.45712">
        <ele>105.6</ele>
        <time>2023-07-19T09:36:14Z</time>
      </trkpt>
      <trkpt lat="49.84444" lon="2.45712">
        <ele>105.6</ele>
        <time>2023-07-19T09:36:15Z</time>
      </trkpt>
      <trkpt lat="49.84444" lon="2.45712">
        <ele>105.6</ele>
        <time>2023-07-19T09:36:16Z</time>
      </trkpt>
      <trkpt lat="49.84444" lon="2.45712">
        <ele>105.6</ele>
        <time>2023-07-19T09:36:17Z</time>
      </trkpt>
      <trkpt lat="49.84444" lon="2.45712">
        <ele>105.6</ele>
        <time>2023-07-19T09:36:18Z</time>
      </trkpt>
      <trkpt lat="49.84444" lon="2.45712">
        <ele>105.6</ele>
        <time>2023-07-19T09:36:19Z</time>
      </trkpt>
      <trkpt lat="49.84444" lon="2.45712">
        <ele>105.6</ele>
        <time>2023-07-19T09:36:20Z</time>
      </trkpt>
      <trkpt lat="49.84444" lon="2.45712">
        <ele>105.6</ele>
        <time>2023-07-19T09:36:21Z</time>
      </trkpt>
      <trkpt lat="49.84444" lon="2.45712">
        <ele>105.6</ele>
        <time>2023-07-19T09:36:23Z</time>
      </trkpt>
      <trkpt lat="49.84444" lon="2.45712">
        <ele>105.6</ele>
        <time>2023-07-19T09:36:24Z</time>
      </trkpt>
      <trkpt lat="49.84444" lon="2.45712">
        <ele>105.6</ele>
        <time>2023-07-19T09:36:25Z</time>
      </trkpt>
      <trkpt lat="49.84444" lon="2.45712">
        <ele>105.6</ele>
        <time>2023-07-19T09:36:26Z</time>
      </trkpt>
      <trkpt lat="49.84444" lon="2.45712">
        <ele>105.6</ele>
        <time>2023-07-19T09:36:27Z</time>
      </trkpt>
      <trkpt lat="49.84441" lon="2.4571">
        <ele>105.6</ele>
        <time>2023-07-19T09:36:29Z</time>
      </trkpt>
      <trkpt lat="49.8444" lon="2.45709">
        <ele>105.6</ele>
        <time>2023-07-19T09:36:30Z</time>
      </trkpt>
      <trkpt lat="49.84439" lon="2.45709">
        <ele>105.6</ele>
        <time>2023-07-19T09:36:32Z</time>
      </trkpt>
      <trkpt lat="49.84439" lon="2.45709">
        <ele>105.6</ele>
        <time>2023-07-19T09:36:33Z</time>
      </trkpt>
      <trkpt lat="49.84439" lon="2.45709">
        <ele>105.6</ele>
        <time>2023-07-19T09:36:34Z</time>
      </trkpt>
      <trkpt lat="49.84439" lon="2.45709">
        <ele>105.6</ele>
        <time>2023-07-19T09:36:35Z</time>
      </trkpt>
      <trkpt lat="49.84439" lon="2.45709">
        <ele>105.6</ele>
        <time>2023-07-19T09:36:37Z</time>
      </trkpt>
      <trkpt lat="49.84439" lon="2.45709">
        <ele>105.6</ele>
        <time>2023-07-19T09:36:38Z</time>
      </trkpt>
      <trkpt lat="49.84439" lon="2.45709">
        <ele>105.6</ele>
        <time>2023-07-19T09:36:40Z</time>
      </trkpt>
      <trkpt lat="49.84439" lon="2.45709">
        <ele>105.6</ele>
        <time>2023-07-19T09:36:41Z</time>
      </trkpt>
    </trkseg>
  </trk>
</gpx>